<?xml version="1.0" encoding="UTF-8" standalone="no" ?>
<gpx xmlns="http://www.topografix.com/GPX/1/1" xmlns:xsi="http://www.w3.org/2001/XMLSchema-instance" xsi:schemaLocation="http://www.topografix.com/GPX/1/1 http://www.topografix.com/GPX/1/1/gpx.xsd" version="1.1" creator="VisuGPX - https://www.visugpx.com">
  <metadata>
    <name>Rando VTT Etobon</name>
    <desc><![CDATA[Rando Etobon 45km + une boucle de 6km due a une erreur \"collective\" !
Belle.rando physique manque un peu de technique dans les descentes.]]></desc>
  </metadata>
  <trk>
    <name><![CDATA[VTT : Rando Etobon]]></name>
    <trkseg>
      <trkpt lat="47.64317" lon="6.67582">
        <ele>441.2</ele>
        <time>2026-08-30T08:25:56.000Z</time>
      </trkpt>
      <trkpt lat="47.64324" lon="6.67591">
        <ele>441.4</ele>
        <time>2026-08-30T08:25:58.000Z</time>
      </trkpt>
      <trkpt lat="47.64331" lon="6.676">
        <ele>441.6</ele>
        <time>2026-08-30T08:26:00.000Z</time>
      </trkpt>
      <trkpt lat="47.64338" lon="6.67609">
        <ele>442</ele>
        <time>2026-08-30T08:26:02.000Z</time>
      </trkpt>
      <trkpt lat="47.64344" lon="6.67618">
        <ele>442.4</ele>
        <time>2026-08-30T08:26:04.000Z</time>
      </trkpt>
      <trkpt lat="47.64348" lon="6.67627">
        <ele>442.8</ele>
        <time>2026-08-30T08:26:06.000Z</time>
      </trkpt>
      <trkpt lat="47.64349" lon="6.67634">
        <ele>443.2</ele>
        <time>2026-08-30T08:26:08.000Z</time>
      </trkpt>
      <trkpt lat="47.64353" lon="6.67638">
        <ele>443.6</ele>
        <time>2026-08-30T08:26:10.000Z</time>
      </trkpt>
      <trkpt lat="47.64362" lon="6.6764">
        <ele>443.8</ele>
        <time>2026-08-30T08:26:12.000Z</time>
      </trkpt>
      <trkpt lat="47.64372" lon="6.67642">
        <ele>444</ele>
        <time>2026-08-30T08:26:14.000Z</time>
      </trkpt>
      <trkpt lat="47.64383" lon="6.67649">
        <ele>444.4</ele>
        <time>2026-08-30T08:26:16.000Z</time>
      </trkpt>
      <trkpt lat="47.64391" lon="6.67654">
        <ele>445</ele>
        <time>2026-08-30T08:26:18.000Z</time>
      </trkpt>
      <trkpt lat="47.64397" lon="6.67658">
        <ele>445.6</ele>
        <time>2026-08-30T08:26:20.000Z</time>
      </trkpt>
      <trkpt lat="47.64403" lon="6.67663">
        <ele>446.2</ele>
        <time>2026-08-30T08:26:22.000Z</time>
      </trkpt>
      <trkpt lat="47.64408" lon="6.67666">
        <ele>447</ele>
        <time>2026-08-30T08:26:24.000Z</time>
      </trkpt>
      <trkpt lat="47.64414" lon="6.6767">
        <ele>447.6</ele>
        <time>2026-08-30T08:26:26.000Z</time>
      </trkpt>
      <trkpt lat="47.6442" lon="6.67673">
        <ele>448.4</ele>
        <time>2026-08-30T08:26:28.000Z</time>
      </trkpt>
      <trkpt lat="47.64425" lon="6.67676">
        <ele>449</ele>
        <time>2026-08-30T08:26:30.000Z</time>
      </trkpt>
      <trkpt lat="47.64429" lon="6.67682">
        <ele>449.6</ele>
        <time>2026-08-30T08:26:32.000Z</time>
      </trkpt>
      <trkpt lat="47.64432" lon="6.67691">
        <ele>450.4</ele>
        <time>2026-08-30T08:26:34.000Z</time>
      </trkpt>
      <trkpt lat="47.64435" lon="6.67699">
        <ele>451.2</ele>
        <time>2026-08-30T08:26:36.000Z</time>
      </trkpt>
      <trkpt lat="47.64437" lon="6.67708">
        <ele>451.8</ele>
        <time>2026-08-30T08:26:38.000Z</time>
      </trkpt>
      <trkpt lat="47.6444" lon="6.67717">
        <ele>452.4</ele>
        <time>2026-08-30T08:26:40.000Z</time>
      </trkpt>
      <trkpt lat="47.64442" lon="6.67725">
        <ele>453</ele>
        <time>2026-08-30T08:26:42.000Z</time>
      </trkpt>
      <trkpt lat="47.64445" lon="6.67736">
        <ele>453</ele>
        <time>2026-08-30T08:26:44.000Z</time>
      </trkpt>
      <trkpt lat="47.64448" lon="6.67749">
        <ele>452.8</ele>
        <time>2026-08-30T08:26:46.000Z</time>
      </trkpt>
      <trkpt lat="47.64451" lon="6.67765">
        <ele>452.2</ele>
        <time>2026-08-30T08:26:48.000Z</time>
      </trkpt>
      <trkpt lat="47.64453" lon="6.67784">
        <ele>451.2</ele>
        <time>2026-08-30T08:26:50.000Z</time>
      </trkpt>
      <trkpt lat="47.64456" lon="6.67805">
        <ele>450.2</ele>
        <time>2026-08-30T08:26:52.000Z</time>
      </trkpt>
      <trkpt lat="47.64461" lon="6.67828">
        <ele>448.8</ele>
        <time>2026-08-30T08:26:54.000Z</time>
      </trkpt>
      <trkpt lat="47.64466" lon="6.67849">
        <ele>447.6</ele>
        <time>2026-08-30T08:26:57.000Z</time>
      </trkpt>
      <trkpt lat="47.6447" lon="6.67864">
        <ele>446.6</ele>
        <time>2026-08-30T08:26:59.000Z</time>
      </trkpt>
      <trkpt lat="47.64475" lon="6.67875">
        <ele>445.8</ele>
        <time>2026-08-30T08:27:01.000Z</time>
      </trkpt>
      <trkpt lat="47.64479" lon="6.67887">
        <ele>444.8</ele>
        <time>2026-08-30T08:27:03.000Z</time>
      </trkpt>
      <trkpt lat="47.64481" lon="6.67902">
        <ele>443.6</ele>
        <time>2026-08-30T08:27:05.000Z</time>
      </trkpt>
      <trkpt lat="47.64476" lon="6.67917">
        <ele>442.6</ele>
        <time>2026-08-30T08:27:07.000Z</time>
      </trkpt>
      <trkpt lat="47.64467" lon="6.67933">
        <ele>441.4</ele>
        <time>2026-08-30T08:27:09.000Z</time>
      </trkpt>
      <trkpt lat="47.64459" lon="6.67951">
        <ele>440.2</ele>
        <time>2026-08-30T08:27:11.000Z</time>
      </trkpt>
      <trkpt lat="47.6446" lon="6.67965">
        <ele>439.4</ele>
        <time>2026-08-30T08:27:13.000Z</time>
      </trkpt>
      <trkpt lat="47.64466" lon="6.67975">
        <ele>438.8</ele>
        <time>2026-08-30T08:27:15.000Z</time>
      </trkpt>
      <trkpt lat="47.64472" lon="6.67987">
        <ele>438.2</ele>
        <time>2026-08-30T08:27:17.000Z</time>
      </trkpt>
      <trkpt lat="47.64478" lon="6.68">
        <ele>437.2</ele>
        <time>2026-08-30T08:27:19.000Z</time>
      </trkpt>
      <trkpt lat="47.64482" lon="6.68014">
        <ele>436.4</ele>
        <time>2026-08-30T08:27:21.000Z</time>
      </trkpt>
      <trkpt lat="47.64483" lon="6.68028">
        <ele>435.6</ele>
        <time>2026-08-30T08:27:23.000Z</time>
      </trkpt>
      <trkpt lat="47.64481" lon="6.68042">
        <ele>434.8</ele>
        <time>2026-08-30T08:27:25.000Z</time>
      </trkpt>
      <trkpt lat="47.64479" lon="6.68058">
        <ele>434</ele>
        <time>2026-08-30T08:27:27.000Z</time>
      </trkpt>
      <trkpt lat="47.64476" lon="6.68077">
        <ele>433</ele>
        <time>2026-08-30T08:27:29.000Z</time>
      </trkpt>
      <trkpt lat="47.64476" lon="6.68093">
        <ele>431.8</ele>
        <time>2026-08-30T08:27:31.000Z</time>
      </trkpt>
      <trkpt lat="47.6448" lon="6.68106">
        <ele>430.4</ele>
        <time>2026-08-30T08:27:33.000Z</time>
      </trkpt>
      <trkpt lat="47.64486" lon="6.68118">
        <ele>429.2</ele>
        <time>2026-08-30T08:27:35.000Z</time>
      </trkpt>
      <trkpt lat="47.64493" lon="6.68127">
        <ele>428.2</ele>
        <time>2026-08-30T08:27:37.000Z</time>
      </trkpt>
      <trkpt lat="47.64498" lon="6.68138">
        <ele>427</ele>
        <time>2026-08-30T08:27:39.000Z</time>
      </trkpt>
      <trkpt lat="47.64499" lon="6.68151">
        <ele>425.8</ele>
        <time>2026-08-30T08:27:41.000Z</time>
      </trkpt>
      <trkpt lat="47.64497" lon="6.68165">
        <ele>424</ele>
        <time>2026-08-30T08:27:43.000Z</time>
      </trkpt>
      <trkpt lat="47.64495" lon="6.68182">
        <ele>422.2</ele>
        <time>2026-08-30T08:27:45.000Z</time>
      </trkpt>
      <trkpt lat="47.64494" lon="6.68199">
        <ele>420.4</ele>
        <time>2026-08-30T08:27:47.000Z</time>
      </trkpt>
      <trkpt lat="47.64494" lon="6.68213">
        <ele>419.4</ele>
        <time>2026-08-30T08:27:49.000Z</time>
      </trkpt>
      <trkpt lat="47.64494" lon="6.68228">
        <ele>418.4</ele>
        <time>2026-08-30T08:27:51.000Z</time>
      </trkpt>
      <trkpt lat="47.64493" lon="6.68251">
        <ele>417.6</ele>
        <time>2026-08-30T08:27:53.000Z</time>
      </trkpt>
      <trkpt lat="47.64495" lon="6.68267">
        <ele>417</ele>
        <time>2026-08-30T08:27:55.000Z</time>
      </trkpt>
      <trkpt lat="47.645" lon="6.68276">
        <ele>416</ele>
        <time>2026-08-30T08:27:57.000Z</time>
      </trkpt>
      <trkpt lat="47.64504" lon="6.68283">
        <ele>414.4</ele>
        <time>2026-08-30T08:27:59.000Z</time>
      </trkpt>
      <trkpt lat="47.64506" lon="6.68286">
        <ele>413.4</ele>
        <time>2026-08-30T08:28:01.000Z</time>
      </trkpt>
      <trkpt lat="47.64506" lon="6.68286">
        <ele>412.8</ele>
        <time>2026-08-30T08:28:03.000Z</time>
      </trkpt>
      <trkpt lat="47.64507" lon="6.68286">
        <ele>412.4</ele>
        <time>2026-08-30T08:28:05.000Z</time>
      </trkpt>
      <trkpt lat="47.64508" lon="6.68286">
        <ele>412.2</ele>
        <time>2026-08-30T08:28:07.000Z</time>
      </trkpt>
      <trkpt lat="47.64509" lon="6.68287">
        <ele>412</ele>
        <time>2026-08-30T08:28:09.000Z</time>
      </trkpt>
      <trkpt lat="47.6451" lon="6.68289">
        <ele>412</ele>
        <time>2026-08-30T08:28:11.000Z</time>
      </trkpt>
      <trkpt lat="47.64511" lon="6.68292">
        <ele>412</ele>
        <time>2026-08-30T08:28:13.000Z</time>
      </trkpt>
      <trkpt lat="47.64513" lon="6.68296">
        <ele>412</ele>
        <time>2026-08-30T08:28:15.000Z</time>
      </trkpt>
      <trkpt lat="47.64516" lon="6.68301">
        <ele>412.2</ele>
        <time>2026-08-30T08:28:17.000Z</time>
      </trkpt>
      <trkpt lat="47.64517" lon="6.68307">
        <ele>412.6</ele>
        <time>2026-08-30T08:28:19.000Z</time>
      </trkpt>
      <trkpt lat="47.64519" lon="6.68312">
        <ele>413.4</ele>
        <time>2026-08-30T08:28:21.000Z</time>
      </trkpt>
      <trkpt lat="47.64521" lon="6.68317">
        <ele>414</ele>
        <time>2026-08-30T08:28:23.000Z</time>
      </trkpt>
      <trkpt lat="47.64523" lon="6.6832">
        <ele>414.6</ele>
        <time>2026-08-30T08:28:25.000Z</time>
      </trkpt>
      <trkpt lat="47.64525" lon="6.68321">
        <ele>415.2</ele>
        <time>2026-08-30T08:28:27.000Z</time>
      </trkpt>
      <trkpt lat="47.64527" lon="6.68321">
        <ele>416</ele>
        <time>2026-08-30T08:28:29.000Z</time>
      </trkpt>
      <trkpt lat="47.64529" lon="6.68323">
        <ele>416.8</ele>
        <time>2026-08-30T08:28:32.000Z</time>
      </trkpt>
      <trkpt lat="47.64531" lon="6.68325">
        <ele>417.4</ele>
        <time>2026-08-30T08:28:34.000Z</time>
      </trkpt>
      <trkpt lat="47.64533" lon="6.68327">
        <ele>418</ele>
        <time>2026-08-30T08:28:36.000Z</time>
      </trkpt>
      <trkpt lat="47.64535" lon="6.68329">
        <ele>418.8</ele>
        <time>2026-08-30T08:28:38.000Z</time>
      </trkpt>
      <trkpt lat="47.64538" lon="6.6833">
        <ele>419.6</ele>
        <time>2026-08-30T08:28:40.000Z</time>
      </trkpt>
      <trkpt lat="47.64541" lon="6.68332">
        <ele>420.4</ele>
        <time>2026-08-30T08:28:42.000Z</time>
      </trkpt>
      <trkpt lat="47.64542" lon="6.68334">
        <ele>421</ele>
        <time>2026-08-30T08:28:44.000Z</time>
      </trkpt>
      <trkpt lat="47.64543" lon="6.68336">
        <ele>421.6</ele>
        <time>2026-08-30T08:28:46.000Z</time>
      </trkpt>
      <trkpt lat="47.64545" lon="6.68339">
        <ele>422</ele>
        <time>2026-08-30T08:28:48.000Z</time>
      </trkpt>
      <trkpt lat="47.64547" lon="6.68342">
        <ele>422.2</ele>
        <time>2026-08-30T08:28:50.000Z</time>
      </trkpt>
      <trkpt lat="47.64549" lon="6.68345">
        <ele>422.4</ele>
        <time>2026-08-30T08:28:52.000Z</time>
      </trkpt>
      <trkpt lat="47.64551" lon="6.68349">
        <ele>423</ele>
        <time>2026-08-30T08:28:54.000Z</time>
      </trkpt>
      <trkpt lat="47.64554" lon="6.68351">
        <ele>423.8</ele>
        <time>2026-08-30T08:28:56.000Z</time>
      </trkpt>
      <trkpt lat="47.64557" lon="6.68352">
        <ele>424.4</ele>
        <time>2026-08-30T08:28:58.000Z</time>
      </trkpt>
      <trkpt lat="47.64558" lon="6.68353">
        <ele>424.8</ele>
        <time>2026-08-30T08:29:00.000Z</time>
      </trkpt>
      <trkpt lat="47.64559" lon="6.68354">
        <ele>425</ele>
        <time>2026-08-30T08:29:02.000Z</time>
      </trkpt>
      <trkpt lat="47.64559" lon="6.68354">
        <ele>425.2</ele>
        <time>2026-08-30T08:29:04.000Z</time>
      </trkpt>
      <trkpt lat="47.64559" lon="6.68354">
        <ele>425.4</ele>
        <time>2026-08-30T08:29:06.000Z</time>
      </trkpt>
      <trkpt lat="47.6456" lon="6.68355">
        <ele>425.6</ele>
        <time>2026-08-30T08:29:08.000Z</time>
      </trkpt>
      <trkpt lat="47.64561" lon="6.68357">
        <ele>425.8</ele>
        <time>2026-08-30T08:29:10.000Z</time>
      </trkpt>
      <trkpt lat="47.64562" lon="6.68358">
        <ele>426</ele>
        <time>2026-08-30T08:29:12.000Z</time>
      </trkpt>
      <trkpt lat="47.64562" lon="6.68358">
        <ele>426.2</ele>
        <time>2026-08-30T08:29:14.000Z</time>
      </trkpt>
      <trkpt lat="47.64563" lon="6.68361">
        <ele>426.2</ele>
        <time>2026-08-30T08:29:16.000Z</time>
      </trkpt>
      <trkpt lat="47.64564" lon="6.68366">
        <ele>426.2</ele>
        <time>2026-08-30T08:29:18.000Z</time>
      </trkpt>
      <trkpt lat="47.64566" lon="6.68371">
        <ele>426.2</ele>
        <time>2026-08-30T08:29:20.000Z</time>
      </trkpt>
      <trkpt lat="47.64568" lon="6.68377">
        <ele>426.2</ele>
        <time>2026-08-30T08:29:22.000Z</time>
      </trkpt>
      <trkpt lat="47.6457" lon="6.68382">
        <ele>426.4</ele>
        <time>2026-08-30T08:29:24.000Z</time>
      </trkpt>
      <trkpt lat="47.64572" lon="6.68386">
        <ele>426.4</ele>
        <time>2026-08-30T08:29:26.000Z</time>
      </trkpt>
      <trkpt lat="47.64575" lon="6.68391">
        <ele>426.6</ele>
        <time>2026-08-30T08:29:28.000Z</time>
      </trkpt>
      <trkpt lat="47.64577" lon="6.68396">
        <ele>426.6</ele>
        <time>2026-08-30T08:29:30.000Z</time>
      </trkpt>
      <trkpt lat="47.64579" lon="6.68401">
        <ele>426.6</ele>
        <time>2026-08-30T08:29:32.000Z</time>
      </trkpt>
      <trkpt lat="47.6458" lon="6.68406">
        <ele>426.8</ele>
        <time>2026-08-30T08:29:34.000Z</time>
      </trkpt>
      <trkpt lat="47.64582" lon="6.6841">
        <ele>426.8</ele>
        <time>2026-08-30T08:29:36.000Z</time>
      </trkpt>
      <trkpt lat="47.64583" lon="6.68414">
        <ele>427</ele>
        <time>2026-08-30T08:29:39.000Z</time>
      </trkpt>
      <trkpt lat="47.64585" lon="6.68419">
        <ele>427.2</ele>
        <time>2026-08-30T08:29:41.000Z</time>
      </trkpt>
      <trkpt lat="47.64586" lon="6.68422">
        <ele>427.2</ele>
        <time>2026-08-30T08:29:43.000Z</time>
      </trkpt>
      <trkpt lat="47.64587" lon="6.68423">
        <ele>427.6</ele>
        <time>2026-08-30T08:29:45.000Z</time>
      </trkpt>
      <trkpt lat="47.6459" lon="6.68424">
        <ele>428.2</ele>
        <time>2026-08-30T08:29:47.000Z</time>
      </trkpt>
      <trkpt lat="47.64592" lon="6.68425">
        <ele>429</ele>
        <time>2026-08-30T08:29:49.000Z</time>
      </trkpt>
      <trkpt lat="47.64594" lon="6.68425">
        <ele>429.8</ele>
        <time>2026-08-30T08:29:51.000Z</time>
      </trkpt>
      <trkpt lat="47.64596" lon="6.68424">
        <ele>430.4</ele>
        <time>2026-08-30T08:29:53.000Z</time>
      </trkpt>
      <trkpt lat="47.646" lon="6.68423">
        <ele>431.2</ele>
        <time>2026-08-30T08:29:55.000Z</time>
      </trkpt>
      <trkpt lat="47.64602" lon="6.68422">
        <ele>431.8</ele>
        <time>2026-08-30T08:29:57.000Z</time>
      </trkpt>
      <trkpt lat="47.64603" lon="6.68422">
        <ele>432.2</ele>
        <time>2026-08-30T08:29:59.000Z</time>
      </trkpt>
      <trkpt lat="47.64603" lon="6.68423">
        <ele>432.6</ele>
        <time>2026-08-30T08:30:01.000Z</time>
      </trkpt>
      <trkpt lat="47.64603" lon="6.68423">
        <ele>432.8</ele>
        <time>2026-08-30T08:30:03.000Z</time>
      </trkpt>
      <trkpt lat="47.64603" lon="6.68424">
        <ele>432.8</ele>
        <time>2026-08-30T08:30:05.000Z</time>
      </trkpt>
      <trkpt lat="47.64604" lon="6.68425">
        <ele>433</ele>
        <time>2026-08-30T08:30:07.000Z</time>
      </trkpt>
      <trkpt lat="47.64605" lon="6.68426">
        <ele>433</ele>
        <time>2026-08-30T08:30:09.000Z</time>
      </trkpt>
      <trkpt lat="47.64606" lon="6.68429">
        <ele>433</ele>
        <time>2026-08-30T08:30:11.000Z</time>
      </trkpt>
      <trkpt lat="47.64608" lon="6.68433">
        <ele>433.2</ele>
        <time>2026-08-30T08:30:13.000Z</time>
      </trkpt>
      <trkpt lat="47.6461" lon="6.68435">
        <ele>433.6</ele>
        <time>2026-08-30T08:30:15.000Z</time>
      </trkpt>
      <trkpt lat="47.64611" lon="6.68435">
        <ele>434</ele>
        <time>2026-08-30T08:30:17.000Z</time>
      </trkpt>
      <trkpt lat="47.64611" lon="6.68434">
        <ele>434.2</ele>
        <time>2026-08-30T08:30:19.000Z</time>
      </trkpt>
      <trkpt lat="47.64613" lon="6.68434">
        <ele>434.4</ele>
        <time>2026-08-30T08:30:21.000Z</time>
      </trkpt>
      <trkpt lat="47.64615" lon="6.68434">
        <ele>434.8</ele>
        <time>2026-08-30T08:30:23.000Z</time>
      </trkpt>
      <trkpt lat="47.64617" lon="6.68434">
        <ele>435</ele>
        <time>2026-08-30T08:30:25.000Z</time>
      </trkpt>
      <trkpt lat="47.64618" lon="6.68434">
        <ele>435.4</ele>
        <time>2026-08-30T08:30:27.000Z</time>
      </trkpt>
      <trkpt lat="47.64619" lon="6.68436">
        <ele>435.6</ele>
        <time>2026-08-30T08:30:29.000Z</time>
      </trkpt>
      <trkpt lat="47.6462" lon="6.68439">
        <ele>436</ele>
        <time>2026-08-30T08:30:31.000Z</time>
      </trkpt>
      <trkpt lat="47.64621" lon="6.68441">
        <ele>436.2</ele>
        <time>2026-08-30T08:30:33.000Z</time>
      </trkpt>
      <trkpt lat="47.64622" lon="6.68442">
        <ele>436.2</ele>
        <time>2026-08-30T08:30:35.000Z</time>
      </trkpt>
      <trkpt lat="47.64623" lon="6.68444">
        <ele>436.4</ele>
        <time>2026-08-30T08:30:37.000Z</time>
      </trkpt>
      <trkpt lat="47.64625" lon="6.68448">
        <ele>436.4</ele>
        <time>2026-08-30T08:30:39.000Z</time>
      </trkpt>
      <trkpt lat="47.64627" lon="6.68452">
        <ele>436.4</ele>
        <time>2026-08-30T08:30:41.000Z</time>
      </trkpt>
      <trkpt lat="47.64628" lon="6.68458">
        <ele>436.6</ele>
        <time>2026-08-30T08:30:43.000Z</time>
      </trkpt>
      <trkpt lat="47.64629" lon="6.68465">
        <ele>436.4</ele>
        <time>2026-08-30T08:30:45.000Z</time>
      </trkpt>
      <trkpt lat="47.6463" lon="6.68472">
        <ele>436.4</ele>
        <time>2026-08-30T08:30:47.000Z</time>
      </trkpt>
      <trkpt lat="47.64631" lon="6.68479">
        <ele>436.2</ele>
        <time>2026-08-30T08:30:49.000Z</time>
      </trkpt>
      <trkpt lat="47.64631" lon="6.68484">
        <ele>436</ele>
        <time>2026-08-30T08:30:51.000Z</time>
      </trkpt>
      <trkpt lat="47.64633" lon="6.68488">
        <ele>436</ele>
        <time>2026-08-30T08:30:53.000Z</time>
      </trkpt>
      <trkpt lat="47.64636" lon="6.68488">
        <ele>436.2</ele>
        <time>2026-08-30T08:30:55.000Z</time>
      </trkpt>
      <trkpt lat="47.64639" lon="6.68488">
        <ele>436.6</ele>
        <time>2026-08-30T08:30:57.000Z</time>
      </trkpt>
      <trkpt lat="47.64642" lon="6.68488">
        <ele>437</ele>
        <time>2026-08-30T08:30:59.000Z</time>
      </trkpt>
      <trkpt lat="47.64645" lon="6.68487">
        <ele>437.6</ele>
        <time>2026-08-30T08:31:01.000Z</time>
      </trkpt>
      <trkpt lat="47.64648" lon="6.68487">
        <ele>438</ele>
        <time>2026-08-30T08:31:03.000Z</time>
      </trkpt>
      <trkpt lat="47.6465" lon="6.68486">
        <ele>438.6</ele>
        <time>2026-08-30T08:31:05.000Z</time>
      </trkpt>
      <trkpt lat="47.64653" lon="6.68485">
        <ele>439</ele>
        <time>2026-08-30T08:31:07.000Z</time>
      </trkpt>
      <trkpt lat="47.64655" lon="6.68483">
        <ele>439.6</ele>
        <time>2026-08-30T08:31:09.000Z</time>
      </trkpt>
      <trkpt lat="47.64658" lon="6.68481">
        <ele>440</ele>
        <time>2026-08-30T08:31:11.000Z</time>
      </trkpt>
      <trkpt lat="47.6466" lon="6.68479">
        <ele>440.4</ele>
        <time>2026-08-30T08:31:13.000Z</time>
      </trkpt>
      <trkpt lat="47.64663" lon="6.68477">
        <ele>440.8</ele>
        <time>2026-08-30T08:31:15.000Z</time>
      </trkpt>
      <trkpt lat="47.64665" lon="6.68475">
        <ele>441.2</ele>
        <time>2026-08-30T08:31:17.000Z</time>
      </trkpt>
      <trkpt lat="47.64668" lon="6.68474">
        <ele>441.4</ele>
        <time>2026-08-30T08:31:19.000Z</time>
      </trkpt>
      <trkpt lat="47.64671" lon="6.68474">
        <ele>441.6</ele>
        <time>2026-08-30T08:31:21.000Z</time>
      </trkpt>
      <trkpt lat="47.64674" lon="6.68478">
        <ele>441.4</ele>
        <time>2026-08-30T08:31:23.000Z</time>
      </trkpt>
      <trkpt lat="47.64677" lon="6.68482">
        <ele>441.2</ele>
        <time>2026-08-30T08:31:25.000Z</time>
      </trkpt>
      <trkpt lat="47.64683" lon="6.68486">
        <ele>440.6</ele>
        <time>2026-08-30T08:31:27.000Z</time>
      </trkpt>
      <trkpt lat="47.64691" lon="6.68486">
        <ele>439.6</ele>
        <time>2026-08-30T08:31:30.000Z</time>
      </trkpt>
      <trkpt lat="47.647" lon="6.68487">
        <ele>438.4</ele>
        <time>2026-08-30T08:31:32.000Z</time>
      </trkpt>
      <trkpt lat="47.6471" lon="6.6849">
        <ele>437.2</ele>
        <time>2026-08-30T08:31:34.000Z</time>
      </trkpt>
      <trkpt lat="47.64718" lon="6.68498">
        <ele>436.2</ele>
        <time>2026-08-30T08:31:36.000Z</time>
      </trkpt>
      <trkpt lat="47.64729" lon="6.6851">
        <ele>435.2</ele>
        <time>2026-08-30T08:31:38.000Z</time>
      </trkpt>
      <trkpt lat="47.64739" lon="6.68522">
        <ele>433.8</ele>
        <time>2026-08-30T08:31:40.000Z</time>
      </trkpt>
      <trkpt lat="47.64748" lon="6.68535">
        <ele>432.4</ele>
        <time>2026-08-30T08:31:42.000Z</time>
      </trkpt>
      <trkpt lat="47.64758" lon="6.68549">
        <ele>431.2</ele>
        <time>2026-08-30T08:31:44.000Z</time>
      </trkpt>
      <trkpt lat="47.64768" lon="6.68566">
        <ele>430</ele>
        <time>2026-08-30T08:31:46.000Z</time>
      </trkpt>
      <trkpt lat="47.64778" lon="6.68584">
        <ele>428.6</ele>
        <time>2026-08-30T08:31:48.000Z</time>
      </trkpt>
      <trkpt lat="47.64789" lon="6.68602">
        <ele>427.6</ele>
        <time>2026-08-30T08:31:50.000Z</time>
      </trkpt>
      <trkpt lat="47.64799" lon="6.68622">
        <ele>426.4</ele>
        <time>2026-08-30T08:31:52.000Z</time>
      </trkpt>
      <trkpt lat="47.64808" lon="6.6864">
        <ele>425.2</ele>
        <time>2026-08-30T08:31:54.000Z</time>
      </trkpt>
      <trkpt lat="47.64817" lon="6.68655">
        <ele>423.8</ele>
        <time>2026-08-30T08:31:56.000Z</time>
      </trkpt>
      <trkpt lat="47.64828" lon="6.68673">
        <ele>422.2</ele>
        <time>2026-08-30T08:31:58.000Z</time>
      </trkpt>
      <trkpt lat="47.64843" lon="6.687">
        <ele>420.4</ele>
        <time>2026-08-30T08:32:00.000Z</time>
      </trkpt>
      <trkpt lat="47.64859" lon="6.6873">
        <ele>418.6</ele>
        <time>2026-08-30T08:32:02.000Z</time>
      </trkpt>
      <trkpt lat="47.64873" lon="6.68754">
        <ele>416.6</ele>
        <time>2026-08-30T08:32:04.000Z</time>
      </trkpt>
      <trkpt lat="47.64887" lon="6.68776">
        <ele>415.2</ele>
        <time>2026-08-30T08:32:06.000Z</time>
      </trkpt>
      <trkpt lat="47.64898" lon="6.6879">
        <ele>413.4</ele>
        <time>2026-08-30T08:32:08.000Z</time>
      </trkpt>
      <trkpt lat="47.64908" lon="6.6879">
        <ele>411.8</ele>
        <time>2026-08-30T08:32:10.000Z</time>
      </trkpt>
      <trkpt lat="47.64916" lon="6.68779">
        <ele>410.2</ele>
        <time>2026-08-30T08:32:12.000Z</time>
      </trkpt>
      <trkpt lat="47.64921" lon="6.68761">
        <ele>409</ele>
        <time>2026-08-30T08:32:14.000Z</time>
      </trkpt>
      <trkpt lat="47.64924" lon="6.68739">
        <ele>407.8</ele>
        <time>2026-08-30T08:32:16.000Z</time>
      </trkpt>
      <trkpt lat="47.64926" lon="6.68717">
        <ele>407</ele>
        <time>2026-08-30T08:32:18.000Z</time>
      </trkpt>
      <trkpt lat="47.6493" lon="6.68701">
        <ele>405.8</ele>
        <time>2026-08-30T08:32:20.000Z</time>
      </trkpt>
      <trkpt lat="47.6494" lon="6.68694">
        <ele>404.8</ele>
        <time>2026-08-30T08:32:22.000Z</time>
      </trkpt>
      <trkpt lat="47.64953" lon="6.68696">
        <ele>404</ele>
        <time>2026-08-30T08:32:24.000Z</time>
      </trkpt>
      <trkpt lat="47.64965" lon="6.68702">
        <ele>403.6</ele>
        <time>2026-08-30T08:32:26.000Z</time>
      </trkpt>
      <trkpt lat="47.64974" lon="6.68711">
        <ele>403.4</ele>
        <time>2026-08-30T08:32:28.000Z</time>
      </trkpt>
      <trkpt lat="47.6498" lon="6.68719">
        <ele>403.4</ele>
        <time>2026-08-30T08:32:30.000Z</time>
      </trkpt>
      <trkpt lat="47.64984" lon="6.68723">
        <ele>403.6</ele>
        <time>2026-08-30T08:32:32.000Z</time>
      </trkpt>
      <trkpt lat="47.6499" lon="6.68726">
        <ele>403.6</ele>
        <time>2026-08-30T08:32:34.000Z</time>
      </trkpt>
      <trkpt lat="47.64997" lon="6.68727">
        <ele>403.4</ele>
        <time>2026-08-30T08:32:36.000Z</time>
      </trkpt>
      <trkpt lat="47.65006" lon="6.68727">
        <ele>403.4</ele>
        <time>2026-08-30T08:32:38.000Z</time>
      </trkpt>
      <trkpt lat="47.65015" lon="6.68725">
        <ele>403.4</ele>
        <time>2026-08-30T08:32:40.000Z</time>
      </trkpt>
      <trkpt lat="47.65022" lon="6.68721">
        <ele>403.6</ele>
        <time>2026-08-30T08:32:42.000Z</time>
      </trkpt>
      <trkpt lat="47.65027" lon="6.68715">
        <ele>403.8</ele>
        <time>2026-08-30T08:32:45.000Z</time>
      </trkpt>
      <trkpt lat="47.6503" lon="6.6871">
        <ele>404.2</ele>
        <time>2026-08-30T08:32:47.000Z</time>
      </trkpt>
      <trkpt lat="47.65033" lon="6.68706">
        <ele>404.6</ele>
        <time>2026-08-30T08:32:49.000Z</time>
      </trkpt>
      <trkpt lat="47.65036" lon="6.68702">
        <ele>405</ele>
        <time>2026-08-30T08:32:51.000Z</time>
      </trkpt>
      <trkpt lat="47.65039" lon="6.68699">
        <ele>405.6</ele>
        <time>2026-08-30T08:32:53.000Z</time>
      </trkpt>
      <trkpt lat="47.65042" lon="6.68697">
        <ele>406</ele>
        <time>2026-08-30T08:32:55.000Z</time>
      </trkpt>
      <trkpt lat="47.65045" lon="6.68695">
        <ele>406.4</ele>
        <time>2026-08-30T08:32:57.000Z</time>
      </trkpt>
      <trkpt lat="47.65049" lon="6.68694">
        <ele>407</ele>
        <time>2026-08-30T08:32:59.000Z</time>
      </trkpt>
      <trkpt lat="47.65052" lon="6.68693">
        <ele>407.4</ele>
        <time>2026-08-30T08:33:01.000Z</time>
      </trkpt>
      <trkpt lat="47.65056" lon="6.68692">
        <ele>407.8</ele>
        <time>2026-08-30T08:33:03.000Z</time>
      </trkpt>
      <trkpt lat="47.65059" lon="6.68692">
        <ele>408.2</ele>
        <time>2026-08-30T08:33:05.000Z</time>
      </trkpt>
      <trkpt lat="47.65063" lon="6.68692">
        <ele>408.6</ele>
        <time>2026-08-30T08:33:07.000Z</time>
      </trkpt>
      <trkpt lat="47.65066" lon="6.68691">
        <ele>409</ele>
        <time>2026-08-30T08:33:09.000Z</time>
      </trkpt>
      <trkpt lat="47.6507" lon="6.6869">
        <ele>409.4</ele>
        <time>2026-08-30T08:33:11.000Z</time>
      </trkpt>
      <trkpt lat="47.65073" lon="6.6869">
        <ele>409.8</ele>
        <time>2026-08-30T08:33:13.000Z</time>
      </trkpt>
      <trkpt lat="47.65077" lon="6.68691">
        <ele>410.2</ele>
        <time>2026-08-30T08:33:15.000Z</time>
      </trkpt>
      <trkpt lat="47.65081" lon="6.68692">
        <ele>410.6</ele>
        <time>2026-08-30T08:33:17.000Z</time>
      </trkpt>
      <trkpt lat="47.65085" lon="6.68695">
        <ele>411</ele>
        <time>2026-08-30T08:33:19.000Z</time>
      </trkpt>
      <trkpt lat="47.65088" lon="6.68698">
        <ele>411.4</ele>
        <time>2026-08-30T08:33:21.000Z</time>
      </trkpt>
      <trkpt lat="47.65091" lon="6.68701">
        <ele>411.8</ele>
        <time>2026-08-30T08:33:23.000Z</time>
      </trkpt>
      <trkpt lat="47.65094" lon="6.68703">
        <ele>412.2</ele>
        <time>2026-08-30T08:33:25.000Z</time>
      </trkpt>
      <trkpt lat="47.65097" lon="6.68706">
        <ele>412.6</ele>
        <time>2026-08-30T08:33:27.000Z</time>
      </trkpt>
      <trkpt lat="47.651" lon="6.68708">
        <ele>413</ele>
        <time>2026-08-30T08:33:29.000Z</time>
      </trkpt>
      <trkpt lat="47.65104" lon="6.68711">
        <ele>413.4</ele>
        <time>2026-08-30T08:33:31.000Z</time>
      </trkpt>
      <trkpt lat="47.65107" lon="6.68713">
        <ele>413.8</ele>
        <time>2026-08-30T08:33:33.000Z</time>
      </trkpt>
      <trkpt lat="47.65111" lon="6.68715">
        <ele>414.2</ele>
        <time>2026-08-30T08:33:35.000Z</time>
      </trkpt>
      <trkpt lat="47.65116" lon="6.68719">
        <ele>414.6</ele>
        <time>2026-08-30T08:33:37.000Z</time>
      </trkpt>
      <trkpt lat="47.65121" lon="6.68722">
        <ele>415.2</ele>
        <time>2026-08-30T08:33:39.000Z</time>
      </trkpt>
      <trkpt lat="47.65125" lon="6.68724">
        <ele>415.6</ele>
        <time>2026-08-30T08:33:41.000Z</time>
      </trkpt>
      <trkpt lat="47.65129" lon="6.68726">
        <ele>415.8</ele>
        <time>2026-08-30T08:33:43.000Z</time>
      </trkpt>
      <trkpt lat="47.65133" lon="6.68728">
        <ele>416.2</ele>
        <time>2026-08-30T08:33:45.000Z</time>
      </trkpt>
      <trkpt lat="47.65137" lon="6.68731">
        <ele>416.2</ele>
        <time>2026-08-30T08:33:47.000Z</time>
      </trkpt>
      <trkpt lat="47.65142" lon="6.68734">
        <ele>416.4</ele>
        <time>2026-08-30T08:33:49.000Z</time>
      </trkpt>
      <trkpt lat="47.65147" lon="6.68737">
        <ele>416.4</ele>
        <time>2026-08-30T08:33:51.000Z</time>
      </trkpt>
      <trkpt lat="47.65152" lon="6.6874">
        <ele>416.4</ele>
        <time>2026-08-30T08:33:53.000Z</time>
      </trkpt>
      <trkpt lat="47.65157" lon="6.68744">
        <ele>416.6</ele>
        <time>2026-08-30T08:33:55.000Z</time>
      </trkpt>
      <trkpt lat="47.65162" lon="6.68747">
        <ele>416.6</ele>
        <time>2026-08-30T08:33:57.000Z</time>
      </trkpt>
      <trkpt lat="47.65167" lon="6.68749">
        <ele>416.8</ele>
        <time>2026-08-30T08:33:59.000Z</time>
      </trkpt>
      <trkpt lat="47.65172" lon="6.68751">
        <ele>417</ele>
        <time>2026-08-30T08:34:01.000Z</time>
      </trkpt>
      <trkpt lat="47.65177" lon="6.68754">
        <ele>417</ele>
        <time>2026-08-30T08:34:03.000Z</time>
      </trkpt>
      <trkpt lat="47.65184" lon="6.68756">
        <ele>417</ele>
        <time>2026-08-30T08:34:05.000Z</time>
      </trkpt>
      <trkpt lat="47.65191" lon="6.68758">
        <ele>417</ele>
        <time>2026-08-30T08:34:07.000Z</time>
      </trkpt>
      <trkpt lat="47.65198" lon="6.68761">
        <ele>416.8</ele>
        <time>2026-08-30T08:34:09.000Z</time>
      </trkpt>
      <trkpt lat="47.65204" lon="6.68764">
        <ele>416.8</ele>
        <time>2026-08-30T08:34:11.000Z</time>
      </trkpt>
      <trkpt lat="47.65209" lon="6.68767">
        <ele>416.8</ele>
        <time>2026-08-30T08:34:13.000Z</time>
      </trkpt>
      <trkpt lat="47.65215" lon="6.68769">
        <ele>416.8</ele>
        <time>2026-08-30T08:34:15.000Z</time>
      </trkpt>
      <trkpt lat="47.65221" lon="6.6877">
        <ele>416.8</ele>
        <time>2026-08-30T08:34:17.000Z</time>
      </trkpt>
      <trkpt lat="47.65228" lon="6.68771">
        <ele>417</ele>
        <time>2026-08-30T08:34:19.000Z</time>
      </trkpt>
      <trkpt lat="47.65233" lon="6.68772">
        <ele>417.2</ele>
        <time>2026-08-30T08:34:21.000Z</time>
      </trkpt>
      <trkpt lat="47.65238" lon="6.68776">
        <ele>417.4</ele>
        <time>2026-08-30T08:34:23.000Z</time>
      </trkpt>
      <trkpt lat="47.6524" lon="6.68784">
        <ele>417.4</ele>
        <time>2026-08-30T08:34:26.000Z</time>
      </trkpt>
      <trkpt lat="47.65241" lon="6.68795">
        <ele>417.6</ele>
        <time>2026-08-30T08:34:28.000Z</time>
      </trkpt>
      <trkpt lat="47.65241" lon="6.68806">
        <ele>417.8</ele>
        <time>2026-08-30T08:34:30.000Z</time>
      </trkpt>
      <trkpt lat="47.65242" lon="6.68815">
        <ele>418</ele>
        <time>2026-08-30T08:34:32.000Z</time>
      </trkpt>
      <trkpt lat="47.65242" lon="6.68824">
        <ele>418.4</ele>
        <time>2026-08-30T08:34:34.000Z</time>
      </trkpt>
      <trkpt lat="47.65243" lon="6.68833">
        <ele>418.8</ele>
        <time>2026-08-30T08:34:36.000Z</time>
      </trkpt>
      <trkpt lat="47.65244" lon="6.68841">
        <ele>419.2</ele>
        <time>2026-08-30T08:34:38.000Z</time>
      </trkpt>
      <trkpt lat="47.65245" lon="6.68849">
        <ele>419.6</ele>
        <time>2026-08-30T08:34:40.000Z</time>
      </trkpt>
      <trkpt lat="47.65246" lon="6.68857">
        <ele>419.8</ele>
        <time>2026-08-30T08:34:42.000Z</time>
      </trkpt>
      <trkpt lat="47.65246" lon="6.68867">
        <ele>419.8</ele>
        <time>2026-08-30T08:34:44.000Z</time>
      </trkpt>
      <trkpt lat="47.65247" lon="6.68876">
        <ele>420</ele>
        <time>2026-08-30T08:34:46.000Z</time>
      </trkpt>
      <trkpt lat="47.65247" lon="6.68885">
        <ele>420.2</ele>
        <time>2026-08-30T08:34:48.000Z</time>
      </trkpt>
      <trkpt lat="47.65246" lon="6.68894">
        <ele>420.4</ele>
        <time>2026-08-30T08:34:50.000Z</time>
      </trkpt>
      <trkpt lat="47.65246" lon="6.68902">
        <ele>420.6</ele>
        <time>2026-08-30T08:34:52.000Z</time>
      </trkpt>
      <trkpt lat="47.65246" lon="6.68911">
        <ele>420.8</ele>
        <time>2026-08-30T08:34:54.000Z</time>
      </trkpt>
      <trkpt lat="47.65246" lon="6.6892">
        <ele>421</ele>
        <time>2026-08-30T08:34:56.000Z</time>
      </trkpt>
      <trkpt lat="47.65245" lon="6.68928">
        <ele>421.2</ele>
        <time>2026-08-30T08:34:58.000Z</time>
      </trkpt>
      <trkpt lat="47.65244" lon="6.68936">
        <ele>421.4</ele>
        <time>2026-08-30T08:35:00.000Z</time>
      </trkpt>
      <trkpt lat="47.65243" lon="6.68946">
        <ele>421.6</ele>
        <time>2026-08-30T08:35:02.000Z</time>
      </trkpt>
      <trkpt lat="47.65243" lon="6.68956">
        <ele>421.8</ele>
        <time>2026-08-30T08:35:04.000Z</time>
      </trkpt>
      <trkpt lat="47.65243" lon="6.68965">
        <ele>422.2</ele>
        <time>2026-08-30T08:35:06.000Z</time>
      </trkpt>
      <trkpt lat="47.65242" lon="6.68972">
        <ele>422.4</ele>
        <time>2026-08-30T08:35:08.000Z</time>
      </trkpt>
      <trkpt lat="47.65242" lon="6.6898">
        <ele>422.8</ele>
        <time>2026-08-30T08:35:10.000Z</time>
      </trkpt>
      <trkpt lat="47.65241" lon="6.68987">
        <ele>423</ele>
        <time>2026-08-30T08:35:12.000Z</time>
      </trkpt>
      <trkpt lat="47.65241" lon="6.68995">
        <ele>423.4</ele>
        <time>2026-08-30T08:35:14.000Z</time>
      </trkpt>
      <trkpt lat="47.6524" lon="6.69003">
        <ele>423.6</ele>
        <time>2026-08-30T08:35:16.000Z</time>
      </trkpt>
      <trkpt lat="47.6524" lon="6.69011">
        <ele>424</ele>
        <time>2026-08-30T08:35:18.000Z</time>
      </trkpt>
      <trkpt lat="47.6524" lon="6.69019">
        <ele>424.2</ele>
        <time>2026-08-30T08:35:20.000Z</time>
      </trkpt>
      <trkpt lat="47.6524" lon="6.69027">
        <ele>424.6</ele>
        <time>2026-08-30T08:35:22.000Z</time>
      </trkpt>
      <trkpt lat="47.6524" lon="6.69034">
        <ele>424.8</ele>
        <time>2026-08-30T08:35:24.000Z</time>
      </trkpt>
      <trkpt lat="47.6524" lon="6.69042">
        <ele>425.2</ele>
        <time>2026-08-30T08:35:26.000Z</time>
      </trkpt>
      <trkpt lat="47.65239" lon="6.6905">
        <ele>425.4</ele>
        <time>2026-08-30T08:35:28.000Z</time>
      </trkpt>
      <trkpt lat="47.65239" lon="6.69057">
        <ele>425.8</ele>
        <time>2026-08-30T08:35:30.000Z</time>
      </trkpt>
      <trkpt lat="47.65238" lon="6.69065">
        <ele>426.2</ele>
        <time>2026-08-30T08:35:32.000Z</time>
      </trkpt>
      <trkpt lat="47.65237" lon="6.69072">
        <ele>426.6</ele>
        <time>2026-08-30T08:35:34.000Z</time>
      </trkpt>
      <trkpt lat="47.65237" lon="6.69079">
        <ele>426.8</ele>
        <time>2026-08-30T08:35:36.000Z</time>
      </trkpt>
      <trkpt lat="47.65239" lon="6.69085">
        <ele>427.2</ele>
        <time>2026-08-30T08:35:38.000Z</time>
      </trkpt>
      <trkpt lat="47.65241" lon="6.6909">
        <ele>427.4</ele>
        <time>2026-08-30T08:35:40.000Z</time>
      </trkpt>
      <trkpt lat="47.65245" lon="6.69095">
        <ele>427.6</ele>
        <time>2026-08-30T08:35:42.000Z</time>
      </trkpt>
      <trkpt lat="47.65248" lon="6.691">
        <ele>427.8</ele>
        <time>2026-08-30T08:35:45.000Z</time>
      </trkpt>
      <trkpt lat="47.65251" lon="6.69107">
        <ele>427.8</ele>
        <time>2026-08-30T08:35:47.000Z</time>
      </trkpt>
      <trkpt lat="47.65254" lon="6.69115">
        <ele>427.8</ele>
        <time>2026-08-30T08:35:49.000Z</time>
      </trkpt>
      <trkpt lat="47.65259" lon="6.69122">
        <ele>427.6</ele>
        <time>2026-08-30T08:35:51.000Z</time>
      </trkpt>
      <trkpt lat="47.65266" lon="6.6913">
        <ele>427.2</ele>
        <time>2026-08-30T08:35:53.000Z</time>
      </trkpt>
      <trkpt lat="47.65276" lon="6.69138">
        <ele>426.4</ele>
        <time>2026-08-30T08:35:55.000Z</time>
      </trkpt>
      <trkpt lat="47.65288" lon="6.69147">
        <ele>425.2</ele>
        <time>2026-08-30T08:35:57.000Z</time>
      </trkpt>
      <trkpt lat="47.653" lon="6.69159">
        <ele>424</ele>
        <time>2026-08-30T08:35:59.000Z</time>
      </trkpt>
      <trkpt lat="47.65313" lon="6.6917">
        <ele>422.6</ele>
        <time>2026-08-30T08:36:01.000Z</time>
      </trkpt>
      <trkpt lat="47.65324" lon="6.69181">
        <ele>421.4</ele>
        <time>2026-08-30T08:36:03.000Z</time>
      </trkpt>
      <trkpt lat="47.65334" lon="6.69195">
        <ele>420.2</ele>
        <time>2026-08-30T08:36:05.000Z</time>
      </trkpt>
      <trkpt lat="47.65343" lon="6.69211">
        <ele>419.2</ele>
        <time>2026-08-30T08:36:07.000Z</time>
      </trkpt>
      <trkpt lat="47.65353" lon="6.69228">
        <ele>418</ele>
        <time>2026-08-30T08:36:09.000Z</time>
      </trkpt>
      <trkpt lat="47.65363" lon="6.69244">
        <ele>417</ele>
        <time>2026-08-30T08:36:11.000Z</time>
      </trkpt>
      <trkpt lat="47.6537" lon="6.69262">
        <ele>416.2</ele>
        <time>2026-08-30T08:36:13.000Z</time>
      </trkpt>
      <trkpt lat="47.65376" lon="6.69279">
        <ele>415.6</ele>
        <time>2026-08-30T08:36:15.000Z</time>
      </trkpt>
      <trkpt lat="47.65381" lon="6.69292">
        <ele>415.6</ele>
        <time>2026-08-30T08:36:17.000Z</time>
      </trkpt>
      <trkpt lat="47.65386" lon="6.69302">
        <ele>415.4</ele>
        <time>2026-08-30T08:36:19.000Z</time>
      </trkpt>
      <trkpt lat="47.6539" lon="6.69311">
        <ele>415.2</ele>
        <time>2026-08-30T08:36:21.000Z</time>
      </trkpt>
      <trkpt lat="47.65394" lon="6.69319">
        <ele>415</ele>
        <time>2026-08-30T08:36:23.000Z</time>
      </trkpt>
      <trkpt lat="47.65399" lon="6.6933">
        <ele>414.8</ele>
        <time>2026-08-30T08:36:25.000Z</time>
      </trkpt>
      <trkpt lat="47.65406" lon="6.69341">
        <ele>414.4</ele>
        <time>2026-08-30T08:36:27.000Z</time>
      </trkpt>
      <trkpt lat="47.65413" lon="6.69353">
        <ele>413.8</ele>
        <time>2026-08-30T08:36:29.000Z</time>
      </trkpt>
      <trkpt lat="47.65421" lon="6.69367">
        <ele>413.2</ele>
        <time>2026-08-30T08:36:31.000Z</time>
      </trkpt>
      <trkpt lat="47.65427" lon="6.69381">
        <ele>412.2</ele>
        <time>2026-08-30T08:36:33.000Z</time>
      </trkpt>
      <trkpt lat="47.65432" lon="6.69399">
        <ele>411.4</ele>
        <time>2026-08-30T08:36:35.000Z</time>
      </trkpt>
      <trkpt lat="47.65435" lon="6.69418">
        <ele>410.4</ele>
        <time>2026-08-30T08:36:37.000Z</time>
      </trkpt>
      <trkpt lat="47.65441" lon="6.69433">
        <ele>409.4</ele>
        <time>2026-08-30T08:36:39.000Z</time>
      </trkpt>
      <trkpt lat="47.65448" lon="6.69446">
        <ele>408.2</ele>
        <time>2026-08-30T08:36:41.000Z</time>
      </trkpt>
      <trkpt lat="47.65454" lon="6.69457">
        <ele>406.8</ele>
        <time>2026-08-30T08:36:43.000Z</time>
      </trkpt>
      <trkpt lat="47.6546" lon="6.69465">
        <ele>405.6</ele>
        <time>2026-08-30T08:36:45.000Z</time>
      </trkpt>
      <trkpt lat="47.65466" lon="6.69475">
        <ele>404.2</ele>
        <time>2026-08-30T08:36:47.000Z</time>
      </trkpt>
      <trkpt lat="47.65471" lon="6.69484">
        <ele>402.6</ele>
        <time>2026-08-30T08:36:49.000Z</time>
      </trkpt>
      <trkpt lat="47.65477" lon="6.69494">
        <ele>401</ele>
        <time>2026-08-30T08:36:51.000Z</time>
      </trkpt>
      <trkpt lat="47.65484" lon="6.69504">
        <ele>399.2</ele>
        <time>2026-08-30T08:36:53.000Z</time>
      </trkpt>
      <trkpt lat="47.65489" lon="6.69514">
        <ele>397.4</ele>
        <time>2026-08-30T08:36:55.000Z</time>
      </trkpt>
      <trkpt lat="47.65493" lon="6.69524">
        <ele>395.6</ele>
        <time>2026-08-30T08:36:57.000Z</time>
      </trkpt>
      <trkpt lat="47.65495" lon="6.69533">
        <ele>393.8</ele>
        <time>2026-08-30T08:36:59.000Z</time>
      </trkpt>
      <trkpt lat="47.65498" lon="6.6954">
        <ele>392.4</ele>
        <time>2026-08-30T08:37:01.000Z</time>
      </trkpt>
      <trkpt lat="47.65502" lon="6.69546">
        <ele>390.8</ele>
        <time>2026-08-30T08:37:03.000Z</time>
      </trkpt>
      <trkpt lat="47.65503" lon="6.69555">
        <ele>388.6</ele>
        <time>2026-08-30T08:37:05.000Z</time>
      </trkpt>
      <trkpt lat="47.65503" lon="6.69564">
        <ele>386.6</ele>
        <time>2026-08-30T08:37:07.000Z</time>
      </trkpt>
      <trkpt lat="47.65503" lon="6.69572">
        <ele>385</ele>
        <time>2026-08-30T08:37:09.000Z</time>
      </trkpt>
      <trkpt lat="47.65502" lon="6.69581">
        <ele>384.2</ele>
        <time>2026-08-30T08:37:11.000Z</time>
      </trkpt>
      <trkpt lat="47.655" lon="6.69587">
        <ele>383.8</ele>
        <time>2026-08-30T08:37:13.000Z</time>
      </trkpt>
      <trkpt lat="47.655" lon="6.69595">
        <ele>383.6</ele>
        <time>2026-08-30T08:37:15.000Z</time>
      </trkpt>
      <trkpt lat="47.65502" lon="6.69604">
        <ele>383.6</ele>
        <time>2026-08-30T08:37:17.000Z</time>
      </trkpt>
      <trkpt lat="47.65504" lon="6.69613">
        <ele>383.8</ele>
        <time>2026-08-30T08:37:19.000Z</time>
      </trkpt>
      <trkpt lat="47.65506" lon="6.69621">
        <ele>384.2</ele>
        <time>2026-08-30T08:37:21.000Z</time>
      </trkpt>
      <trkpt lat="47.65506" lon="6.6963">
        <ele>384.4</ele>
        <time>2026-08-30T08:37:23.000Z</time>
      </trkpt>
      <trkpt lat="47.65507" lon="6.69639">
        <ele>384.8</ele>
        <time>2026-08-30T08:37:26.000Z</time>
      </trkpt>
      <trkpt lat="47.65507" lon="6.69647">
        <ele>385</ele>
        <time>2026-08-30T08:37:28.000Z</time>
      </trkpt>
      <trkpt lat="47.65506" lon="6.69655">
        <ele>385.2</ele>
        <time>2026-08-30T08:37:30.000Z</time>
      </trkpt>
      <trkpt lat="47.65506" lon="6.69663">
        <ele>385.4</ele>
        <time>2026-08-30T08:37:32.000Z</time>
      </trkpt>
      <trkpt lat="47.65507" lon="6.69672">
        <ele>385.4</ele>
        <time>2026-08-30T08:37:34.000Z</time>
      </trkpt>
      <trkpt lat="47.65507" lon="6.69681">
        <ele>385.6</ele>
        <time>2026-08-30T08:37:36.000Z</time>
      </trkpt>
      <trkpt lat="47.65508" lon="6.69689">
        <ele>385.6</ele>
        <time>2026-08-30T08:37:38.000Z</time>
      </trkpt>
      <trkpt lat="47.65507" lon="6.69698">
        <ele>385.8</ele>
        <time>2026-08-30T08:37:40.000Z</time>
      </trkpt>
      <trkpt lat="47.65505" lon="6.69707">
        <ele>386.2</ele>
        <time>2026-08-30T08:37:42.000Z</time>
      </trkpt>
      <trkpt lat="47.65504" lon="6.69715">
        <ele>386.6</ele>
        <time>2026-08-30T08:37:44.000Z</time>
      </trkpt>
      <trkpt lat="47.65503" lon="6.69723">
        <ele>387</ele>
        <time>2026-08-30T08:37:46.000Z</time>
      </trkpt>
      <trkpt lat="47.65502" lon="6.6973">
        <ele>387.6</ele>
        <time>2026-08-30T08:37:48.000Z</time>
      </trkpt>
      <trkpt lat="47.65501" lon="6.69737">
        <ele>388.2</ele>
        <time>2026-08-30T08:37:50.000Z</time>
      </trkpt>
      <trkpt lat="47.655" lon="6.69743">
        <ele>389</ele>
        <time>2026-08-30T08:37:52.000Z</time>
      </trkpt>
      <trkpt lat="47.65499" lon="6.69749">
        <ele>389.6</ele>
        <time>2026-08-30T08:37:54.000Z</time>
      </trkpt>
      <trkpt lat="47.65499" lon="6.69755">
        <ele>390.2</ele>
        <time>2026-08-30T08:37:56.000Z</time>
      </trkpt>
      <trkpt lat="47.65499" lon="6.69761">
        <ele>390.8</ele>
        <time>2026-08-30T08:37:58.000Z</time>
      </trkpt>
      <trkpt lat="47.65498" lon="6.69767">
        <ele>391.2</ele>
        <time>2026-08-30T08:38:00.000Z</time>
      </trkpt>
      <trkpt lat="47.65499" lon="6.69774">
        <ele>391.4</ele>
        <time>2026-08-30T08:38:02.000Z</time>
      </trkpt>
      <trkpt lat="47.655" lon="6.69784">
        <ele>391.6</ele>
        <time>2026-08-30T08:38:04.000Z</time>
      </trkpt>
      <trkpt lat="47.65501" lon="6.69795">
        <ele>391.6</ele>
        <time>2026-08-30T08:38:06.000Z</time>
      </trkpt>
      <trkpt lat="47.65502" lon="6.69805">
        <ele>391.8</ele>
        <time>2026-08-30T08:38:08.000Z</time>
      </trkpt>
      <trkpt lat="47.65502" lon="6.69814">
        <ele>391.8</ele>
        <time>2026-08-30T08:38:10.000Z</time>
      </trkpt>
      <trkpt lat="47.65503" lon="6.69822">
        <ele>392.2</ele>
        <time>2026-08-30T08:38:12.000Z</time>
      </trkpt>
      <trkpt lat="47.65503" lon="6.6983">
        <ele>392.2</ele>
        <time>2026-08-30T08:38:14.000Z</time>
      </trkpt>
      <trkpt lat="47.65505" lon="6.69839">
        <ele>392.2</ele>
        <time>2026-08-30T08:38:16.000Z</time>
      </trkpt>
      <trkpt lat="47.65507" lon="6.69851">
        <ele>392</ele>
        <time>2026-08-30T08:38:18.000Z</time>
      </trkpt>
      <trkpt lat="47.65509" lon="6.69861">
        <ele>391.8</ele>
        <time>2026-08-30T08:38:20.000Z</time>
      </trkpt>
      <trkpt lat="47.65511" lon="6.6987">
        <ele>391.8</ele>
        <time>2026-08-30T08:38:22.000Z</time>
      </trkpt>
      <trkpt lat="47.65513" lon="6.69881">
        <ele>391.8</ele>
        <time>2026-08-30T08:38:24.000Z</time>
      </trkpt>
      <trkpt lat="47.65515" lon="6.69891">
        <ele>391.8</ele>
        <time>2026-08-30T08:38:26.000Z</time>
      </trkpt>
      <trkpt lat="47.65518" lon="6.69901">
        <ele>391.8</ele>
        <time>2026-08-30T08:38:28.000Z</time>
      </trkpt>
      <trkpt lat="47.65522" lon="6.69911">
        <ele>391.4</ele>
        <time>2026-08-30T08:38:30.000Z</time>
      </trkpt>
      <trkpt lat="47.65526" lon="6.69923">
        <ele>391.2</ele>
        <time>2026-08-30T08:38:33.000Z</time>
      </trkpt>
      <trkpt lat="47.6553" lon="6.69935">
        <ele>390.8</ele>
        <time>2026-08-30T08:38:35.000Z</time>
      </trkpt>
      <trkpt lat="47.65533" lon="6.69946">
        <ele>390.4</ele>
        <time>2026-08-30T08:38:37.000Z</time>
      </trkpt>
      <trkpt lat="47.65539" lon="6.69956">
        <ele>390</ele>
        <time>2026-08-30T08:38:39.000Z</time>
      </trkpt>
      <trkpt lat="47.65546" lon="6.69968">
        <ele>389.2</ele>
        <time>2026-08-30T08:38:41.000Z</time>
      </trkpt>
      <trkpt lat="47.65553" lon="6.69982">
        <ele>388.2</ele>
        <time>2026-08-30T08:38:43.000Z</time>
      </trkpt>
      <trkpt lat="47.65562" lon="6.69998">
        <ele>387.4</ele>
        <time>2026-08-30T08:38:45.000Z</time>
      </trkpt>
      <trkpt lat="47.65572" lon="6.70017">
        <ele>386.4</ele>
        <time>2026-08-30T08:38:47.000Z</time>
      </trkpt>
      <trkpt lat="47.65576" lon="6.70038">
        <ele>386.2</ele>
        <time>2026-08-30T08:38:49.000Z</time>
      </trkpt>
      <trkpt lat="47.65578" lon="6.70057">
        <ele>386.4</ele>
        <time>2026-08-30T08:38:51.000Z</time>
      </trkpt>
      <trkpt lat="47.6558" lon="6.70075">
        <ele>386.8</ele>
        <time>2026-08-30T08:38:53.000Z</time>
      </trkpt>
      <trkpt lat="47.65583" lon="6.70088">
        <ele>387.2</ele>
        <time>2026-08-30T08:38:55.000Z</time>
      </trkpt>
      <trkpt lat="47.65588" lon="6.701">
        <ele>387.6</ele>
        <time>2026-08-30T08:38:57.000Z</time>
      </trkpt>
      <trkpt lat="47.65593" lon="6.70111">
        <ele>387.6</ele>
        <time>2026-08-30T08:38:59.000Z</time>
      </trkpt>
      <trkpt lat="47.65598" lon="6.70124">
        <ele>387.6</ele>
        <time>2026-08-30T08:39:01.000Z</time>
      </trkpt>
      <trkpt lat="47.65602" lon="6.70138">
        <ele>387.2</ele>
        <time>2026-08-30T08:39:03.000Z</time>
      </trkpt>
      <trkpt lat="47.65606" lon="6.70157">
        <ele>386.6</ele>
        <time>2026-08-30T08:39:05.000Z</time>
      </trkpt>
      <trkpt lat="47.6561" lon="6.70178">
        <ele>386</ele>
        <time>2026-08-30T08:39:07.000Z</time>
      </trkpt>
      <trkpt lat="47.6561" lon="6.70194">
        <ele>385</ele>
        <time>2026-08-30T08:39:09.000Z</time>
      </trkpt>
      <trkpt lat="47.65604" lon="6.70205">
        <ele>383.8</ele>
        <time>2026-08-30T08:39:11.000Z</time>
      </trkpt>
      <trkpt lat="47.65594" lon="6.70214">
        <ele>382.4</ele>
        <time>2026-08-30T08:39:13.000Z</time>
      </trkpt>
      <trkpt lat="47.65584" lon="6.70224">
        <ele>381.2</ele>
        <time>2026-08-30T08:39:15.000Z</time>
      </trkpt>
      <trkpt lat="47.65579" lon="6.7024">
        <ele>380.8</ele>
        <time>2026-08-30T08:39:17.000Z</time>
      </trkpt>
      <trkpt lat="47.65577" lon="6.70257">
        <ele>381.2</ele>
        <time>2026-08-30T08:39:19.000Z</time>
      </trkpt>
      <trkpt lat="47.65575" lon="6.70269">
        <ele>381.8</ele>
        <time>2026-08-30T08:39:21.000Z</time>
      </trkpt>
      <trkpt lat="47.65572" lon="6.70278">
        <ele>382.4</ele>
        <time>2026-08-30T08:39:23.000Z</time>
      </trkpt>
      <trkpt lat="47.65567" lon="6.70286">
        <ele>382.8</ele>
        <time>2026-08-30T08:39:25.000Z</time>
      </trkpt>
      <trkpt lat="47.65561" lon="6.70293">
        <ele>383.2</ele>
        <time>2026-08-30T08:39:27.000Z</time>
      </trkpt>
      <trkpt lat="47.65554" lon="6.703">
        <ele>383.4</ele>
        <time>2026-08-30T08:39:29.000Z</time>
      </trkpt>
      <trkpt lat="47.6555" lon="6.70306">
        <ele>383.4</ele>
        <time>2026-08-30T08:39:31.000Z</time>
      </trkpt>
      <trkpt lat="47.65548" lon="6.70309">
        <ele>383.4</ele>
        <time>2026-08-30T08:39:33.000Z</time>
      </trkpt>
      <trkpt lat="47.65546" lon="6.70312">
        <ele>383.4</ele>
        <time>2026-08-30T08:39:35.000Z</time>
      </trkpt>
      <trkpt lat="47.65542" lon="6.70315">
        <ele>383.4</ele>
        <time>2026-08-30T08:39:37.000Z</time>
      </trkpt>
      <trkpt lat="47.65536" lon="6.70319">
        <ele>383.6</ele>
        <time>2026-08-30T08:39:39.000Z</time>
      </trkpt>
      <trkpt lat="47.65529" lon="6.70324">
        <ele>383.8</ele>
        <time>2026-08-30T08:39:41.000Z</time>
      </trkpt>
      <trkpt lat="47.65521" lon="6.70329">
        <ele>384</ele>
        <time>2026-08-30T08:39:43.000Z</time>
      </trkpt>
      <trkpt lat="47.65514" lon="6.70335">
        <ele>384</ele>
        <time>2026-08-30T08:39:45.000Z</time>
      </trkpt>
      <trkpt lat="47.65508" lon="6.70343">
        <ele>383.8</ele>
        <time>2026-08-30T08:39:48.000Z</time>
      </trkpt>
      <trkpt lat="47.655" lon="6.70353">
        <ele>383.4</ele>
        <time>2026-08-30T08:39:50.000Z</time>
      </trkpt>
      <trkpt lat="47.65492" lon="6.70363">
        <ele>383</ele>
        <time>2026-08-30T08:39:52.000Z</time>
      </trkpt>
      <trkpt lat="47.65484" lon="6.70376">
        <ele>382.4</ele>
        <time>2026-08-30T08:39:54.000Z</time>
      </trkpt>
      <trkpt lat="47.65477" lon="6.70392">
        <ele>381.8</ele>
        <time>2026-08-30T08:39:56.000Z</time>
      </trkpt>
      <trkpt lat="47.65468" lon="6.7041">
        <ele>381.2</ele>
        <time>2026-08-30T08:39:58.000Z</time>
      </trkpt>
      <trkpt lat="47.65462" lon="6.70427">
        <ele>380.4</ele>
        <time>2026-08-30T08:40:00.000Z</time>
      </trkpt>
      <trkpt lat="47.65457" lon="6.70446">
        <ele>379.4</ele>
        <time>2026-08-30T08:40:02.000Z</time>
      </trkpt>
      <trkpt lat="47.65453" lon="6.70469">
        <ele>378.4</ele>
        <time>2026-08-30T08:40:04.000Z</time>
      </trkpt>
      <trkpt lat="47.65454" lon="6.70492">
        <ele>377.4</ele>
        <time>2026-08-30T08:40:06.000Z</time>
      </trkpt>
      <trkpt lat="47.65461" lon="6.70513">
        <ele>376.8</ele>
        <time>2026-08-30T08:40:08.000Z</time>
      </trkpt>
      <trkpt lat="47.65469" lon="6.70532">
        <ele>376</ele>
        <time>2026-08-30T08:40:10.000Z</time>
      </trkpt>
      <trkpt lat="47.65479" lon="6.7055">
        <ele>375.6</ele>
        <time>2026-08-30T08:40:12.000Z</time>
      </trkpt>
      <trkpt lat="47.65489" lon="6.70565">
        <ele>375</ele>
        <time>2026-08-30T08:40:14.000Z</time>
      </trkpt>
      <trkpt lat="47.65499" lon="6.70579">
        <ele>374.6</ele>
        <time>2026-08-30T08:40:16.000Z</time>
      </trkpt>
      <trkpt lat="47.65508" lon="6.70593">
        <ele>374.4</ele>
        <time>2026-08-30T08:40:18.000Z</time>
      </trkpt>
      <trkpt lat="47.65515" lon="6.70606">
        <ele>374.2</ele>
        <time>2026-08-30T08:40:20.000Z</time>
      </trkpt>
      <trkpt lat="47.65521" lon="6.70618">
        <ele>374</ele>
        <time>2026-08-30T08:40:22.000Z</time>
      </trkpt>
      <trkpt lat="47.65527" lon="6.70629">
        <ele>373.8</ele>
        <time>2026-08-30T08:40:24.000Z</time>
      </trkpt>
      <trkpt lat="47.65532" lon="6.70641">
        <ele>373.8</ele>
        <time>2026-08-30T08:40:26.000Z</time>
      </trkpt>
      <trkpt lat="47.65531" lon="6.70655">
        <ele>373.8</ele>
        <time>2026-08-30T08:40:28.000Z</time>
      </trkpt>
      <trkpt lat="47.65527" lon="6.70668">
        <ele>373.8</ele>
        <time>2026-08-30T08:40:30.000Z</time>
      </trkpt>
      <trkpt lat="47.65522" lon="6.70681">
        <ele>373.6</ele>
        <time>2026-08-30T08:40:32.000Z</time>
      </trkpt>
      <trkpt lat="47.65517" lon="6.70695">
        <ele>373.6</ele>
        <time>2026-08-30T08:40:34.000Z</time>
      </trkpt>
      <trkpt lat="47.65513" lon="6.70708">
        <ele>373.6</ele>
        <time>2026-08-30T08:40:36.000Z</time>
      </trkpt>
      <trkpt lat="47.6551" lon="6.70725">
        <ele>373.6</ele>
        <time>2026-08-30T08:40:38.000Z</time>
      </trkpt>
      <trkpt lat="47.65509" lon="6.70741">
        <ele>373.4</ele>
        <time>2026-08-30T08:40:40.000Z</time>
      </trkpt>
      <trkpt lat="47.65509" lon="6.70757">
        <ele>373.4</ele>
        <time>2026-08-30T08:40:42.000Z</time>
      </trkpt>
      <trkpt lat="47.65509" lon="6.70772">
        <ele>373.4</ele>
        <time>2026-08-30T08:40:44.000Z</time>
      </trkpt>
      <trkpt lat="47.65506" lon="6.70785">
        <ele>373.2</ele>
        <time>2026-08-30T08:40:46.000Z</time>
      </trkpt>
      <trkpt lat="47.65503" lon="6.70798">
        <ele>373.2</ele>
        <time>2026-08-30T08:40:48.000Z</time>
      </trkpt>
      <trkpt lat="47.65498" lon="6.7081">
        <ele>373.2</ele>
        <time>2026-08-30T08:40:50.000Z</time>
      </trkpt>
      <trkpt lat="47.65493" lon="6.70822">
        <ele>373.2</ele>
        <time>2026-08-30T08:40:52.000Z</time>
      </trkpt>
      <trkpt lat="47.65487" lon="6.70834">
        <ele>373.2</ele>
        <time>2026-08-30T08:40:54.000Z</time>
      </trkpt>
      <trkpt lat="47.65482" lon="6.70845">
        <ele>373.2</ele>
        <time>2026-08-30T08:40:56.000Z</time>
      </trkpt>
      <trkpt lat="47.65477" lon="6.70855">
        <ele>373.2</ele>
        <time>2026-08-30T08:40:58.000Z</time>
      </trkpt>
      <trkpt lat="47.65472" lon="6.70866">
        <ele>373.4</ele>
        <time>2026-08-30T08:41:00.000Z</time>
      </trkpt>
      <trkpt lat="47.65468" lon="6.70878">
        <ele>373.6</ele>
        <time>2026-08-30T08:41:02.000Z</time>
      </trkpt>
      <trkpt lat="47.65463" lon="6.7089">
        <ele>373.6</ele>
        <time>2026-08-30T08:41:04.000Z</time>
      </trkpt>
      <trkpt lat="47.6546" lon="6.70902">
        <ele>373.8</ele>
        <time>2026-08-30T08:41:06.000Z</time>
      </trkpt>
      <trkpt lat="47.65456" lon="6.70914">
        <ele>373.8</ele>
        <time>2026-08-30T08:41:08.000Z</time>
      </trkpt>
      <trkpt lat="47.65453" lon="6.70925">
        <ele>373.8</ele>
        <time>2026-08-30T08:41:11.000Z</time>
      </trkpt>
      <trkpt lat="47.6545" lon="6.70937">
        <ele>374</ele>
        <time>2026-08-30T08:41:13.000Z</time>
      </trkpt>
      <trkpt lat="47.65446" lon="6.70948">
        <ele>374</ele>
        <time>2026-08-30T08:41:15.000Z</time>
      </trkpt>
      <trkpt lat="47.65442" lon="6.7096">
        <ele>374</ele>
        <time>2026-08-30T08:41:17.000Z</time>
      </trkpt>
      <trkpt lat="47.65438" lon="6.70972">
        <ele>374.2</ele>
        <time>2026-08-30T08:41:19.000Z</time>
      </trkpt>
      <trkpt lat="47.65436" lon="6.70984">
        <ele>374.2</ele>
        <time>2026-08-30T08:41:21.000Z</time>
      </trkpt>
      <trkpt lat="47.65435" lon="6.70997">
        <ele>374.2</ele>
        <time>2026-08-30T08:41:23.000Z</time>
      </trkpt>
      <trkpt lat="47.65435" lon="6.7101">
        <ele>374.2</ele>
        <time>2026-08-30T08:41:25.000Z</time>
      </trkpt>
      <trkpt lat="47.65435" lon="6.71024">
        <ele>374.2</ele>
        <time>2026-08-30T08:41:27.000Z</time>
      </trkpt>
      <trkpt lat="47.65434" lon="6.71038">
        <ele>374</ele>
        <time>2026-08-30T08:41:29.000Z</time>
      </trkpt>
      <trkpt lat="47.65432" lon="6.71052">
        <ele>374</ele>
        <time>2026-08-30T08:41:31.000Z</time>
      </trkpt>
      <trkpt lat="47.6543" lon="6.71066">
        <ele>373.8</ele>
        <time>2026-08-30T08:41:33.000Z</time>
      </trkpt>
      <trkpt lat="47.65428" lon="6.71078">
        <ele>373.8</ele>
        <time>2026-08-30T08:41:35.000Z</time>
      </trkpt>
      <trkpt lat="47.65425" lon="6.71088">
        <ele>374</ele>
        <time>2026-08-30T08:41:37.000Z</time>
      </trkpt>
      <trkpt lat="47.6542" lon="6.71095">
        <ele>374.2</ele>
        <time>2026-08-30T08:41:39.000Z</time>
      </trkpt>
      <trkpt lat="47.65413" lon="6.71102">
        <ele>374.2</ele>
        <time>2026-08-30T08:41:41.000Z</time>
      </trkpt>
      <trkpt lat="47.65406" lon="6.71109">
        <ele>374.2</ele>
        <time>2026-08-30T08:41:43.000Z</time>
      </trkpt>
      <trkpt lat="47.65398" lon="6.71115">
        <ele>374.2</ele>
        <time>2026-08-30T08:41:45.000Z</time>
      </trkpt>
      <trkpt lat="47.65391" lon="6.71122">
        <ele>374.2</ele>
        <time>2026-08-30T08:41:47.000Z</time>
      </trkpt>
      <trkpt lat="47.65383" lon="6.71127">
        <ele>374.4</ele>
        <time>2026-08-30T08:41:49.000Z</time>
      </trkpt>
      <trkpt lat="47.65376" lon="6.71133">
        <ele>374.6</ele>
        <time>2026-08-30T08:41:51.000Z</time>
      </trkpt>
      <trkpt lat="47.6537" lon="6.71139">
        <ele>374.8</ele>
        <time>2026-08-30T08:41:53.000Z</time>
      </trkpt>
      <trkpt lat="47.65365" lon="6.71147">
        <ele>375</ele>
        <time>2026-08-30T08:41:55.000Z</time>
      </trkpt>
      <trkpt lat="47.65361" lon="6.71155">
        <ele>375.2</ele>
        <time>2026-08-30T08:41:57.000Z</time>
      </trkpt>
      <trkpt lat="47.65354" lon="6.71168">
        <ele>375.4</ele>
        <time>2026-08-30T08:41:59.000Z</time>
      </trkpt>
      <trkpt lat="47.6535" lon="6.71179">
        <ele>375.8</ele>
        <time>2026-08-30T08:42:01.000Z</time>
      </trkpt>
      <trkpt lat="47.65347" lon="6.71188">
        <ele>376</ele>
        <time>2026-08-30T08:42:03.000Z</time>
      </trkpt>
      <trkpt lat="47.65344" lon="6.71196">
        <ele>376.2</ele>
        <time>2026-08-30T08:42:05.000Z</time>
      </trkpt>
      <trkpt lat="47.65342" lon="6.71205">
        <ele>376.6</ele>
        <time>2026-08-30T08:42:07.000Z</time>
      </trkpt>
      <trkpt lat="47.6534" lon="6.71214">
        <ele>376.8</ele>
        <time>2026-08-30T08:42:09.000Z</time>
      </trkpt>
      <trkpt lat="47.65339" lon="6.71224">
        <ele>377</ele>
        <time>2026-08-30T08:42:11.000Z</time>
      </trkpt>
      <trkpt lat="47.65338" lon="6.71234">
        <ele>377.2</ele>
        <time>2026-08-30T08:42:13.000Z</time>
      </trkpt>
      <trkpt lat="47.65339" lon="6.71244">
        <ele>377.4</ele>
        <time>2026-08-30T08:42:15.000Z</time>
      </trkpt>
      <trkpt lat="47.65339" lon="6.71254">
        <ele>377.6</ele>
        <time>2026-08-30T08:42:17.000Z</time>
      </trkpt>
      <trkpt lat="47.6534" lon="6.71264">
        <ele>377.8</ele>
        <time>2026-08-30T08:42:19.000Z</time>
      </trkpt>
      <trkpt lat="47.65341" lon="6.71275">
        <ele>377.6</ele>
        <time>2026-08-30T08:42:21.000Z</time>
      </trkpt>
      <trkpt lat="47.65343" lon="6.71287">
        <ele>377.4</ele>
        <time>2026-08-30T08:42:23.000Z</time>
      </trkpt>
      <trkpt lat="47.65345" lon="6.71302">
        <ele>377</ele>
        <time>2026-08-30T08:42:25.000Z</time>
      </trkpt>
      <trkpt lat="47.65348" lon="6.71317">
        <ele>376.6</ele>
        <time>2026-08-30T08:42:27.000Z</time>
      </trkpt>
      <trkpt lat="47.65349" lon="6.71333">
        <ele>376.4</ele>
        <time>2026-08-30T08:42:29.000Z</time>
      </trkpt>
      <trkpt lat="47.65349" lon="6.71346">
        <ele>376.2</ele>
        <time>2026-08-30T08:42:31.000Z</time>
      </trkpt>
      <trkpt lat="47.65346" lon="6.71358">
        <ele>376.4</ele>
        <time>2026-08-30T08:42:33.000Z</time>
      </trkpt>
      <trkpt lat="47.65343" lon="6.71368">
        <ele>376.6</ele>
        <time>2026-08-30T08:42:35.000Z</time>
      </trkpt>
      <trkpt lat="47.65339" lon="6.71378">
        <ele>377</ele>
        <time>2026-08-30T08:42:37.000Z</time>
      </trkpt>
      <trkpt lat="47.65335" lon="6.71387">
        <ele>377.4</ele>
        <time>2026-08-30T08:42:39.000Z</time>
      </trkpt>
      <trkpt lat="47.65331" lon="6.71394">
        <ele>377.8</ele>
        <time>2026-08-30T08:42:41.000Z</time>
      </trkpt>
      <trkpt lat="47.65327" lon="6.71399">
        <ele>378.2</ele>
        <time>2026-08-30T08:42:43.000Z</time>
      </trkpt>
      <trkpt lat="47.65323" lon="6.71403">
        <ele>378.6</ele>
        <time>2026-08-30T08:42:45.000Z</time>
      </trkpt>
      <trkpt lat="47.65319" lon="6.71407">
        <ele>379</ele>
        <time>2026-08-30T08:42:47.000Z</time>
      </trkpt>
      <trkpt lat="47.65314" lon="6.7141">
        <ele>379.6</ele>
        <time>2026-08-30T08:42:49.000Z</time>
      </trkpt>
      <trkpt lat="47.65309" lon="6.71412">
        <ele>380</ele>
        <time>2026-08-30T08:42:52.000Z</time>
      </trkpt>
      <trkpt lat="47.65304" lon="6.71415">
        <ele>380.4</ele>
        <time>2026-08-30T08:42:54.000Z</time>
      </trkpt>
      <trkpt lat="47.653" lon="6.71419">
        <ele>381</ele>
        <time>2026-08-30T08:42:56.000Z</time>
      </trkpt>
      <trkpt lat="47.65296" lon="6.71423">
        <ele>381.4</ele>
        <time>2026-08-30T08:42:58.000Z</time>
      </trkpt>
      <trkpt lat="47.65293" lon="6.71427">
        <ele>381.8</ele>
        <time>2026-08-30T08:43:00.000Z</time>
      </trkpt>
      <trkpt lat="47.6529" lon="6.71431">
        <ele>382.2</ele>
        <time>2026-08-30T08:43:02.000Z</time>
      </trkpt>
      <trkpt lat="47.65287" lon="6.71436">
        <ele>382.6</ele>
        <time>2026-08-30T08:43:04.000Z</time>
      </trkpt>
      <trkpt lat="47.65285" lon="6.71441">
        <ele>383</ele>
        <time>2026-08-30T08:43:06.000Z</time>
      </trkpt>
      <trkpt lat="47.65282" lon="6.71446">
        <ele>383.4</ele>
        <time>2026-08-30T08:43:08.000Z</time>
      </trkpt>
      <trkpt lat="47.65279" lon="6.71452">
        <ele>383.8</ele>
        <time>2026-08-30T08:43:10.000Z</time>
      </trkpt>
      <trkpt lat="47.65276" lon="6.71457">
        <ele>384.2</ele>
        <time>2026-08-30T08:43:12.000Z</time>
      </trkpt>
      <trkpt lat="47.65274" lon="6.71461">
        <ele>384.8</ele>
        <time>2026-08-30T08:43:14.000Z</time>
      </trkpt>
      <trkpt lat="47.65271" lon="6.71466">
        <ele>385.2</ele>
        <time>2026-08-30T08:43:16.000Z</time>
      </trkpt>
      <trkpt lat="47.65269" lon="6.71471">
        <ele>385.8</ele>
        <time>2026-08-30T08:43:18.000Z</time>
      </trkpt>
      <trkpt lat="47.65266" lon="6.71477">
        <ele>386.2</ele>
        <time>2026-08-30T08:43:20.000Z</time>
      </trkpt>
      <trkpt lat="47.65263" lon="6.71481">
        <ele>386.6</ele>
        <time>2026-08-30T08:43:22.000Z</time>
      </trkpt>
      <trkpt lat="47.6526" lon="6.71486">
        <ele>387.2</ele>
        <time>2026-08-30T08:43:24.000Z</time>
      </trkpt>
      <trkpt lat="47.65256" lon="6.7149">
        <ele>387.6</ele>
        <time>2026-08-30T08:43:26.000Z</time>
      </trkpt>
      <trkpt lat="47.65252" lon="6.71493">
        <ele>388.2</ele>
        <time>2026-08-30T08:43:28.000Z</time>
      </trkpt>
      <trkpt lat="47.65248" lon="6.71495">
        <ele>388.6</ele>
        <time>2026-08-30T08:43:30.000Z</time>
      </trkpt>
      <trkpt lat="47.65245" lon="6.71498">
        <ele>389.2</ele>
        <time>2026-08-30T08:43:32.000Z</time>
      </trkpt>
      <trkpt lat="47.65239" lon="6.71501">
        <ele>389.8</ele>
        <time>2026-08-30T08:43:34.000Z</time>
      </trkpt>
      <trkpt lat="47.65235" lon="6.71504">
        <ele>390.2</ele>
        <time>2026-08-30T08:43:36.000Z</time>
      </trkpt>
      <trkpt lat="47.6523" lon="6.71506">
        <ele>390.8</ele>
        <time>2026-08-30T08:43:38.000Z</time>
      </trkpt>
      <trkpt lat="47.65226" lon="6.71508">
        <ele>391.2</ele>
        <time>2026-08-30T08:43:40.000Z</time>
      </trkpt>
      <trkpt lat="47.65222" lon="6.71511">
        <ele>391.8</ele>
        <time>2026-08-30T08:43:42.000Z</time>
      </trkpt>
      <trkpt lat="47.65218" lon="6.71513">
        <ele>392.2</ele>
        <time>2026-08-30T08:43:44.000Z</time>
      </trkpt>
      <trkpt lat="47.65213" lon="6.71516">
        <ele>392.6</ele>
        <time>2026-08-30T08:43:46.000Z</time>
      </trkpt>
      <trkpt lat="47.6521" lon="6.7152">
        <ele>393</ele>
        <time>2026-08-30T08:43:48.000Z</time>
      </trkpt>
      <trkpt lat="47.65206" lon="6.71524">
        <ele>393.4</ele>
        <time>2026-08-30T08:43:50.000Z</time>
      </trkpt>
      <trkpt lat="47.65202" lon="6.71529">
        <ele>393.8</ele>
        <time>2026-08-30T08:43:52.000Z</time>
      </trkpt>
      <trkpt lat="47.65199" lon="6.71533">
        <ele>394</ele>
        <time>2026-08-30T08:43:54.000Z</time>
      </trkpt>
      <trkpt lat="47.65196" lon="6.71538">
        <ele>394.4</ele>
        <time>2026-08-30T08:43:56.000Z</time>
      </trkpt>
      <trkpt lat="47.65193" lon="6.71542">
        <ele>394.8</ele>
        <time>2026-08-30T08:43:58.000Z</time>
      </trkpt>
      <trkpt lat="47.6519" lon="6.71547">
        <ele>395</ele>
        <time>2026-08-30T08:44:00.000Z</time>
      </trkpt>
      <trkpt lat="47.65187" lon="6.71552">
        <ele>395.4</ele>
        <time>2026-08-30T08:44:02.000Z</time>
      </trkpt>
      <trkpt lat="47.65184" lon="6.71556">
        <ele>395.6</ele>
        <time>2026-08-30T08:44:04.000Z</time>
      </trkpt>
      <trkpt lat="47.65181" lon="6.7156">
        <ele>396</ele>
        <time>2026-08-30T08:44:06.000Z</time>
      </trkpt>
      <trkpt lat="47.65178" lon="6.71564">
        <ele>396.2</ele>
        <time>2026-08-30T08:44:09.000Z</time>
      </trkpt>
      <trkpt lat="47.65175" lon="6.71569">
        <ele>396.6</ele>
        <time>2026-08-30T08:44:11.000Z</time>
      </trkpt>
      <trkpt lat="47.65171" lon="6.71573">
        <ele>396.8</ele>
        <time>2026-08-30T08:44:13.000Z</time>
      </trkpt>
      <trkpt lat="47.65168" lon="6.71577">
        <ele>397.2</ele>
        <time>2026-08-30T08:44:15.000Z</time>
      </trkpt>
      <trkpt lat="47.65165" lon="6.7158">
        <ele>397.4</ele>
        <time>2026-08-30T08:44:17.000Z</time>
      </trkpt>
      <trkpt lat="47.65162" lon="6.71584">
        <ele>397.8</ele>
        <time>2026-08-30T08:44:19.000Z</time>
      </trkpt>
      <trkpt lat="47.6516" lon="6.71588">
        <ele>398</ele>
        <time>2026-08-30T08:44:21.000Z</time>
      </trkpt>
      <trkpt lat="47.65162" lon="6.7159">
        <ele>398.4</ele>
        <time>2026-08-30T08:44:23.000Z</time>
      </trkpt>
      <trkpt lat="47.65166" lon="6.71587">
        <ele>398.6</ele>
        <time>2026-08-30T08:44:25.000Z</time>
      </trkpt>
      <trkpt lat="47.65171" lon="6.71585">
        <ele>398.6</ele>
        <time>2026-08-30T08:44:27.000Z</time>
      </trkpt>
      <trkpt lat="47.65176" lon="6.71584">
        <ele>398.8</ele>
        <time>2026-08-30T08:44:29.000Z</time>
      </trkpt>
      <trkpt lat="47.65182" lon="6.71583">
        <ele>399</ele>
        <time>2026-08-30T08:44:31.000Z</time>
      </trkpt>
      <trkpt lat="47.65187" lon="6.71581">
        <ele>399</ele>
        <time>2026-08-30T08:44:33.000Z</time>
      </trkpt>
      <trkpt lat="47.65192" lon="6.71579">
        <ele>399</ele>
        <time>2026-08-30T08:44:35.000Z</time>
      </trkpt>
      <trkpt lat="47.65198" lon="6.71576">
        <ele>399.2</ele>
        <time>2026-08-30T08:44:37.000Z</time>
      </trkpt>
      <trkpt lat="47.65204" lon="6.71573">
        <ele>399.2</ele>
        <time>2026-08-30T08:44:39.000Z</time>
      </trkpt>
      <trkpt lat="47.65211" lon="6.7157">
        <ele>399.2</ele>
        <time>2026-08-30T08:44:41.000Z</time>
      </trkpt>
      <trkpt lat="47.65218" lon="6.71569">
        <ele>399</ele>
        <time>2026-08-30T08:44:43.000Z</time>
      </trkpt>
      <trkpt lat="47.65225" lon="6.71569">
        <ele>398.8</ele>
        <time>2026-08-30T08:44:45.000Z</time>
      </trkpt>
      <trkpt lat="47.65233" lon="6.71569">
        <ele>398.6</ele>
        <time>2026-08-30T08:44:47.000Z</time>
      </trkpt>
      <trkpt lat="47.65242" lon="6.71569">
        <ele>398.2</ele>
        <time>2026-08-30T08:44:49.000Z</time>
      </trkpt>
      <trkpt lat="47.65252" lon="6.71568">
        <ele>397.8</ele>
        <time>2026-08-30T08:44:51.000Z</time>
      </trkpt>
      <trkpt lat="47.65263" lon="6.71568">
        <ele>397.4</ele>
        <time>2026-08-30T08:44:53.000Z</time>
      </trkpt>
      <trkpt lat="47.65274" lon="6.7157">
        <ele>397</ele>
        <time>2026-08-30T08:44:55.000Z</time>
      </trkpt>
      <trkpt lat="47.65286" lon="6.71573">
        <ele>396.6</ele>
        <time>2026-08-30T08:44:57.000Z</time>
      </trkpt>
      <trkpt lat="47.65301" lon="6.71575">
        <ele>396</ele>
        <time>2026-08-30T08:44:59.000Z</time>
      </trkpt>
      <trkpt lat="47.65314" lon="6.71578">
        <ele>395.2</ele>
        <time>2026-08-30T08:45:01.000Z</time>
      </trkpt>
      <trkpt lat="47.65327" lon="6.71581">
        <ele>394.6</ele>
        <time>2026-08-30T08:45:03.000Z</time>
      </trkpt>
      <trkpt lat="47.65341" lon="6.71582">
        <ele>394</ele>
        <time>2026-08-30T08:45:05.000Z</time>
      </trkpt>
      <trkpt lat="47.65356" lon="6.71583">
        <ele>393.2</ele>
        <time>2026-08-30T08:45:07.000Z</time>
      </trkpt>
      <trkpt lat="47.65372" lon="6.71583">
        <ele>392.6</ele>
        <time>2026-08-30T08:45:09.000Z</time>
      </trkpt>
      <trkpt lat="47.65386" lon="6.71585">
        <ele>392.2</ele>
        <time>2026-08-30T08:45:11.000Z</time>
      </trkpt>
      <trkpt lat="47.65398" lon="6.71587">
        <ele>391.6</ele>
        <time>2026-08-30T08:45:13.000Z</time>
      </trkpt>
      <trkpt lat="47.65411" lon="6.71589">
        <ele>391.4</ele>
        <time>2026-08-30T08:45:15.000Z</time>
      </trkpt>
      <trkpt lat="47.65424" lon="6.71591">
        <ele>390.8</ele>
        <time>2026-08-30T08:45:17.000Z</time>
      </trkpt>
      <trkpt lat="47.65438" lon="6.71593">
        <ele>390.4</ele>
        <time>2026-08-30T08:45:19.000Z</time>
      </trkpt>
      <trkpt lat="47.6545" lon="6.71594">
        <ele>390</ele>
        <time>2026-08-30T08:45:21.000Z</time>
      </trkpt>
      <trkpt lat="47.65464" lon="6.71597">
        <ele>389.8</ele>
        <time>2026-08-30T08:45:23.000Z</time>
      </trkpt>
      <trkpt lat="47.65477" lon="6.716">
        <ele>389.2</ele>
        <time>2026-08-30T08:45:25.000Z</time>
      </trkpt>
      <trkpt lat="47.65492" lon="6.71605">
        <ele>388.8</ele>
        <time>2026-08-30T08:45:27.000Z</time>
      </trkpt>
      <trkpt lat="47.65505" lon="6.7161">
        <ele>388.4</ele>
        <time>2026-08-30T08:45:29.000Z</time>
      </trkpt>
      <trkpt lat="47.65517" lon="6.71615">
        <ele>388.2</ele>
        <time>2026-08-30T08:45:31.000Z</time>
      </trkpt>
      <trkpt lat="47.65527" lon="6.71621">
        <ele>388.2</ele>
        <time>2026-08-30T08:45:33.000Z</time>
      </trkpt>
      <trkpt lat="47.65537" lon="6.71627">
        <ele>388.4</ele>
        <time>2026-08-30T08:45:35.000Z</time>
      </trkpt>
      <trkpt lat="47.65548" lon="6.71631">
        <ele>388.6</ele>
        <time>2026-08-30T08:45:37.000Z</time>
      </trkpt>
      <trkpt lat="47.65557" lon="6.71631">
        <ele>389.2</ele>
        <time>2026-08-30T08:45:39.000Z</time>
      </trkpt>
      <trkpt lat="47.65562" lon="6.71626">
        <ele>389.8</ele>
        <time>2026-08-30T08:45:41.000Z</time>
      </trkpt>
      <trkpt lat="47.65567" lon="6.7162">
        <ele>390.4</ele>
        <time>2026-08-30T08:45:43.000Z</time>
      </trkpt>
      <trkpt lat="47.65571" lon="6.71613">
        <ele>390.8</ele>
        <time>2026-08-30T08:45:45.000Z</time>
      </trkpt>
      <trkpt lat="47.65574" lon="6.71607">
        <ele>391.2</ele>
        <time>2026-08-30T08:45:47.000Z</time>
      </trkpt>
      <trkpt lat="47.65577" lon="6.71601">
        <ele>391.6</ele>
        <time>2026-08-30T08:45:49.000Z</time>
      </trkpt>
      <trkpt lat="47.6558" lon="6.71595">
        <ele>392.2</ele>
        <time>2026-08-30T08:45:52.000Z</time>
      </trkpt>
      <trkpt lat="47.65582" lon="6.7159">
        <ele>392.6</ele>
        <time>2026-08-30T08:45:54.000Z</time>
      </trkpt>
      <trkpt lat="47.65583" lon="6.71584">
        <ele>393</ele>
        <time>2026-08-30T08:45:56.000Z</time>
      </trkpt>
      <trkpt lat="47.65585" lon="6.71579">
        <ele>393.4</ele>
        <time>2026-08-30T08:45:58.000Z</time>
      </trkpt>
      <trkpt lat="47.65587" lon="6.71573">
        <ele>393.8</ele>
        <time>2026-08-30T08:46:00.000Z</time>
      </trkpt>
      <trkpt lat="47.65589" lon="6.71568">
        <ele>394.2</ele>
        <time>2026-08-30T08:46:02.000Z</time>
      </trkpt>
      <trkpt lat="47.65591" lon="6.71562">
        <ele>394.6</ele>
        <time>2026-08-30T08:46:04.000Z</time>
      </trkpt>
      <trkpt lat="47.65592" lon="6.71556">
        <ele>395.2</ele>
        <time>2026-08-30T08:46:06.000Z</time>
      </trkpt>
      <trkpt lat="47.65592" lon="6.71551">
        <ele>395.6</ele>
        <time>2026-08-30T08:46:08.000Z</time>
      </trkpt>
      <trkpt lat="47.65592" lon="6.71545">
        <ele>396</ele>
        <time>2026-08-30T08:46:10.000Z</time>
      </trkpt>
      <trkpt lat="47.65592" lon="6.71538">
        <ele>396.4</ele>
        <time>2026-08-30T08:46:12.000Z</time>
      </trkpt>
      <trkpt lat="47.65592" lon="6.71532">
        <ele>396.8</ele>
        <time>2026-08-30T08:46:14.000Z</time>
      </trkpt>
      <trkpt lat="47.65592" lon="6.71526">
        <ele>397.4</ele>
        <time>2026-08-30T08:46:16.000Z</time>
      </trkpt>
      <trkpt lat="47.65592" lon="6.71521">
        <ele>397.8</ele>
        <time>2026-08-30T08:46:18.000Z</time>
      </trkpt>
      <trkpt lat="47.65591" lon="6.71516">
        <ele>398.2</ele>
        <time>2026-08-30T08:46:20.000Z</time>
      </trkpt>
      <trkpt lat="47.65591" lon="6.71511">
        <ele>398.6</ele>
        <time>2026-08-30T08:46:22.000Z</time>
      </trkpt>
      <trkpt lat="47.6559" lon="6.71507">
        <ele>399.2</ele>
        <time>2026-08-30T08:46:24.000Z</time>
      </trkpt>
      <trkpt lat="47.65589" lon="6.71503">
        <ele>399.6</ele>
        <time>2026-08-30T08:46:26.000Z</time>
      </trkpt>
      <trkpt lat="47.65588" lon="6.71498">
        <ele>400.2</ele>
        <time>2026-08-30T08:46:28.000Z</time>
      </trkpt>
      <trkpt lat="47.65589" lon="6.71493">
        <ele>400.6</ele>
        <time>2026-08-30T08:46:30.000Z</time>
      </trkpt>
      <trkpt lat="47.65589" lon="6.71487">
        <ele>401.2</ele>
        <time>2026-08-30T08:46:32.000Z</time>
      </trkpt>
      <trkpt lat="47.6559" lon="6.71482">
        <ele>401.6</ele>
        <time>2026-08-30T08:46:34.000Z</time>
      </trkpt>
      <trkpt lat="47.6559" lon="6.71478">
        <ele>402.2</ele>
        <time>2026-08-30T08:46:36.000Z</time>
      </trkpt>
      <trkpt lat="47.65591" lon="6.71474">
        <ele>402.6</ele>
        <time>2026-08-30T08:46:38.000Z</time>
      </trkpt>
      <trkpt lat="47.65592" lon="6.7147">
        <ele>403</ele>
        <time>2026-08-30T08:46:40.000Z</time>
      </trkpt>
      <trkpt lat="47.65593" lon="6.71466">
        <ele>403.4</ele>
        <time>2026-08-30T08:46:42.000Z</time>
      </trkpt>
      <trkpt lat="47.65594" lon="6.7146">
        <ele>403.8</ele>
        <time>2026-08-30T08:46:44.000Z</time>
      </trkpt>
      <trkpt lat="47.65596" lon="6.71456">
        <ele>404.2</ele>
        <time>2026-08-30T08:46:46.000Z</time>
      </trkpt>
      <trkpt lat="47.65597" lon="6.71451">
        <ele>404.6</ele>
        <time>2026-08-30T08:46:48.000Z</time>
      </trkpt>
      <trkpt lat="47.65598" lon="6.71447">
        <ele>405</ele>
        <time>2026-08-30T08:46:50.000Z</time>
      </trkpt>
      <trkpt lat="47.656" lon="6.71444">
        <ele>405.4</ele>
        <time>2026-08-30T08:46:52.000Z</time>
      </trkpt>
      <trkpt lat="47.65602" lon="6.71442">
        <ele>406</ele>
        <time>2026-08-30T08:46:54.000Z</time>
      </trkpt>
      <trkpt lat="47.65605" lon="6.7144">
        <ele>406.6</ele>
        <time>2026-08-30T08:46:56.000Z</time>
      </trkpt>
      <trkpt lat="47.65608" lon="6.71439">
        <ele>407</ele>
        <time>2026-08-30T08:46:58.000Z</time>
      </trkpt>
      <trkpt lat="47.65611" lon="6.71438">
        <ele>407.4</ele>
        <time>2026-08-30T08:47:00.000Z</time>
      </trkpt>
      <trkpt lat="47.65613" lon="6.71438">
        <ele>407.6</ele>
        <time>2026-08-30T08:47:02.000Z</time>
      </trkpt>
      <trkpt lat="47.65616" lon="6.71439">
        <ele>407.8</ele>
        <time>2026-08-30T08:47:04.000Z</time>
      </trkpt>
      <trkpt lat="47.6562" lon="6.71441">
        <ele>408</ele>
        <time>2026-08-30T08:47:06.000Z</time>
      </trkpt>
      <trkpt lat="47.65623" lon="6.71444">
        <ele>408.2</ele>
        <time>2026-08-30T08:47:08.000Z</time>
      </trkpt>
      <trkpt lat="47.65626" lon="6.71447">
        <ele>408.4</ele>
        <time>2026-08-30T08:47:11.000Z</time>
      </trkpt>
      <trkpt lat="47.65629" lon="6.71452">
        <ele>408.8</ele>
        <time>2026-08-30T08:47:13.000Z</time>
      </trkpt>
      <trkpt lat="47.65632" lon="6.71455">
        <ele>409</ele>
        <time>2026-08-30T08:47:15.000Z</time>
      </trkpt>
      <trkpt lat="47.65634" lon="6.71459">
        <ele>409.2</ele>
        <time>2026-08-30T08:47:17.000Z</time>
      </trkpt>
      <trkpt lat="47.65636" lon="6.71463">
        <ele>409.4</ele>
        <time>2026-08-30T08:47:19.000Z</time>
      </trkpt>
      <trkpt lat="47.65639" lon="6.71467">
        <ele>409.6</ele>
        <time>2026-08-30T08:47:21.000Z</time>
      </trkpt>
      <trkpt lat="47.65642" lon="6.71471">
        <ele>409.8</ele>
        <time>2026-08-30T08:47:23.000Z</time>
      </trkpt>
      <trkpt lat="47.65645" lon="6.71474">
        <ele>410.2</ele>
        <time>2026-08-30T08:47:25.000Z</time>
      </trkpt>
      <trkpt lat="47.65649" lon="6.71477">
        <ele>410.4</ele>
        <time>2026-08-30T08:47:27.000Z</time>
      </trkpt>
      <trkpt lat="47.65652" lon="6.7148">
        <ele>410.8</ele>
        <time>2026-08-30T08:47:29.000Z</time>
      </trkpt>
      <trkpt lat="47.65656" lon="6.71483">
        <ele>411.2</ele>
        <time>2026-08-30T08:47:31.000Z</time>
      </trkpt>
      <trkpt lat="47.65659" lon="6.71486">
        <ele>411.6</ele>
        <time>2026-08-30T08:47:33.000Z</time>
      </trkpt>
      <trkpt lat="47.65662" lon="6.71488">
        <ele>412</ele>
        <time>2026-08-30T08:47:35.000Z</time>
      </trkpt>
      <trkpt lat="47.65666" lon="6.71489">
        <ele>412.2</ele>
        <time>2026-08-30T08:47:37.000Z</time>
      </trkpt>
      <trkpt lat="47.65669" lon="6.71491">
        <ele>412.6</ele>
        <time>2026-08-30T08:47:39.000Z</time>
      </trkpt>
      <trkpt lat="47.65673" lon="6.71493">
        <ele>413</ele>
        <time>2026-08-30T08:47:41.000Z</time>
      </trkpt>
      <trkpt lat="47.65676" lon="6.71496">
        <ele>413.4</ele>
        <time>2026-08-30T08:47:43.000Z</time>
      </trkpt>
      <trkpt lat="47.6568" lon="6.71498">
        <ele>413.8</ele>
        <time>2026-08-30T08:47:45.000Z</time>
      </trkpt>
      <trkpt lat="47.65684" lon="6.715">
        <ele>414</ele>
        <time>2026-08-30T08:47:47.000Z</time>
      </trkpt>
      <trkpt lat="47.65689" lon="6.71502">
        <ele>414.4</ele>
        <time>2026-08-30T08:47:49.000Z</time>
      </trkpt>
      <trkpt lat="47.65693" lon="6.71502">
        <ele>414.6</ele>
        <time>2026-08-30T08:47:51.000Z</time>
      </trkpt>
      <trkpt lat="47.65698" lon="6.71501">
        <ele>415</ele>
        <time>2026-08-30T08:47:53.000Z</time>
      </trkpt>
      <trkpt lat="47.65702" lon="6.71499">
        <ele>415.2</ele>
        <time>2026-08-30T08:47:55.000Z</time>
      </trkpt>
      <trkpt lat="47.65707" lon="6.71497">
        <ele>415.4</ele>
        <time>2026-08-30T08:47:57.000Z</time>
      </trkpt>
      <trkpt lat="47.65712" lon="6.71492">
        <ele>415.8</ele>
        <time>2026-08-30T08:47:59.000Z</time>
      </trkpt>
      <trkpt lat="47.65717" lon="6.71488">
        <ele>416</ele>
        <time>2026-08-30T08:48:01.000Z</time>
      </trkpt>
      <trkpt lat="47.65721" lon="6.71484">
        <ele>416.4</ele>
        <time>2026-08-30T08:48:03.000Z</time>
      </trkpt>
      <trkpt lat="47.65724" lon="6.71479">
        <ele>416.6</ele>
        <time>2026-08-30T08:48:05.000Z</time>
      </trkpt>
      <trkpt lat="47.65726" lon="6.71474">
        <ele>417</ele>
        <time>2026-08-30T08:48:07.000Z</time>
      </trkpt>
      <trkpt lat="47.65728" lon="6.71469">
        <ele>417.4</ele>
        <time>2026-08-30T08:48:09.000Z</time>
      </trkpt>
      <trkpt lat="47.6573" lon="6.71464">
        <ele>417.6</ele>
        <time>2026-08-30T08:48:11.000Z</time>
      </trkpt>
      <trkpt lat="47.65733" lon="6.71458">
        <ele>417.8</ele>
        <time>2026-08-30T08:48:13.000Z</time>
      </trkpt>
      <trkpt lat="47.65734" lon="6.71452">
        <ele>418.2</ele>
        <time>2026-08-30T08:48:15.000Z</time>
      </trkpt>
      <trkpt lat="47.65736" lon="6.71446">
        <ele>418.4</ele>
        <time>2026-08-30T08:48:17.000Z</time>
      </trkpt>
      <trkpt lat="47.65738" lon="6.7144">
        <ele>418.8</ele>
        <time>2026-08-30T08:48:19.000Z</time>
      </trkpt>
      <trkpt lat="47.65741" lon="6.71434">
        <ele>419</ele>
        <time>2026-08-30T08:48:21.000Z</time>
      </trkpt>
      <trkpt lat="47.65742" lon="6.71428">
        <ele>419.4</ele>
        <time>2026-08-30T08:48:23.000Z</time>
      </trkpt>
      <trkpt lat="47.65744" lon="6.71422">
        <ele>419.8</ele>
        <time>2026-08-30T08:48:25.000Z</time>
      </trkpt>
      <trkpt lat="47.65746" lon="6.71416">
        <ele>420</ele>
        <time>2026-08-30T08:48:27.000Z</time>
      </trkpt>
      <trkpt lat="47.65747" lon="6.7141">
        <ele>420.4</ele>
        <time>2026-08-30T08:48:29.000Z</time>
      </trkpt>
      <trkpt lat="47.6575" lon="6.71405">
        <ele>420.6</ele>
        <time>2026-08-30T08:48:31.000Z</time>
      </trkpt>
      <trkpt lat="47.65752" lon="6.71399">
        <ele>420.8</ele>
        <time>2026-08-30T08:48:33.000Z</time>
      </trkpt>
      <trkpt lat="47.65754" lon="6.71393">
        <ele>421.2</ele>
        <time>2026-08-30T08:48:35.000Z</time>
      </trkpt>
      <trkpt lat="47.65755" lon="6.71386">
        <ele>421.6</ele>
        <time>2026-08-30T08:48:37.000Z</time>
      </trkpt>
      <trkpt lat="47.65757" lon="6.7138">
        <ele>422</ele>
        <time>2026-08-30T08:48:39.000Z</time>
      </trkpt>
      <trkpt lat="47.65759" lon="6.71373">
        <ele>422.4</ele>
        <time>2026-08-30T08:48:41.000Z</time>
      </trkpt>
      <trkpt lat="47.65761" lon="6.71367">
        <ele>422.8</ele>
        <time>2026-08-30T08:48:43.000Z</time>
      </trkpt>
      <trkpt lat="47.65762" lon="6.71361">
        <ele>423.4</ele>
        <time>2026-08-30T08:48:45.000Z</time>
      </trkpt>
      <trkpt lat="47.65764" lon="6.71355">
        <ele>423.8</ele>
        <time>2026-08-30T08:48:48.000Z</time>
      </trkpt>
      <trkpt lat="47.65766" lon="6.71349">
        <ele>424.4</ele>
        <time>2026-08-30T08:48:50.000Z</time>
      </trkpt>
      <trkpt lat="47.65769" lon="6.71343">
        <ele>424.8</ele>
        <time>2026-08-30T08:48:52.000Z</time>
      </trkpt>
      <trkpt lat="47.65771" lon="6.71336">
        <ele>425</ele>
        <time>2026-08-30T08:48:54.000Z</time>
      </trkpt>
      <trkpt lat="47.65774" lon="6.71327">
        <ele>425.2</ele>
        <time>2026-08-30T08:48:56.000Z</time>
      </trkpt>
      <trkpt lat="47.65777" lon="6.71317">
        <ele>425.2</ele>
        <time>2026-08-30T08:48:58.000Z</time>
      </trkpt>
      <trkpt lat="47.6578" lon="6.71308">
        <ele>425.2</ele>
        <time>2026-08-30T08:49:00.000Z</time>
      </trkpt>
      <trkpt lat="47.65784" lon="6.71299">
        <ele>425</ele>
        <time>2026-08-30T08:49:02.000Z</time>
      </trkpt>
      <trkpt lat="47.65789" lon="6.71291">
        <ele>425</ele>
        <time>2026-08-30T08:49:04.000Z</time>
      </trkpt>
      <trkpt lat="47.65795" lon="6.71286">
        <ele>425</ele>
        <time>2026-08-30T08:49:06.000Z</time>
      </trkpt>
      <trkpt lat="47.65801" lon="6.71281">
        <ele>425.2</ele>
        <time>2026-08-30T08:49:08.000Z</time>
      </trkpt>
      <trkpt lat="47.65807" lon="6.71278">
        <ele>425.4</ele>
        <time>2026-08-30T08:49:10.000Z</time>
      </trkpt>
      <trkpt lat="47.65814" lon="6.71274">
        <ele>425.4</ele>
        <time>2026-08-30T08:49:12.000Z</time>
      </trkpt>
      <trkpt lat="47.65822" lon="6.71269">
        <ele>425.2</ele>
        <time>2026-08-30T08:49:14.000Z</time>
      </trkpt>
      <trkpt lat="47.65829" lon="6.71262">
        <ele>425</ele>
        <time>2026-08-30T08:49:16.000Z</time>
      </trkpt>
      <trkpt lat="47.65836" lon="6.71254">
        <ele>424.8</ele>
        <time>2026-08-30T08:49:18.000Z</time>
      </trkpt>
      <trkpt lat="47.65841" lon="6.71245">
        <ele>424.6</ele>
        <time>2026-08-30T08:49:20.000Z</time>
      </trkpt>
      <trkpt lat="47.65844" lon="6.71236">
        <ele>424.4</ele>
        <time>2026-08-30T08:49:22.000Z</time>
      </trkpt>
      <trkpt lat="47.65847" lon="6.71233">
        <ele>424.2</ele>
        <time>2026-08-30T08:49:24.000Z</time>
      </trkpt>
      <trkpt lat="47.65848" lon="6.71232">
        <ele>424.2</ele>
        <time>2026-08-30T08:49:26.000Z</time>
      </trkpt>
      <trkpt lat="47.65849" lon="6.71233">
        <ele>424</ele>
        <time>2026-08-30T08:49:28.000Z</time>
      </trkpt>
      <trkpt lat="47.65849" lon="6.71233">
        <ele>424</ele>
        <time>2026-08-30T08:49:30.000Z</time>
      </trkpt>
      <trkpt lat="47.6585" lon="6.71233">
        <ele>424</ele>
        <time>2026-08-30T08:49:32.000Z</time>
      </trkpt>
      <trkpt lat="47.65851" lon="6.71233">
        <ele>424</ele>
        <time>2026-08-30T08:49:34.000Z</time>
      </trkpt>
      <trkpt lat="47.65853" lon="6.71232">
        <ele>424.2</ele>
        <time>2026-08-30T08:49:36.000Z</time>
      </trkpt>
      <trkpt lat="47.65856" lon="6.71229">
        <ele>424.2</ele>
        <time>2026-08-30T08:49:38.000Z</time>
      </trkpt>
      <trkpt lat="47.65862" lon="6.71224">
        <ele>424.4</ele>
        <time>2026-08-30T08:49:40.000Z</time>
      </trkpt>
      <trkpt lat="47.65868" lon="6.71219">
        <ele>424.6</ele>
        <time>2026-08-30T08:49:42.000Z</time>
      </trkpt>
      <trkpt lat="47.65874" lon="6.71214">
        <ele>424.8</ele>
        <time>2026-08-30T08:49:44.000Z</time>
      </trkpt>
      <trkpt lat="47.6588" lon="6.7121">
        <ele>425</ele>
        <time>2026-08-30T08:49:46.000Z</time>
      </trkpt>
      <trkpt lat="47.65885" lon="6.71204">
        <ele>425</ele>
        <time>2026-08-30T08:49:48.000Z</time>
      </trkpt>
      <trkpt lat="47.6589" lon="6.71198">
        <ele>425.2</ele>
        <time>2026-08-30T08:49:50.000Z</time>
      </trkpt>
      <trkpt lat="47.65897" lon="6.71191">
        <ele>425.6</ele>
        <time>2026-08-30T08:49:52.000Z</time>
      </trkpt>
      <trkpt lat="47.65903" lon="6.71186">
        <ele>425.8</ele>
        <time>2026-08-30T08:49:54.000Z</time>
      </trkpt>
      <trkpt lat="47.65909" lon="6.71181">
        <ele>426</ele>
        <time>2026-08-30T08:49:56.000Z</time>
      </trkpt>
      <trkpt lat="47.65915" lon="6.71176">
        <ele>426.2</ele>
        <time>2026-08-30T08:49:58.000Z</time>
      </trkpt>
      <trkpt lat="47.65921" lon="6.7117">
        <ele>426.6</ele>
        <time>2026-08-30T08:50:00.000Z</time>
      </trkpt>
      <trkpt lat="47.65927" lon="6.71163">
        <ele>427</ele>
        <time>2026-08-30T08:50:02.000Z</time>
      </trkpt>
      <trkpt lat="47.65932" lon="6.71157">
        <ele>427.4</ele>
        <time>2026-08-30T08:50:04.000Z</time>
      </trkpt>
      <trkpt lat="47.65936" lon="6.71151">
        <ele>427.8</ele>
        <time>2026-08-30T08:50:06.000Z</time>
      </trkpt>
      <trkpt lat="47.65941" lon="6.71144">
        <ele>428.2</ele>
        <time>2026-08-30T08:50:08.000Z</time>
      </trkpt>
      <trkpt lat="47.65946" lon="6.71136">
        <ele>428.8</ele>
        <time>2026-08-30T08:50:10.000Z</time>
      </trkpt>
      <trkpt lat="47.6595" lon="6.71129">
        <ele>429.2</ele>
        <time>2026-08-30T08:50:12.000Z</time>
      </trkpt>
      <trkpt lat="47.65954" lon="6.71123">
        <ele>429.8</ele>
        <time>2026-08-30T08:50:14.000Z</time>
      </trkpt>
      <trkpt lat="47.65958" lon="6.71117">
        <ele>430.2</ele>
        <time>2026-08-30T08:50:17.000Z</time>
      </trkpt>
      <trkpt lat="47.65963" lon="6.71111">
        <ele>430.8</ele>
        <time>2026-08-30T08:50:19.000Z</time>
      </trkpt>
      <trkpt lat="47.65968" lon="6.71105">
        <ele>431.2</ele>
        <time>2026-08-30T08:50:21.000Z</time>
      </trkpt>
      <trkpt lat="47.65973" lon="6.711">
        <ele>431.6</ele>
        <time>2026-08-30T08:50:23.000Z</time>
      </trkpt>
      <trkpt lat="47.65978" lon="6.71095">
        <ele>432</ele>
        <time>2026-08-30T08:50:25.000Z</time>
      </trkpt>
      <trkpt lat="47.65983" lon="6.71094">
        <ele>432.4</ele>
        <time>2026-08-30T08:50:27.000Z</time>
      </trkpt>
      <trkpt lat="47.65986" lon="6.71096">
        <ele>432.6</ele>
        <time>2026-08-30T08:50:29.000Z</time>
      </trkpt>
      <trkpt lat="47.65989" lon="6.71102">
        <ele>432.6</ele>
        <time>2026-08-30T08:50:31.000Z</time>
      </trkpt>
      <trkpt lat="47.65991" lon="6.71112">
        <ele>432.4</ele>
        <time>2026-08-30T08:50:33.000Z</time>
      </trkpt>
      <trkpt lat="47.65993" lon="6.71124">
        <ele>432.2</ele>
        <time>2026-08-30T08:50:35.000Z</time>
      </trkpt>
      <trkpt lat="47.65996" lon="6.71138">
        <ele>431.8</ele>
        <time>2026-08-30T08:50:37.000Z</time>
      </trkpt>
      <trkpt lat="47.65999" lon="6.71153">
        <ele>431.4</ele>
        <time>2026-08-30T08:50:39.000Z</time>
      </trkpt>
      <trkpt lat="47.66001" lon="6.71169">
        <ele>431</ele>
        <time>2026-08-30T08:50:41.000Z</time>
      </trkpt>
      <trkpt lat="47.66003" lon="6.71186">
        <ele>430.6</ele>
        <time>2026-08-30T08:50:43.000Z</time>
      </trkpt>
      <trkpt lat="47.66005" lon="6.71205">
        <ele>429.8</ele>
        <time>2026-08-30T08:50:45.000Z</time>
      </trkpt>
      <trkpt lat="47.66006" lon="6.71225">
        <ele>429.2</ele>
        <time>2026-08-30T08:50:47.000Z</time>
      </trkpt>
      <trkpt lat="47.66009" lon="6.71248">
        <ele>428.2</ele>
        <time>2026-08-30T08:50:49.000Z</time>
      </trkpt>
      <trkpt lat="47.66011" lon="6.71271">
        <ele>427.6</ele>
        <time>2026-08-30T08:50:51.000Z</time>
      </trkpt>
      <trkpt lat="47.66012" lon="6.71298">
        <ele>427</ele>
        <time>2026-08-30T08:50:53.000Z</time>
      </trkpt>
      <trkpt lat="47.66014" lon="6.71328">
        <ele>426.2</ele>
        <time>2026-08-30T08:50:55.000Z</time>
      </trkpt>
      <trkpt lat="47.66019" lon="6.71345">
        <ele>425.4</ele>
        <time>2026-08-30T08:50:57.000Z</time>
      </trkpt>
      <trkpt lat="47.66026" lon="6.71349">
        <ele>424.4</ele>
        <time>2026-08-30T08:50:59.000Z</time>
      </trkpt>
      <trkpt lat="47.66034" lon="6.71341">
        <ele>423.8</ele>
        <time>2026-08-30T08:51:01.000Z</time>
      </trkpt>
      <trkpt lat="47.6604" lon="6.71329">
        <ele>423.4</ele>
        <time>2026-08-30T08:51:03.000Z</time>
      </trkpt>
      <trkpt lat="47.66047" lon="6.71318">
        <ele>423</ele>
        <time>2026-08-30T08:51:05.000Z</time>
      </trkpt>
      <trkpt lat="47.66056" lon="6.71312">
        <ele>422.6</ele>
        <time>2026-08-30T08:51:07.000Z</time>
      </trkpt>
      <trkpt lat="47.66066" lon="6.71307">
        <ele>422.4</ele>
        <time>2026-08-30T08:51:09.000Z</time>
      </trkpt>
      <trkpt lat="47.66077" lon="6.71302">
        <ele>422.2</ele>
        <time>2026-08-30T08:51:11.000Z</time>
      </trkpt>
      <trkpt lat="47.66088" lon="6.71298">
        <ele>422</ele>
        <time>2026-08-30T08:51:13.000Z</time>
      </trkpt>
      <trkpt lat="47.66098" lon="6.71294">
        <ele>422</ele>
        <time>2026-08-30T08:51:15.000Z</time>
      </trkpt>
      <trkpt lat="47.66107" lon="6.7129">
        <ele>422</ele>
        <time>2026-08-30T08:51:17.000Z</time>
      </trkpt>
      <trkpt lat="47.66116" lon="6.71286">
        <ele>422</ele>
        <time>2026-08-30T08:51:19.000Z</time>
      </trkpt>
      <trkpt lat="47.66122" lon="6.71283">
        <ele>422.2</ele>
        <time>2026-08-30T08:51:21.000Z</time>
      </trkpt>
      <trkpt lat="47.66128" lon="6.7128">
        <ele>422.4</ele>
        <time>2026-08-30T08:51:23.000Z</time>
      </trkpt>
      <trkpt lat="47.66134" lon="6.71277">
        <ele>422.8</ele>
        <time>2026-08-30T08:51:25.000Z</time>
      </trkpt>
      <trkpt lat="47.66138" lon="6.71275">
        <ele>423.2</ele>
        <time>2026-08-30T08:51:27.000Z</time>
      </trkpt>
      <trkpt lat="47.66143" lon="6.71272">
        <ele>423.6</ele>
        <time>2026-08-30T08:51:29.000Z</time>
      </trkpt>
      <trkpt lat="47.66147" lon="6.71269">
        <ele>424.4</ele>
        <time>2026-08-30T08:51:31.000Z</time>
      </trkpt>
      <trkpt lat="47.66152" lon="6.71268">
        <ele>425</ele>
        <time>2026-08-30T08:51:33.000Z</time>
      </trkpt>
      <trkpt lat="47.66158" lon="6.71267">
        <ele>425.6</ele>
        <time>2026-08-30T08:51:35.000Z</time>
      </trkpt>
      <trkpt lat="47.66163" lon="6.71266">
        <ele>426.4</ele>
        <time>2026-08-30T08:51:37.000Z</time>
      </trkpt>
      <trkpt lat="47.66167" lon="6.71264">
        <ele>427</ele>
        <time>2026-08-30T08:51:39.000Z</time>
      </trkpt>
      <trkpt lat="47.66171" lon="6.71262">
        <ele>427.6</ele>
        <time>2026-08-30T08:51:42.000Z</time>
      </trkpt>
      <trkpt lat="47.66176" lon="6.7126">
        <ele>428.2</ele>
        <time>2026-08-30T08:51:44.000Z</time>
      </trkpt>
      <trkpt lat="47.6618" lon="6.71262">
        <ele>428.4</ele>
        <time>2026-08-30T08:51:46.000Z</time>
      </trkpt>
      <trkpt lat="47.66184" lon="6.71269">
        <ele>428.2</ele>
        <time>2026-08-30T08:51:48.000Z</time>
      </trkpt>
      <trkpt lat="47.66189" lon="6.71279">
        <ele>428</ele>
        <time>2026-08-30T08:51:50.000Z</time>
      </trkpt>
      <trkpt lat="47.66196" lon="6.71291">
        <ele>427.6</ele>
        <time>2026-08-30T08:51:52.000Z</time>
      </trkpt>
      <trkpt lat="47.66205" lon="6.71303">
        <ele>427</ele>
        <time>2026-08-30T08:51:54.000Z</time>
      </trkpt>
      <trkpt lat="47.66213" lon="6.71317">
        <ele>426.6</ele>
        <time>2026-08-30T08:51:56.000Z</time>
      </trkpt>
      <trkpt lat="47.66222" lon="6.71329">
        <ele>426</ele>
        <time>2026-08-30T08:51:58.000Z</time>
      </trkpt>
      <trkpt lat="47.66231" lon="6.71341">
        <ele>425.6</ele>
        <time>2026-08-30T08:52:00.000Z</time>
      </trkpt>
      <trkpt lat="47.66239" lon="6.71355">
        <ele>424.8</ele>
        <time>2026-08-30T08:52:02.000Z</time>
      </trkpt>
      <trkpt lat="47.66246" lon="6.71372">
        <ele>424.2</ele>
        <time>2026-08-30T08:52:04.000Z</time>
      </trkpt>
      <trkpt lat="47.66253" lon="6.7139">
        <ele>423.6</ele>
        <time>2026-08-30T08:52:06.000Z</time>
      </trkpt>
      <trkpt lat="47.66257" lon="6.71411">
        <ele>423</ele>
        <time>2026-08-30T08:52:08.000Z</time>
      </trkpt>
      <trkpt lat="47.66261" lon="6.7143">
        <ele>422.2</ele>
        <time>2026-08-30T08:52:10.000Z</time>
      </trkpt>
      <trkpt lat="47.66266" lon="6.71449">
        <ele>421.4</ele>
        <time>2026-08-30T08:52:12.000Z</time>
      </trkpt>
      <trkpt lat="47.66272" lon="6.71468">
        <ele>420.6</ele>
        <time>2026-08-30T08:52:14.000Z</time>
      </trkpt>
      <trkpt lat="47.6628" lon="6.71487">
        <ele>419.8</ele>
        <time>2026-08-30T08:52:16.000Z</time>
      </trkpt>
      <trkpt lat="47.66291" lon="6.71503">
        <ele>418.6</ele>
        <time>2026-08-30T08:52:18.000Z</time>
      </trkpt>
      <trkpt lat="47.66301" lon="6.71516">
        <ele>417.6</ele>
        <time>2026-08-30T08:52:20.000Z</time>
      </trkpt>
      <trkpt lat="47.66309" lon="6.71528">
        <ele>416.6</ele>
        <time>2026-08-30T08:52:22.000Z</time>
      </trkpt>
      <trkpt lat="47.66313" lon="6.7154">
        <ele>415.8</ele>
        <time>2026-08-30T08:52:24.000Z</time>
      </trkpt>
      <trkpt lat="47.66315" lon="6.71551">
        <ele>415.2</ele>
        <time>2026-08-30T08:52:26.000Z</time>
      </trkpt>
      <trkpt lat="47.66318" lon="6.71563">
        <ele>414.8</ele>
        <time>2026-08-30T08:52:28.000Z</time>
      </trkpt>
      <trkpt lat="47.66321" lon="6.71574">
        <ele>414.2</ele>
        <time>2026-08-30T08:52:30.000Z</time>
      </trkpt>
      <trkpt lat="47.66325" lon="6.71591">
        <ele>414</ele>
        <time>2026-08-30T08:52:32.000Z</time>
      </trkpt>
      <trkpt lat="47.66328" lon="6.71604">
        <ele>413.6</ele>
        <time>2026-08-30T08:52:34.000Z</time>
      </trkpt>
      <trkpt lat="47.66333" lon="6.71623">
        <ele>413.2</ele>
        <time>2026-08-30T08:52:36.000Z</time>
      </trkpt>
      <trkpt lat="47.66336" lon="6.71637">
        <ele>412.8</ele>
        <time>2026-08-30T08:52:38.000Z</time>
      </trkpt>
      <trkpt lat="47.66338" lon="6.71649">
        <ele>412.4</ele>
        <time>2026-08-30T08:52:40.000Z</time>
      </trkpt>
      <trkpt lat="47.66339" lon="6.71661">
        <ele>412.2</ele>
        <time>2026-08-30T08:52:42.000Z</time>
      </trkpt>
      <trkpt lat="47.66341" lon="6.71672">
        <ele>411.8</ele>
        <time>2026-08-30T08:52:44.000Z</time>
      </trkpt>
      <trkpt lat="47.66343" lon="6.71682">
        <ele>411.6</ele>
        <time>2026-08-30T08:52:46.000Z</time>
      </trkpt>
      <trkpt lat="47.66344" lon="6.71687">
        <ele>411.4</ele>
        <time>2026-08-30T08:52:48.000Z</time>
      </trkpt>
      <trkpt lat="47.66345" lon="6.7169">
        <ele>411.2</ele>
        <time>2026-08-30T08:52:50.000Z</time>
      </trkpt>
      <trkpt lat="47.66346" lon="6.71692">
        <ele>411.2</ele>
        <time>2026-08-30T08:52:52.000Z</time>
      </trkpt>
      <trkpt lat="47.66346" lon="6.71695">
        <ele>411.2</ele>
        <time>2026-08-30T08:52:54.000Z</time>
      </trkpt>
      <trkpt lat="47.66346" lon="6.71698">
        <ele>411.2</ele>
        <time>2026-08-30T08:52:56.000Z</time>
      </trkpt>
      <trkpt lat="47.66345" lon="6.71702">
        <ele>411.2</ele>
        <time>2026-08-30T08:52:58.000Z</time>
      </trkpt>
      <trkpt lat="47.66345" lon="6.71705">
        <ele>411.2</ele>
        <time>2026-08-30T08:53:00.000Z</time>
      </trkpt>
      <trkpt lat="47.66346" lon="6.71708">
        <ele>411.2</ele>
        <time>2026-08-30T08:53:02.000Z</time>
      </trkpt>
      <trkpt lat="47.66347" lon="6.71713">
        <ele>411.2</ele>
        <time>2026-08-30T08:53:04.000Z</time>
      </trkpt>
      <trkpt lat="47.6635" lon="6.71721">
        <ele>411.2</ele>
        <time>2026-08-30T08:53:06.000Z</time>
      </trkpt>
      <trkpt lat="47.66353" lon="6.71733">
        <ele>411.2</ele>
        <time>2026-08-30T08:53:08.000Z</time>
      </trkpt>
      <trkpt lat="47.66356" lon="6.71748">
        <ele>411</ele>
        <time>2026-08-30T08:53:10.000Z</time>
      </trkpt>
      <trkpt lat="47.66359" lon="6.71765">
        <ele>410.8</ele>
        <time>2026-08-30T08:53:12.000Z</time>
      </trkpt>
      <trkpt lat="47.66362" lon="6.71783">
        <ele>410.6</ele>
        <time>2026-08-30T08:53:15.000Z</time>
      </trkpt>
      <trkpt lat="47.66365" lon="6.71802">
        <ele>410.4</ele>
        <time>2026-08-30T08:53:17.000Z</time>
      </trkpt>
      <trkpt lat="47.6637" lon="6.71817">
        <ele>410</ele>
        <time>2026-08-30T08:53:19.000Z</time>
      </trkpt>
      <trkpt lat="47.6638" lon="6.71828">
        <ele>409.2</ele>
        <time>2026-08-30T08:53:21.000Z</time>
      </trkpt>
      <trkpt lat="47.66394" lon="6.7184">
        <ele>408</ele>
        <time>2026-08-30T08:53:23.000Z</time>
      </trkpt>
      <trkpt lat="47.66408" lon="6.71852">
        <ele>406.6</ele>
        <time>2026-08-30T08:53:25.000Z</time>
      </trkpt>
      <trkpt lat="47.6642" lon="6.71865">
        <ele>404.8</ele>
        <time>2026-08-30T08:53:27.000Z</time>
      </trkpt>
      <trkpt lat="47.66427" lon="6.7188">
        <ele>403.6</ele>
        <time>2026-08-30T08:53:29.000Z</time>
      </trkpt>
      <trkpt lat="47.66431" lon="6.71896">
        <ele>402.4</ele>
        <time>2026-08-30T08:53:31.000Z</time>
      </trkpt>
      <trkpt lat="47.66433" lon="6.71912">
        <ele>401</ele>
        <time>2026-08-30T08:53:33.000Z</time>
      </trkpt>
      <trkpt lat="47.66437" lon="6.71932">
        <ele>400</ele>
        <time>2026-08-30T08:53:35.000Z</time>
      </trkpt>
      <trkpt lat="47.66443" lon="6.71954">
        <ele>399.2</ele>
        <time>2026-08-30T08:53:37.000Z</time>
      </trkpt>
      <trkpt lat="47.66449" lon="6.71976">
        <ele>398</ele>
        <time>2026-08-30T08:53:39.000Z</time>
      </trkpt>
      <trkpt lat="47.66453" lon="6.71995">
        <ele>396.8</ele>
        <time>2026-08-30T08:53:41.000Z</time>
      </trkpt>
      <trkpt lat="47.66459" lon="6.72005">
        <ele>396</ele>
        <time>2026-08-30T08:53:43.000Z</time>
      </trkpt>
      <trkpt lat="47.66465" lon="6.72016">
        <ele>395.4</ele>
        <time>2026-08-30T08:53:45.000Z</time>
      </trkpt>
      <trkpt lat="47.66465" lon="6.72028">
        <ele>394.6</ele>
        <time>2026-08-30T08:53:47.000Z</time>
      </trkpt>
      <trkpt lat="47.66458" lon="6.72037">
        <ele>393.6</ele>
        <time>2026-08-30T08:53:49.000Z</time>
      </trkpt>
      <trkpt lat="47.6645" lon="6.72055">
        <ele>392.6</ele>
        <time>2026-08-30T08:53:51.000Z</time>
      </trkpt>
      <trkpt lat="47.66446" lon="6.72074">
        <ele>391.4</ele>
        <time>2026-08-30T08:53:53.000Z</time>
      </trkpt>
      <trkpt lat="47.66443" lon="6.72094">
        <ele>389.6</ele>
        <time>2026-08-30T08:53:55.000Z</time>
      </trkpt>
      <trkpt lat="47.66439" lon="6.72108">
        <ele>387.6</ele>
        <time>2026-08-30T08:53:57.000Z</time>
      </trkpt>
      <trkpt lat="47.66439" lon="6.7212">
        <ele>386.2</ele>
        <time>2026-08-30T08:53:59.000Z</time>
      </trkpt>
      <trkpt lat="47.6644" lon="6.72136">
        <ele>384.6</ele>
        <time>2026-08-30T08:54:01.000Z</time>
      </trkpt>
      <trkpt lat="47.6644" lon="6.72155">
        <ele>383</ele>
        <time>2026-08-30T08:54:03.000Z</time>
      </trkpt>
      <trkpt lat="47.66442" lon="6.72174">
        <ele>381.8</ele>
        <time>2026-08-30T08:54:05.000Z</time>
      </trkpt>
      <trkpt lat="47.66442" lon="6.72191">
        <ele>380.4</ele>
        <time>2026-08-30T08:54:07.000Z</time>
      </trkpt>
      <trkpt lat="47.66441" lon="6.72201">
        <ele>379.2</ele>
        <time>2026-08-30T08:54:09.000Z</time>
      </trkpt>
      <trkpt lat="47.66443" lon="6.72204">
        <ele>378.4</ele>
        <time>2026-08-30T08:54:11.000Z</time>
      </trkpt>
      <trkpt lat="47.66447" lon="6.72197">
        <ele>377.8</ele>
        <time>2026-08-30T08:54:13.000Z</time>
      </trkpt>
      <trkpt lat="47.66453" lon="6.72186">
        <ele>377.2</ele>
        <time>2026-08-30T08:54:15.000Z</time>
      </trkpt>
      <trkpt lat="47.66458" lon="6.72173">
        <ele>376.8</ele>
        <time>2026-08-30T08:54:17.000Z</time>
      </trkpt>
      <trkpt lat="47.66465" lon="6.72162">
        <ele>376.6</ele>
        <time>2026-08-30T08:54:19.000Z</time>
      </trkpt>
      <trkpt lat="47.66472" lon="6.72154">
        <ele>376.6</ele>
        <time>2026-08-30T08:54:21.000Z</time>
      </trkpt>
      <trkpt lat="47.66479" lon="6.72147">
        <ele>376.4</ele>
        <time>2026-08-30T08:54:23.000Z</time>
      </trkpt>
      <trkpt lat="47.66487" lon="6.72141">
        <ele>376.4</ele>
        <time>2026-08-30T08:54:25.000Z</time>
      </trkpt>
      <trkpt lat="47.66495" lon="6.72134">
        <ele>376.2</ele>
        <time>2026-08-30T08:54:27.000Z</time>
      </trkpt>
      <trkpt lat="47.66503" lon="6.72126">
        <ele>376.2</ele>
        <time>2026-08-30T08:54:29.000Z</time>
      </trkpt>
      <trkpt lat="47.66511" lon="6.72117">
        <ele>376</ele>
        <time>2026-08-30T08:54:31.000Z</time>
      </trkpt>
      <trkpt lat="47.66518" lon="6.72108">
        <ele>376</ele>
        <time>2026-08-30T08:54:33.000Z</time>
      </trkpt>
      <trkpt lat="47.66525" lon="6.72099">
        <ele>376</ele>
        <time>2026-08-30T08:54:35.000Z</time>
      </trkpt>
      <trkpt lat="47.66531" lon="6.72089">
        <ele>376</ele>
        <time>2026-08-30T08:54:37.000Z</time>
      </trkpt>
      <trkpt lat="47.66539" lon="6.72078">
        <ele>376</ele>
        <time>2026-08-30T08:54:39.000Z</time>
      </trkpt>
      <trkpt lat="47.66546" lon="6.72067">
        <ele>376</ele>
        <time>2026-08-30T08:54:42.000Z</time>
      </trkpt>
      <trkpt lat="47.66553" lon="6.72056">
        <ele>376.2</ele>
        <time>2026-08-30T08:54:44.000Z</time>
      </trkpt>
      <trkpt lat="47.66561" lon="6.72045">
        <ele>376.2</ele>
        <time>2026-08-30T08:54:46.000Z</time>
      </trkpt>
      <trkpt lat="47.66568" lon="6.72034">
        <ele>376.2</ele>
        <time>2026-08-30T08:54:48.000Z</time>
      </trkpt>
      <trkpt lat="47.66575" lon="6.72022">
        <ele>376.2</ele>
        <time>2026-08-30T08:54:50.000Z</time>
      </trkpt>
      <trkpt lat="47.6658" lon="6.72009">
        <ele>376</ele>
        <time>2026-08-30T08:54:52.000Z</time>
      </trkpt>
      <trkpt lat="47.66585" lon="6.71998">
        <ele>376.4</ele>
        <time>2026-08-30T08:54:54.000Z</time>
      </trkpt>
      <trkpt lat="47.66589" lon="6.71987">
        <ele>376.4</ele>
        <time>2026-08-30T08:54:56.000Z</time>
      </trkpt>
      <trkpt lat="47.66593" lon="6.71977">
        <ele>376.6</ele>
        <time>2026-08-30T08:54:58.000Z</time>
      </trkpt>
      <trkpt lat="47.66598" lon="6.71966">
        <ele>376.8</ele>
        <time>2026-08-30T08:55:00.000Z</time>
      </trkpt>
      <trkpt lat="47.66601" lon="6.71955">
        <ele>377</ele>
        <time>2026-08-30T08:55:02.000Z</time>
      </trkpt>
      <trkpt lat="47.66604" lon="6.71944">
        <ele>377</ele>
        <time>2026-08-30T08:55:04.000Z</time>
      </trkpt>
      <trkpt lat="47.66605" lon="6.71934">
        <ele>377.2</ele>
        <time>2026-08-30T08:55:06.000Z</time>
      </trkpt>
      <trkpt lat="47.66605" lon="6.71924">
        <ele>377.6</ele>
        <time>2026-08-30T08:55:08.000Z</time>
      </trkpt>
      <trkpt lat="47.66603" lon="6.71915">
        <ele>377.8</ele>
        <time>2026-08-30T08:55:10.000Z</time>
      </trkpt>
      <trkpt lat="47.666" lon="6.71907">
        <ele>378.2</ele>
        <time>2026-08-30T08:55:12.000Z</time>
      </trkpt>
      <trkpt lat="47.66598" lon="6.71899">
        <ele>378.6</ele>
        <time>2026-08-30T08:55:14.000Z</time>
      </trkpt>
      <trkpt lat="47.66596" lon="6.7189">
        <ele>379.2</ele>
        <time>2026-08-30T08:55:16.000Z</time>
      </trkpt>
      <trkpt lat="47.66593" lon="6.71882">
        <ele>379.6</ele>
        <time>2026-08-30T08:55:18.000Z</time>
      </trkpt>
      <trkpt lat="47.66591" lon="6.71873">
        <ele>379.8</ele>
        <time>2026-08-30T08:55:20.000Z</time>
      </trkpt>
      <trkpt lat="47.66589" lon="6.71862">
        <ele>380.2</ele>
        <time>2026-08-30T08:55:22.000Z</time>
      </trkpt>
      <trkpt lat="47.66587" lon="6.71852">
        <ele>380.4</ele>
        <time>2026-08-30T08:55:24.000Z</time>
      </trkpt>
      <trkpt lat="47.66584" lon="6.71845">
        <ele>380.8</ele>
        <time>2026-08-30T08:55:26.000Z</time>
      </trkpt>
      <trkpt lat="47.66581" lon="6.71839">
        <ele>381.2</ele>
        <time>2026-08-30T08:55:28.000Z</time>
      </trkpt>
      <trkpt lat="47.66577" lon="6.71834">
        <ele>381.4</ele>
        <time>2026-08-30T08:55:30.000Z</time>
      </trkpt>
      <trkpt lat="47.66574" lon="6.71828">
        <ele>381.8</ele>
        <time>2026-08-30T08:55:32.000Z</time>
      </trkpt>
      <trkpt lat="47.66571" lon="6.7182">
        <ele>382</ele>
        <time>2026-08-30T08:55:34.000Z</time>
      </trkpt>
      <trkpt lat="47.66569" lon="6.71813">
        <ele>382.2</ele>
        <time>2026-08-30T08:55:36.000Z</time>
      </trkpt>
      <trkpt lat="47.66568" lon="6.71805">
        <ele>382.4</ele>
        <time>2026-08-30T08:55:38.000Z</time>
      </trkpt>
      <trkpt lat="47.66566" lon="6.71797">
        <ele>382.8</ele>
        <time>2026-08-30T08:55:40.000Z</time>
      </trkpt>
      <trkpt lat="47.66564" lon="6.7179">
        <ele>382.8</ele>
        <time>2026-08-30T08:55:42.000Z</time>
      </trkpt>
      <trkpt lat="47.66562" lon="6.71783">
        <ele>383</ele>
        <time>2026-08-30T08:55:44.000Z</time>
      </trkpt>
      <trkpt lat="47.6656" lon="6.71777">
        <ele>383.2</ele>
        <time>2026-08-30T08:55:46.000Z</time>
      </trkpt>
      <trkpt lat="47.6656" lon="6.71771">
        <ele>383.2</ele>
        <time>2026-08-30T08:55:48.000Z</time>
      </trkpt>
      <trkpt lat="47.6656" lon="6.71762">
        <ele>383.2</ele>
        <time>2026-08-30T08:55:50.000Z</time>
      </trkpt>
      <trkpt lat="47.66559" lon="6.71753">
        <ele>383</ele>
        <time>2026-08-30T08:55:52.000Z</time>
      </trkpt>
      <trkpt lat="47.66558" lon="6.71744">
        <ele>383</ele>
        <time>2026-08-30T08:55:54.000Z</time>
      </trkpt>
      <trkpt lat="47.66556" lon="6.71736">
        <ele>383</ele>
        <time>2026-08-30T08:55:56.000Z</time>
      </trkpt>
      <trkpt lat="47.66552" lon="6.71728">
        <ele>383</ele>
        <time>2026-08-30T08:55:58.000Z</time>
      </trkpt>
      <trkpt lat="47.66549" lon="6.7172">
        <ele>382.8</ele>
        <time>2026-08-30T08:56:00.000Z</time>
      </trkpt>
      <trkpt lat="47.66546" lon="6.71712">
        <ele>382.4</ele>
        <time>2026-08-30T08:56:02.000Z</time>
      </trkpt>
      <trkpt lat="47.66544" lon="6.71703">
        <ele>382.2</ele>
        <time>2026-08-30T08:56:04.000Z</time>
      </trkpt>
      <trkpt lat="47.66545" lon="6.7169">
        <ele>381.8</ele>
        <time>2026-08-30T08:56:06.000Z</time>
      </trkpt>
      <trkpt lat="47.6655" lon="6.71678">
        <ele>381.4</ele>
        <time>2026-08-30T08:56:08.000Z</time>
      </trkpt>
      <trkpt lat="47.66558" lon="6.71669">
        <ele>381</ele>
        <time>2026-08-30T08:56:10.000Z</time>
      </trkpt>
      <trkpt lat="47.66566" lon="6.71664">
        <ele>380.8</ele>
        <time>2026-08-30T08:56:12.000Z</time>
      </trkpt>
      <trkpt lat="47.66574" lon="6.71663">
        <ele>380.4</ele>
        <time>2026-08-30T08:56:15.000Z</time>
      </trkpt>
      <trkpt lat="47.66581" lon="6.71667">
        <ele>380.2</ele>
        <time>2026-08-30T08:56:17.000Z</time>
      </trkpt>
      <trkpt lat="47.66588" lon="6.71671">
        <ele>380.2</ele>
        <time>2026-08-30T08:56:19.000Z</time>
      </trkpt>
      <trkpt lat="47.66595" lon="6.71677">
        <ele>380</ele>
        <time>2026-08-30T08:56:21.000Z</time>
      </trkpt>
      <trkpt lat="47.66602" lon="6.71682">
        <ele>379.8</ele>
        <time>2026-08-30T08:56:23.000Z</time>
      </trkpt>
      <trkpt lat="47.66608" lon="6.71685">
        <ele>380</ele>
        <time>2026-08-30T08:56:25.000Z</time>
      </trkpt>
      <trkpt lat="47.66613" lon="6.71685">
        <ele>379.8</ele>
        <time>2026-08-30T08:56:27.000Z</time>
      </trkpt>
      <trkpt lat="47.66621" lon="6.71683">
        <ele>379.4</ele>
        <time>2026-08-30T08:56:29.000Z</time>
      </trkpt>
      <trkpt lat="47.66629" lon="6.71675">
        <ele>379</ele>
        <time>2026-08-30T08:56:31.000Z</time>
      </trkpt>
      <trkpt lat="47.66634" lon="6.71663">
        <ele>378.8</ele>
        <time>2026-08-30T08:56:33.000Z</time>
      </trkpt>
      <trkpt lat="47.66639" lon="6.71652">
        <ele>378.4</ele>
        <time>2026-08-30T08:56:35.000Z</time>
      </trkpt>
      <trkpt lat="47.66644" lon="6.71643">
        <ele>378.4</ele>
        <time>2026-08-30T08:56:37.000Z</time>
      </trkpt>
      <trkpt lat="47.66649" lon="6.71634">
        <ele>378.4</ele>
        <time>2026-08-30T08:56:39.000Z</time>
      </trkpt>
      <trkpt lat="47.66654" lon="6.71626">
        <ele>378.4</ele>
        <time>2026-08-30T08:56:41.000Z</time>
      </trkpt>
      <trkpt lat="47.66659" lon="6.71617">
        <ele>378.4</ele>
        <time>2026-08-30T08:56:43.000Z</time>
      </trkpt>
      <trkpt lat="47.66666" lon="6.71606">
        <ele>378.4</ele>
        <time>2026-08-30T08:56:45.000Z</time>
      </trkpt>
      <trkpt lat="47.66673" lon="6.71595">
        <ele>378.4</ele>
        <time>2026-08-30T08:56:47.000Z</time>
      </trkpt>
      <trkpt lat="47.66678" lon="6.71586">
        <ele>378.6</ele>
        <time>2026-08-30T08:56:49.000Z</time>
      </trkpt>
      <trkpt lat="47.66682" lon="6.71579">
        <ele>378.6</ele>
        <time>2026-08-30T08:56:51.000Z</time>
      </trkpt>
      <trkpt lat="47.66686" lon="6.71571">
        <ele>378.6</ele>
        <time>2026-08-30T08:56:53.000Z</time>
      </trkpt>
      <trkpt lat="47.66691" lon="6.71563">
        <ele>378.8</ele>
        <time>2026-08-30T08:56:55.000Z</time>
      </trkpt>
      <trkpt lat="47.66695" lon="6.71553">
        <ele>379</ele>
        <time>2026-08-30T08:56:57.000Z</time>
      </trkpt>
      <trkpt lat="47.66698" lon="6.71544">
        <ele>379.2</ele>
        <time>2026-08-30T08:56:59.000Z</time>
      </trkpt>
      <trkpt lat="47.667" lon="6.71535">
        <ele>379.4</ele>
        <time>2026-08-30T08:57:01.000Z</time>
      </trkpt>
      <trkpt lat="47.66703" lon="6.71526">
        <ele>379.6</ele>
        <time>2026-08-30T08:57:03.000Z</time>
      </trkpt>
      <trkpt lat="47.66705" lon="6.71517">
        <ele>379.8</ele>
        <time>2026-08-30T08:57:05.000Z</time>
      </trkpt>
      <trkpt lat="47.66707" lon="6.71507">
        <ele>379.8</ele>
        <time>2026-08-30T08:57:07.000Z</time>
      </trkpt>
      <trkpt lat="47.66708" lon="6.71498">
        <ele>379.8</ele>
        <time>2026-08-30T08:57:09.000Z</time>
      </trkpt>
      <trkpt lat="47.66709" lon="6.71489">
        <ele>379.8</ele>
        <time>2026-08-30T08:57:11.000Z</time>
      </trkpt>
      <trkpt lat="47.6671" lon="6.7148">
        <ele>379.8</ele>
        <time>2026-08-30T08:57:13.000Z</time>
      </trkpt>
      <trkpt lat="47.6671" lon="6.71471">
        <ele>379.6</ele>
        <time>2026-08-30T08:57:15.000Z</time>
      </trkpt>
      <trkpt lat="47.66709" lon="6.7146">
        <ele>379.6</ele>
        <time>2026-08-30T08:57:17.000Z</time>
      </trkpt>
      <trkpt lat="47.66705" lon="6.71449">
        <ele>379.6</ele>
        <time>2026-08-30T08:57:19.000Z</time>
      </trkpt>
      <trkpt lat="47.66701" lon="6.71438">
        <ele>379.6</ele>
        <time>2026-08-30T08:57:21.000Z</time>
      </trkpt>
      <trkpt lat="47.66698" lon="6.71424">
        <ele>379.4</ele>
        <time>2026-08-30T08:57:23.000Z</time>
      </trkpt>
      <trkpt lat="47.66699" lon="6.71409">
        <ele>379.2</ele>
        <time>2026-08-30T08:57:25.000Z</time>
      </trkpt>
      <trkpt lat="47.66704" lon="6.71395">
        <ele>379</ele>
        <time>2026-08-30T08:57:27.000Z</time>
      </trkpt>
      <trkpt lat="47.66709" lon="6.71382">
        <ele>379</ele>
        <time>2026-08-30T08:57:29.000Z</time>
      </trkpt>
      <trkpt lat="47.66713" lon="6.71371">
        <ele>378.8</ele>
        <time>2026-08-30T08:57:31.000Z</time>
      </trkpt>
      <trkpt lat="47.66719" lon="6.71363">
        <ele>378.8</ele>
        <time>2026-08-30T08:57:33.000Z</time>
      </trkpt>
      <trkpt lat="47.66724" lon="6.71354">
        <ele>378.8</ele>
        <time>2026-08-30T08:57:35.000Z</time>
      </trkpt>
      <trkpt lat="47.66728" lon="6.71343">
        <ele>378.8</ele>
        <time>2026-08-30T08:57:37.000Z</time>
      </trkpt>
      <trkpt lat="47.66731" lon="6.71332">
        <ele>378.8</ele>
        <time>2026-08-30T08:57:39.000Z</time>
      </trkpt>
      <trkpt lat="47.66735" lon="6.71321">
        <ele>378.8</ele>
        <time>2026-08-30T08:57:41.000Z</time>
      </trkpt>
      <trkpt lat="47.66739" lon="6.7131">
        <ele>378.8</ele>
        <time>2026-08-30T08:57:44.000Z</time>
      </trkpt>
      <trkpt lat="47.66743" lon="6.71298">
        <ele>378.8</ele>
        <time>2026-08-30T08:57:46.000Z</time>
      </trkpt>
      <trkpt lat="47.66746" lon="6.71286">
        <ele>378.8</ele>
        <time>2026-08-30T08:57:48.000Z</time>
      </trkpt>
      <trkpt lat="47.66749" lon="6.71274">
        <ele>378.8</ele>
        <time>2026-08-30T08:57:50.000Z</time>
      </trkpt>
      <trkpt lat="47.66753" lon="6.71263">
        <ele>378.6</ele>
        <time>2026-08-30T08:57:52.000Z</time>
      </trkpt>
      <trkpt lat="47.66756" lon="6.71252">
        <ele>378.6</ele>
        <time>2026-08-30T08:57:54.000Z</time>
      </trkpt>
      <trkpt lat="47.66757" lon="6.71239">
        <ele>378.8</ele>
        <time>2026-08-30T08:57:56.000Z</time>
      </trkpt>
      <trkpt lat="47.66759" lon="6.71226">
        <ele>378.6</ele>
        <time>2026-08-30T08:57:58.000Z</time>
      </trkpt>
      <trkpt lat="47.6676" lon="6.71215">
        <ele>378.6</ele>
        <time>2026-08-30T08:58:00.000Z</time>
      </trkpt>
      <trkpt lat="47.66761" lon="6.71201">
        <ele>378.6</ele>
        <time>2026-08-30T08:58:02.000Z</time>
      </trkpt>
      <trkpt lat="47.66762" lon="6.71186">
        <ele>378.8</ele>
        <time>2026-08-30T08:58:04.000Z</time>
      </trkpt>
      <trkpt lat="47.66764" lon="6.71171">
        <ele>379</ele>
        <time>2026-08-30T08:58:06.000Z</time>
      </trkpt>
      <trkpt lat="47.66767" lon="6.7116">
        <ele>379.2</ele>
        <time>2026-08-30T08:58:08.000Z</time>
      </trkpt>
      <trkpt lat="47.66772" lon="6.7115">
        <ele>379.2</ele>
        <time>2026-08-30T08:58:10.000Z</time>
      </trkpt>
      <trkpt lat="47.66777" lon="6.7114">
        <ele>379.4</ele>
        <time>2026-08-30T08:58:12.000Z</time>
      </trkpt>
      <trkpt lat="47.66782" lon="6.71129">
        <ele>379.8</ele>
        <time>2026-08-30T08:58:14.000Z</time>
      </trkpt>
      <trkpt lat="47.66784" lon="6.71118">
        <ele>380.2</ele>
        <time>2026-08-30T08:58:16.000Z</time>
      </trkpt>
      <trkpt lat="47.66785" lon="6.71108">
        <ele>380.4</ele>
        <time>2026-08-30T08:58:18.000Z</time>
      </trkpt>
      <trkpt lat="47.66786" lon="6.71096">
        <ele>380.6</ele>
        <time>2026-08-30T08:58:20.000Z</time>
      </trkpt>
      <trkpt lat="47.66788" lon="6.71084">
        <ele>380.6</ele>
        <time>2026-08-30T08:58:22.000Z</time>
      </trkpt>
      <trkpt lat="47.66791" lon="6.71067">
        <ele>380.8</ele>
        <time>2026-08-30T08:58:24.000Z</time>
      </trkpt>
      <trkpt lat="47.66794" lon="6.71054">
        <ele>380.8</ele>
        <time>2026-08-30T08:58:26.000Z</time>
      </trkpt>
      <trkpt lat="47.66798" lon="6.71044">
        <ele>380.8</ele>
        <time>2026-08-30T08:58:28.000Z</time>
      </trkpt>
      <trkpt lat="47.66804" lon="6.71036">
        <ele>380.6</ele>
        <time>2026-08-30T08:58:30.000Z</time>
      </trkpt>
      <trkpt lat="47.66808" lon="6.7103">
        <ele>380.2</ele>
        <time>2026-08-30T08:58:32.000Z</time>
      </trkpt>
      <trkpt lat="47.66811" lon="6.71024">
        <ele>380.2</ele>
        <time>2026-08-30T08:58:34.000Z</time>
      </trkpt>
      <trkpt lat="47.66816" lon="6.71017">
        <ele>380.2</ele>
        <time>2026-08-30T08:58:36.000Z</time>
      </trkpt>
      <trkpt lat="47.66822" lon="6.71007">
        <ele>380.2</ele>
        <time>2026-08-30T08:58:38.000Z</time>
      </trkpt>
      <trkpt lat="47.66829" lon="6.70998">
        <ele>380.4</ele>
        <time>2026-08-30T08:58:40.000Z</time>
      </trkpt>
      <trkpt lat="47.66836" lon="6.70989">
        <ele>380.6</ele>
        <time>2026-08-30T08:58:42.000Z</time>
      </trkpt>
      <trkpt lat="47.66842" lon="6.7098">
        <ele>380.8</ele>
        <time>2026-08-30T08:58:44.000Z</time>
      </trkpt>
      <trkpt lat="47.66846" lon="6.7097">
        <ele>381</ele>
        <time>2026-08-30T08:58:46.000Z</time>
      </trkpt>
      <trkpt lat="47.66849" lon="6.70959">
        <ele>381.2</ele>
        <time>2026-08-30T08:58:48.000Z</time>
      </trkpt>
      <trkpt lat="47.66849" lon="6.70949">
        <ele>381.6</ele>
        <time>2026-08-30T08:58:50.000Z</time>
      </trkpt>
      <trkpt lat="47.66848" lon="6.7094">
        <ele>382</ele>
        <time>2026-08-30T08:58:52.000Z</time>
      </trkpt>
      <trkpt lat="47.66846" lon="6.70931">
        <ele>382.4</ele>
        <time>2026-08-30T08:58:54.000Z</time>
      </trkpt>
      <trkpt lat="47.66844" lon="6.70924">
        <ele>382.8</ele>
        <time>2026-08-30T08:58:56.000Z</time>
      </trkpt>
      <trkpt lat="47.66842" lon="6.70917">
        <ele>383.4</ele>
        <time>2026-08-30T08:58:58.000Z</time>
      </trkpt>
      <trkpt lat="47.66842" lon="6.7091">
        <ele>384</ele>
        <time>2026-08-30T08:59:00.000Z</time>
      </trkpt>
      <trkpt lat="47.66841" lon="6.70904">
        <ele>384.6</ele>
        <time>2026-08-30T08:59:02.000Z</time>
      </trkpt>
      <trkpt lat="47.66841" lon="6.70897">
        <ele>385</ele>
        <time>2026-08-30T08:59:04.000Z</time>
      </trkpt>
      <trkpt lat="47.66841" lon="6.7089">
        <ele>385.6</ele>
        <time>2026-08-30T08:59:06.000Z</time>
      </trkpt>
      <trkpt lat="47.66841" lon="6.70882">
        <ele>385.8</ele>
        <time>2026-08-30T08:59:08.000Z</time>
      </trkpt>
      <trkpt lat="47.66841" lon="6.70874">
        <ele>386</ele>
        <time>2026-08-30T08:59:10.000Z</time>
      </trkpt>
      <trkpt lat="47.66841" lon="6.70866">
        <ele>386.2</ele>
        <time>2026-08-30T08:59:12.000Z</time>
      </trkpt>
      <trkpt lat="47.6684" lon="6.70858">
        <ele>386.2</ele>
        <time>2026-08-30T08:59:14.000Z</time>
      </trkpt>
      <trkpt lat="47.6684" lon="6.70851">
        <ele>386.4</ele>
        <time>2026-08-30T08:59:16.000Z</time>
      </trkpt>
      <trkpt lat="47.6684" lon="6.70843">
        <ele>386.4</ele>
        <time>2026-08-30T08:59:19.000Z</time>
      </trkpt>
      <trkpt lat="47.66842" lon="6.70834">
        <ele>386.4</ele>
        <time>2026-08-30T08:59:21.000Z</time>
      </trkpt>
      <trkpt lat="47.66845" lon="6.70823">
        <ele>386</ele>
        <time>2026-08-30T08:59:23.000Z</time>
      </trkpt>
      <trkpt lat="47.66848" lon="6.70811">
        <ele>385.8</ele>
        <time>2026-08-30T08:59:25.000Z</time>
      </trkpt>
      <trkpt lat="47.66852" lon="6.70799">
        <ele>385.4</ele>
        <time>2026-08-30T08:59:27.000Z</time>
      </trkpt>
      <trkpt lat="47.66856" lon="6.70787">
        <ele>384.8</ele>
        <time>2026-08-30T08:59:29.000Z</time>
      </trkpt>
      <trkpt lat="47.6686" lon="6.70773">
        <ele>384.4</ele>
        <time>2026-08-30T08:59:31.000Z</time>
      </trkpt>
      <trkpt lat="47.66862" lon="6.70757">
        <ele>384.2</ele>
        <time>2026-08-30T08:59:33.000Z</time>
      </trkpt>
      <trkpt lat="47.66864" lon="6.70743">
        <ele>384.4</ele>
        <time>2026-08-30T08:59:35.000Z</time>
      </trkpt>
      <trkpt lat="47.66868" lon="6.70731">
        <ele>384.8</ele>
        <time>2026-08-30T08:59:37.000Z</time>
      </trkpt>
      <trkpt lat="47.6687" lon="6.70721">
        <ele>385.4</ele>
        <time>2026-08-30T08:59:39.000Z</time>
      </trkpt>
      <trkpt lat="47.66871" lon="6.70712">
        <ele>385.8</ele>
        <time>2026-08-30T08:59:41.000Z</time>
      </trkpt>
      <trkpt lat="47.66872" lon="6.70705">
        <ele>386.4</ele>
        <time>2026-08-30T08:59:43.000Z</time>
      </trkpt>
      <trkpt lat="47.66872" lon="6.70697">
        <ele>386.8</ele>
        <time>2026-08-30T08:59:45.000Z</time>
      </trkpt>
      <trkpt lat="47.66873" lon="6.70689">
        <ele>387</ele>
        <time>2026-08-30T08:59:47.000Z</time>
      </trkpt>
      <trkpt lat="47.66874" lon="6.70678">
        <ele>387</ele>
        <time>2026-08-30T08:59:49.000Z</time>
      </trkpt>
      <trkpt lat="47.66876" lon="6.70661">
        <ele>387</ele>
        <time>2026-08-30T08:59:51.000Z</time>
      </trkpt>
      <trkpt lat="47.66878" lon="6.70645">
        <ele>386.8</ele>
        <time>2026-08-30T08:59:53.000Z</time>
      </trkpt>
      <trkpt lat="47.66878" lon="6.7063">
        <ele>386.6</ele>
        <time>2026-08-30T08:59:55.000Z</time>
      </trkpt>
      <trkpt lat="47.66877" lon="6.70616">
        <ele>386.4</ele>
        <time>2026-08-30T08:59:57.000Z</time>
      </trkpt>
      <trkpt lat="47.66875" lon="6.70603">
        <ele>386.2</ele>
        <time>2026-08-30T08:59:59.000Z</time>
      </trkpt>
      <trkpt lat="47.66873" lon="6.70591">
        <ele>386</ele>
        <time>2026-08-30T09:00:01.000Z</time>
      </trkpt>
      <trkpt lat="47.66872" lon="6.7058">
        <ele>386</ele>
        <time>2026-08-30T09:00:03.000Z</time>
      </trkpt>
      <trkpt lat="47.66871" lon="6.70569">
        <ele>386.2</ele>
        <time>2026-08-30T09:00:05.000Z</time>
      </trkpt>
      <trkpt lat="47.66869" lon="6.70559">
        <ele>386.2</ele>
        <time>2026-08-30T09:00:07.000Z</time>
      </trkpt>
      <trkpt lat="47.66865" lon="6.70549">
        <ele>386.6</ele>
        <time>2026-08-30T09:00:09.000Z</time>
      </trkpt>
      <trkpt lat="47.6686" lon="6.70539">
        <ele>386.8</ele>
        <time>2026-08-30T09:00:11.000Z</time>
      </trkpt>
      <trkpt lat="47.66856" lon="6.70532">
        <ele>387.2</ele>
        <time>2026-08-30T09:00:13.000Z</time>
      </trkpt>
      <trkpt lat="47.66853" lon="6.70523">
        <ele>387.2</ele>
        <time>2026-08-30T09:00:15.000Z</time>
      </trkpt>
      <trkpt lat="47.66852" lon="6.70514">
        <ele>387</ele>
        <time>2026-08-30T09:00:17.000Z</time>
      </trkpt>
      <trkpt lat="47.6685" lon="6.70503">
        <ele>386.8</ele>
        <time>2026-08-30T09:00:19.000Z</time>
      </trkpt>
      <trkpt lat="47.66849" lon="6.70491">
        <ele>386.6</ele>
        <time>2026-08-30T09:00:21.000Z</time>
      </trkpt>
      <trkpt lat="47.66847" lon="6.7048">
        <ele>386.2</ele>
        <time>2026-08-30T09:00:23.000Z</time>
      </trkpt>
      <trkpt lat="47.66846" lon="6.70469">
        <ele>385.8</ele>
        <time>2026-08-30T09:00:25.000Z</time>
      </trkpt>
      <trkpt lat="47.66845" lon="6.70457">
        <ele>385.6</ele>
        <time>2026-08-30T09:00:27.000Z</time>
      </trkpt>
      <trkpt lat="47.66844" lon="6.70445">
        <ele>385.4</ele>
        <time>2026-08-30T09:00:29.000Z</time>
      </trkpt>
      <trkpt lat="47.66844" lon="6.70431">
        <ele>385.2</ele>
        <time>2026-08-30T09:00:31.000Z</time>
      </trkpt>
      <trkpt lat="47.66844" lon="6.70418">
        <ele>384.8</ele>
        <time>2026-08-30T09:00:33.000Z</time>
      </trkpt>
      <trkpt lat="47.66844" lon="6.70406">
        <ele>384.4</ele>
        <time>2026-08-30T09:00:35.000Z</time>
      </trkpt>
      <trkpt lat="47.66842" lon="6.70398">
        <ele>384.4</ele>
        <time>2026-08-30T09:00:37.000Z</time>
      </trkpt>
      <trkpt lat="47.6684" lon="6.70391">
        <ele>384.4</ele>
        <time>2026-08-30T09:00:39.000Z</time>
      </trkpt>
      <trkpt lat="47.66838" lon="6.70385">
        <ele>384.6</ele>
        <time>2026-08-30T09:00:42.000Z</time>
      </trkpt>
      <trkpt lat="47.66833" lon="6.70378">
        <ele>384.8</ele>
        <time>2026-08-30T09:00:44.000Z</time>
      </trkpt>
      <trkpt lat="47.66828" lon="6.70372">
        <ele>385.4</ele>
        <time>2026-08-30T09:00:46.000Z</time>
      </trkpt>
      <trkpt lat="47.66824" lon="6.70368">
        <ele>385.6</ele>
        <time>2026-08-30T09:00:48.000Z</time>
      </trkpt>
      <trkpt lat="47.66821" lon="6.70365">
        <ele>385.8</ele>
        <time>2026-08-30T09:00:50.000Z</time>
      </trkpt>
      <trkpt lat="47.66816" lon="6.7036">
        <ele>386</ele>
        <time>2026-08-30T09:00:52.000Z</time>
      </trkpt>
      <trkpt lat="47.66808" lon="6.70356">
        <ele>386.2</ele>
        <time>2026-08-30T09:00:54.000Z</time>
      </trkpt>
      <trkpt lat="47.66801" lon="6.70353">
        <ele>386.4</ele>
        <time>2026-08-30T09:00:56.000Z</time>
      </trkpt>
      <trkpt lat="47.66794" lon="6.70351">
        <ele>386.6</ele>
        <time>2026-08-30T09:00:58.000Z</time>
      </trkpt>
      <trkpt lat="47.66789" lon="6.7035">
        <ele>386.8</ele>
        <time>2026-08-30T09:01:00.000Z</time>
      </trkpt>
      <trkpt lat="47.66784" lon="6.70349">
        <ele>387.2</ele>
        <time>2026-08-30T09:01:02.000Z</time>
      </trkpt>
      <trkpt lat="47.66777" lon="6.7035">
        <ele>387.4</ele>
        <time>2026-08-30T09:01:04.000Z</time>
      </trkpt>
      <trkpt lat="47.66771" lon="6.70349">
        <ele>387.6</ele>
        <time>2026-08-30T09:01:06.000Z</time>
      </trkpt>
      <trkpt lat="47.66766" lon="6.70346">
        <ele>387.8</ele>
        <time>2026-08-30T09:01:08.000Z</time>
      </trkpt>
      <trkpt lat="47.6676" lon="6.70342">
        <ele>388</ele>
        <time>2026-08-30T09:01:10.000Z</time>
      </trkpt>
      <trkpt lat="47.66755" lon="6.70337">
        <ele>388.4</ele>
        <time>2026-08-30T09:01:12.000Z</time>
      </trkpt>
      <trkpt lat="47.6675" lon="6.70333">
        <ele>388.6</ele>
        <time>2026-08-30T09:01:14.000Z</time>
      </trkpt>
      <trkpt lat="47.66746" lon="6.70329">
        <ele>389</ele>
        <time>2026-08-30T09:01:16.000Z</time>
      </trkpt>
      <trkpt lat="47.6674" lon="6.70327">
        <ele>389.4</ele>
        <time>2026-08-30T09:01:18.000Z</time>
      </trkpt>
      <trkpt lat="47.66734" lon="6.70327">
        <ele>389.8</ele>
        <time>2026-08-30T09:01:20.000Z</time>
      </trkpt>
      <trkpt lat="47.66727" lon="6.70328">
        <ele>390.4</ele>
        <time>2026-08-30T09:01:22.000Z</time>
      </trkpt>
      <trkpt lat="47.6672" lon="6.70329">
        <ele>391</ele>
        <time>2026-08-30T09:01:24.000Z</time>
      </trkpt>
      <trkpt lat="47.66715" lon="6.70329">
        <ele>391.4</ele>
        <time>2026-08-30T09:01:26.000Z</time>
      </trkpt>
      <trkpt lat="47.66711" lon="6.70327">
        <ele>391.8</ele>
        <time>2026-08-30T09:01:28.000Z</time>
      </trkpt>
      <trkpt lat="47.66707" lon="6.70324">
        <ele>392</ele>
        <time>2026-08-30T09:01:30.000Z</time>
      </trkpt>
      <trkpt lat="47.66701" lon="6.70321">
        <ele>392.2</ele>
        <time>2026-08-30T09:01:32.000Z</time>
      </trkpt>
      <trkpt lat="47.66694" lon="6.70318">
        <ele>392</ele>
        <time>2026-08-30T09:01:34.000Z</time>
      </trkpt>
      <trkpt lat="47.66687" lon="6.70314">
        <ele>392</ele>
        <time>2026-08-30T09:01:36.000Z</time>
      </trkpt>
      <trkpt lat="47.66681" lon="6.70311">
        <ele>392</ele>
        <time>2026-08-30T09:01:38.000Z</time>
      </trkpt>
      <trkpt lat="47.66675" lon="6.70307">
        <ele>392</ele>
        <time>2026-08-30T09:01:40.000Z</time>
      </trkpt>
      <trkpt lat="47.6667" lon="6.70303">
        <ele>392</ele>
        <time>2026-08-30T09:01:42.000Z</time>
      </trkpt>
      <trkpt lat="47.66666" lon="6.70297">
        <ele>392.2</ele>
        <time>2026-08-30T09:01:44.000Z</time>
      </trkpt>
      <trkpt lat="47.66662" lon="6.70292">
        <ele>392.4</ele>
        <time>2026-08-30T09:01:46.000Z</time>
      </trkpt>
      <trkpt lat="47.66658" lon="6.70286">
        <ele>392.4</ele>
        <time>2026-08-30T09:01:48.000Z</time>
      </trkpt>
      <trkpt lat="47.66654" lon="6.70281">
        <ele>392.6</ele>
        <time>2026-08-30T09:01:50.000Z</time>
      </trkpt>
      <trkpt lat="47.6665" lon="6.70274">
        <ele>393</ele>
        <time>2026-08-30T09:01:52.000Z</time>
      </trkpt>
      <trkpt lat="47.66646" lon="6.70268">
        <ele>393.2</ele>
        <time>2026-08-30T09:01:54.000Z</time>
      </trkpt>
      <trkpt lat="47.66641" lon="6.70261">
        <ele>393.4</ele>
        <time>2026-08-30T09:01:56.000Z</time>
      </trkpt>
      <trkpt lat="47.66637" lon="6.70255">
        <ele>393.6</ele>
        <time>2026-08-30T09:01:58.000Z</time>
      </trkpt>
      <trkpt lat="47.66633" lon="6.70251">
        <ele>393.8</ele>
        <time>2026-08-30T09:02:00.000Z</time>
      </trkpt>
      <trkpt lat="47.66627" lon="6.70245">
        <ele>394</ele>
        <time>2026-08-30T09:02:02.000Z</time>
      </trkpt>
      <trkpt lat="47.66622" lon="6.7024">
        <ele>394.2</ele>
        <time>2026-08-30T09:02:04.000Z</time>
      </trkpt>
      <trkpt lat="47.66618" lon="6.70235">
        <ele>394.4</ele>
        <time>2026-08-30T09:02:06.000Z</time>
      </trkpt>
      <trkpt lat="47.66613" lon="6.70231">
        <ele>394.6</ele>
        <time>2026-08-30T09:02:08.000Z</time>
      </trkpt>
      <trkpt lat="47.66608" lon="6.70226">
        <ele>395</ele>
        <time>2026-08-30T09:02:10.000Z</time>
      </trkpt>
      <trkpt lat="47.66603" lon="6.70222">
        <ele>395.2</ele>
        <time>2026-08-30T09:02:12.000Z</time>
      </trkpt>
      <trkpt lat="47.66598" lon="6.70217">
        <ele>395.4</ele>
        <time>2026-08-30T09:02:15.000Z</time>
      </trkpt>
      <trkpt lat="47.66593" lon="6.70212">
        <ele>395.8</ele>
        <time>2026-08-30T09:02:17.000Z</time>
      </trkpt>
      <trkpt lat="47.66588" lon="6.70206">
        <ele>396</ele>
        <time>2026-08-30T09:02:19.000Z</time>
      </trkpt>
      <trkpt lat="47.66584" lon="6.70201">
        <ele>396.4</ele>
        <time>2026-08-30T09:02:21.000Z</time>
      </trkpt>
      <trkpt lat="47.66581" lon="6.70195">
        <ele>396.6</ele>
        <time>2026-08-30T09:02:23.000Z</time>
      </trkpt>
      <trkpt lat="47.66577" lon="6.70191">
        <ele>397</ele>
        <time>2026-08-30T09:02:25.000Z</time>
      </trkpt>
      <trkpt lat="47.66574" lon="6.70185">
        <ele>397.4</ele>
        <time>2026-08-30T09:02:27.000Z</time>
      </trkpt>
      <trkpt lat="47.6657" lon="6.70179">
        <ele>397.8</ele>
        <time>2026-08-30T09:02:29.000Z</time>
      </trkpt>
      <trkpt lat="47.66565" lon="6.70173">
        <ele>398.4</ele>
        <time>2026-08-30T09:02:31.000Z</time>
      </trkpt>
      <trkpt lat="47.66561" lon="6.70168">
        <ele>399</ele>
        <time>2026-08-30T09:02:33.000Z</time>
      </trkpt>
      <trkpt lat="47.66558" lon="6.70164">
        <ele>399.4</ele>
        <time>2026-08-30T09:02:35.000Z</time>
      </trkpt>
      <trkpt lat="47.66554" lon="6.70159">
        <ele>400</ele>
        <time>2026-08-30T09:02:37.000Z</time>
      </trkpt>
      <trkpt lat="47.6655" lon="6.70155">
        <ele>400.6</ele>
        <time>2026-08-30T09:02:39.000Z</time>
      </trkpt>
      <trkpt lat="47.66545" lon="6.70151">
        <ele>401.2</ele>
        <time>2026-08-30T09:02:41.000Z</time>
      </trkpt>
      <trkpt lat="47.6654" lon="6.70147">
        <ele>402</ele>
        <time>2026-08-30T09:02:43.000Z</time>
      </trkpt>
      <trkpt lat="47.66535" lon="6.70143">
        <ele>402.6</ele>
        <time>2026-08-30T09:02:45.000Z</time>
      </trkpt>
      <trkpt lat="47.6653" lon="6.70137">
        <ele>403.2</ele>
        <time>2026-08-30T09:02:47.000Z</time>
      </trkpt>
      <trkpt lat="47.66525" lon="6.70133">
        <ele>403.8</ele>
        <time>2026-08-30T09:02:49.000Z</time>
      </trkpt>
      <trkpt lat="47.66522" lon="6.70128">
        <ele>404.4</ele>
        <time>2026-08-30T09:02:51.000Z</time>
      </trkpt>
      <trkpt lat="47.66518" lon="6.70124">
        <ele>405</ele>
        <time>2026-08-30T09:02:53.000Z</time>
      </trkpt>
      <trkpt lat="47.66515" lon="6.70118">
        <ele>405.6</ele>
        <time>2026-08-30T09:02:55.000Z</time>
      </trkpt>
      <trkpt lat="47.66513" lon="6.70113">
        <ele>406.2</ele>
        <time>2026-08-30T09:02:57.000Z</time>
      </trkpt>
      <trkpt lat="47.66511" lon="6.70107">
        <ele>406.8</ele>
        <time>2026-08-30T09:02:59.000Z</time>
      </trkpt>
      <trkpt lat="47.66508" lon="6.70102">
        <ele>407.4</ele>
        <time>2026-08-30T09:03:01.000Z</time>
      </trkpt>
      <trkpt lat="47.66505" lon="6.70097">
        <ele>407.8</ele>
        <time>2026-08-30T09:03:03.000Z</time>
      </trkpt>
      <trkpt lat="47.66502" lon="6.70091">
        <ele>408.2</ele>
        <time>2026-08-30T09:03:05.000Z</time>
      </trkpt>
      <trkpt lat="47.66499" lon="6.70087">
        <ele>408.8</ele>
        <time>2026-08-30T09:03:07.000Z</time>
      </trkpt>
      <trkpt lat="47.66496" lon="6.70082">
        <ele>409.4</ele>
        <time>2026-08-30T09:03:09.000Z</time>
      </trkpt>
      <trkpt lat="47.66493" lon="6.70078">
        <ele>410</ele>
        <time>2026-08-30T09:03:11.000Z</time>
      </trkpt>
      <trkpt lat="47.6649" lon="6.70072">
        <ele>410.6</ele>
        <time>2026-08-30T09:03:13.000Z</time>
      </trkpt>
      <trkpt lat="47.66487" lon="6.70067">
        <ele>411.2</ele>
        <time>2026-08-30T09:03:15.000Z</time>
      </trkpt>
      <trkpt lat="47.66485" lon="6.70062">
        <ele>411.8</ele>
        <time>2026-08-30T09:03:17.000Z</time>
      </trkpt>
      <trkpt lat="47.66483" lon="6.70057">
        <ele>412.4</ele>
        <time>2026-08-30T09:03:19.000Z</time>
      </trkpt>
      <trkpt lat="47.6648" lon="6.70052">
        <ele>413.2</ele>
        <time>2026-08-30T09:03:21.000Z</time>
      </trkpt>
      <trkpt lat="47.66478" lon="6.70048">
        <ele>413.8</ele>
        <time>2026-08-30T09:03:23.000Z</time>
      </trkpt>
      <trkpt lat="47.66475" lon="6.70043">
        <ele>414.6</ele>
        <time>2026-08-30T09:03:25.000Z</time>
      </trkpt>
      <trkpt lat="47.66473" lon="6.70037">
        <ele>415.4</ele>
        <time>2026-08-30T09:03:27.000Z</time>
      </trkpt>
      <trkpt lat="47.6647" lon="6.70032">
        <ele>416</ele>
        <time>2026-08-30T09:03:29.000Z</time>
      </trkpt>
      <trkpt lat="47.66468" lon="6.70027">
        <ele>416.6</ele>
        <time>2026-08-30T09:03:31.000Z</time>
      </trkpt>
      <trkpt lat="47.66469" lon="6.70022">
        <ele>416.8</ele>
        <time>2026-08-30T09:03:33.000Z</time>
      </trkpt>
      <trkpt lat="47.66471" lon="6.70014">
        <ele>416.8</ele>
        <time>2026-08-30T09:03:35.000Z</time>
      </trkpt>
      <trkpt lat="47.66473" lon="6.70006">
        <ele>416.8</ele>
        <time>2026-08-30T09:03:37.000Z</time>
      </trkpt>
      <trkpt lat="47.66472" lon="6.69999">
        <ele>416.6</ele>
        <time>2026-08-30T09:03:40.000Z</time>
      </trkpt>
      <trkpt lat="47.66468" lon="6.69991">
        <ele>416.4</ele>
        <time>2026-08-30T09:03:42.000Z</time>
      </trkpt>
      <trkpt lat="47.6646" lon="6.69978">
        <ele>415.6</ele>
        <time>2026-08-30T09:03:44.000Z</time>
      </trkpt>
      <trkpt lat="47.66451" lon="6.69961">
        <ele>414</ele>
        <time>2026-08-30T09:03:46.000Z</time>
      </trkpt>
      <trkpt lat="47.6644" lon="6.69939">
        <ele>412</ele>
        <time>2026-08-30T09:03:48.000Z</time>
      </trkpt>
      <trkpt lat="47.66426" lon="6.69913">
        <ele>409.8</ele>
        <time>2026-08-30T09:03:50.000Z</time>
      </trkpt>
      <trkpt lat="47.66409" lon="6.69889">
        <ele>407.4</ele>
        <time>2026-08-30T09:03:52.000Z</time>
      </trkpt>
      <trkpt lat="47.66392" lon="6.69873">
        <ele>405.2</ele>
        <time>2026-08-30T09:03:54.000Z</time>
      </trkpt>
      <trkpt lat="47.66374" lon="6.69864">
        <ele>402.8</ele>
        <time>2026-08-30T09:03:56.000Z</time>
      </trkpt>
      <trkpt lat="47.66353" lon="6.69858">
        <ele>400.4</ele>
        <time>2026-08-30T09:03:58.000Z</time>
      </trkpt>
      <trkpt lat="47.6633" lon="6.69856">
        <ele>398</ele>
        <time>2026-08-30T09:04:00.000Z</time>
      </trkpt>
      <trkpt lat="47.66308" lon="6.69859">
        <ele>395.8</ele>
        <time>2026-08-30T09:04:02.000Z</time>
      </trkpt>
      <trkpt lat="47.66289" lon="6.6986">
        <ele>393.8</ele>
        <time>2026-08-30T09:04:04.000Z</time>
      </trkpt>
      <trkpt lat="47.66276" lon="6.69852">
        <ele>392</ele>
        <time>2026-08-30T09:04:06.000Z</time>
      </trkpt>
      <trkpt lat="47.66267" lon="6.69836">
        <ele>390.8</ele>
        <time>2026-08-30T09:04:08.000Z</time>
      </trkpt>
      <trkpt lat="47.66258" lon="6.69818">
        <ele>389.8</ele>
        <time>2026-08-30T09:04:10.000Z</time>
      </trkpt>
      <trkpt lat="47.66247" lon="6.69803">
        <ele>389.2</ele>
        <time>2026-08-30T09:04:12.000Z</time>
      </trkpt>
      <trkpt lat="47.66234" lon="6.69792">
        <ele>388.8</ele>
        <time>2026-08-30T09:04:14.000Z</time>
      </trkpt>
      <trkpt lat="47.66217" lon="6.69783">
        <ele>388.4</ele>
        <time>2026-08-30T09:04:16.000Z</time>
      </trkpt>
      <trkpt lat="47.66198" lon="6.69775">
        <ele>388</ele>
        <time>2026-08-30T09:04:18.000Z</time>
      </trkpt>
      <trkpt lat="47.66182" lon="6.69769">
        <ele>387.2</ele>
        <time>2026-08-30T09:04:20.000Z</time>
      </trkpt>
      <trkpt lat="47.66167" lon="6.69763">
        <ele>386.6</ele>
        <time>2026-08-30T09:04:22.000Z</time>
      </trkpt>
      <trkpt lat="47.66153" lon="6.69756">
        <ele>386.2</ele>
        <time>2026-08-30T09:04:24.000Z</time>
      </trkpt>
      <trkpt lat="47.66139" lon="6.69749">
        <ele>385.6</ele>
        <time>2026-08-30T09:04:26.000Z</time>
      </trkpt>
      <trkpt lat="47.66125" lon="6.69742">
        <ele>385.4</ele>
        <time>2026-08-30T09:04:28.000Z</time>
      </trkpt>
      <trkpt lat="47.66111" lon="6.69736">
        <ele>385.2</ele>
        <time>2026-08-30T09:04:30.000Z</time>
      </trkpt>
      <trkpt lat="47.66098" lon="6.6973">
        <ele>384.8</ele>
        <time>2026-08-30T09:04:32.000Z</time>
      </trkpt>
      <trkpt lat="47.66085" lon="6.69724">
        <ele>384.4</ele>
        <time>2026-08-30T09:04:34.000Z</time>
      </trkpt>
      <trkpt lat="47.66073" lon="6.69718">
        <ele>384</ele>
        <time>2026-08-30T09:04:36.000Z</time>
      </trkpt>
      <trkpt lat="47.66063" lon="6.69712">
        <ele>383.8</ele>
        <time>2026-08-30T09:04:38.000Z</time>
      </trkpt>
      <trkpt lat="47.66057" lon="6.69702">
        <ele>383.6</ele>
        <time>2026-08-30T09:04:40.000Z</time>
      </trkpt>
      <trkpt lat="47.66054" lon="6.69689">
        <ele>383.6</ele>
        <time>2026-08-30T09:04:42.000Z</time>
      </trkpt>
      <trkpt lat="47.66051" lon="6.69675">
        <ele>383.6</ele>
        <time>2026-08-30T09:04:44.000Z</time>
      </trkpt>
      <trkpt lat="47.66046" lon="6.6966">
        <ele>383.6</ele>
        <time>2026-08-30T09:04:46.000Z</time>
      </trkpt>
      <trkpt lat="47.66041" lon="6.69648">
        <ele>383.8</ele>
        <time>2026-08-30T09:04:48.000Z</time>
      </trkpt>
      <trkpt lat="47.66036" lon="6.69636">
        <ele>384.2</ele>
        <time>2026-08-30T09:04:50.000Z</time>
      </trkpt>
      <trkpt lat="47.6603" lon="6.69626">
        <ele>384.6</ele>
        <time>2026-08-30T09:04:52.000Z</time>
      </trkpt>
      <trkpt lat="47.6602" lon="6.69621">
        <ele>384.6</ele>
        <time>2026-08-30T09:04:54.000Z</time>
      </trkpt>
      <trkpt lat="47.66009" lon="6.69622">
        <ele>384.4</ele>
        <time>2026-08-30T09:04:56.000Z</time>
      </trkpt>
      <trkpt lat="47.65998" lon="6.69624">
        <ele>384.2</ele>
        <time>2026-08-30T09:04:58.000Z</time>
      </trkpt>
      <trkpt lat="47.65987" lon="6.69625">
        <ele>384</ele>
        <time>2026-08-30T09:05:00.000Z</time>
      </trkpt>
      <trkpt lat="47.65976" lon="6.69625">
        <ele>384</ele>
        <time>2026-08-30T09:05:02.000Z</time>
      </trkpt>
      <trkpt lat="47.65968" lon="6.69621">
        <ele>384.4</ele>
        <time>2026-08-30T09:05:04.000Z</time>
      </trkpt>
      <trkpt lat="47.65961" lon="6.69612">
        <ele>384.2</ele>
        <time>2026-08-30T09:05:06.000Z</time>
      </trkpt>
      <trkpt lat="47.65953" lon="6.696">
        <ele>383.4</ele>
        <time>2026-08-30T09:05:08.000Z</time>
      </trkpt>
      <trkpt lat="47.65939" lon="6.69593">
        <ele>382.8</ele>
        <time>2026-08-30T09:05:10.000Z</time>
      </trkpt>
      <trkpt lat="47.65925" lon="6.69587">
        <ele>382</ele>
        <time>2026-08-30T09:05:12.000Z</time>
      </trkpt>
      <trkpt lat="47.6592" lon="6.69578">
        <ele>381.4</ele>
        <time>2026-08-30T09:05:15.000Z</time>
      </trkpt>
      <trkpt lat="47.65919" lon="6.69566">
        <ele>381.2</ele>
        <time>2026-08-30T09:05:17.000Z</time>
      </trkpt>
      <trkpt lat="47.65915" lon="6.69554">
        <ele>381.4</ele>
        <time>2026-08-30T09:05:19.000Z</time>
      </trkpt>
      <trkpt lat="47.65909" lon="6.6955">
        <ele>381.8</ele>
        <time>2026-08-30T09:05:21.000Z</time>
      </trkpt>
      <trkpt lat="47.65905" lon="6.69554">
        <ele>382.4</ele>
        <time>2026-08-30T09:05:23.000Z</time>
      </trkpt>
      <trkpt lat="47.65905" lon="6.69562">
        <ele>383.2</ele>
        <time>2026-08-30T09:05:25.000Z</time>
      </trkpt>
      <trkpt lat="47.65907" lon="6.6957">
        <ele>383.8</ele>
        <time>2026-08-30T09:05:27.000Z</time>
      </trkpt>
      <trkpt lat="47.65908" lon="6.69579">
        <ele>384.4</ele>
        <time>2026-08-30T09:05:29.000Z</time>
      </trkpt>
      <trkpt lat="47.65907" lon="6.69587">
        <ele>384.8</ele>
        <time>2026-08-30T09:05:31.000Z</time>
      </trkpt>
      <trkpt lat="47.65906" lon="6.69595">
        <ele>385.4</ele>
        <time>2026-08-30T09:05:33.000Z</time>
      </trkpt>
      <trkpt lat="47.65906" lon="6.69602">
        <ele>385.6</ele>
        <time>2026-08-30T09:05:35.000Z</time>
      </trkpt>
      <trkpt lat="47.65905" lon="6.69609">
        <ele>385.8</ele>
        <time>2026-08-30T09:05:37.000Z</time>
      </trkpt>
      <trkpt lat="47.65903" lon="6.69618">
        <ele>386.2</ele>
        <time>2026-08-30T09:05:39.000Z</time>
      </trkpt>
      <trkpt lat="47.659" lon="6.69626">
        <ele>386.2</ele>
        <time>2026-08-30T09:05:41.000Z</time>
      </trkpt>
      <trkpt lat="47.65897" lon="6.69634">
        <ele>386.4</ele>
        <time>2026-08-30T09:05:43.000Z</time>
      </trkpt>
      <trkpt lat="47.65892" lon="6.69642">
        <ele>386.6</ele>
        <time>2026-08-30T09:05:45.000Z</time>
      </trkpt>
      <trkpt lat="47.65889" lon="6.69647">
        <ele>387</ele>
        <time>2026-08-30T09:05:47.000Z</time>
      </trkpt>
      <trkpt lat="47.65885" lon="6.69652">
        <ele>387.2</ele>
        <time>2026-08-30T09:05:49.000Z</time>
      </trkpt>
      <trkpt lat="47.6588" lon="6.69655">
        <ele>387.6</ele>
        <time>2026-08-30T09:05:51.000Z</time>
      </trkpt>
      <trkpt lat="47.65875" lon="6.69659">
        <ele>388</ele>
        <time>2026-08-30T09:05:53.000Z</time>
      </trkpt>
      <trkpt lat="47.6587" lon="6.69663">
        <ele>388.4</ele>
        <time>2026-08-30T09:05:55.000Z</time>
      </trkpt>
      <trkpt lat="47.65866" lon="6.69667">
        <ele>388.8</ele>
        <time>2026-08-30T09:05:57.000Z</time>
      </trkpt>
      <trkpt lat="47.65863" lon="6.69673">
        <ele>389</ele>
        <time>2026-08-30T09:05:59.000Z</time>
      </trkpt>
      <trkpt lat="47.65859" lon="6.69679">
        <ele>389.2</ele>
        <time>2026-08-30T09:06:01.000Z</time>
      </trkpt>
      <trkpt lat="47.65854" lon="6.69686">
        <ele>389.2</ele>
        <time>2026-08-30T09:06:03.000Z</time>
      </trkpt>
      <trkpt lat="47.6585" lon="6.69691">
        <ele>389.4</ele>
        <time>2026-08-30T09:06:05.000Z</time>
      </trkpt>
      <trkpt lat="47.65846" lon="6.69698">
        <ele>389.6</ele>
        <time>2026-08-30T09:06:07.000Z</time>
      </trkpt>
      <trkpt lat="47.65842" lon="6.69706">
        <ele>390</ele>
        <time>2026-08-30T09:06:09.000Z</time>
      </trkpt>
      <trkpt lat="47.65839" lon="6.69714">
        <ele>390.2</ele>
        <time>2026-08-30T09:06:11.000Z</time>
      </trkpt>
      <trkpt lat="47.65835" lon="6.69722">
        <ele>390.2</ele>
        <time>2026-08-30T09:06:13.000Z</time>
      </trkpt>
      <trkpt lat="47.65831" lon="6.6973">
        <ele>390.4</ele>
        <time>2026-08-30T09:06:15.000Z</time>
      </trkpt>
      <trkpt lat="47.65826" lon="6.69739">
        <ele>390.2</ele>
        <time>2026-08-30T09:06:17.000Z</time>
      </trkpt>
      <trkpt lat="47.65819" lon="6.69749">
        <ele>390</ele>
        <time>2026-08-30T09:06:19.000Z</time>
      </trkpt>
      <trkpt lat="47.65812" lon="6.69758">
        <ele>389.8</ele>
        <time>2026-08-30T09:06:21.000Z</time>
      </trkpt>
      <trkpt lat="47.65804" lon="6.69768">
        <ele>389.4</ele>
        <time>2026-08-30T09:06:23.000Z</time>
      </trkpt>
      <trkpt lat="47.65795" lon="6.69776">
        <ele>389.2</ele>
        <time>2026-08-30T09:06:25.000Z</time>
      </trkpt>
      <trkpt lat="47.65786" lon="6.69783">
        <ele>389</ele>
        <time>2026-08-30T09:06:27.000Z</time>
      </trkpt>
      <trkpt lat="47.65779" lon="6.6979">
        <ele>389</ele>
        <time>2026-08-30T09:06:29.000Z</time>
      </trkpt>
      <trkpt lat="47.65773" lon="6.69795">
        <ele>389</ele>
        <time>2026-08-30T09:06:32.000Z</time>
      </trkpt>
      <trkpt lat="47.65767" lon="6.69799">
        <ele>389</ele>
        <time>2026-08-30T09:06:34.000Z</time>
      </trkpt>
      <trkpt lat="47.65758" lon="6.69805">
        <ele>388.6</ele>
        <time>2026-08-30T09:06:36.000Z</time>
      </trkpt>
      <trkpt lat="47.65752" lon="6.69815">
        <ele>388.6</ele>
        <time>2026-08-30T09:06:38.000Z</time>
      </trkpt>
      <trkpt lat="47.65747" lon="6.69826">
        <ele>388.8</ele>
        <time>2026-08-30T09:06:40.000Z</time>
      </trkpt>
      <trkpt lat="47.65742" lon="6.69837">
        <ele>389</ele>
        <time>2026-08-30T09:06:42.000Z</time>
      </trkpt>
      <trkpt lat="47.65738" lon="6.69847">
        <ele>389.2</ele>
        <time>2026-08-30T09:06:44.000Z</time>
      </trkpt>
      <trkpt lat="47.65733" lon="6.69856">
        <ele>389.4</ele>
        <time>2026-08-30T09:06:46.000Z</time>
      </trkpt>
      <trkpt lat="47.65728" lon="6.69866">
        <ele>389.4</ele>
        <time>2026-08-30T09:06:48.000Z</time>
      </trkpt>
      <trkpt lat="47.65724" lon="6.69875">
        <ele>389.4</ele>
        <time>2026-08-30T09:06:50.000Z</time>
      </trkpt>
      <trkpt lat="47.65719" lon="6.69885">
        <ele>389.4</ele>
        <time>2026-08-30T09:06:52.000Z</time>
      </trkpt>
      <trkpt lat="47.65716" lon="6.69897">
        <ele>389.4</ele>
        <time>2026-08-30T09:06:54.000Z</time>
      </trkpt>
      <trkpt lat="47.65714" lon="6.69912">
        <ele>388.8</ele>
        <time>2026-08-30T09:06:56.000Z</time>
      </trkpt>
      <trkpt lat="47.65709" lon="6.6993">
        <ele>388</ele>
        <time>2026-08-30T09:06:58.000Z</time>
      </trkpt>
      <trkpt lat="47.65698" lon="6.69948">
        <ele>387</ele>
        <time>2026-08-30T09:07:00.000Z</time>
      </trkpt>
      <trkpt lat="47.65684" lon="6.69961">
        <ele>386.2</ele>
        <time>2026-08-30T09:07:02.000Z</time>
      </trkpt>
      <trkpt lat="47.65669" lon="6.69969">
        <ele>385.2</ele>
        <time>2026-08-30T09:07:04.000Z</time>
      </trkpt>
      <trkpt lat="47.65657" lon="6.69973">
        <ele>384</ele>
        <time>2026-08-30T09:07:06.000Z</time>
      </trkpt>
      <trkpt lat="47.65648" lon="6.69975">
        <ele>382.8</ele>
        <time>2026-08-30T09:07:08.000Z</time>
      </trkpt>
      <trkpt lat="47.65635" lon="6.69986">
        <ele>381.2</ele>
        <time>2026-08-30T09:07:10.000Z</time>
      </trkpt>
      <trkpt lat="47.65624" lon="6.70005">
        <ele>379.6</ele>
        <time>2026-08-30T09:07:12.000Z</time>
      </trkpt>
      <trkpt lat="47.65615" lon="6.70023">
        <ele>378.4</ele>
        <time>2026-08-30T09:07:14.000Z</time>
      </trkpt>
      <trkpt lat="47.65613" lon="6.70042">
        <ele>377.6</ele>
        <time>2026-08-30T09:07:16.000Z</time>
      </trkpt>
      <trkpt lat="47.65617" lon="6.7006">
        <ele>377</ele>
        <time>2026-08-30T09:07:18.000Z</time>
      </trkpt>
      <trkpt lat="47.65623" lon="6.70075">
        <ele>376.6</ele>
        <time>2026-08-30T09:07:20.000Z</time>
      </trkpt>
      <trkpt lat="47.65629" lon="6.70092">
        <ele>376.6</ele>
        <time>2026-08-30T09:07:22.000Z</time>
      </trkpt>
      <trkpt lat="47.65631" lon="6.70104">
        <ele>376.8</ele>
        <time>2026-08-30T09:07:24.000Z</time>
      </trkpt>
      <trkpt lat="47.65631" lon="6.70115">
        <ele>377</ele>
        <time>2026-08-30T09:07:26.000Z</time>
      </trkpt>
      <trkpt lat="47.65629" lon="6.70124">
        <ele>377.4</ele>
        <time>2026-08-30T09:07:28.000Z</time>
      </trkpt>
      <trkpt lat="47.65628" lon="6.70133">
        <ele>377.8</ele>
        <time>2026-08-30T09:07:30.000Z</time>
      </trkpt>
      <trkpt lat="47.65628" lon="6.70143">
        <ele>378.4</ele>
        <time>2026-08-30T09:07:32.000Z</time>
      </trkpt>
      <trkpt lat="47.65628" lon="6.70153">
        <ele>378.8</ele>
        <time>2026-08-30T09:07:34.000Z</time>
      </trkpt>
      <trkpt lat="47.65629" lon="6.70165">
        <ele>379</ele>
        <time>2026-08-30T09:07:36.000Z</time>
      </trkpt>
      <trkpt lat="47.65629" lon="6.70175">
        <ele>379.2</ele>
        <time>2026-08-30T09:07:38.000Z</time>
      </trkpt>
      <trkpt lat="47.6563" lon="6.70186">
        <ele>379.2</ele>
        <time>2026-08-30T09:07:40.000Z</time>
      </trkpt>
      <trkpt lat="47.6563" lon="6.70199">
        <ele>378.8</ele>
        <time>2026-08-30T09:07:42.000Z</time>
      </trkpt>
      <trkpt lat="47.65625" lon="6.70214">
        <ele>378.6</ele>
        <time>2026-08-30T09:07:44.000Z</time>
      </trkpt>
      <trkpt lat="47.65618" lon="6.70228">
        <ele>378.2</ele>
        <time>2026-08-30T09:07:46.000Z</time>
      </trkpt>
      <trkpt lat="47.65611" lon="6.70241">
        <ele>378</ele>
        <time>2026-08-30T09:07:48.000Z</time>
      </trkpt>
      <trkpt lat="47.65605" lon="6.70254">
        <ele>378.2</ele>
        <time>2026-08-30T09:07:50.000Z</time>
      </trkpt>
      <trkpt lat="47.65599" lon="6.70266">
        <ele>378.6</ele>
        <time>2026-08-30T09:07:52.000Z</time>
      </trkpt>
      <trkpt lat="47.65594" lon="6.70275">
        <ele>379.2</ele>
        <time>2026-08-30T09:07:54.000Z</time>
      </trkpt>
      <trkpt lat="47.65589" lon="6.70283">
        <ele>379.8</ele>
        <time>2026-08-30T09:07:56.000Z</time>
      </trkpt>
      <trkpt lat="47.65585" lon="6.7029">
        <ele>380.4</ele>
        <time>2026-08-30T09:07:58.000Z</time>
      </trkpt>
      <trkpt lat="47.6558" lon="6.70297">
        <ele>380.8</ele>
        <time>2026-08-30T09:08:00.000Z</time>
      </trkpt>
      <trkpt lat="47.65573" lon="6.70303">
        <ele>381</ele>
        <time>2026-08-30T09:08:02.000Z</time>
      </trkpt>
      <trkpt lat="47.65566" lon="6.70309">
        <ele>381.2</ele>
        <time>2026-08-30T09:08:04.000Z</time>
      </trkpt>
      <trkpt lat="47.65558" lon="6.70313">
        <ele>381.6</ele>
        <time>2026-08-30T09:08:06.000Z</time>
      </trkpt>
      <trkpt lat="47.65551" lon="6.70315">
        <ele>382</ele>
        <time>2026-08-30T09:08:08.000Z</time>
      </trkpt>
      <trkpt lat="47.65544" lon="6.70316">
        <ele>382.2</ele>
        <time>2026-08-30T09:08:10.000Z</time>
      </trkpt>
      <trkpt lat="47.65537" lon="6.70319">
        <ele>382.6</ele>
        <time>2026-08-30T09:08:12.000Z</time>
      </trkpt>
      <trkpt lat="47.65531" lon="6.70323">
        <ele>383</ele>
        <time>2026-08-30T09:08:14.000Z</time>
      </trkpt>
      <trkpt lat="47.65524" lon="6.70327">
        <ele>383.2</ele>
        <time>2026-08-30T09:08:16.000Z</time>
      </trkpt>
      <trkpt lat="47.65518" lon="6.70331">
        <ele>383.4</ele>
        <time>2026-08-30T09:08:18.000Z</time>
      </trkpt>
      <trkpt lat="47.65513" lon="6.70336">
        <ele>383.4</ele>
        <time>2026-08-30T09:08:21.000Z</time>
      </trkpt>
      <trkpt lat="47.65507" lon="6.70345">
        <ele>383.2</ele>
        <time>2026-08-30T09:08:23.000Z</time>
      </trkpt>
      <trkpt lat="47.65499" lon="6.70355">
        <ele>383</ele>
        <time>2026-08-30T09:08:25.000Z</time>
      </trkpt>
      <trkpt lat="47.6549" lon="6.70364">
        <ele>382.6</ele>
        <time>2026-08-30T09:08:27.000Z</time>
      </trkpt>
      <trkpt lat="47.65482" lon="6.70377">
        <ele>382</ele>
        <time>2026-08-30T09:08:29.000Z</time>
      </trkpt>
      <trkpt lat="47.65475" lon="6.70395">
        <ele>381.4</ele>
        <time>2026-08-30T09:08:31.000Z</time>
      </trkpt>
      <trkpt lat="47.65468" lon="6.70413">
        <ele>380.8</ele>
        <time>2026-08-30T09:08:33.000Z</time>
      </trkpt>
      <trkpt lat="47.65461" lon="6.7043">
        <ele>379.8</ele>
        <time>2026-08-30T09:08:35.000Z</time>
      </trkpt>
      <trkpt lat="47.65457" lon="6.70448">
        <ele>378.8</ele>
        <time>2026-08-30T09:08:37.000Z</time>
      </trkpt>
      <trkpt lat="47.65454" lon="6.70464">
        <ele>377.6</ele>
        <time>2026-08-30T09:08:39.000Z</time>
      </trkpt>
      <trkpt lat="47.65453" lon="6.70484">
        <ele>376.8</ele>
        <time>2026-08-30T09:08:41.000Z</time>
      </trkpt>
      <trkpt lat="47.65457" lon="6.70504">
        <ele>376.2</ele>
        <time>2026-08-30T09:08:43.000Z</time>
      </trkpt>
      <trkpt lat="47.65463" lon="6.70521">
        <ele>375.6</ele>
        <time>2026-08-30T09:08:45.000Z</time>
      </trkpt>
      <trkpt lat="47.65471" lon="6.70536">
        <ele>375</ele>
        <time>2026-08-30T09:08:47.000Z</time>
      </trkpt>
      <trkpt lat="47.65479" lon="6.7055">
        <ele>374.4</ele>
        <time>2026-08-30T09:08:49.000Z</time>
      </trkpt>
      <trkpt lat="47.65488" lon="6.70564">
        <ele>374.2</ele>
        <time>2026-08-30T09:08:51.000Z</time>
      </trkpt>
      <trkpt lat="47.65496" lon="6.70578">
        <ele>374</ele>
        <time>2026-08-30T09:08:53.000Z</time>
      </trkpt>
      <trkpt lat="47.65504" lon="6.70591">
        <ele>373.8</ele>
        <time>2026-08-30T09:08:55.000Z</time>
      </trkpt>
      <trkpt lat="47.65511" lon="6.70603">
        <ele>373.6</ele>
        <time>2026-08-30T09:08:57.000Z</time>
      </trkpt>
      <trkpt lat="47.65517" lon="6.70614">
        <ele>373.4</ele>
        <time>2026-08-30T09:08:59.000Z</time>
      </trkpt>
      <trkpt lat="47.65523" lon="6.70624">
        <ele>373.2</ele>
        <time>2026-08-30T09:09:01.000Z</time>
      </trkpt>
      <trkpt lat="47.65528" lon="6.70634">
        <ele>373.2</ele>
        <time>2026-08-30T09:09:03.000Z</time>
      </trkpt>
      <trkpt lat="47.65531" lon="6.70641">
        <ele>373.2</ele>
        <time>2026-08-30T09:09:05.000Z</time>
      </trkpt>
      <trkpt lat="47.65531" lon="6.70647">
        <ele>373.2</ele>
        <time>2026-08-30T09:09:07.000Z</time>
      </trkpt>
      <trkpt lat="47.6553" lon="6.70652">
        <ele>373</ele>
        <time>2026-08-30T09:09:09.000Z</time>
      </trkpt>
      <trkpt lat="47.65529" lon="6.70653">
        <ele>373</ele>
        <time>2026-08-30T09:09:11.000Z</time>
      </trkpt>
      <trkpt lat="47.6553" lon="6.70652">
        <ele>373</ele>
        <time>2026-08-30T09:09:13.000Z</time>
      </trkpt>
      <trkpt lat="47.65531" lon="6.70652">
        <ele>373</ele>
        <time>2026-08-30T09:09:15.000Z</time>
      </trkpt>
      <trkpt lat="47.65531" lon="6.70651">
        <ele>373</ele>
        <time>2026-08-30T09:09:17.000Z</time>
      </trkpt>
      <trkpt lat="47.65532" lon="6.70651">
        <ele>373</ele>
        <time>2026-08-30T09:09:19.000Z</time>
      </trkpt>
      <trkpt lat="47.65532" lon="6.70652">
        <ele>373</ele>
        <time>2026-08-30T09:09:21.000Z</time>
      </trkpt>
      <trkpt lat="47.65532" lon="6.70652">
        <ele>373</ele>
        <time>2026-08-30T09:09:23.000Z</time>
      </trkpt>
      <trkpt lat="47.65533" lon="6.70652">
        <ele>373</ele>
        <time>2026-08-30T09:09:25.000Z</time>
      </trkpt>
      <trkpt lat="47.65533" lon="6.70652">
        <ele>373</ele>
        <time>2026-08-30T09:09:27.000Z</time>
      </trkpt>
      <trkpt lat="47.65533" lon="6.70652">
        <ele>373</ele>
        <time>2026-08-30T09:09:29.000Z</time>
      </trkpt>
      <trkpt lat="47.65533" lon="6.70652">
        <ele>373</ele>
        <time>2026-08-30T09:09:31.000Z</time>
      </trkpt>
      <trkpt lat="47.65533" lon="6.70652">
        <ele>373</ele>
        <time>2026-08-30T09:09:33.000Z</time>
      </trkpt>
      <trkpt lat="47.65533" lon="6.70652">
        <ele>373</ele>
        <time>2026-08-30T09:09:35.000Z</time>
      </trkpt>
      <trkpt lat="47.65533" lon="6.70653">
        <ele>373</ele>
        <time>2026-08-30T09:09:37.000Z</time>
      </trkpt>
      <trkpt lat="47.65534" lon="6.70653">
        <ele>373</ele>
        <time>2026-08-30T09:09:39.000Z</time>
      </trkpt>
      <trkpt lat="47.65534" lon="6.70653">
        <ele>373</ele>
        <time>2026-08-30T09:09:42.000Z</time>
      </trkpt>
      <trkpt lat="47.65534" lon="6.70653">
        <ele>373</ele>
        <time>2026-08-30T09:09:44.000Z</time>
      </trkpt>
      <trkpt lat="47.65534" lon="6.70653">
        <ele>373</ele>
        <time>2026-08-30T09:09:46.000Z</time>
      </trkpt>
      <trkpt lat="47.65534" lon="6.70654">
        <ele>373</ele>
        <time>2026-08-30T09:09:48.000Z</time>
      </trkpt>
      <trkpt lat="47.65535" lon="6.70653">
        <ele>373</ele>
        <time>2026-08-30T09:09:50.000Z</time>
      </trkpt>
      <trkpt lat="47.65536" lon="6.70649">
        <ele>373</ele>
        <time>2026-08-30T09:09:52.000Z</time>
      </trkpt>
      <trkpt lat="47.65535" lon="6.70642">
        <ele>373</ele>
        <time>2026-08-30T09:09:54.000Z</time>
      </trkpt>
      <trkpt lat="47.65533" lon="6.70635">
        <ele>373.2</ele>
        <time>2026-08-30T09:09:56.000Z</time>
      </trkpt>
      <trkpt lat="47.6553" lon="6.7063">
        <ele>373</ele>
        <time>2026-08-30T09:09:58.000Z</time>
      </trkpt>
      <trkpt lat="47.65526" lon="6.70624">
        <ele>373</ele>
        <time>2026-08-30T09:10:00.000Z</time>
      </trkpt>
      <trkpt lat="47.65523" lon="6.70619">
        <ele>373</ele>
        <time>2026-08-30T09:10:02.000Z</time>
      </trkpt>
      <trkpt lat="47.65519" lon="6.70614">
        <ele>373</ele>
        <time>2026-08-30T09:10:04.000Z</time>
      </trkpt>
      <trkpt lat="47.65517" lon="6.7061">
        <ele>373.2</ele>
        <time>2026-08-30T09:10:06.000Z</time>
      </trkpt>
      <trkpt lat="47.65515" lon="6.70606">
        <ele>373.2</ele>
        <time>2026-08-30T09:10:08.000Z</time>
      </trkpt>
      <trkpt lat="47.65511" lon="6.706">
        <ele>373.2</ele>
        <time>2026-08-30T09:10:10.000Z</time>
      </trkpt>
      <trkpt lat="47.65508" lon="6.70593">
        <ele>373.2</ele>
        <time>2026-08-30T09:10:12.000Z</time>
      </trkpt>
      <trkpt lat="47.65503" lon="6.70586">
        <ele>373.4</ele>
        <time>2026-08-30T09:10:14.000Z</time>
      </trkpt>
      <trkpt lat="47.65496" lon="6.70576">
        <ele>373.4</ele>
        <time>2026-08-30T09:10:16.000Z</time>
      </trkpt>
      <trkpt lat="47.6549" lon="6.70565">
        <ele>373.4</ele>
        <time>2026-08-30T09:10:18.000Z</time>
      </trkpt>
      <trkpt lat="47.65483" lon="6.70554">
        <ele>373.6</ele>
        <time>2026-08-30T09:10:20.000Z</time>
      </trkpt>
      <trkpt lat="47.65478" lon="6.70545">
        <ele>373.6</ele>
        <time>2026-08-30T09:10:22.000Z</time>
      </trkpt>
      <trkpt lat="47.65473" lon="6.70536">
        <ele>373.6</ele>
        <time>2026-08-30T09:10:24.000Z</time>
      </trkpt>
      <trkpt lat="47.65469" lon="6.70527">
        <ele>373.8</ele>
        <time>2026-08-30T09:10:26.000Z</time>
      </trkpt>
      <trkpt lat="47.65465" lon="6.70518">
        <ele>374</ele>
        <time>2026-08-30T09:10:28.000Z</time>
      </trkpt>
      <trkpt lat="47.65461" lon="6.70508">
        <ele>374.2</ele>
        <time>2026-08-30T09:10:30.000Z</time>
      </trkpt>
      <trkpt lat="47.65458" lon="6.70499">
        <ele>374.4</ele>
        <time>2026-08-30T09:10:32.000Z</time>
      </trkpt>
      <trkpt lat="47.65455" lon="6.70489">
        <ele>374.6</ele>
        <time>2026-08-30T09:10:34.000Z</time>
      </trkpt>
      <trkpt lat="47.65453" lon="6.70483">
        <ele>374.8</ele>
        <time>2026-08-30T09:10:36.000Z</time>
      </trkpt>
      <trkpt lat="47.65451" lon="6.70478">
        <ele>375</ele>
        <time>2026-08-30T09:10:38.000Z</time>
      </trkpt>
      <trkpt lat="47.65449" lon="6.70473">
        <ele>375.2</ele>
        <time>2026-08-30T09:10:40.000Z</time>
      </trkpt>
      <trkpt lat="47.65448" lon="6.70468">
        <ele>375.4</ele>
        <time>2026-08-30T09:10:42.000Z</time>
      </trkpt>
      <trkpt lat="47.65447" lon="6.70465">
        <ele>375.6</ele>
        <time>2026-08-30T09:10:44.000Z</time>
      </trkpt>
      <trkpt lat="47.65447" lon="6.70463">
        <ele>375.8</ele>
        <time>2026-08-30T09:10:46.000Z</time>
      </trkpt>
      <trkpt lat="47.65447" lon="6.70464">
        <ele>376</ele>
        <time>2026-08-30T09:10:48.000Z</time>
      </trkpt>
      <trkpt lat="47.65447" lon="6.70464">
        <ele>376</ele>
        <time>2026-08-30T09:10:50.000Z</time>
      </trkpt>
      <trkpt lat="47.65447" lon="6.70464">
        <ele>376</ele>
        <time>2026-08-30T09:10:52.000Z</time>
      </trkpt>
      <trkpt lat="47.65447" lon="6.70464">
        <ele>376.2</ele>
        <time>2026-08-30T09:10:54.000Z</time>
      </trkpt>
      <trkpt lat="47.65447" lon="6.70464">
        <ele>376.2</ele>
        <time>2026-08-30T09:10:56.000Z</time>
      </trkpt>
      <trkpt lat="47.65447" lon="6.70464">
        <ele>376</ele>
        <time>2026-08-30T09:10:58.000Z</time>
      </trkpt>
      <trkpt lat="47.65447" lon="6.70465">
        <ele>376</ele>
        <time>2026-08-30T09:11:00.000Z</time>
      </trkpt>
      <trkpt lat="47.65447" lon="6.70465">
        <ele>376</ele>
        <time>2026-08-30T09:11:02.000Z</time>
      </trkpt>
      <trkpt lat="47.65447" lon="6.70465">
        <ele>376</ele>
        <time>2026-08-30T09:11:04.000Z</time>
      </trkpt>
      <trkpt lat="47.65447" lon="6.70465">
        <ele>376</ele>
        <time>2026-08-30T09:11:06.000Z</time>
      </trkpt>
      <trkpt lat="47.65447" lon="6.70465">
        <ele>376</ele>
        <time>2026-08-30T09:11:08.000Z</time>
      </trkpt>
      <trkpt lat="47.65447" lon="6.70466">
        <ele>376</ele>
        <time>2026-08-30T09:11:10.000Z</time>
      </trkpt>
      <trkpt lat="47.65447" lon="6.70466">
        <ele>376</ele>
        <time>2026-08-30T09:11:12.000Z</time>
      </trkpt>
      <trkpt lat="47.65447" lon="6.70466">
        <ele>376</ele>
        <time>2026-08-30T09:11:14.000Z</time>
      </trkpt>
      <trkpt lat="47.65447" lon="6.70466">
        <ele>376</ele>
        <time>2026-08-30T09:11:16.000Z</time>
      </trkpt>
      <trkpt lat="47.65447" lon="6.70466">
        <ele>376</ele>
        <time>2026-08-30T09:11:18.000Z</time>
      </trkpt>
      <trkpt lat="47.65448" lon="6.70466">
        <ele>376</ele>
        <time>2026-08-30T09:11:20.000Z</time>
      </trkpt>
      <trkpt lat="47.65448" lon="6.70466">
        <ele>376</ele>
        <time>2026-08-30T09:11:22.000Z</time>
      </trkpt>
      <trkpt lat="47.65449" lon="6.70466">
        <ele>376</ele>
        <time>2026-08-30T09:11:24.000Z</time>
      </trkpt>
      <trkpt lat="47.65448" lon="6.70466">
        <ele>376</ele>
        <time>2026-08-30T09:11:27.000Z</time>
      </trkpt>
      <trkpt lat="47.65448" lon="6.70466">
        <ele>376</ele>
        <time>2026-08-30T09:11:29.000Z</time>
      </trkpt>
      <trkpt lat="47.65448" lon="6.70466">
        <ele>376</ele>
        <time>2026-08-30T09:11:31.000Z</time>
      </trkpt>
      <trkpt lat="47.65448" lon="6.70465">
        <ele>376</ele>
        <time>2026-08-30T09:11:33.000Z</time>
      </trkpt>
      <trkpt lat="47.65448" lon="6.70466">
        <ele>376</ele>
        <time>2026-08-30T09:11:35.000Z</time>
      </trkpt>
      <trkpt lat="47.65448" lon="6.70466">
        <ele>376</ele>
        <time>2026-08-30T09:11:37.000Z</time>
      </trkpt>
      <trkpt lat="47.65448" lon="6.70465">
        <ele>376</ele>
        <time>2026-08-30T09:11:39.000Z</time>
      </trkpt>
      <trkpt lat="47.65448" lon="6.70465">
        <ele>376</ele>
        <time>2026-08-30T09:11:41.000Z</time>
      </trkpt>
      <trkpt lat="47.65448" lon="6.70465">
        <ele>376</ele>
        <time>2026-08-30T09:11:43.000Z</time>
      </trkpt>
      <trkpt lat="47.65448" lon="6.70465">
        <ele>376</ele>
        <time>2026-08-30T09:11:45.000Z</time>
      </trkpt>
      <trkpt lat="47.65448" lon="6.70465">
        <ele>376</ele>
        <time>2026-08-30T09:11:47.000Z</time>
      </trkpt>
      <trkpt lat="47.65448" lon="6.70465">
        <ele>376</ele>
        <time>2026-08-30T09:11:49.000Z</time>
      </trkpt>
      <trkpt lat="47.65448" lon="6.70465">
        <ele>376</ele>
        <time>2026-08-30T09:11:51.000Z</time>
      </trkpt>
      <trkpt lat="47.65448" lon="6.70465">
        <ele>376</ele>
        <time>2026-08-30T09:11:53.000Z</time>
      </trkpt>
      <trkpt lat="47.65448" lon="6.70465">
        <ele>376</ele>
        <time>2026-08-30T09:11:55.000Z</time>
      </trkpt>
      <trkpt lat="47.65448" lon="6.70465">
        <ele>376</ele>
        <time>2026-08-30T09:11:57.000Z</time>
      </trkpt>
      <trkpt lat="47.65448" lon="6.70465">
        <ele>376</ele>
        <time>2026-08-30T09:11:59.000Z</time>
      </trkpt>
      <trkpt lat="47.65448" lon="6.70465">
        <ele>376</ele>
        <time>2026-08-30T09:12:01.000Z</time>
      </trkpt>
      <trkpt lat="47.65448" lon="6.70465">
        <ele>376</ele>
        <time>2026-08-30T09:12:03.000Z</time>
      </trkpt>
      <trkpt lat="47.65448" lon="6.70465">
        <ele>376</ele>
        <time>2026-08-30T09:12:05.000Z</time>
      </trkpt>
      <trkpt lat="47.65448" lon="6.70466">
        <ele>376</ele>
        <time>2026-08-30T09:12:07.000Z</time>
      </trkpt>
      <trkpt lat="47.65448" lon="6.70466">
        <ele>376</ele>
        <time>2026-08-30T09:12:09.000Z</time>
      </trkpt>
      <trkpt lat="47.65448" lon="6.70466">
        <ele>376</ele>
        <time>2026-08-30T09:12:11.000Z</time>
      </trkpt>
      <trkpt lat="47.65448" lon="6.70467">
        <ele>376</ele>
        <time>2026-08-30T09:12:13.000Z</time>
      </trkpt>
      <trkpt lat="47.65448" lon="6.70467">
        <ele>376</ele>
        <time>2026-08-30T09:12:15.000Z</time>
      </trkpt>
      <trkpt lat="47.65448" lon="6.70467">
        <ele>376</ele>
        <time>2026-08-30T09:12:17.000Z</time>
      </trkpt>
      <trkpt lat="47.65448" lon="6.70467">
        <ele>376</ele>
        <time>2026-08-30T09:12:19.000Z</time>
      </trkpt>
      <trkpt lat="47.65448" lon="6.70468">
        <ele>376</ele>
        <time>2026-08-30T09:12:21.000Z</time>
      </trkpt>
      <trkpt lat="47.65448" lon="6.70468">
        <ele>376</ele>
        <time>2026-08-30T09:12:23.000Z</time>
      </trkpt>
      <trkpt lat="47.65448" lon="6.70468">
        <ele>376</ele>
        <time>2026-08-30T09:12:25.000Z</time>
      </trkpt>
      <trkpt lat="47.65448" lon="6.70468">
        <ele>376</ele>
        <time>2026-08-30T09:12:27.000Z</time>
      </trkpt>
      <trkpt lat="47.65448" lon="6.70468">
        <ele>376</ele>
        <time>2026-08-30T09:12:29.000Z</time>
      </trkpt>
      <trkpt lat="47.65448" lon="6.70468">
        <ele>375.8</ele>
        <time>2026-08-30T09:12:31.000Z</time>
      </trkpt>
      <trkpt lat="47.65448" lon="6.70468">
        <ele>375.8</ele>
        <time>2026-08-30T09:12:33.000Z</time>
      </trkpt>
      <trkpt lat="47.65448" lon="6.70468">
        <ele>375.8</ele>
        <time>2026-08-30T09:12:35.000Z</time>
      </trkpt>
      <trkpt lat="47.65448" lon="6.70468">
        <ele>375.8</ele>
        <time>2026-08-30T09:12:37.000Z</time>
      </trkpt>
      <trkpt lat="47.65448" lon="6.70468">
        <ele>375.8</ele>
        <time>2026-08-30T09:12:39.000Z</time>
      </trkpt>
      <trkpt lat="47.65448" lon="6.70468">
        <ele>375.8</ele>
        <time>2026-08-30T09:12:41.000Z</time>
      </trkpt>
      <trkpt lat="47.65448" lon="6.70468">
        <ele>375.8</ele>
        <time>2026-08-30T09:12:43.000Z</time>
      </trkpt>
      <trkpt lat="47.65448" lon="6.70468">
        <ele>375.8</ele>
        <time>2026-08-30T09:12:45.000Z</time>
      </trkpt>
      <trkpt lat="47.65448" lon="6.70468">
        <ele>375.8</ele>
        <time>2026-08-30T09:12:47.000Z</time>
      </trkpt>
      <trkpt lat="47.65448" lon="6.70468">
        <ele>375.8</ele>
        <time>2026-08-30T09:12:49.000Z</time>
      </trkpt>
      <trkpt lat="47.65448" lon="6.70468">
        <ele>375.8</ele>
        <time>2026-08-30T09:12:51.000Z</time>
      </trkpt>
      <trkpt lat="47.65448" lon="6.70467">
        <ele>375.8</ele>
        <time>2026-08-30T09:12:53.000Z</time>
      </trkpt>
      <trkpt lat="47.65448" lon="6.70467">
        <ele>375.8</ele>
        <time>2026-08-30T09:12:55.000Z</time>
      </trkpt>
      <trkpt lat="47.65448" lon="6.70467">
        <ele>375.6</ele>
        <time>2026-08-30T09:12:57.000Z</time>
      </trkpt>
      <trkpt lat="47.65448" lon="6.70467">
        <ele>375.6</ele>
        <time>2026-08-30T09:13:00.000Z</time>
      </trkpt>
      <trkpt lat="47.65448" lon="6.70467">
        <ele>375.6</ele>
        <time>2026-08-30T09:13:02.000Z</time>
      </trkpt>
      <trkpt lat="47.65448" lon="6.70467">
        <ele>375.6</ele>
        <time>2026-08-30T09:13:04.000Z</time>
      </trkpt>
      <trkpt lat="47.65448" lon="6.70467">
        <ele>375.6</ele>
        <time>2026-08-30T09:13:06.000Z</time>
      </trkpt>
      <trkpt lat="47.65448" lon="6.70467">
        <ele>375.6</ele>
        <time>2026-08-30T09:13:08.000Z</time>
      </trkpt>
      <trkpt lat="47.65449" lon="6.70467">
        <ele>375.6</ele>
        <time>2026-08-30T09:13:10.000Z</time>
      </trkpt>
      <trkpt lat="47.65449" lon="6.70467">
        <ele>375.6</ele>
        <time>2026-08-30T09:13:12.000Z</time>
      </trkpt>
      <trkpt lat="47.65449" lon="6.70468">
        <ele>375.6</ele>
        <time>2026-08-30T09:13:14.000Z</time>
      </trkpt>
      <trkpt lat="47.65449" lon="6.70468">
        <ele>375.6</ele>
        <time>2026-08-30T09:13:16.000Z</time>
      </trkpt>
      <trkpt lat="47.65449" lon="6.70468">
        <ele>375.6</ele>
        <time>2026-08-30T09:13:18.000Z</time>
      </trkpt>
      <trkpt lat="47.65449" lon="6.70468">
        <ele>375.6</ele>
        <time>2026-08-30T09:13:20.000Z</time>
      </trkpt>
      <trkpt lat="47.6545" lon="6.70468">
        <ele>375.6</ele>
        <time>2026-08-30T09:13:22.000Z</time>
      </trkpt>
      <trkpt lat="47.6545" lon="6.70467">
        <ele>375.6</ele>
        <time>2026-08-30T09:13:24.000Z</time>
      </trkpt>
      <trkpt lat="47.6545" lon="6.70467">
        <ele>375.6</ele>
        <time>2026-08-30T09:13:26.000Z</time>
      </trkpt>
      <trkpt lat="47.6545" lon="6.70467">
        <ele>375.6</ele>
        <time>2026-08-30T09:13:28.000Z</time>
      </trkpt>
      <trkpt lat="47.6545" lon="6.70467">
        <ele>375.6</ele>
        <time>2026-08-30T09:13:30.000Z</time>
      </trkpt>
      <trkpt lat="47.65449" lon="6.70467">
        <ele>375.6</ele>
        <time>2026-08-30T09:13:32.000Z</time>
      </trkpt>
      <trkpt lat="47.65449" lon="6.70467">
        <ele>375.6</ele>
        <time>2026-08-30T09:13:34.000Z</time>
      </trkpt>
      <trkpt lat="47.6545" lon="6.70467">
        <ele>375.8</ele>
        <time>2026-08-30T09:13:36.000Z</time>
      </trkpt>
      <trkpt lat="47.6545" lon="6.70466">
        <ele>375.8</ele>
        <time>2026-08-30T09:13:38.000Z</time>
      </trkpt>
      <trkpt lat="47.6545" lon="6.70466">
        <ele>375.8</ele>
        <time>2026-08-30T09:13:40.000Z</time>
      </trkpt>
      <trkpt lat="47.6545" lon="6.70466">
        <ele>376</ele>
        <time>2026-08-30T09:13:42.000Z</time>
      </trkpt>
      <trkpt lat="47.6545" lon="6.70465">
        <ele>376</ele>
        <time>2026-08-30T09:13:44.000Z</time>
      </trkpt>
      <trkpt lat="47.6545" lon="6.70465">
        <ele>376</ele>
        <time>2026-08-30T09:13:46.000Z</time>
      </trkpt>
      <trkpt lat="47.6545" lon="6.70465">
        <ele>376</ele>
        <time>2026-08-30T09:13:48.000Z</time>
      </trkpt>
      <trkpt lat="47.6545" lon="6.70464">
        <ele>376</ele>
        <time>2026-08-30T09:13:50.000Z</time>
      </trkpt>
      <trkpt lat="47.65451" lon="6.70464">
        <ele>376</ele>
        <time>2026-08-30T09:13:52.000Z</time>
      </trkpt>
      <trkpt lat="47.6545" lon="6.70464">
        <ele>375.8</ele>
        <time>2026-08-30T09:13:54.000Z</time>
      </trkpt>
      <trkpt lat="47.65449" lon="6.70464">
        <ele>375.8</ele>
        <time>2026-08-30T09:13:56.000Z</time>
      </trkpt>
      <trkpt lat="47.65449" lon="6.70464">
        <ele>375.8</ele>
        <time>2026-08-30T09:13:58.000Z</time>
      </trkpt>
      <trkpt lat="47.65449" lon="6.70464">
        <ele>375.8</ele>
        <time>2026-08-30T09:14:00.000Z</time>
      </trkpt>
      <trkpt lat="47.65449" lon="6.70464">
        <ele>375.8</ele>
        <time>2026-08-30T09:14:02.000Z</time>
      </trkpt>
      <trkpt lat="47.6545" lon="6.70467">
        <ele>375.6</ele>
        <time>2026-08-30T09:14:04.000Z</time>
      </trkpt>
      <trkpt lat="47.65451" lon="6.70475">
        <ele>375.6</ele>
        <time>2026-08-30T09:14:06.000Z</time>
      </trkpt>
      <trkpt lat="47.65453" lon="6.70485">
        <ele>375.4</ele>
        <time>2026-08-30T09:14:08.000Z</time>
      </trkpt>
      <trkpt lat="47.65455" lon="6.70496">
        <ele>375.2</ele>
        <time>2026-08-30T09:14:10.000Z</time>
      </trkpt>
      <trkpt lat="47.65459" lon="6.70508">
        <ele>375</ele>
        <time>2026-08-30T09:14:12.000Z</time>
      </trkpt>
      <trkpt lat="47.65464" lon="6.70521">
        <ele>374.6</ele>
        <time>2026-08-30T09:14:14.000Z</time>
      </trkpt>
      <trkpt lat="47.6547" lon="6.70533">
        <ele>374.4</ele>
        <time>2026-08-30T09:14:16.000Z</time>
      </trkpt>
      <trkpt lat="47.65476" lon="6.70544">
        <ele>374</ele>
        <time>2026-08-30T09:14:18.000Z</time>
      </trkpt>
      <trkpt lat="47.65482" lon="6.70554">
        <ele>373.8</ele>
        <time>2026-08-30T09:14:20.000Z</time>
      </trkpt>
      <trkpt lat="47.65488" lon="6.70563">
        <ele>373.6</ele>
        <time>2026-08-30T09:14:22.000Z</time>
      </trkpt>
      <trkpt lat="47.65494" lon="6.70571">
        <ele>373.6</ele>
        <time>2026-08-30T09:14:24.000Z</time>
      </trkpt>
      <trkpt lat="47.655" lon="6.7058">
        <ele>373.4</ele>
        <time>2026-08-30T09:14:26.000Z</time>
      </trkpt>
      <trkpt lat="47.65506" lon="6.7059">
        <ele>373.4</ele>
        <time>2026-08-30T09:14:28.000Z</time>
      </trkpt>
      <trkpt lat="47.65513" lon="6.706">
        <ele>373.2</ele>
        <time>2026-08-30T09:14:30.000Z</time>
      </trkpt>
      <trkpt lat="47.65518" lon="6.70611">
        <ele>373.2</ele>
        <time>2026-08-30T09:14:32.000Z</time>
      </trkpt>
      <trkpt lat="47.65524" lon="6.70621">
        <ele>373</ele>
        <time>2026-08-30T09:14:34.000Z</time>
      </trkpt>
      <trkpt lat="47.65529" lon="6.70631">
        <ele>373</ele>
        <time>2026-08-30T09:14:36.000Z</time>
      </trkpt>
      <trkpt lat="47.65533" lon="6.70641">
        <ele>373</ele>
        <time>2026-08-30T09:14:39.000Z</time>
      </trkpt>
      <trkpt lat="47.65532" lon="6.70652">
        <ele>373</ele>
        <time>2026-08-30T09:14:41.000Z</time>
      </trkpt>
      <trkpt lat="47.65527" lon="6.70663">
        <ele>373</ele>
        <time>2026-08-30T09:14:43.000Z</time>
      </trkpt>
      <trkpt lat="47.65522" lon="6.70676">
        <ele>373</ele>
        <time>2026-08-30T09:14:45.000Z</time>
      </trkpt>
      <trkpt lat="47.65519" lon="6.70689">
        <ele>373</ele>
        <time>2026-08-30T09:14:47.000Z</time>
      </trkpt>
      <trkpt lat="47.65515" lon="6.70702">
        <ele>373.2</ele>
        <time>2026-08-30T09:14:49.000Z</time>
      </trkpt>
      <trkpt lat="47.65513" lon="6.70716">
        <ele>373</ele>
        <time>2026-08-30T09:14:51.000Z</time>
      </trkpt>
      <trkpt lat="47.65511" lon="6.7073">
        <ele>373</ele>
        <time>2026-08-30T09:14:53.000Z</time>
      </trkpt>
      <trkpt lat="47.6551" lon="6.70744">
        <ele>372.8</ele>
        <time>2026-08-30T09:14:55.000Z</time>
      </trkpt>
      <trkpt lat="47.65509" lon="6.70757">
        <ele>372.8</ele>
        <time>2026-08-30T09:14:57.000Z</time>
      </trkpt>
      <trkpt lat="47.65509" lon="6.7077">
        <ele>372.6</ele>
        <time>2026-08-30T09:14:59.000Z</time>
      </trkpt>
      <trkpt lat="47.65508" lon="6.70782">
        <ele>372.6</ele>
        <time>2026-08-30T09:15:01.000Z</time>
      </trkpt>
      <trkpt lat="47.65505" lon="6.70793">
        <ele>372.6</ele>
        <time>2026-08-30T09:15:03.000Z</time>
      </trkpt>
      <trkpt lat="47.655" lon="6.70804">
        <ele>372.4</ele>
        <time>2026-08-30T09:15:05.000Z</time>
      </trkpt>
      <trkpt lat="47.65494" lon="6.70815">
        <ele>372.2</ele>
        <time>2026-08-30T09:15:07.000Z</time>
      </trkpt>
      <trkpt lat="47.65489" lon="6.70826">
        <ele>372.2</ele>
        <time>2026-08-30T09:15:09.000Z</time>
      </trkpt>
      <trkpt lat="47.65484" lon="6.70838">
        <ele>372.2</ele>
        <time>2026-08-30T09:15:11.000Z</time>
      </trkpt>
      <trkpt lat="47.65479" lon="6.70849">
        <ele>372.4</ele>
        <time>2026-08-30T09:15:13.000Z</time>
      </trkpt>
      <trkpt lat="47.65474" lon="6.70859">
        <ele>372.6</ele>
        <time>2026-08-30T09:15:15.000Z</time>
      </trkpt>
      <trkpt lat="47.6547" lon="6.7087">
        <ele>372.8</ele>
        <time>2026-08-30T09:15:17.000Z</time>
      </trkpt>
      <trkpt lat="47.65465" lon="6.70885">
        <ele>372.8</ele>
        <time>2026-08-30T09:15:19.000Z</time>
      </trkpt>
      <trkpt lat="47.6546" lon="6.709">
        <ele>372.8</ele>
        <time>2026-08-30T09:15:21.000Z</time>
      </trkpt>
      <trkpt lat="47.65456" lon="6.70913">
        <ele>372.8</ele>
        <time>2026-08-30T09:15:23.000Z</time>
      </trkpt>
      <trkpt lat="47.65452" lon="6.70925">
        <ele>372.8</ele>
        <time>2026-08-30T09:15:25.000Z</time>
      </trkpt>
      <trkpt lat="47.65448" lon="6.70938">
        <ele>372.8</ele>
        <time>2026-08-30T09:15:27.000Z</time>
      </trkpt>
      <trkpt lat="47.65444" lon="6.7095">
        <ele>372.8</ele>
        <time>2026-08-30T09:15:29.000Z</time>
      </trkpt>
      <trkpt lat="47.65441" lon="6.70963">
        <ele>373</ele>
        <time>2026-08-30T09:15:31.000Z</time>
      </trkpt>
      <trkpt lat="47.65438" lon="6.70976">
        <ele>373.2</ele>
        <time>2026-08-30T09:15:33.000Z</time>
      </trkpt>
      <trkpt lat="47.65436" lon="6.70989">
        <ele>373.2</ele>
        <time>2026-08-30T09:15:35.000Z</time>
      </trkpt>
      <trkpt lat="47.65435" lon="6.71003">
        <ele>373.2</ele>
        <time>2026-08-30T09:15:37.000Z</time>
      </trkpt>
      <trkpt lat="47.65435" lon="6.71017">
        <ele>373.2</ele>
        <time>2026-08-30T09:15:39.000Z</time>
      </trkpt>
      <trkpt lat="47.65435" lon="6.71031">
        <ele>373.2</ele>
        <time>2026-08-30T09:15:41.000Z</time>
      </trkpt>
      <trkpt lat="47.65432" lon="6.71047">
        <ele>373</ele>
        <time>2026-08-30T09:15:43.000Z</time>
      </trkpt>
      <trkpt lat="47.6543" lon="6.71062">
        <ele>373</ele>
        <time>2026-08-30T09:15:45.000Z</time>
      </trkpt>
      <trkpt lat="47.65427" lon="6.71078">
        <ele>373</ele>
        <time>2026-08-30T09:15:47.000Z</time>
      </trkpt>
      <trkpt lat="47.65423" lon="6.71091">
        <ele>373.4</ele>
        <time>2026-08-30T09:15:49.000Z</time>
      </trkpt>
      <trkpt lat="47.65416" lon="6.711">
        <ele>373.4</ele>
        <time>2026-08-30T09:15:51.000Z</time>
      </trkpt>
      <trkpt lat="47.65408" lon="6.71108">
        <ele>373.4</ele>
        <time>2026-08-30T09:15:53.000Z</time>
      </trkpt>
      <trkpt lat="47.65399" lon="6.71116">
        <ele>373.4</ele>
        <time>2026-08-30T09:15:55.000Z</time>
      </trkpt>
      <trkpt lat="47.6539" lon="6.71123">
        <ele>373.4</ele>
        <time>2026-08-30T09:15:57.000Z</time>
      </trkpt>
      <trkpt lat="47.65381" lon="6.71129">
        <ele>373.6</ele>
        <time>2026-08-30T09:15:59.000Z</time>
      </trkpt>
      <trkpt lat="47.65373" lon="6.71136">
        <ele>373.6</ele>
        <time>2026-08-30T09:16:01.000Z</time>
      </trkpt>
      <trkpt lat="47.65366" lon="6.71144">
        <ele>373.8</ele>
        <time>2026-08-30T09:16:03.000Z</time>
      </trkpt>
      <trkpt lat="47.65361" lon="6.71154">
        <ele>374.2</ele>
        <time>2026-08-30T09:16:05.000Z</time>
      </trkpt>
      <trkpt lat="47.65356" lon="6.71166">
        <ele>374.4</ele>
        <time>2026-08-30T09:16:07.000Z</time>
      </trkpt>
      <trkpt lat="47.65351" lon="6.71178">
        <ele>374.8</ele>
        <time>2026-08-30T09:16:09.000Z</time>
      </trkpt>
      <trkpt lat="47.65347" lon="6.71189">
        <ele>375.2</ele>
        <time>2026-08-30T09:16:11.000Z</time>
      </trkpt>
      <trkpt lat="47.65343" lon="6.712">
        <ele>375.4</ele>
        <time>2026-08-30T09:16:13.000Z</time>
      </trkpt>
      <trkpt lat="47.6534" lon="6.71212">
        <ele>375.8</ele>
        <time>2026-08-30T09:16:15.000Z</time>
      </trkpt>
      <trkpt lat="47.65338" lon="6.71225">
        <ele>376</ele>
        <time>2026-08-30T09:16:17.000Z</time>
      </trkpt>
      <trkpt lat="47.65338" lon="6.71238">
        <ele>376.2</ele>
        <time>2026-08-30T09:16:20.000Z</time>
      </trkpt>
      <trkpt lat="47.65338" lon="6.71251">
        <ele>376.4</ele>
        <time>2026-08-30T09:16:22.000Z</time>
      </trkpt>
      <trkpt lat="47.65339" lon="6.71264">
        <ele>376.8</ele>
        <time>2026-08-30T09:16:24.000Z</time>
      </trkpt>
      <trkpt lat="47.65341" lon="6.71277">
        <ele>376.8</ele>
        <time>2026-08-30T09:16:26.000Z</time>
      </trkpt>
      <trkpt lat="47.65343" lon="6.71292">
        <ele>376.6</ele>
        <time>2026-08-30T09:16:28.000Z</time>
      </trkpt>
      <trkpt lat="47.65345" lon="6.71308">
        <ele>376</ele>
        <time>2026-08-30T09:16:30.000Z</time>
      </trkpt>
      <trkpt lat="47.65348" lon="6.71325">
        <ele>375.6</ele>
        <time>2026-08-30T09:16:32.000Z</time>
      </trkpt>
      <trkpt lat="47.65348" lon="6.71341">
        <ele>375.6</ele>
        <time>2026-08-30T09:16:34.000Z</time>
      </trkpt>
      <trkpt lat="47.65347" lon="6.71354">
        <ele>375.6</ele>
        <time>2026-08-30T09:16:36.000Z</time>
      </trkpt>
      <trkpt lat="47.65344" lon="6.71365">
        <ele>375.8</ele>
        <time>2026-08-30T09:16:38.000Z</time>
      </trkpt>
      <trkpt lat="47.6534" lon="6.71374">
        <ele>376.2</ele>
        <time>2026-08-30T09:16:40.000Z</time>
      </trkpt>
      <trkpt lat="47.65335" lon="6.71382">
        <ele>376.4</ele>
        <time>2026-08-30T09:16:42.000Z</time>
      </trkpt>
      <trkpt lat="47.65331" lon="6.71389">
        <ele>376.8</ele>
        <time>2026-08-30T09:16:44.000Z</time>
      </trkpt>
      <trkpt lat="47.65327" lon="6.71393">
        <ele>377.4</ele>
        <time>2026-08-30T09:16:46.000Z</time>
      </trkpt>
      <trkpt lat="47.65324" lon="6.71398">
        <ele>377.8</ele>
        <time>2026-08-30T09:16:48.000Z</time>
      </trkpt>
      <trkpt lat="47.65319" lon="6.71402">
        <ele>378.2</ele>
        <time>2026-08-30T09:16:50.000Z</time>
      </trkpt>
      <trkpt lat="47.65315" lon="6.71406">
        <ele>378.6</ele>
        <time>2026-08-30T09:16:52.000Z</time>
      </trkpt>
      <trkpt lat="47.6531" lon="6.71409">
        <ele>379.2</ele>
        <time>2026-08-30T09:16:54.000Z</time>
      </trkpt>
      <trkpt lat="47.65305" lon="6.71412">
        <ele>379.6</ele>
        <time>2026-08-30T09:16:56.000Z</time>
      </trkpt>
      <trkpt lat="47.653" lon="6.71415">
        <ele>380.2</ele>
        <time>2026-08-30T09:16:58.000Z</time>
      </trkpt>
      <trkpt lat="47.65296" lon="6.7142">
        <ele>380.6</ele>
        <time>2026-08-30T09:17:00.000Z</time>
      </trkpt>
      <trkpt lat="47.65292" lon="6.71425">
        <ele>381</ele>
        <time>2026-08-30T09:17:02.000Z</time>
      </trkpt>
      <trkpt lat="47.65289" lon="6.71431">
        <ele>381.4</ele>
        <time>2026-08-30T09:17:04.000Z</time>
      </trkpt>
      <trkpt lat="47.65286" lon="6.71437">
        <ele>382</ele>
        <time>2026-08-30T09:17:06.000Z</time>
      </trkpt>
      <trkpt lat="47.65282" lon="6.71443">
        <ele>382.4</ele>
        <time>2026-08-30T09:17:08.000Z</time>
      </trkpt>
      <trkpt lat="47.65279" lon="6.71449">
        <ele>383</ele>
        <time>2026-08-30T09:17:10.000Z</time>
      </trkpt>
      <trkpt lat="47.65274" lon="6.71457">
        <ele>383.4</ele>
        <time>2026-08-30T09:17:12.000Z</time>
      </trkpt>
      <trkpt lat="47.65271" lon="6.71463">
        <ele>384</ele>
        <time>2026-08-30T09:17:14.000Z</time>
      </trkpt>
      <trkpt lat="47.65268" lon="6.7147">
        <ele>384.4</ele>
        <time>2026-08-30T09:17:16.000Z</time>
      </trkpt>
      <trkpt lat="47.65265" lon="6.71476">
        <ele>385</ele>
        <time>2026-08-30T09:17:18.000Z</time>
      </trkpt>
      <trkpt lat="47.65262" lon="6.71482">
        <ele>385.4</ele>
        <time>2026-08-30T09:17:20.000Z</time>
      </trkpt>
      <trkpt lat="47.65258" lon="6.71486">
        <ele>385.8</ele>
        <time>2026-08-30T09:17:22.000Z</time>
      </trkpt>
      <trkpt lat="47.65254" lon="6.7149">
        <ele>386.4</ele>
        <time>2026-08-30T09:17:24.000Z</time>
      </trkpt>
      <trkpt lat="47.6525" lon="6.71494">
        <ele>387</ele>
        <time>2026-08-30T09:17:26.000Z</time>
      </trkpt>
      <trkpt lat="47.65245" lon="6.71497">
        <ele>387.6</ele>
        <time>2026-08-30T09:17:28.000Z</time>
      </trkpt>
      <trkpt lat="47.65241" lon="6.715">
        <ele>388.2</ele>
        <time>2026-08-30T09:17:30.000Z</time>
      </trkpt>
      <trkpt lat="47.65236" lon="6.71502">
        <ele>388.8</ele>
        <time>2026-08-30T09:17:32.000Z</time>
      </trkpt>
      <trkpt lat="47.65232" lon="6.71505">
        <ele>389.4</ele>
        <time>2026-08-30T09:17:34.000Z</time>
      </trkpt>
      <trkpt lat="47.65227" lon="6.71507">
        <ele>390</ele>
        <time>2026-08-30T09:17:36.000Z</time>
      </trkpt>
      <trkpt lat="47.65222" lon="6.7151">
        <ele>390.6</ele>
        <time>2026-08-30T09:17:38.000Z</time>
      </trkpt>
      <trkpt lat="47.65217" lon="6.71513">
        <ele>391</ele>
        <time>2026-08-30T09:17:40.000Z</time>
      </trkpt>
      <trkpt lat="47.65213" lon="6.71517">
        <ele>391.4</ele>
        <time>2026-08-30T09:17:42.000Z</time>
      </trkpt>
      <trkpt lat="47.65208" lon="6.71521">
        <ele>391.8</ele>
        <time>2026-08-30T09:17:44.000Z</time>
      </trkpt>
      <trkpt lat="47.65204" lon="6.71526">
        <ele>392.2</ele>
        <time>2026-08-30T09:17:46.000Z</time>
      </trkpt>
      <trkpt lat="47.652" lon="6.7153">
        <ele>392.6</ele>
        <time>2026-08-30T09:17:48.000Z</time>
      </trkpt>
      <trkpt lat="47.65197" lon="6.71535">
        <ele>393</ele>
        <time>2026-08-30T09:17:51.000Z</time>
      </trkpt>
      <trkpt lat="47.65193" lon="6.7154">
        <ele>393.4</ele>
        <time>2026-08-30T09:17:53.000Z</time>
      </trkpt>
      <trkpt lat="47.65189" lon="6.71546">
        <ele>393.8</ele>
        <time>2026-08-30T09:17:55.000Z</time>
      </trkpt>
      <trkpt lat="47.65186" lon="6.71551">
        <ele>394.2</ele>
        <time>2026-08-30T09:17:57.000Z</time>
      </trkpt>
      <trkpt lat="47.65182" lon="6.71556">
        <ele>394.6</ele>
        <time>2026-08-30T09:17:59.000Z</time>
      </trkpt>
      <trkpt lat="47.65179" lon="6.71561">
        <ele>395</ele>
        <time>2026-08-30T09:18:01.000Z</time>
      </trkpt>
      <trkpt lat="47.65175" lon="6.71566">
        <ele>395.4</ele>
        <time>2026-08-30T09:18:03.000Z</time>
      </trkpt>
      <trkpt lat="47.65171" lon="6.71571">
        <ele>395.8</ele>
        <time>2026-08-30T09:18:05.000Z</time>
      </trkpt>
      <trkpt lat="47.65167" lon="6.71575">
        <ele>396</ele>
        <time>2026-08-30T09:18:07.000Z</time>
      </trkpt>
      <trkpt lat="47.65163" lon="6.7158">
        <ele>396.2</ele>
        <time>2026-08-30T09:18:09.000Z</time>
      </trkpt>
      <trkpt lat="47.65162" lon="6.71585">
        <ele>396.6</ele>
        <time>2026-08-30T09:18:11.000Z</time>
      </trkpt>
      <trkpt lat="47.65164" lon="6.71587">
        <ele>397</ele>
        <time>2026-08-30T09:18:13.000Z</time>
      </trkpt>
      <trkpt lat="47.65169" lon="6.71584">
        <ele>397.4</ele>
        <time>2026-08-30T09:18:15.000Z</time>
      </trkpt>
      <trkpt lat="47.65175" lon="6.7158">
        <ele>397.6</ele>
        <time>2026-08-30T09:18:17.000Z</time>
      </trkpt>
      <trkpt lat="47.65181" lon="6.71578">
        <ele>397.8</ele>
        <time>2026-08-30T09:18:19.000Z</time>
      </trkpt>
      <trkpt lat="47.65187" lon="6.71576">
        <ele>397.8</ele>
        <time>2026-08-30T09:18:21.000Z</time>
      </trkpt>
      <trkpt lat="47.65193" lon="6.71575">
        <ele>397.8</ele>
        <time>2026-08-30T09:18:23.000Z</time>
      </trkpt>
      <trkpt lat="47.65198" lon="6.71574">
        <ele>398</ele>
        <time>2026-08-30T09:18:25.000Z</time>
      </trkpt>
      <trkpt lat="47.65203" lon="6.71573">
        <ele>398</ele>
        <time>2026-08-30T09:18:27.000Z</time>
      </trkpt>
      <trkpt lat="47.65208" lon="6.71571">
        <ele>397.8</ele>
        <time>2026-08-30T09:18:29.000Z</time>
      </trkpt>
      <trkpt lat="47.65214" lon="6.71569">
        <ele>397.8</ele>
        <time>2026-08-30T09:18:31.000Z</time>
      </trkpt>
      <trkpt lat="47.65219" lon="6.71569">
        <ele>397.6</ele>
        <time>2026-08-30T09:18:33.000Z</time>
      </trkpt>
      <trkpt lat="47.65227" lon="6.71569">
        <ele>397.4</ele>
        <time>2026-08-30T09:18:35.000Z</time>
      </trkpt>
      <trkpt lat="47.65236" lon="6.71568">
        <ele>397.2</ele>
        <time>2026-08-30T09:18:37.000Z</time>
      </trkpt>
      <trkpt lat="47.65246" lon="6.71568">
        <ele>396.8</ele>
        <time>2026-08-30T09:18:39.000Z</time>
      </trkpt>
      <trkpt lat="47.65257" lon="6.71568">
        <ele>396.6</ele>
        <time>2026-08-30T09:18:41.000Z</time>
      </trkpt>
      <trkpt lat="47.65269" lon="6.71569">
        <ele>396.2</ele>
        <time>2026-08-30T09:18:43.000Z</time>
      </trkpt>
      <trkpt lat="47.6528" lon="6.71571">
        <ele>396</ele>
        <time>2026-08-30T09:18:45.000Z</time>
      </trkpt>
      <trkpt lat="47.65291" lon="6.71573">
        <ele>395.4</ele>
        <time>2026-08-30T09:18:47.000Z</time>
      </trkpt>
      <trkpt lat="47.65303" lon="6.71575">
        <ele>394.8</ele>
        <time>2026-08-30T09:18:49.000Z</time>
      </trkpt>
      <trkpt lat="47.65315" lon="6.71576">
        <ele>394</ele>
        <time>2026-08-30T09:18:51.000Z</time>
      </trkpt>
      <trkpt lat="47.65329" lon="6.71579">
        <ele>393.6</ele>
        <time>2026-08-30T09:18:53.000Z</time>
      </trkpt>
      <trkpt lat="47.65344" lon="6.71581">
        <ele>393</ele>
        <time>2026-08-30T09:18:55.000Z</time>
      </trkpt>
      <trkpt lat="47.6536" lon="6.71582">
        <ele>392.4</ele>
        <time>2026-08-30T09:18:57.000Z</time>
      </trkpt>
      <trkpt lat="47.65375" lon="6.71583">
        <ele>391.6</ele>
        <time>2026-08-30T09:18:59.000Z</time>
      </trkpt>
      <trkpt lat="47.6539" lon="6.71586">
        <ele>391</ele>
        <time>2026-08-30T09:19:01.000Z</time>
      </trkpt>
      <trkpt lat="47.65402" lon="6.71588">
        <ele>390.4</ele>
        <time>2026-08-30T09:19:03.000Z</time>
      </trkpt>
      <trkpt lat="47.65415" lon="6.71589">
        <ele>390</ele>
        <time>2026-08-30T09:19:05.000Z</time>
      </trkpt>
      <trkpt lat="47.65427" lon="6.71592">
        <ele>389.6</ele>
        <time>2026-08-30T09:19:07.000Z</time>
      </trkpt>
      <trkpt lat="47.65439" lon="6.71595">
        <ele>389.2</ele>
        <time>2026-08-30T09:19:09.000Z</time>
      </trkpt>
      <trkpt lat="47.65452" lon="6.71599">
        <ele>388.8</ele>
        <time>2026-08-30T09:19:11.000Z</time>
      </trkpt>
      <trkpt lat="47.65466" lon="6.71602">
        <ele>388.4</ele>
        <time>2026-08-30T09:19:13.000Z</time>
      </trkpt>
      <trkpt lat="47.65479" lon="6.71604">
        <ele>388</ele>
        <time>2026-08-30T09:19:15.000Z</time>
      </trkpt>
      <trkpt lat="47.65491" lon="6.71608">
        <ele>387.6</ele>
        <time>2026-08-30T09:19:17.000Z</time>
      </trkpt>
      <trkpt lat="47.65504" lon="6.71612">
        <ele>387.2</ele>
        <time>2026-08-30T09:19:19.000Z</time>
      </trkpt>
      <trkpt lat="47.65517" lon="6.71617">
        <ele>387.2</ele>
        <time>2026-08-30T09:19:21.000Z</time>
      </trkpt>
      <trkpt lat="47.65529" lon="6.71624">
        <ele>387.2</ele>
        <time>2026-08-30T09:19:23.000Z</time>
      </trkpt>
      <trkpt lat="47.65541" lon="6.7163">
        <ele>387.6</ele>
        <time>2026-08-30T09:19:25.000Z</time>
      </trkpt>
      <trkpt lat="47.65552" lon="6.7163">
        <ele>388.2</ele>
        <time>2026-08-30T09:19:27.000Z</time>
      </trkpt>
      <trkpt lat="47.65562" lon="6.71623">
        <ele>388.8</ele>
        <time>2026-08-30T09:19:29.000Z</time>
      </trkpt>
      <trkpt lat="47.65569" lon="6.71613">
        <ele>389.6</ele>
        <time>2026-08-30T09:19:31.000Z</time>
      </trkpt>
      <trkpt lat="47.65575" lon="6.71601">
        <ele>390.4</ele>
        <time>2026-08-30T09:19:33.000Z</time>
      </trkpt>
      <trkpt lat="47.65579" lon="6.71591">
        <ele>391</ele>
        <time>2026-08-30T09:19:35.000Z</time>
      </trkpt>
      <trkpt lat="47.65582" lon="6.71584">
        <ele>391.6</ele>
        <time>2026-08-30T09:19:37.000Z</time>
      </trkpt>
      <trkpt lat="47.65584" lon="6.71578">
        <ele>392.2</ele>
        <time>2026-08-30T09:19:40.000Z</time>
      </trkpt>
      <trkpt lat="47.65586" lon="6.71572">
        <ele>392.6</ele>
        <time>2026-08-30T09:19:42.000Z</time>
      </trkpt>
      <trkpt lat="47.65588" lon="6.71567">
        <ele>393</ele>
        <time>2026-08-30T09:19:44.000Z</time>
      </trkpt>
      <trkpt lat="47.6559" lon="6.71561">
        <ele>393.4</ele>
        <time>2026-08-30T09:19:46.000Z</time>
      </trkpt>
      <trkpt lat="47.65592" lon="6.71556">
        <ele>393.8</ele>
        <time>2026-08-30T09:19:48.000Z</time>
      </trkpt>
      <trkpt lat="47.65592" lon="6.7155">
        <ele>394.2</ele>
        <time>2026-08-30T09:19:50.000Z</time>
      </trkpt>
      <trkpt lat="47.65592" lon="6.71544">
        <ele>394.6</ele>
        <time>2026-08-30T09:19:52.000Z</time>
      </trkpt>
      <trkpt lat="47.65592" lon="6.71538">
        <ele>395</ele>
        <time>2026-08-30T09:19:54.000Z</time>
      </trkpt>
      <trkpt lat="47.65592" lon="6.71533">
        <ele>395.2</ele>
        <time>2026-08-30T09:19:56.000Z</time>
      </trkpt>
      <trkpt lat="47.65593" lon="6.71528">
        <ele>395.8</ele>
        <time>2026-08-30T09:19:58.000Z</time>
      </trkpt>
      <trkpt lat="47.65592" lon="6.71524">
        <ele>396.2</ele>
        <time>2026-08-30T09:20:00.000Z</time>
      </trkpt>
      <trkpt lat="47.65592" lon="6.71519">
        <ele>396.6</ele>
        <time>2026-08-30T09:20:02.000Z</time>
      </trkpt>
      <trkpt lat="47.65591" lon="6.71514">
        <ele>397</ele>
        <time>2026-08-30T09:20:04.000Z</time>
      </trkpt>
      <trkpt lat="47.65591" lon="6.71509">
        <ele>397.4</ele>
        <time>2026-08-30T09:20:06.000Z</time>
      </trkpt>
      <trkpt lat="47.65591" lon="6.71505">
        <ele>398</ele>
        <time>2026-08-30T09:20:08.000Z</time>
      </trkpt>
      <trkpt lat="47.6559" lon="6.71501">
        <ele>398.4</ele>
        <time>2026-08-30T09:20:10.000Z</time>
      </trkpt>
      <trkpt lat="47.6559" lon="6.71496">
        <ele>399</ele>
        <time>2026-08-30T09:20:12.000Z</time>
      </trkpt>
      <trkpt lat="47.6559" lon="6.71491">
        <ele>399.4</ele>
        <time>2026-08-30T09:20:14.000Z</time>
      </trkpt>
      <trkpt lat="47.6559" lon="6.71486">
        <ele>400</ele>
        <time>2026-08-30T09:20:16.000Z</time>
      </trkpt>
      <trkpt lat="47.6559" lon="6.71482">
        <ele>400.4</ele>
        <time>2026-08-30T09:20:18.000Z</time>
      </trkpt>
      <trkpt lat="47.65591" lon="6.71478">
        <ele>400.8</ele>
        <time>2026-08-30T09:20:20.000Z</time>
      </trkpt>
      <trkpt lat="47.65591" lon="6.71474">
        <ele>401.2</ele>
        <time>2026-08-30T09:20:22.000Z</time>
      </trkpt>
      <trkpt lat="47.65592" lon="6.7147">
        <ele>401.6</ele>
        <time>2026-08-30T09:20:24.000Z</time>
      </trkpt>
      <trkpt lat="47.65592" lon="6.71467">
        <ele>402</ele>
        <time>2026-08-30T09:20:26.000Z</time>
      </trkpt>
      <trkpt lat="47.65593" lon="6.71463">
        <ele>402.4</ele>
        <time>2026-08-30T09:20:28.000Z</time>
      </trkpt>
      <trkpt lat="47.65595" lon="6.7146">
        <ele>402.6</ele>
        <time>2026-08-30T09:20:30.000Z</time>
      </trkpt>
      <trkpt lat="47.65596" lon="6.71455">
        <ele>403</ele>
        <time>2026-08-30T09:20:32.000Z</time>
      </trkpt>
      <trkpt lat="47.65598" lon="6.7145">
        <ele>403.4</ele>
        <time>2026-08-30T09:20:34.000Z</time>
      </trkpt>
      <trkpt lat="47.656" lon="6.71446">
        <ele>403.8</ele>
        <time>2026-08-30T09:20:36.000Z</time>
      </trkpt>
      <trkpt lat="47.65602" lon="6.71443">
        <ele>404.4</ele>
        <time>2026-08-30T09:20:38.000Z</time>
      </trkpt>
      <trkpt lat="47.65604" lon="6.71441">
        <ele>404.8</ele>
        <time>2026-08-30T09:20:40.000Z</time>
      </trkpt>
      <trkpt lat="47.65606" lon="6.71439">
        <ele>405.2</ele>
        <time>2026-08-30T09:20:42.000Z</time>
      </trkpt>
      <trkpt lat="47.65609" lon="6.71437">
        <ele>405.6</ele>
        <time>2026-08-30T09:20:44.000Z</time>
      </trkpt>
      <trkpt lat="47.65612" lon="6.71436">
        <ele>406</ele>
        <time>2026-08-30T09:20:46.000Z</time>
      </trkpt>
      <trkpt lat="47.65615" lon="6.71436">
        <ele>406.2</ele>
        <time>2026-08-30T09:20:48.000Z</time>
      </trkpt>
      <trkpt lat="47.65617" lon="6.71438">
        <ele>406.4</ele>
        <time>2026-08-30T09:20:50.000Z</time>
      </trkpt>
      <trkpt lat="47.6562" lon="6.7144">
        <ele>406.6</ele>
        <time>2026-08-30T09:20:52.000Z</time>
      </trkpt>
      <trkpt lat="47.65623" lon="6.71443">
        <ele>406.8</ele>
        <time>2026-08-30T09:20:54.000Z</time>
      </trkpt>
      <trkpt lat="47.65626" lon="6.71446">
        <ele>407</ele>
        <time>2026-08-30T09:20:56.000Z</time>
      </trkpt>
      <trkpt lat="47.6563" lon="6.7145">
        <ele>407.2</ele>
        <time>2026-08-30T09:20:58.000Z</time>
      </trkpt>
      <trkpt lat="47.65633" lon="6.71454">
        <ele>407.4</ele>
        <time>2026-08-30T09:21:00.000Z</time>
      </trkpt>
      <trkpt lat="47.65636" lon="6.71459">
        <ele>407.6</ele>
        <time>2026-08-30T09:21:02.000Z</time>
      </trkpt>
      <trkpt lat="47.65639" lon="6.71464">
        <ele>407.8</ele>
        <time>2026-08-30T09:21:05.000Z</time>
      </trkpt>
      <trkpt lat="47.65642" lon="6.71468">
        <ele>408</ele>
        <time>2026-08-30T09:21:07.000Z</time>
      </trkpt>
      <trkpt lat="47.65644" lon="6.71472">
        <ele>408.4</ele>
        <time>2026-08-30T09:21:09.000Z</time>
      </trkpt>
      <trkpt lat="47.65647" lon="6.71475">
        <ele>408.6</ele>
        <time>2026-08-30T09:21:11.000Z</time>
      </trkpt>
      <trkpt lat="47.6565" lon="6.71478">
        <ele>409</ele>
        <time>2026-08-30T09:21:13.000Z</time>
      </trkpt>
      <trkpt lat="47.65654" lon="6.7148">
        <ele>409.2</ele>
        <time>2026-08-30T09:21:15.000Z</time>
      </trkpt>
      <trkpt lat="47.65657" lon="6.71483">
        <ele>409.6</ele>
        <time>2026-08-30T09:21:17.000Z</time>
      </trkpt>
      <trkpt lat="47.6566" lon="6.71485">
        <ele>410</ele>
        <time>2026-08-30T09:21:19.000Z</time>
      </trkpt>
      <trkpt lat="47.65663" lon="6.71488">
        <ele>410.4</ele>
        <time>2026-08-30T09:21:21.000Z</time>
      </trkpt>
      <trkpt lat="47.65666" lon="6.7149">
        <ele>410.8</ele>
        <time>2026-08-30T09:21:23.000Z</time>
      </trkpt>
      <trkpt lat="47.6567" lon="6.71492">
        <ele>411.2</ele>
        <time>2026-08-30T09:21:25.000Z</time>
      </trkpt>
      <trkpt lat="47.65674" lon="6.71495">
        <ele>411.8</ele>
        <time>2026-08-30T09:21:27.000Z</time>
      </trkpt>
      <trkpt lat="47.65678" lon="6.71498">
        <ele>412.2</ele>
        <time>2026-08-30T09:21:29.000Z</time>
      </trkpt>
      <trkpt lat="47.65684" lon="6.71501">
        <ele>412.4</ele>
        <time>2026-08-30T09:21:31.000Z</time>
      </trkpt>
      <trkpt lat="47.6569" lon="6.71502">
        <ele>412.8</ele>
        <time>2026-08-30T09:21:33.000Z</time>
      </trkpt>
      <trkpt lat="47.65696" lon="6.71502">
        <ele>413.2</ele>
        <time>2026-08-30T09:21:35.000Z</time>
      </trkpt>
      <trkpt lat="47.65701" lon="6.715">
        <ele>413.4</ele>
        <time>2026-08-30T09:21:37.000Z</time>
      </trkpt>
      <trkpt lat="47.65706" lon="6.71497">
        <ele>413.8</ele>
        <time>2026-08-30T09:21:39.000Z</time>
      </trkpt>
      <trkpt lat="47.6571" lon="6.71493">
        <ele>414</ele>
        <time>2026-08-30T09:21:41.000Z</time>
      </trkpt>
      <trkpt lat="47.65715" lon="6.71489">
        <ele>414.4</ele>
        <time>2026-08-30T09:21:43.000Z</time>
      </trkpt>
      <trkpt lat="47.65719" lon="6.71485">
        <ele>414.8</ele>
        <time>2026-08-30T09:21:45.000Z</time>
      </trkpt>
      <trkpt lat="47.65722" lon="6.71481">
        <ele>415</ele>
        <time>2026-08-30T09:21:47.000Z</time>
      </trkpt>
      <trkpt lat="47.65725" lon="6.71475">
        <ele>415.4</ele>
        <time>2026-08-30T09:21:49.000Z</time>
      </trkpt>
      <trkpt lat="47.65728" lon="6.71469">
        <ele>415.8</ele>
        <time>2026-08-30T09:21:51.000Z</time>
      </trkpt>
      <trkpt lat="47.6573" lon="6.71463">
        <ele>416</ele>
        <time>2026-08-30T09:21:53.000Z</time>
      </trkpt>
      <trkpt lat="47.65733" lon="6.71455">
        <ele>416.4</ele>
        <time>2026-08-30T09:21:55.000Z</time>
      </trkpt>
      <trkpt lat="47.65736" lon="6.71447">
        <ele>416.6</ele>
        <time>2026-08-30T09:21:57.000Z</time>
      </trkpt>
      <trkpt lat="47.65738" lon="6.71441">
        <ele>417</ele>
        <time>2026-08-30T09:21:59.000Z</time>
      </trkpt>
      <trkpt lat="47.6574" lon="6.71435">
        <ele>417.2</ele>
        <time>2026-08-30T09:22:01.000Z</time>
      </trkpt>
      <trkpt lat="47.65741" lon="6.71429">
        <ele>417.6</ele>
        <time>2026-08-30T09:22:03.000Z</time>
      </trkpt>
      <trkpt lat="47.65743" lon="6.71423">
        <ele>418</ele>
        <time>2026-08-30T09:22:05.000Z</time>
      </trkpt>
      <trkpt lat="47.65745" lon="6.71417">
        <ele>418.2</ele>
        <time>2026-08-30T09:22:07.000Z</time>
      </trkpt>
      <trkpt lat="47.65747" lon="6.7141">
        <ele>418.6</ele>
        <time>2026-08-30T09:22:09.000Z</time>
      </trkpt>
      <trkpt lat="47.65749" lon="6.71405">
        <ele>418.8</ele>
        <time>2026-08-30T09:22:11.000Z</time>
      </trkpt>
      <trkpt lat="47.65751" lon="6.71399">
        <ele>419</ele>
        <time>2026-08-30T09:22:13.000Z</time>
      </trkpt>
      <trkpt lat="47.65753" lon="6.71392">
        <ele>419.2</ele>
        <time>2026-08-30T09:22:15.000Z</time>
      </trkpt>
      <trkpt lat="47.65755" lon="6.71386">
        <ele>419.6</ele>
        <time>2026-08-30T09:22:17.000Z</time>
      </trkpt>
      <trkpt lat="47.65757" lon="6.71379">
        <ele>420</ele>
        <time>2026-08-30T09:22:19.000Z</time>
      </trkpt>
      <trkpt lat="47.65759" lon="6.71373">
        <ele>420.4</ele>
        <time>2026-08-30T09:22:21.000Z</time>
      </trkpt>
      <trkpt lat="47.6576" lon="6.71367">
        <ele>421</ele>
        <time>2026-08-30T09:22:23.000Z</time>
      </trkpt>
      <trkpt lat="47.65762" lon="6.71361">
        <ele>421.4</ele>
        <time>2026-08-30T09:22:25.000Z</time>
      </trkpt>
      <trkpt lat="47.65764" lon="6.71355">
        <ele>422</ele>
        <time>2026-08-30T09:22:27.000Z</time>
      </trkpt>
      <trkpt lat="47.65766" lon="6.71349">
        <ele>422.4</ele>
        <time>2026-08-30T09:22:29.000Z</time>
      </trkpt>
      <trkpt lat="47.65769" lon="6.71343">
        <ele>422.8</ele>
        <time>2026-08-30T09:22:31.000Z</time>
      </trkpt>
      <trkpt lat="47.65771" lon="6.71337">
        <ele>423.2</ele>
        <time>2026-08-30T09:22:33.000Z</time>
      </trkpt>
      <trkpt lat="47.65774" lon="6.71331">
        <ele>423.4</ele>
        <time>2026-08-30T09:22:35.000Z</time>
      </trkpt>
      <trkpt lat="47.65777" lon="6.71322">
        <ele>423.4</ele>
        <time>2026-08-30T09:22:37.000Z</time>
      </trkpt>
      <trkpt lat="47.65779" lon="6.71313">
        <ele>423.4</ele>
        <time>2026-08-30T09:22:39.000Z</time>
      </trkpt>
      <trkpt lat="47.65783" lon="6.71303">
        <ele>423.2</ele>
        <time>2026-08-30T09:22:41.000Z</time>
      </trkpt>
      <trkpt lat="47.65788" lon="6.71294">
        <ele>423.2</ele>
        <time>2026-08-30T09:22:43.000Z</time>
      </trkpt>
      <trkpt lat="47.65795" lon="6.71288">
        <ele>423.2</ele>
        <time>2026-08-30T09:22:45.000Z</time>
      </trkpt>
      <trkpt lat="47.658" lon="6.71284">
        <ele>423.2</ele>
        <time>2026-08-30T09:22:47.000Z</time>
      </trkpt>
      <trkpt lat="47.65807" lon="6.7128">
        <ele>423.4</ele>
        <time>2026-08-30T09:22:49.000Z</time>
      </trkpt>
      <trkpt lat="47.65812" lon="6.71276">
        <ele>423.4</ele>
        <time>2026-08-30T09:22:52.000Z</time>
      </trkpt>
      <trkpt lat="47.65819" lon="6.71271">
        <ele>423.2</ele>
        <time>2026-08-30T09:22:54.000Z</time>
      </trkpt>
      <trkpt lat="47.65826" lon="6.71264">
        <ele>423</ele>
        <time>2026-08-30T09:22:56.000Z</time>
      </trkpt>
      <trkpt lat="47.65833" lon="6.71255">
        <ele>422.8</ele>
        <time>2026-08-30T09:22:58.000Z</time>
      </trkpt>
      <trkpt lat="47.65838" lon="6.71245">
        <ele>422.8</ele>
        <time>2026-08-30T09:23:00.000Z</time>
      </trkpt>
      <trkpt lat="47.65842" lon="6.71236">
        <ele>422.6</ele>
        <time>2026-08-30T09:23:02.000Z</time>
      </trkpt>
      <trkpt lat="47.65847" lon="6.7123">
        <ele>422.4</ele>
        <time>2026-08-30T09:23:04.000Z</time>
      </trkpt>
      <trkpt lat="47.65852" lon="6.71227">
        <ele>422.4</ele>
        <time>2026-08-30T09:23:06.000Z</time>
      </trkpt>
      <trkpt lat="47.65858" lon="6.71223">
        <ele>422.6</ele>
        <time>2026-08-30T09:23:08.000Z</time>
      </trkpt>
      <trkpt lat="47.65865" lon="6.71218">
        <ele>422.6</ele>
        <time>2026-08-30T09:23:10.000Z</time>
      </trkpt>
      <trkpt lat="47.65872" lon="6.71212">
        <ele>422.8</ele>
        <time>2026-08-30T09:23:12.000Z</time>
      </trkpt>
      <trkpt lat="47.65878" lon="6.71207">
        <ele>422.8</ele>
        <time>2026-08-30T09:23:14.000Z</time>
      </trkpt>
      <trkpt lat="47.65883" lon="6.712">
        <ele>423</ele>
        <time>2026-08-30T09:23:16.000Z</time>
      </trkpt>
      <trkpt lat="47.65889" lon="6.71193">
        <ele>423.2</ele>
        <time>2026-08-30T09:23:18.000Z</time>
      </trkpt>
      <trkpt lat="47.65896" lon="6.71187">
        <ele>423.4</ele>
        <time>2026-08-30T09:23:20.000Z</time>
      </trkpt>
      <trkpt lat="47.65903" lon="6.71181">
        <ele>423.6</ele>
        <time>2026-08-30T09:23:22.000Z</time>
      </trkpt>
      <trkpt lat="47.65909" lon="6.71175">
        <ele>423.8</ele>
        <time>2026-08-30T09:23:24.000Z</time>
      </trkpt>
      <trkpt lat="47.65915" lon="6.71169">
        <ele>424.2</ele>
        <time>2026-08-30T09:23:26.000Z</time>
      </trkpt>
      <trkpt lat="47.65921" lon="6.71163">
        <ele>424.6</ele>
        <time>2026-08-30T09:23:28.000Z</time>
      </trkpt>
      <trkpt lat="47.65927" lon="6.71156">
        <ele>425</ele>
        <time>2026-08-30T09:23:30.000Z</time>
      </trkpt>
      <trkpt lat="47.65933" lon="6.71149">
        <ele>425.4</ele>
        <time>2026-08-30T09:23:32.000Z</time>
      </trkpt>
      <trkpt lat="47.6594" lon="6.7114">
        <ele>426</ele>
        <time>2026-08-30T09:23:34.000Z</time>
      </trkpt>
      <trkpt lat="47.65946" lon="6.7113">
        <ele>426.4</ele>
        <time>2026-08-30T09:23:36.000Z</time>
      </trkpt>
      <trkpt lat="47.65952" lon="6.71122">
        <ele>427</ele>
        <time>2026-08-30T09:23:38.000Z</time>
      </trkpt>
      <trkpt lat="47.65956" lon="6.71115">
        <ele>427.6</ele>
        <time>2026-08-30T09:23:40.000Z</time>
      </trkpt>
      <trkpt lat="47.65961" lon="6.71109">
        <ele>428</ele>
        <time>2026-08-30T09:23:42.000Z</time>
      </trkpt>
      <trkpt lat="47.65966" lon="6.71103">
        <ele>428.6</ele>
        <time>2026-08-30T09:23:44.000Z</time>
      </trkpt>
      <trkpt lat="47.65971" lon="6.71098">
        <ele>429</ele>
        <time>2026-08-30T09:23:46.000Z</time>
      </trkpt>
      <trkpt lat="47.65977" lon="6.71095">
        <ele>429.6</ele>
        <time>2026-08-30T09:23:48.000Z</time>
      </trkpt>
      <trkpt lat="47.65983" lon="6.71098">
        <ele>430.2</ele>
        <time>2026-08-30T09:23:50.000Z</time>
      </trkpt>
      <trkpt lat="47.65988" lon="6.71108">
        <ele>430.2</ele>
        <time>2026-08-30T09:23:52.000Z</time>
      </trkpt>
      <trkpt lat="47.65991" lon="6.71122">
        <ele>430.2</ele>
        <time>2026-08-30T09:23:54.000Z</time>
      </trkpt>
      <trkpt lat="47.65995" lon="6.7114">
        <ele>429.8</ele>
        <time>2026-08-30T09:23:56.000Z</time>
      </trkpt>
      <trkpt lat="47.65998" lon="6.71159">
        <ele>429.6</ele>
        <time>2026-08-30T09:23:58.000Z</time>
      </trkpt>
      <trkpt lat="47.66001" lon="6.7118">
        <ele>429</ele>
        <time>2026-08-30T09:24:00.000Z</time>
      </trkpt>
      <trkpt lat="47.66003" lon="6.71203">
        <ele>428.2</ele>
        <time>2026-08-30T09:24:02.000Z</time>
      </trkpt>
      <trkpt lat="47.66006" lon="6.71227">
        <ele>427.4</ele>
        <time>2026-08-30T09:24:04.000Z</time>
      </trkpt>
      <trkpt lat="47.66008" lon="6.71253">
        <ele>426.4</ele>
        <time>2026-08-30T09:24:06.000Z</time>
      </trkpt>
      <trkpt lat="47.6601" lon="6.71279">
        <ele>425.4</ele>
        <time>2026-08-30T09:24:08.000Z</time>
      </trkpt>
      <trkpt lat="47.66012" lon="6.71303">
        <ele>424.4</ele>
        <time>2026-08-30T09:24:10.000Z</time>
      </trkpt>
      <trkpt lat="47.66013" lon="6.71321">
        <ele>423.4</ele>
        <time>2026-08-30T09:24:12.000Z</time>
      </trkpt>
      <trkpt lat="47.66015" lon="6.71337">
        <ele>422.6</ele>
        <time>2026-08-30T09:24:14.000Z</time>
      </trkpt>
      <trkpt lat="47.6602" lon="6.71347">
        <ele>421.8</ele>
        <time>2026-08-30T09:24:17.000Z</time>
      </trkpt>
      <trkpt lat="47.66028" lon="6.71346">
        <ele>421.2</ele>
        <time>2026-08-30T09:24:19.000Z</time>
      </trkpt>
      <trkpt lat="47.66035" lon="6.71335">
        <ele>421</ele>
        <time>2026-08-30T09:24:21.000Z</time>
      </trkpt>
      <trkpt lat="47.66044" lon="6.71322">
        <ele>420.8</ele>
        <time>2026-08-30T09:24:23.000Z</time>
      </trkpt>
      <trkpt lat="47.66055" lon="6.71312">
        <ele>420.6</ele>
        <time>2026-08-30T09:24:25.000Z</time>
      </trkpt>
      <trkpt lat="47.66068" lon="6.71304">
        <ele>420.2</ele>
        <time>2026-08-30T09:24:27.000Z</time>
      </trkpt>
      <trkpt lat="47.66082" lon="6.71299">
        <ele>419.8</ele>
        <time>2026-08-30T09:24:29.000Z</time>
      </trkpt>
      <trkpt lat="47.66096" lon="6.71294">
        <ele>419.8</ele>
        <time>2026-08-30T09:24:31.000Z</time>
      </trkpt>
      <trkpt lat="47.66109" lon="6.71288">
        <ele>419.8</ele>
        <time>2026-08-30T09:24:33.000Z</time>
      </trkpt>
      <trkpt lat="47.6612" lon="6.71282">
        <ele>420.2</ele>
        <time>2026-08-30T09:24:35.000Z</time>
      </trkpt>
      <trkpt lat="47.6613" lon="6.71277">
        <ele>420.4</ele>
        <time>2026-08-30T09:24:37.000Z</time>
      </trkpt>
      <trkpt lat="47.66138" lon="6.71273">
        <ele>421</ele>
        <time>2026-08-30T09:24:39.000Z</time>
      </trkpt>
      <trkpt lat="47.66144" lon="6.71271">
        <ele>421.6</ele>
        <time>2026-08-30T09:24:41.000Z</time>
      </trkpt>
      <trkpt lat="47.66149" lon="6.71269">
        <ele>422.2</ele>
        <time>2026-08-30T09:24:43.000Z</time>
      </trkpt>
      <trkpt lat="47.66154" lon="6.71268">
        <ele>423</ele>
        <time>2026-08-30T09:24:45.000Z</time>
      </trkpt>
      <trkpt lat="47.6616" lon="6.71267">
        <ele>424</ele>
        <time>2026-08-30T09:24:47.000Z</time>
      </trkpt>
      <trkpt lat="47.66164" lon="6.71262">
        <ele>424.8</ele>
        <time>2026-08-30T09:24:49.000Z</time>
      </trkpt>
      <trkpt lat="47.66169" lon="6.71258">
        <ele>425.4</ele>
        <time>2026-08-30T09:24:51.000Z</time>
      </trkpt>
      <trkpt lat="47.66175" lon="6.7126">
        <ele>425.8</ele>
        <time>2026-08-30T09:24:53.000Z</time>
      </trkpt>
      <trkpt lat="47.66181" lon="6.71269">
        <ele>425.8</ele>
        <time>2026-08-30T09:24:55.000Z</time>
      </trkpt>
      <trkpt lat="47.66187" lon="6.71281">
        <ele>425.6</ele>
        <time>2026-08-30T09:24:57.000Z</time>
      </trkpt>
      <trkpt lat="47.66196" lon="6.71294">
        <ele>425.2</ele>
        <time>2026-08-30T09:24:59.000Z</time>
      </trkpt>
      <trkpt lat="47.66205" lon="6.71308">
        <ele>424.8</ele>
        <time>2026-08-30T09:25:01.000Z</time>
      </trkpt>
      <trkpt lat="47.66214" lon="6.71322">
        <ele>424.4</ele>
        <time>2026-08-30T09:25:03.000Z</time>
      </trkpt>
      <trkpt lat="47.66226" lon="6.71338">
        <ele>423.8</ele>
        <time>2026-08-30T09:25:05.000Z</time>
      </trkpt>
      <trkpt lat="47.66236" lon="6.71357">
        <ele>423</ele>
        <time>2026-08-30T09:25:07.000Z</time>
      </trkpt>
      <trkpt lat="47.66243" lon="6.71376">
        <ele>422.2</ele>
        <time>2026-08-30T09:25:09.000Z</time>
      </trkpt>
      <trkpt lat="47.66248" lon="6.71395">
        <ele>421.4</ele>
        <time>2026-08-30T09:25:11.000Z</time>
      </trkpt>
      <trkpt lat="47.6625" lon="6.71415">
        <ele>420.8</ele>
        <time>2026-08-30T09:25:13.000Z</time>
      </trkpt>
      <trkpt lat="47.66255" lon="6.71437">
        <ele>420</ele>
        <time>2026-08-30T09:25:15.000Z</time>
      </trkpt>
      <trkpt lat="47.66262" lon="6.71458">
        <ele>419.2</ele>
        <time>2026-08-30T09:25:17.000Z</time>
      </trkpt>
      <trkpt lat="47.66271" lon="6.71479">
        <ele>418.2</ele>
        <time>2026-08-30T09:25:19.000Z</time>
      </trkpt>
      <trkpt lat="47.66283" lon="6.71496">
        <ele>417</ele>
        <time>2026-08-30T09:25:21.000Z</time>
      </trkpt>
      <trkpt lat="47.66292" lon="6.71506">
        <ele>415.8</ele>
        <time>2026-08-30T09:25:23.000Z</time>
      </trkpt>
      <trkpt lat="47.66299" lon="6.71513">
        <ele>414.8</ele>
        <time>2026-08-30T09:25:25.000Z</time>
      </trkpt>
      <trkpt lat="47.66305" lon="6.7152">
        <ele>414</ele>
        <time>2026-08-30T09:25:27.000Z</time>
      </trkpt>
      <trkpt lat="47.6631" lon="6.71532">
        <ele>413.4</ele>
        <time>2026-08-30T09:25:29.000Z</time>
      </trkpt>
      <trkpt lat="47.66314" lon="6.71542">
        <ele>413</ele>
        <time>2026-08-30T09:25:31.000Z</time>
      </trkpt>
      <trkpt lat="47.66316" lon="6.71554">
        <ele>412.4</ele>
        <time>2026-08-30T09:25:33.000Z</time>
      </trkpt>
      <trkpt lat="47.6632" lon="6.71566">
        <ele>412</ele>
        <time>2026-08-30T09:25:35.000Z</time>
      </trkpt>
      <trkpt lat="47.66324" lon="6.71578">
        <ele>411.6</ele>
        <time>2026-08-30T09:25:37.000Z</time>
      </trkpt>
      <trkpt lat="47.66327" lon="6.71591">
        <ele>411.2</ele>
        <time>2026-08-30T09:25:39.000Z</time>
      </trkpt>
      <trkpt lat="47.66329" lon="6.71606">
        <ele>411</ele>
        <time>2026-08-30T09:25:41.000Z</time>
      </trkpt>
      <trkpt lat="47.66332" lon="6.71618">
        <ele>410.8</ele>
        <time>2026-08-30T09:25:43.000Z</time>
      </trkpt>
      <trkpt lat="47.66335" lon="6.7163">
        <ele>410.4</ele>
        <time>2026-08-30T09:25:45.000Z</time>
      </trkpt>
      <trkpt lat="47.66338" lon="6.71643">
        <ele>410.2</ele>
        <time>2026-08-30T09:25:47.000Z</time>
      </trkpt>
      <trkpt lat="47.6634" lon="6.71656">
        <ele>409.8</ele>
        <time>2026-08-30T09:25:49.000Z</time>
      </trkpt>
      <trkpt lat="47.66342" lon="6.71667">
        <ele>409.6</ele>
        <time>2026-08-30T09:25:51.000Z</time>
      </trkpt>
      <trkpt lat="47.66344" lon="6.71677">
        <ele>409.4</ele>
        <time>2026-08-30T09:25:53.000Z</time>
      </trkpt>
      <trkpt lat="47.66345" lon="6.71686">
        <ele>409.2</ele>
        <time>2026-08-30T09:25:55.000Z</time>
      </trkpt>
      <trkpt lat="47.66346" lon="6.71692">
        <ele>409.2</ele>
        <time>2026-08-30T09:25:57.000Z</time>
      </trkpt>
      <trkpt lat="47.66346" lon="6.71697">
        <ele>409.2</ele>
        <time>2026-08-30T09:25:59.000Z</time>
      </trkpt>
      <trkpt lat="47.66346" lon="6.71701">
        <ele>409</ele>
        <time>2026-08-30T09:26:01.000Z</time>
      </trkpt>
      <trkpt lat="47.66347" lon="6.71707">
        <ele>409</ele>
        <time>2026-08-30T09:26:03.000Z</time>
      </trkpt>
      <trkpt lat="47.6635" lon="6.71717">
        <ele>409.2</ele>
        <time>2026-08-30T09:26:05.000Z</time>
      </trkpt>
      <trkpt lat="47.66354" lon="6.71734">
        <ele>409</ele>
        <time>2026-08-30T09:26:07.000Z</time>
      </trkpt>
      <trkpt lat="47.66358" lon="6.71753">
        <ele>408.8</ele>
        <time>2026-08-30T09:26:10.000Z</time>
      </trkpt>
      <trkpt lat="47.66361" lon="6.71772">
        <ele>408.4</ele>
        <time>2026-08-30T09:26:12.000Z</time>
      </trkpt>
      <trkpt lat="47.66364" lon="6.7179">
        <ele>408.2</ele>
        <time>2026-08-30T09:26:14.000Z</time>
      </trkpt>
      <trkpt lat="47.66367" lon="6.71807">
        <ele>407.8</ele>
        <time>2026-08-30T09:26:16.000Z</time>
      </trkpt>
      <trkpt lat="47.66374" lon="6.7182">
        <ele>407.2</ele>
        <time>2026-08-30T09:26:18.000Z</time>
      </trkpt>
      <trkpt lat="47.66384" lon="6.7183">
        <ele>406.2</ele>
        <time>2026-08-30T09:26:20.000Z</time>
      </trkpt>
      <trkpt lat="47.66396" lon="6.71842">
        <ele>405</ele>
        <time>2026-08-30T09:26:22.000Z</time>
      </trkpt>
      <trkpt lat="47.66409" lon="6.71853">
        <ele>403.4</ele>
        <time>2026-08-30T09:26:24.000Z</time>
      </trkpt>
      <trkpt lat="47.66418" lon="6.71865">
        <ele>402</ele>
        <time>2026-08-30T09:26:26.000Z</time>
      </trkpt>
      <trkpt lat="47.66425" lon="6.71881">
        <ele>400.6</ele>
        <time>2026-08-30T09:26:28.000Z</time>
      </trkpt>
      <trkpt lat="47.66429" lon="6.71899">
        <ele>399.6</ele>
        <time>2026-08-30T09:26:30.000Z</time>
      </trkpt>
      <trkpt lat="47.66433" lon="6.71919">
        <ele>398.6</ele>
        <time>2026-08-30T09:26:32.000Z</time>
      </trkpt>
      <trkpt lat="47.66438" lon="6.71939">
        <ele>397.6</ele>
        <time>2026-08-30T09:26:34.000Z</time>
      </trkpt>
      <trkpt lat="47.66445" lon="6.71965">
        <ele>396.6</ele>
        <time>2026-08-30T09:26:36.000Z</time>
      </trkpt>
      <trkpt lat="47.66451" lon="6.71989">
        <ele>395.4</ele>
        <time>2026-08-30T09:26:38.000Z</time>
      </trkpt>
      <trkpt lat="47.66457" lon="6.72">
        <ele>394.4</ele>
        <time>2026-08-30T09:26:40.000Z</time>
      </trkpt>
      <trkpt lat="47.66463" lon="6.7201">
        <ele>393.6</ele>
        <time>2026-08-30T09:26:42.000Z</time>
      </trkpt>
      <trkpt lat="47.66463" lon="6.72022">
        <ele>392.8</ele>
        <time>2026-08-30T09:26:44.000Z</time>
      </trkpt>
      <trkpt lat="47.66455" lon="6.72032">
        <ele>392</ele>
        <time>2026-08-30T09:26:46.000Z</time>
      </trkpt>
      <trkpt lat="47.66447" lon="6.72045">
        <ele>390.8</ele>
        <time>2026-08-30T09:26:48.000Z</time>
      </trkpt>
      <trkpt lat="47.66443" lon="6.72062">
        <ele>389.4</ele>
        <time>2026-08-30T09:26:50.000Z</time>
      </trkpt>
      <trkpt lat="47.6644" lon="6.7208">
        <ele>387.4</ele>
        <time>2026-08-30T09:26:52.000Z</time>
      </trkpt>
      <trkpt lat="47.66436" lon="6.72099">
        <ele>385.4</ele>
        <time>2026-08-30T09:26:54.000Z</time>
      </trkpt>
      <trkpt lat="47.66434" lon="6.72118">
        <ele>384.2</ele>
        <time>2026-08-30T09:26:56.000Z</time>
      </trkpt>
      <trkpt lat="47.66434" lon="6.7214">
        <ele>382.8</ele>
        <time>2026-08-30T09:26:58.000Z</time>
      </trkpt>
      <trkpt lat="47.66435" lon="6.72167">
        <ele>381.2</ele>
        <time>2026-08-30T09:27:00.000Z</time>
      </trkpt>
      <trkpt lat="47.66435" lon="6.7219">
        <ele>379.6</ele>
        <time>2026-08-30T09:27:02.000Z</time>
      </trkpt>
      <trkpt lat="47.66435" lon="6.72204">
        <ele>378</ele>
        <time>2026-08-30T09:27:04.000Z</time>
      </trkpt>
      <trkpt lat="47.66438" lon="6.72204">
        <ele>376.8</ele>
        <time>2026-08-30T09:27:06.000Z</time>
      </trkpt>
      <trkpt lat="47.66444" lon="6.72195">
        <ele>376</ele>
        <time>2026-08-30T09:27:08.000Z</time>
      </trkpt>
      <trkpt lat="47.66451" lon="6.72181">
        <ele>375.6</ele>
        <time>2026-08-30T09:27:10.000Z</time>
      </trkpt>
      <trkpt lat="47.66458" lon="6.72167">
        <ele>375.2</ele>
        <time>2026-08-30T09:27:12.000Z</time>
      </trkpt>
      <trkpt lat="47.66465" lon="6.72155">
        <ele>374.8</ele>
        <time>2026-08-30T09:27:14.000Z</time>
      </trkpt>
      <trkpt lat="47.66473" lon="6.72148">
        <ele>374.8</ele>
        <time>2026-08-30T09:27:16.000Z</time>
      </trkpt>
      <trkpt lat="47.66483" lon="6.72142">
        <ele>374.6</ele>
        <time>2026-08-30T09:27:18.000Z</time>
      </trkpt>
      <trkpt lat="47.66493" lon="6.72135">
        <ele>374.6</ele>
        <time>2026-08-30T09:27:20.000Z</time>
      </trkpt>
      <trkpt lat="47.66503" lon="6.72128">
        <ele>374.4</ele>
        <time>2026-08-30T09:27:22.000Z</time>
      </trkpt>
      <trkpt lat="47.66511" lon="6.72119">
        <ele>374.2</ele>
        <time>2026-08-30T09:27:24.000Z</time>
      </trkpt>
      <trkpt lat="47.66518" lon="6.72109">
        <ele>374.2</ele>
        <time>2026-08-30T09:27:26.000Z</time>
      </trkpt>
      <trkpt lat="47.66525" lon="6.72097">
        <ele>374.2</ele>
        <time>2026-08-30T09:27:29.000Z</time>
      </trkpt>
      <trkpt lat="47.66533" lon="6.72085">
        <ele>374.2</ele>
        <time>2026-08-30T09:27:31.000Z</time>
      </trkpt>
      <trkpt lat="47.66542" lon="6.72074">
        <ele>374.4</ele>
        <time>2026-08-30T09:27:33.000Z</time>
      </trkpt>
      <trkpt lat="47.66549" lon="6.72062">
        <ele>374.4</ele>
        <time>2026-08-30T09:27:35.000Z</time>
      </trkpt>
      <trkpt lat="47.66556" lon="6.7205">
        <ele>374.4</ele>
        <time>2026-08-30T09:27:37.000Z</time>
      </trkpt>
      <trkpt lat="47.66563" lon="6.72037">
        <ele>374.4</ele>
        <time>2026-08-30T09:27:39.000Z</time>
      </trkpt>
      <trkpt lat="47.66571" lon="6.72024">
        <ele>374.6</ele>
        <time>2026-08-30T09:27:41.000Z</time>
      </trkpt>
      <trkpt lat="47.66578" lon="6.7201">
        <ele>374.6</ele>
        <time>2026-08-30T09:27:43.000Z</time>
      </trkpt>
      <trkpt lat="47.66584" lon="6.71997">
        <ele>374.8</ele>
        <time>2026-08-30T09:27:45.000Z</time>
      </trkpt>
      <trkpt lat="47.66591" lon="6.71983">
        <ele>375</ele>
        <time>2026-08-30T09:27:47.000Z</time>
      </trkpt>
      <trkpt lat="47.66597" lon="6.71969">
        <ele>375.2</ele>
        <time>2026-08-30T09:27:49.000Z</time>
      </trkpt>
      <trkpt lat="47.66601" lon="6.71954">
        <ele>375.4</ele>
        <time>2026-08-30T09:27:51.000Z</time>
      </trkpt>
      <trkpt lat="47.66605" lon="6.7194">
        <ele>375.6</ele>
        <time>2026-08-30T09:27:53.000Z</time>
      </trkpt>
      <trkpt lat="47.66605" lon="6.71926">
        <ele>376</ele>
        <time>2026-08-30T09:27:55.000Z</time>
      </trkpt>
      <trkpt lat="47.66603" lon="6.71914">
        <ele>376.4</ele>
        <time>2026-08-30T09:27:57.000Z</time>
      </trkpt>
      <trkpt lat="47.66599" lon="6.71904">
        <ele>376.8</ele>
        <time>2026-08-30T09:27:59.000Z</time>
      </trkpt>
      <trkpt lat="47.66596" lon="6.71894">
        <ele>377.4</ele>
        <time>2026-08-30T09:28:01.000Z</time>
      </trkpt>
      <trkpt lat="47.66594" lon="6.71884">
        <ele>377.8</ele>
        <time>2026-08-30T09:28:03.000Z</time>
      </trkpt>
      <trkpt lat="47.66591" lon="6.71874">
        <ele>378</ele>
        <time>2026-08-30T09:28:05.000Z</time>
      </trkpt>
      <trkpt lat="47.66589" lon="6.71863">
        <ele>378.4</ele>
        <time>2026-08-30T09:28:07.000Z</time>
      </trkpt>
      <trkpt lat="47.66587" lon="6.71853">
        <ele>378.8</ele>
        <time>2026-08-30T09:28:09.000Z</time>
      </trkpt>
      <trkpt lat="47.66584" lon="6.71844">
        <ele>379.2</ele>
        <time>2026-08-30T09:28:11.000Z</time>
      </trkpt>
      <trkpt lat="47.6658" lon="6.71836">
        <ele>379.8</ele>
        <time>2026-08-30T09:28:13.000Z</time>
      </trkpt>
      <trkpt lat="47.66577" lon="6.71829">
        <ele>380.2</ele>
        <time>2026-08-30T09:28:15.000Z</time>
      </trkpt>
      <trkpt lat="47.66574" lon="6.71822">
        <ele>380.4</ele>
        <time>2026-08-30T09:28:17.000Z</time>
      </trkpt>
      <trkpt lat="47.66571" lon="6.71813">
        <ele>380.8</ele>
        <time>2026-08-30T09:28:19.000Z</time>
      </trkpt>
      <trkpt lat="47.66568" lon="6.71802">
        <ele>381</ele>
        <time>2026-08-30T09:28:21.000Z</time>
      </trkpt>
      <trkpt lat="47.66565" lon="6.7179">
        <ele>381.2</ele>
        <time>2026-08-30T09:28:23.000Z</time>
      </trkpt>
      <trkpt lat="47.66562" lon="6.71781">
        <ele>381.4</ele>
        <time>2026-08-30T09:28:25.000Z</time>
      </trkpt>
      <trkpt lat="47.6656" lon="6.71771">
        <ele>381.6</ele>
        <time>2026-08-30T09:28:27.000Z</time>
      </trkpt>
      <trkpt lat="47.66559" lon="6.7176">
        <ele>381.6</ele>
        <time>2026-08-30T09:28:29.000Z</time>
      </trkpt>
      <trkpt lat="47.66558" lon="6.71748">
        <ele>381.6</ele>
        <time>2026-08-30T09:28:31.000Z</time>
      </trkpt>
      <trkpt lat="47.66555" lon="6.71737">
        <ele>381.4</ele>
        <time>2026-08-30T09:28:33.000Z</time>
      </trkpt>
      <trkpt lat="47.66551" lon="6.71729">
        <ele>381.4</ele>
        <time>2026-08-30T09:28:35.000Z</time>
      </trkpt>
      <trkpt lat="47.66548" lon="6.71721">
        <ele>381</ele>
        <time>2026-08-30T09:28:37.000Z</time>
      </trkpt>
      <trkpt lat="47.66545" lon="6.71711">
        <ele>380.8</ele>
        <time>2026-08-30T09:28:39.000Z</time>
      </trkpt>
      <trkpt lat="47.66544" lon="6.71696">
        <ele>380.4</ele>
        <time>2026-08-30T09:28:41.000Z</time>
      </trkpt>
      <trkpt lat="47.66547" lon="6.71682">
        <ele>380</ele>
        <time>2026-08-30T09:28:43.000Z</time>
      </trkpt>
      <trkpt lat="47.66555" lon="6.71671">
        <ele>379.6</ele>
        <time>2026-08-30T09:28:45.000Z</time>
      </trkpt>
      <trkpt lat="47.66564" lon="6.71665">
        <ele>379.2</ele>
        <time>2026-08-30T09:28:47.000Z</time>
      </trkpt>
      <trkpt lat="47.66572" lon="6.71663">
        <ele>379</ele>
        <time>2026-08-30T09:28:49.000Z</time>
      </trkpt>
      <trkpt lat="47.6658" lon="6.71666">
        <ele>378.8</ele>
        <time>2026-08-30T09:28:51.000Z</time>
      </trkpt>
      <trkpt lat="47.66588" lon="6.7167">
        <ele>378.6</ele>
        <time>2026-08-30T09:28:53.000Z</time>
      </trkpt>
      <trkpt lat="47.66596" lon="6.71676">
        <ele>378.4</ele>
        <time>2026-08-30T09:28:55.000Z</time>
      </trkpt>
      <trkpt lat="47.66603" lon="6.71682">
        <ele>378.2</ele>
        <time>2026-08-30T09:28:57.000Z</time>
      </trkpt>
      <trkpt lat="47.66611" lon="6.71686">
        <ele>378.4</ele>
        <time>2026-08-30T09:28:59.000Z</time>
      </trkpt>
      <trkpt lat="47.66619" lon="6.71686">
        <ele>378.2</ele>
        <time>2026-08-30T09:29:01.000Z</time>
      </trkpt>
      <trkpt lat="47.66627" lon="6.71679">
        <ele>377.8</ele>
        <time>2026-08-30T09:29:03.000Z</time>
      </trkpt>
      <trkpt lat="47.66634" lon="6.71667">
        <ele>377.4</ele>
        <time>2026-08-30T09:29:05.000Z</time>
      </trkpt>
      <trkpt lat="47.66639" lon="6.71654">
        <ele>377</ele>
        <time>2026-08-30T09:29:07.000Z</time>
      </trkpt>
      <trkpt lat="47.66644" lon="6.71643">
        <ele>376.8</ele>
        <time>2026-08-30T09:29:10.000Z</time>
      </trkpt>
      <trkpt lat="47.66649" lon="6.71634">
        <ele>376.8</ele>
        <time>2026-08-30T09:29:12.000Z</time>
      </trkpt>
      <trkpt lat="47.66653" lon="6.71624">
        <ele>376.6</ele>
        <time>2026-08-30T09:29:14.000Z</time>
      </trkpt>
      <trkpt lat="47.66659" lon="6.71613">
        <ele>376.6</ele>
        <time>2026-08-30T09:29:16.000Z</time>
      </trkpt>
      <trkpt lat="47.66664" lon="6.71601">
        <ele>376.8</ele>
        <time>2026-08-30T09:29:18.000Z</time>
      </trkpt>
      <trkpt lat="47.6667" lon="6.7159">
        <ele>376.8</ele>
        <time>2026-08-30T09:29:20.000Z</time>
      </trkpt>
      <trkpt lat="47.66675" lon="6.71579">
        <ele>377</ele>
        <time>2026-08-30T09:29:22.000Z</time>
      </trkpt>
      <trkpt lat="47.66681" lon="6.71568">
        <ele>377</ele>
        <time>2026-08-30T09:29:24.000Z</time>
      </trkpt>
      <trkpt lat="47.66687" lon="6.71557">
        <ele>377.2</ele>
        <time>2026-08-30T09:29:26.000Z</time>
      </trkpt>
      <trkpt lat="47.66691" lon="6.71547">
        <ele>377.4</ele>
        <time>2026-08-30T09:29:28.000Z</time>
      </trkpt>
      <trkpt lat="47.66694" lon="6.71538">
        <ele>377.6</ele>
        <time>2026-08-30T09:29:30.000Z</time>
      </trkpt>
      <trkpt lat="47.66697" lon="6.71529">
        <ele>377.8</ele>
        <time>2026-08-30T09:29:32.000Z</time>
      </trkpt>
      <trkpt lat="47.667" lon="6.71519">
        <ele>378</ele>
        <time>2026-08-30T09:29:34.000Z</time>
      </trkpt>
      <trkpt lat="47.66703" lon="6.71509">
        <ele>378.2</ele>
        <time>2026-08-30T09:29:36.000Z</time>
      </trkpt>
      <trkpt lat="47.66705" lon="6.71497">
        <ele>378.2</ele>
        <time>2026-08-30T09:29:38.000Z</time>
      </trkpt>
      <trkpt lat="47.66708" lon="6.71485">
        <ele>378</ele>
        <time>2026-08-30T09:29:40.000Z</time>
      </trkpt>
      <trkpt lat="47.66709" lon="6.7147">
        <ele>378</ele>
        <time>2026-08-30T09:29:42.000Z</time>
      </trkpt>
      <trkpt lat="47.66707" lon="6.71456">
        <ele>378</ele>
        <time>2026-08-30T09:29:44.000Z</time>
      </trkpt>
      <trkpt lat="47.66703" lon="6.71445">
        <ele>378</ele>
        <time>2026-08-30T09:29:46.000Z</time>
      </trkpt>
      <trkpt lat="47.66699" lon="6.71435">
        <ele>377.8</ele>
        <time>2026-08-30T09:29:48.000Z</time>
      </trkpt>
      <trkpt lat="47.66699" lon="6.71422">
        <ele>377.6</ele>
        <time>2026-08-30T09:29:50.000Z</time>
      </trkpt>
      <trkpt lat="47.66702" lon="6.71408">
        <ele>377.4</ele>
        <time>2026-08-30T09:29:52.000Z</time>
      </trkpt>
      <trkpt lat="47.66707" lon="6.71394">
        <ele>377.2</ele>
        <time>2026-08-30T09:29:54.000Z</time>
      </trkpt>
      <trkpt lat="47.66711" lon="6.71381">
        <ele>377.2</ele>
        <time>2026-08-30T09:29:56.000Z</time>
      </trkpt>
      <trkpt lat="47.66716" lon="6.7137">
        <ele>377.2</ele>
        <time>2026-08-30T09:29:58.000Z</time>
      </trkpt>
      <trkpt lat="47.66721" lon="6.7136">
        <ele>377.2</ele>
        <time>2026-08-30T09:30:00.000Z</time>
      </trkpt>
      <trkpt lat="47.66726" lon="6.7135">
        <ele>377</ele>
        <time>2026-08-30T09:30:02.000Z</time>
      </trkpt>
      <trkpt lat="47.6673" lon="6.71338">
        <ele>377</ele>
        <time>2026-08-30T09:30:04.000Z</time>
      </trkpt>
      <trkpt lat="47.66734" lon="6.71326">
        <ele>377</ele>
        <time>2026-08-30T09:30:06.000Z</time>
      </trkpt>
      <trkpt lat="47.66739" lon="6.71315">
        <ele>377</ele>
        <time>2026-08-30T09:30:08.000Z</time>
      </trkpt>
      <trkpt lat="47.66743" lon="6.71302">
        <ele>377</ele>
        <time>2026-08-30T09:30:10.000Z</time>
      </trkpt>
      <trkpt lat="47.66746" lon="6.71289">
        <ele>377</ele>
        <time>2026-08-30T09:30:12.000Z</time>
      </trkpt>
      <trkpt lat="47.66748" lon="6.71276">
        <ele>377</ele>
        <time>2026-08-30T09:30:14.000Z</time>
      </trkpt>
      <trkpt lat="47.66751" lon="6.71261">
        <ele>377</ele>
        <time>2026-08-30T09:30:16.000Z</time>
      </trkpt>
      <trkpt lat="47.66754" lon="6.71245">
        <ele>377</ele>
        <time>2026-08-30T09:30:18.000Z</time>
      </trkpt>
      <trkpt lat="47.66757" lon="6.71231">
        <ele>377</ele>
        <time>2026-08-30T09:30:20.000Z</time>
      </trkpt>
      <trkpt lat="47.66758" lon="6.71217">
        <ele>377</ele>
        <time>2026-08-30T09:30:22.000Z</time>
      </trkpt>
      <trkpt lat="47.6676" lon="6.71203">
        <ele>376.8</ele>
        <time>2026-08-30T09:30:24.000Z</time>
      </trkpt>
      <trkpt lat="47.66762" lon="6.71187">
        <ele>377</ele>
        <time>2026-08-30T09:30:26.000Z</time>
      </trkpt>
      <trkpt lat="47.66764" lon="6.71171">
        <ele>377</ele>
        <time>2026-08-30T09:30:28.000Z</time>
      </trkpt>
      <trkpt lat="47.66768" lon="6.71159">
        <ele>377.2</ele>
        <time>2026-08-30T09:30:30.000Z</time>
      </trkpt>
      <trkpt lat="47.66772" lon="6.71148">
        <ele>377.4</ele>
        <time>2026-08-30T09:30:32.000Z</time>
      </trkpt>
      <trkpt lat="47.66777" lon="6.71137">
        <ele>377.4</ele>
        <time>2026-08-30T09:30:34.000Z</time>
      </trkpt>
      <trkpt lat="47.66782" lon="6.71125">
        <ele>377.8</ele>
        <time>2026-08-30T09:30:36.000Z</time>
      </trkpt>
      <trkpt lat="47.66786" lon="6.71114">
        <ele>378.2</ele>
        <time>2026-08-30T09:30:39.000Z</time>
      </trkpt>
      <trkpt lat="47.66789" lon="6.71102">
        <ele>378.4</ele>
        <time>2026-08-30T09:30:41.000Z</time>
      </trkpt>
      <trkpt lat="47.6679" lon="6.71089">
        <ele>378.6</ele>
        <time>2026-08-30T09:30:43.000Z</time>
      </trkpt>
      <trkpt lat="47.66791" lon="6.71076">
        <ele>378.6</ele>
        <time>2026-08-30T09:30:45.000Z</time>
      </trkpt>
      <trkpt lat="47.66793" lon="6.71063">
        <ele>378.8</ele>
        <time>2026-08-30T09:30:47.000Z</time>
      </trkpt>
      <trkpt lat="47.66797" lon="6.7105">
        <ele>378.8</ele>
        <time>2026-08-30T09:30:49.000Z</time>
      </trkpt>
      <trkpt lat="47.66803" lon="6.71039">
        <ele>378.6</ele>
        <time>2026-08-30T09:30:51.000Z</time>
      </trkpt>
      <trkpt lat="47.6681" lon="6.71032">
        <ele>378.2</ele>
        <time>2026-08-30T09:30:53.000Z</time>
      </trkpt>
      <trkpt lat="47.66812" lon="6.71025">
        <ele>378.2</ele>
        <time>2026-08-30T09:30:55.000Z</time>
      </trkpt>
      <trkpt lat="47.66816" lon="6.71018">
        <ele>378.2</ele>
        <time>2026-08-30T09:30:57.000Z</time>
      </trkpt>
      <trkpt lat="47.66822" lon="6.71009">
        <ele>378.2</ele>
        <time>2026-08-30T09:30:59.000Z</time>
      </trkpt>
      <trkpt lat="47.6683" lon="6.70998">
        <ele>378.2</ele>
        <time>2026-08-30T09:31:01.000Z</time>
      </trkpt>
      <trkpt lat="47.66837" lon="6.70989">
        <ele>378.4</ele>
        <time>2026-08-30T09:31:03.000Z</time>
      </trkpt>
      <trkpt lat="47.66843" lon="6.7098">
        <ele>378.6</ele>
        <time>2026-08-30T09:31:05.000Z</time>
      </trkpt>
      <trkpt lat="47.66847" lon="6.7097">
        <ele>378.8</ele>
        <time>2026-08-30T09:31:07.000Z</time>
      </trkpt>
      <trkpt lat="47.66849" lon="6.70959">
        <ele>379.2</ele>
        <time>2026-08-30T09:31:09.000Z</time>
      </trkpt>
      <trkpt lat="47.66849" lon="6.70951">
        <ele>379.6</ele>
        <time>2026-08-30T09:31:11.000Z</time>
      </trkpt>
      <trkpt lat="47.66848" lon="6.70944">
        <ele>380</ele>
        <time>2026-08-30T09:31:13.000Z</time>
      </trkpt>
      <trkpt lat="47.66847" lon="6.70936">
        <ele>380.4</ele>
        <time>2026-08-30T09:31:15.000Z</time>
      </trkpt>
      <trkpt lat="47.66846" lon="6.7093">
        <ele>380.8</ele>
        <time>2026-08-30T09:31:17.000Z</time>
      </trkpt>
      <trkpt lat="47.66844" lon="6.70922">
        <ele>381.4</ele>
        <time>2026-08-30T09:31:19.000Z</time>
      </trkpt>
      <trkpt lat="47.66843" lon="6.70915">
        <ele>382</ele>
        <time>2026-08-30T09:31:21.000Z</time>
      </trkpt>
      <trkpt lat="47.66842" lon="6.70909">
        <ele>382.4</ele>
        <time>2026-08-30T09:31:23.000Z</time>
      </trkpt>
      <trkpt lat="47.66841" lon="6.70901">
        <ele>383</ele>
        <time>2026-08-30T09:31:25.000Z</time>
      </trkpt>
      <trkpt lat="47.6684" lon="6.70895">
        <ele>383.4</ele>
        <time>2026-08-30T09:31:27.000Z</time>
      </trkpt>
      <trkpt lat="47.66839" lon="6.70888">
        <ele>383.8</ele>
        <time>2026-08-30T09:31:29.000Z</time>
      </trkpt>
      <trkpt lat="47.66839" lon="6.70882">
        <ele>384</ele>
        <time>2026-08-30T09:31:31.000Z</time>
      </trkpt>
      <trkpt lat="47.66839" lon="6.70876">
        <ele>384.2</ele>
        <time>2026-08-30T09:31:33.000Z</time>
      </trkpt>
      <trkpt lat="47.6684" lon="6.70866">
        <ele>384.4</ele>
        <time>2026-08-30T09:31:35.000Z</time>
      </trkpt>
      <trkpt lat="47.66841" lon="6.70854">
        <ele>384.6</ele>
        <time>2026-08-30T09:31:37.000Z</time>
      </trkpt>
      <trkpt lat="47.66841" lon="6.70844">
        <ele>384.6</ele>
        <time>2026-08-30T09:31:39.000Z</time>
      </trkpt>
      <trkpt lat="47.66842" lon="6.70833">
        <ele>384.4</ele>
        <time>2026-08-30T09:31:41.000Z</time>
      </trkpt>
      <trkpt lat="47.66844" lon="6.70821">
        <ele>384.2</ele>
        <time>2026-08-30T09:31:43.000Z</time>
      </trkpt>
      <trkpt lat="47.66846" lon="6.7081">
        <ele>384</ele>
        <time>2026-08-30T09:31:45.000Z</time>
      </trkpt>
      <trkpt lat="47.66852" lon="6.70797">
        <ele>383.6</ele>
        <time>2026-08-30T09:31:47.000Z</time>
      </trkpt>
      <trkpt lat="47.66858" lon="6.70781">
        <ele>383</ele>
        <time>2026-08-30T09:31:49.000Z</time>
      </trkpt>
      <trkpt lat="47.66862" lon="6.70765">
        <ele>382.6</ele>
        <time>2026-08-30T09:31:51.000Z</time>
      </trkpt>
      <trkpt lat="47.66865" lon="6.7075">
        <ele>382.4</ele>
        <time>2026-08-30T09:31:53.000Z</time>
      </trkpt>
      <trkpt lat="47.66867" lon="6.70739">
        <ele>382.4</ele>
        <time>2026-08-30T09:31:55.000Z</time>
      </trkpt>
      <trkpt lat="47.66869" lon="6.70731">
        <ele>382.6</ele>
        <time>2026-08-30T09:31:57.000Z</time>
      </trkpt>
      <trkpt lat="47.6687" lon="6.70724">
        <ele>383</ele>
        <time>2026-08-30T09:31:59.000Z</time>
      </trkpt>
      <trkpt lat="47.66871" lon="6.70718">
        <ele>383.4</ele>
        <time>2026-08-30T09:32:01.000Z</time>
      </trkpt>
      <trkpt lat="47.66872" lon="6.70711">
        <ele>383.8</ele>
        <time>2026-08-30T09:32:03.000Z</time>
      </trkpt>
      <trkpt lat="47.66871" lon="6.70705">
        <ele>384.2</ele>
        <time>2026-08-30T09:32:05.000Z</time>
      </trkpt>
      <trkpt lat="47.66871" lon="6.70698">
        <ele>384.6</ele>
        <time>2026-08-30T09:32:07.000Z</time>
      </trkpt>
      <trkpt lat="47.66871" lon="6.7069">
        <ele>385</ele>
        <time>2026-08-30T09:32:09.000Z</time>
      </trkpt>
      <trkpt lat="47.66872" lon="6.7068">
        <ele>385</ele>
        <time>2026-08-30T09:32:11.000Z</time>
      </trkpt>
      <trkpt lat="47.66873" lon="6.70668">
        <ele>384.8</ele>
        <time>2026-08-30T09:32:13.000Z</time>
      </trkpt>
      <trkpt lat="47.66874" lon="6.70655">
        <ele>384.6</ele>
        <time>2026-08-30T09:32:15.000Z</time>
      </trkpt>
      <trkpt lat="47.66876" lon="6.70642">
        <ele>384.4</ele>
        <time>2026-08-30T09:32:17.000Z</time>
      </trkpt>
      <trkpt lat="47.66877" lon="6.70629">
        <ele>384.4</ele>
        <time>2026-08-30T09:32:19.000Z</time>
      </trkpt>
      <trkpt lat="47.66878" lon="6.70615">
        <ele>384.2</ele>
        <time>2026-08-30T09:32:21.000Z</time>
      </trkpt>
      <trkpt lat="47.66877" lon="6.70602">
        <ele>384</ele>
        <time>2026-08-30T09:32:24.000Z</time>
      </trkpt>
      <trkpt lat="47.66876" lon="6.7059">
        <ele>384</ele>
        <time>2026-08-30T09:32:26.000Z</time>
      </trkpt>
      <trkpt lat="47.66873" lon="6.70577">
        <ele>384</ele>
        <time>2026-08-30T09:32:28.000Z</time>
      </trkpt>
      <trkpt lat="47.66869" lon="6.70563">
        <ele>384.2</ele>
        <time>2026-08-30T09:32:30.000Z</time>
      </trkpt>
      <trkpt lat="47.66864" lon="6.7055">
        <ele>384.4</ele>
        <time>2026-08-30T09:32:32.000Z</time>
      </trkpt>
      <trkpt lat="47.66859" lon="6.70538">
        <ele>384.8</ele>
        <time>2026-08-30T09:32:34.000Z</time>
      </trkpt>
      <trkpt lat="47.66855" lon="6.70525">
        <ele>384.8</ele>
        <time>2026-08-30T09:32:36.000Z</time>
      </trkpt>
      <trkpt lat="47.66852" lon="6.70512">
        <ele>384.8</ele>
        <time>2026-08-30T09:32:38.000Z</time>
      </trkpt>
      <trkpt lat="47.6685" lon="6.70497">
        <ele>384.6</ele>
        <time>2026-08-30T09:32:40.000Z</time>
      </trkpt>
      <trkpt lat="47.66848" lon="6.70479">
        <ele>384.2</ele>
        <time>2026-08-30T09:32:42.000Z</time>
      </trkpt>
      <trkpt lat="47.66848" lon="6.70461">
        <ele>383.8</ele>
        <time>2026-08-30T09:32:44.000Z</time>
      </trkpt>
      <trkpt lat="47.66849" lon="6.70441">
        <ele>383.4</ele>
        <time>2026-08-30T09:32:46.000Z</time>
      </trkpt>
      <trkpt lat="47.66849" lon="6.70421">
        <ele>383</ele>
        <time>2026-08-30T09:32:48.000Z</time>
      </trkpt>
      <trkpt lat="47.66844" lon="6.70399">
        <ele>383</ele>
        <time>2026-08-30T09:32:50.000Z</time>
      </trkpt>
      <trkpt lat="47.66834" lon="6.7038">
        <ele>383</ele>
        <time>2026-08-30T09:32:52.000Z</time>
      </trkpt>
      <trkpt lat="47.66824" lon="6.70369">
        <ele>383.2</ele>
        <time>2026-08-30T09:32:54.000Z</time>
      </trkpt>
      <trkpt lat="47.66814" lon="6.70362">
        <ele>383.6</ele>
        <time>2026-08-30T09:32:56.000Z</time>
      </trkpt>
      <trkpt lat="47.66806" lon="6.70357">
        <ele>384</ele>
        <time>2026-08-30T09:32:58.000Z</time>
      </trkpt>
      <trkpt lat="47.66797" lon="6.70354">
        <ele>384.4</ele>
        <time>2026-08-30T09:33:00.000Z</time>
      </trkpt>
      <trkpt lat="47.66787" lon="6.70352">
        <ele>384.8</ele>
        <time>2026-08-30T09:33:02.000Z</time>
      </trkpt>
      <trkpt lat="47.66777" lon="6.70351">
        <ele>385.4</ele>
        <time>2026-08-30T09:33:04.000Z</time>
      </trkpt>
      <trkpt lat="47.66767" lon="6.70346">
        <ele>385.8</ele>
        <time>2026-08-30T09:33:06.000Z</time>
      </trkpt>
      <trkpt lat="47.66759" lon="6.7034">
        <ele>386.2</ele>
        <time>2026-08-30T09:33:08.000Z</time>
      </trkpt>
      <trkpt lat="47.6675" lon="6.70333">
        <ele>386.6</ele>
        <time>2026-08-30T09:33:10.000Z</time>
      </trkpt>
      <trkpt lat="47.66744" lon="6.7033">
        <ele>387</ele>
        <time>2026-08-30T09:33:12.000Z</time>
      </trkpt>
      <trkpt lat="47.66738" lon="6.70329">
        <ele>387.6</ele>
        <time>2026-08-30T09:33:14.000Z</time>
      </trkpt>
      <trkpt lat="47.66732" lon="6.7033">
        <ele>388.2</ele>
        <time>2026-08-30T09:33:16.000Z</time>
      </trkpt>
      <trkpt lat="47.66726" lon="6.70331">
        <ele>388.8</ele>
        <time>2026-08-30T09:33:18.000Z</time>
      </trkpt>
      <trkpt lat="47.66721" lon="6.7033">
        <ele>389.2</ele>
        <time>2026-08-30T09:33:20.000Z</time>
      </trkpt>
      <trkpt lat="47.66715" lon="6.70328">
        <ele>389.6</ele>
        <time>2026-08-30T09:33:22.000Z</time>
      </trkpt>
      <trkpt lat="47.66709" lon="6.70325">
        <ele>390</ele>
        <time>2026-08-30T09:33:24.000Z</time>
      </trkpt>
      <trkpt lat="47.66702" lon="6.7032">
        <ele>390</ele>
        <time>2026-08-30T09:33:26.000Z</time>
      </trkpt>
      <trkpt lat="47.66694" lon="6.70315">
        <ele>390</ele>
        <time>2026-08-30T09:33:28.000Z</time>
      </trkpt>
      <trkpt lat="47.66685" lon="6.7031">
        <ele>390</ele>
        <time>2026-08-30T09:33:30.000Z</time>
      </trkpt>
      <trkpt lat="47.66677" lon="6.70305">
        <ele>390</ele>
        <time>2026-08-30T09:33:32.000Z</time>
      </trkpt>
      <trkpt lat="47.6667" lon="6.70298">
        <ele>390</ele>
        <time>2026-08-30T09:33:34.000Z</time>
      </trkpt>
      <trkpt lat="47.66664" lon="6.70292">
        <ele>390.2</ele>
        <time>2026-08-30T09:33:36.000Z</time>
      </trkpt>
      <trkpt lat="47.66658" lon="6.70285">
        <ele>390.4</ele>
        <time>2026-08-30T09:33:39.000Z</time>
      </trkpt>
      <trkpt lat="47.66652" lon="6.70277">
        <ele>390.6</ele>
        <time>2026-08-30T09:33:41.000Z</time>
      </trkpt>
      <trkpt lat="47.66648" lon="6.70269">
        <ele>391</ele>
        <time>2026-08-30T09:33:43.000Z</time>
      </trkpt>
      <trkpt lat="47.66644" lon="6.70262">
        <ele>391.2</ele>
        <time>2026-08-30T09:33:45.000Z</time>
      </trkpt>
      <trkpt lat="47.66638" lon="6.70256">
        <ele>391.4</ele>
        <time>2026-08-30T09:33:47.000Z</time>
      </trkpt>
      <trkpt lat="47.66632" lon="6.7025">
        <ele>391.8</ele>
        <time>2026-08-30T09:33:49.000Z</time>
      </trkpt>
      <trkpt lat="47.66626" lon="6.70243">
        <ele>392</ele>
        <time>2026-08-30T09:33:51.000Z</time>
      </trkpt>
      <trkpt lat="47.66621" lon="6.70238">
        <ele>392.2</ele>
        <time>2026-08-30T09:33:53.000Z</time>
      </trkpt>
      <trkpt lat="47.66617" lon="6.70234">
        <ele>392.6</ele>
        <time>2026-08-30T09:33:55.000Z</time>
      </trkpt>
      <trkpt lat="47.66614" lon="6.7023">
        <ele>392.8</ele>
        <time>2026-08-30T09:33:57.000Z</time>
      </trkpt>
      <trkpt lat="47.66609" lon="6.70226">
        <ele>393</ele>
        <time>2026-08-30T09:33:59.000Z</time>
      </trkpt>
      <trkpt lat="47.66604" lon="6.70221">
        <ele>393.2</ele>
        <time>2026-08-30T09:34:01.000Z</time>
      </trkpt>
      <trkpt lat="47.66599" lon="6.70217">
        <ele>393.6</ele>
        <time>2026-08-30T09:34:03.000Z</time>
      </trkpt>
      <trkpt lat="47.66593" lon="6.70212">
        <ele>393.8</ele>
        <time>2026-08-30T09:34:05.000Z</time>
      </trkpt>
      <trkpt lat="47.66588" lon="6.70208">
        <ele>394</ele>
        <time>2026-08-30T09:34:07.000Z</time>
      </trkpt>
      <trkpt lat="47.66583" lon="6.70203">
        <ele>394.4</ele>
        <time>2026-08-30T09:34:09.000Z</time>
      </trkpt>
      <trkpt lat="47.66579" lon="6.70198">
        <ele>394.6</ele>
        <time>2026-08-30T09:34:11.000Z</time>
      </trkpt>
      <trkpt lat="47.66575" lon="6.70193">
        <ele>395</ele>
        <time>2026-08-30T09:34:13.000Z</time>
      </trkpt>
      <trkpt lat="47.66572" lon="6.70189">
        <ele>395.2</ele>
        <time>2026-08-30T09:34:15.000Z</time>
      </trkpt>
      <trkpt lat="47.6657" lon="6.70184">
        <ele>395.6</ele>
        <time>2026-08-30T09:34:17.000Z</time>
      </trkpt>
      <trkpt lat="47.66568" lon="6.7018">
        <ele>395.8</ele>
        <time>2026-08-30T09:34:19.000Z</time>
      </trkpt>
      <trkpt lat="47.66566" lon="6.70176">
        <ele>396.2</ele>
        <time>2026-08-30T09:34:21.000Z</time>
      </trkpt>
      <trkpt lat="47.66563" lon="6.70173">
        <ele>396.6</ele>
        <time>2026-08-30T09:34:23.000Z</time>
      </trkpt>
      <trkpt lat="47.66561" lon="6.70169">
        <ele>397</ele>
        <time>2026-08-30T09:34:25.000Z</time>
      </trkpt>
      <trkpt lat="47.66558" lon="6.70165">
        <ele>397.4</ele>
        <time>2026-08-30T09:34:27.000Z</time>
      </trkpt>
      <trkpt lat="47.66556" lon="6.70163">
        <ele>397.8</ele>
        <time>2026-08-30T09:34:29.000Z</time>
      </trkpt>
      <trkpt lat="47.66553" lon="6.70159">
        <ele>398.4</ele>
        <time>2026-08-30T09:34:31.000Z</time>
      </trkpt>
      <trkpt lat="47.6655" lon="6.70155">
        <ele>398.8</ele>
        <time>2026-08-30T09:34:33.000Z</time>
      </trkpt>
      <trkpt lat="47.66548" lon="6.70152">
        <ele>399.2</ele>
        <time>2026-08-30T09:34:35.000Z</time>
      </trkpt>
      <trkpt lat="47.66545" lon="6.7015">
        <ele>399.6</ele>
        <time>2026-08-30T09:34:37.000Z</time>
      </trkpt>
      <trkpt lat="47.66542" lon="6.70149">
        <ele>400.2</ele>
        <time>2026-08-30T09:34:39.000Z</time>
      </trkpt>
      <trkpt lat="47.66539" lon="6.70147">
        <ele>400.6</ele>
        <time>2026-08-30T09:34:41.000Z</time>
      </trkpt>
      <trkpt lat="47.66536" lon="6.70145">
        <ele>401</ele>
        <time>2026-08-30T09:34:43.000Z</time>
      </trkpt>
      <trkpt lat="47.66533" lon="6.70142">
        <ele>401.4</ele>
        <time>2026-08-30T09:34:45.000Z</time>
      </trkpt>
      <trkpt lat="47.66531" lon="6.7014">
        <ele>401.8</ele>
        <time>2026-08-30T09:34:47.000Z</time>
      </trkpt>
      <trkpt lat="47.66528" lon="6.70137">
        <ele>402.2</ele>
        <time>2026-08-30T09:34:49.000Z</time>
      </trkpt>
      <trkpt lat="47.66526" lon="6.70134">
        <ele>402.4</ele>
        <time>2026-08-30T09:34:51.000Z</time>
      </trkpt>
      <trkpt lat="47.66523" lon="6.70131">
        <ele>402.8</ele>
        <time>2026-08-30T09:34:53.000Z</time>
      </trkpt>
      <trkpt lat="47.6652" lon="6.70128">
        <ele>403.2</ele>
        <time>2026-08-30T09:34:55.000Z</time>
      </trkpt>
      <trkpt lat="47.66518" lon="6.70125">
        <ele>403.6</ele>
        <time>2026-08-30T09:34:57.000Z</time>
      </trkpt>
      <trkpt lat="47.66516" lon="6.70121">
        <ele>404</ele>
        <time>2026-08-30T09:34:59.000Z</time>
      </trkpt>
      <trkpt lat="47.66515" lon="6.70117">
        <ele>404.6</ele>
        <time>2026-08-30T09:35:01.000Z</time>
      </trkpt>
      <trkpt lat="47.66513" lon="6.70112">
        <ele>405</ele>
        <time>2026-08-30T09:35:03.000Z</time>
      </trkpt>
      <trkpt lat="47.66511" lon="6.70108">
        <ele>405.2</ele>
        <time>2026-08-30T09:35:05.000Z</time>
      </trkpt>
      <trkpt lat="47.66509" lon="6.70105">
        <ele>405.6</ele>
        <time>2026-08-30T09:35:07.000Z</time>
      </trkpt>
      <trkpt lat="47.66507" lon="6.70101">
        <ele>405.8</ele>
        <time>2026-08-30T09:35:09.000Z</time>
      </trkpt>
      <trkpt lat="47.66505" lon="6.70096">
        <ele>406</ele>
        <time>2026-08-30T09:35:11.000Z</time>
      </trkpt>
      <trkpt lat="47.66503" lon="6.70093">
        <ele>406.4</ele>
        <time>2026-08-30T09:35:13.000Z</time>
      </trkpt>
      <trkpt lat="47.66501" lon="6.70089">
        <ele>406.8</ele>
        <time>2026-08-30T09:35:15.000Z</time>
      </trkpt>
      <trkpt lat="47.66499" lon="6.70085">
        <ele>407.4</ele>
        <time>2026-08-30T09:35:17.000Z</time>
      </trkpt>
      <trkpt lat="47.66496" lon="6.70082">
        <ele>407.8</ele>
        <time>2026-08-30T09:35:19.000Z</time>
      </trkpt>
      <trkpt lat="47.66494" lon="6.70078">
        <ele>408.2</ele>
        <time>2026-08-30T09:35:21.000Z</time>
      </trkpt>
      <trkpt lat="47.66492" lon="6.70075">
        <ele>408.6</ele>
        <time>2026-08-30T09:35:23.000Z</time>
      </trkpt>
      <trkpt lat="47.6649" lon="6.70071">
        <ele>409.2</ele>
        <time>2026-08-30T09:35:25.000Z</time>
      </trkpt>
      <trkpt lat="47.66488" lon="6.70068">
        <ele>409.6</ele>
        <time>2026-08-30T09:35:28.000Z</time>
      </trkpt>
      <trkpt lat="47.66486" lon="6.70065">
        <ele>410.2</ele>
        <time>2026-08-30T09:35:30.000Z</time>
      </trkpt>
      <trkpt lat="47.66484" lon="6.70062">
        <ele>410.6</ele>
        <time>2026-08-30T09:35:32.000Z</time>
      </trkpt>
      <trkpt lat="47.66482" lon="6.70058">
        <ele>411.2</ele>
        <time>2026-08-30T09:35:34.000Z</time>
      </trkpt>
      <trkpt lat="47.66481" lon="6.70054">
        <ele>411.8</ele>
        <time>2026-08-30T09:35:36.000Z</time>
      </trkpt>
      <trkpt lat="47.66479" lon="6.70049">
        <ele>412.4</ele>
        <time>2026-08-30T09:35:38.000Z</time>
      </trkpt>
      <trkpt lat="47.66476" lon="6.70045">
        <ele>413</ele>
        <time>2026-08-30T09:35:40.000Z</time>
      </trkpt>
      <trkpt lat="47.66474" lon="6.7004">
        <ele>413.6</ele>
        <time>2026-08-30T09:35:42.000Z</time>
      </trkpt>
      <trkpt lat="47.66471" lon="6.70037">
        <ele>414.2</ele>
        <time>2026-08-30T09:35:44.000Z</time>
      </trkpt>
      <trkpt lat="47.66469" lon="6.70033">
        <ele>414.6</ele>
        <time>2026-08-30T09:35:46.000Z</time>
      </trkpt>
      <trkpt lat="47.66467" lon="6.70029">
        <ele>415</ele>
        <time>2026-08-30T09:35:48.000Z</time>
      </trkpt>
      <trkpt lat="47.66467" lon="6.70024">
        <ele>415.2</ele>
        <time>2026-08-30T09:35:50.000Z</time>
      </trkpt>
      <trkpt lat="47.66468" lon="6.70017">
        <ele>415.2</ele>
        <time>2026-08-30T09:35:52.000Z</time>
      </trkpt>
      <trkpt lat="47.6647" lon="6.70008">
        <ele>415.2</ele>
        <time>2026-08-30T09:35:54.000Z</time>
      </trkpt>
      <trkpt lat="47.6647" lon="6.69998">
        <ele>415</ele>
        <time>2026-08-30T09:35:56.000Z</time>
      </trkpt>
      <trkpt lat="47.66461" lon="6.6998">
        <ele>414.2</ele>
        <time>2026-08-30T09:35:58.000Z</time>
      </trkpt>
      <trkpt lat="47.6645" lon="6.69961">
        <ele>413</ele>
        <time>2026-08-30T09:36:00.000Z</time>
      </trkpt>
      <trkpt lat="47.66438" lon="6.69937">
        <ele>411</ele>
        <time>2026-08-30T09:36:02.000Z</time>
      </trkpt>
      <trkpt lat="47.66423" lon="6.69911">
        <ele>408.8</ele>
        <time>2026-08-30T09:36:04.000Z</time>
      </trkpt>
      <trkpt lat="47.66407" lon="6.69888">
        <ele>406.6</ele>
        <time>2026-08-30T09:36:06.000Z</time>
      </trkpt>
      <trkpt lat="47.6639" lon="6.69872">
        <ele>404</ele>
        <time>2026-08-30T09:36:08.000Z</time>
      </trkpt>
      <trkpt lat="47.66372" lon="6.69864">
        <ele>401.6</ele>
        <time>2026-08-30T09:36:10.000Z</time>
      </trkpt>
      <trkpt lat="47.66353" lon="6.69859">
        <ele>399.2</ele>
        <time>2026-08-30T09:36:12.000Z</time>
      </trkpt>
      <trkpt lat="47.66332" lon="6.69856">
        <ele>396.4</ele>
        <time>2026-08-30T09:36:14.000Z</time>
      </trkpt>
      <trkpt lat="47.66312" lon="6.69857">
        <ele>394.6</ele>
        <time>2026-08-30T09:36:16.000Z</time>
      </trkpt>
      <trkpt lat="47.66294" lon="6.6986">
        <ele>393</ele>
        <time>2026-08-30T09:36:18.000Z</time>
      </trkpt>
      <trkpt lat="47.66279" lon="6.69855">
        <ele>391.4</ele>
        <time>2026-08-30T09:36:20.000Z</time>
      </trkpt>
      <trkpt lat="47.66268" lon="6.6984">
        <ele>390.2</ele>
        <time>2026-08-30T09:36:22.000Z</time>
      </trkpt>
      <trkpt lat="47.66258" lon="6.69822">
        <ele>389</ele>
        <time>2026-08-30T09:36:24.000Z</time>
      </trkpt>
      <trkpt lat="47.66247" lon="6.69804">
        <ele>388.2</ele>
        <time>2026-08-30T09:36:26.000Z</time>
      </trkpt>
      <trkpt lat="47.66234" lon="6.69793">
        <ele>387.4</ele>
        <time>2026-08-30T09:36:28.000Z</time>
      </trkpt>
      <trkpt lat="47.6622" lon="6.69785">
        <ele>387</ele>
        <time>2026-08-30T09:36:30.000Z</time>
      </trkpt>
      <trkpt lat="47.66205" lon="6.6978">
        <ele>386.4</ele>
        <time>2026-08-30T09:36:32.000Z</time>
      </trkpt>
      <trkpt lat="47.6619" lon="6.69774">
        <ele>386</ele>
        <time>2026-08-30T09:36:34.000Z</time>
      </trkpt>
      <trkpt lat="47.66175" lon="6.69768">
        <ele>385.4</ele>
        <time>2026-08-30T09:36:36.000Z</time>
      </trkpt>
      <trkpt lat="47.66161" lon="6.69762">
        <ele>384.8</ele>
        <time>2026-08-30T09:36:38.000Z</time>
      </trkpt>
      <trkpt lat="47.66147" lon="6.69755">
        <ele>384.4</ele>
        <time>2026-08-30T09:36:40.000Z</time>
      </trkpt>
      <trkpt lat="47.66134" lon="6.69748">
        <ele>384</ele>
        <time>2026-08-30T09:36:42.000Z</time>
      </trkpt>
      <trkpt lat="47.66121" lon="6.69742">
        <ele>383.6</ele>
        <time>2026-08-30T09:36:44.000Z</time>
      </trkpt>
      <trkpt lat="47.66108" lon="6.69736">
        <ele>383.2</ele>
        <time>2026-08-30T09:36:46.000Z</time>
      </trkpt>
      <trkpt lat="47.66095" lon="6.6973">
        <ele>383.2</ele>
        <time>2026-08-30T09:36:48.000Z</time>
      </trkpt>
      <trkpt lat="47.66082" lon="6.69724">
        <ele>382.8</ele>
        <time>2026-08-30T09:36:50.000Z</time>
      </trkpt>
      <trkpt lat="47.6607" lon="6.69719">
        <ele>382.4</ele>
        <time>2026-08-30T09:36:53.000Z</time>
      </trkpt>
      <trkpt lat="47.6606" lon="6.69711">
        <ele>382.2</ele>
        <time>2026-08-30T09:36:55.000Z</time>
      </trkpt>
      <trkpt lat="47.66054" lon="6.69699">
        <ele>382</ele>
        <time>2026-08-30T09:36:57.000Z</time>
      </trkpt>
      <trkpt lat="47.6605" lon="6.69683">
        <ele>382</ele>
        <time>2026-08-30T09:36:59.000Z</time>
      </trkpt>
      <trkpt lat="47.66047" lon="6.69666">
        <ele>382</ele>
        <time>2026-08-30T09:37:01.000Z</time>
      </trkpt>
      <trkpt lat="47.66041" lon="6.69651">
        <ele>382.2</ele>
        <time>2026-08-30T09:37:03.000Z</time>
      </trkpt>
      <trkpt lat="47.66036" lon="6.69637">
        <ele>382.4</ele>
        <time>2026-08-30T09:37:05.000Z</time>
      </trkpt>
      <trkpt lat="47.66032" lon="6.69629">
        <ele>382.6</ele>
        <time>2026-08-30T09:37:07.000Z</time>
      </trkpt>
      <trkpt lat="47.66027" lon="6.69624">
        <ele>382.8</ele>
        <time>2026-08-30T09:37:09.000Z</time>
      </trkpt>
      <trkpt lat="47.66018" lon="6.69622">
        <ele>382.6</ele>
        <time>2026-08-30T09:37:11.000Z</time>
      </trkpt>
      <trkpt lat="47.66008" lon="6.69623">
        <ele>382.6</ele>
        <time>2026-08-30T09:37:13.000Z</time>
      </trkpt>
      <trkpt lat="47.65997" lon="6.69625">
        <ele>382.4</ele>
        <time>2026-08-30T09:37:15.000Z</time>
      </trkpt>
      <trkpt lat="47.65986" lon="6.69626">
        <ele>382.2</ele>
        <time>2026-08-30T09:37:17.000Z</time>
      </trkpt>
      <trkpt lat="47.65977" lon="6.69626">
        <ele>382.4</ele>
        <time>2026-08-30T09:37:19.000Z</time>
      </trkpt>
      <trkpt lat="47.6597" lon="6.69624">
        <ele>382.8</ele>
        <time>2026-08-30T09:37:21.000Z</time>
      </trkpt>
      <trkpt lat="47.65964" lon="6.69617">
        <ele>382.6</ele>
        <time>2026-08-30T09:37:23.000Z</time>
      </trkpt>
      <trkpt lat="47.65959" lon="6.69606">
        <ele>381.8</ele>
        <time>2026-08-30T09:37:25.000Z</time>
      </trkpt>
      <trkpt lat="47.6595" lon="6.69597">
        <ele>381.2</ele>
        <time>2026-08-30T09:37:27.000Z</time>
      </trkpt>
      <trkpt lat="47.65937" lon="6.69594">
        <ele>380.6</ele>
        <time>2026-08-30T09:37:29.000Z</time>
      </trkpt>
      <trkpt lat="47.65925" lon="6.6959">
        <ele>380</ele>
        <time>2026-08-30T09:37:31.000Z</time>
      </trkpt>
      <trkpt lat="47.65917" lon="6.69581">
        <ele>379.6</ele>
        <time>2026-08-30T09:37:33.000Z</time>
      </trkpt>
      <trkpt lat="47.65916" lon="6.69569">
        <ele>379.4</ele>
        <time>2026-08-30T09:37:35.000Z</time>
      </trkpt>
      <trkpt lat="47.65913" lon="6.69554">
        <ele>379.4</ele>
        <time>2026-08-30T09:37:37.000Z</time>
      </trkpt>
      <trkpt lat="47.65908" lon="6.69546">
        <ele>379.6</ele>
        <time>2026-08-30T09:37:39.000Z</time>
      </trkpt>
      <trkpt lat="47.65903" lon="6.6955">
        <ele>380.2</ele>
        <time>2026-08-30T09:37:41.000Z</time>
      </trkpt>
      <trkpt lat="47.65903" lon="6.69561">
        <ele>380.8</ele>
        <time>2026-08-30T09:37:43.000Z</time>
      </trkpt>
      <trkpt lat="47.65904" lon="6.69574">
        <ele>381.8</ele>
        <time>2026-08-30T09:37:45.000Z</time>
      </trkpt>
      <trkpt lat="47.65905" lon="6.69586">
        <ele>382.6</ele>
        <time>2026-08-30T09:37:47.000Z</time>
      </trkpt>
      <trkpt lat="47.65904" lon="6.69596">
        <ele>383.2</ele>
        <time>2026-08-30T09:37:49.000Z</time>
      </trkpt>
      <trkpt lat="47.65902" lon="6.69604">
        <ele>383.6</ele>
        <time>2026-08-30T09:37:51.000Z</time>
      </trkpt>
      <trkpt lat="47.659" lon="6.69613">
        <ele>384</ele>
        <time>2026-08-30T09:37:53.000Z</time>
      </trkpt>
      <trkpt lat="47.65898" lon="6.69623">
        <ele>384.4</ele>
        <time>2026-08-30T09:37:55.000Z</time>
      </trkpt>
      <trkpt lat="47.65895" lon="6.69632">
        <ele>384.6</ele>
        <time>2026-08-30T09:37:57.000Z</time>
      </trkpt>
      <trkpt lat="47.6589" lon="6.6964">
        <ele>385</ele>
        <time>2026-08-30T09:37:59.000Z</time>
      </trkpt>
      <trkpt lat="47.65886" lon="6.69646">
        <ele>385.2</ele>
        <time>2026-08-30T09:38:01.000Z</time>
      </trkpt>
      <trkpt lat="47.65881" lon="6.69652">
        <ele>385.6</ele>
        <time>2026-08-30T09:38:03.000Z</time>
      </trkpt>
      <trkpt lat="47.65876" lon="6.69656">
        <ele>386</ele>
        <time>2026-08-30T09:38:05.000Z</time>
      </trkpt>
      <trkpt lat="47.65871" lon="6.6966">
        <ele>386.4</ele>
        <time>2026-08-30T09:38:07.000Z</time>
      </trkpt>
      <trkpt lat="47.65866" lon="6.69664">
        <ele>386.8</ele>
        <time>2026-08-30T09:38:09.000Z</time>
      </trkpt>
      <trkpt lat="47.65862" lon="6.69669">
        <ele>387.2</ele>
        <time>2026-08-30T09:38:11.000Z</time>
      </trkpt>
      <trkpt lat="47.65858" lon="6.69675">
        <ele>387.4</ele>
        <time>2026-08-30T09:38:13.000Z</time>
      </trkpt>
      <trkpt lat="47.65854" lon="6.6968">
        <ele>387.6</ele>
        <time>2026-08-30T09:38:15.000Z</time>
      </trkpt>
      <trkpt lat="47.6585" lon="6.69685">
        <ele>387.8</ele>
        <time>2026-08-30T09:38:17.000Z</time>
      </trkpt>
      <trkpt lat="47.65846" lon="6.69691">
        <ele>388</ele>
        <time>2026-08-30T09:38:19.000Z</time>
      </trkpt>
      <trkpt lat="47.65843" lon="6.69698">
        <ele>388.2</ele>
        <time>2026-08-30T09:38:21.000Z</time>
      </trkpt>
      <trkpt lat="47.65839" lon="6.69706">
        <ele>388.4</ele>
        <time>2026-08-30T09:38:23.000Z</time>
      </trkpt>
      <trkpt lat="47.65835" lon="6.69714">
        <ele>388.6</ele>
        <time>2026-08-30T09:38:25.000Z</time>
      </trkpt>
      <trkpt lat="47.65831" lon="6.69723">
        <ele>388.6</ele>
        <time>2026-08-30T09:38:27.000Z</time>
      </trkpt>
      <trkpt lat="47.65826" lon="6.69732">
        <ele>388.4</ele>
        <time>2026-08-30T09:38:29.000Z</time>
      </trkpt>
      <trkpt lat="47.6582" lon="6.69742">
        <ele>388.2</ele>
        <time>2026-08-30T09:38:31.000Z</time>
      </trkpt>
      <trkpt lat="47.65813" lon="6.69752">
        <ele>388</ele>
        <time>2026-08-30T09:38:33.000Z</time>
      </trkpt>
      <trkpt lat="47.65806" lon="6.69761">
        <ele>387.8</ele>
        <time>2026-08-30T09:38:36.000Z</time>
      </trkpt>
      <trkpt lat="47.65798" lon="6.69769">
        <ele>387.6</ele>
        <time>2026-08-30T09:38:38.000Z</time>
      </trkpt>
      <trkpt lat="47.6579" lon="6.69777">
        <ele>387.4</ele>
        <time>2026-08-30T09:38:40.000Z</time>
      </trkpt>
      <trkpt lat="47.65783" lon="6.69784">
        <ele>387.4</ele>
        <time>2026-08-30T09:38:42.000Z</time>
      </trkpt>
      <trkpt lat="47.65775" lon="6.6979">
        <ele>387.6</ele>
        <time>2026-08-30T09:38:44.000Z</time>
      </trkpt>
      <trkpt lat="47.65766" lon="6.69796">
        <ele>387.4</ele>
        <time>2026-08-30T09:38:46.000Z</time>
      </trkpt>
      <trkpt lat="47.65758" lon="6.69804">
        <ele>387</ele>
        <time>2026-08-30T09:38:48.000Z</time>
      </trkpt>
      <trkpt lat="47.65752" lon="6.69817">
        <ele>387</ele>
        <time>2026-08-30T09:38:50.000Z</time>
      </trkpt>
      <trkpt lat="47.65747" lon="6.69829">
        <ele>387.2</ele>
        <time>2026-08-30T09:38:52.000Z</time>
      </trkpt>
      <trkpt lat="47.65742" lon="6.6984">
        <ele>387.4</ele>
        <time>2026-08-30T09:38:54.000Z</time>
      </trkpt>
      <trkpt lat="47.65737" lon="6.6985">
        <ele>387.6</ele>
        <time>2026-08-30T09:38:56.000Z</time>
      </trkpt>
      <trkpt lat="47.65731" lon="6.69859">
        <ele>387.8</ele>
        <time>2026-08-30T09:38:58.000Z</time>
      </trkpt>
      <trkpt lat="47.65726" lon="6.69869">
        <ele>387.8</ele>
        <time>2026-08-30T09:39:00.000Z</time>
      </trkpt>
      <trkpt lat="47.65719" lon="6.69885">
        <ele>387.8</ele>
        <time>2026-08-30T09:39:02.000Z</time>
      </trkpt>
      <trkpt lat="47.65715" lon="6.699">
        <ele>387.4</ele>
        <time>2026-08-30T09:39:04.000Z</time>
      </trkpt>
      <trkpt lat="47.6571" lon="6.69916">
        <ele>386.6</ele>
        <time>2026-08-30T09:39:06.000Z</time>
      </trkpt>
      <trkpt lat="47.65702" lon="6.69935">
        <ele>385.6</ele>
        <time>2026-08-30T09:39:08.000Z</time>
      </trkpt>
      <trkpt lat="47.65694" lon="6.69947">
        <ele>384.4</ele>
        <time>2026-08-30T09:39:10.000Z</time>
      </trkpt>
      <trkpt lat="47.65688" lon="6.69953">
        <ele>383.6</ele>
        <time>2026-08-30T09:39:12.000Z</time>
      </trkpt>
      <trkpt lat="47.65683" lon="6.69956">
        <ele>383</ele>
        <time>2026-08-30T09:39:14.000Z</time>
      </trkpt>
      <trkpt lat="47.65681" lon="6.69958">
        <ele>382.6</ele>
        <time>2026-08-30T09:39:16.000Z</time>
      </trkpt>
      <trkpt lat="47.65681" lon="6.69958">
        <ele>382.2</ele>
        <time>2026-08-30T09:39:18.000Z</time>
      </trkpt>
      <trkpt lat="47.65681" lon="6.69959">
        <ele>382</ele>
        <time>2026-08-30T09:39:20.000Z</time>
      </trkpt>
      <trkpt lat="47.65681" lon="6.69959">
        <ele>382</ele>
        <time>2026-08-30T09:39:22.000Z</time>
      </trkpt>
      <trkpt lat="47.65681" lon="6.69959">
        <ele>382</ele>
        <time>2026-08-30T09:39:24.000Z</time>
      </trkpt>
      <trkpt lat="47.6568" lon="6.6996">
        <ele>382</ele>
        <time>2026-08-30T09:39:26.000Z</time>
      </trkpt>
      <trkpt lat="47.6568" lon="6.69961">
        <ele>382</ele>
        <time>2026-08-30T09:39:28.000Z</time>
      </trkpt>
      <trkpt lat="47.65679" lon="6.69962">
        <ele>382</ele>
        <time>2026-08-30T09:39:30.000Z</time>
      </trkpt>
      <trkpt lat="47.65678" lon="6.69962">
        <ele>382</ele>
        <time>2026-08-30T09:39:32.000Z</time>
      </trkpt>
      <trkpt lat="47.65678" lon="6.6996">
        <ele>382</ele>
        <time>2026-08-30T09:39:34.000Z</time>
      </trkpt>
      <trkpt lat="47.65678" lon="6.69958">
        <ele>382</ele>
        <time>2026-08-30T09:39:36.000Z</time>
      </trkpt>
      <trkpt lat="47.65677" lon="6.69958">
        <ele>382</ele>
        <time>2026-08-30T09:39:38.000Z</time>
      </trkpt>
      <trkpt lat="47.65677" lon="6.69957">
        <ele>382.2</ele>
        <time>2026-08-30T09:39:40.000Z</time>
      </trkpt>
      <trkpt lat="47.65676" lon="6.69956">
        <ele>382.2</ele>
        <time>2026-08-30T09:39:42.000Z</time>
      </trkpt>
      <trkpt lat="47.65676" lon="6.69956">
        <ele>382.2</ele>
        <time>2026-08-30T09:39:44.000Z</time>
      </trkpt>
      <trkpt lat="47.65676" lon="6.69956">
        <ele>382.4</ele>
        <time>2026-08-30T09:39:46.000Z</time>
      </trkpt>
      <trkpt lat="47.65676" lon="6.69956">
        <ele>382.4</ele>
        <time>2026-08-30T09:39:48.000Z</time>
      </trkpt>
      <trkpt lat="47.65675" lon="6.69956">
        <ele>382.4</ele>
        <time>2026-08-30T09:39:50.000Z</time>
      </trkpt>
      <trkpt lat="47.65674" lon="6.69955">
        <ele>382.6</ele>
        <time>2026-08-30T09:39:52.000Z</time>
      </trkpt>
      <trkpt lat="47.65674" lon="6.69955">
        <ele>382.6</ele>
        <time>2026-08-30T09:39:54.000Z</time>
      </trkpt>
      <trkpt lat="47.65674" lon="6.69955">
        <ele>382.6</ele>
        <time>2026-08-30T09:39:56.000Z</time>
      </trkpt>
      <trkpt lat="47.65674" lon="6.69955">
        <ele>382.6</ele>
        <time>2026-08-30T09:39:58.000Z</time>
      </trkpt>
      <trkpt lat="47.65674" lon="6.69956">
        <ele>382.6</ele>
        <time>2026-08-30T09:40:00.000Z</time>
      </trkpt>
      <trkpt lat="47.65674" lon="6.69956">
        <ele>382.6</ele>
        <time>2026-08-30T09:40:03.000Z</time>
      </trkpt>
      <trkpt lat="47.65674" lon="6.69956">
        <ele>382.6</ele>
        <time>2026-08-30T09:40:05.000Z</time>
      </trkpt>
      <trkpt lat="47.65674" lon="6.69955">
        <ele>382.6</ele>
        <time>2026-08-30T09:40:07.000Z</time>
      </trkpt>
      <trkpt lat="47.65674" lon="6.69953">
        <ele>382.8</ele>
        <time>2026-08-30T09:40:09.000Z</time>
      </trkpt>
      <trkpt lat="47.65674" lon="6.6995">
        <ele>383</ele>
        <time>2026-08-30T09:40:11.000Z</time>
      </trkpt>
      <trkpt lat="47.65673" lon="6.69946">
        <ele>383.6</ele>
        <time>2026-08-30T09:40:13.000Z</time>
      </trkpt>
      <trkpt lat="47.65673" lon="6.69941">
        <ele>384.2</ele>
        <time>2026-08-30T09:40:15.000Z</time>
      </trkpt>
      <trkpt lat="47.65673" lon="6.69936">
        <ele>384.8</ele>
        <time>2026-08-30T09:40:17.000Z</time>
      </trkpt>
      <trkpt lat="47.65674" lon="6.69931">
        <ele>385.6</ele>
        <time>2026-08-30T09:40:19.000Z</time>
      </trkpt>
      <trkpt lat="47.65675" lon="6.69927">
        <ele>386.2</ele>
        <time>2026-08-30T09:40:21.000Z</time>
      </trkpt>
      <trkpt lat="47.65676" lon="6.69923">
        <ele>387</ele>
        <time>2026-08-30T09:40:23.000Z</time>
      </trkpt>
      <trkpt lat="47.65676" lon="6.69921">
        <ele>387.4</ele>
        <time>2026-08-30T09:40:25.000Z</time>
      </trkpt>
      <trkpt lat="47.65677" lon="6.69919">
        <ele>388</ele>
        <time>2026-08-30T09:40:27.000Z</time>
      </trkpt>
      <trkpt lat="47.65677" lon="6.69916">
        <ele>388.6</ele>
        <time>2026-08-30T09:40:29.000Z</time>
      </trkpt>
      <trkpt lat="47.65677" lon="6.69914">
        <ele>389</ele>
        <time>2026-08-30T09:40:31.000Z</time>
      </trkpt>
      <trkpt lat="47.65677" lon="6.6991">
        <ele>389.4</ele>
        <time>2026-08-30T09:40:33.000Z</time>
      </trkpt>
      <trkpt lat="47.65677" lon="6.69909">
        <ele>389.6</ele>
        <time>2026-08-30T09:40:35.000Z</time>
      </trkpt>
      <trkpt lat="47.65677" lon="6.69907">
        <ele>390</ele>
        <time>2026-08-30T09:40:37.000Z</time>
      </trkpt>
      <trkpt lat="47.65677" lon="6.69905">
        <ele>390</ele>
        <time>2026-08-30T09:40:39.000Z</time>
      </trkpt>
      <trkpt lat="47.65677" lon="6.69904">
        <ele>390.2</ele>
        <time>2026-08-30T09:40:41.000Z</time>
      </trkpt>
      <trkpt lat="47.65676" lon="6.69903">
        <ele>390.4</ele>
        <time>2026-08-30T09:40:43.000Z</time>
      </trkpt>
      <trkpt lat="47.65675" lon="6.69901">
        <ele>390.6</ele>
        <time>2026-08-30T09:40:45.000Z</time>
      </trkpt>
      <trkpt lat="47.65675" lon="6.69899">
        <ele>390.8</ele>
        <time>2026-08-30T09:40:47.000Z</time>
      </trkpt>
      <trkpt lat="47.65675" lon="6.69898">
        <ele>390.8</ele>
        <time>2026-08-30T09:40:49.000Z</time>
      </trkpt>
      <trkpt lat="47.65676" lon="6.69897">
        <ele>391</ele>
        <time>2026-08-30T09:40:51.000Z</time>
      </trkpt>
      <trkpt lat="47.65676" lon="6.69894">
        <ele>391.2</ele>
        <time>2026-08-30T09:40:53.000Z</time>
      </trkpt>
      <trkpt lat="47.65677" lon="6.6989">
        <ele>391.6</ele>
        <time>2026-08-30T09:40:55.000Z</time>
      </trkpt>
      <trkpt lat="47.65677" lon="6.69886">
        <ele>392</ele>
        <time>2026-08-30T09:40:57.000Z</time>
      </trkpt>
      <trkpt lat="47.65676" lon="6.69882">
        <ele>392.4</ele>
        <time>2026-08-30T09:40:59.000Z</time>
      </trkpt>
      <trkpt lat="47.65676" lon="6.69878">
        <ele>392.8</ele>
        <time>2026-08-30T09:41:01.000Z</time>
      </trkpt>
      <trkpt lat="47.65675" lon="6.69874">
        <ele>393.2</ele>
        <time>2026-08-30T09:41:03.000Z</time>
      </trkpt>
      <trkpt lat="47.65673" lon="6.6987">
        <ele>393.6</ele>
        <time>2026-08-30T09:41:05.000Z</time>
      </trkpt>
      <trkpt lat="47.65672" lon="6.69867">
        <ele>394.2</ele>
        <time>2026-08-30T09:41:07.000Z</time>
      </trkpt>
      <trkpt lat="47.65671" lon="6.69863">
        <ele>394.6</ele>
        <time>2026-08-30T09:41:09.000Z</time>
      </trkpt>
      <trkpt lat="47.6567" lon="6.6986">
        <ele>395</ele>
        <time>2026-08-30T09:41:11.000Z</time>
      </trkpt>
      <trkpt lat="47.65669" lon="6.69857">
        <ele>395.4</ele>
        <time>2026-08-30T09:41:13.000Z</time>
      </trkpt>
      <trkpt lat="47.65667" lon="6.69854">
        <ele>396</ele>
        <time>2026-08-30T09:41:15.000Z</time>
      </trkpt>
      <trkpt lat="47.65667" lon="6.69851">
        <ele>396.4</ele>
        <time>2026-08-30T09:41:17.000Z</time>
      </trkpt>
      <trkpt lat="47.65666" lon="6.69848">
        <ele>396.8</ele>
        <time>2026-08-30T09:41:19.000Z</time>
      </trkpt>
      <trkpt lat="47.65666" lon="6.69844">
        <ele>397.2</ele>
        <time>2026-08-30T09:41:21.000Z</time>
      </trkpt>
      <trkpt lat="47.65665" lon="6.69841">
        <ele>397.6</ele>
        <time>2026-08-30T09:41:23.000Z</time>
      </trkpt>
      <trkpt lat="47.65664" lon="6.69838">
        <ele>397.8</ele>
        <time>2026-08-30T09:41:25.000Z</time>
      </trkpt>
      <trkpt lat="47.65663" lon="6.69834">
        <ele>398.2</ele>
        <time>2026-08-30T09:41:27.000Z</time>
      </trkpt>
      <trkpt lat="47.65663" lon="6.69831">
        <ele>398.6</ele>
        <time>2026-08-30T09:41:29.000Z</time>
      </trkpt>
      <trkpt lat="47.65661" lon="6.69827">
        <ele>399</ele>
        <time>2026-08-30T09:41:31.000Z</time>
      </trkpt>
      <trkpt lat="47.6566" lon="6.69823">
        <ele>399.4</ele>
        <time>2026-08-30T09:41:33.000Z</time>
      </trkpt>
      <trkpt lat="47.6566" lon="6.69819">
        <ele>399.8</ele>
        <time>2026-08-30T09:41:35.000Z</time>
      </trkpt>
      <trkpt lat="47.65658" lon="6.69814">
        <ele>400.2</ele>
        <time>2026-08-30T09:41:37.000Z</time>
      </trkpt>
      <trkpt lat="47.65657" lon="6.6981">
        <ele>400.4</ele>
        <time>2026-08-30T09:41:39.000Z</time>
      </trkpt>
      <trkpt lat="47.65657" lon="6.69806">
        <ele>400.8</ele>
        <time>2026-08-30T09:41:41.000Z</time>
      </trkpt>
      <trkpt lat="47.65656" lon="6.69802">
        <ele>401</ele>
        <time>2026-08-30T09:41:43.000Z</time>
      </trkpt>
      <trkpt lat="47.65655" lon="6.69798">
        <ele>401.4</ele>
        <time>2026-08-30T09:41:46.000Z</time>
      </trkpt>
      <trkpt lat="47.65655" lon="6.69793">
        <ele>401.6</ele>
        <time>2026-08-30T09:41:48.000Z</time>
      </trkpt>
      <trkpt lat="47.65655" lon="6.69789">
        <ele>401.8</ele>
        <time>2026-08-30T09:41:50.000Z</time>
      </trkpt>
      <trkpt lat="47.65655" lon="6.69784">
        <ele>402.2</ele>
        <time>2026-08-30T09:41:52.000Z</time>
      </trkpt>
      <trkpt lat="47.65656" lon="6.69778">
        <ele>402.4</ele>
        <time>2026-08-30T09:41:54.000Z</time>
      </trkpt>
      <trkpt lat="47.65657" lon="6.69773">
        <ele>402.6</ele>
        <time>2026-08-30T09:41:56.000Z</time>
      </trkpt>
      <trkpt lat="47.65657" lon="6.69769">
        <ele>402.8</ele>
        <time>2026-08-30T09:41:58.000Z</time>
      </trkpt>
      <trkpt lat="47.65658" lon="6.69764">
        <ele>403</ele>
        <time>2026-08-30T09:42:00.000Z</time>
      </trkpt>
      <trkpt lat="47.65659" lon="6.69758">
        <ele>403.2</ele>
        <time>2026-08-30T09:42:02.000Z</time>
      </trkpt>
      <trkpt lat="47.6566" lon="6.69752">
        <ele>403.4</ele>
        <time>2026-08-30T09:42:04.000Z</time>
      </trkpt>
      <trkpt lat="47.65661" lon="6.69747">
        <ele>403.6</ele>
        <time>2026-08-30T09:42:06.000Z</time>
      </trkpt>
      <trkpt lat="47.65663" lon="6.69741">
        <ele>403.8</ele>
        <time>2026-08-30T09:42:08.000Z</time>
      </trkpt>
      <trkpt lat="47.65665" lon="6.69736">
        <ele>403.8</ele>
        <time>2026-08-30T09:42:10.000Z</time>
      </trkpt>
      <trkpt lat="47.65668" lon="6.69731">
        <ele>404</ele>
        <time>2026-08-30T09:42:12.000Z</time>
      </trkpt>
      <trkpt lat="47.6567" lon="6.69726">
        <ele>404.2</ele>
        <time>2026-08-30T09:42:14.000Z</time>
      </trkpt>
      <trkpt lat="47.65672" lon="6.69721">
        <ele>404.6</ele>
        <time>2026-08-30T09:42:16.000Z</time>
      </trkpt>
      <trkpt lat="47.65674" lon="6.69715">
        <ele>404.8</ele>
        <time>2026-08-30T09:42:18.000Z</time>
      </trkpt>
      <trkpt lat="47.65676" lon="6.6971">
        <ele>405</ele>
        <time>2026-08-30T09:42:20.000Z</time>
      </trkpt>
      <trkpt lat="47.65678" lon="6.69704">
        <ele>405.2</ele>
        <time>2026-08-30T09:42:22.000Z</time>
      </trkpt>
      <trkpt lat="47.65678" lon="6.69698">
        <ele>405.6</ele>
        <time>2026-08-30T09:42:24.000Z</time>
      </trkpt>
      <trkpt lat="47.65679" lon="6.69693">
        <ele>406</ele>
        <time>2026-08-30T09:42:26.000Z</time>
      </trkpt>
      <trkpt lat="47.65679" lon="6.69688">
        <ele>406.2</ele>
        <time>2026-08-30T09:42:28.000Z</time>
      </trkpt>
      <trkpt lat="47.65679" lon="6.69682">
        <ele>406.6</ele>
        <time>2026-08-30T09:42:30.000Z</time>
      </trkpt>
      <trkpt lat="47.65679" lon="6.69677">
        <ele>406.8</ele>
        <time>2026-08-30T09:42:32.000Z</time>
      </trkpt>
      <trkpt lat="47.6568" lon="6.69671">
        <ele>407.2</ele>
        <time>2026-08-30T09:42:34.000Z</time>
      </trkpt>
      <trkpt lat="47.6568" lon="6.69666">
        <ele>407.6</ele>
        <time>2026-08-30T09:42:36.000Z</time>
      </trkpt>
      <trkpt lat="47.6568" lon="6.69661">
        <ele>408</ele>
        <time>2026-08-30T09:42:38.000Z</time>
      </trkpt>
      <trkpt lat="47.65681" lon="6.69656">
        <ele>408.2</ele>
        <time>2026-08-30T09:42:40.000Z</time>
      </trkpt>
      <trkpt lat="47.65683" lon="6.69651">
        <ele>408.6</ele>
        <time>2026-08-30T09:42:42.000Z</time>
      </trkpt>
      <trkpt lat="47.65685" lon="6.69647">
        <ele>408.8</ele>
        <time>2026-08-30T09:42:44.000Z</time>
      </trkpt>
      <trkpt lat="47.65687" lon="6.69643">
        <ele>409</ele>
        <time>2026-08-30T09:42:46.000Z</time>
      </trkpt>
      <trkpt lat="47.65688" lon="6.6964">
        <ele>409.4</ele>
        <time>2026-08-30T09:42:48.000Z</time>
      </trkpt>
      <trkpt lat="47.65689" lon="6.69636">
        <ele>409.6</ele>
        <time>2026-08-30T09:42:50.000Z</time>
      </trkpt>
      <trkpt lat="47.6569" lon="6.69631">
        <ele>409.8</ele>
        <time>2026-08-30T09:42:52.000Z</time>
      </trkpt>
      <trkpt lat="47.65692" lon="6.69625">
        <ele>410.2</ele>
        <time>2026-08-30T09:42:54.000Z</time>
      </trkpt>
      <trkpt lat="47.65694" lon="6.69617">
        <ele>410.4</ele>
        <time>2026-08-30T09:42:56.000Z</time>
      </trkpt>
      <trkpt lat="47.65696" lon="6.69608">
        <ele>410.6</ele>
        <time>2026-08-30T09:42:58.000Z</time>
      </trkpt>
      <trkpt lat="47.65696" lon="6.69598">
        <ele>410.8</ele>
        <time>2026-08-30T09:43:00.000Z</time>
      </trkpt>
      <trkpt lat="47.65694" lon="6.69588">
        <ele>410.8</ele>
        <time>2026-08-30T09:43:02.000Z</time>
      </trkpt>
      <trkpt lat="47.65692" lon="6.69579">
        <ele>410.8</ele>
        <time>2026-08-30T09:43:04.000Z</time>
      </trkpt>
      <trkpt lat="47.6569" lon="6.6957">
        <ele>410.8</ele>
        <time>2026-08-30T09:43:06.000Z</time>
      </trkpt>
      <trkpt lat="47.65687" lon="6.6956">
        <ele>410.8</ele>
        <time>2026-08-30T09:43:08.000Z</time>
      </trkpt>
      <trkpt lat="47.65682" lon="6.6955">
        <ele>410.6</ele>
        <time>2026-08-30T09:43:10.000Z</time>
      </trkpt>
      <trkpt lat="47.65674" lon="6.69539">
        <ele>410.2</ele>
        <time>2026-08-30T09:43:12.000Z</time>
      </trkpt>
      <trkpt lat="47.65669" lon="6.69526">
        <ele>409.8</ele>
        <time>2026-08-30T09:43:14.000Z</time>
      </trkpt>
      <trkpt lat="47.65663" lon="6.69512">
        <ele>409.4</ele>
        <time>2026-08-30T09:43:17.000Z</time>
      </trkpt>
      <trkpt lat="47.65656" lon="6.69499">
        <ele>409</ele>
        <time>2026-08-30T09:43:19.000Z</time>
      </trkpt>
      <trkpt lat="47.65648" lon="6.69487">
        <ele>408.8</ele>
        <time>2026-08-30T09:43:21.000Z</time>
      </trkpt>
      <trkpt lat="47.65642" lon="6.69477">
        <ele>408.8</ele>
        <time>2026-08-30T09:43:23.000Z</time>
      </trkpt>
      <trkpt lat="47.65638" lon="6.6947">
        <ele>409</ele>
        <time>2026-08-30T09:43:25.000Z</time>
      </trkpt>
      <trkpt lat="47.65635" lon="6.69465">
        <ele>409.4</ele>
        <time>2026-08-30T09:43:27.000Z</time>
      </trkpt>
      <trkpt lat="47.65634" lon="6.69459">
        <ele>409.8</ele>
        <time>2026-08-30T09:43:29.000Z</time>
      </trkpt>
      <trkpt lat="47.65634" lon="6.69452">
        <ele>410.2</ele>
        <time>2026-08-30T09:43:31.000Z</time>
      </trkpt>
      <trkpt lat="47.65633" lon="6.69444">
        <ele>410.6</ele>
        <time>2026-08-30T09:43:33.000Z</time>
      </trkpt>
      <trkpt lat="47.65633" lon="6.69438">
        <ele>411</ele>
        <time>2026-08-30T09:43:35.000Z</time>
      </trkpt>
      <trkpt lat="47.65632" lon="6.69431">
        <ele>411.4</ele>
        <time>2026-08-30T09:43:37.000Z</time>
      </trkpt>
      <trkpt lat="47.65632" lon="6.69425">
        <ele>411.8</ele>
        <time>2026-08-30T09:43:39.000Z</time>
      </trkpt>
      <trkpt lat="47.65633" lon="6.69416">
        <ele>412.4</ele>
        <time>2026-08-30T09:43:41.000Z</time>
      </trkpt>
      <trkpt lat="47.65635" lon="6.69407">
        <ele>413</ele>
        <time>2026-08-30T09:43:43.000Z</time>
      </trkpt>
      <trkpt lat="47.65637" lon="6.69398">
        <ele>413.6</ele>
        <time>2026-08-30T09:43:45.000Z</time>
      </trkpt>
      <trkpt lat="47.65639" lon="6.69389">
        <ele>414.2</ele>
        <time>2026-08-30T09:43:47.000Z</time>
      </trkpt>
      <trkpt lat="47.65641" lon="6.69381">
        <ele>414.6</ele>
        <time>2026-08-30T09:43:49.000Z</time>
      </trkpt>
      <trkpt lat="47.65642" lon="6.69374">
        <ele>415</ele>
        <time>2026-08-30T09:43:51.000Z</time>
      </trkpt>
      <trkpt lat="47.65643" lon="6.69366">
        <ele>415.4</ele>
        <time>2026-08-30T09:43:53.000Z</time>
      </trkpt>
      <trkpt lat="47.65645" lon="6.69358">
        <ele>415.8</ele>
        <time>2026-08-30T09:43:55.000Z</time>
      </trkpt>
      <trkpt lat="47.65646" lon="6.6935">
        <ele>416</ele>
        <time>2026-08-30T09:43:57.000Z</time>
      </trkpt>
      <trkpt lat="47.65647" lon="6.69343">
        <ele>416</ele>
        <time>2026-08-30T09:43:59.000Z</time>
      </trkpt>
      <trkpt lat="47.65647" lon="6.69335">
        <ele>416.2</ele>
        <time>2026-08-30T09:44:01.000Z</time>
      </trkpt>
      <trkpt lat="47.65648" lon="6.69326">
        <ele>416.4</ele>
        <time>2026-08-30T09:44:03.000Z</time>
      </trkpt>
      <trkpt lat="47.65648" lon="6.69316">
        <ele>416.6</ele>
        <time>2026-08-30T09:44:05.000Z</time>
      </trkpt>
      <trkpt lat="47.65649" lon="6.69304">
        <ele>416.6</ele>
        <time>2026-08-30T09:44:07.000Z</time>
      </trkpt>
      <trkpt lat="47.6565" lon="6.69294">
        <ele>416.6</ele>
        <time>2026-08-30T09:44:09.000Z</time>
      </trkpt>
      <trkpt lat="47.65651" lon="6.69286">
        <ele>416.6</ele>
        <time>2026-08-30T09:44:11.000Z</time>
      </trkpt>
      <trkpt lat="47.65651" lon="6.69277">
        <ele>416.4</ele>
        <time>2026-08-30T09:44:13.000Z</time>
      </trkpt>
      <trkpt lat="47.6565" lon="6.69267">
        <ele>416.4</ele>
        <time>2026-08-30T09:44:15.000Z</time>
      </trkpt>
      <trkpt lat="47.65646" lon="6.69254">
        <ele>416.2</ele>
        <time>2026-08-30T09:44:17.000Z</time>
      </trkpt>
      <trkpt lat="47.65643" lon="6.6924">
        <ele>416</ele>
        <time>2026-08-30T09:44:19.000Z</time>
      </trkpt>
      <trkpt lat="47.65639" lon="6.69224">
        <ele>415.8</ele>
        <time>2026-08-30T09:44:21.000Z</time>
      </trkpt>
      <trkpt lat="47.65635" lon="6.69206">
        <ele>415.6</ele>
        <time>2026-08-30T09:44:23.000Z</time>
      </trkpt>
      <trkpt lat="47.65632" lon="6.69186">
        <ele>415.2</ele>
        <time>2026-08-30T09:44:25.000Z</time>
      </trkpt>
      <trkpt lat="47.65631" lon="6.69166">
        <ele>414.8</ele>
        <time>2026-08-30T09:44:27.000Z</time>
      </trkpt>
      <trkpt lat="47.65633" lon="6.69145">
        <ele>414.2</ele>
        <time>2026-08-30T09:44:29.000Z</time>
      </trkpt>
      <trkpt lat="47.65634" lon="6.69122">
        <ele>413.6</ele>
        <time>2026-08-30T09:44:31.000Z</time>
      </trkpt>
      <trkpt lat="47.65637" lon="6.69099">
        <ele>412.6</ele>
        <time>2026-08-30T09:44:33.000Z</time>
      </trkpt>
      <trkpt lat="47.65646" lon="6.69079">
        <ele>411.8</ele>
        <time>2026-08-30T09:44:35.000Z</time>
      </trkpt>
      <trkpt lat="47.65657" lon="6.69061">
        <ele>411</ele>
        <time>2026-08-30T09:44:37.000Z</time>
      </trkpt>
      <trkpt lat="47.6567" lon="6.69048">
        <ele>410.6</ele>
        <time>2026-08-30T09:44:39.000Z</time>
      </trkpt>
      <trkpt lat="47.6568" lon="6.69035">
        <ele>410.6</ele>
        <time>2026-08-30T09:44:41.000Z</time>
      </trkpt>
      <trkpt lat="47.65685" lon="6.69021">
        <ele>410.8</ele>
        <time>2026-08-30T09:44:43.000Z</time>
      </trkpt>
      <trkpt lat="47.65688" lon="6.69005">
        <ele>411</ele>
        <time>2026-08-30T09:44:45.000Z</time>
      </trkpt>
      <trkpt lat="47.6569" lon="6.6899">
        <ele>411.6</ele>
        <time>2026-08-30T09:44:48.000Z</time>
      </trkpt>
      <trkpt lat="47.65692" lon="6.68975">
        <ele>412</ele>
        <time>2026-08-30T09:44:50.000Z</time>
      </trkpt>
      <trkpt lat="47.65694" lon="6.68959">
        <ele>412.8</ele>
        <time>2026-08-30T09:44:52.000Z</time>
      </trkpt>
      <trkpt lat="47.65695" lon="6.68944">
        <ele>413.4</ele>
        <time>2026-08-30T09:44:54.000Z</time>
      </trkpt>
      <trkpt lat="47.65695" lon="6.68929">
        <ele>414.2</ele>
        <time>2026-08-30T09:44:56.000Z</time>
      </trkpt>
      <trkpt lat="47.65695" lon="6.68915">
        <ele>414.8</ele>
        <time>2026-08-30T09:44:58.000Z</time>
      </trkpt>
      <trkpt lat="47.65696" lon="6.689">
        <ele>415.4</ele>
        <time>2026-08-30T09:45:00.000Z</time>
      </trkpt>
      <trkpt lat="47.65697" lon="6.68887">
        <ele>416</ele>
        <time>2026-08-30T09:45:02.000Z</time>
      </trkpt>
      <trkpt lat="47.65699" lon="6.68873">
        <ele>416.4</ele>
        <time>2026-08-30T09:45:04.000Z</time>
      </trkpt>
      <trkpt lat="47.65701" lon="6.68858">
        <ele>416.6</ele>
        <time>2026-08-30T09:45:06.000Z</time>
      </trkpt>
      <trkpt lat="47.65701" lon="6.68842">
        <ele>416.6</ele>
        <time>2026-08-30T09:45:08.000Z</time>
      </trkpt>
      <trkpt lat="47.65699" lon="6.68826">
        <ele>416.4</ele>
        <time>2026-08-30T09:45:10.000Z</time>
      </trkpt>
      <trkpt lat="47.65695" lon="6.6881">
        <ele>416.2</ele>
        <time>2026-08-30T09:45:12.000Z</time>
      </trkpt>
      <trkpt lat="47.65691" lon="6.68796">
        <ele>416.2</ele>
        <time>2026-08-30T09:45:14.000Z</time>
      </trkpt>
      <trkpt lat="47.65689" lon="6.68784">
        <ele>416.2</ele>
        <time>2026-08-30T09:45:16.000Z</time>
      </trkpt>
      <trkpt lat="47.65688" lon="6.68771">
        <ele>416.2</ele>
        <time>2026-08-30T09:45:18.000Z</time>
      </trkpt>
      <trkpt lat="47.65685" lon="6.68758">
        <ele>416</ele>
        <time>2026-08-30T09:45:20.000Z</time>
      </trkpt>
      <trkpt lat="47.65681" lon="6.68743">
        <ele>416</ele>
        <time>2026-08-30T09:45:22.000Z</time>
      </trkpt>
      <trkpt lat="47.65676" lon="6.68722">
        <ele>416.2</ele>
        <time>2026-08-30T09:45:24.000Z</time>
      </trkpt>
      <trkpt lat="47.65673" lon="6.68706">
        <ele>416.2</ele>
        <time>2026-08-30T09:45:26.000Z</time>
      </trkpt>
      <trkpt lat="47.65672" lon="6.6869">
        <ele>416.4</ele>
        <time>2026-08-30T09:45:28.000Z</time>
      </trkpt>
      <trkpt lat="47.6567" lon="6.68674">
        <ele>416.8</ele>
        <time>2026-08-30T09:45:30.000Z</time>
      </trkpt>
      <trkpt lat="47.65668" lon="6.6866">
        <ele>417.2</ele>
        <time>2026-08-30T09:45:32.000Z</time>
      </trkpt>
      <trkpt lat="47.65666" lon="6.68645">
        <ele>417.4</ele>
        <time>2026-08-30T09:45:34.000Z</time>
      </trkpt>
      <trkpt lat="47.65664" lon="6.68631">
        <ele>417.6</ele>
        <time>2026-08-30T09:45:36.000Z</time>
      </trkpt>
      <trkpt lat="47.65662" lon="6.68616">
        <ele>417.6</ele>
        <time>2026-08-30T09:45:38.000Z</time>
      </trkpt>
      <trkpt lat="47.65662" lon="6.686">
        <ele>417.4</ele>
        <time>2026-08-30T09:45:40.000Z</time>
      </trkpt>
      <trkpt lat="47.65661" lon="6.68584">
        <ele>417.4</ele>
        <time>2026-08-30T09:45:42.000Z</time>
      </trkpt>
      <trkpt lat="47.65661" lon="6.68567">
        <ele>417.4</ele>
        <time>2026-08-30T09:45:44.000Z</time>
      </trkpt>
      <trkpt lat="47.65665" lon="6.6855">
        <ele>417.2</ele>
        <time>2026-08-30T09:45:46.000Z</time>
      </trkpt>
      <trkpt lat="47.6567" lon="6.68531">
        <ele>417</ele>
        <time>2026-08-30T09:45:48.000Z</time>
      </trkpt>
      <trkpt lat="47.65676" lon="6.68511">
        <ele>416.4</ele>
        <time>2026-08-30T09:45:50.000Z</time>
      </trkpt>
      <trkpt lat="47.6568" lon="6.68491">
        <ele>416</ele>
        <time>2026-08-30T09:45:52.000Z</time>
      </trkpt>
      <trkpt lat="47.65681" lon="6.6847">
        <ele>415.8</ele>
        <time>2026-08-30T09:45:54.000Z</time>
      </trkpt>
      <trkpt lat="47.65683" lon="6.68449">
        <ele>416.2</ele>
        <time>2026-08-30T09:45:56.000Z</time>
      </trkpt>
      <trkpt lat="47.65685" lon="6.68431">
        <ele>416.6</ele>
        <time>2026-08-30T09:45:58.000Z</time>
      </trkpt>
      <trkpt lat="47.65688" lon="6.68414">
        <ele>416.6</ele>
        <time>2026-08-30T09:46:00.000Z</time>
      </trkpt>
      <trkpt lat="47.65688" lon="6.68398">
        <ele>416.8</ele>
        <time>2026-08-30T09:46:02.000Z</time>
      </trkpt>
      <trkpt lat="47.65686" lon="6.68382">
        <ele>416.8</ele>
        <time>2026-08-30T09:46:04.000Z</time>
      </trkpt>
      <trkpt lat="47.6568" lon="6.68369">
        <ele>417</ele>
        <time>2026-08-30T09:46:06.000Z</time>
      </trkpt>
      <trkpt lat="47.65672" lon="6.68359">
        <ele>417.2</ele>
        <time>2026-08-30T09:46:08.000Z</time>
      </trkpt>
      <trkpt lat="47.65665" lon="6.68355">
        <ele>417.6</ele>
        <time>2026-08-30T09:46:10.000Z</time>
      </trkpt>
      <trkpt lat="47.65658" lon="6.68353">
        <ele>418.2</ele>
        <time>2026-08-30T09:46:12.000Z</time>
      </trkpt>
      <trkpt lat="47.65653" lon="6.68351">
        <ele>418.8</ele>
        <time>2026-08-30T09:46:14.000Z</time>
      </trkpt>
      <trkpt lat="47.65649" lon="6.68348">
        <ele>419.4</ele>
        <time>2026-08-30T09:46:17.000Z</time>
      </trkpt>
      <trkpt lat="47.65645" lon="6.68343">
        <ele>419.8</ele>
        <time>2026-08-30T09:46:19.000Z</time>
      </trkpt>
      <trkpt lat="47.65641" lon="6.68338">
        <ele>420.2</ele>
        <time>2026-08-30T09:46:21.000Z</time>
      </trkpt>
      <trkpt lat="47.65637" lon="6.68332">
        <ele>420.6</ele>
        <time>2026-08-30T09:46:23.000Z</time>
      </trkpt>
      <trkpt lat="47.65633" lon="6.68325">
        <ele>421</ele>
        <time>2026-08-30T09:46:25.000Z</time>
      </trkpt>
      <trkpt lat="47.65629" lon="6.68319">
        <ele>421.6</ele>
        <time>2026-08-30T09:46:27.000Z</time>
      </trkpt>
      <trkpt lat="47.65625" lon="6.68313">
        <ele>422</ele>
        <time>2026-08-30T09:46:29.000Z</time>
      </trkpt>
      <trkpt lat="47.65622" lon="6.68307">
        <ele>422.4</ele>
        <time>2026-08-30T09:46:31.000Z</time>
      </trkpt>
      <trkpt lat="47.65619" lon="6.68301">
        <ele>422.8</ele>
        <time>2026-08-30T09:46:33.000Z</time>
      </trkpt>
      <trkpt lat="47.65616" lon="6.68293">
        <ele>423.2</ele>
        <time>2026-08-30T09:46:35.000Z</time>
      </trkpt>
      <trkpt lat="47.65613" lon="6.68286">
        <ele>423.6</ele>
        <time>2026-08-30T09:46:37.000Z</time>
      </trkpt>
      <trkpt lat="47.65611" lon="6.68277">
        <ele>424</ele>
        <time>2026-08-30T09:46:39.000Z</time>
      </trkpt>
      <trkpt lat="47.65608" lon="6.68269">
        <ele>424.4</ele>
        <time>2026-08-30T09:46:41.000Z</time>
      </trkpt>
      <trkpt lat="47.65605" lon="6.6826">
        <ele>424.6</ele>
        <time>2026-08-30T09:46:43.000Z</time>
      </trkpt>
      <trkpt lat="47.65603" lon="6.68251">
        <ele>424.8</ele>
        <time>2026-08-30T09:46:45.000Z</time>
      </trkpt>
      <trkpt lat="47.65599" lon="6.68243">
        <ele>424.8</ele>
        <time>2026-08-30T09:46:47.000Z</time>
      </trkpt>
      <trkpt lat="47.65596" lon="6.68234">
        <ele>425</ele>
        <time>2026-08-30T09:46:49.000Z</time>
      </trkpt>
      <trkpt lat="47.65593" lon="6.68225">
        <ele>425</ele>
        <time>2026-08-30T09:46:51.000Z</time>
      </trkpt>
      <trkpt lat="47.65589" lon="6.68216">
        <ele>425</ele>
        <time>2026-08-30T09:46:53.000Z</time>
      </trkpt>
      <trkpt lat="47.65586" lon="6.68206">
        <ele>425.2</ele>
        <time>2026-08-30T09:46:55.000Z</time>
      </trkpt>
      <trkpt lat="47.65582" lon="6.68196">
        <ele>425.2</ele>
        <time>2026-08-30T09:46:57.000Z</time>
      </trkpt>
      <trkpt lat="47.65577" lon="6.68187">
        <ele>425.2</ele>
        <time>2026-08-30T09:46:59.000Z</time>
      </trkpt>
      <trkpt lat="47.65574" lon="6.68178">
        <ele>425.4</ele>
        <time>2026-08-30T09:47:01.000Z</time>
      </trkpt>
      <trkpt lat="47.65573" lon="6.68169">
        <ele>425.8</ele>
        <time>2026-08-30T09:47:03.000Z</time>
      </trkpt>
      <trkpt lat="47.65576" lon="6.68163">
        <ele>426</ele>
        <time>2026-08-30T09:47:05.000Z</time>
      </trkpt>
      <trkpt lat="47.65584" lon="6.68157">
        <ele>426.4</ele>
        <time>2026-08-30T09:47:07.000Z</time>
      </trkpt>
      <trkpt lat="47.65591" lon="6.68151">
        <ele>426.6</ele>
        <time>2026-08-30T09:47:09.000Z</time>
      </trkpt>
      <trkpt lat="47.65598" lon="6.68145">
        <ele>426.8</ele>
        <time>2026-08-30T09:47:11.000Z</time>
      </trkpt>
      <trkpt lat="47.65604" lon="6.68139">
        <ele>427</ele>
        <time>2026-08-30T09:47:13.000Z</time>
      </trkpt>
      <trkpt lat="47.6561" lon="6.68134">
        <ele>427.2</ele>
        <time>2026-08-30T09:47:15.000Z</time>
      </trkpt>
      <trkpt lat="47.65615" lon="6.68129">
        <ele>427.4</ele>
        <time>2026-08-30T09:47:17.000Z</time>
      </trkpt>
      <trkpt lat="47.65621" lon="6.68123">
        <ele>427.8</ele>
        <time>2026-08-30T09:47:19.000Z</time>
      </trkpt>
      <trkpt lat="47.65626" lon="6.68116">
        <ele>428</ele>
        <time>2026-08-30T09:47:21.000Z</time>
      </trkpt>
      <trkpt lat="47.6563" lon="6.68109">
        <ele>428.4</ele>
        <time>2026-08-30T09:47:23.000Z</time>
      </trkpt>
      <trkpt lat="47.65635" lon="6.68102">
        <ele>428.8</ele>
        <time>2026-08-30T09:47:25.000Z</time>
      </trkpt>
      <trkpt lat="47.6564" lon="6.68095">
        <ele>429.2</ele>
        <time>2026-08-30T09:47:27.000Z</time>
      </trkpt>
      <trkpt lat="47.65644" lon="6.68088">
        <ele>429.6</ele>
        <time>2026-08-30T09:47:29.000Z</time>
      </trkpt>
      <trkpt lat="47.65648" lon="6.6808">
        <ele>430</ele>
        <time>2026-08-30T09:47:31.000Z</time>
      </trkpt>
      <trkpt lat="47.65651" lon="6.68072">
        <ele>430.4</ele>
        <time>2026-08-30T09:47:33.000Z</time>
      </trkpt>
      <trkpt lat="47.65653" lon="6.68062">
        <ele>430.8</ele>
        <time>2026-08-30T09:47:35.000Z</time>
      </trkpt>
      <trkpt lat="47.65654" lon="6.68053">
        <ele>431.2</ele>
        <time>2026-08-30T09:47:37.000Z</time>
      </trkpt>
      <trkpt lat="47.65655" lon="6.68043">
        <ele>431.6</ele>
        <time>2026-08-30T09:47:39.000Z</time>
      </trkpt>
      <trkpt lat="47.65656" lon="6.68034">
        <ele>431.8</ele>
        <time>2026-08-30T09:47:41.000Z</time>
      </trkpt>
      <trkpt lat="47.65657" lon="6.68024">
        <ele>432</ele>
        <time>2026-08-30T09:47:43.000Z</time>
      </trkpt>
      <trkpt lat="47.65658" lon="6.68014">
        <ele>432.2</ele>
        <time>2026-08-30T09:47:45.000Z</time>
      </trkpt>
      <trkpt lat="47.65659" lon="6.68004">
        <ele>432.6</ele>
        <time>2026-08-30T09:47:47.000Z</time>
      </trkpt>
      <trkpt lat="47.6566" lon="6.67995">
        <ele>432.8</ele>
        <time>2026-08-30T09:47:50.000Z</time>
      </trkpt>
      <trkpt lat="47.6566" lon="6.67987">
        <ele>433.2</ele>
        <time>2026-08-30T09:47:52.000Z</time>
      </trkpt>
      <trkpt lat="47.65661" lon="6.6798">
        <ele>433.4</ele>
        <time>2026-08-30T09:47:54.000Z</time>
      </trkpt>
      <trkpt lat="47.65662" lon="6.67973">
        <ele>433.8</ele>
        <time>2026-08-30T09:47:56.000Z</time>
      </trkpt>
      <trkpt lat="47.65662" lon="6.67965">
        <ele>434.2</ele>
        <time>2026-08-30T09:47:58.000Z</time>
      </trkpt>
      <trkpt lat="47.65663" lon="6.67957">
        <ele>434.6</ele>
        <time>2026-08-30T09:48:00.000Z</time>
      </trkpt>
      <trkpt lat="47.65663" lon="6.6795">
        <ele>435</ele>
        <time>2026-08-30T09:48:02.000Z</time>
      </trkpt>
      <trkpt lat="47.65663" lon="6.67944">
        <ele>435.4</ele>
        <time>2026-08-30T09:48:04.000Z</time>
      </trkpt>
      <trkpt lat="47.65665" lon="6.67937">
        <ele>435.6</ele>
        <time>2026-08-30T09:48:06.000Z</time>
      </trkpt>
      <trkpt lat="47.65665" lon="6.67931">
        <ele>435.8</ele>
        <time>2026-08-30T09:48:08.000Z</time>
      </trkpt>
      <trkpt lat="47.65666" lon="6.67925">
        <ele>436</ele>
        <time>2026-08-30T09:48:10.000Z</time>
      </trkpt>
      <trkpt lat="47.65666" lon="6.67919">
        <ele>436.4</ele>
        <time>2026-08-30T09:48:12.000Z</time>
      </trkpt>
      <trkpt lat="47.65667" lon="6.67914">
        <ele>436.6</ele>
        <time>2026-08-30T09:48:14.000Z</time>
      </trkpt>
      <trkpt lat="47.65668" lon="6.67909">
        <ele>437</ele>
        <time>2026-08-30T09:48:16.000Z</time>
      </trkpt>
      <trkpt lat="47.65668" lon="6.67904">
        <ele>437</ele>
        <time>2026-08-30T09:48:18.000Z</time>
      </trkpt>
      <trkpt lat="47.65668" lon="6.679">
        <ele>437.2</ele>
        <time>2026-08-30T09:48:20.000Z</time>
      </trkpt>
      <trkpt lat="47.65669" lon="6.67897">
        <ele>437.4</ele>
        <time>2026-08-30T09:48:22.000Z</time>
      </trkpt>
      <trkpt lat="47.6567" lon="6.67893">
        <ele>437.6</ele>
        <time>2026-08-30T09:48:24.000Z</time>
      </trkpt>
      <trkpt lat="47.65671" lon="6.67888">
        <ele>437.8</ele>
        <time>2026-08-30T09:48:26.000Z</time>
      </trkpt>
      <trkpt lat="47.65671" lon="6.67884">
        <ele>438.2</ele>
        <time>2026-08-30T09:48:28.000Z</time>
      </trkpt>
      <trkpt lat="47.65673" lon="6.67881">
        <ele>438.2</ele>
        <time>2026-08-30T09:48:30.000Z</time>
      </trkpt>
      <trkpt lat="47.65674" lon="6.67881">
        <ele>438.2</ele>
        <time>2026-08-30T09:48:32.000Z</time>
      </trkpt>
      <trkpt lat="47.65674" lon="6.6788">
        <ele>438.2</ele>
        <time>2026-08-30T09:48:34.000Z</time>
      </trkpt>
      <trkpt lat="47.65674" lon="6.6788">
        <ele>438</ele>
        <time>2026-08-30T09:48:36.000Z</time>
      </trkpt>
      <trkpt lat="47.65674" lon="6.6788">
        <ele>438</ele>
        <time>2026-08-30T09:48:38.000Z</time>
      </trkpt>
      <trkpt lat="47.65674" lon="6.6788">
        <ele>438</ele>
        <time>2026-08-30T09:48:40.000Z</time>
      </trkpt>
      <trkpt lat="47.65674" lon="6.6788">
        <ele>438</ele>
        <time>2026-08-30T09:48:42.000Z</time>
      </trkpt>
      <trkpt lat="47.65674" lon="6.67879">
        <ele>438</ele>
        <time>2026-08-30T09:48:44.000Z</time>
      </trkpt>
      <trkpt lat="47.65674" lon="6.67879">
        <ele>438</ele>
        <time>2026-08-30T09:48:46.000Z</time>
      </trkpt>
      <trkpt lat="47.65674" lon="6.67879">
        <ele>438</ele>
        <time>2026-08-30T09:48:48.000Z</time>
      </trkpt>
      <trkpt lat="47.65674" lon="6.67879">
        <ele>438</ele>
        <time>2026-08-30T09:48:50.000Z</time>
      </trkpt>
      <trkpt lat="47.65674" lon="6.67879">
        <ele>438</ele>
        <time>2026-08-30T09:48:52.000Z</time>
      </trkpt>
      <trkpt lat="47.65674" lon="6.67879">
        <ele>437.8</ele>
        <time>2026-08-30T09:48:54.000Z</time>
      </trkpt>
      <trkpt lat="47.65674" lon="6.67878">
        <ele>437.8</ele>
        <time>2026-08-30T09:48:56.000Z</time>
      </trkpt>
      <trkpt lat="47.65673" lon="6.67879">
        <ele>437.8</ele>
        <time>2026-08-30T09:48:58.000Z</time>
      </trkpt>
      <trkpt lat="47.65673" lon="6.67879">
        <ele>437.8</ele>
        <time>2026-08-30T09:49:00.000Z</time>
      </trkpt>
      <trkpt lat="47.65673" lon="6.67879">
        <ele>437.8</ele>
        <time>2026-08-30T09:49:02.000Z</time>
      </trkpt>
      <trkpt lat="47.65673" lon="6.67879">
        <ele>437.8</ele>
        <time>2026-08-30T09:49:04.000Z</time>
      </trkpt>
      <trkpt lat="47.65673" lon="6.67879">
        <ele>438</ele>
        <time>2026-08-30T09:49:06.000Z</time>
      </trkpt>
      <trkpt lat="47.65673" lon="6.67879">
        <ele>438</ele>
        <time>2026-08-30T09:49:08.000Z</time>
      </trkpt>
      <trkpt lat="47.65672" lon="6.67879">
        <ele>438</ele>
        <time>2026-08-30T09:49:10.000Z</time>
      </trkpt>
      <trkpt lat="47.65672" lon="6.67879">
        <ele>438</ele>
        <time>2026-08-30T09:49:12.000Z</time>
      </trkpt>
      <trkpt lat="47.65672" lon="6.67879">
        <ele>438</ele>
        <time>2026-08-30T09:49:14.000Z</time>
      </trkpt>
      <trkpt lat="47.65672" lon="6.67879">
        <ele>438.2</ele>
        <time>2026-08-30T09:49:16.000Z</time>
      </trkpt>
      <trkpt lat="47.65672" lon="6.67879">
        <ele>438.2</ele>
        <time>2026-08-30T09:49:18.000Z</time>
      </trkpt>
      <trkpt lat="47.65672" lon="6.67879">
        <ele>438.2</ele>
        <time>2026-08-30T09:49:20.000Z</time>
      </trkpt>
      <trkpt lat="47.65672" lon="6.67879">
        <ele>438.2</ele>
        <time>2026-08-30T09:49:22.000Z</time>
      </trkpt>
      <trkpt lat="47.65672" lon="6.6788">
        <ele>438</ele>
        <time>2026-08-30T09:49:24.000Z</time>
      </trkpt>
      <trkpt lat="47.65672" lon="6.6788">
        <ele>438</ele>
        <time>2026-08-30T09:49:26.000Z</time>
      </trkpt>
      <trkpt lat="47.65672" lon="6.6788">
        <ele>438</ele>
        <time>2026-08-30T09:49:28.000Z</time>
      </trkpt>
      <trkpt lat="47.65672" lon="6.6788">
        <ele>438</ele>
        <time>2026-08-30T09:49:30.000Z</time>
      </trkpt>
      <trkpt lat="47.65672" lon="6.6788">
        <ele>437.8</ele>
        <time>2026-08-30T09:49:33.000Z</time>
      </trkpt>
      <trkpt lat="47.65672" lon="6.6788">
        <ele>437.8</ele>
        <time>2026-08-30T09:49:35.000Z</time>
      </trkpt>
      <trkpt lat="47.65672" lon="6.6788">
        <ele>437.8</ele>
        <time>2026-08-30T09:49:37.000Z</time>
      </trkpt>
      <trkpt lat="47.65672" lon="6.6788">
        <ele>437.8</ele>
        <time>2026-08-30T09:49:39.000Z</time>
      </trkpt>
      <trkpt lat="47.65672" lon="6.6788">
        <ele>437.8</ele>
        <time>2026-08-30T09:49:41.000Z</time>
      </trkpt>
      <trkpt lat="47.65672" lon="6.6788">
        <ele>437.8</ele>
        <time>2026-08-30T09:49:43.000Z</time>
      </trkpt>
      <trkpt lat="47.65672" lon="6.6788">
        <ele>438</ele>
        <time>2026-08-30T09:49:45.000Z</time>
      </trkpt>
      <trkpt lat="47.65672" lon="6.6788">
        <ele>438</ele>
        <time>2026-08-30T09:49:47.000Z</time>
      </trkpt>
      <trkpt lat="47.65672" lon="6.6788">
        <ele>438</ele>
        <time>2026-08-30T09:49:49.000Z</time>
      </trkpt>
      <trkpt lat="47.65672" lon="6.6788">
        <ele>438</ele>
        <time>2026-08-30T09:49:51.000Z</time>
      </trkpt>
      <trkpt lat="47.65672" lon="6.67879">
        <ele>438</ele>
        <time>2026-08-30T09:49:53.000Z</time>
      </trkpt>
      <trkpt lat="47.65672" lon="6.6788">
        <ele>438</ele>
        <time>2026-08-30T09:49:55.000Z</time>
      </trkpt>
      <trkpt lat="47.65672" lon="6.6788">
        <ele>438</ele>
        <time>2026-08-30T09:49:57.000Z</time>
      </trkpt>
      <trkpt lat="47.65672" lon="6.6788">
        <ele>438</ele>
        <time>2026-08-30T09:49:59.000Z</time>
      </trkpt>
      <trkpt lat="47.65672" lon="6.6788">
        <ele>438</ele>
        <time>2026-08-30T09:50:01.000Z</time>
      </trkpt>
      <trkpt lat="47.65672" lon="6.6788">
        <ele>438</ele>
        <time>2026-08-30T09:50:03.000Z</time>
      </trkpt>
      <trkpt lat="47.65672" lon="6.6788">
        <ele>438</ele>
        <time>2026-08-30T09:50:05.000Z</time>
      </trkpt>
      <trkpt lat="47.65672" lon="6.6788">
        <ele>438</ele>
        <time>2026-08-30T09:50:07.000Z</time>
      </trkpt>
      <trkpt lat="47.65672" lon="6.6788">
        <ele>438</ele>
        <time>2026-08-30T09:50:09.000Z</time>
      </trkpt>
      <trkpt lat="47.65672" lon="6.6788">
        <ele>438</ele>
        <time>2026-08-30T09:50:11.000Z</time>
      </trkpt>
      <trkpt lat="47.65672" lon="6.67881">
        <ele>438</ele>
        <time>2026-08-30T09:50:13.000Z</time>
      </trkpt>
      <trkpt lat="47.65672" lon="6.67881">
        <ele>438</ele>
        <time>2026-08-30T09:50:15.000Z</time>
      </trkpt>
      <trkpt lat="47.65672" lon="6.67881">
        <ele>438</ele>
        <time>2026-08-30T09:50:17.000Z</time>
      </trkpt>
      <trkpt lat="47.65672" lon="6.67881">
        <ele>438</ele>
        <time>2026-08-30T09:50:19.000Z</time>
      </trkpt>
      <trkpt lat="47.65672" lon="6.67881">
        <ele>438</ele>
        <time>2026-08-30T09:50:21.000Z</time>
      </trkpt>
      <trkpt lat="47.65673" lon="6.67881">
        <ele>438</ele>
        <time>2026-08-30T09:50:23.000Z</time>
      </trkpt>
      <trkpt lat="47.65673" lon="6.6788">
        <ele>438</ele>
        <time>2026-08-30T09:50:25.000Z</time>
      </trkpt>
      <trkpt lat="47.65673" lon="6.6788">
        <ele>438</ele>
        <time>2026-08-30T09:50:27.000Z</time>
      </trkpt>
      <trkpt lat="47.65673" lon="6.6788">
        <ele>438.2</ele>
        <time>2026-08-30T09:50:29.000Z</time>
      </trkpt>
      <trkpt lat="47.65673" lon="6.6788">
        <ele>438.2</ele>
        <time>2026-08-30T09:50:31.000Z</time>
      </trkpt>
      <trkpt lat="47.65673" lon="6.6788">
        <ele>438.2</ele>
        <time>2026-08-30T09:50:33.000Z</time>
      </trkpt>
      <trkpt lat="47.65673" lon="6.6788">
        <ele>438.2</ele>
        <time>2026-08-30T09:50:35.000Z</time>
      </trkpt>
      <trkpt lat="47.65673" lon="6.6788">
        <ele>438.2</ele>
        <time>2026-08-30T09:50:37.000Z</time>
      </trkpt>
      <trkpt lat="47.65672" lon="6.6788">
        <ele>438.2</ele>
        <time>2026-08-30T09:50:39.000Z</time>
      </trkpt>
      <trkpt lat="47.65672" lon="6.67881">
        <ele>438.2</ele>
        <time>2026-08-30T09:50:41.000Z</time>
      </trkpt>
      <trkpt lat="47.65672" lon="6.67881">
        <ele>438.2</ele>
        <time>2026-08-30T09:50:43.000Z</time>
      </trkpt>
      <trkpt lat="47.65672" lon="6.67881">
        <ele>438.2</ele>
        <time>2026-08-30T09:50:45.000Z</time>
      </trkpt>
      <trkpt lat="47.65672" lon="6.67881">
        <ele>438.2</ele>
        <time>2026-08-30T09:50:47.000Z</time>
      </trkpt>
      <trkpt lat="47.65672" lon="6.6788">
        <ele>438.2</ele>
        <time>2026-08-30T09:50:49.000Z</time>
      </trkpt>
      <trkpt lat="47.65672" lon="6.6788">
        <ele>438.2</ele>
        <time>2026-08-30T09:50:51.000Z</time>
      </trkpt>
      <trkpt lat="47.65672" lon="6.6788">
        <ele>438.2</ele>
        <time>2026-08-30T09:50:53.000Z</time>
      </trkpt>
      <trkpt lat="47.65672" lon="6.6788">
        <ele>438.4</ele>
        <time>2026-08-30T09:50:55.000Z</time>
      </trkpt>
      <trkpt lat="47.65672" lon="6.67881">
        <ele>438.4</ele>
        <time>2026-08-30T09:50:57.000Z</time>
      </trkpt>
      <trkpt lat="47.65672" lon="6.67881">
        <ele>438.4</ele>
        <time>2026-08-30T09:50:59.000Z</time>
      </trkpt>
      <trkpt lat="47.65672" lon="6.6788">
        <ele>438.4</ele>
        <time>2026-08-30T09:51:01.000Z</time>
      </trkpt>
      <trkpt lat="47.65672" lon="6.6788">
        <ele>438.2</ele>
        <time>2026-08-30T09:51:03.000Z</time>
      </trkpt>
      <trkpt lat="47.65672" lon="6.6788">
        <ele>438.2</ele>
        <time>2026-08-30T09:51:05.000Z</time>
      </trkpt>
      <trkpt lat="47.65672" lon="6.6788">
        <ele>438.2</ele>
        <time>2026-08-30T09:51:08.000Z</time>
      </trkpt>
      <trkpt lat="47.65671" lon="6.6788">
        <ele>438.2</ele>
        <time>2026-08-30T09:51:10.000Z</time>
      </trkpt>
      <trkpt lat="47.65671" lon="6.6788">
        <ele>438.2</ele>
        <time>2026-08-30T09:51:12.000Z</time>
      </trkpt>
      <trkpt lat="47.65671" lon="6.6788">
        <ele>438.2</ele>
        <time>2026-08-30T09:51:14.000Z</time>
      </trkpt>
      <trkpt lat="47.65671" lon="6.6788">
        <ele>438.2</ele>
        <time>2026-08-30T09:51:16.000Z</time>
      </trkpt>
      <trkpt lat="47.65671" lon="6.6788">
        <ele>438.2</ele>
        <time>2026-08-30T09:51:18.000Z</time>
      </trkpt>
      <trkpt lat="47.65671" lon="6.6788">
        <ele>438.2</ele>
        <time>2026-08-30T09:51:20.000Z</time>
      </trkpt>
      <trkpt lat="47.65671" lon="6.6788">
        <ele>438.2</ele>
        <time>2026-08-30T09:51:22.000Z</time>
      </trkpt>
      <trkpt lat="47.65671" lon="6.6788">
        <ele>438.2</ele>
        <time>2026-08-30T09:51:24.000Z</time>
      </trkpt>
      <trkpt lat="47.6567" lon="6.67879">
        <ele>438.2</ele>
        <time>2026-08-30T09:51:26.000Z</time>
      </trkpt>
      <trkpt lat="47.6567" lon="6.67879">
        <ele>438.2</ele>
        <time>2026-08-30T09:51:28.000Z</time>
      </trkpt>
      <trkpt lat="47.6567" lon="6.67879">
        <ele>438.2</ele>
        <time>2026-08-30T09:51:30.000Z</time>
      </trkpt>
      <trkpt lat="47.6567" lon="6.67879">
        <ele>438.2</ele>
        <time>2026-08-30T09:51:32.000Z</time>
      </trkpt>
      <trkpt lat="47.6567" lon="6.67879">
        <ele>438.2</ele>
        <time>2026-08-30T09:51:34.000Z</time>
      </trkpt>
      <trkpt lat="47.6567" lon="6.67879">
        <ele>438.2</ele>
        <time>2026-08-30T09:51:36.000Z</time>
      </trkpt>
      <trkpt lat="47.6567" lon="6.67879">
        <ele>438.2</ele>
        <time>2026-08-30T09:51:38.000Z</time>
      </trkpt>
      <trkpt lat="47.6567" lon="6.67879">
        <ele>438.2</ele>
        <time>2026-08-30T09:51:40.000Z</time>
      </trkpt>
      <trkpt lat="47.6567" lon="6.6788">
        <ele>438.2</ele>
        <time>2026-08-30T09:51:42.000Z</time>
      </trkpt>
      <trkpt lat="47.65671" lon="6.6788">
        <ele>438.2</ele>
        <time>2026-08-30T09:51:44.000Z</time>
      </trkpt>
      <trkpt lat="47.65671" lon="6.6788">
        <ele>438.2</ele>
        <time>2026-08-30T09:51:46.000Z</time>
      </trkpt>
      <trkpt lat="47.65671" lon="6.67881">
        <ele>438.2</ele>
        <time>2026-08-30T09:51:48.000Z</time>
      </trkpt>
      <trkpt lat="47.65671" lon="6.67881">
        <ele>438.4</ele>
        <time>2026-08-30T09:51:50.000Z</time>
      </trkpt>
      <trkpt lat="47.65671" lon="6.67881">
        <ele>438.4</ele>
        <time>2026-08-30T09:51:52.000Z</time>
      </trkpt>
      <trkpt lat="47.65671" lon="6.67881">
        <ele>438.4</ele>
        <time>2026-08-30T09:51:54.000Z</time>
      </trkpt>
      <trkpt lat="47.65671" lon="6.67881">
        <ele>438.4</ele>
        <time>2026-08-30T09:51:56.000Z</time>
      </trkpt>
      <trkpt lat="47.65672" lon="6.67881">
        <ele>438.4</ele>
        <time>2026-08-30T09:51:58.000Z</time>
      </trkpt>
      <trkpt lat="47.65672" lon="6.67881">
        <ele>438.4</ele>
        <time>2026-08-30T09:52:00.000Z</time>
      </trkpt>
      <trkpt lat="47.65672" lon="6.67881">
        <ele>438.4</ele>
        <time>2026-08-30T09:52:02.000Z</time>
      </trkpt>
      <trkpt lat="47.65672" lon="6.67881">
        <ele>438.4</ele>
        <time>2026-08-30T09:52:04.000Z</time>
      </trkpt>
      <trkpt lat="47.65672" lon="6.67881">
        <ele>438.4</ele>
        <time>2026-08-30T09:52:06.000Z</time>
      </trkpt>
      <trkpt lat="47.65672" lon="6.67881">
        <ele>438.4</ele>
        <time>2026-08-30T09:52:08.000Z</time>
      </trkpt>
      <trkpt lat="47.65672" lon="6.67881">
        <ele>438.4</ele>
        <time>2026-08-30T09:52:10.000Z</time>
      </trkpt>
      <trkpt lat="47.65672" lon="6.67882">
        <ele>438.4</ele>
        <time>2026-08-30T09:52:12.000Z</time>
      </trkpt>
      <trkpt lat="47.65672" lon="6.67882">
        <ele>438.4</ele>
        <time>2026-08-30T09:52:14.000Z</time>
      </trkpt>
      <trkpt lat="47.65672" lon="6.67882">
        <ele>438.4</ele>
        <time>2026-08-30T09:52:16.000Z</time>
      </trkpt>
      <trkpt lat="47.65672" lon="6.67882">
        <ele>438.4</ele>
        <time>2026-08-30T09:52:18.000Z</time>
      </trkpt>
      <trkpt lat="47.65672" lon="6.67882">
        <ele>438.4</ele>
        <time>2026-08-30T09:52:20.000Z</time>
      </trkpt>
      <trkpt lat="47.65672" lon="6.67882">
        <ele>438.4</ele>
        <time>2026-08-30T09:52:22.000Z</time>
      </trkpt>
      <trkpt lat="47.65672" lon="6.67882">
        <ele>438.4</ele>
        <time>2026-08-30T09:52:24.000Z</time>
      </trkpt>
      <trkpt lat="47.65672" lon="6.67882">
        <ele>438.4</ele>
        <time>2026-08-30T09:52:26.000Z</time>
      </trkpt>
      <trkpt lat="47.65672" lon="6.67882">
        <ele>438.4</ele>
        <time>2026-08-30T09:52:28.000Z</time>
      </trkpt>
      <trkpt lat="47.65672" lon="6.67882">
        <ele>438.2</ele>
        <time>2026-08-30T09:52:30.000Z</time>
      </trkpt>
      <trkpt lat="47.65672" lon="6.67882">
        <ele>438.2</ele>
        <time>2026-08-30T09:52:32.000Z</time>
      </trkpt>
      <trkpt lat="47.65672" lon="6.67881">
        <ele>438.2</ele>
        <time>2026-08-30T09:52:34.000Z</time>
      </trkpt>
      <trkpt lat="47.65672" lon="6.67881">
        <ele>438.2</ele>
        <time>2026-08-30T09:52:36.000Z</time>
      </trkpt>
      <trkpt lat="47.65672" lon="6.67881">
        <ele>438.2</ele>
        <time>2026-08-30T09:52:38.000Z</time>
      </trkpt>
      <trkpt lat="47.65672" lon="6.67881">
        <ele>438.2</ele>
        <time>2026-08-30T09:52:40.000Z</time>
      </trkpt>
      <trkpt lat="47.65672" lon="6.67881">
        <ele>438.2</ele>
        <time>2026-08-30T09:52:42.000Z</time>
      </trkpt>
      <trkpt lat="47.65672" lon="6.67881">
        <ele>438.2</ele>
        <time>2026-08-30T09:52:44.000Z</time>
      </trkpt>
      <trkpt lat="47.65672" lon="6.67881">
        <ele>438.2</ele>
        <time>2026-08-30T09:52:46.000Z</time>
      </trkpt>
      <trkpt lat="47.65672" lon="6.67881">
        <ele>438.2</ele>
        <time>2026-08-30T09:52:48.000Z</time>
      </trkpt>
      <trkpt lat="47.65672" lon="6.67881">
        <ele>438.2</ele>
        <time>2026-08-30T09:52:50.000Z</time>
      </trkpt>
      <trkpt lat="47.65672" lon="6.67881">
        <ele>438.2</ele>
        <time>2026-08-30T09:52:52.000Z</time>
      </trkpt>
      <trkpt lat="47.65672" lon="6.67881">
        <ele>438.2</ele>
        <time>2026-08-30T09:52:54.000Z</time>
      </trkpt>
      <trkpt lat="47.65672" lon="6.6788">
        <ele>438.2</ele>
        <time>2026-08-30T09:52:56.000Z</time>
      </trkpt>
      <trkpt lat="47.65671" lon="6.6788">
        <ele>438.2</ele>
        <time>2026-08-30T09:52:58.000Z</time>
      </trkpt>
      <trkpt lat="47.65671" lon="6.6788">
        <ele>438.2</ele>
        <time>2026-08-30T09:53:01.000Z</time>
      </trkpt>
      <trkpt lat="47.65671" lon="6.6788">
        <ele>438.2</ele>
        <time>2026-08-30T09:53:03.000Z</time>
      </trkpt>
      <trkpt lat="47.65671" lon="6.6788">
        <ele>438.2</ele>
        <time>2026-08-30T09:53:05.000Z</time>
      </trkpt>
      <trkpt lat="47.65671" lon="6.6788">
        <ele>438.2</ele>
        <time>2026-08-30T09:53:07.000Z</time>
      </trkpt>
      <trkpt lat="47.65671" lon="6.67879">
        <ele>438.2</ele>
        <time>2026-08-30T09:53:09.000Z</time>
      </trkpt>
      <trkpt lat="47.65671" lon="6.67879">
        <ele>438.2</ele>
        <time>2026-08-30T09:53:11.000Z</time>
      </trkpt>
      <trkpt lat="47.65671" lon="6.67879">
        <ele>438.2</ele>
        <time>2026-08-30T09:53:13.000Z</time>
      </trkpt>
      <trkpt lat="47.65671" lon="6.67879">
        <ele>438.2</ele>
        <time>2026-08-30T09:53:15.000Z</time>
      </trkpt>
      <trkpt lat="47.65671" lon="6.67879">
        <ele>438.2</ele>
        <time>2026-08-30T09:53:17.000Z</time>
      </trkpt>
      <trkpt lat="47.65671" lon="6.67879">
        <ele>438.2</ele>
        <time>2026-08-30T09:53:19.000Z</time>
      </trkpt>
      <trkpt lat="47.65671" lon="6.67879">
        <ele>438.4</ele>
        <time>2026-08-30T09:53:21.000Z</time>
      </trkpt>
      <trkpt lat="47.65671" lon="6.67878">
        <ele>438.6</ele>
        <time>2026-08-30T09:53:23.000Z</time>
      </trkpt>
      <trkpt lat="47.65671" lon="6.67876">
        <ele>438.8</ele>
        <time>2026-08-30T09:53:25.000Z</time>
      </trkpt>
      <trkpt lat="47.65671" lon="6.67876">
        <ele>439</ele>
        <time>2026-08-30T09:53:27.000Z</time>
      </trkpt>
      <trkpt lat="47.65672" lon="6.67873">
        <ele>439.2</ele>
        <time>2026-08-30T09:53:29.000Z</time>
      </trkpt>
      <trkpt lat="47.65673" lon="6.67867">
        <ele>439.4</ele>
        <time>2026-08-30T09:53:31.000Z</time>
      </trkpt>
      <trkpt lat="47.65676" lon="6.6786">
        <ele>439.8</ele>
        <time>2026-08-30T09:53:33.000Z</time>
      </trkpt>
      <trkpt lat="47.65679" lon="6.67852">
        <ele>440.2</ele>
        <time>2026-08-30T09:53:35.000Z</time>
      </trkpt>
      <trkpt lat="47.65682" lon="6.67843">
        <ele>440.4</ele>
        <time>2026-08-30T09:53:37.000Z</time>
      </trkpt>
      <trkpt lat="47.65685" lon="6.67834">
        <ele>440.6</ele>
        <time>2026-08-30T09:53:39.000Z</time>
      </trkpt>
      <trkpt lat="47.65687" lon="6.67825">
        <ele>441</ele>
        <time>2026-08-30T09:53:41.000Z</time>
      </trkpt>
      <trkpt lat="47.6569" lon="6.67816">
        <ele>441.2</ele>
        <time>2026-08-30T09:53:43.000Z</time>
      </trkpt>
      <trkpt lat="47.65692" lon="6.67807">
        <ele>441.6</ele>
        <time>2026-08-30T09:53:45.000Z</time>
      </trkpt>
      <trkpt lat="47.65693" lon="6.67797">
        <ele>442</ele>
        <time>2026-08-30T09:53:47.000Z</time>
      </trkpt>
      <trkpt lat="47.65695" lon="6.67787">
        <ele>442.6</ele>
        <time>2026-08-30T09:53:49.000Z</time>
      </trkpt>
      <trkpt lat="47.65697" lon="6.67777">
        <ele>442.8</ele>
        <time>2026-08-30T09:53:51.000Z</time>
      </trkpt>
      <trkpt lat="47.65699" lon="6.67765">
        <ele>443.2</ele>
        <time>2026-08-30T09:53:53.000Z</time>
      </trkpt>
      <trkpt lat="47.657" lon="6.67753">
        <ele>443.4</ele>
        <time>2026-08-30T09:53:55.000Z</time>
      </trkpt>
      <trkpt lat="47.65702" lon="6.67743">
        <ele>443.6</ele>
        <time>2026-08-30T09:53:57.000Z</time>
      </trkpt>
      <trkpt lat="47.65703" lon="6.67735">
        <ele>443.8</ele>
        <time>2026-08-30T09:53:59.000Z</time>
      </trkpt>
      <trkpt lat="47.657" lon="6.6773">
        <ele>444</ele>
        <time>2026-08-30T09:54:01.000Z</time>
      </trkpt>
      <trkpt lat="47.65693" lon="6.67727">
        <ele>443.6</ele>
        <time>2026-08-30T09:54:03.000Z</time>
      </trkpt>
      <trkpt lat="47.65684" lon="6.67729">
        <ele>443</ele>
        <time>2026-08-30T09:54:05.000Z</time>
      </trkpt>
      <trkpt lat="47.65675" lon="6.67733">
        <ele>442</ele>
        <time>2026-08-30T09:54:07.000Z</time>
      </trkpt>
      <trkpt lat="47.65668" lon="6.67737">
        <ele>441</ele>
        <time>2026-08-30T09:54:09.000Z</time>
      </trkpt>
      <trkpt lat="47.65662" lon="6.67739">
        <ele>439.8</ele>
        <time>2026-08-30T09:54:11.000Z</time>
      </trkpt>
      <trkpt lat="47.65659" lon="6.67738">
        <ele>438.6</ele>
        <time>2026-08-30T09:54:13.000Z</time>
      </trkpt>
      <trkpt lat="47.65659" lon="6.67738">
        <ele>437.8</ele>
        <time>2026-08-30T09:54:15.000Z</time>
      </trkpt>
      <trkpt lat="47.6566" lon="6.67739">
        <ele>437.6</ele>
        <time>2026-08-30T09:54:17.000Z</time>
      </trkpt>
      <trkpt lat="47.65661" lon="6.67738">
        <ele>437.4</ele>
        <time>2026-08-30T09:54:19.000Z</time>
      </trkpt>
      <trkpt lat="47.65661" lon="6.67737">
        <ele>437.4</ele>
        <time>2026-08-30T09:54:21.000Z</time>
      </trkpt>
      <trkpt lat="47.65661" lon="6.67736">
        <ele>437.4</ele>
        <time>2026-08-30T09:54:23.000Z</time>
      </trkpt>
      <trkpt lat="47.6566" lon="6.67732">
        <ele>437.4</ele>
        <time>2026-08-30T09:54:25.000Z</time>
      </trkpt>
      <trkpt lat="47.65659" lon="6.67727">
        <ele>437.6</ele>
        <time>2026-08-30T09:54:27.000Z</time>
      </trkpt>
      <trkpt lat="47.65656" lon="6.67723">
        <ele>437.4</ele>
        <time>2026-08-30T09:54:29.000Z</time>
      </trkpt>
      <trkpt lat="47.65651" lon="6.67721">
        <ele>437</ele>
        <time>2026-08-30T09:54:31.000Z</time>
      </trkpt>
      <trkpt lat="47.65645" lon="6.67723">
        <ele>436</ele>
        <time>2026-08-30T09:54:33.000Z</time>
      </trkpt>
      <trkpt lat="47.65639" lon="6.67728">
        <ele>434.6</ele>
        <time>2026-08-30T09:54:36.000Z</time>
      </trkpt>
      <trkpt lat="47.65632" lon="6.67734">
        <ele>433</ele>
        <time>2026-08-30T09:54:38.000Z</time>
      </trkpt>
      <trkpt lat="47.65627" lon="6.67742">
        <ele>431.4</ele>
        <time>2026-08-30T09:54:40.000Z</time>
      </trkpt>
      <trkpt lat="47.65623" lon="6.67751">
        <ele>429.8</ele>
        <time>2026-08-30T09:54:42.000Z</time>
      </trkpt>
      <trkpt lat="47.65618" lon="6.67755">
        <ele>428</ele>
        <time>2026-08-30T09:54:44.000Z</time>
      </trkpt>
      <trkpt lat="47.65614" lon="6.67758">
        <ele>426.2</ele>
        <time>2026-08-30T09:54:46.000Z</time>
      </trkpt>
      <trkpt lat="47.65609" lon="6.67759">
        <ele>424.4</ele>
        <time>2026-08-30T09:54:48.000Z</time>
      </trkpt>
      <trkpt lat="47.65604" lon="6.67761">
        <ele>422.4</ele>
        <time>2026-08-30T09:54:50.000Z</time>
      </trkpt>
      <trkpt lat="47.65598" lon="6.67764">
        <ele>420.4</ele>
        <time>2026-08-30T09:54:52.000Z</time>
      </trkpt>
      <trkpt lat="47.65594" lon="6.67763">
        <ele>419</ele>
        <time>2026-08-30T09:54:54.000Z</time>
      </trkpt>
      <trkpt lat="47.6559" lon="6.67758">
        <ele>418</ele>
        <time>2026-08-30T09:54:56.000Z</time>
      </trkpt>
      <trkpt lat="47.65586" lon="6.6775">
        <ele>417.2</ele>
        <time>2026-08-30T09:54:58.000Z</time>
      </trkpt>
      <trkpt lat="47.65582" lon="6.67741">
        <ele>416.4</ele>
        <time>2026-08-30T09:55:00.000Z</time>
      </trkpt>
      <trkpt lat="47.65577" lon="6.67734">
        <ele>415.8</ele>
        <time>2026-08-30T09:55:02.000Z</time>
      </trkpt>
      <trkpt lat="47.65571" lon="6.67729">
        <ele>414.6</ele>
        <time>2026-08-30T09:55:04.000Z</time>
      </trkpt>
      <trkpt lat="47.65563" lon="6.67727">
        <ele>413.4</ele>
        <time>2026-08-30T09:55:06.000Z</time>
      </trkpt>
      <trkpt lat="47.65557" lon="6.67726">
        <ele>411.8</ele>
        <time>2026-08-30T09:55:08.000Z</time>
      </trkpt>
      <trkpt lat="47.65553" lon="6.67725">
        <ele>410.4</ele>
        <time>2026-08-30T09:55:10.000Z</time>
      </trkpt>
      <trkpt lat="47.65553" lon="6.6772">
        <ele>409.6</ele>
        <time>2026-08-30T09:55:12.000Z</time>
      </trkpt>
      <trkpt lat="47.65553" lon="6.67712">
        <ele>409.2</ele>
        <time>2026-08-30T09:55:14.000Z</time>
      </trkpt>
      <trkpt lat="47.65549" lon="6.67704">
        <ele>409.2</ele>
        <time>2026-08-30T09:55:16.000Z</time>
      </trkpt>
      <trkpt lat="47.65544" lon="6.67697">
        <ele>409</ele>
        <time>2026-08-30T09:55:18.000Z</time>
      </trkpt>
      <trkpt lat="47.65539" lon="6.67688">
        <ele>408.8</ele>
        <time>2026-08-30T09:55:20.000Z</time>
      </trkpt>
      <trkpt lat="47.65535" lon="6.67679">
        <ele>408.4</ele>
        <time>2026-08-30T09:55:22.000Z</time>
      </trkpt>
      <trkpt lat="47.65532" lon="6.67668">
        <ele>408.4</ele>
        <time>2026-08-30T09:55:24.000Z</time>
      </trkpt>
      <trkpt lat="47.65528" lon="6.67656">
        <ele>408.4</ele>
        <time>2026-08-30T09:55:26.000Z</time>
      </trkpt>
      <trkpt lat="47.65525" lon="6.67643">
        <ele>408.2</ele>
        <time>2026-08-30T09:55:28.000Z</time>
      </trkpt>
      <trkpt lat="47.65521" lon="6.67629">
        <ele>408.2</ele>
        <time>2026-08-30T09:55:30.000Z</time>
      </trkpt>
      <trkpt lat="47.65517" lon="6.67613">
        <ele>407.8</ele>
        <time>2026-08-30T09:55:32.000Z</time>
      </trkpt>
      <trkpt lat="47.65512" lon="6.67598">
        <ele>407.6</ele>
        <time>2026-08-30T09:55:34.000Z</time>
      </trkpt>
      <trkpt lat="47.65507" lon="6.67584">
        <ele>407.4</ele>
        <time>2026-08-30T09:55:36.000Z</time>
      </trkpt>
      <trkpt lat="47.65502" lon="6.67571">
        <ele>407.4</ele>
        <time>2026-08-30T09:55:38.000Z</time>
      </trkpt>
      <trkpt lat="47.65498" lon="6.67557">
        <ele>407.2</ele>
        <time>2026-08-30T09:55:40.000Z</time>
      </trkpt>
      <trkpt lat="47.65493" lon="6.67542">
        <ele>407.2</ele>
        <time>2026-08-30T09:55:42.000Z</time>
      </trkpt>
      <trkpt lat="47.65489" lon="6.67526">
        <ele>406.8</ele>
        <time>2026-08-30T09:55:44.000Z</time>
      </trkpt>
      <trkpt lat="47.65485" lon="6.67509">
        <ele>406.4</ele>
        <time>2026-08-30T09:55:46.000Z</time>
      </trkpt>
      <trkpt lat="47.65482" lon="6.6749">
        <ele>405.8</ele>
        <time>2026-08-30T09:55:48.000Z</time>
      </trkpt>
      <trkpt lat="47.6548" lon="6.6747">
        <ele>405.2</ele>
        <time>2026-08-30T09:55:50.000Z</time>
      </trkpt>
      <trkpt lat="47.6548" lon="6.67449">
        <ele>404.8</ele>
        <time>2026-08-30T09:55:52.000Z</time>
      </trkpt>
      <trkpt lat="47.6548" lon="6.67428">
        <ele>404.2</ele>
        <time>2026-08-30T09:55:54.000Z</time>
      </trkpt>
      <trkpt lat="47.65482" lon="6.67406">
        <ele>403.2</ele>
        <time>2026-08-30T09:55:56.000Z</time>
      </trkpt>
      <trkpt lat="47.65484" lon="6.67384">
        <ele>402.2</ele>
        <time>2026-08-30T09:55:58.000Z</time>
      </trkpt>
      <trkpt lat="47.65488" lon="6.67362">
        <ele>401.4</ele>
        <time>2026-08-30T09:56:00.000Z</time>
      </trkpt>
      <trkpt lat="47.65492" lon="6.67341">
        <ele>400.6</ele>
        <time>2026-08-30T09:56:02.000Z</time>
      </trkpt>
      <trkpt lat="47.65496" lon="6.67319">
        <ele>399.6</ele>
        <time>2026-08-30T09:56:04.000Z</time>
      </trkpt>
      <trkpt lat="47.65502" lon="6.67299">
        <ele>398.8</ele>
        <time>2026-08-30T09:56:06.000Z</time>
      </trkpt>
      <trkpt lat="47.65508" lon="6.67279">
        <ele>398.2</ele>
        <time>2026-08-30T09:56:08.000Z</time>
      </trkpt>
      <trkpt lat="47.65516" lon="6.67259">
        <ele>397.2</ele>
        <time>2026-08-30T09:56:10.000Z</time>
      </trkpt>
      <trkpt lat="47.65526" lon="6.6724">
        <ele>396</ele>
        <time>2026-08-30T09:56:12.000Z</time>
      </trkpt>
      <trkpt lat="47.65532" lon="6.67223">
        <ele>394.8</ele>
        <time>2026-08-30T09:56:14.000Z</time>
      </trkpt>
      <trkpt lat="47.65531" lon="6.67208">
        <ele>393.8</ele>
        <time>2026-08-30T09:56:16.000Z</time>
      </trkpt>
      <trkpt lat="47.65522" lon="6.67195">
        <ele>392.8</ele>
        <time>2026-08-30T09:56:18.000Z</time>
      </trkpt>
      <trkpt lat="47.65511" lon="6.67181">
        <ele>392</ele>
        <time>2026-08-30T09:56:20.000Z</time>
      </trkpt>
      <trkpt lat="47.65501" lon="6.67168">
        <ele>392</ele>
        <time>2026-08-30T09:56:22.000Z</time>
      </trkpt>
      <trkpt lat="47.65495" lon="6.67158">
        <ele>392.4</ele>
        <time>2026-08-30T09:56:24.000Z</time>
      </trkpt>
      <trkpt lat="47.6549" lon="6.67156">
        <ele>393</ele>
        <time>2026-08-30T09:56:27.000Z</time>
      </trkpt>
      <trkpt lat="47.65486" lon="6.67157">
        <ele>393.4</ele>
        <time>2026-08-30T09:56:29.000Z</time>
      </trkpt>
      <trkpt lat="47.65483" lon="6.67159">
        <ele>394</ele>
        <time>2026-08-30T09:56:31.000Z</time>
      </trkpt>
      <trkpt lat="47.65479" lon="6.67161">
        <ele>394.4</ele>
        <time>2026-08-30T09:56:33.000Z</time>
      </trkpt>
      <trkpt lat="47.65476" lon="6.67165">
        <ele>395</ele>
        <time>2026-08-30T09:56:35.000Z</time>
      </trkpt>
      <trkpt lat="47.65474" lon="6.67169">
        <ele>395.4</ele>
        <time>2026-08-30T09:56:37.000Z</time>
      </trkpt>
      <trkpt lat="47.65471" lon="6.67173">
        <ele>396</ele>
        <time>2026-08-30T09:56:39.000Z</time>
      </trkpt>
      <trkpt lat="47.65468" lon="6.67177">
        <ele>396.6</ele>
        <time>2026-08-30T09:56:41.000Z</time>
      </trkpt>
      <trkpt lat="47.65466" lon="6.6718">
        <ele>397</ele>
        <time>2026-08-30T09:56:43.000Z</time>
      </trkpt>
      <trkpt lat="47.65463" lon="6.67184">
        <ele>397.6</ele>
        <time>2026-08-30T09:56:45.000Z</time>
      </trkpt>
      <trkpt lat="47.6546" lon="6.67187">
        <ele>398</ele>
        <time>2026-08-30T09:56:47.000Z</time>
      </trkpt>
      <trkpt lat="47.65458" lon="6.6719">
        <ele>398.6</ele>
        <time>2026-08-30T09:56:49.000Z</time>
      </trkpt>
      <trkpt lat="47.65455" lon="6.67194">
        <ele>399</ele>
        <time>2026-08-30T09:56:51.000Z</time>
      </trkpt>
      <trkpt lat="47.65453" lon="6.67197">
        <ele>399.4</ele>
        <time>2026-08-30T09:56:53.000Z</time>
      </trkpt>
      <trkpt lat="47.6545" lon="6.672">
        <ele>400</ele>
        <time>2026-08-30T09:56:55.000Z</time>
      </trkpt>
      <trkpt lat="47.65447" lon="6.67201">
        <ele>400.4</ele>
        <time>2026-08-30T09:56:57.000Z</time>
      </trkpt>
      <trkpt lat="47.65444" lon="6.67203">
        <ele>400.8</ele>
        <time>2026-08-30T09:56:59.000Z</time>
      </trkpt>
      <trkpt lat="47.6544" lon="6.67203">
        <ele>401.4</ele>
        <time>2026-08-30T09:57:01.000Z</time>
      </trkpt>
      <trkpt lat="47.65437" lon="6.67203">
        <ele>401.8</ele>
        <time>2026-08-30T09:57:03.000Z</time>
      </trkpt>
      <trkpt lat="47.65434" lon="6.67203">
        <ele>402.2</ele>
        <time>2026-08-30T09:57:05.000Z</time>
      </trkpt>
      <trkpt lat="47.65431" lon="6.67204">
        <ele>402.8</ele>
        <time>2026-08-30T09:57:07.000Z</time>
      </trkpt>
      <trkpt lat="47.65428" lon="6.67204">
        <ele>403.2</ele>
        <time>2026-08-30T09:57:09.000Z</time>
      </trkpt>
      <trkpt lat="47.65425" lon="6.67205">
        <ele>403.6</ele>
        <time>2026-08-30T09:57:11.000Z</time>
      </trkpt>
      <trkpt lat="47.65422" lon="6.67204">
        <ele>404</ele>
        <time>2026-08-30T09:57:13.000Z</time>
      </trkpt>
      <trkpt lat="47.6542" lon="6.67203">
        <ele>404.6</ele>
        <time>2026-08-30T09:57:15.000Z</time>
      </trkpt>
      <trkpt lat="47.65417" lon="6.67201">
        <ele>405</ele>
        <time>2026-08-30T09:57:17.000Z</time>
      </trkpt>
      <trkpt lat="47.65415" lon="6.67198">
        <ele>405.4</ele>
        <time>2026-08-30T09:57:19.000Z</time>
      </trkpt>
      <trkpt lat="47.65413" lon="6.67195">
        <ele>405.4</ele>
        <time>2026-08-30T09:57:21.000Z</time>
      </trkpt>
      <trkpt lat="47.6541" lon="6.67192">
        <ele>405.6</ele>
        <time>2026-08-30T09:57:23.000Z</time>
      </trkpt>
      <trkpt lat="47.65408" lon="6.6719">
        <ele>405.8</ele>
        <time>2026-08-30T09:57:25.000Z</time>
      </trkpt>
      <trkpt lat="47.65406" lon="6.67187">
        <ele>406</ele>
        <time>2026-08-30T09:57:27.000Z</time>
      </trkpt>
      <trkpt lat="47.65403" lon="6.67185">
        <ele>406.2</ele>
        <time>2026-08-30T09:57:29.000Z</time>
      </trkpt>
      <trkpt lat="47.65401" lon="6.67181">
        <ele>406.6</ele>
        <time>2026-08-30T09:57:31.000Z</time>
      </trkpt>
      <trkpt lat="47.65398" lon="6.67178">
        <ele>407</ele>
        <time>2026-08-30T09:57:33.000Z</time>
      </trkpt>
      <trkpt lat="47.65396" lon="6.67175">
        <ele>407.6</ele>
        <time>2026-08-30T09:57:35.000Z</time>
      </trkpt>
      <trkpt lat="47.65394" lon="6.67171">
        <ele>408</ele>
        <time>2026-08-30T09:57:37.000Z</time>
      </trkpt>
      <trkpt lat="47.65392" lon="6.67167">
        <ele>408.4</ele>
        <time>2026-08-30T09:57:39.000Z</time>
      </trkpt>
      <trkpt lat="47.65391" lon="6.67163">
        <ele>408.6</ele>
        <time>2026-08-30T09:57:41.000Z</time>
      </trkpt>
      <trkpt lat="47.65389" lon="6.67158">
        <ele>409</ele>
        <time>2026-08-30T09:57:43.000Z</time>
      </trkpt>
      <trkpt lat="47.65388" lon="6.67152">
        <ele>409.2</ele>
        <time>2026-08-30T09:57:45.000Z</time>
      </trkpt>
      <trkpt lat="47.65387" lon="6.67147">
        <ele>409.4</ele>
        <time>2026-08-30T09:57:47.000Z</time>
      </trkpt>
      <trkpt lat="47.65386" lon="6.67142">
        <ele>409.6</ele>
        <time>2026-08-30T09:57:49.000Z</time>
      </trkpt>
      <trkpt lat="47.65384" lon="6.67138">
        <ele>409.8</ele>
        <time>2026-08-30T09:57:52.000Z</time>
      </trkpt>
      <trkpt lat="47.65383" lon="6.67133">
        <ele>410</ele>
        <time>2026-08-30T09:57:54.000Z</time>
      </trkpt>
      <trkpt lat="47.65382" lon="6.67127">
        <ele>410.2</ele>
        <time>2026-08-30T09:57:56.000Z</time>
      </trkpt>
      <trkpt lat="47.65381" lon="6.67121">
        <ele>410.4</ele>
        <time>2026-08-30T09:57:58.000Z</time>
      </trkpt>
      <trkpt lat="47.6538" lon="6.67114">
        <ele>410.4</ele>
        <time>2026-08-30T09:58:00.000Z</time>
      </trkpt>
      <trkpt lat="47.6538" lon="6.67106">
        <ele>410.4</ele>
        <time>2026-08-30T09:58:02.000Z</time>
      </trkpt>
      <trkpt lat="47.65379" lon="6.67098">
        <ele>410.4</ele>
        <time>2026-08-30T09:58:04.000Z</time>
      </trkpt>
      <trkpt lat="47.65377" lon="6.67089">
        <ele>410.4</ele>
        <time>2026-08-30T09:58:06.000Z</time>
      </trkpt>
      <trkpt lat="47.65376" lon="6.67081">
        <ele>410.2</ele>
        <time>2026-08-30T09:58:08.000Z</time>
      </trkpt>
      <trkpt lat="47.65375" lon="6.67073">
        <ele>410.2</ele>
        <time>2026-08-30T09:58:10.000Z</time>
      </trkpt>
      <trkpt lat="47.65374" lon="6.67063">
        <ele>410</ele>
        <time>2026-08-30T09:58:12.000Z</time>
      </trkpt>
      <trkpt lat="47.65374" lon="6.67052">
        <ele>409.8</ele>
        <time>2026-08-30T09:58:14.000Z</time>
      </trkpt>
      <trkpt lat="47.65373" lon="6.67039">
        <ele>409.6</ele>
        <time>2026-08-30T09:58:16.000Z</time>
      </trkpt>
      <trkpt lat="47.65371" lon="6.67028">
        <ele>409.2</ele>
        <time>2026-08-30T09:58:18.000Z</time>
      </trkpt>
      <trkpt lat="47.65367" lon="6.67017">
        <ele>409</ele>
        <time>2026-08-30T09:58:20.000Z</time>
      </trkpt>
      <trkpt lat="47.6536" lon="6.67009">
        <ele>409</ele>
        <time>2026-08-30T09:58:22.000Z</time>
      </trkpt>
      <trkpt lat="47.65353" lon="6.67005">
        <ele>408.8</ele>
        <time>2026-08-30T09:58:24.000Z</time>
      </trkpt>
      <trkpt lat="47.65346" lon="6.67004">
        <ele>408.4</ele>
        <time>2026-08-30T09:58:26.000Z</time>
      </trkpt>
      <trkpt lat="47.65337" lon="6.67006">
        <ele>407.4</ele>
        <time>2026-08-30T09:58:28.000Z</time>
      </trkpt>
      <trkpt lat="47.65329" lon="6.67015">
        <ele>406.6</ele>
        <time>2026-08-30T09:58:30.000Z</time>
      </trkpt>
      <trkpt lat="47.65322" lon="6.67031">
        <ele>405.2</ele>
        <time>2026-08-30T09:58:32.000Z</time>
      </trkpt>
      <trkpt lat="47.65316" lon="6.67052">
        <ele>403.8</ele>
        <time>2026-08-30T09:58:34.000Z</time>
      </trkpt>
      <trkpt lat="47.65307" lon="6.67065">
        <ele>402.4</ele>
        <time>2026-08-30T09:58:36.000Z</time>
      </trkpt>
      <trkpt lat="47.65295" lon="6.67063">
        <ele>400.6</ele>
        <time>2026-08-30T09:58:38.000Z</time>
      </trkpt>
      <trkpt lat="47.65286" lon="6.67053">
        <ele>398.6</ele>
        <time>2026-08-30T09:58:40.000Z</time>
      </trkpt>
      <trkpt lat="47.65281" lon="6.67042">
        <ele>396.6</ele>
        <time>2026-08-30T09:58:42.000Z</time>
      </trkpt>
      <trkpt lat="47.6528" lon="6.67035">
        <ele>395.4</ele>
        <time>2026-08-30T09:58:44.000Z</time>
      </trkpt>
      <trkpt lat="47.65281" lon="6.67029">
        <ele>394.4</ele>
        <time>2026-08-30T09:58:46.000Z</time>
      </trkpt>
      <trkpt lat="47.65281" lon="6.67026">
        <ele>393.6</ele>
        <time>2026-08-30T09:58:48.000Z</time>
      </trkpt>
      <trkpt lat="47.65281" lon="6.67025">
        <ele>393</ele>
        <time>2026-08-30T09:58:50.000Z</time>
      </trkpt>
      <trkpt lat="47.6528" lon="6.67026">
        <ele>392.8</ele>
        <time>2026-08-30T09:58:52.000Z</time>
      </trkpt>
      <trkpt lat="47.65279" lon="6.67026">
        <ele>392.6</ele>
        <time>2026-08-30T09:58:54.000Z</time>
      </trkpt>
      <trkpt lat="47.65279" lon="6.67025">
        <ele>392.4</ele>
        <time>2026-08-30T09:58:56.000Z</time>
      </trkpt>
      <trkpt lat="47.65278" lon="6.67024">
        <ele>392.4</ele>
        <time>2026-08-30T09:58:58.000Z</time>
      </trkpt>
      <trkpt lat="47.65278" lon="6.67024">
        <ele>392.4</ele>
        <time>2026-08-30T09:59:00.000Z</time>
      </trkpt>
      <trkpt lat="47.65278" lon="6.67024">
        <ele>392.2</ele>
        <time>2026-08-30T09:59:02.000Z</time>
      </trkpt>
      <trkpt lat="47.65278" lon="6.67023">
        <ele>392.2</ele>
        <time>2026-08-30T09:59:04.000Z</time>
      </trkpt>
      <trkpt lat="47.65278" lon="6.67023">
        <ele>392.2</ele>
        <time>2026-08-30T09:59:06.000Z</time>
      </trkpt>
      <trkpt lat="47.65278" lon="6.67022">
        <ele>392.2</ele>
        <time>2026-08-30T09:59:08.000Z</time>
      </trkpt>
      <trkpt lat="47.65279" lon="6.6702">
        <ele>392.2</ele>
        <time>2026-08-30T09:59:10.000Z</time>
      </trkpt>
      <trkpt lat="47.65283" lon="6.67016">
        <ele>392.2</ele>
        <time>2026-08-30T09:59:12.000Z</time>
      </trkpt>
      <trkpt lat="47.65285" lon="6.67009">
        <ele>392.2</ele>
        <time>2026-08-30T09:59:14.000Z</time>
      </trkpt>
      <trkpt lat="47.65286" lon="6.67">
        <ele>392</ele>
        <time>2026-08-30T09:59:16.000Z</time>
      </trkpt>
      <trkpt lat="47.65285" lon="6.6699">
        <ele>391.4</ele>
        <time>2026-08-30T09:59:18.000Z</time>
      </trkpt>
      <trkpt lat="47.65283" lon="6.6698">
        <ele>390.4</ele>
        <time>2026-08-30T09:59:20.000Z</time>
      </trkpt>
      <trkpt lat="47.65283" lon="6.66974">
        <ele>389.6</ele>
        <time>2026-08-30T09:59:22.000Z</time>
      </trkpt>
      <trkpt lat="47.65284" lon="6.66971">
        <ele>389.2</ele>
        <time>2026-08-30T09:59:24.000Z</time>
      </trkpt>
      <trkpt lat="47.65283" lon="6.6697">
        <ele>388.8</ele>
        <time>2026-08-30T09:59:26.000Z</time>
      </trkpt>
      <trkpt lat="47.65281" lon="6.66967">
        <ele>388.6</ele>
        <time>2026-08-30T09:59:28.000Z</time>
      </trkpt>
      <trkpt lat="47.6528" lon="6.66963">
        <ele>388.4</ele>
        <time>2026-08-30T09:59:30.000Z</time>
      </trkpt>
      <trkpt lat="47.6528" lon="6.66958">
        <ele>388.4</ele>
        <time>2026-08-30T09:59:32.000Z</time>
      </trkpt>
      <trkpt lat="47.65281" lon="6.66953">
        <ele>388.4</ele>
        <time>2026-08-30T09:59:34.000Z</time>
      </trkpt>
      <trkpt lat="47.65283" lon="6.66947">
        <ele>388.4</ele>
        <time>2026-08-30T09:59:36.000Z</time>
      </trkpt>
      <trkpt lat="47.65284" lon="6.6694">
        <ele>388.6</ele>
        <time>2026-08-30T09:59:38.000Z</time>
      </trkpt>
      <trkpt lat="47.65285" lon="6.66933">
        <ele>389</ele>
        <time>2026-08-30T09:59:40.000Z</time>
      </trkpt>
      <trkpt lat="47.65284" lon="6.66926">
        <ele>389.4</ele>
        <time>2026-08-30T09:59:42.000Z</time>
      </trkpt>
      <trkpt lat="47.65283" lon="6.6692">
        <ele>389.8</ele>
        <time>2026-08-30T09:59:44.000Z</time>
      </trkpt>
      <trkpt lat="47.65282" lon="6.66916">
        <ele>390</ele>
        <time>2026-08-30T09:59:46.000Z</time>
      </trkpt>
      <trkpt lat="47.65281" lon="6.66911">
        <ele>390.2</ele>
        <time>2026-08-30T09:59:49.000Z</time>
      </trkpt>
      <trkpt lat="47.65279" lon="6.66905">
        <ele>390.6</ele>
        <time>2026-08-30T09:59:51.000Z</time>
      </trkpt>
      <trkpt lat="47.65278" lon="6.66899">
        <ele>390.8</ele>
        <time>2026-08-30T09:59:53.000Z</time>
      </trkpt>
      <trkpt lat="47.65277" lon="6.66892">
        <ele>391.2</ele>
        <time>2026-08-30T09:59:55.000Z</time>
      </trkpt>
      <trkpt lat="47.65276" lon="6.66885">
        <ele>391.6</ele>
        <time>2026-08-30T09:59:57.000Z</time>
      </trkpt>
      <trkpt lat="47.65275" lon="6.66879">
        <ele>392</ele>
        <time>2026-08-30T09:59:59.000Z</time>
      </trkpt>
      <trkpt lat="47.65274" lon="6.66872">
        <ele>392.6</ele>
        <time>2026-08-30T10:00:01.000Z</time>
      </trkpt>
      <trkpt lat="47.65272" lon="6.66866">
        <ele>392.8</ele>
        <time>2026-08-30T10:00:03.000Z</time>
      </trkpt>
      <trkpt lat="47.65271" lon="6.6686">
        <ele>393</ele>
        <time>2026-08-30T10:00:05.000Z</time>
      </trkpt>
      <trkpt lat="47.65269" lon="6.66851">
        <ele>393</ele>
        <time>2026-08-30T10:00:07.000Z</time>
      </trkpt>
      <trkpt lat="47.65267" lon="6.66841">
        <ele>393</ele>
        <time>2026-08-30T10:00:09.000Z</time>
      </trkpt>
      <trkpt lat="47.65265" lon="6.66831">
        <ele>392.8</ele>
        <time>2026-08-30T10:00:11.000Z</time>
      </trkpt>
      <trkpt lat="47.65263" lon="6.6682">
        <ele>392.4</ele>
        <time>2026-08-30T10:00:13.000Z</time>
      </trkpt>
      <trkpt lat="47.65261" lon="6.66806">
        <ele>392</ele>
        <time>2026-08-30T10:00:15.000Z</time>
      </trkpt>
      <trkpt lat="47.65259" lon="6.66791">
        <ele>391.4</ele>
        <time>2026-08-30T10:00:17.000Z</time>
      </trkpt>
      <trkpt lat="47.65256" lon="6.66772">
        <ele>390.8</ele>
        <time>2026-08-30T10:00:19.000Z</time>
      </trkpt>
      <trkpt lat="47.65252" lon="6.66757">
        <ele>390.6</ele>
        <time>2026-08-30T10:00:21.000Z</time>
      </trkpt>
      <trkpt lat="47.65249" lon="6.66745">
        <ele>390.2</ele>
        <time>2026-08-30T10:00:23.000Z</time>
      </trkpt>
      <trkpt lat="47.65244" lon="6.66736">
        <ele>390</ele>
        <time>2026-08-30T10:00:25.000Z</time>
      </trkpt>
      <trkpt lat="47.65239" lon="6.66727">
        <ele>389.8</ele>
        <time>2026-08-30T10:00:27.000Z</time>
      </trkpt>
      <trkpt lat="47.65234" lon="6.66719">
        <ele>389.6</ele>
        <time>2026-08-30T10:00:29.000Z</time>
      </trkpt>
      <trkpt lat="47.65228" lon="6.66714">
        <ele>389.6</ele>
        <time>2026-08-30T10:00:31.000Z</time>
      </trkpt>
      <trkpt lat="47.65221" lon="6.66709">
        <ele>389.6</ele>
        <time>2026-08-30T10:00:33.000Z</time>
      </trkpt>
      <trkpt lat="47.65211" lon="6.667">
        <ele>389</ele>
        <time>2026-08-30T10:00:35.000Z</time>
      </trkpt>
      <trkpt lat="47.652" lon="6.66687">
        <ele>388.2</ele>
        <time>2026-08-30T10:00:37.000Z</time>
      </trkpt>
      <trkpt lat="47.6519" lon="6.66675">
        <ele>388.2</ele>
        <time>2026-08-30T10:00:39.000Z</time>
      </trkpt>
      <trkpt lat="47.65182" lon="6.66666">
        <ele>388.4</ele>
        <time>2026-08-30T10:00:41.000Z</time>
      </trkpt>
      <trkpt lat="47.65177" lon="6.66656">
        <ele>388.8</ele>
        <time>2026-08-30T10:00:43.000Z</time>
      </trkpt>
      <trkpt lat="47.65173" lon="6.66643">
        <ele>388.8</ele>
        <time>2026-08-30T10:00:45.000Z</time>
      </trkpt>
      <trkpt lat="47.6517" lon="6.6663">
        <ele>388.6</ele>
        <time>2026-08-30T10:00:47.000Z</time>
      </trkpt>
      <trkpt lat="47.65166" lon="6.66615">
        <ele>388.4</ele>
        <time>2026-08-30T10:00:49.000Z</time>
      </trkpt>
      <trkpt lat="47.65161" lon="6.666">
        <ele>388.2</ele>
        <time>2026-08-30T10:00:51.000Z</time>
      </trkpt>
      <trkpt lat="47.65155" lon="6.66586">
        <ele>388</ele>
        <time>2026-08-30T10:00:53.000Z</time>
      </trkpt>
      <trkpt lat="47.65147" lon="6.66574">
        <ele>387.8</ele>
        <time>2026-08-30T10:00:55.000Z</time>
      </trkpt>
      <trkpt lat="47.65137" lon="6.66563">
        <ele>387.4</ele>
        <time>2026-08-30T10:00:57.000Z</time>
      </trkpt>
      <trkpt lat="47.65127" lon="6.66555">
        <ele>387.2</ele>
        <time>2026-08-30T10:00:59.000Z</time>
      </trkpt>
      <trkpt lat="47.65116" lon="6.6655">
        <ele>387</ele>
        <time>2026-08-30T10:01:01.000Z</time>
      </trkpt>
      <trkpt lat="47.65104" lon="6.66545">
        <ele>386.6</ele>
        <time>2026-08-30T10:01:03.000Z</time>
      </trkpt>
      <trkpt lat="47.65091" lon="6.66538">
        <ele>386</ele>
        <time>2026-08-30T10:01:05.000Z</time>
      </trkpt>
      <trkpt lat="47.6508" lon="6.66526">
        <ele>385</ele>
        <time>2026-08-30T10:01:07.000Z</time>
      </trkpt>
      <trkpt lat="47.65071" lon="6.66509">
        <ele>383.8</ele>
        <time>2026-08-30T10:01:09.000Z</time>
      </trkpt>
      <trkpt lat="47.65063" lon="6.66488">
        <ele>382.4</ele>
        <time>2026-08-30T10:01:11.000Z</time>
      </trkpt>
      <trkpt lat="47.65055" lon="6.66462">
        <ele>380.6</ele>
        <time>2026-08-30T10:01:13.000Z</time>
      </trkpt>
      <trkpt lat="47.65047" lon="6.66436">
        <ele>379.2</ele>
        <time>2026-08-30T10:01:15.000Z</time>
      </trkpt>
      <trkpt lat="47.65041" lon="6.66409">
        <ele>377.8</ele>
        <time>2026-08-30T10:01:17.000Z</time>
      </trkpt>
      <trkpt lat="47.65032" lon="6.66385">
        <ele>376.6</ele>
        <time>2026-08-30T10:01:20.000Z</time>
      </trkpt>
      <trkpt lat="47.65018" lon="6.66367">
        <ele>375.6</ele>
        <time>2026-08-30T10:01:22.000Z</time>
      </trkpt>
      <trkpt lat="47.65002" lon="6.66355">
        <ele>374.8</ele>
        <time>2026-08-30T10:01:24.000Z</time>
      </trkpt>
      <trkpt lat="47.64987" lon="6.66345">
        <ele>374</ele>
        <time>2026-08-30T10:01:26.000Z</time>
      </trkpt>
      <trkpt lat="47.64973" lon="6.66342">
        <ele>372.8</ele>
        <time>2026-08-30T10:01:28.000Z</time>
      </trkpt>
      <trkpt lat="47.64959" lon="6.66343">
        <ele>371.6</ele>
        <time>2026-08-30T10:01:30.000Z</time>
      </trkpt>
      <trkpt lat="47.64948" lon="6.66343">
        <ele>369.8</ele>
        <time>2026-08-30T10:01:32.000Z</time>
      </trkpt>
      <trkpt lat="47.6494" lon="6.66331">
        <ele>367.6</ele>
        <time>2026-08-30T10:01:34.000Z</time>
      </trkpt>
      <trkpt lat="47.6493" lon="6.66314">
        <ele>365.8</ele>
        <time>2026-08-30T10:01:36.000Z</time>
      </trkpt>
      <trkpt lat="47.64919" lon="6.66305">
        <ele>364.6</ele>
        <time>2026-08-30T10:01:38.000Z</time>
      </trkpt>
      <trkpt lat="47.64912" lon="6.66308">
        <ele>364</ele>
        <time>2026-08-30T10:01:40.000Z</time>
      </trkpt>
      <trkpt lat="47.64908" lon="6.66317">
        <ele>364</ele>
        <time>2026-08-30T10:01:42.000Z</time>
      </trkpt>
      <trkpt lat="47.64904" lon="6.66324">
        <ele>364</ele>
        <time>2026-08-30T10:01:44.000Z</time>
      </trkpt>
      <trkpt lat="47.64899" lon="6.66328">
        <ele>364</ele>
        <time>2026-08-30T10:01:46.000Z</time>
      </trkpt>
      <trkpt lat="47.64894" lon="6.66329">
        <ele>364.2</ele>
        <time>2026-08-30T10:01:48.000Z</time>
      </trkpt>
      <trkpt lat="47.64888" lon="6.66329">
        <ele>364.6</ele>
        <time>2026-08-30T10:01:50.000Z</time>
      </trkpt>
      <trkpt lat="47.64882" lon="6.66328">
        <ele>365</ele>
        <time>2026-08-30T10:01:52.000Z</time>
      </trkpt>
      <trkpt lat="47.64877" lon="6.66327">
        <ele>365.4</ele>
        <time>2026-08-30T10:01:54.000Z</time>
      </trkpt>
      <trkpt lat="47.64872" lon="6.66325">
        <ele>366</ele>
        <time>2026-08-30T10:01:56.000Z</time>
      </trkpt>
      <trkpt lat="47.64866" lon="6.66324">
        <ele>366.4</ele>
        <time>2026-08-30T10:01:58.000Z</time>
      </trkpt>
      <trkpt lat="47.64861" lon="6.66322">
        <ele>366.6</ele>
        <time>2026-08-30T10:02:00.000Z</time>
      </trkpt>
      <trkpt lat="47.64855" lon="6.6632">
        <ele>367</ele>
        <time>2026-08-30T10:02:02.000Z</time>
      </trkpt>
      <trkpt lat="47.64848" lon="6.66318">
        <ele>367.4</ele>
        <time>2026-08-30T10:02:04.000Z</time>
      </trkpt>
      <trkpt lat="47.64841" lon="6.66317">
        <ele>367.8</ele>
        <time>2026-08-30T10:02:06.000Z</time>
      </trkpt>
      <trkpt lat="47.64835" lon="6.66317">
        <ele>368</ele>
        <time>2026-08-30T10:02:08.000Z</time>
      </trkpt>
      <trkpt lat="47.6483" lon="6.66318">
        <ele>368.4</ele>
        <time>2026-08-30T10:02:10.000Z</time>
      </trkpt>
      <trkpt lat="47.64824" lon="6.66321">
        <ele>368.8</ele>
        <time>2026-08-30T10:02:12.000Z</time>
      </trkpt>
      <trkpt lat="47.64819" lon="6.66325">
        <ele>369</ele>
        <time>2026-08-30T10:02:14.000Z</time>
      </trkpt>
      <trkpt lat="47.64815" lon="6.66332">
        <ele>369.4</ele>
        <time>2026-08-30T10:02:16.000Z</time>
      </trkpt>
      <trkpt lat="47.64811" lon="6.66339">
        <ele>369.6</ele>
        <time>2026-08-30T10:02:18.000Z</time>
      </trkpt>
      <trkpt lat="47.64807" lon="6.66345">
        <ele>369.8</ele>
        <time>2026-08-30T10:02:20.000Z</time>
      </trkpt>
      <trkpt lat="47.64803" lon="6.66351">
        <ele>370.2</ele>
        <time>2026-08-30T10:02:22.000Z</time>
      </trkpt>
      <trkpt lat="47.64799" lon="6.66358">
        <ele>370.4</ele>
        <time>2026-08-30T10:02:24.000Z</time>
      </trkpt>
      <trkpt lat="47.64796" lon="6.66364">
        <ele>370.6</ele>
        <time>2026-08-30T10:02:26.000Z</time>
      </trkpt>
      <trkpt lat="47.64792" lon="6.6637">
        <ele>371</ele>
        <time>2026-08-30T10:02:28.000Z</time>
      </trkpt>
      <trkpt lat="47.64788" lon="6.66377">
        <ele>371.2</ele>
        <time>2026-08-30T10:02:30.000Z</time>
      </trkpt>
      <trkpt lat="47.64784" lon="6.66384">
        <ele>371.6</ele>
        <time>2026-08-30T10:02:32.000Z</time>
      </trkpt>
      <trkpt lat="47.64781" lon="6.6639">
        <ele>372</ele>
        <time>2026-08-30T10:02:34.000Z</time>
      </trkpt>
      <trkpt lat="47.64777" lon="6.66395">
        <ele>372.2</ele>
        <time>2026-08-30T10:02:36.000Z</time>
      </trkpt>
      <trkpt lat="47.64773" lon="6.66401">
        <ele>372.6</ele>
        <time>2026-08-30T10:02:38.000Z</time>
      </trkpt>
      <trkpt lat="47.64769" lon="6.66407">
        <ele>373</ele>
        <time>2026-08-30T10:02:40.000Z</time>
      </trkpt>
      <trkpt lat="47.64766" lon="6.66412">
        <ele>373.2</ele>
        <time>2026-08-30T10:02:42.000Z</time>
      </trkpt>
      <trkpt lat="47.64763" lon="6.66419">
        <ele>373.6</ele>
        <time>2026-08-30T10:02:44.000Z</time>
      </trkpt>
      <trkpt lat="47.6476" lon="6.66425">
        <ele>373.8</ele>
        <time>2026-08-30T10:02:46.000Z</time>
      </trkpt>
      <trkpt lat="47.64757" lon="6.66431">
        <ele>374.2</ele>
        <time>2026-08-30T10:02:48.000Z</time>
      </trkpt>
      <trkpt lat="47.64754" lon="6.66438">
        <ele>374.4</ele>
        <time>2026-08-30T10:02:50.000Z</time>
      </trkpt>
      <trkpt lat="47.64752" lon="6.66445">
        <ele>374.8</ele>
        <time>2026-08-30T10:02:52.000Z</time>
      </trkpt>
      <trkpt lat="47.6475" lon="6.66452">
        <ele>375</ele>
        <time>2026-08-30T10:02:54.000Z</time>
      </trkpt>
      <trkpt lat="47.6475" lon="6.66459">
        <ele>375.4</ele>
        <time>2026-08-30T10:02:56.000Z</time>
      </trkpt>
      <trkpt lat="47.6475" lon="6.66467">
        <ele>375.6</ele>
        <time>2026-08-30T10:02:59.000Z</time>
      </trkpt>
      <trkpt lat="47.6475" lon="6.66475">
        <ele>375.8</ele>
        <time>2026-08-30T10:03:01.000Z</time>
      </trkpt>
      <trkpt lat="47.64751" lon="6.66482">
        <ele>376</ele>
        <time>2026-08-30T10:03:03.000Z</time>
      </trkpt>
      <trkpt lat="47.64751" lon="6.66489">
        <ele>376.4</ele>
        <time>2026-08-30T10:03:05.000Z</time>
      </trkpt>
      <trkpt lat="47.64751" lon="6.66497">
        <ele>376.6</ele>
        <time>2026-08-30T10:03:07.000Z</time>
      </trkpt>
      <trkpt lat="47.64751" lon="6.66504">
        <ele>376.8</ele>
        <time>2026-08-30T10:03:09.000Z</time>
      </trkpt>
      <trkpt lat="47.64751" lon="6.66511">
        <ele>377.2</ele>
        <time>2026-08-30T10:03:11.000Z</time>
      </trkpt>
      <trkpt lat="47.6475" lon="6.66518">
        <ele>377.4</ele>
        <time>2026-08-30T10:03:13.000Z</time>
      </trkpt>
      <trkpt lat="47.64748" lon="6.66525">
        <ele>377.6</ele>
        <time>2026-08-30T10:03:15.000Z</time>
      </trkpt>
      <trkpt lat="47.64747" lon="6.66531">
        <ele>377.8</ele>
        <time>2026-08-30T10:03:17.000Z</time>
      </trkpt>
      <trkpt lat="47.64745" lon="6.66538">
        <ele>378.2</ele>
        <time>2026-08-30T10:03:19.000Z</time>
      </trkpt>
      <trkpt lat="47.64743" lon="6.66544">
        <ele>378.4</ele>
        <time>2026-08-30T10:03:21.000Z</time>
      </trkpt>
      <trkpt lat="47.64742" lon="6.6655">
        <ele>378.6</ele>
        <time>2026-08-30T10:03:23.000Z</time>
      </trkpt>
      <trkpt lat="47.64741" lon="6.66556">
        <ele>379</ele>
        <time>2026-08-30T10:03:25.000Z</time>
      </trkpt>
      <trkpt lat="47.6474" lon="6.66562">
        <ele>379.4</ele>
        <time>2026-08-30T10:03:27.000Z</time>
      </trkpt>
      <trkpt lat="47.6474" lon="6.66568">
        <ele>379.6</ele>
        <time>2026-08-30T10:03:29.000Z</time>
      </trkpt>
      <trkpt lat="47.64741" lon="6.66573">
        <ele>380</ele>
        <time>2026-08-30T10:03:31.000Z</time>
      </trkpt>
      <trkpt lat="47.64741" lon="6.66579">
        <ele>380.2</ele>
        <time>2026-08-30T10:03:33.000Z</time>
      </trkpt>
      <trkpt lat="47.64741" lon="6.66585">
        <ele>380.6</ele>
        <time>2026-08-30T10:03:35.000Z</time>
      </trkpt>
      <trkpt lat="47.64739" lon="6.66591">
        <ele>381</ele>
        <time>2026-08-30T10:03:37.000Z</time>
      </trkpt>
      <trkpt lat="47.64736" lon="6.66597">
        <ele>381.4</ele>
        <time>2026-08-30T10:03:39.000Z</time>
      </trkpt>
      <trkpt lat="47.64733" lon="6.666">
        <ele>381.8</ele>
        <time>2026-08-30T10:03:41.000Z</time>
      </trkpt>
      <trkpt lat="47.64727" lon="6.66597">
        <ele>382.2</ele>
        <time>2026-08-30T10:03:43.000Z</time>
      </trkpt>
      <trkpt lat="47.64722" lon="6.66592">
        <ele>382.6</ele>
        <time>2026-08-30T10:03:45.000Z</time>
      </trkpt>
      <trkpt lat="47.64719" lon="6.66586">
        <ele>383</ele>
        <time>2026-08-30T10:03:47.000Z</time>
      </trkpt>
      <trkpt lat="47.64716" lon="6.66581">
        <ele>383.2</ele>
        <time>2026-08-30T10:03:49.000Z</time>
      </trkpt>
      <trkpt lat="47.64713" lon="6.66576">
        <ele>383.4</ele>
        <time>2026-08-30T10:03:51.000Z</time>
      </trkpt>
      <trkpt lat="47.6471" lon="6.66571">
        <ele>383.6</ele>
        <time>2026-08-30T10:03:53.000Z</time>
      </trkpt>
      <trkpt lat="47.64706" lon="6.66566">
        <ele>384</ele>
        <time>2026-08-30T10:03:55.000Z</time>
      </trkpt>
      <trkpt lat="47.64703" lon="6.66561">
        <ele>384.2</ele>
        <time>2026-08-30T10:03:57.000Z</time>
      </trkpt>
      <trkpt lat="47.647" lon="6.66556">
        <ele>384.4</ele>
        <time>2026-08-30T10:03:59.000Z</time>
      </trkpt>
      <trkpt lat="47.64696" lon="6.66552">
        <ele>384.6</ele>
        <time>2026-08-30T10:04:01.000Z</time>
      </trkpt>
      <trkpt lat="47.64692" lon="6.66548">
        <ele>384.8</ele>
        <time>2026-08-30T10:04:03.000Z</time>
      </trkpt>
      <trkpt lat="47.64689" lon="6.66545">
        <ele>385.2</ele>
        <time>2026-08-30T10:04:05.000Z</time>
      </trkpt>
      <trkpt lat="47.64684" lon="6.66543">
        <ele>385.4</ele>
        <time>2026-08-30T10:04:07.000Z</time>
      </trkpt>
      <trkpt lat="47.6468" lon="6.66543">
        <ele>385.8</ele>
        <time>2026-08-30T10:04:09.000Z</time>
      </trkpt>
      <trkpt lat="47.64675" lon="6.66546">
        <ele>386.2</ele>
        <time>2026-08-30T10:04:11.000Z</time>
      </trkpt>
      <trkpt lat="47.64671" lon="6.66551">
        <ele>386.4</ele>
        <time>2026-08-30T10:04:13.000Z</time>
      </trkpt>
      <trkpt lat="47.64668" lon="6.66556">
        <ele>386.8</ele>
        <time>2026-08-30T10:04:15.000Z</time>
      </trkpt>
      <trkpt lat="47.64666" lon="6.66562">
        <ele>387</ele>
        <time>2026-08-30T10:04:17.000Z</time>
      </trkpt>
      <trkpt lat="47.64663" lon="6.66564">
        <ele>387.2</ele>
        <time>2026-08-30T10:04:19.000Z</time>
      </trkpt>
      <trkpt lat="47.64661" lon="6.66561">
        <ele>387.4</ele>
        <time>2026-08-30T10:04:21.000Z</time>
      </trkpt>
      <trkpt lat="47.64662" lon="6.66552">
        <ele>387.2</ele>
        <time>2026-08-30T10:04:23.000Z</time>
      </trkpt>
      <trkpt lat="47.64665" lon="6.66539">
        <ele>386.8</ele>
        <time>2026-08-30T10:04:25.000Z</time>
      </trkpt>
      <trkpt lat="47.64669" lon="6.66521">
        <ele>386.2</ele>
        <time>2026-08-30T10:04:27.000Z</time>
      </trkpt>
      <trkpt lat="47.64672" lon="6.66503">
        <ele>385.2</ele>
        <time>2026-08-30T10:04:29.000Z</time>
      </trkpt>
      <trkpt lat="47.64677" lon="6.6648">
        <ele>383.8</ele>
        <time>2026-08-30T10:04:31.000Z</time>
      </trkpt>
      <trkpt lat="47.64682" lon="6.66456">
        <ele>382.8</ele>
        <time>2026-08-30T10:04:33.000Z</time>
      </trkpt>
      <trkpt lat="47.64687" lon="6.66433">
        <ele>382.2</ele>
        <time>2026-08-30T10:04:35.000Z</time>
      </trkpt>
      <trkpt lat="47.64693" lon="6.66412">
        <ele>381.6</ele>
        <time>2026-08-30T10:04:37.000Z</time>
      </trkpt>
      <trkpt lat="47.647" lon="6.66394">
        <ele>380.8</ele>
        <time>2026-08-30T10:04:39.000Z</time>
      </trkpt>
      <trkpt lat="47.6471" lon="6.66376">
        <ele>379.6</ele>
        <time>2026-08-30T10:04:42.000Z</time>
      </trkpt>
      <trkpt lat="47.64719" lon="6.66359">
        <ele>378.8</ele>
        <time>2026-08-30T10:04:44.000Z</time>
      </trkpt>
      <trkpt lat="47.6473" lon="6.66339">
        <ele>377.2</ele>
        <time>2026-08-30T10:04:46.000Z</time>
      </trkpt>
      <trkpt lat="47.64742" lon="6.66313">
        <ele>375.4</ele>
        <time>2026-08-30T10:04:48.000Z</time>
      </trkpt>
      <trkpt lat="47.64751" lon="6.66286">
        <ele>373.6</ele>
        <time>2026-08-30T10:04:50.000Z</time>
      </trkpt>
      <trkpt lat="47.64759" lon="6.66254">
        <ele>371.6</ele>
        <time>2026-08-30T10:04:52.000Z</time>
      </trkpt>
      <trkpt lat="47.64764" lon="6.66224">
        <ele>371.2</ele>
        <time>2026-08-30T10:04:54.000Z</time>
      </trkpt>
      <trkpt lat="47.64765" lon="6.66204">
        <ele>371.8</ele>
        <time>2026-08-30T10:04:56.000Z</time>
      </trkpt>
      <trkpt lat="47.64763" lon="6.66197">
        <ele>372.6</ele>
        <time>2026-08-30T10:04:58.000Z</time>
      </trkpt>
      <trkpt lat="47.6476" lon="6.66195">
        <ele>373.6</ele>
        <time>2026-08-30T10:05:00.000Z</time>
      </trkpt>
      <trkpt lat="47.64757" lon="6.66193">
        <ele>374.6</ele>
        <time>2026-08-30T10:05:02.000Z</time>
      </trkpt>
      <trkpt lat="47.64755" lon="6.66191">
        <ele>375.4</ele>
        <time>2026-08-30T10:05:04.000Z</time>
      </trkpt>
      <trkpt lat="47.64753" lon="6.66189">
        <ele>376.2</ele>
        <time>2026-08-30T10:05:06.000Z</time>
      </trkpt>
      <trkpt lat="47.64751" lon="6.66186">
        <ele>376.8</ele>
        <time>2026-08-30T10:05:08.000Z</time>
      </trkpt>
      <trkpt lat="47.64748" lon="6.66183">
        <ele>377.4</ele>
        <time>2026-08-30T10:05:10.000Z</time>
      </trkpt>
      <trkpt lat="47.64746" lon="6.66182">
        <ele>377.8</ele>
        <time>2026-08-30T10:05:12.000Z</time>
      </trkpt>
      <trkpt lat="47.64743" lon="6.66181">
        <ele>378.4</ele>
        <time>2026-08-30T10:05:14.000Z</time>
      </trkpt>
      <trkpt lat="47.64741" lon="6.6618">
        <ele>379</ele>
        <time>2026-08-30T10:05:16.000Z</time>
      </trkpt>
      <trkpt lat="47.64739" lon="6.66179">
        <ele>379.6</ele>
        <time>2026-08-30T10:05:18.000Z</time>
      </trkpt>
      <trkpt lat="47.64737" lon="6.66178">
        <ele>380.2</ele>
        <time>2026-08-30T10:05:20.000Z</time>
      </trkpt>
      <trkpt lat="47.64735" lon="6.66177">
        <ele>380.6</ele>
        <time>2026-08-30T10:05:22.000Z</time>
      </trkpt>
      <trkpt lat="47.64733" lon="6.66176">
        <ele>381</ele>
        <time>2026-08-30T10:05:24.000Z</time>
      </trkpt>
      <trkpt lat="47.6473" lon="6.66174">
        <ele>381.4</ele>
        <time>2026-08-30T10:05:26.000Z</time>
      </trkpt>
      <trkpt lat="47.64727" lon="6.66172">
        <ele>381.6</ele>
        <time>2026-08-30T10:05:28.000Z</time>
      </trkpt>
      <trkpt lat="47.64725" lon="6.6617">
        <ele>381.8</ele>
        <time>2026-08-30T10:05:30.000Z</time>
      </trkpt>
      <trkpt lat="47.64722" lon="6.66168">
        <ele>382</ele>
        <time>2026-08-30T10:05:32.000Z</time>
      </trkpt>
      <trkpt lat="47.64719" lon="6.66166">
        <ele>382.2</ele>
        <time>2026-08-30T10:05:34.000Z</time>
      </trkpt>
      <trkpt lat="47.64716" lon="6.66163">
        <ele>382.4</ele>
        <time>2026-08-30T10:05:36.000Z</time>
      </trkpt>
      <trkpt lat="47.64713" lon="6.66162">
        <ele>382.8</ele>
        <time>2026-08-30T10:05:38.000Z</time>
      </trkpt>
      <trkpt lat="47.64711" lon="6.6616">
        <ele>383.2</ele>
        <time>2026-08-30T10:05:40.000Z</time>
      </trkpt>
      <trkpt lat="47.64709" lon="6.66159">
        <ele>383.6</ele>
        <time>2026-08-30T10:05:42.000Z</time>
      </trkpt>
      <trkpt lat="47.64707" lon="6.66158">
        <ele>384</ele>
        <time>2026-08-30T10:05:44.000Z</time>
      </trkpt>
      <trkpt lat="47.64705" lon="6.66156">
        <ele>384.4</ele>
        <time>2026-08-30T10:05:46.000Z</time>
      </trkpt>
      <trkpt lat="47.64703" lon="6.66155">
        <ele>384.8</ele>
        <time>2026-08-30T10:05:48.000Z</time>
      </trkpt>
      <trkpt lat="47.647" lon="6.66154">
        <ele>385.2</ele>
        <time>2026-08-30T10:05:50.000Z</time>
      </trkpt>
      <trkpt lat="47.64698" lon="6.66153">
        <ele>385.4</ele>
        <time>2026-08-30T10:05:52.000Z</time>
      </trkpt>
      <trkpt lat="47.64695" lon="6.66153">
        <ele>385.8</ele>
        <time>2026-08-30T10:05:54.000Z</time>
      </trkpt>
      <trkpt lat="47.64692" lon="6.66152">
        <ele>386.2</ele>
        <time>2026-08-30T10:05:56.000Z</time>
      </trkpt>
      <trkpt lat="47.64689" lon="6.66152">
        <ele>386.6</ele>
        <time>2026-08-30T10:05:58.000Z</time>
      </trkpt>
      <trkpt lat="47.64687" lon="6.66152">
        <ele>386.8</ele>
        <time>2026-08-30T10:06:00.000Z</time>
      </trkpt>
      <trkpt lat="47.64684" lon="6.66153">
        <ele>387.2</ele>
        <time>2026-08-30T10:06:02.000Z</time>
      </trkpt>
      <trkpt lat="47.64682" lon="6.66153">
        <ele>387.6</ele>
        <time>2026-08-30T10:06:04.000Z</time>
      </trkpt>
      <trkpt lat="47.64679" lon="6.66154">
        <ele>388</ele>
        <time>2026-08-30T10:06:06.000Z</time>
      </trkpt>
      <trkpt lat="47.64677" lon="6.66154">
        <ele>388.4</ele>
        <time>2026-08-30T10:06:08.000Z</time>
      </trkpt>
      <trkpt lat="47.64674" lon="6.66153">
        <ele>388.8</ele>
        <time>2026-08-30T10:06:10.000Z</time>
      </trkpt>
      <trkpt lat="47.64672" lon="6.66151">
        <ele>389</ele>
        <time>2026-08-30T10:06:12.000Z</time>
      </trkpt>
      <trkpt lat="47.64669" lon="6.66151">
        <ele>389.2</ele>
        <time>2026-08-30T10:06:15.000Z</time>
      </trkpt>
      <trkpt lat="47.64666" lon="6.66152">
        <ele>389.4</ele>
        <time>2026-08-30T10:06:17.000Z</time>
      </trkpt>
      <trkpt lat="47.64664" lon="6.66155">
        <ele>389.6</ele>
        <time>2026-08-30T10:06:19.000Z</time>
      </trkpt>
      <trkpt lat="47.64663" lon="6.66158">
        <ele>389.8</ele>
        <time>2026-08-30T10:06:21.000Z</time>
      </trkpt>
      <trkpt lat="47.64664" lon="6.66163">
        <ele>390</ele>
        <time>2026-08-30T10:06:23.000Z</time>
      </trkpt>
      <trkpt lat="47.64664" lon="6.66168">
        <ele>390.2</ele>
        <time>2026-08-30T10:06:25.000Z</time>
      </trkpt>
      <trkpt lat="47.64664" lon="6.66173">
        <ele>390.4</ele>
        <time>2026-08-30T10:06:27.000Z</time>
      </trkpt>
      <trkpt lat="47.64663" lon="6.66178">
        <ele>390.6</ele>
        <time>2026-08-30T10:06:29.000Z</time>
      </trkpt>
      <trkpt lat="47.64662" lon="6.66183">
        <ele>391</ele>
        <time>2026-08-30T10:06:31.000Z</time>
      </trkpt>
      <trkpt lat="47.64659" lon="6.66186">
        <ele>391</ele>
        <time>2026-08-30T10:06:33.000Z</time>
      </trkpt>
      <trkpt lat="47.64655" lon="6.66188">
        <ele>391.2</ele>
        <time>2026-08-30T10:06:35.000Z</time>
      </trkpt>
      <trkpt lat="47.64649" lon="6.6619">
        <ele>391.2</ele>
        <time>2026-08-30T10:06:37.000Z</time>
      </trkpt>
      <trkpt lat="47.64644" lon="6.66191">
        <ele>391.4</ele>
        <time>2026-08-30T10:06:39.000Z</time>
      </trkpt>
      <trkpt lat="47.64638" lon="6.66193">
        <ele>391.2</ele>
        <time>2026-08-30T10:06:41.000Z</time>
      </trkpt>
      <trkpt lat="47.64632" lon="6.66195">
        <ele>391.2</ele>
        <time>2026-08-30T10:06:43.000Z</time>
      </trkpt>
      <trkpt lat="47.64625" lon="6.66197">
        <ele>391</ele>
        <time>2026-08-30T10:06:45.000Z</time>
      </trkpt>
      <trkpt lat="47.64617" lon="6.66196">
        <ele>390.6</ele>
        <time>2026-08-30T10:06:47.000Z</time>
      </trkpt>
      <trkpt lat="47.64607" lon="6.66192">
        <ele>389.8</ele>
        <time>2026-08-30T10:06:49.000Z</time>
      </trkpt>
      <trkpt lat="47.64594" lon="6.66184">
        <ele>388.6</ele>
        <time>2026-08-30T10:06:51.000Z</time>
      </trkpt>
      <trkpt lat="47.64577" lon="6.66173">
        <ele>387</ele>
        <time>2026-08-30T10:06:53.000Z</time>
      </trkpt>
      <trkpt lat="47.64559" lon="6.66165">
        <ele>385</ele>
        <time>2026-08-30T10:06:55.000Z</time>
      </trkpt>
      <trkpt lat="47.64543" lon="6.66158">
        <ele>382.8</ele>
        <time>2026-08-30T10:06:57.000Z</time>
      </trkpt>
      <trkpt lat="47.64531" lon="6.66151">
        <ele>380.8</ele>
        <time>2026-08-30T10:06:59.000Z</time>
      </trkpt>
      <trkpt lat="47.6452" lon="6.66152">
        <ele>379</ele>
        <time>2026-08-30T10:07:01.000Z</time>
      </trkpt>
      <trkpt lat="47.64504" lon="6.6616">
        <ele>376.8</ele>
        <time>2026-08-30T10:07:03.000Z</time>
      </trkpt>
      <trkpt lat="47.64488" lon="6.66167">
        <ele>374</ele>
        <time>2026-08-30T10:07:05.000Z</time>
      </trkpt>
      <trkpt lat="47.64481" lon="6.66167">
        <ele>371.8</ele>
        <time>2026-08-30T10:07:07.000Z</time>
      </trkpt>
      <trkpt lat="47.64479" lon="6.66159">
        <ele>370.6</ele>
        <time>2026-08-30T10:07:09.000Z</time>
      </trkpt>
      <trkpt lat="47.6448" lon="6.66145">
        <ele>369.6</ele>
        <time>2026-08-30T10:07:11.000Z</time>
      </trkpt>
      <trkpt lat="47.64483" lon="6.66131">
        <ele>369</ele>
        <time>2026-08-30T10:07:13.000Z</time>
      </trkpt>
      <trkpt lat="47.64485" lon="6.66116">
        <ele>368.4</ele>
        <time>2026-08-30T10:07:15.000Z</time>
      </trkpt>
      <trkpt lat="47.64488" lon="6.661">
        <ele>367.6</ele>
        <time>2026-08-30T10:07:17.000Z</time>
      </trkpt>
      <trkpt lat="47.64492" lon="6.66082">
        <ele>367</ele>
        <time>2026-08-30T10:07:19.000Z</time>
      </trkpt>
      <trkpt lat="47.64496" lon="6.66064">
        <ele>366.2</ele>
        <time>2026-08-30T10:07:21.000Z</time>
      </trkpt>
      <trkpt lat="47.64503" lon="6.66046">
        <ele>365.4</ele>
        <time>2026-08-30T10:07:23.000Z</time>
      </trkpt>
      <trkpt lat="47.64512" lon="6.6603">
        <ele>364.6</ele>
        <time>2026-08-30T10:07:25.000Z</time>
      </trkpt>
      <trkpt lat="47.64521" lon="6.66015">
        <ele>363.8</ele>
        <time>2026-08-30T10:07:27.000Z</time>
      </trkpt>
      <trkpt lat="47.64532" lon="6.65999">
        <ele>363</ele>
        <time>2026-08-30T10:07:29.000Z</time>
      </trkpt>
      <trkpt lat="47.64543" lon="6.65984">
        <ele>362</ele>
        <time>2026-08-30T10:07:31.000Z</time>
      </trkpt>
      <trkpt lat="47.64554" lon="6.65965">
        <ele>361</ele>
        <time>2026-08-30T10:07:33.000Z</time>
      </trkpt>
      <trkpt lat="47.64564" lon="6.65945">
        <ele>360.2</ele>
        <time>2026-08-30T10:07:35.000Z</time>
      </trkpt>
      <trkpt lat="47.64574" lon="6.65925">
        <ele>359.2</ele>
        <time>2026-08-30T10:07:37.000Z</time>
      </trkpt>
      <trkpt lat="47.6458" lon="6.6591">
        <ele>358.4</ele>
        <time>2026-08-30T10:07:39.000Z</time>
      </trkpt>
      <trkpt lat="47.64579" lon="6.65897">
        <ele>357.6</ele>
        <time>2026-08-30T10:07:41.000Z</time>
      </trkpt>
      <trkpt lat="47.64572" lon="6.65885">
        <ele>356.6</ele>
        <time>2026-08-30T10:07:43.000Z</time>
      </trkpt>
      <trkpt lat="47.64561" lon="6.65867">
        <ele>355.4</ele>
        <time>2026-08-30T10:07:45.000Z</time>
      </trkpt>
      <trkpt lat="47.64552" lon="6.65847">
        <ele>354.6</ele>
        <time>2026-08-30T10:07:47.000Z</time>
      </trkpt>
      <trkpt lat="47.64546" lon="6.6583">
        <ele>355</ele>
        <time>2026-08-30T10:07:49.000Z</time>
      </trkpt>
      <trkpt lat="47.64543" lon="6.65819">
        <ele>356</ele>
        <time>2026-08-30T10:07:51.000Z</time>
      </trkpt>
      <trkpt lat="47.64541" lon="6.65813">
        <ele>356.6</ele>
        <time>2026-08-30T10:07:53.000Z</time>
      </trkpt>
      <trkpt lat="47.6454" lon="6.65811">
        <ele>357.4</ele>
        <time>2026-08-30T10:07:55.000Z</time>
      </trkpt>
      <trkpt lat="47.64537" lon="6.65809">
        <ele>358</ele>
        <time>2026-08-30T10:07:57.000Z</time>
      </trkpt>
      <trkpt lat="47.64534" lon="6.65807">
        <ele>358.4</ele>
        <time>2026-08-30T10:07:59.000Z</time>
      </trkpt>
      <trkpt lat="47.6453" lon="6.65805">
        <ele>359</ele>
        <time>2026-08-30T10:08:01.000Z</time>
      </trkpt>
      <trkpt lat="47.64526" lon="6.65806">
        <ele>359.4</ele>
        <time>2026-08-30T10:08:04.000Z</time>
      </trkpt>
      <trkpt lat="47.64522" lon="6.65807">
        <ele>360</ele>
        <time>2026-08-30T10:08:06.000Z</time>
      </trkpt>
      <trkpt lat="47.64518" lon="6.65809">
        <ele>360.6</ele>
        <time>2026-08-30T10:08:08.000Z</time>
      </trkpt>
      <trkpt lat="47.64514" lon="6.65808">
        <ele>361.2</ele>
        <time>2026-08-30T10:08:10.000Z</time>
      </trkpt>
      <trkpt lat="47.64511" lon="6.65806">
        <ele>361.6</ele>
        <time>2026-08-30T10:08:12.000Z</time>
      </trkpt>
      <trkpt lat="47.64507" lon="6.65802">
        <ele>362</ele>
        <time>2026-08-30T10:08:14.000Z</time>
      </trkpt>
      <trkpt lat="47.64504" lon="6.65798">
        <ele>362.2</ele>
        <time>2026-08-30T10:08:16.000Z</time>
      </trkpt>
      <trkpt lat="47.645" lon="6.65794">
        <ele>362.4</ele>
        <time>2026-08-30T10:08:18.000Z</time>
      </trkpt>
      <trkpt lat="47.64496" lon="6.65792">
        <ele>362.6</ele>
        <time>2026-08-30T10:08:20.000Z</time>
      </trkpt>
      <trkpt lat="47.64492" lon="6.6579">
        <ele>362.8</ele>
        <time>2026-08-30T10:08:22.000Z</time>
      </trkpt>
      <trkpt lat="47.64489" lon="6.65789">
        <ele>363</ele>
        <time>2026-08-30T10:08:24.000Z</time>
      </trkpt>
      <trkpt lat="47.64486" lon="6.65788">
        <ele>363.4</ele>
        <time>2026-08-30T10:08:26.000Z</time>
      </trkpt>
      <trkpt lat="47.64482" lon="6.65787">
        <ele>363.8</ele>
        <time>2026-08-30T10:08:28.000Z</time>
      </trkpt>
      <trkpt lat="47.64479" lon="6.65784">
        <ele>364</ele>
        <time>2026-08-30T10:08:30.000Z</time>
      </trkpt>
      <trkpt lat="47.64476" lon="6.65782">
        <ele>364.4</ele>
        <time>2026-08-30T10:08:32.000Z</time>
      </trkpt>
      <trkpt lat="47.64473" lon="6.65779">
        <ele>364.8</ele>
        <time>2026-08-30T10:08:34.000Z</time>
      </trkpt>
      <trkpt lat="47.6447" lon="6.65775">
        <ele>365</ele>
        <time>2026-08-30T10:08:36.000Z</time>
      </trkpt>
      <trkpt lat="47.64467" lon="6.65772">
        <ele>365.2</ele>
        <time>2026-08-30T10:08:38.000Z</time>
      </trkpt>
      <trkpt lat="47.64463" lon="6.65768">
        <ele>365.4</ele>
        <time>2026-08-30T10:08:40.000Z</time>
      </trkpt>
      <trkpt lat="47.6446" lon="6.65763">
        <ele>365.6</ele>
        <time>2026-08-30T10:08:42.000Z</time>
      </trkpt>
      <trkpt lat="47.64457" lon="6.65759">
        <ele>365.4</ele>
        <time>2026-08-30T10:08:44.000Z</time>
      </trkpt>
      <trkpt lat="47.64453" lon="6.65752">
        <ele>365.2</ele>
        <time>2026-08-30T10:08:46.000Z</time>
      </trkpt>
      <trkpt lat="47.64447" lon="6.65742">
        <ele>365</ele>
        <time>2026-08-30T10:08:48.000Z</time>
      </trkpt>
      <trkpt lat="47.64442" lon="6.65733">
        <ele>364.8</ele>
        <time>2026-08-30T10:08:50.000Z</time>
      </trkpt>
      <trkpt lat="47.64434" lon="6.6572">
        <ele>364.4</ele>
        <time>2026-08-30T10:08:52.000Z</time>
      </trkpt>
      <trkpt lat="47.64427" lon="6.65708">
        <ele>364</ele>
        <time>2026-08-30T10:08:54.000Z</time>
      </trkpt>
      <trkpt lat="47.6442" lon="6.65697">
        <ele>363.4</ele>
        <time>2026-08-30T10:08:56.000Z</time>
      </trkpt>
      <trkpt lat="47.64413" lon="6.65686">
        <ele>363.2</ele>
        <time>2026-08-30T10:08:58.000Z</time>
      </trkpt>
      <trkpt lat="47.64406" lon="6.65678">
        <ele>363</ele>
        <time>2026-08-30T10:09:00.000Z</time>
      </trkpt>
      <trkpt lat="47.64399" lon="6.65673">
        <ele>363.2</ele>
        <time>2026-08-30T10:09:02.000Z</time>
      </trkpt>
      <trkpt lat="47.64394" lon="6.65668">
        <ele>363.2</ele>
        <time>2026-08-30T10:09:04.000Z</time>
      </trkpt>
      <trkpt lat="47.64388" lon="6.65663">
        <ele>363.4</ele>
        <time>2026-08-30T10:09:06.000Z</time>
      </trkpt>
      <trkpt lat="47.64381" lon="6.65658">
        <ele>363.4</ele>
        <time>2026-08-30T10:09:08.000Z</time>
      </trkpt>
      <trkpt lat="47.64376" lon="6.65652">
        <ele>363.8</ele>
        <time>2026-08-30T10:09:10.000Z</time>
      </trkpt>
      <trkpt lat="47.6437" lon="6.65647">
        <ele>364</ele>
        <time>2026-08-30T10:09:12.000Z</time>
      </trkpt>
      <trkpt lat="47.64366" lon="6.6564">
        <ele>364.2</ele>
        <time>2026-08-30T10:09:14.000Z</time>
      </trkpt>
      <trkpt lat="47.6436" lon="6.65632">
        <ele>364</ele>
        <time>2026-08-30T10:09:16.000Z</time>
      </trkpt>
      <trkpt lat="47.64354" lon="6.65625">
        <ele>364</ele>
        <time>2026-08-30T10:09:18.000Z</time>
      </trkpt>
      <trkpt lat="47.64347" lon="6.65619">
        <ele>364</ele>
        <time>2026-08-30T10:09:20.000Z</time>
      </trkpt>
      <trkpt lat="47.64341" lon="6.65615">
        <ele>364.2</ele>
        <time>2026-08-30T10:09:22.000Z</time>
      </trkpt>
      <trkpt lat="47.64336" lon="6.65612">
        <ele>364.6</ele>
        <time>2026-08-30T10:09:24.000Z</time>
      </trkpt>
      <trkpt lat="47.64332" lon="6.6561">
        <ele>365.2</ele>
        <time>2026-08-30T10:09:26.000Z</time>
      </trkpt>
      <trkpt lat="47.64328" lon="6.65608">
        <ele>365.6</ele>
        <time>2026-08-30T10:09:28.000Z</time>
      </trkpt>
      <trkpt lat="47.64325" lon="6.65605">
        <ele>366.2</ele>
        <time>2026-08-30T10:09:30.000Z</time>
      </trkpt>
      <trkpt lat="47.64322" lon="6.65603">
        <ele>366.6</ele>
        <time>2026-08-30T10:09:33.000Z</time>
      </trkpt>
      <trkpt lat="47.64319" lon="6.65601">
        <ele>367</ele>
        <time>2026-08-30T10:09:35.000Z</time>
      </trkpt>
      <trkpt lat="47.64316" lon="6.656">
        <ele>367.6</ele>
        <time>2026-08-30T10:09:37.000Z</time>
      </trkpt>
      <trkpt lat="47.64314" lon="6.65599">
        <ele>368</ele>
        <time>2026-08-30T10:09:39.000Z</time>
      </trkpt>
      <trkpt lat="47.64312" lon="6.65598">
        <ele>368.4</ele>
        <time>2026-08-30T10:09:41.000Z</time>
      </trkpt>
      <trkpt lat="47.64309" lon="6.65598">
        <ele>368.8</ele>
        <time>2026-08-30T10:09:43.000Z</time>
      </trkpt>
      <trkpt lat="47.64307" lon="6.65598">
        <ele>369.4</ele>
        <time>2026-08-30T10:09:45.000Z</time>
      </trkpt>
      <trkpt lat="47.64304" lon="6.65598">
        <ele>370.2</ele>
        <time>2026-08-30T10:09:47.000Z</time>
      </trkpt>
      <trkpt lat="47.64301" lon="6.656">
        <ele>370.6</ele>
        <time>2026-08-30T10:09:49.000Z</time>
      </trkpt>
      <trkpt lat="47.64298" lon="6.65603">
        <ele>371.2</ele>
        <time>2026-08-30T10:09:51.000Z</time>
      </trkpt>
      <trkpt lat="47.64295" lon="6.65607">
        <ele>371.8</ele>
        <time>2026-08-30T10:09:53.000Z</time>
      </trkpt>
      <trkpt lat="47.64293" lon="6.65613">
        <ele>372</ele>
        <time>2026-08-30T10:09:55.000Z</time>
      </trkpt>
      <trkpt lat="47.64291" lon="6.65621">
        <ele>372.2</ele>
        <time>2026-08-30T10:09:57.000Z</time>
      </trkpt>
      <trkpt lat="47.64288" lon="6.65628">
        <ele>372.2</ele>
        <time>2026-08-30T10:09:59.000Z</time>
      </trkpt>
      <trkpt lat="47.64286" lon="6.65635">
        <ele>372</ele>
        <time>2026-08-30T10:10:01.000Z</time>
      </trkpt>
      <trkpt lat="47.64281" lon="6.6564">
        <ele>371.4</ele>
        <time>2026-08-30T10:10:03.000Z</time>
      </trkpt>
      <trkpt lat="47.64273" lon="6.65638">
        <ele>370.8</ele>
        <time>2026-08-30T10:10:05.000Z</time>
      </trkpt>
      <trkpt lat="47.64265" lon="6.65627">
        <ele>369.4</ele>
        <time>2026-08-30T10:10:07.000Z</time>
      </trkpt>
      <trkpt lat="47.64261" lon="6.65612">
        <ele>367.6</ele>
        <time>2026-08-30T10:10:09.000Z</time>
      </trkpt>
      <trkpt lat="47.64261" lon="6.65594">
        <ele>366</ele>
        <time>2026-08-30T10:10:11.000Z</time>
      </trkpt>
      <trkpt lat="47.64261" lon="6.6557">
        <ele>364</ele>
        <time>2026-08-30T10:10:13.000Z</time>
      </trkpt>
      <trkpt lat="47.64259" lon="6.65544">
        <ele>362</ele>
        <time>2026-08-30T10:10:15.000Z</time>
      </trkpt>
      <trkpt lat="47.6425" lon="6.65519">
        <ele>360.8</ele>
        <time>2026-08-30T10:10:17.000Z</time>
      </trkpt>
      <trkpt lat="47.64239" lon="6.65506">
        <ele>360.2</ele>
        <time>2026-08-30T10:10:19.000Z</time>
      </trkpt>
      <trkpt lat="47.64231" lon="6.65502">
        <ele>360.2</ele>
        <time>2026-08-30T10:10:21.000Z</time>
      </trkpt>
      <trkpt lat="47.64223" lon="6.65501">
        <ele>360.2</ele>
        <time>2026-08-30T10:10:23.000Z</time>
      </trkpt>
      <trkpt lat="47.64216" lon="6.65496">
        <ele>360</ele>
        <time>2026-08-30T10:10:25.000Z</time>
      </trkpt>
      <trkpt lat="47.64207" lon="6.65489">
        <ele>359.8</ele>
        <time>2026-08-30T10:10:27.000Z</time>
      </trkpt>
      <trkpt lat="47.64198" lon="6.65482">
        <ele>359.4</ele>
        <time>2026-08-30T10:10:29.000Z</time>
      </trkpt>
      <trkpt lat="47.64188" lon="6.65476">
        <ele>359</ele>
        <time>2026-08-30T10:10:31.000Z</time>
      </trkpt>
      <trkpt lat="47.64178" lon="6.65473">
        <ele>358.8</ele>
        <time>2026-08-30T10:10:33.000Z</time>
      </trkpt>
      <trkpt lat="47.64169" lon="6.65475">
        <ele>359.2</ele>
        <time>2026-08-30T10:10:35.000Z</time>
      </trkpt>
      <trkpt lat="47.64161" lon="6.65479">
        <ele>359.8</ele>
        <time>2026-08-30T10:10:37.000Z</time>
      </trkpt>
      <trkpt lat="47.64155" lon="6.6548">
        <ele>360.2</ele>
        <time>2026-08-30T10:10:39.000Z</time>
      </trkpt>
      <trkpt lat="47.64151" lon="6.65481">
        <ele>360.4</ele>
        <time>2026-08-30T10:10:41.000Z</time>
      </trkpt>
      <trkpt lat="47.64147" lon="6.65483">
        <ele>360.8</ele>
        <time>2026-08-30T10:10:43.000Z</time>
      </trkpt>
      <trkpt lat="47.64142" lon="6.65485">
        <ele>361.2</ele>
        <time>2026-08-30T10:10:45.000Z</time>
      </trkpt>
      <trkpt lat="47.64138" lon="6.65488">
        <ele>361.8</ele>
        <time>2026-08-30T10:10:47.000Z</time>
      </trkpt>
      <trkpt lat="47.64133" lon="6.6549">
        <ele>362</ele>
        <time>2026-08-30T10:10:49.000Z</time>
      </trkpt>
      <trkpt lat="47.64128" lon="6.65492">
        <ele>362.4</ele>
        <time>2026-08-30T10:10:51.000Z</time>
      </trkpt>
      <trkpt lat="47.64124" lon="6.65494">
        <ele>362.8</ele>
        <time>2026-08-30T10:10:53.000Z</time>
      </trkpt>
      <trkpt lat="47.6412" lon="6.65496">
        <ele>363.4</ele>
        <time>2026-08-30T10:10:55.000Z</time>
      </trkpt>
      <trkpt lat="47.64116" lon="6.65498">
        <ele>364</ele>
        <time>2026-08-30T10:10:57.000Z</time>
      </trkpt>
      <trkpt lat="47.64112" lon="6.655">
        <ele>364.6</ele>
        <time>2026-08-30T10:10:59.000Z</time>
      </trkpt>
      <trkpt lat="47.64108" lon="6.65503">
        <ele>365</ele>
        <time>2026-08-30T10:11:01.000Z</time>
      </trkpt>
      <trkpt lat="47.64105" lon="6.65505">
        <ele>365.6</ele>
        <time>2026-08-30T10:11:03.000Z</time>
      </trkpt>
      <trkpt lat="47.64102" lon="6.65507">
        <ele>366</ele>
        <time>2026-08-30T10:11:05.000Z</time>
      </trkpt>
      <trkpt lat="47.641" lon="6.65509">
        <ele>366.4</ele>
        <time>2026-08-30T10:11:07.000Z</time>
      </trkpt>
      <trkpt lat="47.64096" lon="6.65511">
        <ele>366.8</ele>
        <time>2026-08-30T10:11:09.000Z</time>
      </trkpt>
      <trkpt lat="47.64093" lon="6.65513">
        <ele>367.2</ele>
        <time>2026-08-30T10:11:11.000Z</time>
      </trkpt>
      <trkpt lat="47.64089" lon="6.65514">
        <ele>367.6</ele>
        <time>2026-08-30T10:11:13.000Z</time>
      </trkpt>
      <trkpt lat="47.64086" lon="6.65516">
        <ele>368</ele>
        <time>2026-08-30T10:11:15.000Z</time>
      </trkpt>
      <trkpt lat="47.64083" lon="6.65517">
        <ele>368.6</ele>
        <time>2026-08-30T10:11:17.000Z</time>
      </trkpt>
      <trkpt lat="47.6408" lon="6.65519">
        <ele>369</ele>
        <time>2026-08-30T10:11:19.000Z</time>
      </trkpt>
      <trkpt lat="47.64078" lon="6.65522">
        <ele>369.4</ele>
        <time>2026-08-30T10:11:22.000Z</time>
      </trkpt>
      <trkpt lat="47.64075" lon="6.65525">
        <ele>369.8</ele>
        <time>2026-08-30T10:11:24.000Z</time>
      </trkpt>
      <trkpt lat="47.64073" lon="6.65528">
        <ele>370</ele>
        <time>2026-08-30T10:11:26.000Z</time>
      </trkpt>
      <trkpt lat="47.6407" lon="6.6553">
        <ele>370.4</ele>
        <time>2026-08-30T10:11:28.000Z</time>
      </trkpt>
      <trkpt lat="47.64068" lon="6.65533">
        <ele>371</ele>
        <time>2026-08-30T10:11:30.000Z</time>
      </trkpt>
      <trkpt lat="47.64065" lon="6.65535">
        <ele>371.4</ele>
        <time>2026-08-30T10:11:32.000Z</time>
      </trkpt>
      <trkpt lat="47.64063" lon="6.65538">
        <ele>371.8</ele>
        <time>2026-08-30T10:11:34.000Z</time>
      </trkpt>
      <trkpt lat="47.64061" lon="6.6554">
        <ele>372.4</ele>
        <time>2026-08-30T10:11:36.000Z</time>
      </trkpt>
      <trkpt lat="47.64058" lon="6.65543">
        <ele>373</ele>
        <time>2026-08-30T10:11:38.000Z</time>
      </trkpt>
      <trkpt lat="47.64056" lon="6.65545">
        <ele>373.6</ele>
        <time>2026-08-30T10:11:40.000Z</time>
      </trkpt>
      <trkpt lat="47.64054" lon="6.65548">
        <ele>374</ele>
        <time>2026-08-30T10:11:42.000Z</time>
      </trkpt>
      <trkpt lat="47.64051" lon="6.65551">
        <ele>374.6</ele>
        <time>2026-08-30T10:11:44.000Z</time>
      </trkpt>
      <trkpt lat="47.64049" lon="6.65554">
        <ele>375.2</ele>
        <time>2026-08-30T10:11:46.000Z</time>
      </trkpt>
      <trkpt lat="47.64046" lon="6.65557">
        <ele>376</ele>
        <time>2026-08-30T10:11:48.000Z</time>
      </trkpt>
      <trkpt lat="47.64043" lon="6.6556">
        <ele>376.6</ele>
        <time>2026-08-30T10:11:50.000Z</time>
      </trkpt>
      <trkpt lat="47.64042" lon="6.65564">
        <ele>377.4</ele>
        <time>2026-08-30T10:11:52.000Z</time>
      </trkpt>
      <trkpt lat="47.6404" lon="6.65566">
        <ele>377.8</ele>
        <time>2026-08-30T10:11:54.000Z</time>
      </trkpt>
      <trkpt lat="47.64036" lon="6.65566">
        <ele>378</ele>
        <time>2026-08-30T10:11:56.000Z</time>
      </trkpt>
      <trkpt lat="47.64029" lon="6.65563">
        <ele>377.4</ele>
        <time>2026-08-30T10:11:58.000Z</time>
      </trkpt>
      <trkpt lat="47.64018" lon="6.65557">
        <ele>376</ele>
        <time>2026-08-30T10:12:00.000Z</time>
      </trkpt>
      <trkpt lat="47.64008" lon="6.65546">
        <ele>374</ele>
        <time>2026-08-30T10:12:02.000Z</time>
      </trkpt>
      <trkpt lat="47.63996" lon="6.65533">
        <ele>371.4</ele>
        <time>2026-08-30T10:12:04.000Z</time>
      </trkpt>
      <trkpt lat="47.63985" lon="6.65526">
        <ele>368.8</ele>
        <time>2026-08-30T10:12:06.000Z</time>
      </trkpt>
      <trkpt lat="47.63977" lon="6.65529">
        <ele>366.6</ele>
        <time>2026-08-30T10:12:08.000Z</time>
      </trkpt>
      <trkpt lat="47.63973" lon="6.65542">
        <ele>364.8</ele>
        <time>2026-08-30T10:12:10.000Z</time>
      </trkpt>
      <trkpt lat="47.63972" lon="6.65562">
        <ele>363.2</ele>
        <time>2026-08-30T10:12:12.000Z</time>
      </trkpt>
      <trkpt lat="47.63972" lon="6.65585">
        <ele>361.6</ele>
        <time>2026-08-30T10:12:14.000Z</time>
      </trkpt>
      <trkpt lat="47.6397" lon="6.6561">
        <ele>359.6</ele>
        <time>2026-08-30T10:12:16.000Z</time>
      </trkpt>
      <trkpt lat="47.63968" lon="6.65634">
        <ele>357.4</ele>
        <time>2026-08-30T10:12:18.000Z</time>
      </trkpt>
      <trkpt lat="47.63966" lon="6.65645">
        <ele>355.8</ele>
        <time>2026-08-30T10:12:20.000Z</time>
      </trkpt>
      <trkpt lat="47.63963" lon="6.65644">
        <ele>354.4</ele>
        <time>2026-08-30T10:12:22.000Z</time>
      </trkpt>
      <trkpt lat="47.63962" lon="6.65638">
        <ele>353.2</ele>
        <time>2026-08-30T10:12:24.000Z</time>
      </trkpt>
      <trkpt lat="47.63959" lon="6.65627">
        <ele>352</ele>
        <time>2026-08-30T10:12:26.000Z</time>
      </trkpt>
      <trkpt lat="47.63955" lon="6.65614">
        <ele>351.2</ele>
        <time>2026-08-30T10:12:28.000Z</time>
      </trkpt>
      <trkpt lat="47.63953" lon="6.656">
        <ele>350.4</ele>
        <time>2026-08-30T10:12:30.000Z</time>
      </trkpt>
      <trkpt lat="47.63951" lon="6.65586">
        <ele>349.4</ele>
        <time>2026-08-30T10:12:32.000Z</time>
      </trkpt>
      <trkpt lat="47.63948" lon="6.65572">
        <ele>348.2</ele>
        <time>2026-08-30T10:12:34.000Z</time>
      </trkpt>
      <trkpt lat="47.63948" lon="6.65559">
        <ele>347.6</ele>
        <time>2026-08-30T10:12:36.000Z</time>
      </trkpt>
      <trkpt lat="47.63946" lon="6.6555">
        <ele>347</ele>
        <time>2026-08-30T10:12:38.000Z</time>
      </trkpt>
      <trkpt lat="47.63945" lon="6.65546">
        <ele>346.6</ele>
        <time>2026-08-30T10:12:40.000Z</time>
      </trkpt>
      <trkpt lat="47.63944" lon="6.65544">
        <ele>346.2</ele>
        <time>2026-08-30T10:12:42.000Z</time>
      </trkpt>
      <trkpt lat="47.63944" lon="6.65543">
        <ele>346.2</ele>
        <time>2026-08-30T10:12:44.000Z</time>
      </trkpt>
      <trkpt lat="47.63943" lon="6.65542">
        <ele>346</ele>
        <time>2026-08-30T10:12:46.000Z</time>
      </trkpt>
      <trkpt lat="47.63943" lon="6.65541">
        <ele>346</ele>
        <time>2026-08-30T10:12:48.000Z</time>
      </trkpt>
      <trkpt lat="47.63941" lon="6.65538">
        <ele>346</ele>
        <time>2026-08-30T10:12:51.000Z</time>
      </trkpt>
      <trkpt lat="47.6394" lon="6.65533">
        <ele>346</ele>
        <time>2026-08-30T10:12:53.000Z</time>
      </trkpt>
      <trkpt lat="47.63939" lon="6.65526">
        <ele>346.4</ele>
        <time>2026-08-30T10:12:55.000Z</time>
      </trkpt>
      <trkpt lat="47.63938" lon="6.6552">
        <ele>346.8</ele>
        <time>2026-08-30T10:12:57.000Z</time>
      </trkpt>
      <trkpt lat="47.63936" lon="6.65514">
        <ele>346.8</ele>
        <time>2026-08-30T10:12:59.000Z</time>
      </trkpt>
      <trkpt lat="47.63934" lon="6.65509">
        <ele>346.2</ele>
        <time>2026-08-30T10:13:01.000Z</time>
      </trkpt>
      <trkpt lat="47.63933" lon="6.65505">
        <ele>345.6</ele>
        <time>2026-08-30T10:13:03.000Z</time>
      </trkpt>
      <trkpt lat="47.63932" lon="6.65503">
        <ele>345.2</ele>
        <time>2026-08-30T10:13:05.000Z</time>
      </trkpt>
      <trkpt lat="47.63932" lon="6.65501">
        <ele>345.2</ele>
        <time>2026-08-30T10:13:07.000Z</time>
      </trkpt>
      <trkpt lat="47.63932" lon="6.65499">
        <ele>345.4</ele>
        <time>2026-08-30T10:13:09.000Z</time>
      </trkpt>
      <trkpt lat="47.63933" lon="6.65496">
        <ele>345.8</ele>
        <time>2026-08-30T10:13:11.000Z</time>
      </trkpt>
      <trkpt lat="47.63932" lon="6.65492">
        <ele>346</ele>
        <time>2026-08-30T10:13:13.000Z</time>
      </trkpt>
      <trkpt lat="47.63931" lon="6.65491">
        <ele>346</ele>
        <time>2026-08-30T10:13:15.000Z</time>
      </trkpt>
      <trkpt lat="47.63929" lon="6.6549">
        <ele>345.6</ele>
        <time>2026-08-30T10:13:17.000Z</time>
      </trkpt>
      <trkpt lat="47.63923" lon="6.65482">
        <ele>344.8</ele>
        <time>2026-08-30T10:13:19.000Z</time>
      </trkpt>
      <trkpt lat="47.63917" lon="6.65477">
        <ele>344</ele>
        <time>2026-08-30T10:13:21.000Z</time>
      </trkpt>
      <trkpt lat="47.63912" lon="6.65473">
        <ele>343.6</ele>
        <time>2026-08-30T10:13:23.000Z</time>
      </trkpt>
      <trkpt lat="47.63909" lon="6.65468">
        <ele>343.2</ele>
        <time>2026-08-30T10:13:25.000Z</time>
      </trkpt>
      <trkpt lat="47.63908" lon="6.65461">
        <ele>342.8</ele>
        <time>2026-08-30T10:13:27.000Z</time>
      </trkpt>
      <trkpt lat="47.63907" lon="6.65454">
        <ele>342.8</ele>
        <time>2026-08-30T10:13:29.000Z</time>
      </trkpt>
      <trkpt lat="47.63906" lon="6.65446">
        <ele>342.6</ele>
        <time>2026-08-30T10:13:31.000Z</time>
      </trkpt>
      <trkpt lat="47.63906" lon="6.65438">
        <ele>342.6</ele>
        <time>2026-08-30T10:13:33.000Z</time>
      </trkpt>
      <trkpt lat="47.63906" lon="6.65432">
        <ele>342.8</ele>
        <time>2026-08-30T10:13:35.000Z</time>
      </trkpt>
      <trkpt lat="47.63905" lon="6.65426">
        <ele>342.8</ele>
        <time>2026-08-30T10:13:37.000Z</time>
      </trkpt>
      <trkpt lat="47.63903" lon="6.6542">
        <ele>342.6</ele>
        <time>2026-08-30T10:13:39.000Z</time>
      </trkpt>
      <trkpt lat="47.639" lon="6.65415">
        <ele>342.6</ele>
        <time>2026-08-30T10:13:41.000Z</time>
      </trkpt>
      <trkpt lat="47.63899" lon="6.65411">
        <ele>342.6</ele>
        <time>2026-08-30T10:13:43.000Z</time>
      </trkpt>
      <trkpt lat="47.63898" lon="6.65404">
        <ele>342.6</ele>
        <time>2026-08-30T10:13:45.000Z</time>
      </trkpt>
      <trkpt lat="47.63899" lon="6.65398">
        <ele>342.6</ele>
        <time>2026-08-30T10:13:47.000Z</time>
      </trkpt>
      <trkpt lat="47.639" lon="6.65392">
        <ele>342.8</ele>
        <time>2026-08-30T10:13:49.000Z</time>
      </trkpt>
      <trkpt lat="47.639" lon="6.65389">
        <ele>343.2</ele>
        <time>2026-08-30T10:13:51.000Z</time>
      </trkpt>
      <trkpt lat="47.63899" lon="6.65386">
        <ele>343.4</ele>
        <time>2026-08-30T10:13:53.000Z</time>
      </trkpt>
      <trkpt lat="47.63899" lon="6.65382">
        <ele>343.6</ele>
        <time>2026-08-30T10:13:55.000Z</time>
      </trkpt>
      <trkpt lat="47.63899" lon="6.65379">
        <ele>344</ele>
        <time>2026-08-30T10:13:57.000Z</time>
      </trkpt>
      <trkpt lat="47.639" lon="6.65376">
        <ele>344.2</ele>
        <time>2026-08-30T10:13:59.000Z</time>
      </trkpt>
      <trkpt lat="47.63901" lon="6.65373">
        <ele>344.4</ele>
        <time>2026-08-30T10:14:01.000Z</time>
      </trkpt>
      <trkpt lat="47.63902" lon="6.65369">
        <ele>344.6</ele>
        <time>2026-08-30T10:14:03.000Z</time>
      </trkpt>
      <trkpt lat="47.63902" lon="6.65365">
        <ele>344.8</ele>
        <time>2026-08-30T10:14:05.000Z</time>
      </trkpt>
      <trkpt lat="47.63902" lon="6.65361">
        <ele>345</ele>
        <time>2026-08-30T10:14:07.000Z</time>
      </trkpt>
      <trkpt lat="47.63901" lon="6.65358">
        <ele>345.4</ele>
        <time>2026-08-30T10:14:09.000Z</time>
      </trkpt>
      <trkpt lat="47.63899" lon="6.65354">
        <ele>345.6</ele>
        <time>2026-08-30T10:14:11.000Z</time>
      </trkpt>
      <trkpt lat="47.63897" lon="6.65351">
        <ele>346</ele>
        <time>2026-08-30T10:14:13.000Z</time>
      </trkpt>
      <trkpt lat="47.63896" lon="6.65347">
        <ele>346.4</ele>
        <time>2026-08-30T10:14:15.000Z</time>
      </trkpt>
      <trkpt lat="47.63894" lon="6.65342">
        <ele>346.8</ele>
        <time>2026-08-30T10:14:17.000Z</time>
      </trkpt>
      <trkpt lat="47.63891" lon="6.65336">
        <ele>347.2</ele>
        <time>2026-08-30T10:14:20.000Z</time>
      </trkpt>
      <trkpt lat="47.63888" lon="6.65332">
        <ele>347.4</ele>
        <time>2026-08-30T10:14:22.000Z</time>
      </trkpt>
      <trkpt lat="47.63884" lon="6.65328">
        <ele>347.6</ele>
        <time>2026-08-30T10:14:24.000Z</time>
      </trkpt>
      <trkpt lat="47.63878" lon="6.65323">
        <ele>347.8</ele>
        <time>2026-08-30T10:14:26.000Z</time>
      </trkpt>
      <trkpt lat="47.63872" lon="6.65319">
        <ele>347.8</ele>
        <time>2026-08-30T10:14:28.000Z</time>
      </trkpt>
      <trkpt lat="47.63865" lon="6.65315">
        <ele>348</ele>
        <time>2026-08-30T10:14:30.000Z</time>
      </trkpt>
      <trkpt lat="47.63859" lon="6.65312">
        <ele>348</ele>
        <time>2026-08-30T10:14:32.000Z</time>
      </trkpt>
      <trkpt lat="47.63852" lon="6.65309">
        <ele>348.2</ele>
        <time>2026-08-30T10:14:34.000Z</time>
      </trkpt>
      <trkpt lat="47.63846" lon="6.65306">
        <ele>348.2</ele>
        <time>2026-08-30T10:14:36.000Z</time>
      </trkpt>
      <trkpt lat="47.63839" lon="6.65301">
        <ele>348.4</ele>
        <time>2026-08-30T10:14:38.000Z</time>
      </trkpt>
      <trkpt lat="47.63832" lon="6.65296">
        <ele>348.4</ele>
        <time>2026-08-30T10:14:40.000Z</time>
      </trkpt>
      <trkpt lat="47.63824" lon="6.65291">
        <ele>348.4</ele>
        <time>2026-08-30T10:14:42.000Z</time>
      </trkpt>
      <trkpt lat="47.63815" lon="6.65285">
        <ele>348.4</ele>
        <time>2026-08-30T10:14:44.000Z</time>
      </trkpt>
      <trkpt lat="47.63806" lon="6.65279">
        <ele>348.2</ele>
        <time>2026-08-30T10:14:46.000Z</time>
      </trkpt>
      <trkpt lat="47.63798" lon="6.65271">
        <ele>347.8</ele>
        <time>2026-08-30T10:14:48.000Z</time>
      </trkpt>
      <trkpt lat="47.63789" lon="6.65262">
        <ele>347.8</ele>
        <time>2026-08-30T10:14:50.000Z</time>
      </trkpt>
      <trkpt lat="47.63782" lon="6.65254">
        <ele>347.8</ele>
        <time>2026-08-30T10:14:52.000Z</time>
      </trkpt>
      <trkpt lat="47.63774" lon="6.65248">
        <ele>348</ele>
        <time>2026-08-30T10:14:54.000Z</time>
      </trkpt>
      <trkpt lat="47.63765" lon="6.65244">
        <ele>347.8</ele>
        <time>2026-08-30T10:14:56.000Z</time>
      </trkpt>
      <trkpt lat="47.63756" lon="6.65243">
        <ele>347.8</ele>
        <time>2026-08-30T10:14:58.000Z</time>
      </trkpt>
      <trkpt lat="47.63746" lon="6.65243">
        <ele>347.8</ele>
        <time>2026-08-30T10:15:00.000Z</time>
      </trkpt>
      <trkpt lat="47.63736" lon="6.65244">
        <ele>347.6</ele>
        <time>2026-08-30T10:15:02.000Z</time>
      </trkpt>
      <trkpt lat="47.63727" lon="6.65245">
        <ele>347.6</ele>
        <time>2026-08-30T10:15:04.000Z</time>
      </trkpt>
      <trkpt lat="47.63715" lon="6.65247">
        <ele>347.4</ele>
        <time>2026-08-30T10:15:06.000Z</time>
      </trkpt>
      <trkpt lat="47.63702" lon="6.65249">
        <ele>347</ele>
        <time>2026-08-30T10:15:08.000Z</time>
      </trkpt>
      <trkpt lat="47.63692" lon="6.65249">
        <ele>346.8</ele>
        <time>2026-08-30T10:15:10.000Z</time>
      </trkpt>
      <trkpt lat="47.63681" lon="6.65247">
        <ele>346.2</ele>
        <time>2026-08-30T10:15:12.000Z</time>
      </trkpt>
      <trkpt lat="47.6367" lon="6.65243">
        <ele>345.6</ele>
        <time>2026-08-30T10:15:14.000Z</time>
      </trkpt>
      <trkpt lat="47.63656" lon="6.65236">
        <ele>345.2</ele>
        <time>2026-08-30T10:15:16.000Z</time>
      </trkpt>
      <trkpt lat="47.63641" lon="6.6523">
        <ele>344.2</ele>
        <time>2026-08-30T10:15:18.000Z</time>
      </trkpt>
      <trkpt lat="47.63624" lon="6.65231">
        <ele>343.6</ele>
        <time>2026-08-30T10:15:20.000Z</time>
      </trkpt>
      <trkpt lat="47.63608" lon="6.65236">
        <ele>342.8</ele>
        <time>2026-08-30T10:15:22.000Z</time>
      </trkpt>
      <trkpt lat="47.63592" lon="6.6524">
        <ele>342</ele>
        <time>2026-08-30T10:15:24.000Z</time>
      </trkpt>
      <trkpt lat="47.63578" lon="6.65237">
        <ele>341.2</ele>
        <time>2026-08-30T10:15:26.000Z</time>
      </trkpt>
      <trkpt lat="47.63565" lon="6.65227">
        <ele>340.8</ele>
        <time>2026-08-30T10:15:28.000Z</time>
      </trkpt>
      <trkpt lat="47.63553" lon="6.65216">
        <ele>340.4</ele>
        <time>2026-08-30T10:15:30.000Z</time>
      </trkpt>
      <trkpt lat="47.63545" lon="6.65206">
        <ele>340</ele>
        <time>2026-08-30T10:15:32.000Z</time>
      </trkpt>
      <trkpt lat="47.63544" lon="6.65195">
        <ele>339.6</ele>
        <time>2026-08-30T10:15:34.000Z</time>
      </trkpt>
      <trkpt lat="47.63549" lon="6.65187">
        <ele>339.4</ele>
        <time>2026-08-30T10:15:36.000Z</time>
      </trkpt>
      <trkpt lat="47.63554" lon="6.65179">
        <ele>339.4</ele>
        <time>2026-08-30T10:15:38.000Z</time>
      </trkpt>
      <trkpt lat="47.63558" lon="6.65171">
        <ele>339.4</ele>
        <time>2026-08-30T10:15:40.000Z</time>
      </trkpt>
      <trkpt lat="47.6356" lon="6.65162">
        <ele>339.8</ele>
        <time>2026-08-30T10:15:42.000Z</time>
      </trkpt>
      <trkpt lat="47.63561" lon="6.65154">
        <ele>340.2</ele>
        <time>2026-08-30T10:15:44.000Z</time>
      </trkpt>
      <trkpt lat="47.63562" lon="6.65145">
        <ele>340.6</ele>
        <time>2026-08-30T10:15:46.000Z</time>
      </trkpt>
      <trkpt lat="47.6356" lon="6.65137">
        <ele>341</ele>
        <time>2026-08-30T10:15:48.000Z</time>
      </trkpt>
      <trkpt lat="47.63556" lon="6.6513">
        <ele>341.4</ele>
        <time>2026-08-30T10:15:50.000Z</time>
      </trkpt>
      <trkpt lat="47.63551" lon="6.65125">
        <ele>342</ele>
        <time>2026-08-30T10:15:52.000Z</time>
      </trkpt>
      <trkpt lat="47.63546" lon="6.65121">
        <ele>342.4</ele>
        <time>2026-08-30T10:15:54.000Z</time>
      </trkpt>
      <trkpt lat="47.63541" lon="6.65118">
        <ele>342.8</ele>
        <time>2026-08-30T10:15:57.000Z</time>
      </trkpt>
      <trkpt lat="47.63535" lon="6.65116">
        <ele>343</ele>
        <time>2026-08-30T10:15:59.000Z</time>
      </trkpt>
      <trkpt lat="47.63529" lon="6.65114">
        <ele>343.4</ele>
        <time>2026-08-30T10:16:01.000Z</time>
      </trkpt>
      <trkpt lat="47.63523" lon="6.65111">
        <ele>343.6</ele>
        <time>2026-08-30T10:16:03.000Z</time>
      </trkpt>
      <trkpt lat="47.63517" lon="6.65107">
        <ele>344</ele>
        <time>2026-08-30T10:16:05.000Z</time>
      </trkpt>
      <trkpt lat="47.6351" lon="6.65103">
        <ele>344.4</ele>
        <time>2026-08-30T10:16:07.000Z</time>
      </trkpt>
      <trkpt lat="47.63505" lon="6.651">
        <ele>344.6</ele>
        <time>2026-08-30T10:16:09.000Z</time>
      </trkpt>
      <trkpt lat="47.635" lon="6.65096">
        <ele>345</ele>
        <time>2026-08-30T10:16:11.000Z</time>
      </trkpt>
      <trkpt lat="47.63496" lon="6.65091">
        <ele>345.4</ele>
        <time>2026-08-30T10:16:13.000Z</time>
      </trkpt>
      <trkpt lat="47.63492" lon="6.65087">
        <ele>346</ele>
        <time>2026-08-30T10:16:15.000Z</time>
      </trkpt>
      <trkpt lat="47.63488" lon="6.65082">
        <ele>346.4</ele>
        <time>2026-08-30T10:16:17.000Z</time>
      </trkpt>
      <trkpt lat="47.63485" lon="6.65076">
        <ele>346.8</ele>
        <time>2026-08-30T10:16:19.000Z</time>
      </trkpt>
      <trkpt lat="47.63482" lon="6.65071">
        <ele>347.2</ele>
        <time>2026-08-30T10:16:21.000Z</time>
      </trkpt>
      <trkpt lat="47.6348" lon="6.65066">
        <ele>347.6</ele>
        <time>2026-08-30T10:16:23.000Z</time>
      </trkpt>
      <trkpt lat="47.63478" lon="6.65062">
        <ele>348</ele>
        <time>2026-08-30T10:16:25.000Z</time>
      </trkpt>
      <trkpt lat="47.63478" lon="6.65057">
        <ele>348.6</ele>
        <time>2026-08-30T10:16:27.000Z</time>
      </trkpt>
      <trkpt lat="47.63478" lon="6.65053">
        <ele>349</ele>
        <time>2026-08-30T10:16:29.000Z</time>
      </trkpt>
      <trkpt lat="47.63479" lon="6.6505">
        <ele>349.6</ele>
        <time>2026-08-30T10:16:31.000Z</time>
      </trkpt>
      <trkpt lat="47.63481" lon="6.65047">
        <ele>350.2</ele>
        <time>2026-08-30T10:16:33.000Z</time>
      </trkpt>
      <trkpt lat="47.63483" lon="6.65045">
        <ele>350.6</ele>
        <time>2026-08-30T10:16:35.000Z</time>
      </trkpt>
      <trkpt lat="47.63485" lon="6.65043">
        <ele>351.2</ele>
        <time>2026-08-30T10:16:37.000Z</time>
      </trkpt>
      <trkpt lat="47.63487" lon="6.65043">
        <ele>351.8</ele>
        <time>2026-08-30T10:16:39.000Z</time>
      </trkpt>
      <trkpt lat="47.63489" lon="6.65042">
        <ele>352.2</ele>
        <time>2026-08-30T10:16:41.000Z</time>
      </trkpt>
      <trkpt lat="47.63492" lon="6.65043">
        <ele>352.8</ele>
        <time>2026-08-30T10:16:43.000Z</time>
      </trkpt>
      <trkpt lat="47.63495" lon="6.65044">
        <ele>353.2</ele>
        <time>2026-08-30T10:16:45.000Z</time>
      </trkpt>
      <trkpt lat="47.63498" lon="6.65045">
        <ele>353.6</ele>
        <time>2026-08-30T10:16:47.000Z</time>
      </trkpt>
      <trkpt lat="47.635" lon="6.65046">
        <ele>353.8</ele>
        <time>2026-08-30T10:16:49.000Z</time>
      </trkpt>
      <trkpt lat="47.63502" lon="6.65047">
        <ele>354.2</ele>
        <time>2026-08-30T10:16:51.000Z</time>
      </trkpt>
      <trkpt lat="47.63504" lon="6.65047">
        <ele>354.4</ele>
        <time>2026-08-30T10:16:53.000Z</time>
      </trkpt>
      <trkpt lat="47.63506" lon="6.65049">
        <ele>354.8</ele>
        <time>2026-08-30T10:16:55.000Z</time>
      </trkpt>
      <trkpt lat="47.63509" lon="6.65049">
        <ele>355.2</ele>
        <time>2026-08-30T10:16:57.000Z</time>
      </trkpt>
      <trkpt lat="47.63511" lon="6.6505">
        <ele>355.4</ele>
        <time>2026-08-30T10:16:59.000Z</time>
      </trkpt>
      <trkpt lat="47.63513" lon="6.65052">
        <ele>355.8</ele>
        <time>2026-08-30T10:17:01.000Z</time>
      </trkpt>
      <trkpt lat="47.63516" lon="6.65053">
        <ele>356</ele>
        <time>2026-08-30T10:17:03.000Z</time>
      </trkpt>
      <trkpt lat="47.63518" lon="6.65054">
        <ele>356.4</ele>
        <time>2026-08-30T10:17:05.000Z</time>
      </trkpt>
      <trkpt lat="47.6352" lon="6.65055">
        <ele>356.8</ele>
        <time>2026-08-30T10:17:07.000Z</time>
      </trkpt>
      <trkpt lat="47.63522" lon="6.65055">
        <ele>357</ele>
        <time>2026-08-30T10:17:09.000Z</time>
      </trkpt>
      <trkpt lat="47.63525" lon="6.65056">
        <ele>357.4</ele>
        <time>2026-08-30T10:17:11.000Z</time>
      </trkpt>
      <trkpt lat="47.63527" lon="6.65056">
        <ele>357.8</ele>
        <time>2026-08-30T10:17:13.000Z</time>
      </trkpt>
      <trkpt lat="47.63529" lon="6.65057">
        <ele>358</ele>
        <time>2026-08-30T10:17:15.000Z</time>
      </trkpt>
      <trkpt lat="47.63531" lon="6.65058">
        <ele>358.4</ele>
        <time>2026-08-30T10:17:17.000Z</time>
      </trkpt>
      <trkpt lat="47.63534" lon="6.65059">
        <ele>358.6</ele>
        <time>2026-08-30T10:17:19.000Z</time>
      </trkpt>
      <trkpt lat="47.63536" lon="6.6506">
        <ele>359</ele>
        <time>2026-08-30T10:17:21.000Z</time>
      </trkpt>
      <trkpt lat="47.63538" lon="6.6506">
        <ele>359.4</ele>
        <time>2026-08-30T10:17:23.000Z</time>
      </trkpt>
      <trkpt lat="47.63541" lon="6.6506">
        <ele>359.8</ele>
        <time>2026-08-30T10:17:25.000Z</time>
      </trkpt>
      <trkpt lat="47.63543" lon="6.65061">
        <ele>360.2</ele>
        <time>2026-08-30T10:17:27.000Z</time>
      </trkpt>
      <trkpt lat="47.63546" lon="6.65061">
        <ele>360.6</ele>
        <time>2026-08-30T10:17:29.000Z</time>
      </trkpt>
      <trkpt lat="47.63548" lon="6.65061">
        <ele>360.8</ele>
        <time>2026-08-30T10:17:31.000Z</time>
      </trkpt>
      <trkpt lat="47.63551" lon="6.65061">
        <ele>361.2</ele>
        <time>2026-08-30T10:17:33.000Z</time>
      </trkpt>
      <trkpt lat="47.63553" lon="6.6506">
        <ele>361.6</ele>
        <time>2026-08-30T10:17:35.000Z</time>
      </trkpt>
      <trkpt lat="47.63556" lon="6.65059">
        <ele>361.8</ele>
        <time>2026-08-30T10:17:37.000Z</time>
      </trkpt>
      <trkpt lat="47.63558" lon="6.65057">
        <ele>362.2</ele>
        <time>2026-08-30T10:17:39.000Z</time>
      </trkpt>
      <trkpt lat="47.6356" lon="6.65055">
        <ele>362.6</ele>
        <time>2026-08-30T10:17:42.000Z</time>
      </trkpt>
      <trkpt lat="47.63562" lon="6.65052">
        <ele>363</ele>
        <time>2026-08-30T10:17:44.000Z</time>
      </trkpt>
      <trkpt lat="47.63563" lon="6.6505">
        <ele>363.4</ele>
        <time>2026-08-30T10:17:46.000Z</time>
      </trkpt>
      <trkpt lat="47.63564" lon="6.65046">
        <ele>364</ele>
        <time>2026-08-30T10:17:48.000Z</time>
      </trkpt>
      <trkpt lat="47.63564" lon="6.65043">
        <ele>364.4</ele>
        <time>2026-08-30T10:17:50.000Z</time>
      </trkpt>
      <trkpt lat="47.63565" lon="6.65039">
        <ele>364.8</ele>
        <time>2026-08-30T10:17:52.000Z</time>
      </trkpt>
      <trkpt lat="47.63564" lon="6.65036">
        <ele>365.2</ele>
        <time>2026-08-30T10:17:54.000Z</time>
      </trkpt>
      <trkpt lat="47.63563" lon="6.65032">
        <ele>365.6</ele>
        <time>2026-08-30T10:17:56.000Z</time>
      </trkpt>
      <trkpt lat="47.63562" lon="6.65029">
        <ele>365.8</ele>
        <time>2026-08-30T10:17:58.000Z</time>
      </trkpt>
      <trkpt lat="47.63561" lon="6.65026">
        <ele>366.2</ele>
        <time>2026-08-30T10:18:00.000Z</time>
      </trkpt>
      <trkpt lat="47.6356" lon="6.65022">
        <ele>366.4</ele>
        <time>2026-08-30T10:18:02.000Z</time>
      </trkpt>
      <trkpt lat="47.6356" lon="6.65019">
        <ele>366.8</ele>
        <time>2026-08-30T10:18:04.000Z</time>
      </trkpt>
      <trkpt lat="47.63559" lon="6.65016">
        <ele>367.2</ele>
        <time>2026-08-30T10:18:06.000Z</time>
      </trkpt>
      <trkpt lat="47.63557" lon="6.65012">
        <ele>367.6</ele>
        <time>2026-08-30T10:18:08.000Z</time>
      </trkpt>
      <trkpt lat="47.63556" lon="6.65008">
        <ele>367.8</ele>
        <time>2026-08-30T10:18:10.000Z</time>
      </trkpt>
      <trkpt lat="47.63555" lon="6.65004">
        <ele>368.2</ele>
        <time>2026-08-30T10:18:12.000Z</time>
      </trkpt>
      <trkpt lat="47.63554" lon="6.65001">
        <ele>368.6</ele>
        <time>2026-08-30T10:18:14.000Z</time>
      </trkpt>
      <trkpt lat="47.63553" lon="6.64997">
        <ele>369</ele>
        <time>2026-08-30T10:18:16.000Z</time>
      </trkpt>
      <trkpt lat="47.63553" lon="6.64994">
        <ele>369.2</ele>
        <time>2026-08-30T10:18:18.000Z</time>
      </trkpt>
      <trkpt lat="47.63552" lon="6.6499">
        <ele>369.6</ele>
        <time>2026-08-30T10:18:20.000Z</time>
      </trkpt>
      <trkpt lat="47.63551" lon="6.64987">
        <ele>370</ele>
        <time>2026-08-30T10:18:22.000Z</time>
      </trkpt>
      <trkpt lat="47.6355" lon="6.64984">
        <ele>370.4</ele>
        <time>2026-08-30T10:18:24.000Z</time>
      </trkpt>
      <trkpt lat="47.6355" lon="6.6498">
        <ele>370.8</ele>
        <time>2026-08-30T10:18:26.000Z</time>
      </trkpt>
      <trkpt lat="47.63549" lon="6.64977">
        <ele>371.2</ele>
        <time>2026-08-30T10:18:28.000Z</time>
      </trkpt>
      <trkpt lat="47.63549" lon="6.64974">
        <ele>371.6</ele>
        <time>2026-08-30T10:18:30.000Z</time>
      </trkpt>
      <trkpt lat="47.63549" lon="6.6497">
        <ele>372.2</ele>
        <time>2026-08-30T10:18:32.000Z</time>
      </trkpt>
      <trkpt lat="47.63549" lon="6.64967">
        <ele>372.6</ele>
        <time>2026-08-30T10:18:34.000Z</time>
      </trkpt>
      <trkpt lat="47.63549" lon="6.64963">
        <ele>373.2</ele>
        <time>2026-08-30T10:18:36.000Z</time>
      </trkpt>
      <trkpt lat="47.63549" lon="6.6496">
        <ele>373.6</ele>
        <time>2026-08-30T10:18:38.000Z</time>
      </trkpt>
      <trkpt lat="47.63549" lon="6.64957">
        <ele>374.2</ele>
        <time>2026-08-30T10:18:40.000Z</time>
      </trkpt>
      <trkpt lat="47.63549" lon="6.64953">
        <ele>374.6</ele>
        <time>2026-08-30T10:18:42.000Z</time>
      </trkpt>
      <trkpt lat="47.63549" lon="6.6495">
        <ele>375</ele>
        <time>2026-08-30T10:18:44.000Z</time>
      </trkpt>
      <trkpt lat="47.63549" lon="6.64947">
        <ele>375.4</ele>
        <time>2026-08-30T10:18:46.000Z</time>
      </trkpt>
      <trkpt lat="47.63549" lon="6.64943">
        <ele>375.8</ele>
        <time>2026-08-30T10:18:48.000Z</time>
      </trkpt>
      <trkpt lat="47.63549" lon="6.6494">
        <ele>376.2</ele>
        <time>2026-08-30T10:18:50.000Z</time>
      </trkpt>
      <trkpt lat="47.63549" lon="6.64937">
        <ele>376.4</ele>
        <time>2026-08-30T10:18:52.000Z</time>
      </trkpt>
      <trkpt lat="47.6355" lon="6.64934">
        <ele>376.8</ele>
        <time>2026-08-30T10:18:54.000Z</time>
      </trkpt>
      <trkpt lat="47.6355" lon="6.64931">
        <ele>377.2</ele>
        <time>2026-08-30T10:18:56.000Z</time>
      </trkpt>
      <trkpt lat="47.6355" lon="6.64928">
        <ele>377.6</ele>
        <time>2026-08-30T10:18:58.000Z</time>
      </trkpt>
      <trkpt lat="47.6355" lon="6.64924">
        <ele>378</ele>
        <time>2026-08-30T10:19:00.000Z</time>
      </trkpt>
      <trkpt lat="47.6355" lon="6.64921">
        <ele>378.4</ele>
        <time>2026-08-30T10:19:02.000Z</time>
      </trkpt>
      <trkpt lat="47.6355" lon="6.64918">
        <ele>378.8</ele>
        <time>2026-08-30T10:19:04.000Z</time>
      </trkpt>
      <trkpt lat="47.6355" lon="6.64916">
        <ele>379.2</ele>
        <time>2026-08-30T10:19:06.000Z</time>
      </trkpt>
      <trkpt lat="47.6355" lon="6.64913">
        <ele>379.6</ele>
        <time>2026-08-30T10:19:08.000Z</time>
      </trkpt>
      <trkpt lat="47.6355" lon="6.6491">
        <ele>380</ele>
        <time>2026-08-30T10:19:10.000Z</time>
      </trkpt>
      <trkpt lat="47.6355" lon="6.64906">
        <ele>380.4</ele>
        <time>2026-08-30T10:19:12.000Z</time>
      </trkpt>
      <trkpt lat="47.63551" lon="6.64902">
        <ele>380.6</ele>
        <time>2026-08-30T10:19:15.000Z</time>
      </trkpt>
      <trkpt lat="47.63551" lon="6.64898">
        <ele>381</ele>
        <time>2026-08-30T10:19:17.000Z</time>
      </trkpt>
      <trkpt lat="47.63551" lon="6.64895">
        <ele>381.4</ele>
        <time>2026-08-30T10:19:19.000Z</time>
      </trkpt>
      <trkpt lat="47.63552" lon="6.64892">
        <ele>381.6</ele>
        <time>2026-08-30T10:19:21.000Z</time>
      </trkpt>
      <trkpt lat="47.63552" lon="6.64888">
        <ele>382</ele>
        <time>2026-08-30T10:19:23.000Z</time>
      </trkpt>
      <trkpt lat="47.63552" lon="6.64884">
        <ele>382.2</ele>
        <time>2026-08-30T10:19:25.000Z</time>
      </trkpt>
      <trkpt lat="47.63552" lon="6.64881">
        <ele>382.6</ele>
        <time>2026-08-30T10:19:27.000Z</time>
      </trkpt>
      <trkpt lat="47.63552" lon="6.64877">
        <ele>382.8</ele>
        <time>2026-08-30T10:19:29.000Z</time>
      </trkpt>
      <trkpt lat="47.63552" lon="6.64873">
        <ele>383.2</ele>
        <time>2026-08-30T10:19:31.000Z</time>
      </trkpt>
      <trkpt lat="47.63552" lon="6.6487">
        <ele>383.4</ele>
        <time>2026-08-30T10:19:33.000Z</time>
      </trkpt>
      <trkpt lat="47.63552" lon="6.64866">
        <ele>383.6</ele>
        <time>2026-08-30T10:19:35.000Z</time>
      </trkpt>
      <trkpt lat="47.63552" lon="6.64862">
        <ele>384</ele>
        <time>2026-08-30T10:19:37.000Z</time>
      </trkpt>
      <trkpt lat="47.63551" lon="6.64858">
        <ele>384.2</ele>
        <time>2026-08-30T10:19:39.000Z</time>
      </trkpt>
      <trkpt lat="47.63551" lon="6.64854">
        <ele>384.8</ele>
        <time>2026-08-30T10:19:41.000Z</time>
      </trkpt>
      <trkpt lat="47.63551" lon="6.6485">
        <ele>385</ele>
        <time>2026-08-30T10:19:43.000Z</time>
      </trkpt>
      <trkpt lat="47.6355" lon="6.64846">
        <ele>385.4</ele>
        <time>2026-08-30T10:19:45.000Z</time>
      </trkpt>
      <trkpt lat="47.6355" lon="6.64842">
        <ele>385.8</ele>
        <time>2026-08-30T10:19:47.000Z</time>
      </trkpt>
      <trkpt lat="47.63549" lon="6.64838">
        <ele>386</ele>
        <time>2026-08-30T10:19:49.000Z</time>
      </trkpt>
      <trkpt lat="47.63549" lon="6.64834">
        <ele>386.4</ele>
        <time>2026-08-30T10:19:51.000Z</time>
      </trkpt>
      <trkpt lat="47.63548" lon="6.6483">
        <ele>386.6</ele>
        <time>2026-08-30T10:19:53.000Z</time>
      </trkpt>
      <trkpt lat="47.63548" lon="6.64826">
        <ele>387</ele>
        <time>2026-08-30T10:19:55.000Z</time>
      </trkpt>
      <trkpt lat="47.63547" lon="6.64822">
        <ele>387.2</ele>
        <time>2026-08-30T10:19:57.000Z</time>
      </trkpt>
      <trkpt lat="47.63546" lon="6.64819">
        <ele>387.6</ele>
        <time>2026-08-30T10:19:59.000Z</time>
      </trkpt>
      <trkpt lat="47.63545" lon="6.64815">
        <ele>387.8</ele>
        <time>2026-08-30T10:20:01.000Z</time>
      </trkpt>
      <trkpt lat="47.63544" lon="6.6481">
        <ele>388.2</ele>
        <time>2026-08-30T10:20:03.000Z</time>
      </trkpt>
      <trkpt lat="47.63543" lon="6.64805">
        <ele>388.6</ele>
        <time>2026-08-30T10:20:05.000Z</time>
      </trkpt>
      <trkpt lat="47.63542" lon="6.64801">
        <ele>389</ele>
        <time>2026-08-30T10:20:07.000Z</time>
      </trkpt>
      <trkpt lat="47.6354" lon="6.64797">
        <ele>389.2</ele>
        <time>2026-08-30T10:20:09.000Z</time>
      </trkpt>
      <trkpt lat="47.63539" lon="6.64793">
        <ele>389.6</ele>
        <time>2026-08-30T10:20:11.000Z</time>
      </trkpt>
      <trkpt lat="47.63538" lon="6.6479">
        <ele>389.8</ele>
        <time>2026-08-30T10:20:13.000Z</time>
      </trkpt>
      <trkpt lat="47.63536" lon="6.64786">
        <ele>390</ele>
        <time>2026-08-30T10:20:15.000Z</time>
      </trkpt>
      <trkpt lat="47.63535" lon="6.64782">
        <ele>390.2</ele>
        <time>2026-08-30T10:20:17.000Z</time>
      </trkpt>
      <trkpt lat="47.63533" lon="6.64778">
        <ele>390.4</ele>
        <time>2026-08-30T10:20:19.000Z</time>
      </trkpt>
      <trkpt lat="47.63532" lon="6.64774">
        <ele>390.4</ele>
        <time>2026-08-30T10:20:21.000Z</time>
      </trkpt>
      <trkpt lat="47.6353" lon="6.6477">
        <ele>390.6</ele>
        <time>2026-08-30T10:20:23.000Z</time>
      </trkpt>
      <trkpt lat="47.63528" lon="6.64765">
        <ele>390.8</ele>
        <time>2026-08-30T10:20:25.000Z</time>
      </trkpt>
      <trkpt lat="47.63525" lon="6.64759">
        <ele>390.8</ele>
        <time>2026-08-30T10:20:27.000Z</time>
      </trkpt>
      <trkpt lat="47.63523" lon="6.64753">
        <ele>391</ele>
        <time>2026-08-30T10:20:29.000Z</time>
      </trkpt>
      <trkpt lat="47.6352" lon="6.64746">
        <ele>391</ele>
        <time>2026-08-30T10:20:31.000Z</time>
      </trkpt>
      <trkpt lat="47.63516" lon="6.6474">
        <ele>391</ele>
        <time>2026-08-30T10:20:33.000Z</time>
      </trkpt>
      <trkpt lat="47.63512" lon="6.64733">
        <ele>391</ele>
        <time>2026-08-30T10:20:35.000Z</time>
      </trkpt>
      <trkpt lat="47.63507" lon="6.64726">
        <ele>390.8</ele>
        <time>2026-08-30T10:20:37.000Z</time>
      </trkpt>
      <trkpt lat="47.63502" lon="6.64719">
        <ele>390.6</ele>
        <time>2026-08-30T10:20:39.000Z</time>
      </trkpt>
      <trkpt lat="47.63496" lon="6.64711">
        <ele>390.4</ele>
        <time>2026-08-30T10:20:41.000Z</time>
      </trkpt>
      <trkpt lat="47.63489" lon="6.64703">
        <ele>390.2</ele>
        <time>2026-08-30T10:20:43.000Z</time>
      </trkpt>
      <trkpt lat="47.63481" lon="6.64694">
        <ele>389.8</ele>
        <time>2026-08-30T10:20:45.000Z</time>
      </trkpt>
      <trkpt lat="47.63473" lon="6.64683">
        <ele>389.6</ele>
        <time>2026-08-30T10:20:47.000Z</time>
      </trkpt>
      <trkpt lat="47.63464" lon="6.64672">
        <ele>389.2</ele>
        <time>2026-08-30T10:20:49.000Z</time>
      </trkpt>
      <trkpt lat="47.63456" lon="6.64659">
        <ele>388.8</ele>
        <time>2026-08-30T10:20:51.000Z</time>
      </trkpt>
      <trkpt lat="47.63447" lon="6.64645">
        <ele>388.4</ele>
        <time>2026-08-30T10:20:53.000Z</time>
      </trkpt>
      <trkpt lat="47.63438" lon="6.64631">
        <ele>388</ele>
        <time>2026-08-30T10:20:55.000Z</time>
      </trkpt>
      <trkpt lat="47.63428" lon="6.64616">
        <ele>387.4</ele>
        <time>2026-08-30T10:20:57.000Z</time>
      </trkpt>
      <trkpt lat="47.63419" lon="6.64602">
        <ele>387</ele>
        <time>2026-08-30T10:20:59.000Z</time>
      </trkpt>
      <trkpt lat="47.6341" lon="6.64587">
        <ele>386.8</ele>
        <time>2026-08-30T10:21:01.000Z</time>
      </trkpt>
      <trkpt lat="47.63402" lon="6.64573">
        <ele>386.6</ele>
        <time>2026-08-30T10:21:03.000Z</time>
      </trkpt>
      <trkpt lat="47.63395" lon="6.64559">
        <ele>386.4</ele>
        <time>2026-08-30T10:21:05.000Z</time>
      </trkpt>
      <trkpt lat="47.63388" lon="6.64544">
        <ele>386.4</ele>
        <time>2026-08-30T10:21:07.000Z</time>
      </trkpt>
      <trkpt lat="47.63382" lon="6.64528">
        <ele>386</ele>
        <time>2026-08-30T10:21:10.000Z</time>
      </trkpt>
      <trkpt lat="47.63375" lon="6.6451">
        <ele>385.8</ele>
        <time>2026-08-30T10:21:12.000Z</time>
      </trkpt>
      <trkpt lat="47.6337" lon="6.64492">
        <ele>385.8</ele>
        <time>2026-08-30T10:21:14.000Z</time>
      </trkpt>
      <trkpt lat="47.63365" lon="6.64475">
        <ele>385.8</ele>
        <time>2026-08-30T10:21:16.000Z</time>
      </trkpt>
      <trkpt lat="47.63361" lon="6.6446">
        <ele>386</ele>
        <time>2026-08-30T10:21:18.000Z</time>
      </trkpt>
      <trkpt lat="47.63357" lon="6.64445">
        <ele>386</ele>
        <time>2026-08-30T10:21:20.000Z</time>
      </trkpt>
      <trkpt lat="47.63353" lon="6.64431">
        <ele>386</ele>
        <time>2026-08-30T10:21:22.000Z</time>
      </trkpt>
      <trkpt lat="47.63351" lon="6.64416">
        <ele>386.2</ele>
        <time>2026-08-30T10:21:24.000Z</time>
      </trkpt>
      <trkpt lat="47.6335" lon="6.64402">
        <ele>386.4</ele>
        <time>2026-08-30T10:21:26.000Z</time>
      </trkpt>
      <trkpt lat="47.63348" lon="6.64389">
        <ele>386.4</ele>
        <time>2026-08-30T10:21:28.000Z</time>
      </trkpt>
      <trkpt lat="47.63344" lon="6.64375">
        <ele>386.4</ele>
        <time>2026-08-30T10:21:30.000Z</time>
      </trkpt>
      <trkpt lat="47.63339" lon="6.64361">
        <ele>386.2</ele>
        <time>2026-08-30T10:21:32.000Z</time>
      </trkpt>
      <trkpt lat="47.63331" lon="6.64344">
        <ele>386</ele>
        <time>2026-08-30T10:21:34.000Z</time>
      </trkpt>
      <trkpt lat="47.63324" lon="6.64325">
        <ele>385.6</ele>
        <time>2026-08-30T10:21:36.000Z</time>
      </trkpt>
      <trkpt lat="47.6332" lon="6.64308">
        <ele>385.2</ele>
        <time>2026-08-30T10:21:38.000Z</time>
      </trkpt>
      <trkpt lat="47.63317" lon="6.64291">
        <ele>384.8</ele>
        <time>2026-08-30T10:21:40.000Z</time>
      </trkpt>
      <trkpt lat="47.63315" lon="6.64273">
        <ele>384.2</ele>
        <time>2026-08-30T10:21:42.000Z</time>
      </trkpt>
      <trkpt lat="47.63313" lon="6.64254">
        <ele>383.6</ele>
        <time>2026-08-30T10:21:44.000Z</time>
      </trkpt>
      <trkpt lat="47.6331" lon="6.64234">
        <ele>383</ele>
        <time>2026-08-30T10:21:46.000Z</time>
      </trkpt>
      <trkpt lat="47.63306" lon="6.64213">
        <ele>382.4</ele>
        <time>2026-08-30T10:21:48.000Z</time>
      </trkpt>
      <trkpt lat="47.63304" lon="6.64191">
        <ele>381.6</ele>
        <time>2026-08-30T10:21:50.000Z</time>
      </trkpt>
      <trkpt lat="47.633" lon="6.64168">
        <ele>380.8</ele>
        <time>2026-08-30T10:21:52.000Z</time>
      </trkpt>
      <trkpt lat="47.63297" lon="6.64144">
        <ele>380</ele>
        <time>2026-08-30T10:21:54.000Z</time>
      </trkpt>
      <trkpt lat="47.63293" lon="6.64119">
        <ele>379</ele>
        <time>2026-08-30T10:21:56.000Z</time>
      </trkpt>
      <trkpt lat="47.6329" lon="6.64093">
        <ele>378.2</ele>
        <time>2026-08-30T10:21:58.000Z</time>
      </trkpt>
      <trkpt lat="47.63289" lon="6.64068">
        <ele>377.2</ele>
        <time>2026-08-30T10:22:00.000Z</time>
      </trkpt>
      <trkpt lat="47.63289" lon="6.64042">
        <ele>376.4</ele>
        <time>2026-08-30T10:22:02.000Z</time>
      </trkpt>
      <trkpt lat="47.63289" lon="6.64016">
        <ele>375.6</ele>
        <time>2026-08-30T10:22:04.000Z</time>
      </trkpt>
      <trkpt lat="47.63289" lon="6.6399">
        <ele>374.8</ele>
        <time>2026-08-30T10:22:06.000Z</time>
      </trkpt>
      <trkpt lat="47.63289" lon="6.63964">
        <ele>374</ele>
        <time>2026-08-30T10:22:08.000Z</time>
      </trkpt>
      <trkpt lat="47.63288" lon="6.63937">
        <ele>373.2</ele>
        <time>2026-08-30T10:22:10.000Z</time>
      </trkpt>
      <trkpt lat="47.63287" lon="6.63909">
        <ele>372</ele>
        <time>2026-08-30T10:22:12.000Z</time>
      </trkpt>
      <trkpt lat="47.63285" lon="6.6388">
        <ele>370.8</ele>
        <time>2026-08-30T10:22:14.000Z</time>
      </trkpt>
      <trkpt lat="47.63284" lon="6.6385">
        <ele>369.2</ele>
        <time>2026-08-30T10:22:16.000Z</time>
      </trkpt>
      <trkpt lat="47.63283" lon="6.63819">
        <ele>367.8</ele>
        <time>2026-08-30T10:22:18.000Z</time>
      </trkpt>
      <trkpt lat="47.63284" lon="6.63787">
        <ele>366.2</ele>
        <time>2026-08-30T10:22:20.000Z</time>
      </trkpt>
      <trkpt lat="47.63288" lon="6.63756">
        <ele>364.2</ele>
        <time>2026-08-30T10:22:22.000Z</time>
      </trkpt>
      <trkpt lat="47.63298" lon="6.63729">
        <ele>362.8</ele>
        <time>2026-08-30T10:22:24.000Z</time>
      </trkpt>
      <trkpt lat="47.63311" lon="6.63705">
        <ele>361.6</ele>
        <time>2026-08-30T10:22:26.000Z</time>
      </trkpt>
      <trkpt lat="47.63323" lon="6.63681">
        <ele>360.8</ele>
        <time>2026-08-30T10:22:28.000Z</time>
      </trkpt>
      <trkpt lat="47.63332" lon="6.63655">
        <ele>359.8</ele>
        <time>2026-08-30T10:22:30.000Z</time>
      </trkpt>
      <trkpt lat="47.63339" lon="6.63627">
        <ele>358.6</ele>
        <time>2026-08-30T10:22:32.000Z</time>
      </trkpt>
      <trkpt lat="47.63347" lon="6.63599">
        <ele>357.4</ele>
        <time>2026-08-30T10:22:34.000Z</time>
      </trkpt>
      <trkpt lat="47.63357" lon="6.63574">
        <ele>356.8</ele>
        <time>2026-08-30T10:22:36.000Z</time>
      </trkpt>
      <trkpt lat="47.63368" lon="6.63558">
        <ele>356.8</ele>
        <time>2026-08-30T10:22:38.000Z</time>
      </trkpt>
      <trkpt lat="47.6338" lon="6.63551">
        <ele>357</ele>
        <time>2026-08-30T10:22:41.000Z</time>
      </trkpt>
      <trkpt lat="47.63388" lon="6.63548">
        <ele>357.4</ele>
        <time>2026-08-30T10:22:43.000Z</time>
      </trkpt>
      <trkpt lat="47.63395" lon="6.63545">
        <ele>357.6</ele>
        <time>2026-08-30T10:22:45.000Z</time>
      </trkpt>
      <trkpt lat="47.63401" lon="6.6354">
        <ele>357.8</ele>
        <time>2026-08-30T10:22:47.000Z</time>
      </trkpt>
      <trkpt lat="47.63406" lon="6.63533">
        <ele>357.8</ele>
        <time>2026-08-30T10:22:49.000Z</time>
      </trkpt>
      <trkpt lat="47.63411" lon="6.63522">
        <ele>357.8</ele>
        <time>2026-08-30T10:22:51.000Z</time>
      </trkpt>
      <trkpt lat="47.63415" lon="6.63507">
        <ele>357.4</ele>
        <time>2026-08-30T10:22:53.000Z</time>
      </trkpt>
      <trkpt lat="47.63418" lon="6.63491">
        <ele>357.2</ele>
        <time>2026-08-30T10:22:55.000Z</time>
      </trkpt>
      <trkpt lat="47.63422" lon="6.63474">
        <ele>356.8</ele>
        <time>2026-08-30T10:22:57.000Z</time>
      </trkpt>
      <trkpt lat="47.63426" lon="6.63458">
        <ele>356.6</ele>
        <time>2026-08-30T10:22:59.000Z</time>
      </trkpt>
      <trkpt lat="47.63432" lon="6.63444">
        <ele>356.4</ele>
        <time>2026-08-30T10:23:01.000Z</time>
      </trkpt>
      <trkpt lat="47.63439" lon="6.6343">
        <ele>355.8</ele>
        <time>2026-08-30T10:23:03.000Z</time>
      </trkpt>
      <trkpt lat="47.63447" lon="6.63417">
        <ele>355</ele>
        <time>2026-08-30T10:23:05.000Z</time>
      </trkpt>
      <trkpt lat="47.63458" lon="6.63404">
        <ele>354</ele>
        <time>2026-08-30T10:23:07.000Z</time>
      </trkpt>
      <trkpt lat="47.63469" lon="6.6339">
        <ele>353.2</ele>
        <time>2026-08-30T10:23:09.000Z</time>
      </trkpt>
      <trkpt lat="47.63481" lon="6.63378">
        <ele>352</ele>
        <time>2026-08-30T10:23:11.000Z</time>
      </trkpt>
      <trkpt lat="47.63491" lon="6.63373">
        <ele>350.8</ele>
        <time>2026-08-30T10:23:13.000Z</time>
      </trkpt>
      <trkpt lat="47.63502" lon="6.63376">
        <ele>349</ele>
        <time>2026-08-30T10:23:15.000Z</time>
      </trkpt>
      <trkpt lat="47.63515" lon="6.63382">
        <ele>347</ele>
        <time>2026-08-30T10:23:17.000Z</time>
      </trkpt>
      <trkpt lat="47.63526" lon="6.63388">
        <ele>345.4</ele>
        <time>2026-08-30T10:23:19.000Z</time>
      </trkpt>
      <trkpt lat="47.63536" lon="6.63392">
        <ele>344.6</ele>
        <time>2026-08-30T10:23:21.000Z</time>
      </trkpt>
      <trkpt lat="47.63547" lon="6.63395">
        <ele>344</ele>
        <time>2026-08-30T10:23:23.000Z</time>
      </trkpt>
      <trkpt lat="47.63562" lon="6.63397">
        <ele>343.4</ele>
        <time>2026-08-30T10:23:25.000Z</time>
      </trkpt>
      <trkpt lat="47.63576" lon="6.63396">
        <ele>342.6</ele>
        <time>2026-08-30T10:23:27.000Z</time>
      </trkpt>
      <trkpt lat="47.63587" lon="6.63389">
        <ele>341.6</ele>
        <time>2026-08-30T10:23:29.000Z</time>
      </trkpt>
      <trkpt lat="47.63594" lon="6.63376">
        <ele>340.4</ele>
        <time>2026-08-30T10:23:31.000Z</time>
      </trkpt>
      <trkpt lat="47.636" lon="6.63359">
        <ele>339.4</ele>
        <time>2026-08-30T10:23:33.000Z</time>
      </trkpt>
      <trkpt lat="47.63603" lon="6.63344">
        <ele>339</ele>
        <time>2026-08-30T10:23:35.000Z</time>
      </trkpt>
      <trkpt lat="47.63605" lon="6.63334">
        <ele>338.8</ele>
        <time>2026-08-30T10:23:37.000Z</time>
      </trkpt>
      <trkpt lat="47.63606" lon="6.63327">
        <ele>339.2</ele>
        <time>2026-08-30T10:23:39.000Z</time>
      </trkpt>
      <trkpt lat="47.63607" lon="6.63321">
        <ele>339.8</ele>
        <time>2026-08-30T10:23:41.000Z</time>
      </trkpt>
      <trkpt lat="47.63605" lon="6.63316">
        <ele>340.6</ele>
        <time>2026-08-30T10:23:43.000Z</time>
      </trkpt>
      <trkpt lat="47.63602" lon="6.63312">
        <ele>341.6</ele>
        <time>2026-08-30T10:23:45.000Z</time>
      </trkpt>
      <trkpt lat="47.63598" lon="6.63306">
        <ele>342.2</ele>
        <time>2026-08-30T10:23:47.000Z</time>
      </trkpt>
      <trkpt lat="47.63594" lon="6.63299">
        <ele>342.6</ele>
        <time>2026-08-30T10:23:49.000Z</time>
      </trkpt>
      <trkpt lat="47.63589" lon="6.6329">
        <ele>342.8</ele>
        <time>2026-08-30T10:23:51.000Z</time>
      </trkpt>
      <trkpt lat="47.63584" lon="6.63282">
        <ele>342.6</ele>
        <time>2026-08-30T10:23:53.000Z</time>
      </trkpt>
      <trkpt lat="47.6358" lon="6.63273">
        <ele>342.2</ele>
        <time>2026-08-30T10:23:55.000Z</time>
      </trkpt>
      <trkpt lat="47.63576" lon="6.63264">
        <ele>342</ele>
        <time>2026-08-30T10:23:57.000Z</time>
      </trkpt>
      <trkpt lat="47.63571" lon="6.63254">
        <ele>341.8</ele>
        <time>2026-08-30T10:23:59.000Z</time>
      </trkpt>
      <trkpt lat="47.63565" lon="6.63247">
        <ele>341.8</ele>
        <time>2026-08-30T10:24:01.000Z</time>
      </trkpt>
      <trkpt lat="47.6356" lon="6.63239">
        <ele>341.8</ele>
        <time>2026-08-30T10:24:03.000Z</time>
      </trkpt>
      <trkpt lat="47.63555" lon="6.63231">
        <ele>342</ele>
        <time>2026-08-30T10:24:05.000Z</time>
      </trkpt>
      <trkpt lat="47.63551" lon="6.63223">
        <ele>342.4</ele>
        <time>2026-08-30T10:24:07.000Z</time>
      </trkpt>
      <trkpt lat="47.63547" lon="6.63216">
        <ele>342.4</ele>
        <time>2026-08-30T10:24:09.000Z</time>
      </trkpt>
      <trkpt lat="47.63544" lon="6.63209">
        <ele>342.6</ele>
        <time>2026-08-30T10:24:12.000Z</time>
      </trkpt>
      <trkpt lat="47.63539" lon="6.63201">
        <ele>342.4</ele>
        <time>2026-08-30T10:24:14.000Z</time>
      </trkpt>
      <trkpt lat="47.63533" lon="6.63191">
        <ele>342.2</ele>
        <time>2026-08-30T10:24:16.000Z</time>
      </trkpt>
      <trkpt lat="47.63526" lon="6.63179">
        <ele>341.8</ele>
        <time>2026-08-30T10:24:18.000Z</time>
      </trkpt>
      <trkpt lat="47.63523" lon="6.63163">
        <ele>341.6</ele>
        <time>2026-08-30T10:24:20.000Z</time>
      </trkpt>
      <trkpt lat="47.63526" lon="6.63151">
        <ele>341.6</ele>
        <time>2026-08-30T10:24:22.000Z</time>
      </trkpt>
      <trkpt lat="47.63529" lon="6.63146">
        <ele>342</ele>
        <time>2026-08-30T10:24:24.000Z</time>
      </trkpt>
      <trkpt lat="47.63532" lon="6.63143">
        <ele>342.4</ele>
        <time>2026-08-30T10:24:26.000Z</time>
      </trkpt>
      <trkpt lat="47.63534" lon="6.63141">
        <ele>342.8</ele>
        <time>2026-08-30T10:24:28.000Z</time>
      </trkpt>
      <trkpt lat="47.63536" lon="6.63139">
        <ele>343.4</ele>
        <time>2026-08-30T10:24:30.000Z</time>
      </trkpt>
      <trkpt lat="47.63538" lon="6.63137">
        <ele>343.8</ele>
        <time>2026-08-30T10:24:32.000Z</time>
      </trkpt>
      <trkpt lat="47.6354" lon="6.63134">
        <ele>344.4</ele>
        <time>2026-08-30T10:24:34.000Z</time>
      </trkpt>
      <trkpt lat="47.63542" lon="6.63132">
        <ele>345</ele>
        <time>2026-08-30T10:24:36.000Z</time>
      </trkpt>
      <trkpt lat="47.63544" lon="6.6313">
        <ele>345.6</ele>
        <time>2026-08-30T10:24:38.000Z</time>
      </trkpt>
      <trkpt lat="47.63546" lon="6.63127">
        <ele>346.2</ele>
        <time>2026-08-30T10:24:40.000Z</time>
      </trkpt>
      <trkpt lat="47.63547" lon="6.63125">
        <ele>346.8</ele>
        <time>2026-08-30T10:24:42.000Z</time>
      </trkpt>
      <trkpt lat="47.63549" lon="6.63123">
        <ele>347.2</ele>
        <time>2026-08-30T10:24:44.000Z</time>
      </trkpt>
      <trkpt lat="47.63551" lon="6.63121">
        <ele>347.8</ele>
        <time>2026-08-30T10:24:46.000Z</time>
      </trkpt>
      <trkpt lat="47.63553" lon="6.63119">
        <ele>348.2</ele>
        <time>2026-08-30T10:24:48.000Z</time>
      </trkpt>
      <trkpt lat="47.63554" lon="6.63117">
        <ele>348.6</ele>
        <time>2026-08-30T10:24:50.000Z</time>
      </trkpt>
      <trkpt lat="47.63556" lon="6.63115">
        <ele>349</ele>
        <time>2026-08-30T10:24:52.000Z</time>
      </trkpt>
      <trkpt lat="47.63557" lon="6.63114">
        <ele>349.2</ele>
        <time>2026-08-30T10:24:54.000Z</time>
      </trkpt>
      <trkpt lat="47.63559" lon="6.63112">
        <ele>349.6</ele>
        <time>2026-08-30T10:24:56.000Z</time>
      </trkpt>
      <trkpt lat="47.63561" lon="6.6311">
        <ele>350</ele>
        <time>2026-08-30T10:24:58.000Z</time>
      </trkpt>
      <trkpt lat="47.63563" lon="6.63108">
        <ele>350.4</ele>
        <time>2026-08-30T10:25:00.000Z</time>
      </trkpt>
      <trkpt lat="47.63565" lon="6.63106">
        <ele>351</ele>
        <time>2026-08-30T10:25:02.000Z</time>
      </trkpt>
      <trkpt lat="47.63567" lon="6.63104">
        <ele>351.4</ele>
        <time>2026-08-30T10:25:04.000Z</time>
      </trkpt>
      <trkpt lat="47.6357" lon="6.63101">
        <ele>352</ele>
        <time>2026-08-30T10:25:06.000Z</time>
      </trkpt>
      <trkpt lat="47.63571" lon="6.63098">
        <ele>352.4</ele>
        <time>2026-08-30T10:25:08.000Z</time>
      </trkpt>
      <trkpt lat="47.63573" lon="6.63096">
        <ele>353</ele>
        <time>2026-08-30T10:25:10.000Z</time>
      </trkpt>
      <trkpt lat="47.63574" lon="6.63094">
        <ele>353.6</ele>
        <time>2026-08-30T10:25:12.000Z</time>
      </trkpt>
      <trkpt lat="47.63574" lon="6.63092">
        <ele>354.2</ele>
        <time>2026-08-30T10:25:14.000Z</time>
      </trkpt>
      <trkpt lat="47.63575" lon="6.63089">
        <ele>354.6</ele>
        <time>2026-08-30T10:25:16.000Z</time>
      </trkpt>
      <trkpt lat="47.63576" lon="6.63087">
        <ele>355.2</ele>
        <time>2026-08-30T10:25:18.000Z</time>
      </trkpt>
      <trkpt lat="47.63577" lon="6.63084">
        <ele>355.8</ele>
        <time>2026-08-30T10:25:20.000Z</time>
      </trkpt>
      <trkpt lat="47.63579" lon="6.63081">
        <ele>356.2</ele>
        <time>2026-08-30T10:25:22.000Z</time>
      </trkpt>
      <trkpt lat="47.63579" lon="6.63079">
        <ele>356.8</ele>
        <time>2026-08-30T10:25:24.000Z</time>
      </trkpt>
      <trkpt lat="47.6358" lon="6.63076">
        <ele>357.2</ele>
        <time>2026-08-30T10:25:26.000Z</time>
      </trkpt>
      <trkpt lat="47.6358" lon="6.63074">
        <ele>357.6</ele>
        <time>2026-08-30T10:25:28.000Z</time>
      </trkpt>
      <trkpt lat="47.6358" lon="6.63071">
        <ele>358</ele>
        <time>2026-08-30T10:25:30.000Z</time>
      </trkpt>
      <trkpt lat="47.63581" lon="6.63068">
        <ele>358.4</ele>
        <time>2026-08-30T10:25:32.000Z</time>
      </trkpt>
      <trkpt lat="47.63581" lon="6.63065">
        <ele>358.8</ele>
        <time>2026-08-30T10:25:34.000Z</time>
      </trkpt>
      <trkpt lat="47.63581" lon="6.63062">
        <ele>359</ele>
        <time>2026-08-30T10:25:36.000Z</time>
      </trkpt>
      <trkpt lat="47.63582" lon="6.63059">
        <ele>359.2</ele>
        <time>2026-08-30T10:25:38.000Z</time>
      </trkpt>
      <trkpt lat="47.63582" lon="6.63056">
        <ele>359.6</ele>
        <time>2026-08-30T10:25:40.000Z</time>
      </trkpt>
      <trkpt lat="47.63583" lon="6.63053">
        <ele>359.8</ele>
        <time>2026-08-30T10:25:42.000Z</time>
      </trkpt>
      <trkpt lat="47.63584" lon="6.63049">
        <ele>360</ele>
        <time>2026-08-30T10:25:44.000Z</time>
      </trkpt>
      <trkpt lat="47.63585" lon="6.63045">
        <ele>360.2</ele>
        <time>2026-08-30T10:25:46.000Z</time>
      </trkpt>
      <trkpt lat="47.63586" lon="6.63041">
        <ele>360.4</ele>
        <time>2026-08-30T10:25:48.000Z</time>
      </trkpt>
      <trkpt lat="47.63586" lon="6.63038">
        <ele>360.4</ele>
        <time>2026-08-30T10:25:50.000Z</time>
      </trkpt>
      <trkpt lat="47.63587" lon="6.63035">
        <ele>360.6</ele>
        <time>2026-08-30T10:25:52.000Z</time>
      </trkpt>
      <trkpt lat="47.63587" lon="6.63031">
        <ele>360.8</ele>
        <time>2026-08-30T10:25:54.000Z</time>
      </trkpt>
      <trkpt lat="47.63588" lon="6.63027">
        <ele>360.8</ele>
        <time>2026-08-30T10:25:56.000Z</time>
      </trkpt>
      <trkpt lat="47.63589" lon="6.63023">
        <ele>361</ele>
        <time>2026-08-30T10:25:58.000Z</time>
      </trkpt>
      <trkpt lat="47.6359" lon="6.63019">
        <ele>361.2</ele>
        <time>2026-08-30T10:26:00.000Z</time>
      </trkpt>
      <trkpt lat="47.6359" lon="6.63015">
        <ele>361.4</ele>
        <time>2026-08-30T10:26:02.000Z</time>
      </trkpt>
      <trkpt lat="47.63591" lon="6.63011">
        <ele>361.6</ele>
        <time>2026-08-30T10:26:04.000Z</time>
      </trkpt>
      <trkpt lat="47.63592" lon="6.63007">
        <ele>361.8</ele>
        <time>2026-08-30T10:26:06.000Z</time>
      </trkpt>
      <trkpt lat="47.63593" lon="6.63004">
        <ele>362.2</ele>
        <time>2026-08-30T10:26:08.000Z</time>
      </trkpt>
      <trkpt lat="47.63594" lon="6.63">
        <ele>362.4</ele>
        <time>2026-08-30T10:26:10.000Z</time>
      </trkpt>
      <trkpt lat="47.63595" lon="6.62996">
        <ele>362.8</ele>
        <time>2026-08-30T10:26:13.000Z</time>
      </trkpt>
      <trkpt lat="47.63597" lon="6.62991">
        <ele>363.2</ele>
        <time>2026-08-30T10:26:15.000Z</time>
      </trkpt>
      <trkpt lat="47.63598" lon="6.62988">
        <ele>363.4</ele>
        <time>2026-08-30T10:26:17.000Z</time>
      </trkpt>
      <trkpt lat="47.63599" lon="6.62984">
        <ele>363.8</ele>
        <time>2026-08-30T10:26:19.000Z</time>
      </trkpt>
      <trkpt lat="47.636" lon="6.62979">
        <ele>364.2</ele>
        <time>2026-08-30T10:26:21.000Z</time>
      </trkpt>
      <trkpt lat="47.63601" lon="6.62973">
        <ele>364.4</ele>
        <time>2026-08-30T10:26:23.000Z</time>
      </trkpt>
      <trkpt lat="47.63603" lon="6.62967">
        <ele>364.6</ele>
        <time>2026-08-30T10:26:25.000Z</time>
      </trkpt>
      <trkpt lat="47.63604" lon="6.62961">
        <ele>364.8</ele>
        <time>2026-08-30T10:26:27.000Z</time>
      </trkpt>
      <trkpt lat="47.63605" lon="6.62954">
        <ele>364.8</ele>
        <time>2026-08-30T10:26:29.000Z</time>
      </trkpt>
      <trkpt lat="47.63608" lon="6.62945">
        <ele>364.6</ele>
        <time>2026-08-30T10:26:31.000Z</time>
      </trkpt>
      <trkpt lat="47.6361" lon="6.62933">
        <ele>364.4</ele>
        <time>2026-08-30T10:26:33.000Z</time>
      </trkpt>
      <trkpt lat="47.63609" lon="6.62916">
        <ele>363.6</ele>
        <time>2026-08-30T10:26:35.000Z</time>
      </trkpt>
      <trkpt lat="47.63606" lon="6.62896">
        <ele>362</ele>
        <time>2026-08-30T10:26:37.000Z</time>
      </trkpt>
      <trkpt lat="47.63602" lon="6.62875">
        <ele>360</ele>
        <time>2026-08-30T10:26:39.000Z</time>
      </trkpt>
      <trkpt lat="47.63599" lon="6.62853">
        <ele>358</ele>
        <time>2026-08-30T10:26:41.000Z</time>
      </trkpt>
      <trkpt lat="47.63598" lon="6.62829">
        <ele>355.6</ele>
        <time>2026-08-30T10:26:43.000Z</time>
      </trkpt>
      <trkpt lat="47.63597" lon="6.62808">
        <ele>353</ele>
        <time>2026-08-30T10:26:45.000Z</time>
      </trkpt>
      <trkpt lat="47.63596" lon="6.62792">
        <ele>350.6</ele>
        <time>2026-08-30T10:26:47.000Z</time>
      </trkpt>
      <trkpt lat="47.63595" lon="6.62781">
        <ele>348.6</ele>
        <time>2026-08-30T10:26:49.000Z</time>
      </trkpt>
      <trkpt lat="47.63594" lon="6.6277">
        <ele>346.8</ele>
        <time>2026-08-30T10:26:51.000Z</time>
      </trkpt>
      <trkpt lat="47.63595" lon="6.62759">
        <ele>345.6</ele>
        <time>2026-08-30T10:26:53.000Z</time>
      </trkpt>
      <trkpt lat="47.63598" lon="6.62749">
        <ele>345</ele>
        <time>2026-08-30T10:26:55.000Z</time>
      </trkpt>
      <trkpt lat="47.63599" lon="6.62741">
        <ele>344.4</ele>
        <time>2026-08-30T10:26:57.000Z</time>
      </trkpt>
      <trkpt lat="47.63598" lon="6.62734">
        <ele>344</ele>
        <time>2026-08-30T10:26:59.000Z</time>
      </trkpt>
      <trkpt lat="47.63598" lon="6.62729">
        <ele>343.6</ele>
        <time>2026-08-30T10:27:01.000Z</time>
      </trkpt>
      <trkpt lat="47.636" lon="6.62724">
        <ele>343.4</ele>
        <time>2026-08-30T10:27:03.000Z</time>
      </trkpt>
      <trkpt lat="47.63601" lon="6.62719">
        <ele>343.2</ele>
        <time>2026-08-30T10:27:05.000Z</time>
      </trkpt>
      <trkpt lat="47.63604" lon="6.62712">
        <ele>343</ele>
        <time>2026-08-30T10:27:07.000Z</time>
      </trkpt>
      <trkpt lat="47.63607" lon="6.627">
        <ele>342.8</ele>
        <time>2026-08-30T10:27:09.000Z</time>
      </trkpt>
      <trkpt lat="47.6361" lon="6.62686">
        <ele>342.6</ele>
        <time>2026-08-30T10:27:11.000Z</time>
      </trkpt>
      <trkpt lat="47.63612" lon="6.62674">
        <ele>342.4</ele>
        <time>2026-08-30T10:27:13.000Z</time>
      </trkpt>
      <trkpt lat="47.63614" lon="6.62664">
        <ele>342.4</ele>
        <time>2026-08-30T10:27:15.000Z</time>
      </trkpt>
      <trkpt lat="47.63615" lon="6.62655">
        <ele>342.2</ele>
        <time>2026-08-30T10:27:17.000Z</time>
      </trkpt>
      <trkpt lat="47.63617" lon="6.62644">
        <ele>342.2</ele>
        <time>2026-08-30T10:27:19.000Z</time>
      </trkpt>
      <trkpt lat="47.63619" lon="6.62633">
        <ele>342</ele>
        <time>2026-08-30T10:27:21.000Z</time>
      </trkpt>
      <trkpt lat="47.63621" lon="6.62619">
        <ele>341.8</ele>
        <time>2026-08-30T10:27:23.000Z</time>
      </trkpt>
      <trkpt lat="47.63622" lon="6.62606">
        <ele>341.2</ele>
        <time>2026-08-30T10:27:25.000Z</time>
      </trkpt>
      <trkpt lat="47.6362" lon="6.62593">
        <ele>340.2</ele>
        <time>2026-08-30T10:27:27.000Z</time>
      </trkpt>
      <trkpt lat="47.63618" lon="6.62582">
        <ele>339.2</ele>
        <time>2026-08-30T10:27:29.000Z</time>
      </trkpt>
      <trkpt lat="47.63616" lon="6.62569">
        <ele>337.8</ele>
        <time>2026-08-30T10:27:31.000Z</time>
      </trkpt>
      <trkpt lat="47.63614" lon="6.62554">
        <ele>336.4</ele>
        <time>2026-08-30T10:27:33.000Z</time>
      </trkpt>
      <trkpt lat="47.63613" lon="6.62537">
        <ele>335</ele>
        <time>2026-08-30T10:27:35.000Z</time>
      </trkpt>
      <trkpt lat="47.63615" lon="6.62518">
        <ele>333.6</ele>
        <time>2026-08-30T10:27:37.000Z</time>
      </trkpt>
      <trkpt lat="47.63618" lon="6.62501">
        <ele>332.6</ele>
        <time>2026-08-30T10:27:39.000Z</time>
      </trkpt>
      <trkpt lat="47.63622" lon="6.62485">
        <ele>332</ele>
        <time>2026-08-30T10:27:42.000Z</time>
      </trkpt>
      <trkpt lat="47.63626" lon="6.62472">
        <ele>331.8</ele>
        <time>2026-08-30T10:27:44.000Z</time>
      </trkpt>
      <trkpt lat="47.63629" lon="6.6246">
        <ele>331.6</ele>
        <time>2026-08-30T10:27:46.000Z</time>
      </trkpt>
      <trkpt lat="47.63632" lon="6.62446">
        <ele>331.4</ele>
        <time>2026-08-30T10:27:48.000Z</time>
      </trkpt>
      <trkpt lat="47.63634" lon="6.62433">
        <ele>331</ele>
        <time>2026-08-30T10:27:50.000Z</time>
      </trkpt>
      <trkpt lat="47.63636" lon="6.6242">
        <ele>330.8</ele>
        <time>2026-08-30T10:27:52.000Z</time>
      </trkpt>
      <trkpt lat="47.63638" lon="6.62406">
        <ele>330.6</ele>
        <time>2026-08-30T10:27:54.000Z</time>
      </trkpt>
      <trkpt lat="47.63639" lon="6.62393">
        <ele>330.4</ele>
        <time>2026-08-30T10:27:56.000Z</time>
      </trkpt>
      <trkpt lat="47.63641" lon="6.62381">
        <ele>330.4</ele>
        <time>2026-08-30T10:27:58.000Z</time>
      </trkpt>
      <trkpt lat="47.63643" lon="6.62369">
        <ele>330</ele>
        <time>2026-08-30T10:28:00.000Z</time>
      </trkpt>
      <trkpt lat="47.63645" lon="6.62355">
        <ele>329</ele>
        <time>2026-08-30T10:28:02.000Z</time>
      </trkpt>
      <trkpt lat="47.63645" lon="6.62341">
        <ele>327.6</ele>
        <time>2026-08-30T10:28:04.000Z</time>
      </trkpt>
      <trkpt lat="47.63646" lon="6.62328">
        <ele>326.4</ele>
        <time>2026-08-30T10:28:06.000Z</time>
      </trkpt>
      <trkpt lat="47.63648" lon="6.62317">
        <ele>325.6</ele>
        <time>2026-08-30T10:28:08.000Z</time>
      </trkpt>
      <trkpt lat="47.63652" lon="6.6231">
        <ele>325.2</ele>
        <time>2026-08-30T10:28:10.000Z</time>
      </trkpt>
      <trkpt lat="47.63657" lon="6.62304">
        <ele>324.8</ele>
        <time>2026-08-30T10:28:12.000Z</time>
      </trkpt>
      <trkpt lat="47.6366" lon="6.62297">
        <ele>324.6</ele>
        <time>2026-08-30T10:28:14.000Z</time>
      </trkpt>
      <trkpt lat="47.63664" lon="6.62287">
        <ele>324.2</ele>
        <time>2026-08-30T10:28:16.000Z</time>
      </trkpt>
      <trkpt lat="47.63666" lon="6.62274">
        <ele>324</ele>
        <time>2026-08-30T10:28:18.000Z</time>
      </trkpt>
      <trkpt lat="47.63667" lon="6.62264">
        <ele>324</ele>
        <time>2026-08-30T10:28:20.000Z</time>
      </trkpt>
      <trkpt lat="47.63667" lon="6.62257">
        <ele>324</ele>
        <time>2026-08-30T10:28:22.000Z</time>
      </trkpt>
      <trkpt lat="47.63662" lon="6.62252">
        <ele>324.2</ele>
        <time>2026-08-30T10:28:24.000Z</time>
      </trkpt>
      <trkpt lat="47.63652" lon="6.62249">
        <ele>324</ele>
        <time>2026-08-30T10:28:26.000Z</time>
      </trkpt>
      <trkpt lat="47.63641" lon="6.62245">
        <ele>323.8</ele>
        <time>2026-08-30T10:28:28.000Z</time>
      </trkpt>
      <trkpt lat="47.6363" lon="6.62236">
        <ele>323.6</ele>
        <time>2026-08-30T10:28:30.000Z</time>
      </trkpt>
      <trkpt lat="47.6362" lon="6.62218">
        <ele>323.6</ele>
        <time>2026-08-30T10:28:32.000Z</time>
      </trkpt>
      <trkpt lat="47.63614" lon="6.62198">
        <ele>323.8</ele>
        <time>2026-08-30T10:28:34.000Z</time>
      </trkpt>
      <trkpt lat="47.63609" lon="6.62181">
        <ele>324.2</ele>
        <time>2026-08-30T10:28:36.000Z</time>
      </trkpt>
      <trkpt lat="47.63605" lon="6.62168">
        <ele>324.6</ele>
        <time>2026-08-30T10:28:38.000Z</time>
      </trkpt>
      <trkpt lat="47.636" lon="6.62158">
        <ele>325</ele>
        <time>2026-08-30T10:28:40.000Z</time>
      </trkpt>
      <trkpt lat="47.63594" lon="6.62151">
        <ele>325.6</ele>
        <time>2026-08-30T10:28:42.000Z</time>
      </trkpt>
      <trkpt lat="47.63589" lon="6.62147">
        <ele>326.2</ele>
        <time>2026-08-30T10:28:44.000Z</time>
      </trkpt>
      <trkpt lat="47.63582" lon="6.62143">
        <ele>326.6</ele>
        <time>2026-08-30T10:28:46.000Z</time>
      </trkpt>
      <trkpt lat="47.63575" lon="6.62139">
        <ele>327.2</ele>
        <time>2026-08-30T10:28:48.000Z</time>
      </trkpt>
      <trkpt lat="47.63569" lon="6.62135">
        <ele>327.8</ele>
        <time>2026-08-30T10:28:50.000Z</time>
      </trkpt>
      <trkpt lat="47.63563" lon="6.62131">
        <ele>328.6</ele>
        <time>2026-08-30T10:28:52.000Z</time>
      </trkpt>
      <trkpt lat="47.63557" lon="6.62127">
        <ele>329.2</ele>
        <time>2026-08-30T10:28:54.000Z</time>
      </trkpt>
      <trkpt lat="47.63551" lon="6.62123">
        <ele>329.8</ele>
        <time>2026-08-30T10:28:56.000Z</time>
      </trkpt>
      <trkpt lat="47.63546" lon="6.6212">
        <ele>330.4</ele>
        <time>2026-08-30T10:28:58.000Z</time>
      </trkpt>
      <trkpt lat="47.63542" lon="6.62117">
        <ele>331.2</ele>
        <time>2026-08-30T10:29:00.000Z</time>
      </trkpt>
      <trkpt lat="47.63538" lon="6.62114">
        <ele>331.6</ele>
        <time>2026-08-30T10:29:02.000Z</time>
      </trkpt>
      <trkpt lat="47.63533" lon="6.62111">
        <ele>332.2</ele>
        <time>2026-08-30T10:29:04.000Z</time>
      </trkpt>
      <trkpt lat="47.63529" lon="6.62108">
        <ele>332.6</ele>
        <time>2026-08-30T10:29:06.000Z</time>
      </trkpt>
      <trkpt lat="47.63525" lon="6.62106">
        <ele>333</ele>
        <time>2026-08-30T10:29:08.000Z</time>
      </trkpt>
      <trkpt lat="47.63521" lon="6.62104">
        <ele>333.4</ele>
        <time>2026-08-30T10:29:10.000Z</time>
      </trkpt>
      <trkpt lat="47.63518" lon="6.62102">
        <ele>333.8</ele>
        <time>2026-08-30T10:29:12.000Z</time>
      </trkpt>
      <trkpt lat="47.63514" lon="6.62099">
        <ele>334.2</ele>
        <time>2026-08-30T10:29:14.000Z</time>
      </trkpt>
      <trkpt lat="47.63511" lon="6.62097">
        <ele>334.4</ele>
        <time>2026-08-30T10:29:16.000Z</time>
      </trkpt>
      <trkpt lat="47.63507" lon="6.62094">
        <ele>334.8</ele>
        <time>2026-08-30T10:29:18.000Z</time>
      </trkpt>
      <trkpt lat="47.63504" lon="6.62091">
        <ele>335.2</ele>
        <time>2026-08-30T10:29:20.000Z</time>
      </trkpt>
      <trkpt lat="47.635" lon="6.62089">
        <ele>335.6</ele>
        <time>2026-08-30T10:29:22.000Z</time>
      </trkpt>
      <trkpt lat="47.63497" lon="6.62087">
        <ele>336</ele>
        <time>2026-08-30T10:29:24.000Z</time>
      </trkpt>
      <trkpt lat="47.63493" lon="6.62085">
        <ele>336.2</ele>
        <time>2026-08-30T10:29:26.000Z</time>
      </trkpt>
      <trkpt lat="47.6349" lon="6.62082">
        <ele>336.6</ele>
        <time>2026-08-30T10:29:28.000Z</time>
      </trkpt>
      <trkpt lat="47.63487" lon="6.6208">
        <ele>336.8</ele>
        <time>2026-08-30T10:29:30.000Z</time>
      </trkpt>
      <trkpt lat="47.63483" lon="6.62077">
        <ele>337.2</ele>
        <time>2026-08-30T10:29:32.000Z</time>
      </trkpt>
      <trkpt lat="47.6348" lon="6.62073">
        <ele>337.6</ele>
        <time>2026-08-30T10:29:34.000Z</time>
      </trkpt>
      <trkpt lat="47.63477" lon="6.62069">
        <ele>338</ele>
        <time>2026-08-30T10:29:36.000Z</time>
      </trkpt>
      <trkpt lat="47.63475" lon="6.62064">
        <ele>338.2</ele>
        <time>2026-08-30T10:29:38.000Z</time>
      </trkpt>
      <trkpt lat="47.63473" lon="6.62059">
        <ele>338.6</ele>
        <time>2026-08-30T10:29:40.000Z</time>
      </trkpt>
      <trkpt lat="47.6347" lon="6.62054">
        <ele>339</ele>
        <time>2026-08-30T10:29:42.000Z</time>
      </trkpt>
      <trkpt lat="47.63468" lon="6.62049">
        <ele>339.4</ele>
        <time>2026-08-30T10:29:45.000Z</time>
      </trkpt>
      <trkpt lat="47.63466" lon="6.62044">
        <ele>339.6</ele>
        <time>2026-08-30T10:29:47.000Z</time>
      </trkpt>
      <trkpt lat="47.63464" lon="6.62038">
        <ele>340</ele>
        <time>2026-08-30T10:29:49.000Z</time>
      </trkpt>
      <trkpt lat="47.63463" lon="6.62033">
        <ele>340.2</ele>
        <time>2026-08-30T10:29:51.000Z</time>
      </trkpt>
      <trkpt lat="47.63461" lon="6.62028">
        <ele>340.6</ele>
        <time>2026-08-30T10:29:53.000Z</time>
      </trkpt>
      <trkpt lat="47.63459" lon="6.62023">
        <ele>340.8</ele>
        <time>2026-08-30T10:29:55.000Z</time>
      </trkpt>
      <trkpt lat="47.63457" lon="6.62017">
        <ele>341.2</ele>
        <time>2026-08-30T10:29:57.000Z</time>
      </trkpt>
      <trkpt lat="47.63455" lon="6.62012">
        <ele>341.4</ele>
        <time>2026-08-30T10:29:59.000Z</time>
      </trkpt>
      <trkpt lat="47.63453" lon="6.62007">
        <ele>341.8</ele>
        <time>2026-08-30T10:30:01.000Z</time>
      </trkpt>
      <trkpt lat="47.63451" lon="6.62002">
        <ele>342</ele>
        <time>2026-08-30T10:30:03.000Z</time>
      </trkpt>
      <trkpt lat="47.63449" lon="6.61996">
        <ele>342.2</ele>
        <time>2026-08-30T10:30:05.000Z</time>
      </trkpt>
      <trkpt lat="47.63447" lon="6.61991">
        <ele>342.6</ele>
        <time>2026-08-30T10:30:07.000Z</time>
      </trkpt>
      <trkpt lat="47.63445" lon="6.61986">
        <ele>342.8</ele>
        <time>2026-08-30T10:30:09.000Z</time>
      </trkpt>
      <trkpt lat="47.63442" lon="6.61981">
        <ele>343</ele>
        <time>2026-08-30T10:30:11.000Z</time>
      </trkpt>
      <trkpt lat="47.63439" lon="6.61977">
        <ele>343.4</ele>
        <time>2026-08-30T10:30:13.000Z</time>
      </trkpt>
      <trkpt lat="47.63436" lon="6.61971">
        <ele>343.6</ele>
        <time>2026-08-30T10:30:15.000Z</time>
      </trkpt>
      <trkpt lat="47.63433" lon="6.61967">
        <ele>343.8</ele>
        <time>2026-08-30T10:30:17.000Z</time>
      </trkpt>
      <trkpt lat="47.63429" lon="6.61969">
        <ele>344.2</ele>
        <time>2026-08-30T10:30:19.000Z</time>
      </trkpt>
      <trkpt lat="47.63427" lon="6.61976">
        <ele>344.4</ele>
        <time>2026-08-30T10:30:21.000Z</time>
      </trkpt>
      <trkpt lat="47.63427" lon="6.61984">
        <ele>344.6</ele>
        <time>2026-08-30T10:30:23.000Z</time>
      </trkpt>
      <trkpt lat="47.63429" lon="6.61992">
        <ele>345</ele>
        <time>2026-08-30T10:30:25.000Z</time>
      </trkpt>
      <trkpt lat="47.6343" lon="6.61999">
        <ele>345.2</ele>
        <time>2026-08-30T10:30:27.000Z</time>
      </trkpt>
      <trkpt lat="47.63432" lon="6.62006">
        <ele>345.4</ele>
        <time>2026-08-30T10:30:29.000Z</time>
      </trkpt>
      <trkpt lat="47.63434" lon="6.62013">
        <ele>345.6</ele>
        <time>2026-08-30T10:30:31.000Z</time>
      </trkpt>
      <trkpt lat="47.63435" lon="6.62021">
        <ele>345.8</ele>
        <time>2026-08-30T10:30:33.000Z</time>
      </trkpt>
      <trkpt lat="47.63437" lon="6.62029">
        <ele>346</ele>
        <time>2026-08-30T10:30:35.000Z</time>
      </trkpt>
      <trkpt lat="47.63439" lon="6.62037">
        <ele>346.2</ele>
        <time>2026-08-30T10:30:37.000Z</time>
      </trkpt>
      <trkpt lat="47.6344" lon="6.62045">
        <ele>346.4</ele>
        <time>2026-08-30T10:30:39.000Z</time>
      </trkpt>
      <trkpt lat="47.63442" lon="6.62054">
        <ele>346.4</ele>
        <time>2026-08-30T10:30:41.000Z</time>
      </trkpt>
      <trkpt lat="47.63444" lon="6.62062">
        <ele>346.6</ele>
        <time>2026-08-30T10:30:43.000Z</time>
      </trkpt>
      <trkpt lat="47.63445" lon="6.6207">
        <ele>346.8</ele>
        <time>2026-08-30T10:30:45.000Z</time>
      </trkpt>
      <trkpt lat="47.63447" lon="6.62079">
        <ele>346.8</ele>
        <time>2026-08-30T10:30:47.000Z</time>
      </trkpt>
      <trkpt lat="47.63446" lon="6.62086">
        <ele>347</ele>
        <time>2026-08-30T10:30:49.000Z</time>
      </trkpt>
      <trkpt lat="47.63442" lon="6.62089">
        <ele>347.2</ele>
        <time>2026-08-30T10:30:51.000Z</time>
      </trkpt>
      <trkpt lat="47.63439" lon="6.62086">
        <ele>347.4</ele>
        <time>2026-08-30T10:30:53.000Z</time>
      </trkpt>
      <trkpt lat="47.63437" lon="6.62081">
        <ele>347.8</ele>
        <time>2026-08-30T10:30:55.000Z</time>
      </trkpt>
      <trkpt lat="47.63436" lon="6.62076">
        <ele>348.4</ele>
        <time>2026-08-30T10:30:57.000Z</time>
      </trkpt>
      <trkpt lat="47.63436" lon="6.62071">
        <ele>348.6</ele>
        <time>2026-08-30T10:30:59.000Z</time>
      </trkpt>
      <trkpt lat="47.63435" lon="6.62065">
        <ele>348.8</ele>
        <time>2026-08-30T10:31:01.000Z</time>
      </trkpt>
      <trkpt lat="47.63433" lon="6.62058">
        <ele>349</ele>
        <time>2026-08-30T10:31:03.000Z</time>
      </trkpt>
      <trkpt lat="47.63431" lon="6.6205">
        <ele>349.2</ele>
        <time>2026-08-30T10:31:05.000Z</time>
      </trkpt>
      <trkpt lat="47.63427" lon="6.62043">
        <ele>349.2</ele>
        <time>2026-08-30T10:31:07.000Z</time>
      </trkpt>
      <trkpt lat="47.63425" lon="6.62036">
        <ele>349.4</ele>
        <time>2026-08-30T10:31:09.000Z</time>
      </trkpt>
      <trkpt lat="47.63423" lon="6.62029">
        <ele>349.4</ele>
        <time>2026-08-30T10:31:11.000Z</time>
      </trkpt>
      <trkpt lat="47.6342" lon="6.62022">
        <ele>349.4</ele>
        <time>2026-08-30T10:31:14.000Z</time>
      </trkpt>
      <trkpt lat="47.63418" lon="6.62016">
        <ele>349.6</ele>
        <time>2026-08-30T10:31:16.000Z</time>
      </trkpt>
      <trkpt lat="47.63415" lon="6.62009">
        <ele>349.6</ele>
        <time>2026-08-30T10:31:18.000Z</time>
      </trkpt>
      <trkpt lat="47.63413" lon="6.62001">
        <ele>349.8</ele>
        <time>2026-08-30T10:31:20.000Z</time>
      </trkpt>
      <trkpt lat="47.6341" lon="6.61994">
        <ele>350</ele>
        <time>2026-08-30T10:31:22.000Z</time>
      </trkpt>
      <trkpt lat="47.63407" lon="6.61988">
        <ele>350.2</ele>
        <time>2026-08-30T10:31:24.000Z</time>
      </trkpt>
      <trkpt lat="47.63404" lon="6.61981">
        <ele>350.4</ele>
        <time>2026-08-30T10:31:26.000Z</time>
      </trkpt>
      <trkpt lat="47.63401" lon="6.61975">
        <ele>350.8</ele>
        <time>2026-08-30T10:31:28.000Z</time>
      </trkpt>
      <trkpt lat="47.63398" lon="6.61969">
        <ele>351</ele>
        <time>2026-08-30T10:31:30.000Z</time>
      </trkpt>
      <trkpt lat="47.63396" lon="6.61963">
        <ele>351.2</ele>
        <time>2026-08-30T10:31:32.000Z</time>
      </trkpt>
      <trkpt lat="47.63393" lon="6.61957">
        <ele>351.6</ele>
        <time>2026-08-30T10:31:34.000Z</time>
      </trkpt>
      <trkpt lat="47.6339" lon="6.61951">
        <ele>351.8</ele>
        <time>2026-08-30T10:31:36.000Z</time>
      </trkpt>
      <trkpt lat="47.63388" lon="6.61944">
        <ele>352.2</ele>
        <time>2026-08-30T10:31:38.000Z</time>
      </trkpt>
      <trkpt lat="47.63387" lon="6.61937">
        <ele>352.6</ele>
        <time>2026-08-30T10:31:40.000Z</time>
      </trkpt>
      <trkpt lat="47.63385" lon="6.61931">
        <ele>353</ele>
        <time>2026-08-30T10:31:42.000Z</time>
      </trkpt>
      <trkpt lat="47.63383" lon="6.61925">
        <ele>353.2</ele>
        <time>2026-08-30T10:31:44.000Z</time>
      </trkpt>
      <trkpt lat="47.63382" lon="6.6192">
        <ele>353.6</ele>
        <time>2026-08-30T10:31:46.000Z</time>
      </trkpt>
      <trkpt lat="47.6338" lon="6.61916">
        <ele>354</ele>
        <time>2026-08-30T10:31:48.000Z</time>
      </trkpt>
      <trkpt lat="47.63378" lon="6.61911">
        <ele>354.4</ele>
        <time>2026-08-30T10:31:50.000Z</time>
      </trkpt>
      <trkpt lat="47.63377" lon="6.61905">
        <ele>354.8</ele>
        <time>2026-08-30T10:31:52.000Z</time>
      </trkpt>
      <trkpt lat="47.63375" lon="6.619">
        <ele>355</ele>
        <time>2026-08-30T10:31:54.000Z</time>
      </trkpt>
      <trkpt lat="47.63373" lon="6.61896">
        <ele>355.4</ele>
        <time>2026-08-30T10:31:56.000Z</time>
      </trkpt>
      <trkpt lat="47.63372" lon="6.61891">
        <ele>355.6</ele>
        <time>2026-08-30T10:31:58.000Z</time>
      </trkpt>
      <trkpt lat="47.6337" lon="6.61887">
        <ele>356</ele>
        <time>2026-08-30T10:32:00.000Z</time>
      </trkpt>
      <trkpt lat="47.63367" lon="6.61882">
        <ele>356.2</ele>
        <time>2026-08-30T10:32:02.000Z</time>
      </trkpt>
      <trkpt lat="47.63365" lon="6.61876">
        <ele>356.6</ele>
        <time>2026-08-30T10:32:04.000Z</time>
      </trkpt>
      <trkpt lat="47.63362" lon="6.6187">
        <ele>357</ele>
        <time>2026-08-30T10:32:06.000Z</time>
      </trkpt>
      <trkpt lat="47.6336" lon="6.61865">
        <ele>357.2</ele>
        <time>2026-08-30T10:32:08.000Z</time>
      </trkpt>
      <trkpt lat="47.63357" lon="6.6186">
        <ele>357.6</ele>
        <time>2026-08-30T10:32:10.000Z</time>
      </trkpt>
      <trkpt lat="47.63355" lon="6.61855">
        <ele>358</ele>
        <time>2026-08-30T10:32:12.000Z</time>
      </trkpt>
      <trkpt lat="47.63353" lon="6.61851">
        <ele>358.4</ele>
        <time>2026-08-30T10:32:14.000Z</time>
      </trkpt>
      <trkpt lat="47.63351" lon="6.61847">
        <ele>358.8</ele>
        <time>2026-08-30T10:32:16.000Z</time>
      </trkpt>
      <trkpt lat="47.63348" lon="6.61842">
        <ele>359</ele>
        <time>2026-08-30T10:32:18.000Z</time>
      </trkpt>
      <trkpt lat="47.63346" lon="6.61838">
        <ele>359.4</ele>
        <time>2026-08-30T10:32:20.000Z</time>
      </trkpt>
      <trkpt lat="47.63343" lon="6.61835">
        <ele>359.8</ele>
        <time>2026-08-30T10:32:22.000Z</time>
      </trkpt>
      <trkpt lat="47.63341" lon="6.61831">
        <ele>360.2</ele>
        <time>2026-08-30T10:32:24.000Z</time>
      </trkpt>
      <trkpt lat="47.6334" lon="6.61828">
        <ele>360.6</ele>
        <time>2026-08-30T10:32:26.000Z</time>
      </trkpt>
      <trkpt lat="47.63338" lon="6.61824">
        <ele>361</ele>
        <time>2026-08-30T10:32:28.000Z</time>
      </trkpt>
      <trkpt lat="47.63335" lon="6.61821">
        <ele>361.6</ele>
        <time>2026-08-30T10:32:30.000Z</time>
      </trkpt>
      <trkpt lat="47.63334" lon="6.61817">
        <ele>362</ele>
        <time>2026-08-30T10:32:32.000Z</time>
      </trkpt>
      <trkpt lat="47.63332" lon="6.61813">
        <ele>362.4</ele>
        <time>2026-08-30T10:32:34.000Z</time>
      </trkpt>
      <trkpt lat="47.63331" lon="6.61809">
        <ele>362.8</ele>
        <time>2026-08-30T10:32:36.000Z</time>
      </trkpt>
      <trkpt lat="47.63329" lon="6.61806">
        <ele>363.2</ele>
        <time>2026-08-30T10:32:38.000Z</time>
      </trkpt>
      <trkpt lat="47.63326" lon="6.61803">
        <ele>363.4</ele>
        <time>2026-08-30T10:32:40.000Z</time>
      </trkpt>
      <trkpt lat="47.63324" lon="6.61801">
        <ele>363.8</ele>
        <time>2026-08-30T10:32:42.000Z</time>
      </trkpt>
      <trkpt lat="47.63322" lon="6.61798">
        <ele>364</ele>
        <time>2026-08-30T10:32:44.000Z</time>
      </trkpt>
      <trkpt lat="47.6332" lon="6.61795">
        <ele>364.4</ele>
        <time>2026-08-30T10:32:46.000Z</time>
      </trkpt>
      <trkpt lat="47.63317" lon="6.61792">
        <ele>364.6</ele>
        <time>2026-08-30T10:32:48.000Z</time>
      </trkpt>
      <trkpt lat="47.63315" lon="6.61789">
        <ele>365</ele>
        <time>2026-08-30T10:32:50.000Z</time>
      </trkpt>
      <trkpt lat="47.63313" lon="6.61785">
        <ele>365.2</ele>
        <time>2026-08-30T10:32:52.000Z</time>
      </trkpt>
      <trkpt lat="47.6331" lon="6.61782">
        <ele>365.6</ele>
        <time>2026-08-30T10:32:54.000Z</time>
      </trkpt>
      <trkpt lat="47.63307" lon="6.6178">
        <ele>366</ele>
        <time>2026-08-30T10:32:56.000Z</time>
      </trkpt>
      <trkpt lat="47.63305" lon="6.61777">
        <ele>366.2</ele>
        <time>2026-08-30T10:32:58.000Z</time>
      </trkpt>
      <trkpt lat="47.63302" lon="6.61775">
        <ele>366.6</ele>
        <time>2026-08-30T10:33:00.000Z</time>
      </trkpt>
      <trkpt lat="47.63299" lon="6.61772">
        <ele>366.8</ele>
        <time>2026-08-30T10:33:02.000Z</time>
      </trkpt>
      <trkpt lat="47.63296" lon="6.6177">
        <ele>367.2</ele>
        <time>2026-08-30T10:33:04.000Z</time>
      </trkpt>
      <trkpt lat="47.63293" lon="6.61768">
        <ele>367.4</ele>
        <time>2026-08-30T10:33:06.000Z</time>
      </trkpt>
      <trkpt lat="47.63291" lon="6.61765">
        <ele>367.8</ele>
        <time>2026-08-30T10:33:08.000Z</time>
      </trkpt>
      <trkpt lat="47.63287" lon="6.61763">
        <ele>368</ele>
        <time>2026-08-30T10:33:10.000Z</time>
      </trkpt>
      <trkpt lat="47.63285" lon="6.61762">
        <ele>368.4</ele>
        <time>2026-08-30T10:33:13.000Z</time>
      </trkpt>
      <trkpt lat="47.63282" lon="6.61761">
        <ele>368.6</ele>
        <time>2026-08-30T10:33:15.000Z</time>
      </trkpt>
      <trkpt lat="47.63279" lon="6.6176">
        <ele>369</ele>
        <time>2026-08-30T10:33:17.000Z</time>
      </trkpt>
      <trkpt lat="47.63275" lon="6.61758">
        <ele>369.2</ele>
        <time>2026-08-30T10:33:19.000Z</time>
      </trkpt>
      <trkpt lat="47.63271" lon="6.61756">
        <ele>369.6</ele>
        <time>2026-08-30T10:33:21.000Z</time>
      </trkpt>
      <trkpt lat="47.63268" lon="6.61754">
        <ele>369.8</ele>
        <time>2026-08-30T10:33:23.000Z</time>
      </trkpt>
      <trkpt lat="47.63264" lon="6.61752">
        <ele>370</ele>
        <time>2026-08-30T10:33:25.000Z</time>
      </trkpt>
      <trkpt lat="47.63261" lon="6.6175">
        <ele>370.4</ele>
        <time>2026-08-30T10:33:27.000Z</time>
      </trkpt>
      <trkpt lat="47.63257" lon="6.61749">
        <ele>370.8</ele>
        <time>2026-08-30T10:33:29.000Z</time>
      </trkpt>
      <trkpt lat="47.63253" lon="6.61747">
        <ele>371</ele>
        <time>2026-08-30T10:33:31.000Z</time>
      </trkpt>
      <trkpt lat="47.63249" lon="6.61745">
        <ele>371.4</ele>
        <time>2026-08-30T10:33:33.000Z</time>
      </trkpt>
      <trkpt lat="47.63245" lon="6.61744">
        <ele>371.6</ele>
        <time>2026-08-30T10:33:35.000Z</time>
      </trkpt>
      <trkpt lat="47.63241" lon="6.61742">
        <ele>372</ele>
        <time>2026-08-30T10:33:37.000Z</time>
      </trkpt>
      <trkpt lat="47.63237" lon="6.6174">
        <ele>372.2</ele>
        <time>2026-08-30T10:33:39.000Z</time>
      </trkpt>
      <trkpt lat="47.63233" lon="6.61738">
        <ele>372.4</ele>
        <time>2026-08-30T10:33:41.000Z</time>
      </trkpt>
      <trkpt lat="47.63227" lon="6.61737">
        <ele>372.6</ele>
        <time>2026-08-30T10:33:43.000Z</time>
      </trkpt>
      <trkpt lat="47.63221" lon="6.61737">
        <ele>373</ele>
        <time>2026-08-30T10:33:45.000Z</time>
      </trkpt>
      <trkpt lat="47.63217" lon="6.61738">
        <ele>373.2</ele>
        <time>2026-08-30T10:33:47.000Z</time>
      </trkpt>
      <trkpt lat="47.63211" lon="6.61739">
        <ele>373.4</ele>
        <time>2026-08-30T10:33:49.000Z</time>
      </trkpt>
      <trkpt lat="47.63206" lon="6.61739">
        <ele>373.4</ele>
        <time>2026-08-30T10:33:51.000Z</time>
      </trkpt>
      <trkpt lat="47.632" lon="6.6174">
        <ele>373.6</ele>
        <time>2026-08-30T10:33:53.000Z</time>
      </trkpt>
      <trkpt lat="47.63194" lon="6.6174">
        <ele>373.8</ele>
        <time>2026-08-30T10:33:55.000Z</time>
      </trkpt>
      <trkpt lat="47.63188" lon="6.61741">
        <ele>373.8</ele>
        <time>2026-08-30T10:33:57.000Z</time>
      </trkpt>
      <trkpt lat="47.63181" lon="6.6174">
        <ele>373.8</ele>
        <time>2026-08-30T10:33:59.000Z</time>
      </trkpt>
      <trkpt lat="47.63174" lon="6.61739">
        <ele>373.8</ele>
        <time>2026-08-30T10:34:01.000Z</time>
      </trkpt>
      <trkpt lat="47.63167" lon="6.61738">
        <ele>374</ele>
        <time>2026-08-30T10:34:03.000Z</time>
      </trkpt>
      <trkpt lat="47.6316" lon="6.61738">
        <ele>374</ele>
        <time>2026-08-30T10:34:05.000Z</time>
      </trkpt>
      <trkpt lat="47.63152" lon="6.61739">
        <ele>374</ele>
        <time>2026-08-30T10:34:07.000Z</time>
      </trkpt>
      <trkpt lat="47.63145" lon="6.6174">
        <ele>374</ele>
        <time>2026-08-30T10:34:09.000Z</time>
      </trkpt>
      <trkpt lat="47.63138" lon="6.61738">
        <ele>374</ele>
        <time>2026-08-30T10:34:11.000Z</time>
      </trkpt>
      <trkpt lat="47.6313" lon="6.61734">
        <ele>373.8</ele>
        <time>2026-08-30T10:34:13.000Z</time>
      </trkpt>
      <trkpt lat="47.63121" lon="6.61733">
        <ele>373.6</ele>
        <time>2026-08-30T10:34:15.000Z</time>
      </trkpt>
      <trkpt lat="47.6311" lon="6.61734">
        <ele>373.2</ele>
        <time>2026-08-30T10:34:17.000Z</time>
      </trkpt>
      <trkpt lat="47.63099" lon="6.61735">
        <ele>372.8</ele>
        <time>2026-08-30T10:34:19.000Z</time>
      </trkpt>
      <trkpt lat="47.63088" lon="6.61738">
        <ele>372.6</ele>
        <time>2026-08-30T10:34:21.000Z</time>
      </trkpt>
      <trkpt lat="47.63078" lon="6.61742">
        <ele>372.4</ele>
        <time>2026-08-30T10:34:23.000Z</time>
      </trkpt>
      <trkpt lat="47.63067" lon="6.61748">
        <ele>372.2</ele>
        <time>2026-08-30T10:34:25.000Z</time>
      </trkpt>
      <trkpt lat="47.63057" lon="6.61754">
        <ele>372</ele>
        <time>2026-08-30T10:34:27.000Z</time>
      </trkpt>
      <trkpt lat="47.63046" lon="6.6176">
        <ele>371.8</ele>
        <time>2026-08-30T10:34:29.000Z</time>
      </trkpt>
      <trkpt lat="47.63036" lon="6.61766">
        <ele>371.4</ele>
        <time>2026-08-30T10:34:31.000Z</time>
      </trkpt>
      <trkpt lat="47.63026" lon="6.61773">
        <ele>371.2</ele>
        <time>2026-08-30T10:34:33.000Z</time>
      </trkpt>
      <trkpt lat="47.63019" lon="6.61779">
        <ele>370.8</ele>
        <time>2026-08-30T10:34:35.000Z</time>
      </trkpt>
      <trkpt lat="47.63012" lon="6.61784">
        <ele>370.6</ele>
        <time>2026-08-30T10:34:37.000Z</time>
      </trkpt>
      <trkpt lat="47.63007" lon="6.61791">
        <ele>370.4</ele>
        <time>2026-08-30T10:34:39.000Z</time>
      </trkpt>
      <trkpt lat="47.63007" lon="6.618">
        <ele>370.4</ele>
        <time>2026-08-30T10:34:41.000Z</time>
      </trkpt>
      <trkpt lat="47.63011" lon="6.61805">
        <ele>370.6</ele>
        <time>2026-08-30T10:34:43.000Z</time>
      </trkpt>
      <trkpt lat="47.63017" lon="6.61807">
        <ele>371.2</ele>
        <time>2026-08-30T10:34:46.000Z</time>
      </trkpt>
      <trkpt lat="47.63023" lon="6.61807">
        <ele>371.8</ele>
        <time>2026-08-30T10:34:48.000Z</time>
      </trkpt>
      <trkpt lat="47.63027" lon="6.61809">
        <ele>372.4</ele>
        <time>2026-08-30T10:34:50.000Z</time>
      </trkpt>
      <trkpt lat="47.63031" lon="6.6181">
        <ele>373</ele>
        <time>2026-08-30T10:34:52.000Z</time>
      </trkpt>
      <trkpt lat="47.63034" lon="6.61812">
        <ele>373.4</ele>
        <time>2026-08-30T10:34:54.000Z</time>
      </trkpt>
      <trkpt lat="47.63036" lon="6.61814">
        <ele>374</ele>
        <time>2026-08-30T10:34:56.000Z</time>
      </trkpt>
      <trkpt lat="47.63039" lon="6.61817">
        <ele>374.6</ele>
        <time>2026-08-30T10:34:58.000Z</time>
      </trkpt>
      <trkpt lat="47.6304" lon="6.61821">
        <ele>375.2</ele>
        <time>2026-08-30T10:35:00.000Z</time>
      </trkpt>
      <trkpt lat="47.63042" lon="6.61825">
        <ele>375.6</ele>
        <time>2026-08-30T10:35:02.000Z</time>
      </trkpt>
      <trkpt lat="47.63044" lon="6.61829">
        <ele>376.2</ele>
        <time>2026-08-30T10:35:04.000Z</time>
      </trkpt>
      <trkpt lat="47.63046" lon="6.61834">
        <ele>376.8</ele>
        <time>2026-08-30T10:35:06.000Z</time>
      </trkpt>
      <trkpt lat="47.63047" lon="6.61839">
        <ele>377.2</ele>
        <time>2026-08-30T10:35:08.000Z</time>
      </trkpt>
      <trkpt lat="47.63048" lon="6.61844">
        <ele>377.6</ele>
        <time>2026-08-30T10:35:10.000Z</time>
      </trkpt>
      <trkpt lat="47.6305" lon="6.61849">
        <ele>378.2</ele>
        <time>2026-08-30T10:35:12.000Z</time>
      </trkpt>
      <trkpt lat="47.63051" lon="6.61853">
        <ele>378.6</ele>
        <time>2026-08-30T10:35:14.000Z</time>
      </trkpt>
      <trkpt lat="47.63053" lon="6.61858">
        <ele>379</ele>
        <time>2026-08-30T10:35:16.000Z</time>
      </trkpt>
      <trkpt lat="47.63054" lon="6.61862">
        <ele>379.4</ele>
        <time>2026-08-30T10:35:18.000Z</time>
      </trkpt>
      <trkpt lat="47.63056" lon="6.61867">
        <ele>379.6</ele>
        <time>2026-08-30T10:35:20.000Z</time>
      </trkpt>
      <trkpt lat="47.63057" lon="6.61872">
        <ele>380</ele>
        <time>2026-08-30T10:35:22.000Z</time>
      </trkpt>
      <trkpt lat="47.63057" lon="6.61877">
        <ele>380.4</ele>
        <time>2026-08-30T10:35:24.000Z</time>
      </trkpt>
      <trkpt lat="47.63058" lon="6.61881">
        <ele>380.6</ele>
        <time>2026-08-30T10:35:26.000Z</time>
      </trkpt>
      <trkpt lat="47.63058" lon="6.61885">
        <ele>380.8</ele>
        <time>2026-08-30T10:35:28.000Z</time>
      </trkpt>
      <trkpt lat="47.63059" lon="6.61891">
        <ele>381</ele>
        <time>2026-08-30T10:35:30.000Z</time>
      </trkpt>
      <trkpt lat="47.63058" lon="6.61896">
        <ele>381.2</ele>
        <time>2026-08-30T10:35:32.000Z</time>
      </trkpt>
      <trkpt lat="47.63057" lon="6.61902">
        <ele>381.6</ele>
        <time>2026-08-30T10:35:34.000Z</time>
      </trkpt>
      <trkpt lat="47.63056" lon="6.61906">
        <ele>381.8</ele>
        <time>2026-08-30T10:35:36.000Z</time>
      </trkpt>
      <trkpt lat="47.63055" lon="6.6191">
        <ele>382.2</ele>
        <time>2026-08-30T10:35:38.000Z</time>
      </trkpt>
      <trkpt lat="47.63054" lon="6.61916">
        <ele>382.4</ele>
        <time>2026-08-30T10:35:40.000Z</time>
      </trkpt>
      <trkpt lat="47.63054" lon="6.61921">
        <ele>382.8</ele>
        <time>2026-08-30T10:35:42.000Z</time>
      </trkpt>
      <trkpt lat="47.63054" lon="6.61926">
        <ele>383</ele>
        <time>2026-08-30T10:35:44.000Z</time>
      </trkpt>
      <trkpt lat="47.63054" lon="6.61932">
        <ele>383.2</ele>
        <time>2026-08-30T10:35:46.000Z</time>
      </trkpt>
      <trkpt lat="47.63054" lon="6.61939">
        <ele>383.6</ele>
        <time>2026-08-30T10:35:48.000Z</time>
      </trkpt>
      <trkpt lat="47.63055" lon="6.61946">
        <ele>384</ele>
        <time>2026-08-30T10:35:50.000Z</time>
      </trkpt>
      <trkpt lat="47.63055" lon="6.61953">
        <ele>384.4</ele>
        <time>2026-08-30T10:35:52.000Z</time>
      </trkpt>
      <trkpt lat="47.63056" lon="6.6196">
        <ele>384.8</ele>
        <time>2026-08-30T10:35:54.000Z</time>
      </trkpt>
      <trkpt lat="47.63056" lon="6.61967">
        <ele>385.2</ele>
        <time>2026-08-30T10:35:56.000Z</time>
      </trkpt>
      <trkpt lat="47.63057" lon="6.61974">
        <ele>385.6</ele>
        <time>2026-08-30T10:35:58.000Z</time>
      </trkpt>
      <trkpt lat="47.63057" lon="6.6198">
        <ele>386</ele>
        <time>2026-08-30T10:36:00.000Z</time>
      </trkpt>
      <trkpt lat="47.63057" lon="6.61985">
        <ele>386.4</ele>
        <time>2026-08-30T10:36:02.000Z</time>
      </trkpt>
      <trkpt lat="47.63057" lon="6.61989">
        <ele>386.6</ele>
        <time>2026-08-30T10:36:04.000Z</time>
      </trkpt>
      <trkpt lat="47.63056" lon="6.61995">
        <ele>387</ele>
        <time>2026-08-30T10:36:06.000Z</time>
      </trkpt>
      <trkpt lat="47.63056" lon="6.62001">
        <ele>387.4</ele>
        <time>2026-08-30T10:36:08.000Z</time>
      </trkpt>
      <trkpt lat="47.63056" lon="6.62007">
        <ele>387.6</ele>
        <time>2026-08-30T10:36:10.000Z</time>
      </trkpt>
      <trkpt lat="47.63057" lon="6.62012">
        <ele>387.8</ele>
        <time>2026-08-30T10:36:12.000Z</time>
      </trkpt>
      <trkpt lat="47.63058" lon="6.62018">
        <ele>388.2</ele>
        <time>2026-08-30T10:36:14.000Z</time>
      </trkpt>
      <trkpt lat="47.63058" lon="6.62025">
        <ele>388.4</ele>
        <time>2026-08-30T10:36:16.000Z</time>
      </trkpt>
      <trkpt lat="47.63059" lon="6.62032">
        <ele>388.8</ele>
        <time>2026-08-30T10:36:19.000Z</time>
      </trkpt>
      <trkpt lat="47.6306" lon="6.62038">
        <ele>389</ele>
        <time>2026-08-30T10:36:21.000Z</time>
      </trkpt>
      <trkpt lat="47.63061" lon="6.62045">
        <ele>389.2</ele>
        <time>2026-08-30T10:36:23.000Z</time>
      </trkpt>
      <trkpt lat="47.63061" lon="6.62053">
        <ele>389.4</ele>
        <time>2026-08-30T10:36:25.000Z</time>
      </trkpt>
      <trkpt lat="47.63062" lon="6.62062">
        <ele>389.6</ele>
        <time>2026-08-30T10:36:27.000Z</time>
      </trkpt>
      <trkpt lat="47.63063" lon="6.62069">
        <ele>390</ele>
        <time>2026-08-30T10:36:29.000Z</time>
      </trkpt>
      <trkpt lat="47.63065" lon="6.62076">
        <ele>390.2</ele>
        <time>2026-08-30T10:36:31.000Z</time>
      </trkpt>
      <trkpt lat="47.63067" lon="6.62083">
        <ele>390.4</ele>
        <time>2026-08-30T10:36:33.000Z</time>
      </trkpt>
      <trkpt lat="47.63068" lon="6.62089">
        <ele>390.6</ele>
        <time>2026-08-30T10:36:35.000Z</time>
      </trkpt>
      <trkpt lat="47.63069" lon="6.62097">
        <ele>390.8</ele>
        <time>2026-08-30T10:36:37.000Z</time>
      </trkpt>
      <trkpt lat="47.6307" lon="6.62104">
        <ele>391</ele>
        <time>2026-08-30T10:36:39.000Z</time>
      </trkpt>
      <trkpt lat="47.63072" lon="6.6211">
        <ele>391.4</ele>
        <time>2026-08-30T10:36:41.000Z</time>
      </trkpt>
      <trkpt lat="47.63073" lon="6.62116">
        <ele>391.6</ele>
        <time>2026-08-30T10:36:43.000Z</time>
      </trkpt>
      <trkpt lat="47.63075" lon="6.62122">
        <ele>391.8</ele>
        <time>2026-08-30T10:36:45.000Z</time>
      </trkpt>
      <trkpt lat="47.63076" lon="6.62128">
        <ele>392</ele>
        <time>2026-08-30T10:36:47.000Z</time>
      </trkpt>
      <trkpt lat="47.63077" lon="6.62134">
        <ele>392.2</ele>
        <time>2026-08-30T10:36:49.000Z</time>
      </trkpt>
      <trkpt lat="47.63079" lon="6.62141">
        <ele>392.6</ele>
        <time>2026-08-30T10:36:51.000Z</time>
      </trkpt>
      <trkpt lat="47.63079" lon="6.62148">
        <ele>392.8</ele>
        <time>2026-08-30T10:36:53.000Z</time>
      </trkpt>
      <trkpt lat="47.63079" lon="6.62155">
        <ele>393</ele>
        <time>2026-08-30T10:36:55.000Z</time>
      </trkpt>
      <trkpt lat="47.63079" lon="6.62162">
        <ele>393.4</ele>
        <time>2026-08-30T10:36:57.000Z</time>
      </trkpt>
      <trkpt lat="47.63079" lon="6.62169">
        <ele>393.6</ele>
        <time>2026-08-30T10:36:59.000Z</time>
      </trkpt>
      <trkpt lat="47.63079" lon="6.62175">
        <ele>393.8</ele>
        <time>2026-08-30T10:37:01.000Z</time>
      </trkpt>
      <trkpt lat="47.63079" lon="6.62185">
        <ele>394.2</ele>
        <time>2026-08-30T10:37:03.000Z</time>
      </trkpt>
      <trkpt lat="47.63079" lon="6.62194">
        <ele>394.4</ele>
        <time>2026-08-30T10:37:05.000Z</time>
      </trkpt>
      <trkpt lat="47.63079" lon="6.62202">
        <ele>394.6</ele>
        <time>2026-08-30T10:37:07.000Z</time>
      </trkpt>
      <trkpt lat="47.63078" lon="6.62209">
        <ele>394.8</ele>
        <time>2026-08-30T10:37:09.000Z</time>
      </trkpt>
      <trkpt lat="47.63074" lon="6.62211">
        <ele>395.2</ele>
        <time>2026-08-30T10:37:11.000Z</time>
      </trkpt>
      <trkpt lat="47.63068" lon="6.62209">
        <ele>395.6</ele>
        <time>2026-08-30T10:37:13.000Z</time>
      </trkpt>
      <trkpt lat="47.63061" lon="6.62206">
        <ele>395.8</ele>
        <time>2026-08-30T10:37:15.000Z</time>
      </trkpt>
      <trkpt lat="47.63055" lon="6.62203">
        <ele>396</ele>
        <time>2026-08-30T10:37:17.000Z</time>
      </trkpt>
      <trkpt lat="47.63048" lon="6.62199">
        <ele>396</ele>
        <time>2026-08-30T10:37:19.000Z</time>
      </trkpt>
      <trkpt lat="47.63041" lon="6.62196">
        <ele>396.2</ele>
        <time>2026-08-30T10:37:21.000Z</time>
      </trkpt>
      <trkpt lat="47.63033" lon="6.62193">
        <ele>396.2</ele>
        <time>2026-08-30T10:37:23.000Z</time>
      </trkpt>
      <trkpt lat="47.63026" lon="6.62191">
        <ele>396.2</ele>
        <time>2026-08-30T10:37:25.000Z</time>
      </trkpt>
      <trkpt lat="47.63019" lon="6.62191">
        <ele>396.2</ele>
        <time>2026-08-30T10:37:27.000Z</time>
      </trkpt>
      <trkpt lat="47.63012" lon="6.62191">
        <ele>396.2</ele>
        <time>2026-08-30T10:37:29.000Z</time>
      </trkpt>
      <trkpt lat="47.63004" lon="6.62192">
        <ele>396.2</ele>
        <time>2026-08-30T10:37:31.000Z</time>
      </trkpt>
      <trkpt lat="47.62996" lon="6.62191">
        <ele>396.2</ele>
        <time>2026-08-30T10:37:33.000Z</time>
      </trkpt>
      <trkpt lat="47.62987" lon="6.62188">
        <ele>396.2</ele>
        <time>2026-08-30T10:37:35.000Z</time>
      </trkpt>
      <trkpt lat="47.62978" lon="6.62184">
        <ele>396</ele>
        <time>2026-08-30T10:37:37.000Z</time>
      </trkpt>
      <trkpt lat="47.62969" lon="6.62179">
        <ele>395.8</ele>
        <time>2026-08-30T10:37:39.000Z</time>
      </trkpt>
      <trkpt lat="47.62959" lon="6.62175">
        <ele>395.8</ele>
        <time>2026-08-30T10:37:41.000Z</time>
      </trkpt>
      <trkpt lat="47.62949" lon="6.6217">
        <ele>395.6</ele>
        <time>2026-08-30T10:37:43.000Z</time>
      </trkpt>
      <trkpt lat="47.62938" lon="6.62166">
        <ele>395.4</ele>
        <time>2026-08-30T10:37:45.000Z</time>
      </trkpt>
      <trkpt lat="47.62927" lon="6.62163">
        <ele>395</ele>
        <time>2026-08-30T10:37:47.000Z</time>
      </trkpt>
      <trkpt lat="47.62917" lon="6.6216">
        <ele>395</ele>
        <time>2026-08-30T10:37:49.000Z</time>
      </trkpt>
      <trkpt lat="47.62907" lon="6.62158">
        <ele>394.8</ele>
        <time>2026-08-30T10:37:51.000Z</time>
      </trkpt>
      <trkpt lat="47.62897" lon="6.62156">
        <ele>394.8</ele>
        <time>2026-08-30T10:37:53.000Z</time>
      </trkpt>
      <trkpt lat="47.62887" lon="6.62155">
        <ele>394.6</ele>
        <time>2026-08-30T10:37:55.000Z</time>
      </trkpt>
      <trkpt lat="47.62877" lon="6.62154">
        <ele>394.4</ele>
        <time>2026-08-30T10:37:57.000Z</time>
      </trkpt>
      <trkpt lat="47.62866" lon="6.62153">
        <ele>394.2</ele>
        <time>2026-08-30T10:37:59.000Z</time>
      </trkpt>
      <trkpt lat="47.62855" lon="6.62151">
        <ele>394</ele>
        <time>2026-08-30T10:38:01.000Z</time>
      </trkpt>
      <trkpt lat="47.62844" lon="6.62151">
        <ele>393.8</ele>
        <time>2026-08-30T10:38:03.000Z</time>
      </trkpt>
      <trkpt lat="47.62832" lon="6.62152">
        <ele>393.8</ele>
        <time>2026-08-30T10:38:06.000Z</time>
      </trkpt>
      <trkpt lat="47.6282" lon="6.62151">
        <ele>393.2</ele>
        <time>2026-08-30T10:38:08.000Z</time>
      </trkpt>
      <trkpt lat="47.62807" lon="6.62148">
        <ele>392.6</ele>
        <time>2026-08-30T10:38:10.000Z</time>
      </trkpt>
      <trkpt lat="47.62794" lon="6.62142">
        <ele>392</ele>
        <time>2026-08-30T10:38:12.000Z</time>
      </trkpt>
      <trkpt lat="47.62781" lon="6.62133">
        <ele>391.4</ele>
        <time>2026-08-30T10:38:14.000Z</time>
      </trkpt>
      <trkpt lat="47.62769" lon="6.62124">
        <ele>391.2</ele>
        <time>2026-08-30T10:38:16.000Z</time>
      </trkpt>
      <trkpt lat="47.62759" lon="6.62113">
        <ele>391</ele>
        <time>2026-08-30T10:38:18.000Z</time>
      </trkpt>
      <trkpt lat="47.6275" lon="6.621">
        <ele>391</ele>
        <time>2026-08-30T10:38:20.000Z</time>
      </trkpt>
      <trkpt lat="47.62742" lon="6.62086">
        <ele>391</ele>
        <time>2026-08-30T10:38:22.000Z</time>
      </trkpt>
      <trkpt lat="47.62736" lon="6.62072">
        <ele>391</ele>
        <time>2026-08-30T10:38:24.000Z</time>
      </trkpt>
      <trkpt lat="47.6273" lon="6.62056">
        <ele>390.8</ele>
        <time>2026-08-30T10:38:26.000Z</time>
      </trkpt>
      <trkpt lat="47.62725" lon="6.6204">
        <ele>390.8</ele>
        <time>2026-08-30T10:38:28.000Z</time>
      </trkpt>
      <trkpt lat="47.6272" lon="6.62025">
        <ele>390.6</ele>
        <time>2026-08-30T10:38:30.000Z</time>
      </trkpt>
      <trkpt lat="47.62715" lon="6.6201">
        <ele>390.6</ele>
        <time>2026-08-30T10:38:32.000Z</time>
      </trkpt>
      <trkpt lat="47.6271" lon="6.61996">
        <ele>390.6</ele>
        <time>2026-08-30T10:38:34.000Z</time>
      </trkpt>
      <trkpt lat="47.62703" lon="6.61983">
        <ele>390.8</ele>
        <time>2026-08-30T10:38:36.000Z</time>
      </trkpt>
      <trkpt lat="47.62696" lon="6.61973">
        <ele>391</ele>
        <time>2026-08-30T10:38:38.000Z</time>
      </trkpt>
      <trkpt lat="47.62689" lon="6.61965">
        <ele>391</ele>
        <time>2026-08-30T10:38:40.000Z</time>
      </trkpt>
      <trkpt lat="47.62683" lon="6.6196">
        <ele>391.2</ele>
        <time>2026-08-30T10:38:42.000Z</time>
      </trkpt>
      <trkpt lat="47.62677" lon="6.61955">
        <ele>391.4</ele>
        <time>2026-08-30T10:38:44.000Z</time>
      </trkpt>
      <trkpt lat="47.62671" lon="6.6195">
        <ele>391.8</ele>
        <time>2026-08-30T10:38:46.000Z</time>
      </trkpt>
      <trkpt lat="47.62664" lon="6.61945">
        <ele>392.2</ele>
        <time>2026-08-30T10:38:48.000Z</time>
      </trkpt>
      <trkpt lat="47.62656" lon="6.61938">
        <ele>392.4</ele>
        <time>2026-08-30T10:38:50.000Z</time>
      </trkpt>
      <trkpt lat="47.62648" lon="6.61931">
        <ele>392.8</ele>
        <time>2026-08-30T10:38:52.000Z</time>
      </trkpt>
      <trkpt lat="47.62642" lon="6.61926">
        <ele>393.2</ele>
        <time>2026-08-30T10:38:54.000Z</time>
      </trkpt>
      <trkpt lat="47.62636" lon="6.6192">
        <ele>393.4</ele>
        <time>2026-08-30T10:38:56.000Z</time>
      </trkpt>
      <trkpt lat="47.6263" lon="6.61914">
        <ele>393.4</ele>
        <time>2026-08-30T10:38:58.000Z</time>
      </trkpt>
      <trkpt lat="47.62623" lon="6.61907">
        <ele>393.6</ele>
        <time>2026-08-30T10:39:00.000Z</time>
      </trkpt>
      <trkpt lat="47.62616" lon="6.619">
        <ele>393.8</ele>
        <time>2026-08-30T10:39:02.000Z</time>
      </trkpt>
      <trkpt lat="47.62609" lon="6.61893">
        <ele>393.8</ele>
        <time>2026-08-30T10:39:04.000Z</time>
      </trkpt>
      <trkpt lat="47.62602" lon="6.61886">
        <ele>393.8</ele>
        <time>2026-08-30T10:39:06.000Z</time>
      </trkpt>
      <trkpt lat="47.62595" lon="6.61879">
        <ele>394</ele>
        <time>2026-08-30T10:39:08.000Z</time>
      </trkpt>
      <trkpt lat="47.62588" lon="6.61872">
        <ele>394</ele>
        <time>2026-08-30T10:39:10.000Z</time>
      </trkpt>
      <trkpt lat="47.6258" lon="6.61864">
        <ele>393.8</ele>
        <time>2026-08-30T10:39:12.000Z</time>
      </trkpt>
      <trkpt lat="47.62572" lon="6.61855">
        <ele>393.6</ele>
        <time>2026-08-30T10:39:14.000Z</time>
      </trkpt>
      <trkpt lat="47.62564" lon="6.61844">
        <ele>393.2</ele>
        <time>2026-08-30T10:39:16.000Z</time>
      </trkpt>
      <trkpt lat="47.62556" lon="6.61833">
        <ele>392.8</ele>
        <time>2026-08-30T10:39:18.000Z</time>
      </trkpt>
      <trkpt lat="47.6255" lon="6.61827">
        <ele>392.2</ele>
        <time>2026-08-30T10:39:20.000Z</time>
      </trkpt>
      <trkpt lat="47.62544" lon="6.61831">
        <ele>392</ele>
        <time>2026-08-30T10:39:22.000Z</time>
      </trkpt>
      <trkpt lat="47.62542" lon="6.61841">
        <ele>391.8</ele>
        <time>2026-08-30T10:39:24.000Z</time>
      </trkpt>
      <trkpt lat="47.62541" lon="6.61853">
        <ele>392</ele>
        <time>2026-08-30T10:39:26.000Z</time>
      </trkpt>
      <trkpt lat="47.6254" lon="6.61865">
        <ele>392</ele>
        <time>2026-08-30T10:39:28.000Z</time>
      </trkpt>
      <trkpt lat="47.62539" lon="6.61876">
        <ele>392.2</ele>
        <time>2026-08-30T10:39:30.000Z</time>
      </trkpt>
      <trkpt lat="47.62539" lon="6.61886">
        <ele>392.4</ele>
        <time>2026-08-30T10:39:32.000Z</time>
      </trkpt>
      <trkpt lat="47.6254" lon="6.61896">
        <ele>392.6</ele>
        <time>2026-08-30T10:39:34.000Z</time>
      </trkpt>
      <trkpt lat="47.6254" lon="6.61906">
        <ele>393</ele>
        <time>2026-08-30T10:39:36.000Z</time>
      </trkpt>
      <trkpt lat="47.62541" lon="6.61916">
        <ele>393.2</ele>
        <time>2026-08-30T10:39:39.000Z</time>
      </trkpt>
      <trkpt lat="47.62541" lon="6.61925">
        <ele>393.6</ele>
        <time>2026-08-30T10:39:41.000Z</time>
      </trkpt>
      <trkpt lat="47.62541" lon="6.61933">
        <ele>394</ele>
        <time>2026-08-30T10:39:43.000Z</time>
      </trkpt>
      <trkpt lat="47.62542" lon="6.61941">
        <ele>394.4</ele>
        <time>2026-08-30T10:39:45.000Z</time>
      </trkpt>
      <trkpt lat="47.62542" lon="6.61948">
        <ele>394.8</ele>
        <time>2026-08-30T10:39:47.000Z</time>
      </trkpt>
      <trkpt lat="47.62542" lon="6.61955">
        <ele>395.2</ele>
        <time>2026-08-30T10:39:49.000Z</time>
      </trkpt>
      <trkpt lat="47.62542" lon="6.61963">
        <ele>395.6</ele>
        <time>2026-08-30T10:39:51.000Z</time>
      </trkpt>
      <trkpt lat="47.62542" lon="6.6197">
        <ele>396</ele>
        <time>2026-08-30T10:39:53.000Z</time>
      </trkpt>
      <trkpt lat="47.62542" lon="6.61977">
        <ele>396.4</ele>
        <time>2026-08-30T10:39:55.000Z</time>
      </trkpt>
      <trkpt lat="47.62542" lon="6.61984">
        <ele>396.8</ele>
        <time>2026-08-30T10:39:57.000Z</time>
      </trkpt>
      <trkpt lat="47.62541" lon="6.61991">
        <ele>397.4</ele>
        <time>2026-08-30T10:39:59.000Z</time>
      </trkpt>
      <trkpt lat="47.62541" lon="6.61998">
        <ele>397.8</ele>
        <time>2026-08-30T10:40:01.000Z</time>
      </trkpt>
      <trkpt lat="47.6254" lon="6.62005">
        <ele>398.2</ele>
        <time>2026-08-30T10:40:03.000Z</time>
      </trkpt>
      <trkpt lat="47.62539" lon="6.62011">
        <ele>398.6</ele>
        <time>2026-08-30T10:40:05.000Z</time>
      </trkpt>
      <trkpt lat="47.62538" lon="6.62018">
        <ele>399</ele>
        <time>2026-08-30T10:40:07.000Z</time>
      </trkpt>
      <trkpt lat="47.62537" lon="6.62024">
        <ele>399.6</ele>
        <time>2026-08-30T10:40:09.000Z</time>
      </trkpt>
      <trkpt lat="47.62537" lon="6.62029">
        <ele>400</ele>
        <time>2026-08-30T10:40:11.000Z</time>
      </trkpt>
      <trkpt lat="47.62536" lon="6.62033">
        <ele>400.4</ele>
        <time>2026-08-30T10:40:13.000Z</time>
      </trkpt>
      <trkpt lat="47.62536" lon="6.62038">
        <ele>400.8</ele>
        <time>2026-08-30T10:40:15.000Z</time>
      </trkpt>
      <trkpt lat="47.62536" lon="6.62042">
        <ele>401.2</ele>
        <time>2026-08-30T10:40:17.000Z</time>
      </trkpt>
      <trkpt lat="47.62536" lon="6.62046">
        <ele>401.6</ele>
        <time>2026-08-30T10:40:19.000Z</time>
      </trkpt>
      <trkpt lat="47.62535" lon="6.6205">
        <ele>402</ele>
        <time>2026-08-30T10:40:21.000Z</time>
      </trkpt>
      <trkpt lat="47.62535" lon="6.62055">
        <ele>402.4</ele>
        <time>2026-08-30T10:40:23.000Z</time>
      </trkpt>
      <trkpt lat="47.62535" lon="6.62059">
        <ele>403</ele>
        <time>2026-08-30T10:40:25.000Z</time>
      </trkpt>
      <trkpt lat="47.62535" lon="6.62062">
        <ele>403.4</ele>
        <time>2026-08-30T10:40:27.000Z</time>
      </trkpt>
      <trkpt lat="47.62536" lon="6.62067">
        <ele>403.8</ele>
        <time>2026-08-30T10:40:29.000Z</time>
      </trkpt>
      <trkpt lat="47.62536" lon="6.62072">
        <ele>404.2</ele>
        <time>2026-08-30T10:40:31.000Z</time>
      </trkpt>
      <trkpt lat="47.62536" lon="6.62075">
        <ele>404.6</ele>
        <time>2026-08-30T10:40:33.000Z</time>
      </trkpt>
      <trkpt lat="47.62537" lon="6.62079">
        <ele>405</ele>
        <time>2026-08-30T10:40:35.000Z</time>
      </trkpt>
      <trkpt lat="47.62537" lon="6.62083">
        <ele>405.4</ele>
        <time>2026-08-30T10:40:37.000Z</time>
      </trkpt>
      <trkpt lat="47.62538" lon="6.62087">
        <ele>405.8</ele>
        <time>2026-08-30T10:40:39.000Z</time>
      </trkpt>
      <trkpt lat="47.62538" lon="6.62091">
        <ele>406.2</ele>
        <time>2026-08-30T10:40:41.000Z</time>
      </trkpt>
      <trkpt lat="47.62539" lon="6.62094">
        <ele>406.6</ele>
        <time>2026-08-30T10:40:43.000Z</time>
      </trkpt>
      <trkpt lat="47.62539" lon="6.62099">
        <ele>407</ele>
        <time>2026-08-30T10:40:45.000Z</time>
      </trkpt>
      <trkpt lat="47.6254" lon="6.62103">
        <ele>407.4</ele>
        <time>2026-08-30T10:40:47.000Z</time>
      </trkpt>
      <trkpt lat="47.6254" lon="6.62107">
        <ele>408</ele>
        <time>2026-08-30T10:40:49.000Z</time>
      </trkpt>
      <trkpt lat="47.6254" lon="6.62111">
        <ele>408.4</ele>
        <time>2026-08-30T10:40:51.000Z</time>
      </trkpt>
      <trkpt lat="47.62541" lon="6.62114">
        <ele>408.8</ele>
        <time>2026-08-30T10:40:53.000Z</time>
      </trkpt>
      <trkpt lat="47.62541" lon="6.62118">
        <ele>409.2</ele>
        <time>2026-08-30T10:40:55.000Z</time>
      </trkpt>
      <trkpt lat="47.62542" lon="6.62122">
        <ele>409.6</ele>
        <time>2026-08-30T10:40:57.000Z</time>
      </trkpt>
      <trkpt lat="47.62543" lon="6.62125">
        <ele>410</ele>
        <time>2026-08-30T10:40:59.000Z</time>
      </trkpt>
      <trkpt lat="47.62543" lon="6.62129">
        <ele>410.4</ele>
        <time>2026-08-30T10:41:01.000Z</time>
      </trkpt>
      <trkpt lat="47.62544" lon="6.62133">
        <ele>410.8</ele>
        <time>2026-08-30T10:41:03.000Z</time>
      </trkpt>
      <trkpt lat="47.62544" lon="6.62137">
        <ele>411.2</ele>
        <time>2026-08-30T10:41:05.000Z</time>
      </trkpt>
      <trkpt lat="47.62544" lon="6.62141">
        <ele>411.6</ele>
        <time>2026-08-30T10:41:07.000Z</time>
      </trkpt>
      <trkpt lat="47.62544" lon="6.62145">
        <ele>411.8</ele>
        <time>2026-08-30T10:41:09.000Z</time>
      </trkpt>
      <trkpt lat="47.62544" lon="6.62149">
        <ele>412.2</ele>
        <time>2026-08-30T10:41:11.000Z</time>
      </trkpt>
      <trkpt lat="47.62545" lon="6.62153">
        <ele>412.6</ele>
        <time>2026-08-30T10:41:13.000Z</time>
      </trkpt>
      <trkpt lat="47.62545" lon="6.62157">
        <ele>413</ele>
        <time>2026-08-30T10:41:15.000Z</time>
      </trkpt>
      <trkpt lat="47.62546" lon="6.62161">
        <ele>413.4</ele>
        <time>2026-08-30T10:41:17.000Z</time>
      </trkpt>
      <trkpt lat="47.62546" lon="6.62165">
        <ele>413.6</ele>
        <time>2026-08-30T10:41:19.000Z</time>
      </trkpt>
      <trkpt lat="47.62546" lon="6.6217">
        <ele>414</ele>
        <time>2026-08-30T10:41:22.000Z</time>
      </trkpt>
      <trkpt lat="47.62546" lon="6.62174">
        <ele>414.4</ele>
        <time>2026-08-30T10:41:24.000Z</time>
      </trkpt>
      <trkpt lat="47.62546" lon="6.62178">
        <ele>414.6</ele>
        <time>2026-08-30T10:41:26.000Z</time>
      </trkpt>
      <trkpt lat="47.62546" lon="6.62182">
        <ele>415</ele>
        <time>2026-08-30T10:41:28.000Z</time>
      </trkpt>
      <trkpt lat="47.62547" lon="6.62187">
        <ele>415.2</ele>
        <time>2026-08-30T10:41:30.000Z</time>
      </trkpt>
      <trkpt lat="47.62547" lon="6.62191">
        <ele>415.6</ele>
        <time>2026-08-30T10:41:32.000Z</time>
      </trkpt>
      <trkpt lat="47.62547" lon="6.62196">
        <ele>415.8</ele>
        <time>2026-08-30T10:41:34.000Z</time>
      </trkpt>
      <trkpt lat="47.62547" lon="6.622">
        <ele>416</ele>
        <time>2026-08-30T10:41:36.000Z</time>
      </trkpt>
      <trkpt lat="47.62547" lon="6.62205">
        <ele>416.4</ele>
        <time>2026-08-30T10:41:38.000Z</time>
      </trkpt>
      <trkpt lat="47.62547" lon="6.62209">
        <ele>416.6</ele>
        <time>2026-08-30T10:41:40.000Z</time>
      </trkpt>
      <trkpt lat="47.62548" lon="6.62214">
        <ele>417</ele>
        <time>2026-08-30T10:41:42.000Z</time>
      </trkpt>
      <trkpt lat="47.62548" lon="6.62219">
        <ele>417.2</ele>
        <time>2026-08-30T10:41:44.000Z</time>
      </trkpt>
      <trkpt lat="47.62548" lon="6.62223">
        <ele>417.6</ele>
        <time>2026-08-30T10:41:46.000Z</time>
      </trkpt>
      <trkpt lat="47.62548" lon="6.62228">
        <ele>417.8</ele>
        <time>2026-08-30T10:41:48.000Z</time>
      </trkpt>
      <trkpt lat="47.62548" lon="6.62233">
        <ele>418.2</ele>
        <time>2026-08-30T10:41:50.000Z</time>
      </trkpt>
      <trkpt lat="47.62548" lon="6.62238">
        <ele>418.4</ele>
        <time>2026-08-30T10:41:52.000Z</time>
      </trkpt>
      <trkpt lat="47.62548" lon="6.62242">
        <ele>418.6</ele>
        <time>2026-08-30T10:41:54.000Z</time>
      </trkpt>
      <trkpt lat="47.62549" lon="6.62247">
        <ele>419</ele>
        <time>2026-08-30T10:41:56.000Z</time>
      </trkpt>
      <trkpt lat="47.62549" lon="6.62252">
        <ele>419.2</ele>
        <time>2026-08-30T10:41:58.000Z</time>
      </trkpt>
      <trkpt lat="47.6255" lon="6.62256">
        <ele>419.6</ele>
        <time>2026-08-30T10:42:00.000Z</time>
      </trkpt>
      <trkpt lat="47.6255" lon="6.62261">
        <ele>419.8</ele>
        <time>2026-08-30T10:42:02.000Z</time>
      </trkpt>
      <trkpt lat="47.6255" lon="6.62266">
        <ele>420</ele>
        <time>2026-08-30T10:42:04.000Z</time>
      </trkpt>
      <trkpt lat="47.6255" lon="6.6227">
        <ele>420.4</ele>
        <time>2026-08-30T10:42:06.000Z</time>
      </trkpt>
      <trkpt lat="47.62551" lon="6.62275">
        <ele>420.8</ele>
        <time>2026-08-30T10:42:08.000Z</time>
      </trkpt>
      <trkpt lat="47.62551" lon="6.62282">
        <ele>421.2</ele>
        <time>2026-08-30T10:42:10.000Z</time>
      </trkpt>
      <trkpt lat="47.62552" lon="6.62287">
        <ele>421.4</ele>
        <time>2026-08-30T10:42:12.000Z</time>
      </trkpt>
      <trkpt lat="47.62552" lon="6.62292">
        <ele>421.8</ele>
        <time>2026-08-30T10:42:14.000Z</time>
      </trkpt>
      <trkpt lat="47.62552" lon="6.62297">
        <ele>422</ele>
        <time>2026-08-30T10:42:16.000Z</time>
      </trkpt>
      <trkpt lat="47.62553" lon="6.62301">
        <ele>422.4</ele>
        <time>2026-08-30T10:42:18.000Z</time>
      </trkpt>
      <trkpt lat="47.62553" lon="6.62306">
        <ele>422.8</ele>
        <time>2026-08-30T10:42:20.000Z</time>
      </trkpt>
      <trkpt lat="47.62553" lon="6.62311">
        <ele>423.2</ele>
        <time>2026-08-30T10:42:22.000Z</time>
      </trkpt>
      <trkpt lat="47.62554" lon="6.62316">
        <ele>423.4</ele>
        <time>2026-08-30T10:42:24.000Z</time>
      </trkpt>
      <trkpt lat="47.62554" lon="6.62321">
        <ele>423.8</ele>
        <time>2026-08-30T10:42:26.000Z</time>
      </trkpt>
      <trkpt lat="47.62554" lon="6.62326">
        <ele>424</ele>
        <time>2026-08-30T10:42:28.000Z</time>
      </trkpt>
      <trkpt lat="47.62554" lon="6.62331">
        <ele>424.2</ele>
        <time>2026-08-30T10:42:30.000Z</time>
      </trkpt>
      <trkpt lat="47.62555" lon="6.62335">
        <ele>424.4</ele>
        <time>2026-08-30T10:42:32.000Z</time>
      </trkpt>
      <trkpt lat="47.62555" lon="6.6234">
        <ele>424.8</ele>
        <time>2026-08-30T10:42:34.000Z</time>
      </trkpt>
      <trkpt lat="47.62556" lon="6.62345">
        <ele>425</ele>
        <time>2026-08-30T10:42:36.000Z</time>
      </trkpt>
      <trkpt lat="47.62556" lon="6.6235">
        <ele>425.4</ele>
        <time>2026-08-30T10:42:38.000Z</time>
      </trkpt>
      <trkpt lat="47.62557" lon="6.62355">
        <ele>425.8</ele>
        <time>2026-08-30T10:42:40.000Z</time>
      </trkpt>
      <trkpt lat="47.62558" lon="6.6236">
        <ele>426</ele>
        <time>2026-08-30T10:42:42.000Z</time>
      </trkpt>
      <trkpt lat="47.62559" lon="6.62365">
        <ele>426.4</ele>
        <time>2026-08-30T10:42:44.000Z</time>
      </trkpt>
      <trkpt lat="47.62559" lon="6.6237">
        <ele>426.6</ele>
        <time>2026-08-30T10:42:46.000Z</time>
      </trkpt>
      <trkpt lat="47.6256" lon="6.62375">
        <ele>427</ele>
        <time>2026-08-30T10:42:48.000Z</time>
      </trkpt>
      <trkpt lat="47.62561" lon="6.6238">
        <ele>427.2</ele>
        <time>2026-08-30T10:42:50.000Z</time>
      </trkpt>
      <trkpt lat="47.62562" lon="6.62387">
        <ele>427.4</ele>
        <time>2026-08-30T10:42:52.000Z</time>
      </trkpt>
      <trkpt lat="47.62563" lon="6.62393">
        <ele>427.6</ele>
        <time>2026-08-30T10:42:54.000Z</time>
      </trkpt>
      <trkpt lat="47.62564" lon="6.624">
        <ele>427.8</ele>
        <time>2026-08-30T10:42:57.000Z</time>
      </trkpt>
      <trkpt lat="47.62565" lon="6.62406">
        <ele>428</ele>
        <time>2026-08-30T10:42:59.000Z</time>
      </trkpt>
      <trkpt lat="47.62566" lon="6.62412">
        <ele>428.2</ele>
        <time>2026-08-30T10:43:01.000Z</time>
      </trkpt>
      <trkpt lat="47.62567" lon="6.62419">
        <ele>428.4</ele>
        <time>2026-08-30T10:43:03.000Z</time>
      </trkpt>
      <trkpt lat="47.62568" lon="6.62424">
        <ele>428.8</ele>
        <time>2026-08-30T10:43:05.000Z</time>
      </trkpt>
      <trkpt lat="47.62569" lon="6.6243">
        <ele>429</ele>
        <time>2026-08-30T10:43:07.000Z</time>
      </trkpt>
      <trkpt lat="47.62571" lon="6.62437">
        <ele>429.4</ele>
        <time>2026-08-30T10:43:09.000Z</time>
      </trkpt>
      <trkpt lat="47.62571" lon="6.62443">
        <ele>429.6</ele>
        <time>2026-08-30T10:43:11.000Z</time>
      </trkpt>
      <trkpt lat="47.62572" lon="6.6245">
        <ele>430</ele>
        <time>2026-08-30T10:43:13.000Z</time>
      </trkpt>
      <trkpt lat="47.62573" lon="6.62456">
        <ele>430.2</ele>
        <time>2026-08-30T10:43:15.000Z</time>
      </trkpt>
      <trkpt lat="47.62574" lon="6.62462">
        <ele>430.4</ele>
        <time>2026-08-30T10:43:17.000Z</time>
      </trkpt>
      <trkpt lat="47.62574" lon="6.6247">
        <ele>430.8</ele>
        <time>2026-08-30T10:43:19.000Z</time>
      </trkpt>
      <trkpt lat="47.62575" lon="6.62477">
        <ele>431</ele>
        <time>2026-08-30T10:43:21.000Z</time>
      </trkpt>
      <trkpt lat="47.62576" lon="6.62484">
        <ele>431.4</ele>
        <time>2026-08-30T10:43:23.000Z</time>
      </trkpt>
      <trkpt lat="47.62578" lon="6.62491">
        <ele>431.6</ele>
        <time>2026-08-30T10:43:25.000Z</time>
      </trkpt>
      <trkpt lat="47.62579" lon="6.62497">
        <ele>432</ele>
        <time>2026-08-30T10:43:27.000Z</time>
      </trkpt>
      <trkpt lat="47.62579" lon="6.62503">
        <ele>432.2</ele>
        <time>2026-08-30T10:43:29.000Z</time>
      </trkpt>
      <trkpt lat="47.62581" lon="6.6251">
        <ele>432.6</ele>
        <time>2026-08-30T10:43:31.000Z</time>
      </trkpt>
      <trkpt lat="47.62582" lon="6.62516">
        <ele>432.8</ele>
        <time>2026-08-30T10:43:33.000Z</time>
      </trkpt>
      <trkpt lat="47.62583" lon="6.62522">
        <ele>433.2</ele>
        <time>2026-08-30T10:43:35.000Z</time>
      </trkpt>
      <trkpt lat="47.62584" lon="6.62529">
        <ele>433.4</ele>
        <time>2026-08-30T10:43:37.000Z</time>
      </trkpt>
      <trkpt lat="47.62585" lon="6.62535">
        <ele>433.6</ele>
        <time>2026-08-30T10:43:39.000Z</time>
      </trkpt>
      <trkpt lat="47.62586" lon="6.62541">
        <ele>434</ele>
        <time>2026-08-30T10:43:41.000Z</time>
      </trkpt>
      <trkpt lat="47.62587" lon="6.62548">
        <ele>434.2</ele>
        <time>2026-08-30T10:43:43.000Z</time>
      </trkpt>
      <trkpt lat="47.62588" lon="6.62557">
        <ele>434.4</ele>
        <time>2026-08-30T10:43:45.000Z</time>
      </trkpt>
      <trkpt lat="47.62589" lon="6.62566">
        <ele>434.8</ele>
        <time>2026-08-30T10:43:47.000Z</time>
      </trkpt>
      <trkpt lat="47.6259" lon="6.62573">
        <ele>435</ele>
        <time>2026-08-30T10:43:49.000Z</time>
      </trkpt>
      <trkpt lat="47.62591" lon="6.62579">
        <ele>435.2</ele>
        <time>2026-08-30T10:43:51.000Z</time>
      </trkpt>
      <trkpt lat="47.62592" lon="6.62586">
        <ele>435.4</ele>
        <time>2026-08-30T10:43:53.000Z</time>
      </trkpt>
      <trkpt lat="47.62593" lon="6.62592">
        <ele>435.8</ele>
        <time>2026-08-30T10:43:55.000Z</time>
      </trkpt>
      <trkpt lat="47.62594" lon="6.62599">
        <ele>436</ele>
        <time>2026-08-30T10:43:57.000Z</time>
      </trkpt>
      <trkpt lat="47.62594" lon="6.62605">
        <ele>436.4</ele>
        <time>2026-08-30T10:43:59.000Z</time>
      </trkpt>
      <trkpt lat="47.62595" lon="6.62612">
        <ele>436.6</ele>
        <time>2026-08-30T10:44:01.000Z</time>
      </trkpt>
      <trkpt lat="47.62596" lon="6.62617">
        <ele>437</ele>
        <time>2026-08-30T10:44:03.000Z</time>
      </trkpt>
      <trkpt lat="47.62598" lon="6.62623">
        <ele>437.2</ele>
        <time>2026-08-30T10:44:05.000Z</time>
      </trkpt>
      <trkpt lat="47.62599" lon="6.6263">
        <ele>437.4</ele>
        <time>2026-08-30T10:44:07.000Z</time>
      </trkpt>
      <trkpt lat="47.626" lon="6.62637">
        <ele>437.6</ele>
        <time>2026-08-30T10:44:09.000Z</time>
      </trkpt>
      <trkpt lat="47.62601" lon="6.62644">
        <ele>437.8</ele>
        <time>2026-08-30T10:44:11.000Z</time>
      </trkpt>
      <trkpt lat="47.62602" lon="6.62651">
        <ele>438</ele>
        <time>2026-08-30T10:44:13.000Z</time>
      </trkpt>
      <trkpt lat="47.62603" lon="6.62657">
        <ele>438.2</ele>
        <time>2026-08-30T10:44:15.000Z</time>
      </trkpt>
      <trkpt lat="47.62604" lon="6.62664">
        <ele>438.4</ele>
        <time>2026-08-30T10:44:17.000Z</time>
      </trkpt>
      <trkpt lat="47.62605" lon="6.6267">
        <ele>438.6</ele>
        <time>2026-08-30T10:44:19.000Z</time>
      </trkpt>
      <trkpt lat="47.62607" lon="6.62676">
        <ele>438.8</ele>
        <time>2026-08-30T10:44:21.000Z</time>
      </trkpt>
      <trkpt lat="47.62607" lon="6.62682">
        <ele>439</ele>
        <time>2026-08-30T10:44:23.000Z</time>
      </trkpt>
      <trkpt lat="47.62608" lon="6.62689">
        <ele>439</ele>
        <time>2026-08-30T10:44:25.000Z</time>
      </trkpt>
      <trkpt lat="47.62609" lon="6.62694">
        <ele>439.2</ele>
        <time>2026-08-30T10:44:27.000Z</time>
      </trkpt>
      <trkpt lat="47.62609" lon="6.627">
        <ele>439.4</ele>
        <time>2026-08-30T10:44:29.000Z</time>
      </trkpt>
      <trkpt lat="47.62609" lon="6.62705">
        <ele>439.6</ele>
        <time>2026-08-30T10:44:31.000Z</time>
      </trkpt>
      <trkpt lat="47.62609" lon="6.62708">
        <ele>439.6</ele>
        <time>2026-08-30T10:44:33.000Z</time>
      </trkpt>
      <trkpt lat="47.6261" lon="6.62713">
        <ele>439.8</ele>
        <time>2026-08-30T10:44:35.000Z</time>
      </trkpt>
      <trkpt lat="47.62608" lon="6.62718">
        <ele>439.8</ele>
        <time>2026-08-30T10:44:37.000Z</time>
      </trkpt>
      <trkpt lat="47.62605" lon="6.62722">
        <ele>439.6</ele>
        <time>2026-08-30T10:44:39.000Z</time>
      </trkpt>
      <trkpt lat="47.62602" lon="6.62724">
        <ele>439.6</ele>
        <time>2026-08-30T10:44:41.000Z</time>
      </trkpt>
      <trkpt lat="47.62601" lon="6.62724">
        <ele>439.4</ele>
        <time>2026-08-30T10:44:43.000Z</time>
      </trkpt>
      <trkpt lat="47.62602" lon="6.62724">
        <ele>439.4</ele>
        <time>2026-08-30T10:44:45.000Z</time>
      </trkpt>
      <trkpt lat="47.62602" lon="6.62724">
        <ele>439.4</ele>
        <time>2026-08-30T10:44:47.000Z</time>
      </trkpt>
      <trkpt lat="47.62602" lon="6.62725">
        <ele>439.4</ele>
        <time>2026-08-30T10:44:49.000Z</time>
      </trkpt>
      <trkpt lat="47.62602" lon="6.62725">
        <ele>439.4</ele>
        <time>2026-08-30T10:44:51.000Z</time>
      </trkpt>
      <trkpt lat="47.62602" lon="6.62725">
        <ele>439.2</ele>
        <time>2026-08-30T10:44:53.000Z</time>
      </trkpt>
      <trkpt lat="47.62602" lon="6.62725">
        <ele>439.2</ele>
        <time>2026-08-30T10:44:55.000Z</time>
      </trkpt>
      <trkpt lat="47.62601" lon="6.62725">
        <ele>439.2</ele>
        <time>2026-08-30T10:44:57.000Z</time>
      </trkpt>
      <trkpt lat="47.62601" lon="6.62726">
        <ele>439.2</ele>
        <time>2026-08-30T10:45:00.000Z</time>
      </trkpt>
      <trkpt lat="47.62601" lon="6.62726">
        <ele>439.2</ele>
        <time>2026-08-30T10:45:02.000Z</time>
      </trkpt>
      <trkpt lat="47.62601" lon="6.62726">
        <ele>439.2</ele>
        <time>2026-08-30T10:45:04.000Z</time>
      </trkpt>
      <trkpt lat="47.62601" lon="6.62726">
        <ele>439</ele>
        <time>2026-08-30T10:45:06.000Z</time>
      </trkpt>
      <trkpt lat="47.62601" lon="6.62726">
        <ele>439</ele>
        <time>2026-08-30T10:45:08.000Z</time>
      </trkpt>
      <trkpt lat="47.62601" lon="6.62726">
        <ele>439</ele>
        <time>2026-08-30T10:45:10.000Z</time>
      </trkpt>
      <trkpt lat="47.62601" lon="6.62726">
        <ele>439</ele>
        <time>2026-08-30T10:45:12.000Z</time>
      </trkpt>
      <trkpt lat="47.62601" lon="6.62726">
        <ele>439</ele>
        <time>2026-08-30T10:45:14.000Z</time>
      </trkpt>
      <trkpt lat="47.62601" lon="6.62727">
        <ele>439</ele>
        <time>2026-08-30T10:45:16.000Z</time>
      </trkpt>
      <trkpt lat="47.62601" lon="6.62727">
        <ele>439</ele>
        <time>2026-08-30T10:45:18.000Z</time>
      </trkpt>
      <trkpt lat="47.62601" lon="6.62727">
        <ele>439</ele>
        <time>2026-08-30T10:45:20.000Z</time>
      </trkpt>
      <trkpt lat="47.62602" lon="6.62727">
        <ele>439</ele>
        <time>2026-08-30T10:45:22.000Z</time>
      </trkpt>
      <trkpt lat="47.62602" lon="6.62728">
        <ele>439</ele>
        <time>2026-08-30T10:45:24.000Z</time>
      </trkpt>
      <trkpt lat="47.62602" lon="6.62728">
        <ele>439</ele>
        <time>2026-08-30T10:45:26.000Z</time>
      </trkpt>
      <trkpt lat="47.62602" lon="6.62728">
        <ele>439</ele>
        <time>2026-08-30T10:45:28.000Z</time>
      </trkpt>
      <trkpt lat="47.62602" lon="6.62728">
        <ele>439</ele>
        <time>2026-08-30T10:45:30.000Z</time>
      </trkpt>
      <trkpt lat="47.62602" lon="6.62728">
        <ele>439</ele>
        <time>2026-08-30T10:45:32.000Z</time>
      </trkpt>
      <trkpt lat="47.62602" lon="6.62728">
        <ele>439</ele>
        <time>2026-08-30T10:45:34.000Z</time>
      </trkpt>
      <trkpt lat="47.62602" lon="6.62728">
        <ele>439</ele>
        <time>2026-08-30T10:45:36.000Z</time>
      </trkpt>
      <trkpt lat="47.62602" lon="6.62728">
        <ele>439</ele>
        <time>2026-08-30T10:45:38.000Z</time>
      </trkpt>
      <trkpt lat="47.62603" lon="6.62728">
        <ele>439</ele>
        <time>2026-08-30T10:45:40.000Z</time>
      </trkpt>
      <trkpt lat="47.62603" lon="6.62728">
        <ele>439</ele>
        <time>2026-08-30T10:45:42.000Z</time>
      </trkpt>
      <trkpt lat="47.62603" lon="6.62728">
        <ele>439</ele>
        <time>2026-08-30T10:45:44.000Z</time>
      </trkpt>
      <trkpt lat="47.62603" lon="6.62728">
        <ele>439</ele>
        <time>2026-08-30T10:45:46.000Z</time>
      </trkpt>
      <trkpt lat="47.62603" lon="6.62728">
        <ele>439</ele>
        <time>2026-08-30T10:45:48.000Z</time>
      </trkpt>
      <trkpt lat="47.62603" lon="6.62728">
        <ele>439</ele>
        <time>2026-08-30T10:45:50.000Z</time>
      </trkpt>
      <trkpt lat="47.62603" lon="6.62728">
        <ele>439</ele>
        <time>2026-08-30T10:45:52.000Z</time>
      </trkpt>
      <trkpt lat="47.62603" lon="6.62727">
        <ele>439</ele>
        <time>2026-08-30T10:45:54.000Z</time>
      </trkpt>
      <trkpt lat="47.62603" lon="6.62727">
        <ele>439</ele>
        <time>2026-08-30T10:45:56.000Z</time>
      </trkpt>
      <trkpt lat="47.62603" lon="6.62727">
        <ele>439</ele>
        <time>2026-08-30T10:45:58.000Z</time>
      </trkpt>
      <trkpt lat="47.62604" lon="6.62727">
        <ele>439</ele>
        <time>2026-08-30T10:46:00.000Z</time>
      </trkpt>
      <trkpt lat="47.62604" lon="6.62727">
        <ele>439</ele>
        <time>2026-08-30T10:46:02.000Z</time>
      </trkpt>
      <trkpt lat="47.62604" lon="6.62726">
        <ele>439</ele>
        <time>2026-08-30T10:46:04.000Z</time>
      </trkpt>
      <trkpt lat="47.62604" lon="6.62726">
        <ele>439</ele>
        <time>2026-08-30T10:46:06.000Z</time>
      </trkpt>
      <trkpt lat="47.62604" lon="6.62726">
        <ele>439</ele>
        <time>2026-08-30T10:46:08.000Z</time>
      </trkpt>
      <trkpt lat="47.62605" lon="6.62726">
        <ele>439</ele>
        <time>2026-08-30T10:46:10.000Z</time>
      </trkpt>
      <trkpt lat="47.62605" lon="6.62726">
        <ele>439</ele>
        <time>2026-08-30T10:46:12.000Z</time>
      </trkpt>
      <trkpt lat="47.62605" lon="6.62726">
        <ele>439</ele>
        <time>2026-08-30T10:46:14.000Z</time>
      </trkpt>
      <trkpt lat="47.62605" lon="6.62726">
        <ele>439</ele>
        <time>2026-08-30T10:46:16.000Z</time>
      </trkpt>
      <trkpt lat="47.62605" lon="6.62726">
        <ele>439</ele>
        <time>2026-08-30T10:46:18.000Z</time>
      </trkpt>
      <trkpt lat="47.62605" lon="6.62726">
        <ele>439</ele>
        <time>2026-08-30T10:46:20.000Z</time>
      </trkpt>
      <trkpt lat="47.62604" lon="6.62726">
        <ele>439</ele>
        <time>2026-08-30T10:46:22.000Z</time>
      </trkpt>
      <trkpt lat="47.62604" lon="6.62726">
        <ele>439</ele>
        <time>2026-08-30T10:46:24.000Z</time>
      </trkpt>
      <trkpt lat="47.62604" lon="6.62726">
        <ele>439</ele>
        <time>2026-08-30T10:46:26.000Z</time>
      </trkpt>
      <trkpt lat="47.62604" lon="6.62726">
        <ele>439</ele>
        <time>2026-08-30T10:46:28.000Z</time>
      </trkpt>
      <trkpt lat="47.62604" lon="6.62726">
        <ele>439</ele>
        <time>2026-08-30T10:46:30.000Z</time>
      </trkpt>
      <trkpt lat="47.62604" lon="6.62726">
        <ele>439</ele>
        <time>2026-08-30T10:46:32.000Z</time>
      </trkpt>
      <trkpt lat="47.62604" lon="6.62726">
        <ele>439</ele>
        <time>2026-08-30T10:46:35.000Z</time>
      </trkpt>
      <trkpt lat="47.62604" lon="6.62726">
        <ele>439</ele>
        <time>2026-08-30T10:46:37.000Z</time>
      </trkpt>
      <trkpt lat="47.62604" lon="6.62726">
        <ele>439</ele>
        <time>2026-08-30T10:46:39.000Z</time>
      </trkpt>
      <trkpt lat="47.62604" lon="6.62726">
        <ele>439</ele>
        <time>2026-08-30T10:46:41.000Z</time>
      </trkpt>
      <trkpt lat="47.62604" lon="6.62726">
        <ele>439</ele>
        <time>2026-08-30T10:46:43.000Z</time>
      </trkpt>
      <trkpt lat="47.62603" lon="6.62726">
        <ele>439</ele>
        <time>2026-08-30T10:46:45.000Z</time>
      </trkpt>
      <trkpt lat="47.62603" lon="6.62726">
        <ele>439</ele>
        <time>2026-08-30T10:46:47.000Z</time>
      </trkpt>
      <trkpt lat="47.62603" lon="6.62726">
        <ele>439</ele>
        <time>2026-08-30T10:46:49.000Z</time>
      </trkpt>
      <trkpt lat="47.62603" lon="6.62726">
        <ele>438.8</ele>
        <time>2026-08-30T10:46:51.000Z</time>
      </trkpt>
      <trkpt lat="47.62603" lon="6.62726">
        <ele>438.8</ele>
        <time>2026-08-30T10:46:53.000Z</time>
      </trkpt>
      <trkpt lat="47.62603" lon="6.62726">
        <ele>438.8</ele>
        <time>2026-08-30T10:46:55.000Z</time>
      </trkpt>
      <trkpt lat="47.62602" lon="6.62726">
        <ele>438.8</ele>
        <time>2026-08-30T10:46:57.000Z</time>
      </trkpt>
      <trkpt lat="47.62602" lon="6.62727">
        <ele>438.8</ele>
        <time>2026-08-30T10:46:59.000Z</time>
      </trkpt>
      <trkpt lat="47.62602" lon="6.62727">
        <ele>438.8</ele>
        <time>2026-08-30T10:47:01.000Z</time>
      </trkpt>
      <trkpt lat="47.62602" lon="6.62727">
        <ele>438.8</ele>
        <time>2026-08-30T10:47:03.000Z</time>
      </trkpt>
      <trkpt lat="47.62602" lon="6.62727">
        <ele>438.8</ele>
        <time>2026-08-30T10:47:05.000Z</time>
      </trkpt>
      <trkpt lat="47.62602" lon="6.62727">
        <ele>438.8</ele>
        <time>2026-08-30T10:47:07.000Z</time>
      </trkpt>
      <trkpt lat="47.62602" lon="6.62727">
        <ele>438.8</ele>
        <time>2026-08-30T10:47:09.000Z</time>
      </trkpt>
      <trkpt lat="47.62602" lon="6.62728">
        <ele>438.8</ele>
        <time>2026-08-30T10:47:11.000Z</time>
      </trkpt>
      <trkpt lat="47.62602" lon="6.62728">
        <ele>438.8</ele>
        <time>2026-08-30T10:47:13.000Z</time>
      </trkpt>
      <trkpt lat="47.62602" lon="6.62728">
        <ele>438.8</ele>
        <time>2026-08-30T10:47:15.000Z</time>
      </trkpt>
      <trkpt lat="47.62602" lon="6.62728">
        <ele>439</ele>
        <time>2026-08-30T10:47:17.000Z</time>
      </trkpt>
      <trkpt lat="47.62603" lon="6.62728">
        <ele>439</ele>
        <time>2026-08-30T10:47:19.000Z</time>
      </trkpt>
      <trkpt lat="47.62603" lon="6.62727">
        <ele>439</ele>
        <time>2026-08-30T10:47:21.000Z</time>
      </trkpt>
      <trkpt lat="47.62603" lon="6.62727">
        <ele>439</ele>
        <time>2026-08-30T10:47:23.000Z</time>
      </trkpt>
      <trkpt lat="47.62603" lon="6.62727">
        <ele>439</ele>
        <time>2026-08-30T10:47:25.000Z</time>
      </trkpt>
      <trkpt lat="47.62603" lon="6.62727">
        <ele>439</ele>
        <time>2026-08-30T10:47:27.000Z</time>
      </trkpt>
      <trkpt lat="47.62604" lon="6.62727">
        <ele>439</ele>
        <time>2026-08-30T10:47:29.000Z</time>
      </trkpt>
      <trkpt lat="47.62604" lon="6.62727">
        <ele>439</ele>
        <time>2026-08-30T10:47:31.000Z</time>
      </trkpt>
      <trkpt lat="47.62604" lon="6.62727">
        <ele>439</ele>
        <time>2026-08-30T10:47:33.000Z</time>
      </trkpt>
      <trkpt lat="47.62604" lon="6.62727">
        <ele>439</ele>
        <time>2026-08-30T10:47:35.000Z</time>
      </trkpt>
      <trkpt lat="47.62604" lon="6.62727">
        <ele>439</ele>
        <time>2026-08-30T10:47:37.000Z</time>
      </trkpt>
      <trkpt lat="47.62604" lon="6.62727">
        <ele>439</ele>
        <time>2026-08-30T10:47:39.000Z</time>
      </trkpt>
      <trkpt lat="47.62604" lon="6.62727">
        <ele>439</ele>
        <time>2026-08-30T10:47:41.000Z</time>
      </trkpt>
      <trkpt lat="47.62604" lon="6.62727">
        <ele>439</ele>
        <time>2026-08-30T10:47:43.000Z</time>
      </trkpt>
      <trkpt lat="47.62604" lon="6.62727">
        <ele>438.8</ele>
        <time>2026-08-30T10:47:45.000Z</time>
      </trkpt>
      <trkpt lat="47.62605" lon="6.62729">
        <ele>439</ele>
        <time>2026-08-30T10:47:47.000Z</time>
      </trkpt>
      <trkpt lat="47.62606" lon="6.6273">
        <ele>438.8</ele>
        <time>2026-08-30T10:47:49.000Z</time>
      </trkpt>
      <trkpt lat="47.62607" lon="6.6273">
        <ele>438.8</ele>
        <time>2026-08-30T10:47:51.000Z</time>
      </trkpt>
      <trkpt lat="47.62608" lon="6.62729">
        <ele>439</ele>
        <time>2026-08-30T10:47:53.000Z</time>
      </trkpt>
      <trkpt lat="47.62611" lon="6.6273">
        <ele>439.2</ele>
        <time>2026-08-30T10:47:55.000Z</time>
      </trkpt>
      <trkpt lat="47.62613" lon="6.62734">
        <ele>439.4</ele>
        <time>2026-08-30T10:47:57.000Z</time>
      </trkpt>
      <trkpt lat="47.62614" lon="6.62739">
        <ele>439.6</ele>
        <time>2026-08-30T10:47:59.000Z</time>
      </trkpt>
      <trkpt lat="47.62616" lon="6.62745">
        <ele>440</ele>
        <time>2026-08-30T10:48:01.000Z</time>
      </trkpt>
      <trkpt lat="47.62618" lon="6.62753">
        <ele>440.2</ele>
        <time>2026-08-30T10:48:03.000Z</time>
      </trkpt>
      <trkpt lat="47.6262" lon="6.62763">
        <ele>440.4</ele>
        <time>2026-08-30T10:48:05.000Z</time>
      </trkpt>
      <trkpt lat="47.62622" lon="6.62772">
        <ele>440.6</ele>
        <time>2026-08-30T10:48:07.000Z</time>
      </trkpt>
      <trkpt lat="47.62623" lon="6.62782">
        <ele>440.8</ele>
        <time>2026-08-30T10:48:09.000Z</time>
      </trkpt>
      <trkpt lat="47.62625" lon="6.6279">
        <ele>441</ele>
        <time>2026-08-30T10:48:11.000Z</time>
      </trkpt>
      <trkpt lat="47.62626" lon="6.62799">
        <ele>441.2</ele>
        <time>2026-08-30T10:48:13.000Z</time>
      </trkpt>
      <trkpt lat="47.62628" lon="6.62809">
        <ele>441.4</ele>
        <time>2026-08-30T10:48:15.000Z</time>
      </trkpt>
      <trkpt lat="47.62631" lon="6.62819">
        <ele>441.4</ele>
        <time>2026-08-30T10:48:17.000Z</time>
      </trkpt>
      <trkpt lat="47.62632" lon="6.6283">
        <ele>441.6</ele>
        <time>2026-08-30T10:48:19.000Z</time>
      </trkpt>
      <trkpt lat="47.62633" lon="6.62841">
        <ele>441.6</ele>
        <time>2026-08-30T10:48:21.000Z</time>
      </trkpt>
      <trkpt lat="47.62634" lon="6.62852">
        <ele>441.6</ele>
        <time>2026-08-30T10:48:23.000Z</time>
      </trkpt>
      <trkpt lat="47.62635" lon="6.62863">
        <ele>441.6</ele>
        <time>2026-08-30T10:48:26.000Z</time>
      </trkpt>
      <trkpt lat="47.62637" lon="6.62873">
        <ele>441.6</ele>
        <time>2026-08-30T10:48:28.000Z</time>
      </trkpt>
      <trkpt lat="47.6264" lon="6.62883">
        <ele>441.8</ele>
        <time>2026-08-30T10:48:30.000Z</time>
      </trkpt>
      <trkpt lat="47.62643" lon="6.62894">
        <ele>441.8</ele>
        <time>2026-08-30T10:48:32.000Z</time>
      </trkpt>
      <trkpt lat="47.62644" lon="6.62905">
        <ele>441.8</ele>
        <time>2026-08-30T10:48:34.000Z</time>
      </trkpt>
      <trkpt lat="47.62646" lon="6.62916">
        <ele>441.6</ele>
        <time>2026-08-30T10:48:36.000Z</time>
      </trkpt>
      <trkpt lat="47.62647" lon="6.62928">
        <ele>441.8</ele>
        <time>2026-08-30T10:48:38.000Z</time>
      </trkpt>
      <trkpt lat="47.62649" lon="6.6294">
        <ele>441.8</ele>
        <time>2026-08-30T10:48:40.000Z</time>
      </trkpt>
      <trkpt lat="47.62649" lon="6.62952">
        <ele>442</ele>
        <time>2026-08-30T10:48:42.000Z</time>
      </trkpt>
      <trkpt lat="47.62651" lon="6.62963">
        <ele>442.4</ele>
        <time>2026-08-30T10:48:44.000Z</time>
      </trkpt>
      <trkpt lat="47.62651" lon="6.62972">
        <ele>442.6</ele>
        <time>2026-08-30T10:48:46.000Z</time>
      </trkpt>
      <trkpt lat="47.62652" lon="6.62981">
        <ele>443</ele>
        <time>2026-08-30T10:48:48.000Z</time>
      </trkpt>
      <trkpt lat="47.62654" lon="6.6299">
        <ele>443.4</ele>
        <time>2026-08-30T10:48:50.000Z</time>
      </trkpt>
      <trkpt lat="47.62656" lon="6.62999">
        <ele>443.8</ele>
        <time>2026-08-30T10:48:52.000Z</time>
      </trkpt>
      <trkpt lat="47.62658" lon="6.6301">
        <ele>444</ele>
        <time>2026-08-30T10:48:54.000Z</time>
      </trkpt>
      <trkpt lat="47.62659" lon="6.63019">
        <ele>444.4</ele>
        <time>2026-08-30T10:48:56.000Z</time>
      </trkpt>
      <trkpt lat="47.6266" lon="6.63029">
        <ele>444.8</ele>
        <time>2026-08-30T10:48:58.000Z</time>
      </trkpt>
      <trkpt lat="47.62661" lon="6.63037">
        <ele>445.2</ele>
        <time>2026-08-30T10:49:00.000Z</time>
      </trkpt>
      <trkpt lat="47.62662" lon="6.63044">
        <ele>445.6</ele>
        <time>2026-08-30T10:49:02.000Z</time>
      </trkpt>
      <trkpt lat="47.62663" lon="6.63051">
        <ele>446</ele>
        <time>2026-08-30T10:49:04.000Z</time>
      </trkpt>
      <trkpt lat="47.62665" lon="6.63059">
        <ele>446.4</ele>
        <time>2026-08-30T10:49:06.000Z</time>
      </trkpt>
      <trkpt lat="47.62666" lon="6.63067">
        <ele>446.8</ele>
        <time>2026-08-30T10:49:08.000Z</time>
      </trkpt>
      <trkpt lat="47.62668" lon="6.63075">
        <ele>447.2</ele>
        <time>2026-08-30T10:49:10.000Z</time>
      </trkpt>
      <trkpt lat="47.62669" lon="6.63082">
        <ele>447.6</ele>
        <time>2026-08-30T10:49:12.000Z</time>
      </trkpt>
      <trkpt lat="47.6267" lon="6.6309">
        <ele>448.2</ele>
        <time>2026-08-30T10:49:14.000Z</time>
      </trkpt>
      <trkpt lat="47.62671" lon="6.63098">
        <ele>448.6</ele>
        <time>2026-08-30T10:49:16.000Z</time>
      </trkpt>
      <trkpt lat="47.62672" lon="6.63107">
        <ele>449</ele>
        <time>2026-08-30T10:49:18.000Z</time>
      </trkpt>
      <trkpt lat="47.62673" lon="6.63115">
        <ele>449.4</ele>
        <time>2026-08-30T10:49:20.000Z</time>
      </trkpt>
      <trkpt lat="47.62673" lon="6.63122">
        <ele>449.8</ele>
        <time>2026-08-30T10:49:22.000Z</time>
      </trkpt>
      <trkpt lat="47.62674" lon="6.6313">
        <ele>450.2</ele>
        <time>2026-08-30T10:49:24.000Z</time>
      </trkpt>
      <trkpt lat="47.62675" lon="6.63136">
        <ele>450.6</ele>
        <time>2026-08-30T10:49:26.000Z</time>
      </trkpt>
      <trkpt lat="47.62676" lon="6.63142">
        <ele>451</ele>
        <time>2026-08-30T10:49:28.000Z</time>
      </trkpt>
      <trkpt lat="47.62676" lon="6.63147">
        <ele>451.2</ele>
        <time>2026-08-30T10:49:30.000Z</time>
      </trkpt>
      <trkpt lat="47.62677" lon="6.63153">
        <ele>451.6</ele>
        <time>2026-08-30T10:49:32.000Z</time>
      </trkpt>
      <trkpt lat="47.62679" lon="6.63159">
        <ele>451.8</ele>
        <time>2026-08-30T10:49:34.000Z</time>
      </trkpt>
      <trkpt lat="47.62681" lon="6.63165">
        <ele>452</ele>
        <time>2026-08-30T10:49:36.000Z</time>
      </trkpt>
      <trkpt lat="47.62683" lon="6.6317">
        <ele>452.2</ele>
        <time>2026-08-30T10:49:38.000Z</time>
      </trkpt>
      <trkpt lat="47.62684" lon="6.63176">
        <ele>452.4</ele>
        <time>2026-08-30T10:49:40.000Z</time>
      </trkpt>
      <trkpt lat="47.62685" lon="6.63181">
        <ele>452.6</ele>
        <time>2026-08-30T10:49:42.000Z</time>
      </trkpt>
      <trkpt lat="47.62685" lon="6.63185">
        <ele>452.8</ele>
        <time>2026-08-30T10:49:44.000Z</time>
      </trkpt>
      <trkpt lat="47.62686" lon="6.63189">
        <ele>453</ele>
        <time>2026-08-30T10:49:46.000Z</time>
      </trkpt>
      <trkpt lat="47.62686" lon="6.63194">
        <ele>453.2</ele>
        <time>2026-08-30T10:49:48.000Z</time>
      </trkpt>
      <trkpt lat="47.62687" lon="6.632">
        <ele>453.4</ele>
        <time>2026-08-30T10:49:50.000Z</time>
      </trkpt>
      <trkpt lat="47.62689" lon="6.63207">
        <ele>453.6</ele>
        <time>2026-08-30T10:49:52.000Z</time>
      </trkpt>
      <trkpt lat="47.62692" lon="6.63214">
        <ele>453.8</ele>
        <time>2026-08-30T10:49:55.000Z</time>
      </trkpt>
      <trkpt lat="47.62694" lon="6.63222">
        <ele>454</ele>
        <time>2026-08-30T10:49:57.000Z</time>
      </trkpt>
      <trkpt lat="47.62696" lon="6.6323">
        <ele>454.2</ele>
        <time>2026-08-30T10:49:59.000Z</time>
      </trkpt>
      <trkpt lat="47.62696" lon="6.63239">
        <ele>454.4</ele>
        <time>2026-08-30T10:50:01.000Z</time>
      </trkpt>
      <trkpt lat="47.62696" lon="6.63248">
        <ele>454.6</ele>
        <time>2026-08-30T10:50:03.000Z</time>
      </trkpt>
      <trkpt lat="47.62697" lon="6.63257">
        <ele>454.8</ele>
        <time>2026-08-30T10:50:05.000Z</time>
      </trkpt>
      <trkpt lat="47.62698" lon="6.63266">
        <ele>455</ele>
        <time>2026-08-30T10:50:07.000Z</time>
      </trkpt>
      <trkpt lat="47.62698" lon="6.63274">
        <ele>455</ele>
        <time>2026-08-30T10:50:09.000Z</time>
      </trkpt>
      <trkpt lat="47.62699" lon="6.63284">
        <ele>455.2</ele>
        <time>2026-08-30T10:50:11.000Z</time>
      </trkpt>
      <trkpt lat="47.627" lon="6.63294">
        <ele>455.2</ele>
        <time>2026-08-30T10:50:13.000Z</time>
      </trkpt>
      <trkpt lat="47.62701" lon="6.63303">
        <ele>455.4</ele>
        <time>2026-08-30T10:50:15.000Z</time>
      </trkpt>
      <trkpt lat="47.62701" lon="6.63313">
        <ele>455.4</ele>
        <time>2026-08-30T10:50:17.000Z</time>
      </trkpt>
      <trkpt lat="47.62701" lon="6.63323">
        <ele>455.4</ele>
        <time>2026-08-30T10:50:19.000Z</time>
      </trkpt>
      <trkpt lat="47.62699" lon="6.63332">
        <ele>455.6</ele>
        <time>2026-08-30T10:50:21.000Z</time>
      </trkpt>
      <trkpt lat="47.62699" lon="6.63342">
        <ele>455.8</ele>
        <time>2026-08-30T10:50:23.000Z</time>
      </trkpt>
      <trkpt lat="47.62699" lon="6.63351">
        <ele>455.8</ele>
        <time>2026-08-30T10:50:25.000Z</time>
      </trkpt>
      <trkpt lat="47.627" lon="6.6336">
        <ele>455.8</ele>
        <time>2026-08-30T10:50:27.000Z</time>
      </trkpt>
      <trkpt lat="47.62702" lon="6.6337">
        <ele>455.6</ele>
        <time>2026-08-30T10:50:29.000Z</time>
      </trkpt>
      <trkpt lat="47.62705" lon="6.63381">
        <ele>455.6</ele>
        <time>2026-08-30T10:50:31.000Z</time>
      </trkpt>
      <trkpt lat="47.62707" lon="6.63394">
        <ele>455.4</ele>
        <time>2026-08-30T10:50:33.000Z</time>
      </trkpt>
      <trkpt lat="47.62708" lon="6.63409">
        <ele>455</ele>
        <time>2026-08-30T10:50:35.000Z</time>
      </trkpt>
      <trkpt lat="47.6271" lon="6.63425">
        <ele>454.6</ele>
        <time>2026-08-30T10:50:37.000Z</time>
      </trkpt>
      <trkpt lat="47.62714" lon="6.63446">
        <ele>453.8</ele>
        <time>2026-08-30T10:50:39.000Z</time>
      </trkpt>
      <trkpt lat="47.62717" lon="6.63471">
        <ele>453.2</ele>
        <time>2026-08-30T10:50:41.000Z</time>
      </trkpt>
      <trkpt lat="47.62722" lon="6.63492">
        <ele>452.2</ele>
        <time>2026-08-30T10:50:43.000Z</time>
      </trkpt>
      <trkpt lat="47.62727" lon="6.63512">
        <ele>450.6</ele>
        <time>2026-08-30T10:50:45.000Z</time>
      </trkpt>
      <trkpt lat="47.62732" lon="6.63531">
        <ele>448.6</ele>
        <time>2026-08-30T10:50:47.000Z</time>
      </trkpt>
      <trkpt lat="47.62735" lon="6.6355">
        <ele>446.4</ele>
        <time>2026-08-30T10:50:49.000Z</time>
      </trkpt>
      <trkpt lat="47.62735" lon="6.63568">
        <ele>444.2</ele>
        <time>2026-08-30T10:50:51.000Z</time>
      </trkpt>
      <trkpt lat="47.62734" lon="6.63587">
        <ele>442</ele>
        <time>2026-08-30T10:50:53.000Z</time>
      </trkpt>
      <trkpt lat="47.62732" lon="6.63609">
        <ele>440.2</ele>
        <time>2026-08-30T10:50:55.000Z</time>
      </trkpt>
      <trkpt lat="47.62728" lon="6.63631">
        <ele>438.4</ele>
        <time>2026-08-30T10:50:57.000Z</time>
      </trkpt>
      <trkpt lat="47.62725" lon="6.6365">
        <ele>436.2</ele>
        <time>2026-08-30T10:50:59.000Z</time>
      </trkpt>
      <trkpt lat="47.62723" lon="6.63666">
        <ele>434</ele>
        <time>2026-08-30T10:51:01.000Z</time>
      </trkpt>
      <trkpt lat="47.62722" lon="6.6368">
        <ele>431.6</ele>
        <time>2026-08-30T10:51:03.000Z</time>
      </trkpt>
      <trkpt lat="47.62723" lon="6.63693">
        <ele>429.4</ele>
        <time>2026-08-30T10:51:05.000Z</time>
      </trkpt>
      <trkpt lat="47.62725" lon="6.63707">
        <ele>427</ele>
        <time>2026-08-30T10:51:07.000Z</time>
      </trkpt>
      <trkpt lat="47.62728" lon="6.63721">
        <ele>424.8</ele>
        <time>2026-08-30T10:51:09.000Z</time>
      </trkpt>
      <trkpt lat="47.62729" lon="6.63738">
        <ele>422.6</ele>
        <time>2026-08-30T10:51:11.000Z</time>
      </trkpt>
      <trkpt lat="47.62727" lon="6.63757">
        <ele>420.6</ele>
        <time>2026-08-30T10:51:13.000Z</time>
      </trkpt>
      <trkpt lat="47.62723" lon="6.63777">
        <ele>418.8</ele>
        <time>2026-08-30T10:51:15.000Z</time>
      </trkpt>
      <trkpt lat="47.62719" lon="6.63796">
        <ele>417</ele>
        <time>2026-08-30T10:51:17.000Z</time>
      </trkpt>
      <trkpt lat="47.62716" lon="6.63812">
        <ele>415.4</ele>
        <time>2026-08-30T10:51:19.000Z</time>
      </trkpt>
      <trkpt lat="47.62715" lon="6.63825">
        <ele>413.6</ele>
        <time>2026-08-30T10:51:21.000Z</time>
      </trkpt>
      <trkpt lat="47.62714" lon="6.63839">
        <ele>411.6</ele>
        <time>2026-08-30T10:51:23.000Z</time>
      </trkpt>
      <trkpt lat="47.62714" lon="6.63855">
        <ele>409.6</ele>
        <time>2026-08-30T10:51:25.000Z</time>
      </trkpt>
      <trkpt lat="47.62716" lon="6.63872">
        <ele>407.4</ele>
        <time>2026-08-30T10:51:27.000Z</time>
      </trkpt>
      <trkpt lat="47.62717" lon="6.6389">
        <ele>405.2</ele>
        <time>2026-08-30T10:51:30.000Z</time>
      </trkpt>
      <trkpt lat="47.62717" lon="6.63908">
        <ele>403.2</ele>
        <time>2026-08-30T10:51:32.000Z</time>
      </trkpt>
      <trkpt lat="47.62717" lon="6.63926">
        <ele>401.4</ele>
        <time>2026-08-30T10:51:34.000Z</time>
      </trkpt>
      <trkpt lat="47.62719" lon="6.63945">
        <ele>399.4</ele>
        <time>2026-08-30T10:51:36.000Z</time>
      </trkpt>
      <trkpt lat="47.62721" lon="6.63965">
        <ele>397.6</ele>
        <time>2026-08-30T10:51:38.000Z</time>
      </trkpt>
      <trkpt lat="47.62723" lon="6.63987">
        <ele>395.8</ele>
        <time>2026-08-30T10:51:40.000Z</time>
      </trkpt>
      <trkpt lat="47.62725" lon="6.64013">
        <ele>394</ele>
        <time>2026-08-30T10:51:42.000Z</time>
      </trkpt>
      <trkpt lat="47.62725" lon="6.6404">
        <ele>392.2</ele>
        <time>2026-08-30T10:51:44.000Z</time>
      </trkpt>
      <trkpt lat="47.62726" lon="6.64068">
        <ele>390.4</ele>
        <time>2026-08-30T10:51:46.000Z</time>
      </trkpt>
      <trkpt lat="47.62727" lon="6.64094">
        <ele>388.8</ele>
        <time>2026-08-30T10:51:48.000Z</time>
      </trkpt>
      <trkpt lat="47.6273" lon="6.64119">
        <ele>387</ele>
        <time>2026-08-30T10:51:50.000Z</time>
      </trkpt>
      <trkpt lat="47.62736" lon="6.64144">
        <ele>384.6</ele>
        <time>2026-08-30T10:51:52.000Z</time>
      </trkpt>
      <trkpt lat="47.6274" lon="6.64169">
        <ele>382.8</ele>
        <time>2026-08-30T10:51:54.000Z</time>
      </trkpt>
      <trkpt lat="47.62741" lon="6.64194">
        <ele>381.6</ele>
        <time>2026-08-30T10:51:56.000Z</time>
      </trkpt>
      <trkpt lat="47.62739" lon="6.64216">
        <ele>381</ele>
        <time>2026-08-30T10:51:58.000Z</time>
      </trkpt>
      <trkpt lat="47.62736" lon="6.64236">
        <ele>380.6</ele>
        <time>2026-08-30T10:52:00.000Z</time>
      </trkpt>
      <trkpt lat="47.62734" lon="6.64256">
        <ele>379.8</ele>
        <time>2026-08-30T10:52:02.000Z</time>
      </trkpt>
      <trkpt lat="47.62731" lon="6.64285">
        <ele>379</ele>
        <time>2026-08-30T10:52:04.000Z</time>
      </trkpt>
      <trkpt lat="47.62726" lon="6.64303">
        <ele>378</ele>
        <time>2026-08-30T10:52:06.000Z</time>
      </trkpt>
      <trkpt lat="47.62718" lon="6.64307">
        <ele>376.8</ele>
        <time>2026-08-30T10:52:08.000Z</time>
      </trkpt>
      <trkpt lat="47.6271" lon="6.64302">
        <ele>376</ele>
        <time>2026-08-30T10:52:10.000Z</time>
      </trkpt>
      <trkpt lat="47.62702" lon="6.64298">
        <ele>375.4</ele>
        <time>2026-08-30T10:52:12.000Z</time>
      </trkpt>
      <trkpt lat="47.62694" lon="6.64299">
        <ele>375</ele>
        <time>2026-08-30T10:52:14.000Z</time>
      </trkpt>
      <trkpt lat="47.62687" lon="6.64303">
        <ele>375</ele>
        <time>2026-08-30T10:52:16.000Z</time>
      </trkpt>
      <trkpt lat="47.6268" lon="6.64309">
        <ele>375</ele>
        <time>2026-08-30T10:52:18.000Z</time>
      </trkpt>
      <trkpt lat="47.62672" lon="6.64317">
        <ele>375</ele>
        <time>2026-08-30T10:52:20.000Z</time>
      </trkpt>
      <trkpt lat="47.62665" lon="6.64324">
        <ele>375</ele>
        <time>2026-08-30T10:52:22.000Z</time>
      </trkpt>
      <trkpt lat="47.62658" lon="6.64333">
        <ele>374.8</ele>
        <time>2026-08-30T10:52:24.000Z</time>
      </trkpt>
      <trkpt lat="47.62653" lon="6.64346">
        <ele>374.6</ele>
        <time>2026-08-30T10:52:26.000Z</time>
      </trkpt>
      <trkpt lat="47.62653" lon="6.64361">
        <ele>374.2</ele>
        <time>2026-08-30T10:52:28.000Z</time>
      </trkpt>
      <trkpt lat="47.62653" lon="6.64377">
        <ele>373.6</ele>
        <time>2026-08-30T10:52:30.000Z</time>
      </trkpt>
      <trkpt lat="47.62651" lon="6.64393">
        <ele>373</ele>
        <time>2026-08-30T10:52:32.000Z</time>
      </trkpt>
      <trkpt lat="47.62647" lon="6.64411">
        <ele>372.4</ele>
        <time>2026-08-30T10:52:34.000Z</time>
      </trkpt>
      <trkpt lat="47.62643" lon="6.64429">
        <ele>371.6</ele>
        <time>2026-08-30T10:52:36.000Z</time>
      </trkpt>
      <trkpt lat="47.62639" lon="6.64449">
        <ele>370.8</ele>
        <time>2026-08-30T10:52:38.000Z</time>
      </trkpt>
      <trkpt lat="47.62634" lon="6.6447">
        <ele>369.6</ele>
        <time>2026-08-30T10:52:40.000Z</time>
      </trkpt>
      <trkpt lat="47.6263" lon="6.64493">
        <ele>368.4</ele>
        <time>2026-08-30T10:52:42.000Z</time>
      </trkpt>
      <trkpt lat="47.62626" lon="6.64514">
        <ele>367</ele>
        <time>2026-08-30T10:52:44.000Z</time>
      </trkpt>
      <trkpt lat="47.62617" lon="6.64532">
        <ele>365.6</ele>
        <time>2026-08-30T10:52:46.000Z</time>
      </trkpt>
      <trkpt lat="47.62603" lon="6.64549">
        <ele>364</ele>
        <time>2026-08-30T10:52:48.000Z</time>
      </trkpt>
      <trkpt lat="47.62586" lon="6.64567">
        <ele>361.8</ele>
        <time>2026-08-30T10:52:50.000Z</time>
      </trkpt>
      <trkpt lat="47.62568" lon="6.64584">
        <ele>359.8</ele>
        <time>2026-08-30T10:52:52.000Z</time>
      </trkpt>
      <trkpt lat="47.62549" lon="6.64596">
        <ele>358.6</ele>
        <time>2026-08-30T10:52:54.000Z</time>
      </trkpt>
      <trkpt lat="47.62531" lon="6.64604">
        <ele>357.4</ele>
        <time>2026-08-30T10:52:56.000Z</time>
      </trkpt>
      <trkpt lat="47.62516" lon="6.64612">
        <ele>356.4</ele>
        <time>2026-08-30T10:52:58.000Z</time>
      </trkpt>
      <trkpt lat="47.62507" lon="6.6462">
        <ele>355.4</ele>
        <time>2026-08-30T10:53:00.000Z</time>
      </trkpt>
      <trkpt lat="47.62503" lon="6.64625">
        <ele>355</ele>
        <time>2026-08-30T10:53:02.000Z</time>
      </trkpt>
      <trkpt lat="47.62498" lon="6.64627">
        <ele>354.8</ele>
        <time>2026-08-30T10:53:04.000Z</time>
      </trkpt>
      <trkpt lat="47.62491" lon="6.64629">
        <ele>354.6</ele>
        <time>2026-08-30T10:53:06.000Z</time>
      </trkpt>
      <trkpt lat="47.62483" lon="6.64633">
        <ele>354.4</ele>
        <time>2026-08-30T10:53:08.000Z</time>
      </trkpt>
      <trkpt lat="47.62475" lon="6.6464">
        <ele>354.4</ele>
        <time>2026-08-30T10:53:11.000Z</time>
      </trkpt>
      <trkpt lat="47.62468" lon="6.64648">
        <ele>354.4</ele>
        <time>2026-08-30T10:53:13.000Z</time>
      </trkpt>
      <trkpt lat="47.62461" lon="6.64654">
        <ele>354.4</ele>
        <time>2026-08-30T10:53:15.000Z</time>
      </trkpt>
      <trkpt lat="47.62454" lon="6.64658">
        <ele>354.6</ele>
        <time>2026-08-30T10:53:17.000Z</time>
      </trkpt>
      <trkpt lat="47.62446" lon="6.64661">
        <ele>354.6</ele>
        <time>2026-08-30T10:53:19.000Z</time>
      </trkpt>
      <trkpt lat="47.62439" lon="6.64668">
        <ele>354.4</ele>
        <time>2026-08-30T10:53:21.000Z</time>
      </trkpt>
      <trkpt lat="47.62434" lon="6.64679">
        <ele>354.4</ele>
        <time>2026-08-30T10:53:23.000Z</time>
      </trkpt>
      <trkpt lat="47.62434" lon="6.64693">
        <ele>354.2</ele>
        <time>2026-08-30T10:53:25.000Z</time>
      </trkpt>
      <trkpt lat="47.62437" lon="6.64706">
        <ele>354.4</ele>
        <time>2026-08-30T10:53:27.000Z</time>
      </trkpt>
      <trkpt lat="47.62444" lon="6.64715">
        <ele>354.6</ele>
        <time>2026-08-30T10:53:29.000Z</time>
      </trkpt>
      <trkpt lat="47.62453" lon="6.6472">
        <ele>354.8</ele>
        <time>2026-08-30T10:53:31.000Z</time>
      </trkpt>
      <trkpt lat="47.62462" lon="6.64722">
        <ele>355</ele>
        <time>2026-08-30T10:53:33.000Z</time>
      </trkpt>
      <trkpt lat="47.6247" lon="6.64726">
        <ele>355.4</ele>
        <time>2026-08-30T10:53:35.000Z</time>
      </trkpt>
      <trkpt lat="47.62477" lon="6.64735">
        <ele>355.6</ele>
        <time>2026-08-30T10:53:37.000Z</time>
      </trkpt>
      <trkpt lat="47.62483" lon="6.64745">
        <ele>355.8</ele>
        <time>2026-08-30T10:53:39.000Z</time>
      </trkpt>
      <trkpt lat="47.62488" lon="6.64755">
        <ele>356</ele>
        <time>2026-08-30T10:53:41.000Z</time>
      </trkpt>
      <trkpt lat="47.62494" lon="6.64765">
        <ele>356</ele>
        <time>2026-08-30T10:53:43.000Z</time>
      </trkpt>
      <trkpt lat="47.62499" lon="6.64775">
        <ele>356</ele>
        <time>2026-08-30T10:53:45.000Z</time>
      </trkpt>
      <trkpt lat="47.62506" lon="6.64789">
        <ele>356</ele>
        <time>2026-08-30T10:53:47.000Z</time>
      </trkpt>
      <trkpt lat="47.62512" lon="6.648">
        <ele>356.2</ele>
        <time>2026-08-30T10:53:49.000Z</time>
      </trkpt>
      <trkpt lat="47.62517" lon="6.64807">
        <ele>356.4</ele>
        <time>2026-08-30T10:53:51.000Z</time>
      </trkpt>
      <trkpt lat="47.6252" lon="6.64814">
        <ele>356.6</ele>
        <time>2026-08-30T10:53:53.000Z</time>
      </trkpt>
      <trkpt lat="47.62524" lon="6.64823">
        <ele>356.8</ele>
        <time>2026-08-30T10:53:55.000Z</time>
      </trkpt>
      <trkpt lat="47.62529" lon="6.64832">
        <ele>357</ele>
        <time>2026-08-30T10:53:57.000Z</time>
      </trkpt>
      <trkpt lat="47.62534" lon="6.64841">
        <ele>357.4</ele>
        <time>2026-08-30T10:53:59.000Z</time>
      </trkpt>
      <trkpt lat="47.62539" lon="6.64849">
        <ele>357.6</ele>
        <time>2026-08-30T10:54:01.000Z</time>
      </trkpt>
      <trkpt lat="47.62543" lon="6.64859">
        <ele>358</ele>
        <time>2026-08-30T10:54:03.000Z</time>
      </trkpt>
      <trkpt lat="47.62546" lon="6.64869">
        <ele>358.2</ele>
        <time>2026-08-30T10:54:05.000Z</time>
      </trkpt>
      <trkpt lat="47.62547" lon="6.64881">
        <ele>358.4</ele>
        <time>2026-08-30T10:54:07.000Z</time>
      </trkpt>
      <trkpt lat="47.62547" lon="6.64893">
        <ele>358.6</ele>
        <time>2026-08-30T10:54:09.000Z</time>
      </trkpt>
      <trkpt lat="47.62549" lon="6.64904">
        <ele>358.8</ele>
        <time>2026-08-30T10:54:11.000Z</time>
      </trkpt>
      <trkpt lat="47.62553" lon="6.64913">
        <ele>359</ele>
        <time>2026-08-30T10:54:13.000Z</time>
      </trkpt>
      <trkpt lat="47.6256" lon="6.64918">
        <ele>359</ele>
        <time>2026-08-30T10:54:15.000Z</time>
      </trkpt>
      <trkpt lat="47.62569" lon="6.6492">
        <ele>359.2</ele>
        <time>2026-08-30T10:54:17.000Z</time>
      </trkpt>
      <trkpt lat="47.62578" lon="6.64918">
        <ele>359.4</ele>
        <time>2026-08-30T10:54:19.000Z</time>
      </trkpt>
      <trkpt lat="47.62586" lon="6.64917">
        <ele>359.6</ele>
        <time>2026-08-30T10:54:21.000Z</time>
      </trkpt>
      <trkpt lat="47.62594" lon="6.6492">
        <ele>359.6</ele>
        <time>2026-08-30T10:54:23.000Z</time>
      </trkpt>
      <trkpt lat="47.62602" lon="6.64923">
        <ele>359.6</ele>
        <time>2026-08-30T10:54:25.000Z</time>
      </trkpt>
      <trkpt lat="47.62611" lon="6.64924">
        <ele>359.6</ele>
        <time>2026-08-30T10:54:27.000Z</time>
      </trkpt>
      <trkpt lat="47.62619" lon="6.64923">
        <ele>359.8</ele>
        <time>2026-08-30T10:54:29.000Z</time>
      </trkpt>
      <trkpt lat="47.62626" lon="6.6492">
        <ele>360.2</ele>
        <time>2026-08-30T10:54:31.000Z</time>
      </trkpt>
      <trkpt lat="47.62631" lon="6.64916">
        <ele>360.6</ele>
        <time>2026-08-30T10:54:33.000Z</time>
      </trkpt>
      <trkpt lat="47.62635" lon="6.64912">
        <ele>361.2</ele>
        <time>2026-08-30T10:54:35.000Z</time>
      </trkpt>
      <trkpt lat="47.6264" lon="6.6491">
        <ele>361.8</ele>
        <time>2026-08-30T10:54:38.000Z</time>
      </trkpt>
      <trkpt lat="47.62644" lon="6.64907">
        <ele>362.2</ele>
        <time>2026-08-30T10:54:40.000Z</time>
      </trkpt>
      <trkpt lat="47.62649" lon="6.64903">
        <ele>362.8</ele>
        <time>2026-08-30T10:54:42.000Z</time>
      </trkpt>
      <trkpt lat="47.62653" lon="6.64899">
        <ele>363.4</ele>
        <time>2026-08-30T10:54:44.000Z</time>
      </trkpt>
      <trkpt lat="47.62657" lon="6.64896">
        <ele>363.8</ele>
        <time>2026-08-30T10:54:46.000Z</time>
      </trkpt>
      <trkpt lat="47.62662" lon="6.64893">
        <ele>364.2</ele>
        <time>2026-08-30T10:54:48.000Z</time>
      </trkpt>
      <trkpt lat="47.62667" lon="6.6489">
        <ele>364.6</ele>
        <time>2026-08-30T10:54:50.000Z</time>
      </trkpt>
      <trkpt lat="47.62671" lon="6.64886">
        <ele>365</ele>
        <time>2026-08-30T10:54:52.000Z</time>
      </trkpt>
      <trkpt lat="47.62675" lon="6.64881">
        <ele>365.4</ele>
        <time>2026-08-30T10:54:54.000Z</time>
      </trkpt>
      <trkpt lat="47.6268" lon="6.64878">
        <ele>365.6</ele>
        <time>2026-08-30T10:54:56.000Z</time>
      </trkpt>
      <trkpt lat="47.62684" lon="6.64874">
        <ele>365.8</ele>
        <time>2026-08-30T10:54:58.000Z</time>
      </trkpt>
      <trkpt lat="47.62689" lon="6.64873">
        <ele>366</ele>
        <time>2026-08-30T10:55:00.000Z</time>
      </trkpt>
      <trkpt lat="47.62692" lon="6.64878">
        <ele>366.4</ele>
        <time>2026-08-30T10:55:02.000Z</time>
      </trkpt>
      <trkpt lat="47.62692" lon="6.64884">
        <ele>366.8</ele>
        <time>2026-08-30T10:55:04.000Z</time>
      </trkpt>
      <trkpt lat="47.62692" lon="6.64889">
        <ele>367.4</ele>
        <time>2026-08-30T10:55:06.000Z</time>
      </trkpt>
      <trkpt lat="47.62691" lon="6.64893">
        <ele>368</ele>
        <time>2026-08-30T10:55:08.000Z</time>
      </trkpt>
      <trkpt lat="47.6269" lon="6.64897">
        <ele>368.4</ele>
        <time>2026-08-30T10:55:10.000Z</time>
      </trkpt>
      <trkpt lat="47.62689" lon="6.649">
        <ele>368.8</ele>
        <time>2026-08-30T10:55:12.000Z</time>
      </trkpt>
      <trkpt lat="47.62689" lon="6.64904">
        <ele>369.2</ele>
        <time>2026-08-30T10:55:14.000Z</time>
      </trkpt>
      <trkpt lat="47.62688" lon="6.64908">
        <ele>369.4</ele>
        <time>2026-08-30T10:55:16.000Z</time>
      </trkpt>
      <trkpt lat="47.62688" lon="6.64913">
        <ele>369.8</ele>
        <time>2026-08-30T10:55:18.000Z</time>
      </trkpt>
      <trkpt lat="47.62687" lon="6.64918">
        <ele>370</ele>
        <time>2026-08-30T10:55:20.000Z</time>
      </trkpt>
      <trkpt lat="47.62687" lon="6.64923">
        <ele>370.4</ele>
        <time>2026-08-30T10:55:22.000Z</time>
      </trkpt>
      <trkpt lat="47.62687" lon="6.64927">
        <ele>370.6</ele>
        <time>2026-08-30T10:55:24.000Z</time>
      </trkpt>
      <trkpt lat="47.62687" lon="6.64931">
        <ele>371</ele>
        <time>2026-08-30T10:55:26.000Z</time>
      </trkpt>
      <trkpt lat="47.62687" lon="6.64935">
        <ele>371.4</ele>
        <time>2026-08-30T10:55:28.000Z</time>
      </trkpt>
      <trkpt lat="47.62687" lon="6.64939">
        <ele>371.6</ele>
        <time>2026-08-30T10:55:30.000Z</time>
      </trkpt>
      <trkpt lat="47.62687" lon="6.64944">
        <ele>372</ele>
        <time>2026-08-30T10:55:32.000Z</time>
      </trkpt>
      <trkpt lat="47.62687" lon="6.64948">
        <ele>372.2</ele>
        <time>2026-08-30T10:55:34.000Z</time>
      </trkpt>
      <trkpt lat="47.62687" lon="6.64952">
        <ele>372.6</ele>
        <time>2026-08-30T10:55:36.000Z</time>
      </trkpt>
      <trkpt lat="47.62687" lon="6.64956">
        <ele>373</ele>
        <time>2026-08-30T10:55:38.000Z</time>
      </trkpt>
      <trkpt lat="47.62687" lon="6.6496">
        <ele>373.4</ele>
        <time>2026-08-30T10:55:40.000Z</time>
      </trkpt>
      <trkpt lat="47.62688" lon="6.64964">
        <ele>373.8</ele>
        <time>2026-08-30T10:55:42.000Z</time>
      </trkpt>
      <trkpt lat="47.62688" lon="6.64967">
        <ele>374</ele>
        <time>2026-08-30T10:55:44.000Z</time>
      </trkpt>
      <trkpt lat="47.62688" lon="6.64971">
        <ele>374.4</ele>
        <time>2026-08-30T10:55:46.000Z</time>
      </trkpt>
      <trkpt lat="47.62688" lon="6.64975">
        <ele>374.8</ele>
        <time>2026-08-30T10:55:48.000Z</time>
      </trkpt>
      <trkpt lat="47.62689" lon="6.64979">
        <ele>375</ele>
        <time>2026-08-30T10:55:50.000Z</time>
      </trkpt>
      <trkpt lat="47.62689" lon="6.64983">
        <ele>375.2</ele>
        <time>2026-08-30T10:55:52.000Z</time>
      </trkpt>
      <trkpt lat="47.6269" lon="6.64987">
        <ele>375.6</ele>
        <time>2026-08-30T10:55:54.000Z</time>
      </trkpt>
      <trkpt lat="47.62691" lon="6.64991">
        <ele>375.8</ele>
        <time>2026-08-30T10:55:56.000Z</time>
      </trkpt>
      <trkpt lat="47.62692" lon="6.64994">
        <ele>376</ele>
        <time>2026-08-30T10:55:58.000Z</time>
      </trkpt>
      <trkpt lat="47.62693" lon="6.64998">
        <ele>376.4</ele>
        <time>2026-08-30T10:56:00.000Z</time>
      </trkpt>
      <trkpt lat="47.62694" lon="6.65002">
        <ele>376.6</ele>
        <time>2026-08-30T10:56:02.000Z</time>
      </trkpt>
      <trkpt lat="47.62695" lon="6.65005">
        <ele>377</ele>
        <time>2026-08-30T10:56:04.000Z</time>
      </trkpt>
      <trkpt lat="47.62697" lon="6.65008">
        <ele>377.4</ele>
        <time>2026-08-30T10:56:06.000Z</time>
      </trkpt>
      <trkpt lat="47.62698" lon="6.65012">
        <ele>377.8</ele>
        <time>2026-08-30T10:56:08.000Z</time>
      </trkpt>
      <trkpt lat="47.62699" lon="6.65015">
        <ele>378.2</ele>
        <time>2026-08-30T10:56:10.000Z</time>
      </trkpt>
      <trkpt lat="47.627" lon="6.65018">
        <ele>378.6</ele>
        <time>2026-08-30T10:56:12.000Z</time>
      </trkpt>
      <trkpt lat="47.62701" lon="6.65021">
        <ele>379</ele>
        <time>2026-08-30T10:56:14.000Z</time>
      </trkpt>
      <trkpt lat="47.62702" lon="6.65025">
        <ele>379.4</ele>
        <time>2026-08-30T10:56:16.000Z</time>
      </trkpt>
      <trkpt lat="47.62702" lon="6.65029">
        <ele>379.6</ele>
        <time>2026-08-30T10:56:18.000Z</time>
      </trkpt>
      <trkpt lat="47.62703" lon="6.65033">
        <ele>380</ele>
        <time>2026-08-30T10:56:20.000Z</time>
      </trkpt>
      <trkpt lat="47.62703" lon="6.65037">
        <ele>380.4</ele>
        <time>2026-08-30T10:56:22.000Z</time>
      </trkpt>
      <trkpt lat="47.62703" lon="6.65041">
        <ele>380.8</ele>
        <time>2026-08-30T10:56:24.000Z</time>
      </trkpt>
      <trkpt lat="47.62704" lon="6.65045">
        <ele>381</ele>
        <time>2026-08-30T10:56:26.000Z</time>
      </trkpt>
      <trkpt lat="47.62704" lon="6.65049">
        <ele>381.2</ele>
        <time>2026-08-30T10:56:28.000Z</time>
      </trkpt>
      <trkpt lat="47.62706" lon="6.65052">
        <ele>381.6</ele>
        <time>2026-08-30T10:56:30.000Z</time>
      </trkpt>
      <trkpt lat="47.62707" lon="6.65056">
        <ele>381.8</ele>
        <time>2026-08-30T10:56:33.000Z</time>
      </trkpt>
      <trkpt lat="47.62708" lon="6.65059">
        <ele>382.2</ele>
        <time>2026-08-30T10:56:35.000Z</time>
      </trkpt>
      <trkpt lat="47.6271" lon="6.65062">
        <ele>382.4</ele>
        <time>2026-08-30T10:56:37.000Z</time>
      </trkpt>
      <trkpt lat="47.62711" lon="6.65065">
        <ele>382.6</ele>
        <time>2026-08-30T10:56:39.000Z</time>
      </trkpt>
      <trkpt lat="47.62712" lon="6.65069">
        <ele>383</ele>
        <time>2026-08-30T10:56:41.000Z</time>
      </trkpt>
      <trkpt lat="47.62714" lon="6.65072">
        <ele>383.4</ele>
        <time>2026-08-30T10:56:43.000Z</time>
      </trkpt>
      <trkpt lat="47.62715" lon="6.65075">
        <ele>383.8</ele>
        <time>2026-08-30T10:56:45.000Z</time>
      </trkpt>
      <trkpt lat="47.62716" lon="6.65079">
        <ele>384</ele>
        <time>2026-08-30T10:56:47.000Z</time>
      </trkpt>
      <trkpt lat="47.62717" lon="6.65083">
        <ele>384.4</ele>
        <time>2026-08-30T10:56:49.000Z</time>
      </trkpt>
      <trkpt lat="47.62718" lon="6.65087">
        <ele>384.6</ele>
        <time>2026-08-30T10:56:51.000Z</time>
      </trkpt>
      <trkpt lat="47.6272" lon="6.65091">
        <ele>384.8</ele>
        <time>2026-08-30T10:56:53.000Z</time>
      </trkpt>
      <trkpt lat="47.62722" lon="6.65096">
        <ele>385</ele>
        <time>2026-08-30T10:56:55.000Z</time>
      </trkpt>
      <trkpt lat="47.62723" lon="6.651">
        <ele>385.4</ele>
        <time>2026-08-30T10:56:57.000Z</time>
      </trkpt>
      <trkpt lat="47.62725" lon="6.65104">
        <ele>385.6</ele>
        <time>2026-08-30T10:56:59.000Z</time>
      </trkpt>
      <trkpt lat="47.62726" lon="6.65108">
        <ele>385.8</ele>
        <time>2026-08-30T10:57:01.000Z</time>
      </trkpt>
      <trkpt lat="47.62727" lon="6.65113">
        <ele>386</ele>
        <time>2026-08-30T10:57:03.000Z</time>
      </trkpt>
      <trkpt lat="47.62729" lon="6.65118">
        <ele>386.4</ele>
        <time>2026-08-30T10:57:05.000Z</time>
      </trkpt>
      <trkpt lat="47.6273" lon="6.65122">
        <ele>386.6</ele>
        <time>2026-08-30T10:57:07.000Z</time>
      </trkpt>
      <trkpt lat="47.62732" lon="6.65127">
        <ele>386.8</ele>
        <time>2026-08-30T10:57:09.000Z</time>
      </trkpt>
      <trkpt lat="47.62734" lon="6.65132">
        <ele>387</ele>
        <time>2026-08-30T10:57:11.000Z</time>
      </trkpt>
      <trkpt lat="47.62736" lon="6.65137">
        <ele>387.2</ele>
        <time>2026-08-30T10:57:13.000Z</time>
      </trkpt>
      <trkpt lat="47.62737" lon="6.65142">
        <ele>387.4</ele>
        <time>2026-08-30T10:57:15.000Z</time>
      </trkpt>
      <trkpt lat="47.62739" lon="6.65148">
        <ele>387.6</ele>
        <time>2026-08-30T10:57:17.000Z</time>
      </trkpt>
      <trkpt lat="47.6274" lon="6.65154">
        <ele>388</ele>
        <time>2026-08-30T10:57:19.000Z</time>
      </trkpt>
      <trkpt lat="47.62739" lon="6.65162">
        <ele>388.2</ele>
        <time>2026-08-30T10:57:21.000Z</time>
      </trkpt>
      <trkpt lat="47.62739" lon="6.65169">
        <ele>388.4</ele>
        <time>2026-08-30T10:57:23.000Z</time>
      </trkpt>
      <trkpt lat="47.6274" lon="6.65175">
        <ele>388.6</ele>
        <time>2026-08-30T10:57:25.000Z</time>
      </trkpt>
      <trkpt lat="47.6274" lon="6.6518">
        <ele>389</ele>
        <time>2026-08-30T10:57:27.000Z</time>
      </trkpt>
      <trkpt lat="47.62741" lon="6.65186">
        <ele>389.2</ele>
        <time>2026-08-30T10:57:29.000Z</time>
      </trkpt>
      <trkpt lat="47.62742" lon="6.65191">
        <ele>389.4</ele>
        <time>2026-08-30T10:57:31.000Z</time>
      </trkpt>
      <trkpt lat="47.62742" lon="6.65195">
        <ele>389.8</ele>
        <time>2026-08-30T10:57:33.000Z</time>
      </trkpt>
      <trkpt lat="47.62742" lon="6.652">
        <ele>390.2</ele>
        <time>2026-08-30T10:57:35.000Z</time>
      </trkpt>
      <trkpt lat="47.62742" lon="6.65206">
        <ele>390.4</ele>
        <time>2026-08-30T10:57:37.000Z</time>
      </trkpt>
      <trkpt lat="47.62742" lon="6.65211">
        <ele>390.8</ele>
        <time>2026-08-30T10:57:39.000Z</time>
      </trkpt>
      <trkpt lat="47.62742" lon="6.65217">
        <ele>391.2</ele>
        <time>2026-08-30T10:57:41.000Z</time>
      </trkpt>
      <trkpt lat="47.62742" lon="6.65222">
        <ele>391.4</ele>
        <time>2026-08-30T10:57:43.000Z</time>
      </trkpt>
      <trkpt lat="47.62742" lon="6.65227">
        <ele>391.8</ele>
        <time>2026-08-30T10:57:45.000Z</time>
      </trkpt>
      <trkpt lat="47.62742" lon="6.65232">
        <ele>392.2</ele>
        <time>2026-08-30T10:57:47.000Z</time>
      </trkpt>
      <trkpt lat="47.62742" lon="6.65236">
        <ele>392.4</ele>
        <time>2026-08-30T10:57:49.000Z</time>
      </trkpt>
      <trkpt lat="47.62742" lon="6.65239">
        <ele>392.8</ele>
        <time>2026-08-30T10:57:51.000Z</time>
      </trkpt>
      <trkpt lat="47.62741" lon="6.65243">
        <ele>393</ele>
        <time>2026-08-30T10:57:53.000Z</time>
      </trkpt>
      <trkpt lat="47.6274" lon="6.65248">
        <ele>393.4</ele>
        <time>2026-08-30T10:57:55.000Z</time>
      </trkpt>
      <trkpt lat="47.62739" lon="6.65252">
        <ele>393.6</ele>
        <time>2026-08-30T10:57:57.000Z</time>
      </trkpt>
      <trkpt lat="47.62739" lon="6.65256">
        <ele>394</ele>
        <time>2026-08-30T10:57:59.000Z</time>
      </trkpt>
      <trkpt lat="47.62739" lon="6.6526">
        <ele>394.4</ele>
        <time>2026-08-30T10:58:01.000Z</time>
      </trkpt>
      <trkpt lat="47.62739" lon="6.65264">
        <ele>394.8</ele>
        <time>2026-08-30T10:58:03.000Z</time>
      </trkpt>
      <trkpt lat="47.62739" lon="6.65268">
        <ele>395.2</ele>
        <time>2026-08-30T10:58:05.000Z</time>
      </trkpt>
      <trkpt lat="47.62739" lon="6.65272">
        <ele>395.6</ele>
        <time>2026-08-30T10:58:08.000Z</time>
      </trkpt>
      <trkpt lat="47.62738" lon="6.65276">
        <ele>396</ele>
        <time>2026-08-30T10:58:10.000Z</time>
      </trkpt>
      <trkpt lat="47.62738" lon="6.65279">
        <ele>396.4</ele>
        <time>2026-08-30T10:58:12.000Z</time>
      </trkpt>
      <trkpt lat="47.62739" lon="6.65282">
        <ele>396.8</ele>
        <time>2026-08-30T10:58:14.000Z</time>
      </trkpt>
      <trkpt lat="47.62739" lon="6.65286">
        <ele>397.4</ele>
        <time>2026-08-30T10:58:16.000Z</time>
      </trkpt>
      <trkpt lat="47.62739" lon="6.65289">
        <ele>397.8</ele>
        <time>2026-08-30T10:58:18.000Z</time>
      </trkpt>
      <trkpt lat="47.62739" lon="6.65293">
        <ele>398.4</ele>
        <time>2026-08-30T10:58:20.000Z</time>
      </trkpt>
      <trkpt lat="47.62738" lon="6.65296">
        <ele>399</ele>
        <time>2026-08-30T10:58:22.000Z</time>
      </trkpt>
      <trkpt lat="47.62738" lon="6.653">
        <ele>399.4</ele>
        <time>2026-08-30T10:58:24.000Z</time>
      </trkpt>
      <trkpt lat="47.62738" lon="6.65303">
        <ele>400</ele>
        <time>2026-08-30T10:58:26.000Z</time>
      </trkpt>
      <trkpt lat="47.62737" lon="6.65307">
        <ele>400.4</ele>
        <time>2026-08-30T10:58:28.000Z</time>
      </trkpt>
      <trkpt lat="47.62738" lon="6.65311">
        <ele>400.8</ele>
        <time>2026-08-30T10:58:30.000Z</time>
      </trkpt>
      <trkpt lat="47.62738" lon="6.65315">
        <ele>401.2</ele>
        <time>2026-08-30T10:58:32.000Z</time>
      </trkpt>
      <trkpt lat="47.62738" lon="6.65319">
        <ele>401.6</ele>
        <time>2026-08-30T10:58:34.000Z</time>
      </trkpt>
      <trkpt lat="47.62739" lon="6.65322">
        <ele>401.8</ele>
        <time>2026-08-30T10:58:36.000Z</time>
      </trkpt>
      <trkpt lat="47.62739" lon="6.65326">
        <ele>402.2</ele>
        <time>2026-08-30T10:58:38.000Z</time>
      </trkpt>
      <trkpt lat="47.62739" lon="6.6533">
        <ele>402.4</ele>
        <time>2026-08-30T10:58:40.000Z</time>
      </trkpt>
      <trkpt lat="47.6274" lon="6.65333">
        <ele>402.6</ele>
        <time>2026-08-30T10:58:42.000Z</time>
      </trkpt>
      <trkpt lat="47.62741" lon="6.65338">
        <ele>402.8</ele>
        <time>2026-08-30T10:58:44.000Z</time>
      </trkpt>
      <trkpt lat="47.62742" lon="6.65343">
        <ele>402.8</ele>
        <time>2026-08-30T10:58:46.000Z</time>
      </trkpt>
      <trkpt lat="47.62744" lon="6.65348">
        <ele>403</ele>
        <time>2026-08-30T10:58:48.000Z</time>
      </trkpt>
      <trkpt lat="47.62745" lon="6.65352">
        <ele>403.2</ele>
        <time>2026-08-30T10:58:50.000Z</time>
      </trkpt>
      <trkpt lat="47.62746" lon="6.65357">
        <ele>403.6</ele>
        <time>2026-08-30T10:58:52.000Z</time>
      </trkpt>
      <trkpt lat="47.62747" lon="6.6536">
        <ele>404</ele>
        <time>2026-08-30T10:58:54.000Z</time>
      </trkpt>
      <trkpt lat="47.62749" lon="6.65364">
        <ele>404.6</ele>
        <time>2026-08-30T10:58:56.000Z</time>
      </trkpt>
      <trkpt lat="47.6275" lon="6.65368">
        <ele>404.8</ele>
        <time>2026-08-30T10:58:58.000Z</time>
      </trkpt>
      <trkpt lat="47.62752" lon="6.65372">
        <ele>405</ele>
        <time>2026-08-30T10:59:00.000Z</time>
      </trkpt>
      <trkpt lat="47.62755" lon="6.65378">
        <ele>405.2</ele>
        <time>2026-08-30T10:59:02.000Z</time>
      </trkpt>
      <trkpt lat="47.62758" lon="6.65385">
        <ele>405.2</ele>
        <time>2026-08-30T10:59:04.000Z</time>
      </trkpt>
      <trkpt lat="47.62762" lon="6.65393">
        <ele>405</ele>
        <time>2026-08-30T10:59:06.000Z</time>
      </trkpt>
      <trkpt lat="47.62766" lon="6.65402">
        <ele>404.8</ele>
        <time>2026-08-30T10:59:08.000Z</time>
      </trkpt>
      <trkpt lat="47.62769" lon="6.65413">
        <ele>404.6</ele>
        <time>2026-08-30T10:59:10.000Z</time>
      </trkpt>
      <trkpt lat="47.62774" lon="6.65424">
        <ele>404.4</ele>
        <time>2026-08-30T10:59:12.000Z</time>
      </trkpt>
      <trkpt lat="47.62778" lon="6.65436">
        <ele>404.2</ele>
        <time>2026-08-30T10:59:14.000Z</time>
      </trkpt>
      <trkpt lat="47.62782" lon="6.65448">
        <ele>404</ele>
        <time>2026-08-30T10:59:16.000Z</time>
      </trkpt>
      <trkpt lat="47.62788" lon="6.6546">
        <ele>403.8</ele>
        <time>2026-08-30T10:59:18.000Z</time>
      </trkpt>
      <trkpt lat="47.62794" lon="6.65472">
        <ele>403.4</ele>
        <time>2026-08-30T10:59:20.000Z</time>
      </trkpt>
      <trkpt lat="47.62799" lon="6.65484">
        <ele>403.2</ele>
        <time>2026-08-30T10:59:22.000Z</time>
      </trkpt>
      <trkpt lat="47.62803" lon="6.65496">
        <ele>402.8</ele>
        <time>2026-08-30T10:59:24.000Z</time>
      </trkpt>
      <trkpt lat="47.62807" lon="6.65508">
        <ele>402.6</ele>
        <time>2026-08-30T10:59:26.000Z</time>
      </trkpt>
      <trkpt lat="47.62811" lon="6.6552">
        <ele>402.6</ele>
        <time>2026-08-30T10:59:28.000Z</time>
      </trkpt>
      <trkpt lat="47.62815" lon="6.65532">
        <ele>402.8</ele>
        <time>2026-08-30T10:59:30.000Z</time>
      </trkpt>
      <trkpt lat="47.62819" lon="6.65542">
        <ele>403</ele>
        <time>2026-08-30T10:59:32.000Z</time>
      </trkpt>
      <trkpt lat="47.62823" lon="6.65553">
        <ele>403</ele>
        <time>2026-08-30T10:59:34.000Z</time>
      </trkpt>
      <trkpt lat="47.62827" lon="6.65564">
        <ele>403</ele>
        <time>2026-08-30T10:59:36.000Z</time>
      </trkpt>
      <trkpt lat="47.62831" lon="6.65576">
        <ele>403</ele>
        <time>2026-08-30T10:59:38.000Z</time>
      </trkpt>
      <trkpt lat="47.62834" lon="6.65587">
        <ele>403</ele>
        <time>2026-08-30T10:59:40.000Z</time>
      </trkpt>
      <trkpt lat="47.62835" lon="6.65599">
        <ele>403.2</ele>
        <time>2026-08-30T10:59:42.000Z</time>
      </trkpt>
      <trkpt lat="47.62833" lon="6.65611">
        <ele>403.2</ele>
        <time>2026-08-30T10:59:44.000Z</time>
      </trkpt>
      <trkpt lat="47.6283" lon="6.65621">
        <ele>403.4</ele>
        <time>2026-08-30T10:59:46.000Z</time>
      </trkpt>
      <trkpt lat="47.62826" lon="6.65628">
        <ele>403.6</ele>
        <time>2026-08-30T10:59:48.000Z</time>
      </trkpt>
      <trkpt lat="47.62824" lon="6.65636">
        <ele>403.8</ele>
        <time>2026-08-30T10:59:50.000Z</time>
      </trkpt>
      <trkpt lat="47.62826" lon="6.65644">
        <ele>404.2</ele>
        <time>2026-08-30T10:59:53.000Z</time>
      </trkpt>
      <trkpt lat="47.62832" lon="6.65651">
        <ele>404.4</ele>
        <time>2026-08-30T10:59:55.000Z</time>
      </trkpt>
      <trkpt lat="47.62837" lon="6.65658">
        <ele>404.6</ele>
        <time>2026-08-30T10:59:57.000Z</time>
      </trkpt>
      <trkpt lat="47.62843" lon="6.65667">
        <ele>404.6</ele>
        <time>2026-08-30T10:59:59.000Z</time>
      </trkpt>
      <trkpt lat="47.62849" lon="6.65676">
        <ele>404.2</ele>
        <time>2026-08-30T11:00:01.000Z</time>
      </trkpt>
      <trkpt lat="47.62857" lon="6.65684">
        <ele>404</ele>
        <time>2026-08-30T11:00:03.000Z</time>
      </trkpt>
      <trkpt lat="47.62866" lon="6.65689">
        <ele>403.6</ele>
        <time>2026-08-30T11:00:05.000Z</time>
      </trkpt>
      <trkpt lat="47.62877" lon="6.65695">
        <ele>403</ele>
        <time>2026-08-30T11:00:07.000Z</time>
      </trkpt>
      <trkpt lat="47.62889" lon="6.657">
        <ele>402.4</ele>
        <time>2026-08-30T11:00:09.000Z</time>
      </trkpt>
      <trkpt lat="47.62902" lon="6.65707">
        <ele>401.6</ele>
        <time>2026-08-30T11:00:11.000Z</time>
      </trkpt>
      <trkpt lat="47.62912" lon="6.65714">
        <ele>401.4</ele>
        <time>2026-08-30T11:00:13.000Z</time>
      </trkpt>
      <trkpt lat="47.6292" lon="6.65719">
        <ele>401.6</ele>
        <time>2026-08-30T11:00:15.000Z</time>
      </trkpt>
      <trkpt lat="47.62926" lon="6.65724">
        <ele>402</ele>
        <time>2026-08-30T11:00:17.000Z</time>
      </trkpt>
      <trkpt lat="47.62932" lon="6.65728">
        <ele>402.4</ele>
        <time>2026-08-30T11:00:19.000Z</time>
      </trkpt>
      <trkpt lat="47.62939" lon="6.65733">
        <ele>402.6</ele>
        <time>2026-08-30T11:00:21.000Z</time>
      </trkpt>
      <trkpt lat="47.62945" lon="6.65737">
        <ele>402.8</ele>
        <time>2026-08-30T11:00:23.000Z</time>
      </trkpt>
      <trkpt lat="47.62952" lon="6.65742">
        <ele>402.8</ele>
        <time>2026-08-30T11:00:25.000Z</time>
      </trkpt>
      <trkpt lat="47.62958" lon="6.65749">
        <ele>403</ele>
        <time>2026-08-30T11:00:27.000Z</time>
      </trkpt>
      <trkpt lat="47.62961" lon="6.65758">
        <ele>403</ele>
        <time>2026-08-30T11:00:29.000Z</time>
      </trkpt>
      <trkpt lat="47.62965" lon="6.6577">
        <ele>402.6</ele>
        <time>2026-08-30T11:00:31.000Z</time>
      </trkpt>
      <trkpt lat="47.62973" lon="6.65787">
        <ele>402.2</ele>
        <time>2026-08-30T11:00:33.000Z</time>
      </trkpt>
      <trkpt lat="47.62983" lon="6.65808">
        <ele>401.2</ele>
        <time>2026-08-30T11:00:35.000Z</time>
      </trkpt>
      <trkpt lat="47.62991" lon="6.65829">
        <ele>399.6</ele>
        <time>2026-08-30T11:00:37.000Z</time>
      </trkpt>
      <trkpt lat="47.62996" lon="6.65846">
        <ele>397.4</ele>
        <time>2026-08-30T11:00:39.000Z</time>
      </trkpt>
      <trkpt lat="47.62998" lon="6.65862">
        <ele>395.2</ele>
        <time>2026-08-30T11:00:41.000Z</time>
      </trkpt>
      <trkpt lat="47.62999" lon="6.65875">
        <ele>392.8</ele>
        <time>2026-08-30T11:00:43.000Z</time>
      </trkpt>
      <trkpt lat="47.62999" lon="6.65886">
        <ele>390.8</ele>
        <time>2026-08-30T11:00:45.000Z</time>
      </trkpt>
      <trkpt lat="47.62999" lon="6.65898">
        <ele>389</ele>
        <time>2026-08-30T11:00:47.000Z</time>
      </trkpt>
      <trkpt lat="47.62998" lon="6.65918">
        <ele>387.4</ele>
        <time>2026-08-30T11:00:49.000Z</time>
      </trkpt>
      <trkpt lat="47.62998" lon="6.65944">
        <ele>385.8</ele>
        <time>2026-08-30T11:00:51.000Z</time>
      </trkpt>
      <trkpt lat="47.62999" lon="6.65972">
        <ele>384</ele>
        <time>2026-08-30T11:00:53.000Z</time>
      </trkpt>
      <trkpt lat="47.63001" lon="6.66001">
        <ele>382.4</ele>
        <time>2026-08-30T11:00:55.000Z</time>
      </trkpt>
      <trkpt lat="47.63005" lon="6.66026">
        <ele>381.4</ele>
        <time>2026-08-30T11:00:57.000Z</time>
      </trkpt>
      <trkpt lat="47.63008" lon="6.6605">
        <ele>380.6</ele>
        <time>2026-08-30T11:00:59.000Z</time>
      </trkpt>
      <trkpt lat="47.63009" lon="6.66072">
        <ele>379.6</ele>
        <time>2026-08-30T11:01:01.000Z</time>
      </trkpt>
      <trkpt lat="47.63008" lon="6.66097">
        <ele>378.8</ele>
        <time>2026-08-30T11:01:03.000Z</time>
      </trkpt>
      <trkpt lat="47.63004" lon="6.66121">
        <ele>378</ele>
        <time>2026-08-30T11:01:05.000Z</time>
      </trkpt>
      <trkpt lat="47.63" lon="6.66145">
        <ele>377</ele>
        <time>2026-08-30T11:01:07.000Z</time>
      </trkpt>
      <trkpt lat="47.62996" lon="6.66171">
        <ele>375.4</ele>
        <time>2026-08-30T11:01:09.000Z</time>
      </trkpt>
      <trkpt lat="47.62993" lon="6.66196">
        <ele>373.6</ele>
        <time>2026-08-30T11:01:11.000Z</time>
      </trkpt>
      <trkpt lat="47.62992" lon="6.66219">
        <ele>371.2</ele>
        <time>2026-08-30T11:01:13.000Z</time>
      </trkpt>
      <trkpt lat="47.62989" lon="6.66242">
        <ele>368.8</ele>
        <time>2026-08-30T11:01:15.000Z</time>
      </trkpt>
      <trkpt lat="47.62986" lon="6.66264">
        <ele>366.2</ele>
        <time>2026-08-30T11:01:18.000Z</time>
      </trkpt>
      <trkpt lat="47.62986" lon="6.66281">
        <ele>364.2</ele>
        <time>2026-08-30T11:01:20.000Z</time>
      </trkpt>
      <trkpt lat="47.62991" lon="6.66292">
        <ele>362.2</ele>
        <time>2026-08-30T11:01:22.000Z</time>
      </trkpt>
      <trkpt lat="47.63" lon="6.66297">
        <ele>360.4</ele>
        <time>2026-08-30T11:01:24.000Z</time>
      </trkpt>
      <trkpt lat="47.63012" lon="6.66296">
        <ele>358.8</ele>
        <time>2026-08-30T11:01:26.000Z</time>
      </trkpt>
      <trkpt lat="47.63021" lon="6.66301">
        <ele>357.8</ele>
        <time>2026-08-30T11:01:28.000Z</time>
      </trkpt>
      <trkpt lat="47.63025" lon="6.66313">
        <ele>356.8</ele>
        <time>2026-08-30T11:01:30.000Z</time>
      </trkpt>
      <trkpt lat="47.63027" lon="6.66329">
        <ele>356.2</ele>
        <time>2026-08-30T11:01:32.000Z</time>
      </trkpt>
      <trkpt lat="47.6303" lon="6.66345">
        <ele>355.8</ele>
        <time>2026-08-30T11:01:34.000Z</time>
      </trkpt>
      <trkpt lat="47.63034" lon="6.66359">
        <ele>355.6</ele>
        <time>2026-08-30T11:01:36.000Z</time>
      </trkpt>
      <trkpt lat="47.63039" lon="6.66372">
        <ele>355.6</ele>
        <time>2026-08-30T11:01:38.000Z</time>
      </trkpt>
      <trkpt lat="47.63043" lon="6.66386">
        <ele>355.6</ele>
        <time>2026-08-30T11:01:40.000Z</time>
      </trkpt>
      <trkpt lat="47.63048" lon="6.66399">
        <ele>355.8</ele>
        <time>2026-08-30T11:01:42.000Z</time>
      </trkpt>
      <trkpt lat="47.63052" lon="6.66409">
        <ele>356</ele>
        <time>2026-08-30T11:01:44.000Z</time>
      </trkpt>
      <trkpt lat="47.63058" lon="6.66418">
        <ele>356</ele>
        <time>2026-08-30T11:01:46.000Z</time>
      </trkpt>
      <trkpt lat="47.63065" lon="6.66428">
        <ele>356.2</ele>
        <time>2026-08-30T11:01:48.000Z</time>
      </trkpt>
      <trkpt lat="47.63072" lon="6.66436">
        <ele>356.2</ele>
        <time>2026-08-30T11:01:50.000Z</time>
      </trkpt>
      <trkpt lat="47.63077" lon="6.66444">
        <ele>356.4</ele>
        <time>2026-08-30T11:01:52.000Z</time>
      </trkpt>
      <trkpt lat="47.63082" lon="6.66453">
        <ele>356.4</ele>
        <time>2026-08-30T11:01:54.000Z</time>
      </trkpt>
      <trkpt lat="47.63087" lon="6.66466">
        <ele>356.4</ele>
        <time>2026-08-30T11:01:56.000Z</time>
      </trkpt>
      <trkpt lat="47.63091" lon="6.66477">
        <ele>356.4</ele>
        <time>2026-08-30T11:01:58.000Z</time>
      </trkpt>
      <trkpt lat="47.63094" lon="6.6649">
        <ele>356.6</ele>
        <time>2026-08-30T11:02:00.000Z</time>
      </trkpt>
      <trkpt lat="47.63096" lon="6.66501">
        <ele>356.6</ele>
        <time>2026-08-30T11:02:02.000Z</time>
      </trkpt>
      <trkpt lat="47.63099" lon="6.66513">
        <ele>356.8</ele>
        <time>2026-08-30T11:02:04.000Z</time>
      </trkpt>
      <trkpt lat="47.63101" lon="6.66525">
        <ele>356.8</ele>
        <time>2026-08-30T11:02:06.000Z</time>
      </trkpt>
      <trkpt lat="47.63103" lon="6.66538">
        <ele>357</ele>
        <time>2026-08-30T11:02:08.000Z</time>
      </trkpt>
      <trkpt lat="47.63105" lon="6.6655">
        <ele>357</ele>
        <time>2026-08-30T11:02:10.000Z</time>
      </trkpt>
      <trkpt lat="47.63109" lon="6.66562">
        <ele>357</ele>
        <time>2026-08-30T11:02:12.000Z</time>
      </trkpt>
      <trkpt lat="47.63113" lon="6.66574">
        <ele>357</ele>
        <time>2026-08-30T11:02:14.000Z</time>
      </trkpt>
      <trkpt lat="47.63118" lon="6.66588">
        <ele>356.4</ele>
        <time>2026-08-30T11:02:16.000Z</time>
      </trkpt>
      <trkpt lat="47.63122" lon="6.66601">
        <ele>355.2</ele>
        <time>2026-08-30T11:02:18.000Z</time>
      </trkpt>
      <trkpt lat="47.63124" lon="6.66607">
        <ele>354.2</ele>
        <time>2026-08-30T11:02:20.000Z</time>
      </trkpt>
      <trkpt lat="47.63122" lon="6.6661">
        <ele>353.6</ele>
        <time>2026-08-30T11:02:22.000Z</time>
      </trkpt>
      <trkpt lat="47.6312" lon="6.66614">
        <ele>353.4</ele>
        <time>2026-08-30T11:02:24.000Z</time>
      </trkpt>
      <trkpt lat="47.63121" lon="6.66619">
        <ele>353.2</ele>
        <time>2026-08-30T11:02:26.000Z</time>
      </trkpt>
      <trkpt lat="47.63124" lon="6.66622">
        <ele>353.2</ele>
        <time>2026-08-30T11:02:28.000Z</time>
      </trkpt>
      <trkpt lat="47.63129" lon="6.66623">
        <ele>353</ele>
        <time>2026-08-30T11:02:30.000Z</time>
      </trkpt>
      <trkpt lat="47.63134" lon="6.66623">
        <ele>353</ele>
        <time>2026-08-30T11:02:32.000Z</time>
      </trkpt>
      <trkpt lat="47.63139" lon="6.66624">
        <ele>353</ele>
        <time>2026-08-30T11:02:34.000Z</time>
      </trkpt>
      <trkpt lat="47.63142" lon="6.66628">
        <ele>353.2</ele>
        <time>2026-08-30T11:02:36.000Z</time>
      </trkpt>
      <trkpt lat="47.63142" lon="6.66633">
        <ele>353.6</ele>
        <time>2026-08-30T11:02:38.000Z</time>
      </trkpt>
      <trkpt lat="47.63142" lon="6.66639">
        <ele>354</ele>
        <time>2026-08-30T11:02:40.000Z</time>
      </trkpt>
      <trkpt lat="47.63142" lon="6.66645">
        <ele>354.4</ele>
        <time>2026-08-30T11:02:42.000Z</time>
      </trkpt>
      <trkpt lat="47.63142" lon="6.6665">
        <ele>355</ele>
        <time>2026-08-30T11:02:44.000Z</time>
      </trkpt>
      <trkpt lat="47.63143" lon="6.66654">
        <ele>355.6</ele>
        <time>2026-08-30T11:02:46.000Z</time>
      </trkpt>
      <trkpt lat="47.63143" lon="6.66659">
        <ele>356</ele>
        <time>2026-08-30T11:02:48.000Z</time>
      </trkpt>
      <trkpt lat="47.63142" lon="6.66664">
        <ele>356.4</ele>
        <time>2026-08-30T11:02:50.000Z</time>
      </trkpt>
      <trkpt lat="47.63141" lon="6.66669">
        <ele>356.8</ele>
        <time>2026-08-30T11:02:52.000Z</time>
      </trkpt>
      <trkpt lat="47.63141" lon="6.66675">
        <ele>357.2</ele>
        <time>2026-08-30T11:02:54.000Z</time>
      </trkpt>
      <trkpt lat="47.6314" lon="6.6668">
        <ele>357.4</ele>
        <time>2026-08-30T11:02:56.000Z</time>
      </trkpt>
      <trkpt lat="47.6314" lon="6.66686">
        <ele>357.8</ele>
        <time>2026-08-30T11:02:58.000Z</time>
      </trkpt>
      <trkpt lat="47.6314" lon="6.66691">
        <ele>358.2</ele>
        <time>2026-08-30T11:03:00.000Z</time>
      </trkpt>
      <trkpt lat="47.63139" lon="6.66696">
        <ele>358.4</ele>
        <time>2026-08-30T11:03:02.000Z</time>
      </trkpt>
      <trkpt lat="47.63139" lon="6.66701">
        <ele>358.8</ele>
        <time>2026-08-30T11:03:04.000Z</time>
      </trkpt>
      <trkpt lat="47.63138" lon="6.66706">
        <ele>359</ele>
        <time>2026-08-30T11:03:06.000Z</time>
      </trkpt>
      <trkpt lat="47.63137" lon="6.66711">
        <ele>359.4</ele>
        <time>2026-08-30T11:03:09.000Z</time>
      </trkpt>
      <trkpt lat="47.63135" lon="6.66715">
        <ele>359.6</ele>
        <time>2026-08-30T11:03:11.000Z</time>
      </trkpt>
      <trkpt lat="47.63133" lon="6.6672">
        <ele>360</ele>
        <time>2026-08-30T11:03:13.000Z</time>
      </trkpt>
      <trkpt lat="47.63131" lon="6.66725">
        <ele>360.2</ele>
        <time>2026-08-30T11:03:15.000Z</time>
      </trkpt>
      <trkpt lat="47.63129" lon="6.66731">
        <ele>360.6</ele>
        <time>2026-08-30T11:03:17.000Z</time>
      </trkpt>
      <trkpt lat="47.63127" lon="6.66736">
        <ele>360.8</ele>
        <time>2026-08-30T11:03:19.000Z</time>
      </trkpt>
      <trkpt lat="47.63125" lon="6.66741">
        <ele>361.2</ele>
        <time>2026-08-30T11:03:21.000Z</time>
      </trkpt>
      <trkpt lat="47.63124" lon="6.66745">
        <ele>361.6</ele>
        <time>2026-08-30T11:03:23.000Z</time>
      </trkpt>
      <trkpt lat="47.63122" lon="6.6675">
        <ele>361.8</ele>
        <time>2026-08-30T11:03:25.000Z</time>
      </trkpt>
      <trkpt lat="47.6312" lon="6.66754">
        <ele>362.2</ele>
        <time>2026-08-30T11:03:27.000Z</time>
      </trkpt>
      <trkpt lat="47.63118" lon="6.66759">
        <ele>362.4</ele>
        <time>2026-08-30T11:03:29.000Z</time>
      </trkpt>
      <trkpt lat="47.63117" lon="6.66764">
        <ele>362.8</ele>
        <time>2026-08-30T11:03:31.000Z</time>
      </trkpt>
      <trkpt lat="47.63115" lon="6.66769">
        <ele>363</ele>
        <time>2026-08-30T11:03:33.000Z</time>
      </trkpt>
      <trkpt lat="47.63113" lon="6.66775">
        <ele>363.4</ele>
        <time>2026-08-30T11:03:35.000Z</time>
      </trkpt>
      <trkpt lat="47.63111" lon="6.66781">
        <ele>363.6</ele>
        <time>2026-08-30T11:03:37.000Z</time>
      </trkpt>
      <trkpt lat="47.63109" lon="6.66786">
        <ele>364</ele>
        <time>2026-08-30T11:03:39.000Z</time>
      </trkpt>
      <trkpt lat="47.63108" lon="6.66791">
        <ele>364.2</ele>
        <time>2026-08-30T11:03:41.000Z</time>
      </trkpt>
      <trkpt lat="47.63106" lon="6.66796">
        <ele>364.6</ele>
        <time>2026-08-30T11:03:43.000Z</time>
      </trkpt>
      <trkpt lat="47.63105" lon="6.668">
        <ele>365</ele>
        <time>2026-08-30T11:03:45.000Z</time>
      </trkpt>
      <trkpt lat="47.63103" lon="6.66805">
        <ele>365.2</ele>
        <time>2026-08-30T11:03:47.000Z</time>
      </trkpt>
      <trkpt lat="47.63102" lon="6.6681">
        <ele>365.4</ele>
        <time>2026-08-30T11:03:49.000Z</time>
      </trkpt>
      <trkpt lat="47.63101" lon="6.66815">
        <ele>365.8</ele>
        <time>2026-08-30T11:03:51.000Z</time>
      </trkpt>
      <trkpt lat="47.631" lon="6.66819">
        <ele>366.2</ele>
        <time>2026-08-30T11:03:53.000Z</time>
      </trkpt>
      <trkpt lat="47.63099" lon="6.66825">
        <ele>366.6</ele>
        <time>2026-08-30T11:03:55.000Z</time>
      </trkpt>
      <trkpt lat="47.63098" lon="6.6683">
        <ele>366.8</ele>
        <time>2026-08-30T11:03:57.000Z</time>
      </trkpt>
      <trkpt lat="47.63097" lon="6.66835">
        <ele>367.2</ele>
        <time>2026-08-30T11:03:59.000Z</time>
      </trkpt>
      <trkpt lat="47.63096" lon="6.6684">
        <ele>367.6</ele>
        <time>2026-08-30T11:04:01.000Z</time>
      </trkpt>
      <trkpt lat="47.63095" lon="6.66845">
        <ele>368</ele>
        <time>2026-08-30T11:04:03.000Z</time>
      </trkpt>
      <trkpt lat="47.63095" lon="6.66852">
        <ele>368.2</ele>
        <time>2026-08-30T11:04:05.000Z</time>
      </trkpt>
      <trkpt lat="47.63095" lon="6.66858">
        <ele>368.6</ele>
        <time>2026-08-30T11:04:07.000Z</time>
      </trkpt>
      <trkpt lat="47.63095" lon="6.66864">
        <ele>368.8</ele>
        <time>2026-08-30T11:04:09.000Z</time>
      </trkpt>
      <trkpt lat="47.63094" lon="6.66869">
        <ele>369</ele>
        <time>2026-08-30T11:04:11.000Z</time>
      </trkpt>
      <trkpt lat="47.63094" lon="6.66875">
        <ele>369.4</ele>
        <time>2026-08-30T11:04:13.000Z</time>
      </trkpt>
      <trkpt lat="47.63094" lon="6.66881">
        <ele>369.4</ele>
        <time>2026-08-30T11:04:15.000Z</time>
      </trkpt>
      <trkpt lat="47.63094" lon="6.66888">
        <ele>369.6</ele>
        <time>2026-08-30T11:04:17.000Z</time>
      </trkpt>
      <trkpt lat="47.63094" lon="6.66895">
        <ele>369.8</ele>
        <time>2026-08-30T11:04:19.000Z</time>
      </trkpt>
      <trkpt lat="47.63094" lon="6.66902">
        <ele>370</ele>
        <time>2026-08-30T11:04:21.000Z</time>
      </trkpt>
      <trkpt lat="47.63094" lon="6.66909">
        <ele>370.2</ele>
        <time>2026-08-30T11:04:23.000Z</time>
      </trkpt>
      <trkpt lat="47.63095" lon="6.66917">
        <ele>370.2</ele>
        <time>2026-08-30T11:04:25.000Z</time>
      </trkpt>
      <trkpt lat="47.63095" lon="6.66925">
        <ele>370.4</ele>
        <time>2026-08-30T11:04:27.000Z</time>
      </trkpt>
      <trkpt lat="47.63096" lon="6.66934">
        <ele>370.4</ele>
        <time>2026-08-30T11:04:29.000Z</time>
      </trkpt>
      <trkpt lat="47.63096" lon="6.66943">
        <ele>370.4</ele>
        <time>2026-08-30T11:04:31.000Z</time>
      </trkpt>
      <trkpt lat="47.63096" lon="6.66952">
        <ele>370.6</ele>
        <time>2026-08-30T11:04:33.000Z</time>
      </trkpt>
      <trkpt lat="47.63095" lon="6.6696">
        <ele>370.8</ele>
        <time>2026-08-30T11:04:35.000Z</time>
      </trkpt>
      <trkpt lat="47.63095" lon="6.66969">
        <ele>370.8</ele>
        <time>2026-08-30T11:04:38.000Z</time>
      </trkpt>
      <trkpt lat="47.63096" lon="6.66978">
        <ele>371</ele>
        <time>2026-08-30T11:04:40.000Z</time>
      </trkpt>
      <trkpt lat="47.63097" lon="6.66988">
        <ele>371.2</ele>
        <time>2026-08-30T11:04:42.000Z</time>
      </trkpt>
      <trkpt lat="47.63099" lon="6.66998">
        <ele>371.2</ele>
        <time>2026-08-30T11:04:44.000Z</time>
      </trkpt>
      <trkpt lat="47.63099" lon="6.67009">
        <ele>371.4</ele>
        <time>2026-08-30T11:04:46.000Z</time>
      </trkpt>
      <trkpt lat="47.63099" lon="6.6702">
        <ele>371.4</ele>
        <time>2026-08-30T11:04:48.000Z</time>
      </trkpt>
      <trkpt lat="47.63098" lon="6.6703">
        <ele>371.6</ele>
        <time>2026-08-30T11:04:50.000Z</time>
      </trkpt>
      <trkpt lat="47.63097" lon="6.6704">
        <ele>371.8</ele>
        <time>2026-08-30T11:04:52.000Z</time>
      </trkpt>
      <trkpt lat="47.63096" lon="6.6705">
        <ele>371.8</ele>
        <time>2026-08-30T11:04:54.000Z</time>
      </trkpt>
      <trkpt lat="47.63095" lon="6.6706">
        <ele>372</ele>
        <time>2026-08-30T11:04:56.000Z</time>
      </trkpt>
      <trkpt lat="47.63094" lon="6.67071">
        <ele>372</ele>
        <time>2026-08-30T11:04:58.000Z</time>
      </trkpt>
      <trkpt lat="47.63093" lon="6.67081">
        <ele>372.2</ele>
        <time>2026-08-30T11:05:00.000Z</time>
      </trkpt>
      <trkpt lat="47.63092" lon="6.67091">
        <ele>372.2</ele>
        <time>2026-08-30T11:05:02.000Z</time>
      </trkpt>
      <trkpt lat="47.63091" lon="6.67101">
        <ele>372.2</ele>
        <time>2026-08-30T11:05:04.000Z</time>
      </trkpt>
      <trkpt lat="47.63089" lon="6.67112">
        <ele>372.4</ele>
        <time>2026-08-30T11:05:06.000Z</time>
      </trkpt>
      <trkpt lat="47.63087" lon="6.67128">
        <ele>372.4</ele>
        <time>2026-08-30T11:05:08.000Z</time>
      </trkpt>
      <trkpt lat="47.63084" lon="6.67141">
        <ele>372.6</ele>
        <time>2026-08-30T11:05:10.000Z</time>
      </trkpt>
      <trkpt lat="47.63082" lon="6.67151">
        <ele>372.8</ele>
        <time>2026-08-30T11:05:12.000Z</time>
      </trkpt>
      <trkpt lat="47.6308" lon="6.67161">
        <ele>373</ele>
        <time>2026-08-30T11:05:14.000Z</time>
      </trkpt>
      <trkpt lat="47.63079" lon="6.67171">
        <ele>373</ele>
        <time>2026-08-30T11:05:16.000Z</time>
      </trkpt>
      <trkpt lat="47.63077" lon="6.67182">
        <ele>372.8</ele>
        <time>2026-08-30T11:05:18.000Z</time>
      </trkpt>
      <trkpt lat="47.63075" lon="6.67195">
        <ele>372.6</ele>
        <time>2026-08-30T11:05:20.000Z</time>
      </trkpt>
      <trkpt lat="47.63074" lon="6.67209">
        <ele>372.4</ele>
        <time>2026-08-30T11:05:22.000Z</time>
      </trkpt>
      <trkpt lat="47.63073" lon="6.67225">
        <ele>372.2</ele>
        <time>2026-08-30T11:05:24.000Z</time>
      </trkpt>
      <trkpt lat="47.63072" lon="6.67243">
        <ele>371.6</ele>
        <time>2026-08-30T11:05:26.000Z</time>
      </trkpt>
      <trkpt lat="47.63069" lon="6.67263">
        <ele>370.6</ele>
        <time>2026-08-30T11:05:28.000Z</time>
      </trkpt>
      <trkpt lat="47.63066" lon="6.67286">
        <ele>370</ele>
        <time>2026-08-30T11:05:30.000Z</time>
      </trkpt>
      <trkpt lat="47.63066" lon="6.67306">
        <ele>369.6</ele>
        <time>2026-08-30T11:05:32.000Z</time>
      </trkpt>
      <trkpt lat="47.63067" lon="6.67323">
        <ele>370</ele>
        <time>2026-08-30T11:05:34.000Z</time>
      </trkpt>
      <trkpt lat="47.63068" lon="6.67337">
        <ele>370.4</ele>
        <time>2026-08-30T11:05:36.000Z</time>
      </trkpt>
      <trkpt lat="47.6307" lon="6.67349">
        <ele>370.6</ele>
        <time>2026-08-30T11:05:38.000Z</time>
      </trkpt>
      <trkpt lat="47.63072" lon="6.6736">
        <ele>370.8</ele>
        <time>2026-08-30T11:05:40.000Z</time>
      </trkpt>
      <trkpt lat="47.63073" lon="6.67372">
        <ele>371</ele>
        <time>2026-08-30T11:05:42.000Z</time>
      </trkpt>
      <trkpt lat="47.63072" lon="6.67384">
        <ele>371</ele>
        <time>2026-08-30T11:05:44.000Z</time>
      </trkpt>
      <trkpt lat="47.63068" lon="6.67395">
        <ele>371.2</ele>
        <time>2026-08-30T11:05:46.000Z</time>
      </trkpt>
      <trkpt lat="47.63064" lon="6.67403">
        <ele>371.8</ele>
        <time>2026-08-30T11:05:48.000Z</time>
      </trkpt>
      <trkpt lat="47.6306" lon="6.67409">
        <ele>372.2</ele>
        <time>2026-08-30T11:05:50.000Z</time>
      </trkpt>
      <trkpt lat="47.63057" lon="6.67414">
        <ele>372.8</ele>
        <time>2026-08-30T11:05:52.000Z</time>
      </trkpt>
      <trkpt lat="47.63054" lon="6.67419">
        <ele>373.2</ele>
        <time>2026-08-30T11:05:54.000Z</time>
      </trkpt>
      <trkpt lat="47.63051" lon="6.67423">
        <ele>373.6</ele>
        <time>2026-08-30T11:05:56.000Z</time>
      </trkpt>
      <trkpt lat="47.63049" lon="6.67427">
        <ele>374.2</ele>
        <time>2026-08-30T11:05:58.000Z</time>
      </trkpt>
      <trkpt lat="47.63046" lon="6.67431">
        <ele>374.6</ele>
        <time>2026-08-30T11:06:00.000Z</time>
      </trkpt>
      <trkpt lat="47.63044" lon="6.67435">
        <ele>374.8</ele>
        <time>2026-08-30T11:06:02.000Z</time>
      </trkpt>
      <trkpt lat="47.63041" lon="6.67439">
        <ele>375.2</ele>
        <time>2026-08-30T11:06:04.000Z</time>
      </trkpt>
      <trkpt lat="47.63038" lon="6.67443">
        <ele>375.6</ele>
        <time>2026-08-30T11:06:06.000Z</time>
      </trkpt>
      <trkpt lat="47.63035" lon="6.67448">
        <ele>376</ele>
        <time>2026-08-30T11:06:08.000Z</time>
      </trkpt>
      <trkpt lat="47.63032" lon="6.67452">
        <ele>376.2</ele>
        <time>2026-08-30T11:06:10.000Z</time>
      </trkpt>
      <trkpt lat="47.6303" lon="6.67457">
        <ele>376.6</ele>
        <time>2026-08-30T11:06:12.000Z</time>
      </trkpt>
      <trkpt lat="47.63028" lon="6.67462">
        <ele>377</ele>
        <time>2026-08-30T11:06:15.000Z</time>
      </trkpt>
      <trkpt lat="47.63026" lon="6.67466">
        <ele>377.4</ele>
        <time>2026-08-30T11:06:17.000Z</time>
      </trkpt>
      <trkpt lat="47.63023" lon="6.67471">
        <ele>377.8</ele>
        <time>2026-08-30T11:06:19.000Z</time>
      </trkpt>
      <trkpt lat="47.63022" lon="6.67476">
        <ele>378.2</ele>
        <time>2026-08-30T11:06:21.000Z</time>
      </trkpt>
      <trkpt lat="47.6302" lon="6.6748">
        <ele>378.6</ele>
        <time>2026-08-30T11:06:23.000Z</time>
      </trkpt>
      <trkpt lat="47.63019" lon="6.67484">
        <ele>379</ele>
        <time>2026-08-30T11:06:25.000Z</time>
      </trkpt>
      <trkpt lat="47.63017" lon="6.67488">
        <ele>379.4</ele>
        <time>2026-08-30T11:06:27.000Z</time>
      </trkpt>
      <trkpt lat="47.63016" lon="6.67493">
        <ele>379.6</ele>
        <time>2026-08-30T11:06:29.000Z</time>
      </trkpt>
      <trkpt lat="47.63015" lon="6.67497">
        <ele>380</ele>
        <time>2026-08-30T11:06:31.000Z</time>
      </trkpt>
      <trkpt lat="47.63013" lon="6.67502">
        <ele>380.4</ele>
        <time>2026-08-30T11:06:33.000Z</time>
      </trkpt>
      <trkpt lat="47.63013" lon="6.67506">
        <ele>380.8</ele>
        <time>2026-08-30T11:06:35.000Z</time>
      </trkpt>
      <trkpt lat="47.63012" lon="6.6751">
        <ele>381</ele>
        <time>2026-08-30T11:06:37.000Z</time>
      </trkpt>
      <trkpt lat="47.6301" lon="6.67517">
        <ele>381.4</ele>
        <time>2026-08-30T11:06:39.000Z</time>
      </trkpt>
      <trkpt lat="47.63008" lon="6.67521">
        <ele>381.6</ele>
        <time>2026-08-30T11:06:41.000Z</time>
      </trkpt>
      <trkpt lat="47.63007" lon="6.67525">
        <ele>382</ele>
        <time>2026-08-30T11:06:43.000Z</time>
      </trkpt>
      <trkpt lat="47.63006" lon="6.6753">
        <ele>382.2</ele>
        <time>2026-08-30T11:06:45.000Z</time>
      </trkpt>
      <trkpt lat="47.63005" lon="6.67534">
        <ele>382.4</ele>
        <time>2026-08-30T11:06:47.000Z</time>
      </trkpt>
      <trkpt lat="47.63003" lon="6.67538">
        <ele>382.8</ele>
        <time>2026-08-30T11:06:49.000Z</time>
      </trkpt>
      <trkpt lat="47.63002" lon="6.67542">
        <ele>383</ele>
        <time>2026-08-30T11:06:51.000Z</time>
      </trkpt>
      <trkpt lat="47.63" lon="6.67545">
        <ele>383.4</ele>
        <time>2026-08-30T11:06:53.000Z</time>
      </trkpt>
      <trkpt lat="47.62999" lon="6.67549">
        <ele>383.6</ele>
        <time>2026-08-30T11:06:55.000Z</time>
      </trkpt>
      <trkpt lat="47.62998" lon="6.67551">
        <ele>384</ele>
        <time>2026-08-30T11:06:57.000Z</time>
      </trkpt>
      <trkpt lat="47.62996" lon="6.67553">
        <ele>384.2</ele>
        <time>2026-08-30T11:06:59.000Z</time>
      </trkpt>
      <trkpt lat="47.62994" lon="6.67555">
        <ele>384.6</ele>
        <time>2026-08-30T11:07:01.000Z</time>
      </trkpt>
      <trkpt lat="47.62993" lon="6.67557">
        <ele>385</ele>
        <time>2026-08-30T11:07:03.000Z</time>
      </trkpt>
      <trkpt lat="47.62991" lon="6.67558">
        <ele>385.4</ele>
        <time>2026-08-30T11:07:05.000Z</time>
      </trkpt>
      <trkpt lat="47.62989" lon="6.6756">
        <ele>386</ele>
        <time>2026-08-30T11:07:07.000Z</time>
      </trkpt>
      <trkpt lat="47.62987" lon="6.67561">
        <ele>386.4</ele>
        <time>2026-08-30T11:07:09.000Z</time>
      </trkpt>
      <trkpt lat="47.62985" lon="6.67562">
        <ele>386.8</ele>
        <time>2026-08-30T11:07:11.000Z</time>
      </trkpt>
      <trkpt lat="47.62984" lon="6.67563">
        <ele>387.2</ele>
        <time>2026-08-30T11:07:13.000Z</time>
      </trkpt>
      <trkpt lat="47.62982" lon="6.67564">
        <ele>387.6</ele>
        <time>2026-08-30T11:07:15.000Z</time>
      </trkpt>
      <trkpt lat="47.6298" lon="6.67565">
        <ele>388.2</ele>
        <time>2026-08-30T11:07:17.000Z</time>
      </trkpt>
      <trkpt lat="47.62978" lon="6.67566">
        <ele>388.6</ele>
        <time>2026-08-30T11:07:19.000Z</time>
      </trkpt>
      <trkpt lat="47.62975" lon="6.67567">
        <ele>388.8</ele>
        <time>2026-08-30T11:07:21.000Z</time>
      </trkpt>
      <trkpt lat="47.62973" lon="6.67568">
        <ele>389.2</ele>
        <time>2026-08-30T11:07:23.000Z</time>
      </trkpt>
      <trkpt lat="47.62971" lon="6.67568">
        <ele>389.6</ele>
        <time>2026-08-30T11:07:25.000Z</time>
      </trkpt>
      <trkpt lat="47.62969" lon="6.67569">
        <ele>390</ele>
        <time>2026-08-30T11:07:27.000Z</time>
      </trkpt>
      <trkpt lat="47.62966" lon="6.67569">
        <ele>390.2</ele>
        <time>2026-08-30T11:07:29.000Z</time>
      </trkpt>
      <trkpt lat="47.62964" lon="6.67569">
        <ele>390.4</ele>
        <time>2026-08-30T11:07:31.000Z</time>
      </trkpt>
      <trkpt lat="47.62961" lon="6.67569">
        <ele>390.6</ele>
        <time>2026-08-30T11:07:33.000Z</time>
      </trkpt>
      <trkpt lat="47.62959" lon="6.67569">
        <ele>390.8</ele>
        <time>2026-08-30T11:07:35.000Z</time>
      </trkpt>
      <trkpt lat="47.62956" lon="6.67569">
        <ele>391</ele>
        <time>2026-08-30T11:07:37.000Z</time>
      </trkpt>
      <trkpt lat="47.62954" lon="6.6757">
        <ele>391.2</ele>
        <time>2026-08-30T11:07:39.000Z</time>
      </trkpt>
      <trkpt lat="47.62951" lon="6.6757">
        <ele>391.6</ele>
        <time>2026-08-30T11:07:41.000Z</time>
      </trkpt>
      <trkpt lat="47.62948" lon="6.67571">
        <ele>391.8</ele>
        <time>2026-08-30T11:07:43.000Z</time>
      </trkpt>
      <trkpt lat="47.62945" lon="6.67571">
        <ele>392</ele>
        <time>2026-08-30T11:07:46.000Z</time>
      </trkpt>
      <trkpt lat="47.62943" lon="6.67571">
        <ele>392.2</ele>
        <time>2026-08-30T11:07:48.000Z</time>
      </trkpt>
      <trkpt lat="47.6294" lon="6.6757">
        <ele>392.4</ele>
        <time>2026-08-30T11:07:50.000Z</time>
      </trkpt>
      <trkpt lat="47.62937" lon="6.6757">
        <ele>392.6</ele>
        <time>2026-08-30T11:07:52.000Z</time>
      </trkpt>
      <trkpt lat="47.62934" lon="6.67569">
        <ele>392.8</ele>
        <time>2026-08-30T11:07:54.000Z</time>
      </trkpt>
      <trkpt lat="47.62931" lon="6.67568">
        <ele>393</ele>
        <time>2026-08-30T11:07:56.000Z</time>
      </trkpt>
      <trkpt lat="47.62929" lon="6.67567">
        <ele>393.4</ele>
        <time>2026-08-30T11:07:58.000Z</time>
      </trkpt>
      <trkpt lat="47.62927" lon="6.67564">
        <ele>393.6</ele>
        <time>2026-08-30T11:08:00.000Z</time>
      </trkpt>
      <trkpt lat="47.62924" lon="6.67563">
        <ele>394</ele>
        <time>2026-08-30T11:08:02.000Z</time>
      </trkpt>
      <trkpt lat="47.62921" lon="6.67561">
        <ele>394.4</ele>
        <time>2026-08-30T11:08:04.000Z</time>
      </trkpt>
      <trkpt lat="47.62919" lon="6.67559">
        <ele>394.6</ele>
        <time>2026-08-30T11:08:06.000Z</time>
      </trkpt>
      <trkpt lat="47.62916" lon="6.67558">
        <ele>395</ele>
        <time>2026-08-30T11:08:08.000Z</time>
      </trkpt>
      <trkpt lat="47.62913" lon="6.67556">
        <ele>395.2</ele>
        <time>2026-08-30T11:08:10.000Z</time>
      </trkpt>
      <trkpt lat="47.6291" lon="6.67554">
        <ele>395.4</ele>
        <time>2026-08-30T11:08:12.000Z</time>
      </trkpt>
      <trkpt lat="47.62907" lon="6.67553">
        <ele>395.8</ele>
        <time>2026-08-30T11:08:14.000Z</time>
      </trkpt>
      <trkpt lat="47.62904" lon="6.67551">
        <ele>396</ele>
        <time>2026-08-30T11:08:16.000Z</time>
      </trkpt>
      <trkpt lat="47.629" lon="6.6755">
        <ele>396.4</ele>
        <time>2026-08-30T11:08:18.000Z</time>
      </trkpt>
      <trkpt lat="47.62897" lon="6.67548">
        <ele>396.8</ele>
        <time>2026-08-30T11:08:20.000Z</time>
      </trkpt>
      <trkpt lat="47.62893" lon="6.67546">
        <ele>397.2</ele>
        <time>2026-08-30T11:08:22.000Z</time>
      </trkpt>
      <trkpt lat="47.6289" lon="6.67544">
        <ele>397.4</ele>
        <time>2026-08-30T11:08:24.000Z</time>
      </trkpt>
      <trkpt lat="47.62886" lon="6.67542">
        <ele>397.8</ele>
        <time>2026-08-30T11:08:26.000Z</time>
      </trkpt>
      <trkpt lat="47.62883" lon="6.67541">
        <ele>398</ele>
        <time>2026-08-30T11:08:28.000Z</time>
      </trkpt>
      <trkpt lat="47.6288" lon="6.67537">
        <ele>398.2</ele>
        <time>2026-08-30T11:08:30.000Z</time>
      </trkpt>
      <trkpt lat="47.62877" lon="6.67532">
        <ele>398.6</ele>
        <time>2026-08-30T11:08:32.000Z</time>
      </trkpt>
      <trkpt lat="47.62875" lon="6.67526">
        <ele>398.8</ele>
        <time>2026-08-30T11:08:34.000Z</time>
      </trkpt>
      <trkpt lat="47.62875" lon="6.67521">
        <ele>399.2</ele>
        <time>2026-08-30T11:08:36.000Z</time>
      </trkpt>
      <trkpt lat="47.62873" lon="6.67517">
        <ele>399.4</ele>
        <time>2026-08-30T11:08:38.000Z</time>
      </trkpt>
      <trkpt lat="47.62872" lon="6.67513">
        <ele>399.6</ele>
        <time>2026-08-30T11:08:40.000Z</time>
      </trkpt>
      <trkpt lat="47.6287" lon="6.67508">
        <ele>399.8</ele>
        <time>2026-08-30T11:08:42.000Z</time>
      </trkpt>
      <trkpt lat="47.62867" lon="6.67503">
        <ele>400</ele>
        <time>2026-08-30T11:08:44.000Z</time>
      </trkpt>
      <trkpt lat="47.62864" lon="6.67499">
        <ele>400.4</ele>
        <time>2026-08-30T11:08:46.000Z</time>
      </trkpt>
      <trkpt lat="47.62861" lon="6.67494">
        <ele>400.6</ele>
        <time>2026-08-30T11:08:48.000Z</time>
      </trkpt>
      <trkpt lat="47.62858" lon="6.67491">
        <ele>400.8</ele>
        <time>2026-08-30T11:08:50.000Z</time>
      </trkpt>
      <trkpt lat="47.62856" lon="6.67487">
        <ele>401.2</ele>
        <time>2026-08-30T11:08:52.000Z</time>
      </trkpt>
      <trkpt lat="47.62852" lon="6.67484">
        <ele>401.4</ele>
        <time>2026-08-30T11:08:54.000Z</time>
      </trkpt>
      <trkpt lat="47.62849" lon="6.6748">
        <ele>401.8</ele>
        <time>2026-08-30T11:08:56.000Z</time>
      </trkpt>
      <trkpt lat="47.62845" lon="6.67478">
        <ele>402</ele>
        <time>2026-08-30T11:08:58.000Z</time>
      </trkpt>
      <trkpt lat="47.62843" lon="6.67475">
        <ele>402.2</ele>
        <time>2026-08-30T11:09:00.000Z</time>
      </trkpt>
      <trkpt lat="47.6284" lon="6.67472">
        <ele>402.4</ele>
        <time>2026-08-30T11:09:02.000Z</time>
      </trkpt>
      <trkpt lat="47.62836" lon="6.67469">
        <ele>402.8</ele>
        <time>2026-08-30T11:09:04.000Z</time>
      </trkpt>
      <trkpt lat="47.62833" lon="6.67466">
        <ele>403</ele>
        <time>2026-08-30T11:09:06.000Z</time>
      </trkpt>
      <trkpt lat="47.62829" lon="6.67463">
        <ele>403.4</ele>
        <time>2026-08-30T11:09:08.000Z</time>
      </trkpt>
      <trkpt lat="47.62826" lon="6.67461">
        <ele>403.8</ele>
        <time>2026-08-30T11:09:10.000Z</time>
      </trkpt>
      <trkpt lat="47.62822" lon="6.67458">
        <ele>404.2</ele>
        <time>2026-08-30T11:09:12.000Z</time>
      </trkpt>
      <trkpt lat="47.62819" lon="6.67454">
        <ele>404.6</ele>
        <time>2026-08-30T11:09:14.000Z</time>
      </trkpt>
      <trkpt lat="47.62815" lon="6.67451">
        <ele>404.8</ele>
        <time>2026-08-30T11:09:16.000Z</time>
      </trkpt>
      <trkpt lat="47.62813" lon="6.67446">
        <ele>405.2</ele>
        <time>2026-08-30T11:09:18.000Z</time>
      </trkpt>
      <trkpt lat="47.62809" lon="6.67443">
        <ele>405.6</ele>
        <time>2026-08-30T11:09:20.000Z</time>
      </trkpt>
      <trkpt lat="47.62806" lon="6.6744">
        <ele>406.2</ele>
        <time>2026-08-30T11:09:22.000Z</time>
      </trkpt>
      <trkpt lat="47.62802" lon="6.67438">
        <ele>406.6</ele>
        <time>2026-08-30T11:09:24.000Z</time>
      </trkpt>
      <trkpt lat="47.62799" lon="6.67436">
        <ele>407</ele>
        <time>2026-08-30T11:09:26.000Z</time>
      </trkpt>
      <trkpt lat="47.62795" lon="6.67435">
        <ele>407.4</ele>
        <time>2026-08-30T11:09:28.000Z</time>
      </trkpt>
      <trkpt lat="47.62791" lon="6.67434">
        <ele>407.8</ele>
        <time>2026-08-30T11:09:30.000Z</time>
      </trkpt>
      <trkpt lat="47.62787" lon="6.67433">
        <ele>408.2</ele>
        <time>2026-08-30T11:09:32.000Z</time>
      </trkpt>
      <trkpt lat="47.62783" lon="6.67432">
        <ele>408.6</ele>
        <time>2026-08-30T11:09:35.000Z</time>
      </trkpt>
      <trkpt lat="47.62779" lon="6.67431">
        <ele>409</ele>
        <time>2026-08-30T11:09:37.000Z</time>
      </trkpt>
      <trkpt lat="47.62775" lon="6.6743">
        <ele>409.4</ele>
        <time>2026-08-30T11:09:39.000Z</time>
      </trkpt>
      <trkpt lat="47.62772" lon="6.67428">
        <ele>409.6</ele>
        <time>2026-08-30T11:09:41.000Z</time>
      </trkpt>
      <trkpt lat="47.62769" lon="6.67427">
        <ele>410</ele>
        <time>2026-08-30T11:09:43.000Z</time>
      </trkpt>
      <trkpt lat="47.62766" lon="6.67426">
        <ele>410.2</ele>
        <time>2026-08-30T11:09:45.000Z</time>
      </trkpt>
      <trkpt lat="47.62764" lon="6.67425">
        <ele>410.4</ele>
        <time>2026-08-30T11:09:47.000Z</time>
      </trkpt>
      <trkpt lat="47.6276" lon="6.67423">
        <ele>410.6</ele>
        <time>2026-08-30T11:09:49.000Z</time>
      </trkpt>
      <trkpt lat="47.62756" lon="6.67421">
        <ele>410.6</ele>
        <time>2026-08-30T11:09:51.000Z</time>
      </trkpt>
      <trkpt lat="47.62749" lon="6.67417">
        <ele>410.6</ele>
        <time>2026-08-30T11:09:53.000Z</time>
      </trkpt>
      <trkpt lat="47.62741" lon="6.67413">
        <ele>410.4</ele>
        <time>2026-08-30T11:09:55.000Z</time>
      </trkpt>
      <trkpt lat="47.62734" lon="6.67408">
        <ele>410</ele>
        <time>2026-08-30T11:09:57.000Z</time>
      </trkpt>
      <trkpt lat="47.62725" lon="6.67404">
        <ele>409.8</ele>
        <time>2026-08-30T11:09:59.000Z</time>
      </trkpt>
      <trkpt lat="47.62716" lon="6.67399">
        <ele>409.4</ele>
        <time>2026-08-30T11:10:01.000Z</time>
      </trkpt>
      <trkpt lat="47.62709" lon="6.67396">
        <ele>409.6</ele>
        <time>2026-08-30T11:10:03.000Z</time>
      </trkpt>
      <trkpt lat="47.62704" lon="6.67397">
        <ele>410</ele>
        <time>2026-08-30T11:10:05.000Z</time>
      </trkpt>
      <trkpt lat="47.627" lon="6.674">
        <ele>410.6</ele>
        <time>2026-08-30T11:10:07.000Z</time>
      </trkpt>
      <trkpt lat="47.62695" lon="6.67404">
        <ele>411</ele>
        <time>2026-08-30T11:10:09.000Z</time>
      </trkpt>
      <trkpt lat="47.6269" lon="6.67407">
        <ele>411.4</ele>
        <time>2026-08-30T11:10:11.000Z</time>
      </trkpt>
      <trkpt lat="47.62684" lon="6.67409">
        <ele>411.8</ele>
        <time>2026-08-30T11:10:13.000Z</time>
      </trkpt>
      <trkpt lat="47.62679" lon="6.67411">
        <ele>412</ele>
        <time>2026-08-30T11:10:15.000Z</time>
      </trkpt>
      <trkpt lat="47.62674" lon="6.67412">
        <ele>412.2</ele>
        <time>2026-08-30T11:10:17.000Z</time>
      </trkpt>
      <trkpt lat="47.62669" lon="6.67414">
        <ele>412.4</ele>
        <time>2026-08-30T11:10:19.000Z</time>
      </trkpt>
      <trkpt lat="47.62663" lon="6.67416">
        <ele>412.4</ele>
        <time>2026-08-30T11:10:21.000Z</time>
      </trkpt>
      <trkpt lat="47.62656" lon="6.67417">
        <ele>412.2</ele>
        <time>2026-08-30T11:10:23.000Z</time>
      </trkpt>
      <trkpt lat="47.62648" lon="6.67416">
        <ele>412</ele>
        <time>2026-08-30T11:10:25.000Z</time>
      </trkpt>
      <trkpt lat="47.6264" lon="6.6741">
        <ele>411.6</ele>
        <time>2026-08-30T11:10:27.000Z</time>
      </trkpt>
      <trkpt lat="47.62634" lon="6.67402">
        <ele>411.6</ele>
        <time>2026-08-30T11:10:29.000Z</time>
      </trkpt>
      <trkpt lat="47.62629" lon="6.67396">
        <ele>411.8</ele>
        <time>2026-08-30T11:10:31.000Z</time>
      </trkpt>
      <trkpt lat="47.62625" lon="6.6739">
        <ele>412</ele>
        <time>2026-08-30T11:10:33.000Z</time>
      </trkpt>
      <trkpt lat="47.62621" lon="6.67385">
        <ele>412.4</ele>
        <time>2026-08-30T11:10:35.000Z</time>
      </trkpt>
      <trkpt lat="47.62617" lon="6.67381">
        <ele>413</ele>
        <time>2026-08-30T11:10:37.000Z</time>
      </trkpt>
      <trkpt lat="47.62614" lon="6.67378">
        <ele>413.6</ele>
        <time>2026-08-30T11:10:39.000Z</time>
      </trkpt>
      <trkpt lat="47.6261" lon="6.67376">
        <ele>414</ele>
        <time>2026-08-30T11:10:41.000Z</time>
      </trkpt>
      <trkpt lat="47.62605" lon="6.67376">
        <ele>414.4</ele>
        <time>2026-08-30T11:10:43.000Z</time>
      </trkpt>
      <trkpt lat="47.62599" lon="6.67376">
        <ele>414.6</ele>
        <time>2026-08-30T11:10:45.000Z</time>
      </trkpt>
      <trkpt lat="47.62593" lon="6.67377">
        <ele>415</ele>
        <time>2026-08-30T11:10:47.000Z</time>
      </trkpt>
      <trkpt lat="47.62588" lon="6.6738">
        <ele>415.4</ele>
        <time>2026-08-30T11:10:49.000Z</time>
      </trkpt>
      <trkpt lat="47.62584" lon="6.67382">
        <ele>416</ele>
        <time>2026-08-30T11:10:51.000Z</time>
      </trkpt>
      <trkpt lat="47.62579" lon="6.67385">
        <ele>416.2</ele>
        <time>2026-08-30T11:10:53.000Z</time>
      </trkpt>
      <trkpt lat="47.62573" lon="6.67386">
        <ele>416.6</ele>
        <time>2026-08-30T11:10:55.000Z</time>
      </trkpt>
      <trkpt lat="47.62568" lon="6.67386">
        <ele>417</ele>
        <time>2026-08-30T11:10:57.000Z</time>
      </trkpt>
      <trkpt lat="47.62562" lon="6.67384">
        <ele>417.2</ele>
        <time>2026-08-30T11:10:59.000Z</time>
      </trkpt>
      <trkpt lat="47.62557" lon="6.67382">
        <ele>417.6</ele>
        <time>2026-08-30T11:11:01.000Z</time>
      </trkpt>
      <trkpt lat="47.62551" lon="6.67381">
        <ele>417.8</ele>
        <time>2026-08-30T11:11:03.000Z</time>
      </trkpt>
      <trkpt lat="47.62546" lon="6.67381">
        <ele>418.2</ele>
        <time>2026-08-30T11:11:05.000Z</time>
      </trkpt>
      <trkpt lat="47.6254" lon="6.67382">
        <ele>418.4</ele>
        <time>2026-08-30T11:11:07.000Z</time>
      </trkpt>
      <trkpt lat="47.62534" lon="6.67384">
        <ele>418.4</ele>
        <time>2026-08-30T11:11:09.000Z</time>
      </trkpt>
      <trkpt lat="47.62529" lon="6.67385">
        <ele>418.8</ele>
        <time>2026-08-30T11:11:12.000Z</time>
      </trkpt>
      <trkpt lat="47.62524" lon="6.67386">
        <ele>419.2</ele>
        <time>2026-08-30T11:11:14.000Z</time>
      </trkpt>
      <trkpt lat="47.62519" lon="6.67388">
        <ele>419.6</ele>
        <time>2026-08-30T11:11:16.000Z</time>
      </trkpt>
      <trkpt lat="47.62514" lon="6.6739">
        <ele>419.6</ele>
        <time>2026-08-30T11:11:18.000Z</time>
      </trkpt>
      <trkpt lat="47.62507" lon="6.67393">
        <ele>419.6</ele>
        <time>2026-08-30T11:11:20.000Z</time>
      </trkpt>
      <trkpt lat="47.62499" lon="6.67398">
        <ele>419.4</ele>
        <time>2026-08-30T11:11:22.000Z</time>
      </trkpt>
      <trkpt lat="47.62491" lon="6.67409">
        <ele>419</ele>
        <time>2026-08-30T11:11:24.000Z</time>
      </trkpt>
      <trkpt lat="47.62489" lon="6.67422">
        <ele>418.6</ele>
        <time>2026-08-30T11:11:26.000Z</time>
      </trkpt>
      <trkpt lat="47.62493" lon="6.67434">
        <ele>418.4</ele>
        <time>2026-08-30T11:11:28.000Z</time>
      </trkpt>
      <trkpt lat="47.62498" lon="6.67447">
        <ele>418</ele>
        <time>2026-08-30T11:11:30.000Z</time>
      </trkpt>
      <trkpt lat="47.62504" lon="6.67459">
        <ele>417.8</ele>
        <time>2026-08-30T11:11:32.000Z</time>
      </trkpt>
      <trkpt lat="47.62509" lon="6.67472">
        <ele>417.2</ele>
        <time>2026-08-30T11:11:34.000Z</time>
      </trkpt>
      <trkpt lat="47.62514" lon="6.67487">
        <ele>416.6</ele>
        <time>2026-08-30T11:11:36.000Z</time>
      </trkpt>
      <trkpt lat="47.62517" lon="6.67503">
        <ele>416.2</ele>
        <time>2026-08-30T11:11:38.000Z</time>
      </trkpt>
      <trkpt lat="47.62519" lon="6.6752">
        <ele>415.6</ele>
        <time>2026-08-30T11:11:40.000Z</time>
      </trkpt>
      <trkpt lat="47.62521" lon="6.67534">
        <ele>414.8</ele>
        <time>2026-08-30T11:11:42.000Z</time>
      </trkpt>
      <trkpt lat="47.62524" lon="6.67552">
        <ele>414.2</ele>
        <time>2026-08-30T11:11:44.000Z</time>
      </trkpt>
      <trkpt lat="47.62527" lon="6.67572">
        <ele>413.8</ele>
        <time>2026-08-30T11:11:46.000Z</time>
      </trkpt>
      <trkpt lat="47.62529" lon="6.67593">
        <ele>413.4</ele>
        <time>2026-08-30T11:11:48.000Z</time>
      </trkpt>
      <trkpt lat="47.62533" lon="6.67615">
        <ele>413</ele>
        <time>2026-08-30T11:11:50.000Z</time>
      </trkpt>
      <trkpt lat="47.62538" lon="6.67636">
        <ele>412.6</ele>
        <time>2026-08-30T11:11:52.000Z</time>
      </trkpt>
      <trkpt lat="47.62541" lon="6.67654">
        <ele>412.4</ele>
        <time>2026-08-30T11:11:54.000Z</time>
      </trkpt>
      <trkpt lat="47.62539" lon="6.67672">
        <ele>412.2</ele>
        <time>2026-08-30T11:11:56.000Z</time>
      </trkpt>
      <trkpt lat="47.62538" lon="6.67688">
        <ele>412</ele>
        <time>2026-08-30T11:11:58.000Z</time>
      </trkpt>
      <trkpt lat="47.62532" lon="6.67701">
        <ele>411.8</ele>
        <time>2026-08-30T11:12:00.000Z</time>
      </trkpt>
      <trkpt lat="47.62522" lon="6.67712">
        <ele>411.8</ele>
        <time>2026-08-30T11:12:02.000Z</time>
      </trkpt>
      <trkpt lat="47.62511" lon="6.67721">
        <ele>411.8</ele>
        <time>2026-08-30T11:12:04.000Z</time>
      </trkpt>
      <trkpt lat="47.625" lon="6.67724">
        <ele>411.8</ele>
        <time>2026-08-30T11:12:06.000Z</time>
      </trkpt>
      <trkpt lat="47.62488" lon="6.67724">
        <ele>411.6</ele>
        <time>2026-08-30T11:12:08.000Z</time>
      </trkpt>
      <trkpt lat="47.62476" lon="6.67723">
        <ele>411.2</ele>
        <time>2026-08-30T11:12:10.000Z</time>
      </trkpt>
      <trkpt lat="47.62466" lon="6.67725">
        <ele>410.6</ele>
        <time>2026-08-30T11:12:12.000Z</time>
      </trkpt>
      <trkpt lat="47.62462" lon="6.67728">
        <ele>410.2</ele>
        <time>2026-08-30T11:12:14.000Z</time>
      </trkpt>
      <trkpt lat="47.62461" lon="6.67728">
        <ele>410</ele>
        <time>2026-08-30T11:12:16.000Z</time>
      </trkpt>
      <trkpt lat="47.62461" lon="6.67728">
        <ele>410</ele>
        <time>2026-08-30T11:12:18.000Z</time>
      </trkpt>
      <trkpt lat="47.62461" lon="6.67728">
        <ele>410</ele>
        <time>2026-08-30T11:12:20.000Z</time>
      </trkpt>
      <trkpt lat="47.62461" lon="6.67729">
        <ele>410</ele>
        <time>2026-08-30T11:12:22.000Z</time>
      </trkpt>
      <trkpt lat="47.62462" lon="6.6773">
        <ele>410</ele>
        <time>2026-08-30T11:12:24.000Z</time>
      </trkpt>
      <trkpt lat="47.62462" lon="6.67729">
        <ele>410.2</ele>
        <time>2026-08-30T11:12:26.000Z</time>
      </trkpt>
      <trkpt lat="47.62463" lon="6.67728">
        <ele>410.4</ele>
        <time>2026-08-30T11:12:28.000Z</time>
      </trkpt>
      <trkpt lat="47.62463" lon="6.67728">
        <ele>410.6</ele>
        <time>2026-08-30T11:12:30.000Z</time>
      </trkpt>
      <trkpt lat="47.62463" lon="6.67727">
        <ele>410.8</ele>
        <time>2026-08-30T11:12:32.000Z</time>
      </trkpt>
      <trkpt lat="47.62463" lon="6.67727">
        <ele>411</ele>
        <time>2026-08-30T11:12:34.000Z</time>
      </trkpt>
      <trkpt lat="47.62463" lon="6.67728">
        <ele>411.2</ele>
        <time>2026-08-30T11:12:36.000Z</time>
      </trkpt>
      <trkpt lat="47.62463" lon="6.67728">
        <ele>411.2</ele>
        <time>2026-08-30T11:12:38.000Z</time>
      </trkpt>
      <trkpt lat="47.62463" lon="6.67728">
        <ele>411.2</ele>
        <time>2026-08-30T11:12:41.000Z</time>
      </trkpt>
      <trkpt lat="47.62463" lon="6.67726">
        <ele>411.4</ele>
        <time>2026-08-30T11:12:43.000Z</time>
      </trkpt>
      <trkpt lat="47.62463" lon="6.67726">
        <ele>411.6</ele>
        <time>2026-08-30T11:12:45.000Z</time>
      </trkpt>
      <trkpt lat="47.62463" lon="6.67726">
        <ele>411.8</ele>
        <time>2026-08-30T11:12:47.000Z</time>
      </trkpt>
      <trkpt lat="47.62463" lon="6.67726">
        <ele>411.8</ele>
        <time>2026-08-30T11:12:49.000Z</time>
      </trkpt>
      <trkpt lat="47.62463" lon="6.67726">
        <ele>411.8</ele>
        <time>2026-08-30T11:12:51.000Z</time>
      </trkpt>
      <trkpt lat="47.62463" lon="6.67726">
        <ele>411.8</ele>
        <time>2026-08-30T11:12:53.000Z</time>
      </trkpt>
      <trkpt lat="47.62463" lon="6.67725">
        <ele>412</ele>
        <time>2026-08-30T11:12:55.000Z</time>
      </trkpt>
      <trkpt lat="47.62463" lon="6.67723">
        <ele>412.2</ele>
        <time>2026-08-30T11:12:57.000Z</time>
      </trkpt>
      <trkpt lat="47.62463" lon="6.67719">
        <ele>412.8</ele>
        <time>2026-08-30T11:12:59.000Z</time>
      </trkpt>
      <trkpt lat="47.62462" lon="6.67716">
        <ele>413.4</ele>
        <time>2026-08-30T11:13:01.000Z</time>
      </trkpt>
      <trkpt lat="47.62462" lon="6.67712">
        <ele>414</ele>
        <time>2026-08-30T11:13:03.000Z</time>
      </trkpt>
      <trkpt lat="47.62462" lon="6.67709">
        <ele>414.6</ele>
        <time>2026-08-30T11:13:05.000Z</time>
      </trkpt>
      <trkpt lat="47.62463" lon="6.67706">
        <ele>415.2</ele>
        <time>2026-08-30T11:13:07.000Z</time>
      </trkpt>
      <trkpt lat="47.62463" lon="6.67703">
        <ele>415.8</ele>
        <time>2026-08-30T11:13:09.000Z</time>
      </trkpt>
      <trkpt lat="47.62464" lon="6.677">
        <ele>416.4</ele>
        <time>2026-08-30T11:13:11.000Z</time>
      </trkpt>
      <trkpt lat="47.62464" lon="6.67696">
        <ele>416.8</ele>
        <time>2026-08-30T11:13:13.000Z</time>
      </trkpt>
      <trkpt lat="47.62465" lon="6.67693">
        <ele>417.4</ele>
        <time>2026-08-30T11:13:15.000Z</time>
      </trkpt>
      <trkpt lat="47.62465" lon="6.6769">
        <ele>417.8</ele>
        <time>2026-08-30T11:13:17.000Z</time>
      </trkpt>
      <trkpt lat="47.62466" lon="6.67688">
        <ele>418.2</ele>
        <time>2026-08-30T11:13:19.000Z</time>
      </trkpt>
      <trkpt lat="47.62468" lon="6.67684">
        <ele>418.8</ele>
        <time>2026-08-30T11:13:21.000Z</time>
      </trkpt>
      <trkpt lat="47.62469" lon="6.6768">
        <ele>419.2</ele>
        <time>2026-08-30T11:13:23.000Z</time>
      </trkpt>
      <trkpt lat="47.6247" lon="6.67677">
        <ele>419.4</ele>
        <time>2026-08-30T11:13:25.000Z</time>
      </trkpt>
      <trkpt lat="47.6247" lon="6.67674">
        <ele>419.8</ele>
        <time>2026-08-30T11:13:27.000Z</time>
      </trkpt>
      <trkpt lat="47.62471" lon="6.67671">
        <ele>420.2</ele>
        <time>2026-08-30T11:13:29.000Z</time>
      </trkpt>
      <trkpt lat="47.62472" lon="6.67668">
        <ele>420.6</ele>
        <time>2026-08-30T11:13:31.000Z</time>
      </trkpt>
      <trkpt lat="47.62472" lon="6.67665">
        <ele>421</ele>
        <time>2026-08-30T11:13:33.000Z</time>
      </trkpt>
      <trkpt lat="47.62472" lon="6.67662">
        <ele>421.4</ele>
        <time>2026-08-30T11:13:35.000Z</time>
      </trkpt>
      <trkpt lat="47.62473" lon="6.67659">
        <ele>421.8</ele>
        <time>2026-08-30T11:13:37.000Z</time>
      </trkpt>
      <trkpt lat="47.62473" lon="6.67655">
        <ele>422</ele>
        <time>2026-08-30T11:13:39.000Z</time>
      </trkpt>
      <trkpt lat="47.62474" lon="6.67652">
        <ele>422.4</ele>
        <time>2026-08-30T11:13:41.000Z</time>
      </trkpt>
      <trkpt lat="47.62475" lon="6.67648">
        <ele>422.6</ele>
        <time>2026-08-30T11:13:43.000Z</time>
      </trkpt>
      <trkpt lat="47.62476" lon="6.67645">
        <ele>423</ele>
        <time>2026-08-30T11:13:45.000Z</time>
      </trkpt>
      <trkpt lat="47.62476" lon="6.67641">
        <ele>423.2</ele>
        <time>2026-08-30T11:13:47.000Z</time>
      </trkpt>
      <trkpt lat="47.62476" lon="6.67637">
        <ele>423.6</ele>
        <time>2026-08-30T11:13:49.000Z</time>
      </trkpt>
      <trkpt lat="47.62476" lon="6.67633">
        <ele>423.8</ele>
        <time>2026-08-30T11:13:51.000Z</time>
      </trkpt>
      <trkpt lat="47.62476" lon="6.67629">
        <ele>424.2</ele>
        <time>2026-08-30T11:13:53.000Z</time>
      </trkpt>
      <trkpt lat="47.62476" lon="6.67625">
        <ele>424.4</ele>
        <time>2026-08-30T11:13:55.000Z</time>
      </trkpt>
      <trkpt lat="47.62476" lon="6.67621">
        <ele>424.6</ele>
        <time>2026-08-30T11:13:57.000Z</time>
      </trkpt>
      <trkpt lat="47.62476" lon="6.67617">
        <ele>425</ele>
        <time>2026-08-30T11:13:59.000Z</time>
      </trkpt>
      <trkpt lat="47.62476" lon="6.67613">
        <ele>425.2</ele>
        <time>2026-08-30T11:14:01.000Z</time>
      </trkpt>
      <trkpt lat="47.62475" lon="6.6761">
        <ele>425.6</ele>
        <time>2026-08-30T11:14:03.000Z</time>
      </trkpt>
      <trkpt lat="47.62475" lon="6.67606">
        <ele>426</ele>
        <time>2026-08-30T11:14:05.000Z</time>
      </trkpt>
      <trkpt lat="47.62474" lon="6.67602">
        <ele>426.2</ele>
        <time>2026-08-30T11:14:07.000Z</time>
      </trkpt>
      <trkpt lat="47.62473" lon="6.67599">
        <ele>426.4</ele>
        <time>2026-08-30T11:14:09.000Z</time>
      </trkpt>
      <trkpt lat="47.62472" lon="6.67596">
        <ele>426.8</ele>
        <time>2026-08-30T11:14:11.000Z</time>
      </trkpt>
      <trkpt lat="47.6247" lon="6.67592">
        <ele>427</ele>
        <time>2026-08-30T11:14:13.000Z</time>
      </trkpt>
      <trkpt lat="47.62468" lon="6.67589">
        <ele>427.2</ele>
        <time>2026-08-30T11:14:16.000Z</time>
      </trkpt>
      <trkpt lat="47.62466" lon="6.67586">
        <ele>427.6</ele>
        <time>2026-08-30T11:14:18.000Z</time>
      </trkpt>
      <trkpt lat="47.62465" lon="6.67583">
        <ele>427.8</ele>
        <time>2026-08-30T11:14:20.000Z</time>
      </trkpt>
      <trkpt lat="47.62463" lon="6.6758">
        <ele>428</ele>
        <time>2026-08-30T11:14:22.000Z</time>
      </trkpt>
      <trkpt lat="47.62461" lon="6.67576">
        <ele>428.2</ele>
        <time>2026-08-30T11:14:24.000Z</time>
      </trkpt>
      <trkpt lat="47.6246" lon="6.67572">
        <ele>428.2</ele>
        <time>2026-08-30T11:14:26.000Z</time>
      </trkpt>
      <trkpt lat="47.62458" lon="6.67568">
        <ele>428.6</ele>
        <time>2026-08-30T11:14:28.000Z</time>
      </trkpt>
      <trkpt lat="47.62456" lon="6.67563">
        <ele>428.8</ele>
        <time>2026-08-30T11:14:30.000Z</time>
      </trkpt>
      <trkpt lat="47.62454" lon="6.67558">
        <ele>429</ele>
        <time>2026-08-30T11:14:32.000Z</time>
      </trkpt>
      <trkpt lat="47.62453" lon="6.67553">
        <ele>429.2</ele>
        <time>2026-08-30T11:14:34.000Z</time>
      </trkpt>
      <trkpt lat="47.62452" lon="6.67548">
        <ele>429.4</ele>
        <time>2026-08-30T11:14:36.000Z</time>
      </trkpt>
      <trkpt lat="47.6245" lon="6.67543">
        <ele>429.6</ele>
        <time>2026-08-30T11:14:38.000Z</time>
      </trkpt>
      <trkpt lat="47.62449" lon="6.67537">
        <ele>429.8</ele>
        <time>2026-08-30T11:14:40.000Z</time>
      </trkpt>
      <trkpt lat="47.62447" lon="6.67532">
        <ele>430</ele>
        <time>2026-08-30T11:14:42.000Z</time>
      </trkpt>
      <trkpt lat="47.62445" lon="6.67527">
        <ele>430.2</ele>
        <time>2026-08-30T11:14:44.000Z</time>
      </trkpt>
      <trkpt lat="47.62444" lon="6.67521">
        <ele>430.6</ele>
        <time>2026-08-30T11:14:46.000Z</time>
      </trkpt>
      <trkpt lat="47.62442" lon="6.67516">
        <ele>430.8</ele>
        <time>2026-08-30T11:14:48.000Z</time>
      </trkpt>
      <trkpt lat="47.62439" lon="6.67511">
        <ele>431</ele>
        <time>2026-08-30T11:14:50.000Z</time>
      </trkpt>
      <trkpt lat="47.62435" lon="6.6751">
        <ele>431.4</ele>
        <time>2026-08-30T11:14:52.000Z</time>
      </trkpt>
      <trkpt lat="47.6243" lon="6.67511">
        <ele>431.6</ele>
        <time>2026-08-30T11:14:54.000Z</time>
      </trkpt>
      <trkpt lat="47.62424" lon="6.67511">
        <ele>431.6</ele>
        <time>2026-08-30T11:14:56.000Z</time>
      </trkpt>
      <trkpt lat="47.62418" lon="6.67509">
        <ele>431.8</ele>
        <time>2026-08-30T11:14:58.000Z</time>
      </trkpt>
      <trkpt lat="47.62411" lon="6.67506">
        <ele>431.8</ele>
        <time>2026-08-30T11:15:00.000Z</time>
      </trkpt>
      <trkpt lat="47.62404" lon="6.67502">
        <ele>432</ele>
        <time>2026-08-30T11:15:02.000Z</time>
      </trkpt>
      <trkpt lat="47.62398" lon="6.67497">
        <ele>432.2</ele>
        <time>2026-08-30T11:15:04.000Z</time>
      </trkpt>
      <trkpt lat="47.62393" lon="6.67496">
        <ele>432.2</ele>
        <time>2026-08-30T11:15:06.000Z</time>
      </trkpt>
      <trkpt lat="47.62387" lon="6.67496">
        <ele>432.2</ele>
        <time>2026-08-30T11:15:08.000Z</time>
      </trkpt>
      <trkpt lat="47.6238" lon="6.67494">
        <ele>432.2</ele>
        <time>2026-08-30T11:15:10.000Z</time>
      </trkpt>
      <trkpt lat="47.62373" lon="6.67493">
        <ele>432.2</ele>
        <time>2026-08-30T11:15:12.000Z</time>
      </trkpt>
      <trkpt lat="47.62362" lon="6.67494">
        <ele>432</ele>
        <time>2026-08-30T11:15:14.000Z</time>
      </trkpt>
      <trkpt lat="47.62351" lon="6.67497">
        <ele>432</ele>
        <time>2026-08-30T11:15:16.000Z</time>
      </trkpt>
      <trkpt lat="47.62343" lon="6.67503">
        <ele>432.4</ele>
        <time>2026-08-30T11:15:18.000Z</time>
      </trkpt>
      <trkpt lat="47.62338" lon="6.67508">
        <ele>432.8</ele>
        <time>2026-08-30T11:15:20.000Z</time>
      </trkpt>
      <trkpt lat="47.62334" lon="6.67514">
        <ele>433.2</ele>
        <time>2026-08-30T11:15:22.000Z</time>
      </trkpt>
      <trkpt lat="47.62329" lon="6.67519">
        <ele>433.4</ele>
        <time>2026-08-30T11:15:24.000Z</time>
      </trkpt>
      <trkpt lat="47.62325" lon="6.67525">
        <ele>433.8</ele>
        <time>2026-08-30T11:15:26.000Z</time>
      </trkpt>
      <trkpt lat="47.62321" lon="6.67531">
        <ele>434.2</ele>
        <time>2026-08-30T11:15:28.000Z</time>
      </trkpt>
      <trkpt lat="47.62318" lon="6.67538">
        <ele>434.4</ele>
        <time>2026-08-30T11:15:30.000Z</time>
      </trkpt>
      <trkpt lat="47.62315" lon="6.67546">
        <ele>434.4</ele>
        <time>2026-08-30T11:15:32.000Z</time>
      </trkpt>
      <trkpt lat="47.62312" lon="6.67556">
        <ele>434.6</ele>
        <time>2026-08-30T11:15:34.000Z</time>
      </trkpt>
      <trkpt lat="47.62311" lon="6.67567">
        <ele>434.6</ele>
        <time>2026-08-30T11:15:36.000Z</time>
      </trkpt>
      <trkpt lat="47.62308" lon="6.67578">
        <ele>434.4</ele>
        <time>2026-08-30T11:15:38.000Z</time>
      </trkpt>
      <trkpt lat="47.62306" lon="6.67589">
        <ele>434.2</ele>
        <time>2026-08-30T11:15:40.000Z</time>
      </trkpt>
      <trkpt lat="47.62302" lon="6.67598">
        <ele>434</ele>
        <time>2026-08-30T11:15:42.000Z</time>
      </trkpt>
      <trkpt lat="47.62298" lon="6.67605">
        <ele>434</ele>
        <time>2026-08-30T11:15:44.000Z</time>
      </trkpt>
      <trkpt lat="47.62293" lon="6.6761">
        <ele>434.2</ele>
        <time>2026-08-30T11:15:46.000Z</time>
      </trkpt>
      <trkpt lat="47.62289" lon="6.67613">
        <ele>434.6</ele>
        <time>2026-08-30T11:15:48.000Z</time>
      </trkpt>
      <trkpt lat="47.62284" lon="6.67617">
        <ele>434.8</ele>
        <time>2026-08-30T11:15:50.000Z</time>
      </trkpt>
      <trkpt lat="47.62278" lon="6.6762">
        <ele>435.2</ele>
        <time>2026-08-30T11:15:52.000Z</time>
      </trkpt>
      <trkpt lat="47.62272" lon="6.67624">
        <ele>435.6</ele>
        <time>2026-08-30T11:15:54.000Z</time>
      </trkpt>
      <trkpt lat="47.62266" lon="6.67628">
        <ele>435.8</ele>
        <time>2026-08-30T11:15:57.000Z</time>
      </trkpt>
      <trkpt lat="47.62259" lon="6.6763">
        <ele>435.8</ele>
        <time>2026-08-30T11:15:59.000Z</time>
      </trkpt>
      <trkpt lat="47.62251" lon="6.67631">
        <ele>435.8</ele>
        <time>2026-08-30T11:16:01.000Z</time>
      </trkpt>
      <trkpt lat="47.62242" lon="6.67629">
        <ele>435.6</ele>
        <time>2026-08-30T11:16:03.000Z</time>
      </trkpt>
      <trkpt lat="47.62231" lon="6.67628">
        <ele>435</ele>
        <time>2026-08-30T11:16:05.000Z</time>
      </trkpt>
      <trkpt lat="47.62222" lon="6.67634">
        <ele>434.6</ele>
        <time>2026-08-30T11:16:07.000Z</time>
      </trkpt>
      <trkpt lat="47.62216" lon="6.67647">
        <ele>434.4</ele>
        <time>2026-08-30T11:16:09.000Z</time>
      </trkpt>
      <trkpt lat="47.62213" lon="6.67662">
        <ele>434.2</ele>
        <time>2026-08-30T11:16:11.000Z</time>
      </trkpt>
      <trkpt lat="47.62209" lon="6.67672">
        <ele>434.4</ele>
        <time>2026-08-30T11:16:13.000Z</time>
      </trkpt>
      <trkpt lat="47.62206" lon="6.67679">
        <ele>434.6</ele>
        <time>2026-08-30T11:16:15.000Z</time>
      </trkpt>
      <trkpt lat="47.62203" lon="6.67683">
        <ele>435</ele>
        <time>2026-08-30T11:16:17.000Z</time>
      </trkpt>
      <trkpt lat="47.62201" lon="6.67688">
        <ele>435.4</ele>
        <time>2026-08-30T11:16:19.000Z</time>
      </trkpt>
      <trkpt lat="47.62199" lon="6.67692">
        <ele>435.8</ele>
        <time>2026-08-30T11:16:21.000Z</time>
      </trkpt>
      <trkpt lat="47.62196" lon="6.67697">
        <ele>436.2</ele>
        <time>2026-08-30T11:16:23.000Z</time>
      </trkpt>
      <trkpt lat="47.62193" lon="6.67701">
        <ele>436.6</ele>
        <time>2026-08-30T11:16:25.000Z</time>
      </trkpt>
      <trkpt lat="47.62189" lon="6.67704">
        <ele>436.8</ele>
        <time>2026-08-30T11:16:27.000Z</time>
      </trkpt>
      <trkpt lat="47.62186" lon="6.67709">
        <ele>437.2</ele>
        <time>2026-08-30T11:16:29.000Z</time>
      </trkpt>
      <trkpt lat="47.62184" lon="6.67713">
        <ele>437.2</ele>
        <time>2026-08-30T11:16:31.000Z</time>
      </trkpt>
      <trkpt lat="47.62181" lon="6.67718">
        <ele>437.2</ele>
        <time>2026-08-30T11:16:33.000Z</time>
      </trkpt>
      <trkpt lat="47.62175" lon="6.67724">
        <ele>437.2</ele>
        <time>2026-08-30T11:16:35.000Z</time>
      </trkpt>
      <trkpt lat="47.62169" lon="6.67729">
        <ele>437.2</ele>
        <time>2026-08-30T11:16:37.000Z</time>
      </trkpt>
      <trkpt lat="47.62162" lon="6.67733">
        <ele>437</ele>
        <time>2026-08-30T11:16:39.000Z</time>
      </trkpt>
      <trkpt lat="47.62154" lon="6.67738">
        <ele>436.8</ele>
        <time>2026-08-30T11:16:41.000Z</time>
      </trkpt>
      <trkpt lat="47.62146" lon="6.67742">
        <ele>436.8</ele>
        <time>2026-08-30T11:16:43.000Z</time>
      </trkpt>
      <trkpt lat="47.62138" lon="6.67745">
        <ele>436.6</ele>
        <time>2026-08-30T11:16:45.000Z</time>
      </trkpt>
      <trkpt lat="47.62128" lon="6.67748">
        <ele>436.2</ele>
        <time>2026-08-30T11:16:47.000Z</time>
      </trkpt>
      <trkpt lat="47.62117" lon="6.6775">
        <ele>435.8</ele>
        <time>2026-08-30T11:16:49.000Z</time>
      </trkpt>
      <trkpt lat="47.62106" lon="6.67749">
        <ele>435.4</ele>
        <time>2026-08-30T11:16:51.000Z</time>
      </trkpt>
      <trkpt lat="47.62094" lon="6.67747">
        <ele>434.8</ele>
        <time>2026-08-30T11:16:53.000Z</time>
      </trkpt>
      <trkpt lat="47.62084" lon="6.67751">
        <ele>434.4</ele>
        <time>2026-08-30T11:16:55.000Z</time>
      </trkpt>
      <trkpt lat="47.62079" lon="6.67762">
        <ele>434.2</ele>
        <time>2026-08-30T11:16:57.000Z</time>
      </trkpt>
      <trkpt lat="47.62078" lon="6.67774">
        <ele>434</ele>
        <time>2026-08-30T11:16:59.000Z</time>
      </trkpt>
      <trkpt lat="47.62079" lon="6.67786">
        <ele>433.8</ele>
        <time>2026-08-30T11:17:01.000Z</time>
      </trkpt>
      <trkpt lat="47.62078" lon="6.678">
        <ele>433.6</ele>
        <time>2026-08-30T11:17:03.000Z</time>
      </trkpt>
      <trkpt lat="47.62075" lon="6.67813">
        <ele>433.4</ele>
        <time>2026-08-30T11:17:05.000Z</time>
      </trkpt>
      <trkpt lat="47.62071" lon="6.67825">
        <ele>433.4</ele>
        <time>2026-08-30T11:17:07.000Z</time>
      </trkpt>
      <trkpt lat="47.62064" lon="6.67834">
        <ele>433.6</ele>
        <time>2026-08-30T11:17:09.000Z</time>
      </trkpt>
      <trkpt lat="47.62058" lon="6.67838">
        <ele>433.8</ele>
        <time>2026-08-30T11:17:11.000Z</time>
      </trkpt>
      <trkpt lat="47.62051" lon="6.67843">
        <ele>434</ele>
        <time>2026-08-30T11:17:13.000Z</time>
      </trkpt>
      <trkpt lat="47.62041" lon="6.67849">
        <ele>434.2</ele>
        <time>2026-08-30T11:17:15.000Z</time>
      </trkpt>
      <trkpt lat="47.62031" lon="6.67857">
        <ele>434.4</ele>
        <time>2026-08-30T11:17:17.000Z</time>
      </trkpt>
      <trkpt lat="47.62024" lon="6.67868">
        <ele>434.6</ele>
        <time>2026-08-30T11:17:19.000Z</time>
      </trkpt>
      <trkpt lat="47.6202" lon="6.6788">
        <ele>435</ele>
        <time>2026-08-30T11:17:21.000Z</time>
      </trkpt>
      <trkpt lat="47.62016" lon="6.67889">
        <ele>435.4</ele>
        <time>2026-08-30T11:17:23.000Z</time>
      </trkpt>
      <trkpt lat="47.62012" lon="6.67894">
        <ele>435.8</ele>
        <time>2026-08-30T11:17:25.000Z</time>
      </trkpt>
      <trkpt lat="47.62009" lon="6.67896">
        <ele>436.2</ele>
        <time>2026-08-30T11:17:27.000Z</time>
      </trkpt>
      <trkpt lat="47.62006" lon="6.67898">
        <ele>436.6</ele>
        <time>2026-08-30T11:17:29.000Z</time>
      </trkpt>
      <trkpt lat="47.62002" lon="6.67901">
        <ele>437</ele>
        <time>2026-08-30T11:17:31.000Z</time>
      </trkpt>
      <trkpt lat="47.61998" lon="6.67905">
        <ele>437.4</ele>
        <time>2026-08-30T11:17:33.000Z</time>
      </trkpt>
      <trkpt lat="47.61993" lon="6.67908">
        <ele>437.8</ele>
        <time>2026-08-30T11:17:35.000Z</time>
      </trkpt>
      <trkpt lat="47.61989" lon="6.67911">
        <ele>438.2</ele>
        <time>2026-08-30T11:17:37.000Z</time>
      </trkpt>
      <trkpt lat="47.61986" lon="6.67914">
        <ele>438.6</ele>
        <time>2026-08-30T11:17:40.000Z</time>
      </trkpt>
      <trkpt lat="47.61982" lon="6.67918">
        <ele>439.2</ele>
        <time>2026-08-30T11:17:42.000Z</time>
      </trkpt>
      <trkpt lat="47.61979" lon="6.67922">
        <ele>439.6</ele>
        <time>2026-08-30T11:17:44.000Z</time>
      </trkpt>
      <trkpt lat="47.61976" lon="6.67926">
        <ele>440</ele>
        <time>2026-08-30T11:17:46.000Z</time>
      </trkpt>
      <trkpt lat="47.61974" lon="6.6793">
        <ele>440.4</ele>
        <time>2026-08-30T11:17:48.000Z</time>
      </trkpt>
      <trkpt lat="47.61972" lon="6.67934">
        <ele>440.8</ele>
        <time>2026-08-30T11:17:50.000Z</time>
      </trkpt>
      <trkpt lat="47.6197" lon="6.67937">
        <ele>441.4</ele>
        <time>2026-08-30T11:17:52.000Z</time>
      </trkpt>
      <trkpt lat="47.61968" lon="6.6794">
        <ele>441.6</ele>
        <time>2026-08-30T11:17:54.000Z</time>
      </trkpt>
      <trkpt lat="47.61966" lon="6.67944">
        <ele>442</ele>
        <time>2026-08-30T11:17:56.000Z</time>
      </trkpt>
      <trkpt lat="47.61964" lon="6.67947">
        <ele>442.4</ele>
        <time>2026-08-30T11:17:58.000Z</time>
      </trkpt>
      <trkpt lat="47.61961" lon="6.6795">
        <ele>442.8</ele>
        <time>2026-08-30T11:18:00.000Z</time>
      </trkpt>
      <trkpt lat="47.61958" lon="6.67954">
        <ele>443</ele>
        <time>2026-08-30T11:18:02.000Z</time>
      </trkpt>
      <trkpt lat="47.61955" lon="6.67957">
        <ele>443.4</ele>
        <time>2026-08-30T11:18:04.000Z</time>
      </trkpt>
      <trkpt lat="47.61953" lon="6.67959">
        <ele>443.8</ele>
        <time>2026-08-30T11:18:06.000Z</time>
      </trkpt>
      <trkpt lat="47.61951" lon="6.67961">
        <ele>444.2</ele>
        <time>2026-08-30T11:18:08.000Z</time>
      </trkpt>
      <trkpt lat="47.61949" lon="6.67964">
        <ele>444.6</ele>
        <time>2026-08-30T11:18:10.000Z</time>
      </trkpt>
      <trkpt lat="47.61947" lon="6.67966">
        <ele>444.8</ele>
        <time>2026-08-30T11:18:12.000Z</time>
      </trkpt>
      <trkpt lat="47.61945" lon="6.67968">
        <ele>445.2</ele>
        <time>2026-08-30T11:18:14.000Z</time>
      </trkpt>
      <trkpt lat="47.61942" lon="6.6797">
        <ele>445.6</ele>
        <time>2026-08-30T11:18:16.000Z</time>
      </trkpt>
      <trkpt lat="47.61939" lon="6.67972">
        <ele>446</ele>
        <time>2026-08-30T11:18:18.000Z</time>
      </trkpt>
      <trkpt lat="47.61937" lon="6.67974">
        <ele>446.2</ele>
        <time>2026-08-30T11:18:20.000Z</time>
      </trkpt>
      <trkpt lat="47.61934" lon="6.67976">
        <ele>446.6</ele>
        <time>2026-08-30T11:18:22.000Z</time>
      </trkpt>
      <trkpt lat="47.61932" lon="6.67978">
        <ele>447</ele>
        <time>2026-08-30T11:18:24.000Z</time>
      </trkpt>
      <trkpt lat="47.61928" lon="6.67981">
        <ele>447.4</ele>
        <time>2026-08-30T11:18:26.000Z</time>
      </trkpt>
      <trkpt lat="47.61925" lon="6.67985">
        <ele>447.6</ele>
        <time>2026-08-30T11:18:28.000Z</time>
      </trkpt>
      <trkpt lat="47.61923" lon="6.67989">
        <ele>448</ele>
        <time>2026-08-30T11:18:30.000Z</time>
      </trkpt>
      <trkpt lat="47.61921" lon="6.67992">
        <ele>448.2</ele>
        <time>2026-08-30T11:18:32.000Z</time>
      </trkpt>
      <trkpt lat="47.61919" lon="6.67995">
        <ele>448.6</ele>
        <time>2026-08-30T11:18:34.000Z</time>
      </trkpt>
      <trkpt lat="47.61917" lon="6.67998">
        <ele>448.8</ele>
        <time>2026-08-30T11:18:36.000Z</time>
      </trkpt>
      <trkpt lat="47.61914" lon="6.68">
        <ele>449.2</ele>
        <time>2026-08-30T11:18:38.000Z</time>
      </trkpt>
      <trkpt lat="47.61912" lon="6.68003">
        <ele>449.4</ele>
        <time>2026-08-30T11:18:40.000Z</time>
      </trkpt>
      <trkpt lat="47.6191" lon="6.68005">
        <ele>449.6</ele>
        <time>2026-08-30T11:18:42.000Z</time>
      </trkpt>
      <trkpt lat="47.61907" lon="6.6801">
        <ele>449.6</ele>
        <time>2026-08-30T11:18:44.000Z</time>
      </trkpt>
      <trkpt lat="47.61904" lon="6.68015">
        <ele>449.6</ele>
        <time>2026-08-30T11:18:46.000Z</time>
      </trkpt>
      <trkpt lat="47.61902" lon="6.6802">
        <ele>449.6</ele>
        <time>2026-08-30T11:18:48.000Z</time>
      </trkpt>
      <trkpt lat="47.61901" lon="6.68025">
        <ele>449.6</ele>
        <time>2026-08-30T11:18:50.000Z</time>
      </trkpt>
      <trkpt lat="47.61899" lon="6.6803">
        <ele>449.6</ele>
        <time>2026-08-30T11:18:52.000Z</time>
      </trkpt>
      <trkpt lat="47.61897" lon="6.68036">
        <ele>449.8</ele>
        <time>2026-08-30T11:18:54.000Z</time>
      </trkpt>
      <trkpt lat="47.61897" lon="6.68042">
        <ele>450</ele>
        <time>2026-08-30T11:18:56.000Z</time>
      </trkpt>
      <trkpt lat="47.619" lon="6.68049">
        <ele>450.4</ele>
        <time>2026-08-30T11:18:58.000Z</time>
      </trkpt>
      <trkpt lat="47.61902" lon="6.68055">
        <ele>450.8</ele>
        <time>2026-08-30T11:19:00.000Z</time>
      </trkpt>
      <trkpt lat="47.61904" lon="6.6806">
        <ele>451.2</ele>
        <time>2026-08-30T11:19:02.000Z</time>
      </trkpt>
      <trkpt lat="47.61907" lon="6.68065">
        <ele>451.6</ele>
        <time>2026-08-30T11:19:04.000Z</time>
      </trkpt>
      <trkpt lat="47.61909" lon="6.6807">
        <ele>451.8</ele>
        <time>2026-08-30T11:19:06.000Z</time>
      </trkpt>
      <trkpt lat="47.61911" lon="6.68075">
        <ele>452.2</ele>
        <time>2026-08-30T11:19:08.000Z</time>
      </trkpt>
      <trkpt lat="47.61913" lon="6.6808">
        <ele>452.6</ele>
        <time>2026-08-30T11:19:10.000Z</time>
      </trkpt>
      <trkpt lat="47.61915" lon="6.68084">
        <ele>453</ele>
        <time>2026-08-30T11:19:12.000Z</time>
      </trkpt>
      <trkpt lat="47.61916" lon="6.68088">
        <ele>453.4</ele>
        <time>2026-08-30T11:19:15.000Z</time>
      </trkpt>
      <trkpt lat="47.61918" lon="6.68093">
        <ele>453.6</ele>
        <time>2026-08-30T11:19:17.000Z</time>
      </trkpt>
      <trkpt lat="47.6192" lon="6.68098">
        <ele>454</ele>
        <time>2026-08-30T11:19:19.000Z</time>
      </trkpt>
      <trkpt lat="47.61922" lon="6.68103">
        <ele>454.2</ele>
        <time>2026-08-30T11:19:21.000Z</time>
      </trkpt>
      <trkpt lat="47.61922" lon="6.68107">
        <ele>454.4</ele>
        <time>2026-08-30T11:19:23.000Z</time>
      </trkpt>
      <trkpt lat="47.61923" lon="6.68111">
        <ele>455</ele>
        <time>2026-08-30T11:19:25.000Z</time>
      </trkpt>
      <trkpt lat="47.61922" lon="6.68115">
        <ele>455.4</ele>
        <time>2026-08-30T11:19:27.000Z</time>
      </trkpt>
      <trkpt lat="47.61922" lon="6.6812">
        <ele>455.8</ele>
        <time>2026-08-30T11:19:29.000Z</time>
      </trkpt>
      <trkpt lat="47.61922" lon="6.68124">
        <ele>456.2</ele>
        <time>2026-08-30T11:19:31.000Z</time>
      </trkpt>
      <trkpt lat="47.61921" lon="6.68128">
        <ele>456.6</ele>
        <time>2026-08-30T11:19:33.000Z</time>
      </trkpt>
      <trkpt lat="47.6192" lon="6.68131">
        <ele>457</ele>
        <time>2026-08-30T11:19:35.000Z</time>
      </trkpt>
      <trkpt lat="47.61917" lon="6.68131">
        <ele>457.2</ele>
        <time>2026-08-30T11:19:37.000Z</time>
      </trkpt>
      <trkpt lat="47.61913" lon="6.68131">
        <ele>457.2</ele>
        <time>2026-08-30T11:19:39.000Z</time>
      </trkpt>
      <trkpt lat="47.61909" lon="6.6813">
        <ele>457.4</ele>
        <time>2026-08-30T11:19:41.000Z</time>
      </trkpt>
      <trkpt lat="47.61906" lon="6.6813">
        <ele>457.4</ele>
        <time>2026-08-30T11:19:43.000Z</time>
      </trkpt>
      <trkpt lat="47.61902" lon="6.6813">
        <ele>457.6</ele>
        <time>2026-08-30T11:19:45.000Z</time>
      </trkpt>
      <trkpt lat="47.61899" lon="6.6813">
        <ele>457.6</ele>
        <time>2026-08-30T11:19:47.000Z</time>
      </trkpt>
      <trkpt lat="47.61895" lon="6.6813">
        <ele>457.8</ele>
        <time>2026-08-30T11:19:49.000Z</time>
      </trkpt>
      <trkpt lat="47.61891" lon="6.6813">
        <ele>458</ele>
        <time>2026-08-30T11:19:51.000Z</time>
      </trkpt>
      <trkpt lat="47.61888" lon="6.6813">
        <ele>458.2</ele>
        <time>2026-08-30T11:19:53.000Z</time>
      </trkpt>
      <trkpt lat="47.61884" lon="6.6813">
        <ele>458.4</ele>
        <time>2026-08-30T11:19:55.000Z</time>
      </trkpt>
      <trkpt lat="47.6188" lon="6.6813">
        <ele>458.6</ele>
        <time>2026-08-30T11:19:57.000Z</time>
      </trkpt>
      <trkpt lat="47.61875" lon="6.68131">
        <ele>458.8</ele>
        <time>2026-08-30T11:19:59.000Z</time>
      </trkpt>
      <trkpt lat="47.6187" lon="6.68132">
        <ele>459</ele>
        <time>2026-08-30T11:20:01.000Z</time>
      </trkpt>
      <trkpt lat="47.61868" lon="6.68136">
        <ele>459.4</ele>
        <time>2026-08-30T11:20:03.000Z</time>
      </trkpt>
      <trkpt lat="47.61869" lon="6.68141">
        <ele>459.6</ele>
        <time>2026-08-30T11:20:05.000Z</time>
      </trkpt>
      <trkpt lat="47.61872" lon="6.68145">
        <ele>459.8</ele>
        <time>2026-08-30T11:20:07.000Z</time>
      </trkpt>
      <trkpt lat="47.61876" lon="6.68149">
        <ele>460</ele>
        <time>2026-08-30T11:20:09.000Z</time>
      </trkpt>
      <trkpt lat="47.61879" lon="6.68152">
        <ele>460.2</ele>
        <time>2026-08-30T11:20:11.000Z</time>
      </trkpt>
      <trkpt lat="47.61882" lon="6.68155">
        <ele>460.4</ele>
        <time>2026-08-30T11:20:13.000Z</time>
      </trkpt>
      <trkpt lat="47.61885" lon="6.68158">
        <ele>460.4</ele>
        <time>2026-08-30T11:20:15.000Z</time>
      </trkpt>
      <trkpt lat="47.61887" lon="6.6816">
        <ele>460.6</ele>
        <time>2026-08-30T11:20:17.000Z</time>
      </trkpt>
      <trkpt lat="47.61888" lon="6.68162">
        <ele>460.6</ele>
        <time>2026-08-30T11:20:19.000Z</time>
      </trkpt>
      <trkpt lat="47.61888" lon="6.68163">
        <ele>460.6</ele>
        <time>2026-08-30T11:20:21.000Z</time>
      </trkpt>
      <trkpt lat="47.61889" lon="6.68164">
        <ele>460.6</ele>
        <time>2026-08-30T11:20:23.000Z</time>
      </trkpt>
      <trkpt lat="47.61891" lon="6.68165">
        <ele>460.6</ele>
        <time>2026-08-30T11:20:25.000Z</time>
      </trkpt>
      <trkpt lat="47.61893" lon="6.68166">
        <ele>460.6</ele>
        <time>2026-08-30T11:20:27.000Z</time>
      </trkpt>
      <trkpt lat="47.61894" lon="6.68169">
        <ele>460.8</ele>
        <time>2026-08-30T11:20:29.000Z</time>
      </trkpt>
      <trkpt lat="47.61896" lon="6.68171">
        <ele>460.8</ele>
        <time>2026-08-30T11:20:31.000Z</time>
      </trkpt>
      <trkpt lat="47.61897" lon="6.68173">
        <ele>461</ele>
        <time>2026-08-30T11:20:33.000Z</time>
      </trkpt>
      <trkpt lat="47.61897" lon="6.68176">
        <ele>461</ele>
        <time>2026-08-30T11:20:35.000Z</time>
      </trkpt>
      <trkpt lat="47.61898" lon="6.68178">
        <ele>461.4</ele>
        <time>2026-08-30T11:20:37.000Z</time>
      </trkpt>
      <trkpt lat="47.61899" lon="6.68178">
        <ele>461.2</ele>
        <time>2026-08-30T11:20:39.000Z</time>
      </trkpt>
      <trkpt lat="47.619" lon="6.68177">
        <ele>461.2</ele>
        <time>2026-08-30T11:20:41.000Z</time>
      </trkpt>
      <trkpt lat="47.619" lon="6.68177">
        <ele>461.2</ele>
        <time>2026-08-30T11:20:43.000Z</time>
      </trkpt>
      <trkpt lat="47.619" lon="6.68176">
        <ele>461</ele>
        <time>2026-08-30T11:20:45.000Z</time>
      </trkpt>
      <trkpt lat="47.619" lon="6.68176">
        <ele>461</ele>
        <time>2026-08-30T11:20:47.000Z</time>
      </trkpt>
      <trkpt lat="47.619" lon="6.68175">
        <ele>461</ele>
        <time>2026-08-30T11:20:49.000Z</time>
      </trkpt>
      <trkpt lat="47.619" lon="6.68175">
        <ele>461</ele>
        <time>2026-08-30T11:20:51.000Z</time>
      </trkpt>
      <trkpt lat="47.619" lon="6.68175">
        <ele>461</ele>
        <time>2026-08-30T11:20:53.000Z</time>
      </trkpt>
      <trkpt lat="47.619" lon="6.68175">
        <ele>461</ele>
        <time>2026-08-30T11:20:55.000Z</time>
      </trkpt>
      <trkpt lat="47.619" lon="6.68174">
        <ele>461</ele>
        <time>2026-08-30T11:20:57.000Z</time>
      </trkpt>
      <trkpt lat="47.619" lon="6.68174">
        <ele>461</ele>
        <time>2026-08-30T11:20:59.000Z</time>
      </trkpt>
      <trkpt lat="47.619" lon="6.68174">
        <ele>461</ele>
        <time>2026-08-30T11:21:01.000Z</time>
      </trkpt>
      <trkpt lat="47.619" lon="6.68174">
        <ele>461</ele>
        <time>2026-08-30T11:21:03.000Z</time>
      </trkpt>
      <trkpt lat="47.619" lon="6.68174">
        <ele>461</ele>
        <time>2026-08-30T11:21:05.000Z</time>
      </trkpt>
      <trkpt lat="47.619" lon="6.68173">
        <ele>461</ele>
        <time>2026-08-30T11:21:07.000Z</time>
      </trkpt>
      <trkpt lat="47.619" lon="6.68173">
        <ele>461</ele>
        <time>2026-08-30T11:21:10.000Z</time>
      </trkpt>
      <trkpt lat="47.619" lon="6.68173">
        <ele>460.8</ele>
        <time>2026-08-30T11:21:12.000Z</time>
      </trkpt>
      <trkpt lat="47.619" lon="6.68173">
        <ele>460.8</ele>
        <time>2026-08-30T11:21:14.000Z</time>
      </trkpt>
      <trkpt lat="47.619" lon="6.68173">
        <ele>460.6</ele>
        <time>2026-08-30T11:21:16.000Z</time>
      </trkpt>
      <trkpt lat="47.619" lon="6.68173">
        <ele>460.6</ele>
        <time>2026-08-30T11:21:18.000Z</time>
      </trkpt>
      <trkpt lat="47.619" lon="6.68173">
        <ele>460.6</ele>
        <time>2026-08-30T11:21:20.000Z</time>
      </trkpt>
      <trkpt lat="47.619" lon="6.68173">
        <ele>460.6</ele>
        <time>2026-08-30T11:21:22.000Z</time>
      </trkpt>
      <trkpt lat="47.619" lon="6.68173">
        <ele>460.8</ele>
        <time>2026-08-30T11:21:24.000Z</time>
      </trkpt>
      <trkpt lat="47.619" lon="6.68173">
        <ele>460.8</ele>
        <time>2026-08-30T11:21:26.000Z</time>
      </trkpt>
      <trkpt lat="47.619" lon="6.68174">
        <ele>460.8</ele>
        <time>2026-08-30T11:21:28.000Z</time>
      </trkpt>
      <trkpt lat="47.619" lon="6.68174">
        <ele>461</ele>
        <time>2026-08-30T11:21:30.000Z</time>
      </trkpt>
      <trkpt lat="47.619" lon="6.68174">
        <ele>461</ele>
        <time>2026-08-30T11:21:32.000Z</time>
      </trkpt>
      <trkpt lat="47.619" lon="6.68174">
        <ele>460.8</ele>
        <time>2026-08-30T11:21:34.000Z</time>
      </trkpt>
      <trkpt lat="47.619" lon="6.68174">
        <ele>460.8</ele>
        <time>2026-08-30T11:21:36.000Z</time>
      </trkpt>
      <trkpt lat="47.619" lon="6.68174">
        <ele>460.8</ele>
        <time>2026-08-30T11:21:38.000Z</time>
      </trkpt>
      <trkpt lat="47.619" lon="6.68174">
        <ele>460.8</ele>
        <time>2026-08-30T11:21:40.000Z</time>
      </trkpt>
      <trkpt lat="47.619" lon="6.68174">
        <ele>460.8</ele>
        <time>2026-08-30T11:21:42.000Z</time>
      </trkpt>
      <trkpt lat="47.619" lon="6.68174">
        <ele>460.8</ele>
        <time>2026-08-30T11:21:44.000Z</time>
      </trkpt>
      <trkpt lat="47.619" lon="6.68174">
        <ele>460.6</ele>
        <time>2026-08-30T11:21:46.000Z</time>
      </trkpt>
      <trkpt lat="47.619" lon="6.68173">
        <ele>460.6</ele>
        <time>2026-08-30T11:21:48.000Z</time>
      </trkpt>
      <trkpt lat="47.619" lon="6.68173">
        <ele>460.6</ele>
        <time>2026-08-30T11:21:50.000Z</time>
      </trkpt>
      <trkpt lat="47.619" lon="6.68173">
        <ele>460.6</ele>
        <time>2026-08-30T11:21:52.000Z</time>
      </trkpt>
      <trkpt lat="47.619" lon="6.68173">
        <ele>460.6</ele>
        <time>2026-08-30T11:21:54.000Z</time>
      </trkpt>
      <trkpt lat="47.619" lon="6.68173">
        <ele>460.6</ele>
        <time>2026-08-30T11:21:56.000Z</time>
      </trkpt>
      <trkpt lat="47.619" lon="6.68174">
        <ele>460.6</ele>
        <time>2026-08-30T11:21:58.000Z</time>
      </trkpt>
      <trkpt lat="47.619" lon="6.68174">
        <ele>460.8</ele>
        <time>2026-08-30T11:22:00.000Z</time>
      </trkpt>
      <trkpt lat="47.619" lon="6.68174">
        <ele>460.8</ele>
        <time>2026-08-30T11:22:02.000Z</time>
      </trkpt>
      <trkpt lat="47.619" lon="6.68174">
        <ele>460.8</ele>
        <time>2026-08-30T11:22:04.000Z</time>
      </trkpt>
      <trkpt lat="47.619" lon="6.68174">
        <ele>460.8</ele>
        <time>2026-08-30T11:22:06.000Z</time>
      </trkpt>
      <trkpt lat="47.619" lon="6.68174">
        <ele>460.8</ele>
        <time>2026-08-30T11:22:08.000Z</time>
      </trkpt>
      <trkpt lat="47.619" lon="6.68174">
        <ele>460.8</ele>
        <time>2026-08-30T11:22:10.000Z</time>
      </trkpt>
      <trkpt lat="47.619" lon="6.68174">
        <ele>460.8</ele>
        <time>2026-08-30T11:22:12.000Z</time>
      </trkpt>
      <trkpt lat="47.619" lon="6.68174">
        <ele>460.8</ele>
        <time>2026-08-30T11:22:14.000Z</time>
      </trkpt>
      <trkpt lat="47.619" lon="6.68175">
        <ele>460.8</ele>
        <time>2026-08-30T11:22:16.000Z</time>
      </trkpt>
      <trkpt lat="47.619" lon="6.68175">
        <ele>461</ele>
        <time>2026-08-30T11:22:18.000Z</time>
      </trkpt>
      <trkpt lat="47.619" lon="6.68175">
        <ele>461</ele>
        <time>2026-08-30T11:22:20.000Z</time>
      </trkpt>
      <trkpt lat="47.619" lon="6.68175">
        <ele>461</ele>
        <time>2026-08-30T11:22:22.000Z</time>
      </trkpt>
      <trkpt lat="47.619" lon="6.68175">
        <ele>461</ele>
        <time>2026-08-30T11:22:24.000Z</time>
      </trkpt>
      <trkpt lat="47.619" lon="6.68176">
        <ele>461</ele>
        <time>2026-08-30T11:22:26.000Z</time>
      </trkpt>
      <trkpt lat="47.619" lon="6.68176">
        <ele>461</ele>
        <time>2026-08-30T11:22:28.000Z</time>
      </trkpt>
      <trkpt lat="47.619" lon="6.68176">
        <ele>461</ele>
        <time>2026-08-30T11:22:30.000Z</time>
      </trkpt>
      <trkpt lat="47.619" lon="6.68176">
        <ele>461</ele>
        <time>2026-08-30T11:22:32.000Z</time>
      </trkpt>
      <trkpt lat="47.619" lon="6.68176">
        <ele>461</ele>
        <time>2026-08-30T11:22:34.000Z</time>
      </trkpt>
      <trkpt lat="47.619" lon="6.68176">
        <ele>461</ele>
        <time>2026-08-30T11:22:36.000Z</time>
      </trkpt>
      <trkpt lat="47.619" lon="6.68176">
        <ele>461</ele>
        <time>2026-08-30T11:22:38.000Z</time>
      </trkpt>
      <trkpt lat="47.619" lon="6.68176">
        <ele>461</ele>
        <time>2026-08-30T11:22:40.000Z</time>
      </trkpt>
      <trkpt lat="47.619" lon="6.68176">
        <ele>461</ele>
        <time>2026-08-30T11:22:42.000Z</time>
      </trkpt>
      <trkpt lat="47.619" lon="6.68176">
        <ele>461</ele>
        <time>2026-08-30T11:22:44.000Z</time>
      </trkpt>
      <trkpt lat="47.619" lon="6.68176">
        <ele>461</ele>
        <time>2026-08-30T11:22:46.000Z</time>
      </trkpt>
      <trkpt lat="47.619" lon="6.68176">
        <ele>461</ele>
        <time>2026-08-30T11:22:48.000Z</time>
      </trkpt>
      <trkpt lat="47.619" lon="6.68177">
        <ele>461</ele>
        <time>2026-08-30T11:22:51.000Z</time>
      </trkpt>
      <trkpt lat="47.619" lon="6.68177">
        <ele>461</ele>
        <time>2026-08-30T11:22:53.000Z</time>
      </trkpt>
      <trkpt lat="47.619" lon="6.68177">
        <ele>461</ele>
        <time>2026-08-30T11:22:55.000Z</time>
      </trkpt>
      <trkpt lat="47.619" lon="6.68177">
        <ele>461</ele>
        <time>2026-08-30T11:22:57.000Z</time>
      </trkpt>
      <trkpt lat="47.619" lon="6.68177">
        <ele>461</ele>
        <time>2026-08-30T11:22:59.000Z</time>
      </trkpt>
      <trkpt lat="47.619" lon="6.68176">
        <ele>461</ele>
        <time>2026-08-30T11:23:01.000Z</time>
      </trkpt>
      <trkpt lat="47.619" lon="6.68176">
        <ele>461</ele>
        <time>2026-08-30T11:23:03.000Z</time>
      </trkpt>
      <trkpt lat="47.619" lon="6.68176">
        <ele>460.8</ele>
        <time>2026-08-30T11:23:05.000Z</time>
      </trkpt>
      <trkpt lat="47.619" lon="6.68176">
        <ele>460.8</ele>
        <time>2026-08-30T11:23:07.000Z</time>
      </trkpt>
      <trkpt lat="47.619" lon="6.68176">
        <ele>460.8</ele>
        <time>2026-08-30T11:23:09.000Z</time>
      </trkpt>
      <trkpt lat="47.619" lon="6.68176">
        <ele>460.8</ele>
        <time>2026-08-30T11:23:11.000Z</time>
      </trkpt>
      <trkpt lat="47.619" lon="6.68176">
        <ele>460.8</ele>
        <time>2026-08-30T11:23:13.000Z</time>
      </trkpt>
      <trkpt lat="47.619" lon="6.68176">
        <ele>460.6</ele>
        <time>2026-08-30T11:23:15.000Z</time>
      </trkpt>
      <trkpt lat="47.619" lon="6.68176">
        <ele>460.6</ele>
        <time>2026-08-30T11:23:17.000Z</time>
      </trkpt>
      <trkpt lat="47.619" lon="6.68176">
        <ele>460.6</ele>
        <time>2026-08-30T11:23:19.000Z</time>
      </trkpt>
      <trkpt lat="47.619" lon="6.68176">
        <ele>460.4</ele>
        <time>2026-08-30T11:23:21.000Z</time>
      </trkpt>
      <trkpt lat="47.619" lon="6.68176">
        <ele>460.4</ele>
        <time>2026-08-30T11:23:23.000Z</time>
      </trkpt>
      <trkpt lat="47.619" lon="6.68176">
        <ele>460.2</ele>
        <time>2026-08-30T11:23:25.000Z</time>
      </trkpt>
      <trkpt lat="47.619" lon="6.68176">
        <ele>460.2</ele>
        <time>2026-08-30T11:23:27.000Z</time>
      </trkpt>
      <trkpt lat="47.619" lon="6.68176">
        <ele>460</ele>
        <time>2026-08-30T11:23:29.000Z</time>
      </trkpt>
      <trkpt lat="47.619" lon="6.68176">
        <ele>460</ele>
        <time>2026-08-30T11:23:31.000Z</time>
      </trkpt>
      <trkpt lat="47.619" lon="6.68176">
        <ele>460.2</ele>
        <time>2026-08-30T11:23:33.000Z</time>
      </trkpt>
      <trkpt lat="47.619" lon="6.68176">
        <ele>460.4</ele>
        <time>2026-08-30T11:23:35.000Z</time>
      </trkpt>
      <trkpt lat="47.619" lon="6.68176">
        <ele>460.4</ele>
        <time>2026-08-30T11:23:37.000Z</time>
      </trkpt>
      <trkpt lat="47.619" lon="6.68176">
        <ele>460.6</ele>
        <time>2026-08-30T11:23:39.000Z</time>
      </trkpt>
      <trkpt lat="47.619" lon="6.68176">
        <ele>460.6</ele>
        <time>2026-08-30T11:23:41.000Z</time>
      </trkpt>
      <trkpt lat="47.619" lon="6.68176">
        <ele>460.6</ele>
        <time>2026-08-30T11:23:43.000Z</time>
      </trkpt>
      <trkpt lat="47.619" lon="6.68176">
        <ele>460.6</ele>
        <time>2026-08-30T11:23:45.000Z</time>
      </trkpt>
      <trkpt lat="47.619" lon="6.68176">
        <ele>460.6</ele>
        <time>2026-08-30T11:23:47.000Z</time>
      </trkpt>
      <trkpt lat="47.619" lon="6.68176">
        <ele>460.6</ele>
        <time>2026-08-30T11:23:49.000Z</time>
      </trkpt>
      <trkpt lat="47.619" lon="6.68176">
        <ele>460.6</ele>
        <time>2026-08-30T11:23:51.000Z</time>
      </trkpt>
      <trkpt lat="47.619" lon="6.68176">
        <ele>460.6</ele>
        <time>2026-08-30T11:23:53.000Z</time>
      </trkpt>
      <trkpt lat="47.619" lon="6.68176">
        <ele>460.6</ele>
        <time>2026-08-30T11:23:55.000Z</time>
      </trkpt>
      <trkpt lat="47.619" lon="6.68176">
        <ele>460.6</ele>
        <time>2026-08-30T11:23:57.000Z</time>
      </trkpt>
      <trkpt lat="47.619" lon="6.68176">
        <ele>460.6</ele>
        <time>2026-08-30T11:23:59.000Z</time>
      </trkpt>
      <trkpt lat="47.619" lon="6.68176">
        <ele>460.6</ele>
        <time>2026-08-30T11:24:01.000Z</time>
      </trkpt>
      <trkpt lat="47.619" lon="6.68176">
        <ele>460.8</ele>
        <time>2026-08-30T11:24:03.000Z</time>
      </trkpt>
      <trkpt lat="47.619" lon="6.68176">
        <ele>460.8</ele>
        <time>2026-08-30T11:24:05.000Z</time>
      </trkpt>
      <trkpt lat="47.619" lon="6.68176">
        <ele>460.8</ele>
        <time>2026-08-30T11:24:07.000Z</time>
      </trkpt>
      <trkpt lat="47.619" lon="6.68175">
        <ele>460.8</ele>
        <time>2026-08-30T11:24:09.000Z</time>
      </trkpt>
      <trkpt lat="47.619" lon="6.68175">
        <ele>460.8</ele>
        <time>2026-08-30T11:24:11.000Z</time>
      </trkpt>
      <trkpt lat="47.619" lon="6.68175">
        <ele>460.8</ele>
        <time>2026-08-30T11:24:13.000Z</time>
      </trkpt>
      <trkpt lat="47.619" lon="6.68175">
        <ele>460.8</ele>
        <time>2026-08-30T11:24:15.000Z</time>
      </trkpt>
      <trkpt lat="47.619" lon="6.68175">
        <ele>461</ele>
        <time>2026-08-30T11:24:17.000Z</time>
      </trkpt>
      <trkpt lat="47.619" lon="6.68175">
        <ele>461</ele>
        <time>2026-08-30T11:24:19.000Z</time>
      </trkpt>
      <trkpt lat="47.619" lon="6.68175">
        <ele>461</ele>
        <time>2026-08-30T11:24:21.000Z</time>
      </trkpt>
      <trkpt lat="47.619" lon="6.68175">
        <ele>461</ele>
        <time>2026-08-30T11:24:23.000Z</time>
      </trkpt>
      <trkpt lat="47.61899" lon="6.68175">
        <ele>461</ele>
        <time>2026-08-30T11:24:25.000Z</time>
      </trkpt>
      <trkpt lat="47.61899" lon="6.68175">
        <ele>461</ele>
        <time>2026-08-30T11:24:27.000Z</time>
      </trkpt>
      <trkpt lat="47.61899" lon="6.68175">
        <ele>461</ele>
        <time>2026-08-30T11:24:29.000Z</time>
      </trkpt>
      <trkpt lat="47.61899" lon="6.68175">
        <ele>461</ele>
        <time>2026-08-30T11:24:31.000Z</time>
      </trkpt>
      <trkpt lat="47.61899" lon="6.68175">
        <ele>461</ele>
        <time>2026-08-30T11:24:33.000Z</time>
      </trkpt>
      <trkpt lat="47.61899" lon="6.68175">
        <ele>461.2</ele>
        <time>2026-08-30T11:24:35.000Z</time>
      </trkpt>
      <trkpt lat="47.61899" lon="6.68175">
        <ele>461.2</ele>
        <time>2026-08-30T11:24:37.000Z</time>
      </trkpt>
      <trkpt lat="47.61899" lon="6.68175">
        <ele>461.2</ele>
        <time>2026-08-30T11:24:39.000Z</time>
      </trkpt>
      <trkpt lat="47.61899" lon="6.68175">
        <ele>461.2</ele>
        <time>2026-08-30T11:24:41.000Z</time>
      </trkpt>
      <trkpt lat="47.61899" lon="6.68175">
        <ele>461.2</ele>
        <time>2026-08-30T11:24:43.000Z</time>
      </trkpt>
      <trkpt lat="47.61899" lon="6.68175">
        <ele>461.2</ele>
        <time>2026-08-30T11:24:45.000Z</time>
      </trkpt>
      <trkpt lat="47.61899" lon="6.68176">
        <ele>461.2</ele>
        <time>2026-08-30T11:24:48.000Z</time>
      </trkpt>
      <trkpt lat="47.61899" lon="6.68176">
        <ele>461.2</ele>
        <time>2026-08-30T11:24:50.000Z</time>
      </trkpt>
      <trkpt lat="47.61899" lon="6.68176">
        <ele>461.2</ele>
        <time>2026-08-30T11:24:52.000Z</time>
      </trkpt>
      <trkpt lat="47.61899" lon="6.68176">
        <ele>461.2</ele>
        <time>2026-08-30T11:24:54.000Z</time>
      </trkpt>
      <trkpt lat="47.61899" lon="6.68176">
        <ele>461.2</ele>
        <time>2026-08-30T11:24:56.000Z</time>
      </trkpt>
      <trkpt lat="47.61899" lon="6.68176">
        <ele>461.2</ele>
        <time>2026-08-30T11:24:58.000Z</time>
      </trkpt>
      <trkpt lat="47.61899" lon="6.68177">
        <ele>461.2</ele>
        <time>2026-08-30T11:25:00.000Z</time>
      </trkpt>
      <trkpt lat="47.61898" lon="6.68178">
        <ele>461.4</ele>
        <time>2026-08-30T11:25:02.000Z</time>
      </trkpt>
      <trkpt lat="47.61898" lon="6.6818">
        <ele>461.4</ele>
        <time>2026-08-30T11:25:04.000Z</time>
      </trkpt>
      <trkpt lat="47.61898" lon="6.6818">
        <ele>461.4</ele>
        <time>2026-08-30T11:25:06.000Z</time>
      </trkpt>
      <trkpt lat="47.61899" lon="6.6818">
        <ele>461.4</ele>
        <time>2026-08-30T11:25:08.000Z</time>
      </trkpt>
      <trkpt lat="47.61899" lon="6.68181">
        <ele>461.4</ele>
        <time>2026-08-30T11:25:10.000Z</time>
      </trkpt>
      <trkpt lat="47.619" lon="6.68183">
        <ele>461.4</ele>
        <time>2026-08-30T11:25:12.000Z</time>
      </trkpt>
      <trkpt lat="47.61901" lon="6.68185">
        <ele>461.4</ele>
        <time>2026-08-30T11:25:14.000Z</time>
      </trkpt>
      <trkpt lat="47.61903" lon="6.68189">
        <ele>461.4</ele>
        <time>2026-08-30T11:25:16.000Z</time>
      </trkpt>
      <trkpt lat="47.61905" lon="6.68192">
        <ele>461.6</ele>
        <time>2026-08-30T11:25:18.000Z</time>
      </trkpt>
      <trkpt lat="47.61907" lon="6.68196">
        <ele>461.8</ele>
        <time>2026-08-30T11:25:20.000Z</time>
      </trkpt>
      <trkpt lat="47.61908" lon="6.682">
        <ele>462</ele>
        <time>2026-08-30T11:25:22.000Z</time>
      </trkpt>
      <trkpt lat="47.61911" lon="6.68204">
        <ele>462.2</ele>
        <time>2026-08-30T11:25:24.000Z</time>
      </trkpt>
      <trkpt lat="47.61913" lon="6.68207">
        <ele>462.6</ele>
        <time>2026-08-30T11:25:26.000Z</time>
      </trkpt>
      <trkpt lat="47.61916" lon="6.68209">
        <ele>462.8</ele>
        <time>2026-08-30T11:25:28.000Z</time>
      </trkpt>
      <trkpt lat="47.61918" lon="6.68211">
        <ele>463</ele>
        <time>2026-08-30T11:25:30.000Z</time>
      </trkpt>
      <trkpt lat="47.61921" lon="6.68214">
        <ele>463.4</ele>
        <time>2026-08-30T11:25:32.000Z</time>
      </trkpt>
      <trkpt lat="47.61923" lon="6.68217">
        <ele>463.6</ele>
        <time>2026-08-30T11:25:34.000Z</time>
      </trkpt>
      <trkpt lat="47.61926" lon="6.68219">
        <ele>464</ele>
        <time>2026-08-30T11:25:36.000Z</time>
      </trkpt>
      <trkpt lat="47.61928" lon="6.68222">
        <ele>464.2</ele>
        <time>2026-08-30T11:25:38.000Z</time>
      </trkpt>
      <trkpt lat="47.6193" lon="6.68225">
        <ele>464.4</ele>
        <time>2026-08-30T11:25:40.000Z</time>
      </trkpt>
      <trkpt lat="47.61932" lon="6.68228">
        <ele>464.6</ele>
        <time>2026-08-30T11:25:42.000Z</time>
      </trkpt>
      <trkpt lat="47.61935" lon="6.68232">
        <ele>465</ele>
        <time>2026-08-30T11:25:44.000Z</time>
      </trkpt>
      <trkpt lat="47.61936" lon="6.68235">
        <ele>465.4</ele>
        <time>2026-08-30T11:25:46.000Z</time>
      </trkpt>
      <trkpt lat="47.61938" lon="6.68239">
        <ele>465.8</ele>
        <time>2026-08-30T11:25:48.000Z</time>
      </trkpt>
      <trkpt lat="47.6194" lon="6.68242">
        <ele>466.2</ele>
        <time>2026-08-30T11:25:50.000Z</time>
      </trkpt>
      <trkpt lat="47.61941" lon="6.68246">
        <ele>466.8</ele>
        <time>2026-08-30T11:25:52.000Z</time>
      </trkpt>
      <trkpt lat="47.61943" lon="6.6825">
        <ele>467.2</ele>
        <time>2026-08-30T11:25:54.000Z</time>
      </trkpt>
      <trkpt lat="47.61944" lon="6.68253">
        <ele>467.8</ele>
        <time>2026-08-30T11:25:56.000Z</time>
      </trkpt>
      <trkpt lat="47.61945" lon="6.68257">
        <ele>468.4</ele>
        <time>2026-08-30T11:25:58.000Z</time>
      </trkpt>
      <trkpt lat="47.61946" lon="6.6826">
        <ele>468.8</ele>
        <time>2026-08-30T11:26:00.000Z</time>
      </trkpt>
      <trkpt lat="47.61947" lon="6.68264">
        <ele>469.2</ele>
        <time>2026-08-30T11:26:02.000Z</time>
      </trkpt>
      <trkpt lat="47.61949" lon="6.68268">
        <ele>469.8</ele>
        <time>2026-08-30T11:26:04.000Z</time>
      </trkpt>
      <trkpt lat="47.6195" lon="6.68272">
        <ele>470.2</ele>
        <time>2026-08-30T11:26:06.000Z</time>
      </trkpt>
      <trkpt lat="47.61952" lon="6.68275">
        <ele>470.6</ele>
        <time>2026-08-30T11:26:08.000Z</time>
      </trkpt>
      <trkpt lat="47.61953" lon="6.68279">
        <ele>471</ele>
        <time>2026-08-30T11:26:10.000Z</time>
      </trkpt>
      <trkpt lat="47.61954" lon="6.68283">
        <ele>471.4</ele>
        <time>2026-08-30T11:26:12.000Z</time>
      </trkpt>
      <trkpt lat="47.61955" lon="6.68287">
        <ele>471.8</ele>
        <time>2026-08-30T11:26:15.000Z</time>
      </trkpt>
      <trkpt lat="47.61956" lon="6.68291">
        <ele>472.2</ele>
        <time>2026-08-30T11:26:17.000Z</time>
      </trkpt>
      <trkpt lat="47.61957" lon="6.68295">
        <ele>472.8</ele>
        <time>2026-08-30T11:26:19.000Z</time>
      </trkpt>
      <trkpt lat="47.61958" lon="6.68299">
        <ele>473.2</ele>
        <time>2026-08-30T11:26:21.000Z</time>
      </trkpt>
      <trkpt lat="47.61959" lon="6.68303">
        <ele>473.6</ele>
        <time>2026-08-30T11:26:23.000Z</time>
      </trkpt>
      <trkpt lat="47.6196" lon="6.68307">
        <ele>474.2</ele>
        <time>2026-08-30T11:26:25.000Z</time>
      </trkpt>
      <trkpt lat="47.61961" lon="6.68311">
        <ele>474.6</ele>
        <time>2026-08-30T11:26:27.000Z</time>
      </trkpt>
      <trkpt lat="47.61961" lon="6.68316">
        <ele>474.8</ele>
        <time>2026-08-30T11:26:29.000Z</time>
      </trkpt>
      <trkpt lat="47.61962" lon="6.6832">
        <ele>475.2</ele>
        <time>2026-08-30T11:26:31.000Z</time>
      </trkpt>
      <trkpt lat="47.61963" lon="6.68324">
        <ele>475.6</ele>
        <time>2026-08-30T11:26:33.000Z</time>
      </trkpt>
      <trkpt lat="47.61963" lon="6.68328">
        <ele>476</ele>
        <time>2026-08-30T11:26:35.000Z</time>
      </trkpt>
      <trkpt lat="47.61964" lon="6.68332">
        <ele>476.2</ele>
        <time>2026-08-30T11:26:37.000Z</time>
      </trkpt>
      <trkpt lat="47.61965" lon="6.68336">
        <ele>476.6</ele>
        <time>2026-08-30T11:26:39.000Z</time>
      </trkpt>
      <trkpt lat="47.61966" lon="6.6834">
        <ele>477</ele>
        <time>2026-08-30T11:26:41.000Z</time>
      </trkpt>
      <trkpt lat="47.61967" lon="6.68344">
        <ele>477.4</ele>
        <time>2026-08-30T11:26:43.000Z</time>
      </trkpt>
      <trkpt lat="47.61968" lon="6.68348">
        <ele>477.6</ele>
        <time>2026-08-30T11:26:45.000Z</time>
      </trkpt>
      <trkpt lat="47.61969" lon="6.68352">
        <ele>477.8</ele>
        <time>2026-08-30T11:26:47.000Z</time>
      </trkpt>
      <trkpt lat="47.6197" lon="6.68356">
        <ele>478.2</ele>
        <time>2026-08-30T11:26:49.000Z</time>
      </trkpt>
      <trkpt lat="47.61971" lon="6.68361">
        <ele>478.4</ele>
        <time>2026-08-30T11:26:51.000Z</time>
      </trkpt>
      <trkpt lat="47.61972" lon="6.68365">
        <ele>478.6</ele>
        <time>2026-08-30T11:26:53.000Z</time>
      </trkpt>
      <trkpt lat="47.61972" lon="6.68369">
        <ele>479</ele>
        <time>2026-08-30T11:26:55.000Z</time>
      </trkpt>
      <trkpt lat="47.61974" lon="6.68375">
        <ele>479.2</ele>
        <time>2026-08-30T11:26:57.000Z</time>
      </trkpt>
      <trkpt lat="47.61975" lon="6.6838">
        <ele>479.6</ele>
        <time>2026-08-30T11:26:59.000Z</time>
      </trkpt>
      <trkpt lat="47.61976" lon="6.68383">
        <ele>479.8</ele>
        <time>2026-08-30T11:27:01.000Z</time>
      </trkpt>
      <trkpt lat="47.61976" lon="6.68387">
        <ele>480.2</ele>
        <time>2026-08-30T11:27:03.000Z</time>
      </trkpt>
      <trkpt lat="47.61977" lon="6.68392">
        <ele>480.4</ele>
        <time>2026-08-30T11:27:05.000Z</time>
      </trkpt>
      <trkpt lat="47.61979" lon="6.68396">
        <ele>480.6</ele>
        <time>2026-08-30T11:27:07.000Z</time>
      </trkpt>
      <trkpt lat="47.6198" lon="6.684">
        <ele>481</ele>
        <time>2026-08-30T11:27:09.000Z</time>
      </trkpt>
      <trkpt lat="47.61981" lon="6.68405">
        <ele>481.2</ele>
        <time>2026-08-30T11:27:11.000Z</time>
      </trkpt>
      <trkpt lat="47.61982" lon="6.6841">
        <ele>481.4</ele>
        <time>2026-08-30T11:27:13.000Z</time>
      </trkpt>
      <trkpt lat="47.61984" lon="6.68415">
        <ele>481.6</ele>
        <time>2026-08-30T11:27:15.000Z</time>
      </trkpt>
      <trkpt lat="47.61985" lon="6.6842">
        <ele>482</ele>
        <time>2026-08-30T11:27:17.000Z</time>
      </trkpt>
      <trkpt lat="47.61987" lon="6.68424">
        <ele>482.2</ele>
        <time>2026-08-30T11:27:19.000Z</time>
      </trkpt>
      <trkpt lat="47.61988" lon="6.68429">
        <ele>482.4</ele>
        <time>2026-08-30T11:27:21.000Z</time>
      </trkpt>
      <trkpt lat="47.6199" lon="6.68434">
        <ele>482.6</ele>
        <time>2026-08-30T11:27:23.000Z</time>
      </trkpt>
      <trkpt lat="47.61992" lon="6.68438">
        <ele>482.8</ele>
        <time>2026-08-30T11:27:25.000Z</time>
      </trkpt>
      <trkpt lat="47.61993" lon="6.68443">
        <ele>483.2</ele>
        <time>2026-08-30T11:27:27.000Z</time>
      </trkpt>
      <trkpt lat="47.61995" lon="6.68447">
        <ele>483.4</ele>
        <time>2026-08-30T11:27:29.000Z</time>
      </trkpt>
      <trkpt lat="47.61997" lon="6.68452">
        <ele>483.6</ele>
        <time>2026-08-30T11:27:31.000Z</time>
      </trkpt>
      <trkpt lat="47.61998" lon="6.68456">
        <ele>484</ele>
        <time>2026-08-30T11:27:33.000Z</time>
      </trkpt>
      <trkpt lat="47.62" lon="6.6846">
        <ele>484.2</ele>
        <time>2026-08-30T11:27:35.000Z</time>
      </trkpt>
      <trkpt lat="47.62001" lon="6.68464">
        <ele>484.6</ele>
        <time>2026-08-30T11:27:37.000Z</time>
      </trkpt>
      <trkpt lat="47.62003" lon="6.68467">
        <ele>485</ele>
        <time>2026-08-30T11:27:39.000Z</time>
      </trkpt>
      <trkpt lat="47.62005" lon="6.68471">
        <ele>485.4</ele>
        <time>2026-08-30T11:27:41.000Z</time>
      </trkpt>
      <trkpt lat="47.62006" lon="6.68474">
        <ele>485.6</ele>
        <time>2026-08-30T11:27:43.000Z</time>
      </trkpt>
      <trkpt lat="47.62008" lon="6.68478">
        <ele>486</ele>
        <time>2026-08-30T11:27:45.000Z</time>
      </trkpt>
      <trkpt lat="47.62009" lon="6.68482">
        <ele>486.4</ele>
        <time>2026-08-30T11:27:47.000Z</time>
      </trkpt>
      <trkpt lat="47.6201" lon="6.68487">
        <ele>486.6</ele>
        <time>2026-08-30T11:27:49.000Z</time>
      </trkpt>
      <trkpt lat="47.62011" lon="6.68492">
        <ele>487</ele>
        <time>2026-08-30T11:27:51.000Z</time>
      </trkpt>
      <trkpt lat="47.62012" lon="6.68497">
        <ele>487.4</ele>
        <time>2026-08-30T11:27:54.000Z</time>
      </trkpt>
      <trkpt lat="47.62013" lon="6.68502">
        <ele>487.8</ele>
        <time>2026-08-30T11:27:56.000Z</time>
      </trkpt>
      <trkpt lat="47.62014" lon="6.68506">
        <ele>488.2</ele>
        <time>2026-08-30T11:27:58.000Z</time>
      </trkpt>
      <trkpt lat="47.62015" lon="6.68509">
        <ele>488.6</ele>
        <time>2026-08-30T11:28:00.000Z</time>
      </trkpt>
      <trkpt lat="47.62017" lon="6.68512">
        <ele>489</ele>
        <time>2026-08-30T11:28:02.000Z</time>
      </trkpt>
      <trkpt lat="47.62019" lon="6.68516">
        <ele>489.2</ele>
        <time>2026-08-30T11:28:04.000Z</time>
      </trkpt>
      <trkpt lat="47.6202" lon="6.68519">
        <ele>489.6</ele>
        <time>2026-08-30T11:28:06.000Z</time>
      </trkpt>
      <trkpt lat="47.62022" lon="6.68522">
        <ele>490</ele>
        <time>2026-08-30T11:28:08.000Z</time>
      </trkpt>
      <trkpt lat="47.62023" lon="6.68525">
        <ele>490.4</ele>
        <time>2026-08-30T11:28:10.000Z</time>
      </trkpt>
      <trkpt lat="47.62025" lon="6.68527">
        <ele>490.8</ele>
        <time>2026-08-30T11:28:12.000Z</time>
      </trkpt>
      <trkpt lat="47.62027" lon="6.6853">
        <ele>491.2</ele>
        <time>2026-08-30T11:28:14.000Z</time>
      </trkpt>
      <trkpt lat="47.62029" lon="6.68533">
        <ele>491.6</ele>
        <time>2026-08-30T11:28:16.000Z</time>
      </trkpt>
      <trkpt lat="47.62031" lon="6.68537">
        <ele>492</ele>
        <time>2026-08-30T11:28:18.000Z</time>
      </trkpt>
      <trkpt lat="47.62032" lon="6.68541">
        <ele>492.6</ele>
        <time>2026-08-30T11:28:20.000Z</time>
      </trkpt>
      <trkpt lat="47.62034" lon="6.68545">
        <ele>493</ele>
        <time>2026-08-30T11:28:22.000Z</time>
      </trkpt>
      <trkpt lat="47.62035" lon="6.68549">
        <ele>493.6</ele>
        <time>2026-08-30T11:28:24.000Z</time>
      </trkpt>
      <trkpt lat="47.62036" lon="6.68554">
        <ele>494.2</ele>
        <time>2026-08-30T11:28:26.000Z</time>
      </trkpt>
      <trkpt lat="47.62038" lon="6.68558">
        <ele>494.8</ele>
        <time>2026-08-30T11:28:28.000Z</time>
      </trkpt>
      <trkpt lat="47.62039" lon="6.68563">
        <ele>495.2</ele>
        <time>2026-08-30T11:28:30.000Z</time>
      </trkpt>
      <trkpt lat="47.6204" lon="6.68567">
        <ele>495.6</ele>
        <time>2026-08-30T11:28:32.000Z</time>
      </trkpt>
      <trkpt lat="47.62042" lon="6.68571">
        <ele>496.2</ele>
        <time>2026-08-30T11:28:34.000Z</time>
      </trkpt>
      <trkpt lat="47.62045" lon="6.68576">
        <ele>496.6</ele>
        <time>2026-08-30T11:28:36.000Z</time>
      </trkpt>
      <trkpt lat="47.62046" lon="6.6858">
        <ele>497</ele>
        <time>2026-08-30T11:28:38.000Z</time>
      </trkpt>
      <trkpt lat="47.62048" lon="6.68584">
        <ele>497.4</ele>
        <time>2026-08-30T11:28:40.000Z</time>
      </trkpt>
      <trkpt lat="47.62049" lon="6.68588">
        <ele>497.8</ele>
        <time>2026-08-30T11:28:42.000Z</time>
      </trkpt>
      <trkpt lat="47.6205" lon="6.68592">
        <ele>498.2</ele>
        <time>2026-08-30T11:28:44.000Z</time>
      </trkpt>
      <trkpt lat="47.62051" lon="6.68596">
        <ele>498.6</ele>
        <time>2026-08-30T11:28:46.000Z</time>
      </trkpt>
      <trkpt lat="47.62053" lon="6.68599">
        <ele>499</ele>
        <time>2026-08-30T11:28:48.000Z</time>
      </trkpt>
      <trkpt lat="47.62054" lon="6.68603">
        <ele>499.4</ele>
        <time>2026-08-30T11:28:50.000Z</time>
      </trkpt>
      <trkpt lat="47.62056" lon="6.68606">
        <ele>499.6</ele>
        <time>2026-08-30T11:28:52.000Z</time>
      </trkpt>
      <trkpt lat="47.62058" lon="6.6861">
        <ele>500</ele>
        <time>2026-08-30T11:28:54.000Z</time>
      </trkpt>
      <trkpt lat="47.6206" lon="6.68614">
        <ele>500.2</ele>
        <time>2026-08-30T11:28:56.000Z</time>
      </trkpt>
      <trkpt lat="47.62061" lon="6.68617">
        <ele>500.6</ele>
        <time>2026-08-30T11:28:58.000Z</time>
      </trkpt>
      <trkpt lat="47.62062" lon="6.68621">
        <ele>500.8</ele>
        <time>2026-08-30T11:29:00.000Z</time>
      </trkpt>
      <trkpt lat="47.62064" lon="6.68625">
        <ele>501.2</ele>
        <time>2026-08-30T11:29:02.000Z</time>
      </trkpt>
      <trkpt lat="47.62065" lon="6.68629">
        <ele>501.4</ele>
        <time>2026-08-30T11:29:04.000Z</time>
      </trkpt>
      <trkpt lat="47.62066" lon="6.68633">
        <ele>501.6</ele>
        <time>2026-08-30T11:29:06.000Z</time>
      </trkpt>
      <trkpt lat="47.62068" lon="6.68637">
        <ele>501.8</ele>
        <time>2026-08-30T11:29:08.000Z</time>
      </trkpt>
      <trkpt lat="47.62069" lon="6.68641">
        <ele>502</ele>
        <time>2026-08-30T11:29:10.000Z</time>
      </trkpt>
      <trkpt lat="47.6207" lon="6.68645">
        <ele>502.2</ele>
        <time>2026-08-30T11:29:12.000Z</time>
      </trkpt>
      <trkpt lat="47.62071" lon="6.68649">
        <ele>502.4</ele>
        <time>2026-08-30T11:29:14.000Z</time>
      </trkpt>
      <trkpt lat="47.62072" lon="6.68653">
        <ele>502.4</ele>
        <time>2026-08-30T11:29:16.000Z</time>
      </trkpt>
      <trkpt lat="47.62073" lon="6.68657">
        <ele>502.6</ele>
        <time>2026-08-30T11:29:18.000Z</time>
      </trkpt>
      <trkpt lat="47.62074" lon="6.68662">
        <ele>502.8</ele>
        <time>2026-08-30T11:29:20.000Z</time>
      </trkpt>
      <trkpt lat="47.62075" lon="6.68667">
        <ele>503</ele>
        <time>2026-08-30T11:29:22.000Z</time>
      </trkpt>
      <trkpt lat="47.62077" lon="6.68671">
        <ele>503.4</ele>
        <time>2026-08-30T11:29:24.000Z</time>
      </trkpt>
      <trkpt lat="47.62078" lon="6.68675">
        <ele>503.6</ele>
        <time>2026-08-30T11:29:26.000Z</time>
      </trkpt>
      <trkpt lat="47.6208" lon="6.6868">
        <ele>503.8</ele>
        <time>2026-08-30T11:29:28.000Z</time>
      </trkpt>
      <trkpt lat="47.62081" lon="6.68685">
        <ele>504.2</ele>
        <time>2026-08-30T11:29:30.000Z</time>
      </trkpt>
      <trkpt lat="47.62083" lon="6.6869">
        <ele>504.4</ele>
        <time>2026-08-30T11:29:32.000Z</time>
      </trkpt>
      <trkpt lat="47.62084" lon="6.68695">
        <ele>504.8</ele>
        <time>2026-08-30T11:29:34.000Z</time>
      </trkpt>
      <trkpt lat="47.62086" lon="6.687">
        <ele>505</ele>
        <time>2026-08-30T11:29:36.000Z</time>
      </trkpt>
      <trkpt lat="47.62088" lon="6.68704">
        <ele>505.2</ele>
        <time>2026-08-30T11:29:38.000Z</time>
      </trkpt>
      <trkpt lat="47.6209" lon="6.68708">
        <ele>505.6</ele>
        <time>2026-08-30T11:29:40.000Z</time>
      </trkpt>
      <trkpt lat="47.62091" lon="6.68713">
        <ele>505.8</ele>
        <time>2026-08-30T11:29:42.000Z</time>
      </trkpt>
      <trkpt lat="47.62093" lon="6.68718">
        <ele>506.2</ele>
        <time>2026-08-30T11:29:44.000Z</time>
      </trkpt>
      <trkpt lat="47.62096" lon="6.68723">
        <ele>506.4</ele>
        <time>2026-08-30T11:29:46.000Z</time>
      </trkpt>
      <trkpt lat="47.62098" lon="6.68728">
        <ele>506.6</ele>
        <time>2026-08-30T11:29:49.000Z</time>
      </trkpt>
      <trkpt lat="47.62099" lon="6.68732">
        <ele>506.8</ele>
        <time>2026-08-30T11:29:51.000Z</time>
      </trkpt>
      <trkpt lat="47.62101" lon="6.68737">
        <ele>507.2</ele>
        <time>2026-08-30T11:29:53.000Z</time>
      </trkpt>
      <trkpt lat="47.62103" lon="6.68741">
        <ele>507.4</ele>
        <time>2026-08-30T11:29:55.000Z</time>
      </trkpt>
      <trkpt lat="47.62104" lon="6.68745">
        <ele>507.6</ele>
        <time>2026-08-30T11:29:57.000Z</time>
      </trkpt>
      <trkpt lat="47.62106" lon="6.68749">
        <ele>507.8</ele>
        <time>2026-08-30T11:29:59.000Z</time>
      </trkpt>
      <trkpt lat="47.62108" lon="6.68753">
        <ele>508</ele>
        <time>2026-08-30T11:30:01.000Z</time>
      </trkpt>
      <trkpt lat="47.62109" lon="6.68757">
        <ele>508.2</ele>
        <time>2026-08-30T11:30:03.000Z</time>
      </trkpt>
      <trkpt lat="47.62111" lon="6.68762">
        <ele>508.4</ele>
        <time>2026-08-30T11:30:05.000Z</time>
      </trkpt>
      <trkpt lat="47.62113" lon="6.68766">
        <ele>508.6</ele>
        <time>2026-08-30T11:30:07.000Z</time>
      </trkpt>
      <trkpt lat="47.62115" lon="6.68769">
        <ele>508.8</ele>
        <time>2026-08-30T11:30:09.000Z</time>
      </trkpt>
      <trkpt lat="47.62117" lon="6.68773">
        <ele>509</ele>
        <time>2026-08-30T11:30:11.000Z</time>
      </trkpt>
      <trkpt lat="47.62119" lon="6.68776">
        <ele>509.4</ele>
        <time>2026-08-30T11:30:13.000Z</time>
      </trkpt>
      <trkpt lat="47.62121" lon="6.6878">
        <ele>509.6</ele>
        <time>2026-08-30T11:30:15.000Z</time>
      </trkpt>
      <trkpt lat="47.62123" lon="6.68783">
        <ele>510</ele>
        <time>2026-08-30T11:30:17.000Z</time>
      </trkpt>
      <trkpt lat="47.62125" lon="6.68787">
        <ele>510.4</ele>
        <time>2026-08-30T11:30:19.000Z</time>
      </trkpt>
      <trkpt lat="47.62127" lon="6.68791">
        <ele>510.8</ele>
        <time>2026-08-30T11:30:21.000Z</time>
      </trkpt>
      <trkpt lat="47.62129" lon="6.68794">
        <ele>511.4</ele>
        <time>2026-08-30T11:30:23.000Z</time>
      </trkpt>
      <trkpt lat="47.62131" lon="6.68798">
        <ele>511.6</ele>
        <time>2026-08-30T11:30:25.000Z</time>
      </trkpt>
      <trkpt lat="47.62133" lon="6.68802">
        <ele>512</ele>
        <time>2026-08-30T11:30:27.000Z</time>
      </trkpt>
      <trkpt lat="47.62136" lon="6.68805">
        <ele>512.4</ele>
        <time>2026-08-30T11:30:29.000Z</time>
      </trkpt>
      <trkpt lat="47.62138" lon="6.68809">
        <ele>512.6</ele>
        <time>2026-08-30T11:30:31.000Z</time>
      </trkpt>
      <trkpt lat="47.6214" lon="6.68813">
        <ele>513</ele>
        <time>2026-08-30T11:30:33.000Z</time>
      </trkpt>
      <trkpt lat="47.62142" lon="6.68816">
        <ele>513.2</ele>
        <time>2026-08-30T11:30:35.000Z</time>
      </trkpt>
      <trkpt lat="47.62145" lon="6.68821">
        <ele>513.6</ele>
        <time>2026-08-30T11:30:37.000Z</time>
      </trkpt>
      <trkpt lat="47.62148" lon="6.68826">
        <ele>513.8</ele>
        <time>2026-08-30T11:30:39.000Z</time>
      </trkpt>
      <trkpt lat="47.6215" lon="6.68831">
        <ele>514</ele>
        <time>2026-08-30T11:30:41.000Z</time>
      </trkpt>
      <trkpt lat="47.62152" lon="6.68835">
        <ele>514.2</ele>
        <time>2026-08-30T11:30:43.000Z</time>
      </trkpt>
      <trkpt lat="47.62153" lon="6.68839">
        <ele>514.6</ele>
        <time>2026-08-30T11:30:45.000Z</time>
      </trkpt>
      <trkpt lat="47.62155" lon="6.68843">
        <ele>515</ele>
        <time>2026-08-30T11:30:47.000Z</time>
      </trkpt>
      <trkpt lat="47.62156" lon="6.68847">
        <ele>515.2</ele>
        <time>2026-08-30T11:30:49.000Z</time>
      </trkpt>
      <trkpt lat="47.62158" lon="6.68851">
        <ele>515.4</ele>
        <time>2026-08-30T11:30:51.000Z</time>
      </trkpt>
      <trkpt lat="47.62159" lon="6.68855">
        <ele>515.6</ele>
        <time>2026-08-30T11:30:53.000Z</time>
      </trkpt>
      <trkpt lat="47.6216" lon="6.6886">
        <ele>516</ele>
        <time>2026-08-30T11:30:55.000Z</time>
      </trkpt>
      <trkpt lat="47.6216" lon="6.68865">
        <ele>516.2</ele>
        <time>2026-08-30T11:30:57.000Z</time>
      </trkpt>
      <trkpt lat="47.62161" lon="6.68869">
        <ele>516.6</ele>
        <time>2026-08-30T11:30:59.000Z</time>
      </trkpt>
      <trkpt lat="47.62162" lon="6.68873">
        <ele>517</ele>
        <time>2026-08-30T11:31:01.000Z</time>
      </trkpt>
      <trkpt lat="47.62163" lon="6.68877">
        <ele>517.2</ele>
        <time>2026-08-30T11:31:03.000Z</time>
      </trkpt>
      <trkpt lat="47.62164" lon="6.6888">
        <ele>517.6</ele>
        <time>2026-08-30T11:31:05.000Z</time>
      </trkpt>
      <trkpt lat="47.62165" lon="6.68884">
        <ele>518</ele>
        <time>2026-08-30T11:31:07.000Z</time>
      </trkpt>
      <trkpt lat="47.62166" lon="6.68887">
        <ele>518.2</ele>
        <time>2026-08-30T11:31:09.000Z</time>
      </trkpt>
      <trkpt lat="47.62168" lon="6.68891">
        <ele>518.6</ele>
        <time>2026-08-30T11:31:11.000Z</time>
      </trkpt>
      <trkpt lat="47.6217" lon="6.68894">
        <ele>519</ele>
        <time>2026-08-30T11:31:13.000Z</time>
      </trkpt>
      <trkpt lat="47.62171" lon="6.68897">
        <ele>519.4</ele>
        <time>2026-08-30T11:31:15.000Z</time>
      </trkpt>
      <trkpt lat="47.62173" lon="6.689">
        <ele>519.8</ele>
        <time>2026-08-30T11:31:17.000Z</time>
      </trkpt>
      <trkpt lat="47.62174" lon="6.68903">
        <ele>520.4</ele>
        <time>2026-08-30T11:31:19.000Z</time>
      </trkpt>
      <trkpt lat="47.62175" lon="6.68905">
        <ele>520.8</ele>
        <time>2026-08-30T11:31:21.000Z</time>
      </trkpt>
      <trkpt lat="47.62176" lon="6.68907">
        <ele>521.4</ele>
        <time>2026-08-30T11:31:24.000Z</time>
      </trkpt>
      <trkpt lat="47.62177" lon="6.6891">
        <ele>521.8</ele>
        <time>2026-08-30T11:31:26.000Z</time>
      </trkpt>
      <trkpt lat="47.62178" lon="6.68913">
        <ele>522.2</ele>
        <time>2026-08-30T11:31:28.000Z</time>
      </trkpt>
      <trkpt lat="47.62179" lon="6.68916">
        <ele>522.8</ele>
        <time>2026-08-30T11:31:30.000Z</time>
      </trkpt>
      <trkpt lat="47.6218" lon="6.68919">
        <ele>523.4</ele>
        <time>2026-08-30T11:31:32.000Z</time>
      </trkpt>
      <trkpt lat="47.62181" lon="6.68922">
        <ele>523.8</ele>
        <time>2026-08-30T11:31:34.000Z</time>
      </trkpt>
      <trkpt lat="47.62182" lon="6.68925">
        <ele>524.4</ele>
        <time>2026-08-30T11:31:36.000Z</time>
      </trkpt>
      <trkpt lat="47.62182" lon="6.68928">
        <ele>524.8</ele>
        <time>2026-08-30T11:31:38.000Z</time>
      </trkpt>
      <trkpt lat="47.62183" lon="6.68932">
        <ele>525.2</ele>
        <time>2026-08-30T11:31:40.000Z</time>
      </trkpt>
      <trkpt lat="47.62184" lon="6.68935">
        <ele>525.8</ele>
        <time>2026-08-30T11:31:42.000Z</time>
      </trkpt>
      <trkpt lat="47.62185" lon="6.68938">
        <ele>526.4</ele>
        <time>2026-08-30T11:31:44.000Z</time>
      </trkpt>
      <trkpt lat="47.62185" lon="6.68942">
        <ele>527</ele>
        <time>2026-08-30T11:31:46.000Z</time>
      </trkpt>
      <trkpt lat="47.62186" lon="6.68945">
        <ele>527.4</ele>
        <time>2026-08-30T11:31:48.000Z</time>
      </trkpt>
      <trkpt lat="47.62187" lon="6.68948">
        <ele>528</ele>
        <time>2026-08-30T11:31:50.000Z</time>
      </trkpt>
      <trkpt lat="47.62188" lon="6.68951">
        <ele>528.4</ele>
        <time>2026-08-30T11:31:52.000Z</time>
      </trkpt>
      <trkpt lat="47.62188" lon="6.68954">
        <ele>528.8</ele>
        <time>2026-08-30T11:31:54.000Z</time>
      </trkpt>
      <trkpt lat="47.62189" lon="6.68957">
        <ele>529.2</ele>
        <time>2026-08-30T11:31:56.000Z</time>
      </trkpt>
      <trkpt lat="47.6219" lon="6.6896">
        <ele>529.8</ele>
        <time>2026-08-30T11:31:58.000Z</time>
      </trkpt>
      <trkpt lat="47.62191" lon="6.68963">
        <ele>530.4</ele>
        <time>2026-08-30T11:32:00.000Z</time>
      </trkpt>
      <trkpt lat="47.62192" lon="6.68965">
        <ele>530.8</ele>
        <time>2026-08-30T11:32:02.000Z</time>
      </trkpt>
      <trkpt lat="47.62194" lon="6.68968">
        <ele>531.2</ele>
        <time>2026-08-30T11:32:04.000Z</time>
      </trkpt>
      <trkpt lat="47.62196" lon="6.68971">
        <ele>531.8</ele>
        <time>2026-08-30T11:32:06.000Z</time>
      </trkpt>
      <trkpt lat="47.62197" lon="6.68974">
        <ele>532.4</ele>
        <time>2026-08-30T11:32:08.000Z</time>
      </trkpt>
      <trkpt lat="47.62198" lon="6.68976">
        <ele>532.8</ele>
        <time>2026-08-30T11:32:10.000Z</time>
      </trkpt>
      <trkpt lat="47.62199" lon="6.68978">
        <ele>533.4</ele>
        <time>2026-08-30T11:32:12.000Z</time>
      </trkpt>
      <trkpt lat="47.622" lon="6.6898">
        <ele>533.8</ele>
        <time>2026-08-30T11:32:14.000Z</time>
      </trkpt>
      <trkpt lat="47.62201" lon="6.68983">
        <ele>534.2</ele>
        <time>2026-08-30T11:32:16.000Z</time>
      </trkpt>
      <trkpt lat="47.62203" lon="6.68987">
        <ele>534.6</ele>
        <time>2026-08-30T11:32:18.000Z</time>
      </trkpt>
      <trkpt lat="47.62204" lon="6.68991">
        <ele>534.8</ele>
        <time>2026-08-30T11:32:20.000Z</time>
      </trkpt>
      <trkpt lat="47.62205" lon="6.68995">
        <ele>535.2</ele>
        <time>2026-08-30T11:32:22.000Z</time>
      </trkpt>
      <trkpt lat="47.62206" lon="6.68998">
        <ele>535.6</ele>
        <time>2026-08-30T11:32:24.000Z</time>
      </trkpt>
      <trkpt lat="47.62207" lon="6.69001">
        <ele>536</ele>
        <time>2026-08-30T11:32:26.000Z</time>
      </trkpt>
      <trkpt lat="47.62208" lon="6.69006">
        <ele>536.4</ele>
        <time>2026-08-30T11:32:28.000Z</time>
      </trkpt>
      <trkpt lat="47.62209" lon="6.6901">
        <ele>536.8</ele>
        <time>2026-08-30T11:32:30.000Z</time>
      </trkpt>
      <trkpt lat="47.6221" lon="6.69014">
        <ele>537</ele>
        <time>2026-08-30T11:32:32.000Z</time>
      </trkpt>
      <trkpt lat="47.62211" lon="6.69018">
        <ele>537.4</ele>
        <time>2026-08-30T11:32:34.000Z</time>
      </trkpt>
      <trkpt lat="47.62211" lon="6.69022">
        <ele>537.6</ele>
        <time>2026-08-30T11:32:36.000Z</time>
      </trkpt>
      <trkpt lat="47.62212" lon="6.69025">
        <ele>538</ele>
        <time>2026-08-30T11:32:38.000Z</time>
      </trkpt>
      <trkpt lat="47.62212" lon="6.69029">
        <ele>538.4</ele>
        <time>2026-08-30T11:32:40.000Z</time>
      </trkpt>
      <trkpt lat="47.62212" lon="6.69033">
        <ele>538.8</ele>
        <time>2026-08-30T11:32:42.000Z</time>
      </trkpt>
      <trkpt lat="47.62212" lon="6.69037">
        <ele>539</ele>
        <time>2026-08-30T11:32:44.000Z</time>
      </trkpt>
      <trkpt lat="47.62211" lon="6.69041">
        <ele>539.4</ele>
        <time>2026-08-30T11:32:46.000Z</time>
      </trkpt>
      <trkpt lat="47.62211" lon="6.69046">
        <ele>539.6</ele>
        <time>2026-08-30T11:32:48.000Z</time>
      </trkpt>
      <trkpt lat="47.6221" lon="6.6905">
        <ele>540</ele>
        <time>2026-08-30T11:32:50.000Z</time>
      </trkpt>
      <trkpt lat="47.62209" lon="6.69054">
        <ele>540.4</ele>
        <time>2026-08-30T11:32:52.000Z</time>
      </trkpt>
      <trkpt lat="47.62209" lon="6.69057">
        <ele>540.6</ele>
        <time>2026-08-30T11:32:54.000Z</time>
      </trkpt>
      <trkpt lat="47.62209" lon="6.69061">
        <ele>541</ele>
        <time>2026-08-30T11:32:56.000Z</time>
      </trkpt>
      <trkpt lat="47.6221" lon="6.69065">
        <ele>541.4</ele>
        <time>2026-08-30T11:32:58.000Z</time>
      </trkpt>
      <trkpt lat="47.6221" lon="6.6907">
        <ele>541.8</ele>
        <time>2026-08-30T11:33:00.000Z</time>
      </trkpt>
      <trkpt lat="47.62211" lon="6.69075">
        <ele>542</ele>
        <time>2026-08-30T11:33:02.000Z</time>
      </trkpt>
      <trkpt lat="47.62211" lon="6.69081">
        <ele>542.4</ele>
        <time>2026-08-30T11:33:04.000Z</time>
      </trkpt>
      <trkpt lat="47.62212" lon="6.69085">
        <ele>542.8</ele>
        <time>2026-08-30T11:33:06.000Z</time>
      </trkpt>
      <trkpt lat="47.62212" lon="6.6909">
        <ele>543</ele>
        <time>2026-08-30T11:33:08.000Z</time>
      </trkpt>
      <trkpt lat="47.62211" lon="6.69095">
        <ele>543.4</ele>
        <time>2026-08-30T11:33:10.000Z</time>
      </trkpt>
      <trkpt lat="47.62211" lon="6.691">
        <ele>543.6</ele>
        <time>2026-08-30T11:33:12.000Z</time>
      </trkpt>
      <trkpt lat="47.6221" lon="6.69106">
        <ele>544</ele>
        <time>2026-08-30T11:33:14.000Z</time>
      </trkpt>
      <trkpt lat="47.62209" lon="6.69113">
        <ele>544.2</ele>
        <time>2026-08-30T11:33:16.000Z</time>
      </trkpt>
      <trkpt lat="47.62208" lon="6.6912">
        <ele>544.4</ele>
        <time>2026-08-30T11:33:18.000Z</time>
      </trkpt>
      <trkpt lat="47.62207" lon="6.69126">
        <ele>544.6</ele>
        <time>2026-08-30T11:33:20.000Z</time>
      </trkpt>
      <trkpt lat="47.62206" lon="6.69133">
        <ele>544.6</ele>
        <time>2026-08-30T11:33:22.000Z</time>
      </trkpt>
      <trkpt lat="47.62206" lon="6.69139">
        <ele>544.8</ele>
        <time>2026-08-30T11:33:25.000Z</time>
      </trkpt>
      <trkpt lat="47.62206" lon="6.69145">
        <ele>545</ele>
        <time>2026-08-30T11:33:27.000Z</time>
      </trkpt>
      <trkpt lat="47.62205" lon="6.69152">
        <ele>545.2</ele>
        <time>2026-08-30T11:33:29.000Z</time>
      </trkpt>
      <trkpt lat="47.62205" lon="6.69158">
        <ele>545.4</ele>
        <time>2026-08-30T11:33:31.000Z</time>
      </trkpt>
      <trkpt lat="47.62205" lon="6.69165">
        <ele>545.6</ele>
        <time>2026-08-30T11:33:33.000Z</time>
      </trkpt>
      <trkpt lat="47.62204" lon="6.69171">
        <ele>545.6</ele>
        <time>2026-08-30T11:33:35.000Z</time>
      </trkpt>
      <trkpt lat="47.62204" lon="6.69177">
        <ele>545.8</ele>
        <time>2026-08-30T11:33:37.000Z</time>
      </trkpt>
      <trkpt lat="47.62203" lon="6.69185">
        <ele>546</ele>
        <time>2026-08-30T11:33:39.000Z</time>
      </trkpt>
      <trkpt lat="47.62201" lon="6.69192">
        <ele>546</ele>
        <time>2026-08-30T11:33:41.000Z</time>
      </trkpt>
      <trkpt lat="47.62198" lon="6.69198">
        <ele>546.2</ele>
        <time>2026-08-30T11:33:43.000Z</time>
      </trkpt>
      <trkpt lat="47.62195" lon="6.69204">
        <ele>546.2</ele>
        <time>2026-08-30T11:33:45.000Z</time>
      </trkpt>
      <trkpt lat="47.62192" lon="6.6921">
        <ele>546</ele>
        <time>2026-08-30T11:33:47.000Z</time>
      </trkpt>
      <trkpt lat="47.62191" lon="6.69216">
        <ele>546.2</ele>
        <time>2026-08-30T11:33:49.000Z</time>
      </trkpt>
      <trkpt lat="47.62192" lon="6.6922">
        <ele>546.2</ele>
        <time>2026-08-30T11:33:51.000Z</time>
      </trkpt>
      <trkpt lat="47.62195" lon="6.69224">
        <ele>546.4</ele>
        <time>2026-08-30T11:33:53.000Z</time>
      </trkpt>
      <trkpt lat="47.62198" lon="6.69229">
        <ele>546.6</ele>
        <time>2026-08-30T11:33:55.000Z</time>
      </trkpt>
      <trkpt lat="47.62198" lon="6.69236">
        <ele>546.8</ele>
        <time>2026-08-30T11:33:57.000Z</time>
      </trkpt>
      <trkpt lat="47.62199" lon="6.69244">
        <ele>546.8</ele>
        <time>2026-08-30T11:33:59.000Z</time>
      </trkpt>
      <trkpt lat="47.622" lon="6.69253">
        <ele>547</ele>
        <time>2026-08-30T11:34:01.000Z</time>
      </trkpt>
      <trkpt lat="47.62201" lon="6.69264">
        <ele>546.8</ele>
        <time>2026-08-30T11:34:03.000Z</time>
      </trkpt>
      <trkpt lat="47.62204" lon="6.69275">
        <ele>546.8</ele>
        <time>2026-08-30T11:34:05.000Z</time>
      </trkpt>
      <trkpt lat="47.62207" lon="6.69285">
        <ele>546.8</ele>
        <time>2026-08-30T11:34:07.000Z</time>
      </trkpt>
      <trkpt lat="47.6221" lon="6.69294">
        <ele>546.8</ele>
        <time>2026-08-30T11:34:09.000Z</time>
      </trkpt>
      <trkpt lat="47.62213" lon="6.69304">
        <ele>547</ele>
        <time>2026-08-30T11:34:11.000Z</time>
      </trkpt>
      <trkpt lat="47.62216" lon="6.69314">
        <ele>547</ele>
        <time>2026-08-30T11:34:13.000Z</time>
      </trkpt>
      <trkpt lat="47.62219" lon="6.69325">
        <ele>547</ele>
        <time>2026-08-30T11:34:15.000Z</time>
      </trkpt>
      <trkpt lat="47.62223" lon="6.69335">
        <ele>547.2</ele>
        <time>2026-08-30T11:34:17.000Z</time>
      </trkpt>
      <trkpt lat="47.62226" lon="6.69344">
        <ele>547</ele>
        <time>2026-08-30T11:34:19.000Z</time>
      </trkpt>
      <trkpt lat="47.6223" lon="6.69352">
        <ele>546.8</ele>
        <time>2026-08-30T11:34:21.000Z</time>
      </trkpt>
      <trkpt lat="47.62235" lon="6.69361">
        <ele>546.8</ele>
        <time>2026-08-30T11:34:23.000Z</time>
      </trkpt>
      <trkpt lat="47.6224" lon="6.69369">
        <ele>547</ele>
        <time>2026-08-30T11:34:25.000Z</time>
      </trkpt>
      <trkpt lat="47.62245" lon="6.69378">
        <ele>546.8</ele>
        <time>2026-08-30T11:34:27.000Z</time>
      </trkpt>
      <trkpt lat="47.62251" lon="6.69386">
        <ele>546.8</ele>
        <time>2026-08-30T11:34:29.000Z</time>
      </trkpt>
      <trkpt lat="47.62256" lon="6.69394">
        <ele>546.4</ele>
        <time>2026-08-30T11:34:31.000Z</time>
      </trkpt>
      <trkpt lat="47.62261" lon="6.69403">
        <ele>546.2</ele>
        <time>2026-08-30T11:34:33.000Z</time>
      </trkpt>
      <trkpt lat="47.62267" lon="6.69412">
        <ele>546</ele>
        <time>2026-08-30T11:34:35.000Z</time>
      </trkpt>
      <trkpt lat="47.62273" lon="6.69422">
        <ele>546</ele>
        <time>2026-08-30T11:34:37.000Z</time>
      </trkpt>
      <trkpt lat="47.62279" lon="6.6943">
        <ele>545.8</ele>
        <time>2026-08-30T11:34:39.000Z</time>
      </trkpt>
      <trkpt lat="47.62285" lon="6.69438">
        <ele>545.8</ele>
        <time>2026-08-30T11:34:41.000Z</time>
      </trkpt>
      <trkpt lat="47.6229" lon="6.69447">
        <ele>545.6</ele>
        <time>2026-08-30T11:34:43.000Z</time>
      </trkpt>
      <trkpt lat="47.62297" lon="6.69455">
        <ele>545.6</ele>
        <time>2026-08-30T11:34:45.000Z</time>
      </trkpt>
      <trkpt lat="47.62303" lon="6.69463">
        <ele>545.4</ele>
        <time>2026-08-30T11:34:47.000Z</time>
      </trkpt>
      <trkpt lat="47.62309" lon="6.69472">
        <ele>545.6</ele>
        <time>2026-08-30T11:34:49.000Z</time>
      </trkpt>
      <trkpt lat="47.62314" lon="6.69481">
        <ele>545.6</ele>
        <time>2026-08-30T11:34:51.000Z</time>
      </trkpt>
      <trkpt lat="47.62319" lon="6.6949">
        <ele>545.6</ele>
        <time>2026-08-30T11:34:53.000Z</time>
      </trkpt>
      <trkpt lat="47.62325" lon="6.69498">
        <ele>545.8</ele>
        <time>2026-08-30T11:34:55.000Z</time>
      </trkpt>
      <trkpt lat="47.62331" lon="6.69505">
        <ele>545.8</ele>
        <time>2026-08-30T11:34:57.000Z</time>
      </trkpt>
      <trkpt lat="47.62337" lon="6.6951">
        <ele>546</ele>
        <time>2026-08-30T11:35:00.000Z</time>
      </trkpt>
      <trkpt lat="47.62345" lon="6.69514">
        <ele>546</ele>
        <time>2026-08-30T11:35:02.000Z</time>
      </trkpt>
      <trkpt lat="47.62351" lon="6.69518">
        <ele>546.2</ele>
        <time>2026-08-30T11:35:04.000Z</time>
      </trkpt>
      <trkpt lat="47.62358" lon="6.69522">
        <ele>546.2</ele>
        <time>2026-08-30T11:35:06.000Z</time>
      </trkpt>
      <trkpt lat="47.62363" lon="6.69527">
        <ele>546.4</ele>
        <time>2026-08-30T11:35:08.000Z</time>
      </trkpt>
      <trkpt lat="47.62368" lon="6.69535">
        <ele>546.4</ele>
        <time>2026-08-30T11:35:10.000Z</time>
      </trkpt>
      <trkpt lat="47.62373" lon="6.69544">
        <ele>546.6</ele>
        <time>2026-08-30T11:35:12.000Z</time>
      </trkpt>
      <trkpt lat="47.62377" lon="6.69553">
        <ele>546.8</ele>
        <time>2026-08-30T11:35:14.000Z</time>
      </trkpt>
      <trkpt lat="47.62381" lon="6.69562">
        <ele>546.8</ele>
        <time>2026-08-30T11:35:16.000Z</time>
      </trkpt>
      <trkpt lat="47.62385" lon="6.6957">
        <ele>547</ele>
        <time>2026-08-30T11:35:18.000Z</time>
      </trkpt>
      <trkpt lat="47.6239" lon="6.69576">
        <ele>547</ele>
        <time>2026-08-30T11:35:20.000Z</time>
      </trkpt>
      <trkpt lat="47.62395" lon="6.6958">
        <ele>547</ele>
        <time>2026-08-30T11:35:22.000Z</time>
      </trkpt>
      <trkpt lat="47.62402" lon="6.69581">
        <ele>547</ele>
        <time>2026-08-30T11:35:24.000Z</time>
      </trkpt>
      <trkpt lat="47.62409" lon="6.69583">
        <ele>547</ele>
        <time>2026-08-30T11:35:26.000Z</time>
      </trkpt>
      <trkpt lat="47.62417" lon="6.69584">
        <ele>546.8</ele>
        <time>2026-08-30T11:35:28.000Z</time>
      </trkpt>
      <trkpt lat="47.62424" lon="6.69591">
        <ele>546.6</ele>
        <time>2026-08-30T11:35:30.000Z</time>
      </trkpt>
      <trkpt lat="47.62429" lon="6.696">
        <ele>546.2</ele>
        <time>2026-08-30T11:35:32.000Z</time>
      </trkpt>
      <trkpt lat="47.62432" lon="6.69614">
        <ele>546</ele>
        <time>2026-08-30T11:35:34.000Z</time>
      </trkpt>
      <trkpt lat="47.62434" lon="6.69628">
        <ele>545.8</ele>
        <time>2026-08-30T11:35:36.000Z</time>
      </trkpt>
      <trkpt lat="47.62435" lon="6.69647">
        <ele>545.8</ele>
        <time>2026-08-30T11:35:38.000Z</time>
      </trkpt>
      <trkpt lat="47.62433" lon="6.69658">
        <ele>546</ele>
        <time>2026-08-30T11:35:40.000Z</time>
      </trkpt>
      <trkpt lat="47.62428" lon="6.69669">
        <ele>546</ele>
        <time>2026-08-30T11:35:42.000Z</time>
      </trkpt>
      <trkpt lat="47.6242" lon="6.69677">
        <ele>545.8</ele>
        <time>2026-08-30T11:35:44.000Z</time>
      </trkpt>
      <trkpt lat="47.6241" lon="6.6968">
        <ele>545.8</ele>
        <time>2026-08-30T11:35:46.000Z</time>
      </trkpt>
      <trkpt lat="47.624" lon="6.69681">
        <ele>545.4</ele>
        <time>2026-08-30T11:35:48.000Z</time>
      </trkpt>
      <trkpt lat="47.62391" lon="6.69682">
        <ele>545.4</ele>
        <time>2026-08-30T11:35:50.000Z</time>
      </trkpt>
      <trkpt lat="47.62383" lon="6.69685">
        <ele>545.2</ele>
        <time>2026-08-30T11:35:52.000Z</time>
      </trkpt>
      <trkpt lat="47.62374" lon="6.69689">
        <ele>545</ele>
        <time>2026-08-30T11:35:54.000Z</time>
      </trkpt>
      <trkpt lat="47.62364" lon="6.69692">
        <ele>544.6</ele>
        <time>2026-08-30T11:35:56.000Z</time>
      </trkpt>
      <trkpt lat="47.62354" lon="6.69695">
        <ele>544.4</ele>
        <time>2026-08-30T11:35:58.000Z</time>
      </trkpt>
      <trkpt lat="47.62344" lon="6.69698">
        <ele>544</ele>
        <time>2026-08-30T11:36:00.000Z</time>
      </trkpt>
      <trkpt lat="47.62333" lon="6.697">
        <ele>543.6</ele>
        <time>2026-08-30T11:36:02.000Z</time>
      </trkpt>
      <trkpt lat="47.62324" lon="6.69701">
        <ele>543</ele>
        <time>2026-08-30T11:36:04.000Z</time>
      </trkpt>
      <trkpt lat="47.62315" lon="6.69702">
        <ele>542.6</ele>
        <time>2026-08-30T11:36:06.000Z</time>
      </trkpt>
      <trkpt lat="47.62306" lon="6.69699">
        <ele>542</ele>
        <time>2026-08-30T11:36:08.000Z</time>
      </trkpt>
      <trkpt lat="47.62299" lon="6.69692">
        <ele>541.6</ele>
        <time>2026-08-30T11:36:10.000Z</time>
      </trkpt>
      <trkpt lat="47.62295" lon="6.69681">
        <ele>541.4</ele>
        <time>2026-08-30T11:36:12.000Z</time>
      </trkpt>
      <trkpt lat="47.62294" lon="6.69669">
        <ele>541.2</ele>
        <time>2026-08-30T11:36:14.000Z</time>
      </trkpt>
      <trkpt lat="47.62293" lon="6.69659">
        <ele>541.4</ele>
        <time>2026-08-30T11:36:16.000Z</time>
      </trkpt>
      <trkpt lat="47.6229" lon="6.69652">
        <ele>541.4</ele>
        <time>2026-08-30T11:36:18.000Z</time>
      </trkpt>
      <trkpt lat="47.62285" lon="6.69651">
        <ele>541.4</ele>
        <time>2026-08-30T11:36:20.000Z</time>
      </trkpt>
      <trkpt lat="47.62279" lon="6.69649">
        <ele>541.2</ele>
        <time>2026-08-30T11:36:22.000Z</time>
      </trkpt>
      <trkpt lat="47.62271" lon="6.69646">
        <ele>541</ele>
        <time>2026-08-30T11:36:24.000Z</time>
      </trkpt>
      <trkpt lat="47.62262" lon="6.69644">
        <ele>540.6</ele>
        <time>2026-08-30T11:36:26.000Z</time>
      </trkpt>
      <trkpt lat="47.62252" lon="6.69647">
        <ele>540.2</ele>
        <time>2026-08-30T11:36:28.000Z</time>
      </trkpt>
      <trkpt lat="47.6224" lon="6.69652">
        <ele>539.4</ele>
        <time>2026-08-30T11:36:30.000Z</time>
      </trkpt>
      <trkpt lat="47.62227" lon="6.69657">
        <ele>538.6</ele>
        <time>2026-08-30T11:36:32.000Z</time>
      </trkpt>
      <trkpt lat="47.62212" lon="6.69656">
        <ele>537.8</ele>
        <time>2026-08-30T11:36:34.000Z</time>
      </trkpt>
      <trkpt lat="47.622" lon="6.69649">
        <ele>536.8</ele>
        <time>2026-08-30T11:36:36.000Z</time>
      </trkpt>
      <trkpt lat="47.62193" lon="6.69636">
        <ele>536.2</ele>
        <time>2026-08-30T11:36:38.000Z</time>
      </trkpt>
      <trkpt lat="47.62187" lon="6.69619">
        <ele>535.6</ele>
        <time>2026-08-30T11:36:40.000Z</time>
      </trkpt>
      <trkpt lat="47.6218" lon="6.69603">
        <ele>534.8</ele>
        <time>2026-08-30T11:36:42.000Z</time>
      </trkpt>
      <trkpt lat="47.62172" lon="6.69588">
        <ele>533.6</ele>
        <time>2026-08-30T11:36:44.000Z</time>
      </trkpt>
      <trkpt lat="47.62162" lon="6.69574">
        <ele>531.6</ele>
        <time>2026-08-30T11:36:46.000Z</time>
      </trkpt>
      <trkpt lat="47.62152" lon="6.69564">
        <ele>529</ele>
        <time>2026-08-30T11:36:49.000Z</time>
      </trkpt>
      <trkpt lat="47.6214" lon="6.69556">
        <ele>525.8</ele>
        <time>2026-08-30T11:36:51.000Z</time>
      </trkpt>
      <trkpt lat="47.62124" lon="6.69549">
        <ele>522.2</ele>
        <time>2026-08-30T11:36:53.000Z</time>
      </trkpt>
      <trkpt lat="47.62109" lon="6.69543">
        <ele>518.8</ele>
        <time>2026-08-30T11:36:55.000Z</time>
      </trkpt>
      <trkpt lat="47.62096" lon="6.69537">
        <ele>515.2</ele>
        <time>2026-08-30T11:36:57.000Z</time>
      </trkpt>
      <trkpt lat="47.62085" lon="6.69528">
        <ele>511.6</ele>
        <time>2026-08-30T11:36:59.000Z</time>
      </trkpt>
      <trkpt lat="47.62077" lon="6.69521">
        <ele>508.4</ele>
        <time>2026-08-30T11:37:01.000Z</time>
      </trkpt>
      <trkpt lat="47.62069" lon="6.69518">
        <ele>505.4</ele>
        <time>2026-08-30T11:37:03.000Z</time>
      </trkpt>
      <trkpt lat="47.62061" lon="6.69516">
        <ele>502.6</ele>
        <time>2026-08-30T11:37:05.000Z</time>
      </trkpt>
      <trkpt lat="47.62052" lon="6.69516">
        <ele>500</ele>
        <time>2026-08-30T11:37:07.000Z</time>
      </trkpt>
      <trkpt lat="47.62044" lon="6.69516">
        <ele>497.6</ele>
        <time>2026-08-30T11:37:09.000Z</time>
      </trkpt>
      <trkpt lat="47.62033" lon="6.69517">
        <ele>495</ele>
        <time>2026-08-30T11:37:11.000Z</time>
      </trkpt>
      <trkpt lat="47.62021" lon="6.69522">
        <ele>492.4</ele>
        <time>2026-08-30T11:37:13.000Z</time>
      </trkpt>
      <trkpt lat="47.62013" lon="6.6953">
        <ele>490</ele>
        <time>2026-08-30T11:37:15.000Z</time>
      </trkpt>
      <trkpt lat="47.62004" lon="6.69537">
        <ele>487.6</ele>
        <time>2026-08-30T11:37:17.000Z</time>
      </trkpt>
      <trkpt lat="47.61993" lon="6.69541">
        <ele>484.8</ele>
        <time>2026-08-30T11:37:19.000Z</time>
      </trkpt>
      <trkpt lat="47.61983" lon="6.69543">
        <ele>482.2</ele>
        <time>2026-08-30T11:37:21.000Z</time>
      </trkpt>
      <trkpt lat="47.61976" lon="6.69543">
        <ele>480</ele>
        <time>2026-08-30T11:37:23.000Z</time>
      </trkpt>
      <trkpt lat="47.61974" lon="6.69547">
        <ele>478.8</ele>
        <time>2026-08-30T11:37:25.000Z</time>
      </trkpt>
      <trkpt lat="47.61975" lon="6.69552">
        <ele>478</ele>
        <time>2026-08-30T11:37:27.000Z</time>
      </trkpt>
      <trkpt lat="47.61978" lon="6.69558">
        <ele>477.8</ele>
        <time>2026-08-30T11:37:29.000Z</time>
      </trkpt>
      <trkpt lat="47.6198" lon="6.69565">
        <ele>477.6</ele>
        <time>2026-08-30T11:37:31.000Z</time>
      </trkpt>
      <trkpt lat="47.61982" lon="6.69573">
        <ele>477.6</ele>
        <time>2026-08-30T11:37:33.000Z</time>
      </trkpt>
      <trkpt lat="47.61984" lon="6.69581">
        <ele>477.6</ele>
        <time>2026-08-30T11:37:35.000Z</time>
      </trkpt>
      <trkpt lat="47.61984" lon="6.69589">
        <ele>477.8</ele>
        <time>2026-08-30T11:37:37.000Z</time>
      </trkpt>
      <trkpt lat="47.61985" lon="6.69597">
        <ele>477.8</ele>
        <time>2026-08-30T11:37:39.000Z</time>
      </trkpt>
      <trkpt lat="47.61985" lon="6.69606">
        <ele>478</ele>
        <time>2026-08-30T11:37:41.000Z</time>
      </trkpt>
      <trkpt lat="47.61985" lon="6.69614">
        <ele>478.2</ele>
        <time>2026-08-30T11:37:43.000Z</time>
      </trkpt>
      <trkpt lat="47.61984" lon="6.69623">
        <ele>478.4</ele>
        <time>2026-08-30T11:37:45.000Z</time>
      </trkpt>
      <trkpt lat="47.61983" lon="6.69631">
        <ele>478.6</ele>
        <time>2026-08-30T11:37:47.000Z</time>
      </trkpt>
      <trkpt lat="47.61983" lon="6.69639">
        <ele>478.8</ele>
        <time>2026-08-30T11:37:49.000Z</time>
      </trkpt>
      <trkpt lat="47.61982" lon="6.69646">
        <ele>479</ele>
        <time>2026-08-30T11:37:51.000Z</time>
      </trkpt>
      <trkpt lat="47.61982" lon="6.69654">
        <ele>479.2</ele>
        <time>2026-08-30T11:37:53.000Z</time>
      </trkpt>
      <trkpt lat="47.61981" lon="6.69662">
        <ele>479.4</ele>
        <time>2026-08-30T11:37:55.000Z</time>
      </trkpt>
      <trkpt lat="47.61979" lon="6.69669">
        <ele>479.8</ele>
        <time>2026-08-30T11:37:57.000Z</time>
      </trkpt>
      <trkpt lat="47.61977" lon="6.69677">
        <ele>480</ele>
        <time>2026-08-30T11:37:59.000Z</time>
      </trkpt>
      <trkpt lat="47.61973" lon="6.69683">
        <ele>480</ele>
        <time>2026-08-30T11:38:01.000Z</time>
      </trkpt>
      <trkpt lat="47.61969" lon="6.69691">
        <ele>480</ele>
        <time>2026-08-30T11:38:03.000Z</time>
      </trkpt>
      <trkpt lat="47.61966" lon="6.697">
        <ele>480</ele>
        <time>2026-08-30T11:38:05.000Z</time>
      </trkpt>
      <trkpt lat="47.61963" lon="6.6971">
        <ele>479.6</ele>
        <time>2026-08-30T11:38:07.000Z</time>
      </trkpt>
      <trkpt lat="47.6196" lon="6.69723">
        <ele>479.2</ele>
        <time>2026-08-30T11:38:09.000Z</time>
      </trkpt>
      <trkpt lat="47.61957" lon="6.69738">
        <ele>478.8</ele>
        <time>2026-08-30T11:38:11.000Z</time>
      </trkpt>
      <trkpt lat="47.61955" lon="6.69751">
        <ele>478.8</ele>
        <time>2026-08-30T11:38:13.000Z</time>
      </trkpt>
      <trkpt lat="47.61954" lon="6.69759">
        <ele>478.8</ele>
        <time>2026-08-30T11:38:15.000Z</time>
      </trkpt>
      <trkpt lat="47.61951" lon="6.69765">
        <ele>478.8</ele>
        <time>2026-08-30T11:38:17.000Z</time>
      </trkpt>
      <trkpt lat="47.61949" lon="6.6977">
        <ele>478.8</ele>
        <time>2026-08-30T11:38:19.000Z</time>
      </trkpt>
      <trkpt lat="47.61948" lon="6.69775">
        <ele>479</ele>
        <time>2026-08-30T11:38:22.000Z</time>
      </trkpt>
      <trkpt lat="47.61946" lon="6.69782">
        <ele>479.2</ele>
        <time>2026-08-30T11:38:24.000Z</time>
      </trkpt>
      <trkpt lat="47.61944" lon="6.69789">
        <ele>479.4</ele>
        <time>2026-08-30T11:38:26.000Z</time>
      </trkpt>
      <trkpt lat="47.61942" lon="6.69796">
        <ele>479.6</ele>
        <time>2026-08-30T11:38:28.000Z</time>
      </trkpt>
      <trkpt lat="47.6194" lon="6.69803">
        <ele>479.6</ele>
        <time>2026-08-30T11:38:30.000Z</time>
      </trkpt>
      <trkpt lat="47.61938" lon="6.6981">
        <ele>479.6</ele>
        <time>2026-08-30T11:38:32.000Z</time>
      </trkpt>
      <trkpt lat="47.61936" lon="6.69818">
        <ele>479.6</ele>
        <time>2026-08-30T11:38:34.000Z</time>
      </trkpt>
      <trkpt lat="47.61933" lon="6.69828">
        <ele>479.8</ele>
        <time>2026-08-30T11:38:36.000Z</time>
      </trkpt>
      <trkpt lat="47.61931" lon="6.69838">
        <ele>480.2</ele>
        <time>2026-08-30T11:38:38.000Z</time>
      </trkpt>
      <trkpt lat="47.61929" lon="6.69846">
        <ele>480.4</ele>
        <time>2026-08-30T11:38:40.000Z</time>
      </trkpt>
      <trkpt lat="47.61927" lon="6.69853">
        <ele>481</ele>
        <time>2026-08-30T11:38:42.000Z</time>
      </trkpt>
      <trkpt lat="47.61925" lon="6.69858">
        <ele>481.4</ele>
        <time>2026-08-30T11:38:44.000Z</time>
      </trkpt>
      <trkpt lat="47.61924" lon="6.69863">
        <ele>481.8</ele>
        <time>2026-08-30T11:38:46.000Z</time>
      </trkpt>
      <trkpt lat="47.61922" lon="6.69868">
        <ele>482.2</ele>
        <time>2026-08-30T11:38:48.000Z</time>
      </trkpt>
      <trkpt lat="47.6192" lon="6.69874">
        <ele>482.6</ele>
        <time>2026-08-30T11:38:50.000Z</time>
      </trkpt>
      <trkpt lat="47.61919" lon="6.6988">
        <ele>483.2</ele>
        <time>2026-08-30T11:38:52.000Z</time>
      </trkpt>
      <trkpt lat="47.61917" lon="6.69885">
        <ele>483.6</ele>
        <time>2026-08-30T11:38:54.000Z</time>
      </trkpt>
      <trkpt lat="47.61916" lon="6.69891">
        <ele>484</ele>
        <time>2026-08-30T11:38:56.000Z</time>
      </trkpt>
      <trkpt lat="47.61915" lon="6.69895">
        <ele>484.4</ele>
        <time>2026-08-30T11:38:58.000Z</time>
      </trkpt>
      <trkpt lat="47.61914" lon="6.69899">
        <ele>484.8</ele>
        <time>2026-08-30T11:39:00.000Z</time>
      </trkpt>
      <trkpt lat="47.61913" lon="6.69904">
        <ele>485.2</ele>
        <time>2026-08-30T11:39:02.000Z</time>
      </trkpt>
      <trkpt lat="47.61912" lon="6.69909">
        <ele>485.6</ele>
        <time>2026-08-30T11:39:04.000Z</time>
      </trkpt>
      <trkpt lat="47.61911" lon="6.69912">
        <ele>486.2</ele>
        <time>2026-08-30T11:39:06.000Z</time>
      </trkpt>
      <trkpt lat="47.61911" lon="6.69916">
        <ele>486.6</ele>
        <time>2026-08-30T11:39:08.000Z</time>
      </trkpt>
      <trkpt lat="47.6191" lon="6.6992">
        <ele>487.2</ele>
        <time>2026-08-30T11:39:10.000Z</time>
      </trkpt>
      <trkpt lat="47.61909" lon="6.69924">
        <ele>487.6</ele>
        <time>2026-08-30T11:39:12.000Z</time>
      </trkpt>
      <trkpt lat="47.61908" lon="6.69928">
        <ele>488</ele>
        <time>2026-08-30T11:39:14.000Z</time>
      </trkpt>
      <trkpt lat="47.61907" lon="6.69932">
        <ele>488.4</ele>
        <time>2026-08-30T11:39:16.000Z</time>
      </trkpt>
      <trkpt lat="47.61906" lon="6.69935">
        <ele>488.8</ele>
        <time>2026-08-30T11:39:18.000Z</time>
      </trkpt>
      <trkpt lat="47.61905" lon="6.69939">
        <ele>489.2</ele>
        <time>2026-08-30T11:39:20.000Z</time>
      </trkpt>
      <trkpt lat="47.61904" lon="6.69942">
        <ele>489.6</ele>
        <time>2026-08-30T11:39:22.000Z</time>
      </trkpt>
      <trkpt lat="47.61904" lon="6.69946">
        <ele>490.2</ele>
        <time>2026-08-30T11:39:24.000Z</time>
      </trkpt>
      <trkpt lat="47.61904" lon="6.69949">
        <ele>490.6</ele>
        <time>2026-08-30T11:39:26.000Z</time>
      </trkpt>
      <trkpt lat="47.61903" lon="6.69953">
        <ele>491</ele>
        <time>2026-08-30T11:39:28.000Z</time>
      </trkpt>
      <trkpt lat="47.61902" lon="6.69956">
        <ele>491.6</ele>
        <time>2026-08-30T11:39:30.000Z</time>
      </trkpt>
      <trkpt lat="47.61901" lon="6.6996">
        <ele>491.8</ele>
        <time>2026-08-30T11:39:32.000Z</time>
      </trkpt>
      <trkpt lat="47.619" lon="6.69963">
        <ele>492.2</ele>
        <time>2026-08-30T11:39:34.000Z</time>
      </trkpt>
      <trkpt lat="47.61899" lon="6.69966">
        <ele>492.4</ele>
        <time>2026-08-30T11:39:36.000Z</time>
      </trkpt>
      <trkpt lat="47.61899" lon="6.6997">
        <ele>492.8</ele>
        <time>2026-08-30T11:39:38.000Z</time>
      </trkpt>
      <trkpt lat="47.61898" lon="6.69973">
        <ele>493.2</ele>
        <time>2026-08-30T11:39:40.000Z</time>
      </trkpt>
      <trkpt lat="47.61897" lon="6.69976">
        <ele>493.4</ele>
        <time>2026-08-30T11:39:42.000Z</time>
      </trkpt>
      <trkpt lat="47.61897" lon="6.69979">
        <ele>494</ele>
        <time>2026-08-30T11:39:44.000Z</time>
      </trkpt>
      <trkpt lat="47.61896" lon="6.69982">
        <ele>494.2</ele>
        <time>2026-08-30T11:39:46.000Z</time>
      </trkpt>
      <trkpt lat="47.61896" lon="6.69985">
        <ele>494.6</ele>
        <time>2026-08-30T11:39:48.000Z</time>
      </trkpt>
      <trkpt lat="47.61895" lon="6.69988">
        <ele>494.8</ele>
        <time>2026-08-30T11:39:50.000Z</time>
      </trkpt>
      <trkpt lat="47.61893" lon="6.69992">
        <ele>495.2</ele>
        <time>2026-08-30T11:39:52.000Z</time>
      </trkpt>
      <trkpt lat="47.61892" lon="6.69995">
        <ele>495.4</ele>
        <time>2026-08-30T11:39:54.000Z</time>
      </trkpt>
      <trkpt lat="47.61891" lon="6.69999">
        <ele>495.6</ele>
        <time>2026-08-30T11:39:56.000Z</time>
      </trkpt>
      <trkpt lat="47.6189" lon="6.70002">
        <ele>496</ele>
        <time>2026-08-30T11:39:58.000Z</time>
      </trkpt>
      <trkpt lat="47.61889" lon="6.70006">
        <ele>496.2</ele>
        <time>2026-08-30T11:40:00.000Z</time>
      </trkpt>
      <trkpt lat="47.61889" lon="6.70009">
        <ele>496.6</ele>
        <time>2026-08-30T11:40:03.000Z</time>
      </trkpt>
      <trkpt lat="47.61888" lon="6.70013">
        <ele>496.8</ele>
        <time>2026-08-30T11:40:05.000Z</time>
      </trkpt>
      <trkpt lat="47.61887" lon="6.70016">
        <ele>497</ele>
        <time>2026-08-30T11:40:07.000Z</time>
      </trkpt>
      <trkpt lat="47.61886" lon="6.7002">
        <ele>497.2</ele>
        <time>2026-08-30T11:40:09.000Z</time>
      </trkpt>
      <trkpt lat="47.61885" lon="6.70024">
        <ele>497.6</ele>
        <time>2026-08-30T11:40:11.000Z</time>
      </trkpt>
      <trkpt lat="47.61883" lon="6.70029">
        <ele>497.8</ele>
        <time>2026-08-30T11:40:13.000Z</time>
      </trkpt>
      <trkpt lat="47.61882" lon="6.70033">
        <ele>497.8</ele>
        <time>2026-08-30T11:40:15.000Z</time>
      </trkpt>
      <trkpt lat="47.61881" lon="6.70038">
        <ele>498</ele>
        <time>2026-08-30T11:40:17.000Z</time>
      </trkpt>
      <trkpt lat="47.61879" lon="6.70043">
        <ele>498.4</ele>
        <time>2026-08-30T11:40:19.000Z</time>
      </trkpt>
      <trkpt lat="47.61878" lon="6.70048">
        <ele>498.6</ele>
        <time>2026-08-30T11:40:21.000Z</time>
      </trkpt>
      <trkpt lat="47.61877" lon="6.70053">
        <ele>498.8</ele>
        <time>2026-08-30T11:40:23.000Z</time>
      </trkpt>
      <trkpt lat="47.61876" lon="6.70057">
        <ele>498.8</ele>
        <time>2026-08-30T11:40:25.000Z</time>
      </trkpt>
      <trkpt lat="47.61874" lon="6.70062">
        <ele>499</ele>
        <time>2026-08-30T11:40:27.000Z</time>
      </trkpt>
      <trkpt lat="47.61873" lon="6.70066">
        <ele>499.2</ele>
        <time>2026-08-30T11:40:29.000Z</time>
      </trkpt>
      <trkpt lat="47.61872" lon="6.7007">
        <ele>499.4</ele>
        <time>2026-08-30T11:40:31.000Z</time>
      </trkpt>
      <trkpt lat="47.61872" lon="6.70075">
        <ele>499.6</ele>
        <time>2026-08-30T11:40:33.000Z</time>
      </trkpt>
      <trkpt lat="47.61871" lon="6.7008">
        <ele>499.8</ele>
        <time>2026-08-30T11:40:35.000Z</time>
      </trkpt>
      <trkpt lat="47.6187" lon="6.70084">
        <ele>500</ele>
        <time>2026-08-30T11:40:37.000Z</time>
      </trkpt>
      <trkpt lat="47.61869" lon="6.70089">
        <ele>500.4</ele>
        <time>2026-08-30T11:40:39.000Z</time>
      </trkpt>
      <trkpt lat="47.61868" lon="6.70093">
        <ele>500.6</ele>
        <time>2026-08-30T11:40:41.000Z</time>
      </trkpt>
      <trkpt lat="47.61867" lon="6.70096">
        <ele>501</ele>
        <time>2026-08-30T11:40:43.000Z</time>
      </trkpt>
      <trkpt lat="47.61865" lon="6.70102">
        <ele>501.2</ele>
        <time>2026-08-30T11:40:45.000Z</time>
      </trkpt>
      <trkpt lat="47.61864" lon="6.70107">
        <ele>501.4</ele>
        <time>2026-08-30T11:40:47.000Z</time>
      </trkpt>
      <trkpt lat="47.61863" lon="6.70111">
        <ele>501.6</ele>
        <time>2026-08-30T11:40:49.000Z</time>
      </trkpt>
      <trkpt lat="47.61862" lon="6.70115">
        <ele>501.8</ele>
        <time>2026-08-30T11:40:51.000Z</time>
      </trkpt>
      <trkpt lat="47.6186" lon="6.70119">
        <ele>502.2</ele>
        <time>2026-08-30T11:40:53.000Z</time>
      </trkpt>
      <trkpt lat="47.61859" lon="6.70123">
        <ele>502.4</ele>
        <time>2026-08-30T11:40:55.000Z</time>
      </trkpt>
      <trkpt lat="47.61858" lon="6.70128">
        <ele>502.8</ele>
        <time>2026-08-30T11:40:57.000Z</time>
      </trkpt>
      <trkpt lat="47.61857" lon="6.70132">
        <ele>503.2</ele>
        <time>2026-08-30T11:40:59.000Z</time>
      </trkpt>
      <trkpt lat="47.61856" lon="6.70137">
        <ele>503.4</ele>
        <time>2026-08-30T11:41:01.000Z</time>
      </trkpt>
      <trkpt lat="47.61854" lon="6.70141">
        <ele>503.8</ele>
        <time>2026-08-30T11:41:03.000Z</time>
      </trkpt>
      <trkpt lat="47.61853" lon="6.70145">
        <ele>504</ele>
        <time>2026-08-30T11:41:05.000Z</time>
      </trkpt>
      <trkpt lat="47.61852" lon="6.70148">
        <ele>504.4</ele>
        <time>2026-08-30T11:41:07.000Z</time>
      </trkpt>
      <trkpt lat="47.61851" lon="6.70152">
        <ele>504.8</ele>
        <time>2026-08-30T11:41:09.000Z</time>
      </trkpt>
      <trkpt lat="47.61851" lon="6.70156">
        <ele>505.2</ele>
        <time>2026-08-30T11:41:11.000Z</time>
      </trkpt>
      <trkpt lat="47.6185" lon="6.7016">
        <ele>505.6</ele>
        <time>2026-08-30T11:41:13.000Z</time>
      </trkpt>
      <trkpt lat="47.61849" lon="6.70164">
        <ele>506</ele>
        <time>2026-08-30T11:41:15.000Z</time>
      </trkpt>
      <trkpt lat="47.61849" lon="6.70168">
        <ele>506.4</ele>
        <time>2026-08-30T11:41:17.000Z</time>
      </trkpt>
      <trkpt lat="47.61848" lon="6.70171">
        <ele>506.8</ele>
        <time>2026-08-30T11:41:19.000Z</time>
      </trkpt>
      <trkpt lat="47.61848" lon="6.70175">
        <ele>507.2</ele>
        <time>2026-08-30T11:41:21.000Z</time>
      </trkpt>
      <trkpt lat="47.61848" lon="6.70178">
        <ele>507.8</ele>
        <time>2026-08-30T11:41:23.000Z</time>
      </trkpt>
      <trkpt lat="47.61847" lon="6.70181">
        <ele>508.2</ele>
        <time>2026-08-30T11:41:25.000Z</time>
      </trkpt>
      <trkpt lat="47.61846" lon="6.70185">
        <ele>508.6</ele>
        <time>2026-08-30T11:41:27.000Z</time>
      </trkpt>
      <trkpt lat="47.61845" lon="6.70189">
        <ele>508.8</ele>
        <time>2026-08-30T11:41:29.000Z</time>
      </trkpt>
      <trkpt lat="47.61844" lon="6.70193">
        <ele>509.2</ele>
        <time>2026-08-30T11:41:31.000Z</time>
      </trkpt>
      <trkpt lat="47.61842" lon="6.70197">
        <ele>509.4</ele>
        <time>2026-08-30T11:41:33.000Z</time>
      </trkpt>
      <trkpt lat="47.61841" lon="6.70201">
        <ele>509.8</ele>
        <time>2026-08-30T11:41:35.000Z</time>
      </trkpt>
      <trkpt lat="47.6184" lon="6.70204">
        <ele>510</ele>
        <time>2026-08-30T11:41:37.000Z</time>
      </trkpt>
      <trkpt lat="47.6184" lon="6.70208">
        <ele>510.2</ele>
        <time>2026-08-30T11:41:39.000Z</time>
      </trkpt>
      <trkpt lat="47.61839" lon="6.70211">
        <ele>510.4</ele>
        <time>2026-08-30T11:41:41.000Z</time>
      </trkpt>
      <trkpt lat="47.61838" lon="6.70215">
        <ele>510.8</ele>
        <time>2026-08-30T11:41:43.000Z</time>
      </trkpt>
      <trkpt lat="47.61837" lon="6.70219">
        <ele>511.2</ele>
        <time>2026-08-30T11:41:45.000Z</time>
      </trkpt>
      <trkpt lat="47.61836" lon="6.70222">
        <ele>511.6</ele>
        <time>2026-08-30T11:41:47.000Z</time>
      </trkpt>
      <trkpt lat="47.61835" lon="6.70225">
        <ele>511.8</ele>
        <time>2026-08-30T11:41:49.000Z</time>
      </trkpt>
      <trkpt lat="47.61834" lon="6.70228">
        <ele>512.2</ele>
        <time>2026-08-30T11:41:51.000Z</time>
      </trkpt>
      <trkpt lat="47.61833" lon="6.70231">
        <ele>512.6</ele>
        <time>2026-08-30T11:41:53.000Z</time>
      </trkpt>
      <trkpt lat="47.61833" lon="6.70235">
        <ele>513</ele>
        <time>2026-08-30T11:41:55.000Z</time>
      </trkpt>
      <trkpt lat="47.61832" lon="6.70237">
        <ele>513.6</ele>
        <time>2026-08-30T11:41:57.000Z</time>
      </trkpt>
      <trkpt lat="47.61831" lon="6.7024">
        <ele>513.8</ele>
        <time>2026-08-30T11:41:59.000Z</time>
      </trkpt>
      <trkpt lat="47.6183" lon="6.70243">
        <ele>514</ele>
        <time>2026-08-30T11:42:01.000Z</time>
      </trkpt>
      <trkpt lat="47.61828" lon="6.70247">
        <ele>514.4</ele>
        <time>2026-08-30T11:42:03.000Z</time>
      </trkpt>
      <trkpt lat="47.61827" lon="6.70251">
        <ele>514.8</ele>
        <time>2026-08-30T11:42:06.000Z</time>
      </trkpt>
      <trkpt lat="47.61827" lon="6.70254">
        <ele>515</ele>
        <time>2026-08-30T11:42:08.000Z</time>
      </trkpt>
      <trkpt lat="47.61826" lon="6.70256">
        <ele>515.4</ele>
        <time>2026-08-30T11:42:10.000Z</time>
      </trkpt>
      <trkpt lat="47.61825" lon="6.7026">
        <ele>515.8</ele>
        <time>2026-08-30T11:42:12.000Z</time>
      </trkpt>
      <trkpt lat="47.61824" lon="6.70263">
        <ele>516.4</ele>
        <time>2026-08-30T11:42:14.000Z</time>
      </trkpt>
      <trkpt lat="47.61822" lon="6.70266">
        <ele>516.8</ele>
        <time>2026-08-30T11:42:16.000Z</time>
      </trkpt>
      <trkpt lat="47.61822" lon="6.7027">
        <ele>517</ele>
        <time>2026-08-30T11:42:18.000Z</time>
      </trkpt>
      <trkpt lat="47.61821" lon="6.70273">
        <ele>517.4</ele>
        <time>2026-08-30T11:42:20.000Z</time>
      </trkpt>
      <trkpt lat="47.6182" lon="6.70276">
        <ele>517.8</ele>
        <time>2026-08-30T11:42:22.000Z</time>
      </trkpt>
      <trkpt lat="47.61819" lon="6.7028">
        <ele>518.2</ele>
        <time>2026-08-30T11:42:24.000Z</time>
      </trkpt>
      <trkpt lat="47.61819" lon="6.70283">
        <ele>518.6</ele>
        <time>2026-08-30T11:42:26.000Z</time>
      </trkpt>
      <trkpt lat="47.61818" lon="6.70286">
        <ele>518.8</ele>
        <time>2026-08-30T11:42:28.000Z</time>
      </trkpt>
      <trkpt lat="47.61818" lon="6.70289">
        <ele>519.2</ele>
        <time>2026-08-30T11:42:30.000Z</time>
      </trkpt>
      <trkpt lat="47.61817" lon="6.70291">
        <ele>519.6</ele>
        <time>2026-08-30T11:42:32.000Z</time>
      </trkpt>
      <trkpt lat="47.61817" lon="6.70294">
        <ele>520</ele>
        <time>2026-08-30T11:42:34.000Z</time>
      </trkpt>
      <trkpt lat="47.61816" lon="6.70298">
        <ele>520.4</ele>
        <time>2026-08-30T11:42:36.000Z</time>
      </trkpt>
      <trkpt lat="47.61815" lon="6.70301">
        <ele>520.6</ele>
        <time>2026-08-30T11:42:38.000Z</time>
      </trkpt>
      <trkpt lat="47.61814" lon="6.70305">
        <ele>521</ele>
        <time>2026-08-30T11:42:40.000Z</time>
      </trkpt>
      <trkpt lat="47.61813" lon="6.70309">
        <ele>521.2</ele>
        <time>2026-08-30T11:42:42.000Z</time>
      </trkpt>
      <trkpt lat="47.61811" lon="6.70314">
        <ele>521.4</ele>
        <time>2026-08-30T11:42:44.000Z</time>
      </trkpt>
      <trkpt lat="47.6181" lon="6.70318">
        <ele>521.8</ele>
        <time>2026-08-30T11:42:46.000Z</time>
      </trkpt>
      <trkpt lat="47.61809" lon="6.70322">
        <ele>521.8</ele>
        <time>2026-08-30T11:42:48.000Z</time>
      </trkpt>
      <trkpt lat="47.61808" lon="6.70327">
        <ele>522</ele>
        <time>2026-08-30T11:42:50.000Z</time>
      </trkpt>
      <trkpt lat="47.61806" lon="6.70332">
        <ele>522</ele>
        <time>2026-08-30T11:42:52.000Z</time>
      </trkpt>
      <trkpt lat="47.61804" lon="6.70343">
        <ele>522</ele>
        <time>2026-08-30T11:42:54.000Z</time>
      </trkpt>
      <trkpt lat="47.61802" lon="6.70352">
        <ele>522.2</ele>
        <time>2026-08-30T11:42:56.000Z</time>
      </trkpt>
      <trkpt lat="47.618" lon="6.70358">
        <ele>522.4</ele>
        <time>2026-08-30T11:42:58.000Z</time>
      </trkpt>
      <trkpt lat="47.61799" lon="6.70363">
        <ele>522.6</ele>
        <time>2026-08-30T11:43:00.000Z</time>
      </trkpt>
      <trkpt lat="47.61798" lon="6.70368">
        <ele>523</ele>
        <time>2026-08-30T11:43:02.000Z</time>
      </trkpt>
      <trkpt lat="47.61797" lon="6.70373">
        <ele>523.2</ele>
        <time>2026-08-30T11:43:04.000Z</time>
      </trkpt>
      <trkpt lat="47.61795" lon="6.7038">
        <ele>523.2</ele>
        <time>2026-08-30T11:43:06.000Z</time>
      </trkpt>
      <trkpt lat="47.61793" lon="6.70389">
        <ele>523.2</ele>
        <time>2026-08-30T11:43:08.000Z</time>
      </trkpt>
      <trkpt lat="47.6179" lon="6.704">
        <ele>523</ele>
        <time>2026-08-30T11:43:10.000Z</time>
      </trkpt>
      <trkpt lat="47.61785" lon="6.70413">
        <ele>522.4</ele>
        <time>2026-08-30T11:43:12.000Z</time>
      </trkpt>
      <trkpt lat="47.6178" lon="6.70428">
        <ele>521.4</ele>
        <time>2026-08-30T11:43:14.000Z</time>
      </trkpt>
      <trkpt lat="47.61776" lon="6.7045">
        <ele>519.8</ele>
        <time>2026-08-30T11:43:16.000Z</time>
      </trkpt>
      <trkpt lat="47.61769" lon="6.70477">
        <ele>517.6</ele>
        <time>2026-08-30T11:43:18.000Z</time>
      </trkpt>
      <trkpt lat="47.61762" lon="6.70504">
        <ele>515.4</ele>
        <time>2026-08-30T11:43:20.000Z</time>
      </trkpt>
      <trkpt lat="47.61757" lon="6.70528">
        <ele>513.2</ele>
        <time>2026-08-30T11:43:22.000Z</time>
      </trkpt>
      <trkpt lat="47.61749" lon="6.7054">
        <ele>511.6</ele>
        <time>2026-08-30T11:43:24.000Z</time>
      </trkpt>
      <trkpt lat="47.61738" lon="6.70546">
        <ele>510.4</ele>
        <time>2026-08-30T11:43:26.000Z</time>
      </trkpt>
      <trkpt lat="47.61724" lon="6.70547">
        <ele>508.4</ele>
        <time>2026-08-30T11:43:28.000Z</time>
      </trkpt>
      <trkpt lat="47.61708" lon="6.70541">
        <ele>506.6</ele>
        <time>2026-08-30T11:43:30.000Z</time>
      </trkpt>
      <trkpt lat="47.61692" lon="6.70534">
        <ele>504.4</ele>
        <time>2026-08-30T11:43:32.000Z</time>
      </trkpt>
      <trkpt lat="47.61675" lon="6.70531">
        <ele>502</ele>
        <time>2026-08-30T11:43:34.000Z</time>
      </trkpt>
      <trkpt lat="47.61662" lon="6.70528">
        <ele>499.6</ele>
        <time>2026-08-30T11:43:36.000Z</time>
      </trkpt>
      <trkpt lat="47.61652" lon="6.70531">
        <ele>497.2</ele>
        <time>2026-08-30T11:43:38.000Z</time>
      </trkpt>
      <trkpt lat="47.61645" lon="6.70543">
        <ele>495.2</ele>
        <time>2026-08-30T11:43:41.000Z</time>
      </trkpt>
      <trkpt lat="47.61643" lon="6.7056">
        <ele>493.6</ele>
        <time>2026-08-30T11:43:43.000Z</time>
      </trkpt>
      <trkpt lat="47.6164" lon="6.70582">
        <ele>492</ele>
        <time>2026-08-30T11:43:45.000Z</time>
      </trkpt>
      <trkpt lat="47.61633" lon="6.70606">
        <ele>490.2</ele>
        <time>2026-08-30T11:43:47.000Z</time>
      </trkpt>
      <trkpt lat="47.61623" lon="6.70631">
        <ele>488.6</ele>
        <time>2026-08-30T11:43:49.000Z</time>
      </trkpt>
      <trkpt lat="47.61609" lon="6.70653">
        <ele>487.4</ele>
        <time>2026-08-30T11:43:51.000Z</time>
      </trkpt>
      <trkpt lat="47.61593" lon="6.70671">
        <ele>486.2</ele>
        <time>2026-08-30T11:43:53.000Z</time>
      </trkpt>
      <trkpt lat="47.61578" lon="6.70687">
        <ele>484.8</ele>
        <time>2026-08-30T11:43:55.000Z</time>
      </trkpt>
      <trkpt lat="47.61566" lon="6.70705">
        <ele>483.6</ele>
        <time>2026-08-30T11:43:57.000Z</time>
      </trkpt>
      <trkpt lat="47.61557" lon="6.70725">
        <ele>482.8</ele>
        <time>2026-08-30T11:43:59.000Z</time>
      </trkpt>
      <trkpt lat="47.61551" lon="6.70745">
        <ele>481.6</ele>
        <time>2026-08-30T11:44:01.000Z</time>
      </trkpt>
      <trkpt lat="47.61546" lon="6.70764">
        <ele>481</ele>
        <time>2026-08-30T11:44:03.000Z</time>
      </trkpt>
      <trkpt lat="47.61543" lon="6.70782">
        <ele>480.2</ele>
        <time>2026-08-30T11:44:05.000Z</time>
      </trkpt>
      <trkpt lat="47.61539" lon="6.70802">
        <ele>479.4</ele>
        <time>2026-08-30T11:44:07.000Z</time>
      </trkpt>
      <trkpt lat="47.61536" lon="6.70824">
        <ele>478.6</ele>
        <time>2026-08-30T11:44:09.000Z</time>
      </trkpt>
      <trkpt lat="47.61535" lon="6.70846">
        <ele>477.6</ele>
        <time>2026-08-30T11:44:11.000Z</time>
      </trkpt>
      <trkpt lat="47.61532" lon="6.70866">
        <ele>476.4</ele>
        <time>2026-08-30T11:44:13.000Z</time>
      </trkpt>
      <trkpt lat="47.61525" lon="6.70884">
        <ele>475</ele>
        <time>2026-08-30T11:44:15.000Z</time>
      </trkpt>
      <trkpt lat="47.61518" lon="6.70903">
        <ele>473.4</ele>
        <time>2026-08-30T11:44:17.000Z</time>
      </trkpt>
      <trkpt lat="47.61513" lon="6.70929">
        <ele>471.8</ele>
        <time>2026-08-30T11:44:19.000Z</time>
      </trkpt>
      <trkpt lat="47.61508" lon="6.70951">
        <ele>470.2</ele>
        <time>2026-08-30T11:44:21.000Z</time>
      </trkpt>
      <trkpt lat="47.61502" lon="6.70974">
        <ele>468.6</ele>
        <time>2026-08-30T11:44:23.000Z</time>
      </trkpt>
      <trkpt lat="47.61497" lon="6.70992">
        <ele>466.8</ele>
        <time>2026-08-30T11:44:25.000Z</time>
      </trkpt>
      <trkpt lat="47.61492" lon="6.7101">
        <ele>465</ele>
        <time>2026-08-30T11:44:27.000Z</time>
      </trkpt>
      <trkpt lat="47.61485" lon="6.71025">
        <ele>463.4</ele>
        <time>2026-08-30T11:44:29.000Z</time>
      </trkpt>
      <trkpt lat="47.61479" lon="6.7104">
        <ele>462</ele>
        <time>2026-08-30T11:44:31.000Z</time>
      </trkpt>
      <trkpt lat="47.61474" lon="6.71056">
        <ele>460.6</ele>
        <time>2026-08-30T11:44:33.000Z</time>
      </trkpt>
      <trkpt lat="47.61467" lon="6.71072">
        <ele>459.4</ele>
        <time>2026-08-30T11:44:35.000Z</time>
      </trkpt>
      <trkpt lat="47.61458" lon="6.71085">
        <ele>457.8</ele>
        <time>2026-08-30T11:44:37.000Z</time>
      </trkpt>
      <trkpt lat="47.61451" lon="6.71097">
        <ele>456.4</ele>
        <time>2026-08-30T11:44:39.000Z</time>
      </trkpt>
      <trkpt lat="47.61444" lon="6.7111">
        <ele>455</ele>
        <time>2026-08-30T11:44:41.000Z</time>
      </trkpt>
      <trkpt lat="47.61441" lon="6.71125">
        <ele>453.6</ele>
        <time>2026-08-30T11:44:43.000Z</time>
      </trkpt>
      <trkpt lat="47.61441" lon="6.7114">
        <ele>452.2</ele>
        <time>2026-08-30T11:44:45.000Z</time>
      </trkpt>
      <trkpt lat="47.61441" lon="6.71154">
        <ele>451.4</ele>
        <time>2026-08-30T11:44:47.000Z</time>
      </trkpt>
      <trkpt lat="47.61439" lon="6.71172">
        <ele>450.2</ele>
        <time>2026-08-30T11:44:49.000Z</time>
      </trkpt>
      <trkpt lat="47.61433" lon="6.7119">
        <ele>449.2</ele>
        <time>2026-08-30T11:44:51.000Z</time>
      </trkpt>
      <trkpt lat="47.61424" lon="6.7121">
        <ele>447.8</ele>
        <time>2026-08-30T11:44:53.000Z</time>
      </trkpt>
      <trkpt lat="47.61416" lon="6.71232">
        <ele>446.4</ele>
        <time>2026-08-30T11:44:55.000Z</time>
      </trkpt>
      <trkpt lat="47.6141" lon="6.71257">
        <ele>445.2</ele>
        <time>2026-08-30T11:44:57.000Z</time>
      </trkpt>
      <trkpt lat="47.61404" lon="6.7128">
        <ele>444.4</ele>
        <time>2026-08-30T11:44:59.000Z</time>
      </trkpt>
      <trkpt lat="47.61398" lon="6.713">
        <ele>443.4</ele>
        <time>2026-08-30T11:45:01.000Z</time>
      </trkpt>
      <trkpt lat="47.61394" lon="6.7132">
        <ele>442.6</ele>
        <time>2026-08-30T11:45:03.000Z</time>
      </trkpt>
      <trkpt lat="47.61392" lon="6.71341">
        <ele>441.8</ele>
        <time>2026-08-30T11:45:05.000Z</time>
      </trkpt>
      <trkpt lat="47.61391" lon="6.71362">
        <ele>441</ele>
        <time>2026-08-30T11:45:07.000Z</time>
      </trkpt>
      <trkpt lat="47.61389" lon="6.71384">
        <ele>439.8</ele>
        <time>2026-08-30T11:45:09.000Z</time>
      </trkpt>
      <trkpt lat="47.61388" lon="6.71407">
        <ele>438.6</ele>
        <time>2026-08-30T11:45:11.000Z</time>
      </trkpt>
      <trkpt lat="47.61388" lon="6.71428">
        <ele>437.2</ele>
        <time>2026-08-30T11:45:13.000Z</time>
      </trkpt>
      <trkpt lat="47.61386" lon="6.71446">
        <ele>436</ele>
        <time>2026-08-30T11:45:15.000Z</time>
      </trkpt>
      <trkpt lat="47.61381" lon="6.71463">
        <ele>434.6</ele>
        <time>2026-08-30T11:45:17.000Z</time>
      </trkpt>
      <trkpt lat="47.61376" lon="6.71476">
        <ele>433.2</ele>
        <time>2026-08-30T11:45:19.000Z</time>
      </trkpt>
      <trkpt lat="47.61368" lon="6.71492">
        <ele>431.8</ele>
        <time>2026-08-30T11:45:21.000Z</time>
      </trkpt>
      <trkpt lat="47.6136" lon="6.7151">
        <ele>430.4</ele>
        <time>2026-08-30T11:45:23.000Z</time>
      </trkpt>
      <trkpt lat="47.61352" lon="6.71525">
        <ele>429.2</ele>
        <time>2026-08-30T11:45:25.000Z</time>
      </trkpt>
      <trkpt lat="47.61343" lon="6.71541">
        <ele>428.2</ele>
        <time>2026-08-30T11:45:27.000Z</time>
      </trkpt>
      <trkpt lat="47.61338" lon="6.71558">
        <ele>427</ele>
        <time>2026-08-30T11:45:29.000Z</time>
      </trkpt>
      <trkpt lat="47.61336" lon="6.71579">
        <ele>426.2</ele>
        <time>2026-08-30T11:45:32.000Z</time>
      </trkpt>
      <trkpt lat="47.61335" lon="6.71603">
        <ele>425.4</ele>
        <time>2026-08-30T11:45:34.000Z</time>
      </trkpt>
      <trkpt lat="47.61334" lon="6.71628">
        <ele>424.4</ele>
        <time>2026-08-30T11:45:36.000Z</time>
      </trkpt>
      <trkpt lat="47.61333" lon="6.71648">
        <ele>423.6</ele>
        <time>2026-08-30T11:45:38.000Z</time>
      </trkpt>
      <trkpt lat="47.61334" lon="6.71659">
        <ele>423</ele>
        <time>2026-08-30T11:45:40.000Z</time>
      </trkpt>
      <trkpt lat="47.61338" lon="6.71668">
        <ele>422.4</ele>
        <time>2026-08-30T11:45:42.000Z</time>
      </trkpt>
      <trkpt lat="47.61345" lon="6.71674">
        <ele>421.6</ele>
        <time>2026-08-30T11:45:44.000Z</time>
      </trkpt>
      <trkpt lat="47.61353" lon="6.71681">
        <ele>420.4</ele>
        <time>2026-08-30T11:45:46.000Z</time>
      </trkpt>
      <trkpt lat="47.61361" lon="6.7169">
        <ele>419</ele>
        <time>2026-08-30T11:45:48.000Z</time>
      </trkpt>
      <trkpt lat="47.6137" lon="6.71698">
        <ele>417.4</ele>
        <time>2026-08-30T11:45:50.000Z</time>
      </trkpt>
      <trkpt lat="47.61377" lon="6.71703">
        <ele>415.4</ele>
        <time>2026-08-30T11:45:52.000Z</time>
      </trkpt>
      <trkpt lat="47.61385" lon="6.71703">
        <ele>413.2</ele>
        <time>2026-08-30T11:45:54.000Z</time>
      </trkpt>
      <trkpt lat="47.61398" lon="6.71701">
        <ele>410.8</ele>
        <time>2026-08-30T11:45:56.000Z</time>
      </trkpt>
      <trkpt lat="47.6141" lon="6.71698">
        <ele>408.2</ele>
        <time>2026-08-30T11:45:58.000Z</time>
      </trkpt>
      <trkpt lat="47.61423" lon="6.71695">
        <ele>406</ele>
        <time>2026-08-30T11:46:00.000Z</time>
      </trkpt>
      <trkpt lat="47.61435" lon="6.7169">
        <ele>403.6</ele>
        <time>2026-08-30T11:46:02.000Z</time>
      </trkpt>
      <trkpt lat="47.61444" lon="6.71683">
        <ele>401.4</ele>
        <time>2026-08-30T11:46:04.000Z</time>
      </trkpt>
      <trkpt lat="47.61453" lon="6.71679">
        <ele>399.2</ele>
        <time>2026-08-30T11:46:06.000Z</time>
      </trkpt>
      <trkpt lat="47.61461" lon="6.71676">
        <ele>397.2</ele>
        <time>2026-08-30T11:46:08.000Z</time>
      </trkpt>
      <trkpt lat="47.61466" lon="6.7167">
        <ele>395.8</ele>
        <time>2026-08-30T11:46:10.000Z</time>
      </trkpt>
      <trkpt lat="47.61471" lon="6.71665">
        <ele>394.8</ele>
        <time>2026-08-30T11:46:12.000Z</time>
      </trkpt>
      <trkpt lat="47.61478" lon="6.71666">
        <ele>393.6</ele>
        <time>2026-08-30T11:46:14.000Z</time>
      </trkpt>
      <trkpt lat="47.61486" lon="6.71669">
        <ele>392.6</ele>
        <time>2026-08-30T11:46:16.000Z</time>
      </trkpt>
      <trkpt lat="47.61493" lon="6.71676">
        <ele>391.4</ele>
        <time>2026-08-30T11:46:18.000Z</time>
      </trkpt>
      <trkpt lat="47.61495" lon="6.71686">
        <ele>390.6</ele>
        <time>2026-08-30T11:46:20.000Z</time>
      </trkpt>
      <trkpt lat="47.61497" lon="6.71697">
        <ele>390.2</ele>
        <time>2026-08-30T11:46:22.000Z</time>
      </trkpt>
      <trkpt lat="47.61497" lon="6.71709">
        <ele>390</ele>
        <time>2026-08-30T11:46:24.000Z</time>
      </trkpt>
      <trkpt lat="47.61499" lon="6.71721">
        <ele>389.8</ele>
        <time>2026-08-30T11:46:26.000Z</time>
      </trkpt>
      <trkpt lat="47.61501" lon="6.71734">
        <ele>389.8</ele>
        <time>2026-08-30T11:46:28.000Z</time>
      </trkpt>
      <trkpt lat="47.61504" lon="6.71747">
        <ele>389.6</ele>
        <time>2026-08-30T11:46:30.000Z</time>
      </trkpt>
      <trkpt lat="47.61506" lon="6.7176">
        <ele>389.4</ele>
        <time>2026-08-30T11:46:32.000Z</time>
      </trkpt>
      <trkpt lat="47.61507" lon="6.71773">
        <ele>389.4</ele>
        <time>2026-08-30T11:46:34.000Z</time>
      </trkpt>
      <trkpt lat="47.61507" lon="6.71787">
        <ele>389.6</ele>
        <time>2026-08-30T11:46:36.000Z</time>
      </trkpt>
      <trkpt lat="47.61506" lon="6.718">
        <ele>389.8</ele>
        <time>2026-08-30T11:46:38.000Z</time>
      </trkpt>
      <trkpt lat="47.61504" lon="6.71812">
        <ele>390</ele>
        <time>2026-08-30T11:46:40.000Z</time>
      </trkpt>
      <trkpt lat="47.61503" lon="6.71825">
        <ele>390.4</ele>
        <time>2026-08-30T11:46:42.000Z</time>
      </trkpt>
      <trkpt lat="47.61502" lon="6.71836">
        <ele>390.8</ele>
        <time>2026-08-30T11:46:44.000Z</time>
      </trkpt>
      <trkpt lat="47.615" lon="6.71849">
        <ele>391.2</ele>
        <time>2026-08-30T11:46:46.000Z</time>
      </trkpt>
      <trkpt lat="47.61498" lon="6.71861">
        <ele>391.6</ele>
        <time>2026-08-30T11:46:48.000Z</time>
      </trkpt>
      <trkpt lat="47.61496" lon="6.71873">
        <ele>392</ele>
        <time>2026-08-30T11:46:50.000Z</time>
      </trkpt>
      <trkpt lat="47.61494" lon="6.71884">
        <ele>392.4</ele>
        <time>2026-08-30T11:46:52.000Z</time>
      </trkpt>
      <trkpt lat="47.61492" lon="6.71897">
        <ele>392.6</ele>
        <time>2026-08-30T11:46:54.000Z</time>
      </trkpt>
      <trkpt lat="47.6149" lon="6.7191">
        <ele>392.8</ele>
        <time>2026-08-30T11:46:56.000Z</time>
      </trkpt>
      <trkpt lat="47.61489" lon="6.71923">
        <ele>392.8</ele>
        <time>2026-08-30T11:46:58.000Z</time>
      </trkpt>
      <trkpt lat="47.61488" lon="6.71935">
        <ele>392.8</ele>
        <time>2026-08-30T11:47:00.000Z</time>
      </trkpt>
      <trkpt lat="47.61487" lon="6.71947">
        <ele>392.8</ele>
        <time>2026-08-30T11:47:02.000Z</time>
      </trkpt>
      <trkpt lat="47.61485" lon="6.71961">
        <ele>392.6</ele>
        <time>2026-08-30T11:47:04.000Z</time>
      </trkpt>
      <trkpt lat="47.61483" lon="6.71976">
        <ele>392.4</ele>
        <time>2026-08-30T11:47:06.000Z</time>
      </trkpt>
      <trkpt lat="47.61479" lon="6.7199">
        <ele>392.2</ele>
        <time>2026-08-30T11:47:09.000Z</time>
      </trkpt>
      <trkpt lat="47.61476" lon="6.72004">
        <ele>392</ele>
        <time>2026-08-30T11:47:11.000Z</time>
      </trkpt>
      <trkpt lat="47.61472" lon="6.72018">
        <ele>391.8</ele>
        <time>2026-08-30T11:47:13.000Z</time>
      </trkpt>
      <trkpt lat="47.61468" lon="6.72033">
        <ele>391.6</ele>
        <time>2026-08-30T11:47:15.000Z</time>
      </trkpt>
      <trkpt lat="47.61464" lon="6.72048">
        <ele>391.4</ele>
        <time>2026-08-30T11:47:17.000Z</time>
      </trkpt>
      <trkpt lat="47.6146" lon="6.72062">
        <ele>391.2</ele>
        <time>2026-08-30T11:47:19.000Z</time>
      </trkpt>
      <trkpt lat="47.61456" lon="6.72077">
        <ele>391</ele>
        <time>2026-08-30T11:47:21.000Z</time>
      </trkpt>
      <trkpt lat="47.61453" lon="6.72092">
        <ele>391</ele>
        <time>2026-08-30T11:47:23.000Z</time>
      </trkpt>
      <trkpt lat="47.61451" lon="6.72104">
        <ele>390.8</ele>
        <time>2026-08-30T11:47:25.000Z</time>
      </trkpt>
      <trkpt lat="47.61452" lon="6.72111">
        <ele>390.4</ele>
        <time>2026-08-30T11:47:27.000Z</time>
      </trkpt>
      <trkpt lat="47.61458" lon="6.72112">
        <ele>390</ele>
        <time>2026-08-30T11:47:29.000Z</time>
      </trkpt>
      <trkpt lat="47.61464" lon="6.72105">
        <ele>389.6</ele>
        <time>2026-08-30T11:47:31.000Z</time>
      </trkpt>
      <trkpt lat="47.61472" lon="6.72095">
        <ele>389.2</ele>
        <time>2026-08-30T11:47:33.000Z</time>
      </trkpt>
      <trkpt lat="47.6148" lon="6.72081">
        <ele>388.6</ele>
        <time>2026-08-30T11:47:35.000Z</time>
      </trkpt>
      <trkpt lat="47.6149" lon="6.72066">
        <ele>388</ele>
        <time>2026-08-30T11:47:37.000Z</time>
      </trkpt>
      <trkpt lat="47.61499" lon="6.7205">
        <ele>387.4</ele>
        <time>2026-08-30T11:47:39.000Z</time>
      </trkpt>
      <trkpt lat="47.61509" lon="6.72034">
        <ele>387</ele>
        <time>2026-08-30T11:47:41.000Z</time>
      </trkpt>
      <trkpt lat="47.61518" lon="6.7202">
        <ele>386.8</ele>
        <time>2026-08-30T11:47:43.000Z</time>
      </trkpt>
      <trkpt lat="47.61526" lon="6.72006">
        <ele>386.4</ele>
        <time>2026-08-30T11:47:45.000Z</time>
      </trkpt>
      <trkpt lat="47.61538" lon="6.71986">
        <ele>386</ele>
        <time>2026-08-30T11:47:47.000Z</time>
      </trkpt>
      <trkpt lat="47.6155" lon="6.71965">
        <ele>385.4</ele>
        <time>2026-08-30T11:47:49.000Z</time>
      </trkpt>
      <trkpt lat="47.6156" lon="6.71946">
        <ele>384.8</ele>
        <time>2026-08-30T11:47:51.000Z</time>
      </trkpt>
      <trkpt lat="47.6157" lon="6.71928">
        <ele>384</ele>
        <time>2026-08-30T11:47:53.000Z</time>
      </trkpt>
      <trkpt lat="47.6158" lon="6.71911">
        <ele>383.4</ele>
        <time>2026-08-30T11:47:55.000Z</time>
      </trkpt>
      <trkpt lat="47.61589" lon="6.71893">
        <ele>383</ele>
        <time>2026-08-30T11:47:57.000Z</time>
      </trkpt>
      <trkpt lat="47.61595" lon="6.71873">
        <ele>382.6</ele>
        <time>2026-08-30T11:47:59.000Z</time>
      </trkpt>
      <trkpt lat="47.61597" lon="6.7185">
        <ele>381.6</ele>
        <time>2026-08-30T11:48:01.000Z</time>
      </trkpt>
      <trkpt lat="47.61597" lon="6.71824">
        <ele>380.6</ele>
        <time>2026-08-30T11:48:03.000Z</time>
      </trkpt>
      <trkpt lat="47.61599" lon="6.71796">
        <ele>379.4</ele>
        <time>2026-08-30T11:48:05.000Z</time>
      </trkpt>
      <trkpt lat="47.61602" lon="6.7177">
        <ele>378.4</ele>
        <time>2026-08-30T11:48:07.000Z</time>
      </trkpt>
      <trkpt lat="47.61609" lon="6.71753">
        <ele>377</ele>
        <time>2026-08-30T11:48:09.000Z</time>
      </trkpt>
      <trkpt lat="47.61618" lon="6.71748">
        <ele>375.8</ele>
        <time>2026-08-30T11:48:11.000Z</time>
      </trkpt>
      <trkpt lat="47.61626" lon="6.71752">
        <ele>375.4</ele>
        <time>2026-08-30T11:48:13.000Z</time>
      </trkpt>
      <trkpt lat="47.61631" lon="6.71758">
        <ele>375.4</ele>
        <time>2026-08-30T11:48:15.000Z</time>
      </trkpt>
      <trkpt lat="47.61634" lon="6.71763">
        <ele>375.8</ele>
        <time>2026-08-30T11:48:17.000Z</time>
      </trkpt>
      <trkpt lat="47.61637" lon="6.71768">
        <ele>376.2</ele>
        <time>2026-08-30T11:48:19.000Z</time>
      </trkpt>
      <trkpt lat="47.61639" lon="6.71772">
        <ele>376.8</ele>
        <time>2026-08-30T11:48:21.000Z</time>
      </trkpt>
      <trkpt lat="47.61643" lon="6.71774">
        <ele>377.6</ele>
        <time>2026-08-30T11:48:23.000Z</time>
      </trkpt>
      <trkpt lat="47.61646" lon="6.71777">
        <ele>378.2</ele>
        <time>2026-08-30T11:48:25.000Z</time>
      </trkpt>
      <trkpt lat="47.6165" lon="6.7178">
        <ele>378.6</ele>
        <time>2026-08-30T11:48:27.000Z</time>
      </trkpt>
      <trkpt lat="47.61654" lon="6.71783">
        <ele>379</ele>
        <time>2026-08-30T11:48:29.000Z</time>
      </trkpt>
      <trkpt lat="47.61658" lon="6.71784">
        <ele>379.4</ele>
        <time>2026-08-30T11:48:31.000Z</time>
      </trkpt>
      <trkpt lat="47.61663" lon="6.71785">
        <ele>379.6</ele>
        <time>2026-08-30T11:48:33.000Z</time>
      </trkpt>
      <trkpt lat="47.61667" lon="6.71786">
        <ele>380</ele>
        <time>2026-08-30T11:48:35.000Z</time>
      </trkpt>
      <trkpt lat="47.61671" lon="6.71787">
        <ele>380.4</ele>
        <time>2026-08-30T11:48:37.000Z</time>
      </trkpt>
      <trkpt lat="47.61676" lon="6.71787">
        <ele>380.6</ele>
        <time>2026-08-30T11:48:39.000Z</time>
      </trkpt>
      <trkpt lat="47.61682" lon="6.71786">
        <ele>380.8</ele>
        <time>2026-08-30T11:48:41.000Z</time>
      </trkpt>
      <trkpt lat="47.61687" lon="6.71785">
        <ele>381.2</ele>
        <time>2026-08-30T11:48:43.000Z</time>
      </trkpt>
      <trkpt lat="47.61692" lon="6.71785">
        <ele>381.4</ele>
        <time>2026-08-30T11:48:45.000Z</time>
      </trkpt>
      <trkpt lat="47.61697" lon="6.71784">
        <ele>381.8</ele>
        <time>2026-08-30T11:48:47.000Z</time>
      </trkpt>
      <trkpt lat="47.61702" lon="6.71783">
        <ele>382</ele>
        <time>2026-08-30T11:48:49.000Z</time>
      </trkpt>
      <trkpt lat="47.61707" lon="6.71782">
        <ele>382.4</ele>
        <time>2026-08-30T11:48:51.000Z</time>
      </trkpt>
      <trkpt lat="47.61712" lon="6.71782">
        <ele>382.6</ele>
        <time>2026-08-30T11:48:53.000Z</time>
      </trkpt>
      <trkpt lat="47.61717" lon="6.71783">
        <ele>382.6</ele>
        <time>2026-08-30T11:48:55.000Z</time>
      </trkpt>
      <trkpt lat="47.61724" lon="6.71785">
        <ele>382.6</ele>
        <time>2026-08-30T11:48:57.000Z</time>
      </trkpt>
      <trkpt lat="47.6173" lon="6.71786">
        <ele>382.6</ele>
        <time>2026-08-30T11:48:59.000Z</time>
      </trkpt>
      <trkpt lat="47.61736" lon="6.71789">
        <ele>382.6</ele>
        <time>2026-08-30T11:49:02.000Z</time>
      </trkpt>
      <trkpt lat="47.61742" lon="6.71793">
        <ele>382.8</ele>
        <time>2026-08-30T11:49:04.000Z</time>
      </trkpt>
      <trkpt lat="47.61749" lon="6.71796">
        <ele>382.8</ele>
        <time>2026-08-30T11:49:06.000Z</time>
      </trkpt>
      <trkpt lat="47.61757" lon="6.71799">
        <ele>382.8</ele>
        <time>2026-08-30T11:49:08.000Z</time>
      </trkpt>
      <trkpt lat="47.61764" lon="6.71802">
        <ele>382.6</ele>
        <time>2026-08-30T11:49:10.000Z</time>
      </trkpt>
      <trkpt lat="47.61771" lon="6.71804">
        <ele>382.4</ele>
        <time>2026-08-30T11:49:12.000Z</time>
      </trkpt>
      <trkpt lat="47.6178" lon="6.71803">
        <ele>382</ele>
        <time>2026-08-30T11:49:14.000Z</time>
      </trkpt>
      <trkpt lat="47.61791" lon="6.71801">
        <ele>381.4</ele>
        <time>2026-08-30T11:49:16.000Z</time>
      </trkpt>
      <trkpt lat="47.61805" lon="6.71794">
        <ele>380.6</ele>
        <time>2026-08-30T11:49:18.000Z</time>
      </trkpt>
      <trkpt lat="47.61821" lon="6.71784">
        <ele>379.4</ele>
        <time>2026-08-30T11:49:20.000Z</time>
      </trkpt>
      <trkpt lat="47.61837" lon="6.71777">
        <ele>378.6</ele>
        <time>2026-08-30T11:49:22.000Z</time>
      </trkpt>
      <trkpt lat="47.61851" lon="6.71773">
        <ele>378.4</ele>
        <time>2026-08-30T11:49:24.000Z</time>
      </trkpt>
      <trkpt lat="47.61863" lon="6.7177">
        <ele>378.4</ele>
        <time>2026-08-30T11:49:26.000Z</time>
      </trkpt>
      <trkpt lat="47.61876" lon="6.71773">
        <ele>379</ele>
        <time>2026-08-30T11:49:28.000Z</time>
      </trkpt>
      <trkpt lat="47.61885" lon="6.71776">
        <ele>379.6</ele>
        <time>2026-08-30T11:49:30.000Z</time>
      </trkpt>
      <trkpt lat="47.61892" lon="6.7178">
        <ele>380.2</ele>
        <time>2026-08-30T11:49:32.000Z</time>
      </trkpt>
      <trkpt lat="47.61899" lon="6.71784">
        <ele>380.4</ele>
        <time>2026-08-30T11:49:34.000Z</time>
      </trkpt>
      <trkpt lat="47.61906" lon="6.71787">
        <ele>380.6</ele>
        <time>2026-08-30T11:49:36.000Z</time>
      </trkpt>
      <trkpt lat="47.61913" lon="6.71788">
        <ele>380.8</ele>
        <time>2026-08-30T11:49:38.000Z</time>
      </trkpt>
      <trkpt lat="47.61919" lon="6.71789">
        <ele>381</ele>
        <time>2026-08-30T11:49:40.000Z</time>
      </trkpt>
      <trkpt lat="47.61925" lon="6.71789">
        <ele>381</ele>
        <time>2026-08-30T11:49:42.000Z</time>
      </trkpt>
      <trkpt lat="47.61932" lon="6.7179">
        <ele>381</ele>
        <time>2026-08-30T11:49:44.000Z</time>
      </trkpt>
      <trkpt lat="47.61938" lon="6.71789">
        <ele>381</ele>
        <time>2026-08-30T11:49:46.000Z</time>
      </trkpt>
      <trkpt lat="47.61945" lon="6.71786">
        <ele>381</ele>
        <time>2026-08-30T11:49:48.000Z</time>
      </trkpt>
      <trkpt lat="47.61953" lon="6.71781">
        <ele>380.8</ele>
        <time>2026-08-30T11:49:50.000Z</time>
      </trkpt>
      <trkpt lat="47.61963" lon="6.71774">
        <ele>380.4</ele>
        <time>2026-08-30T11:49:52.000Z</time>
      </trkpt>
      <trkpt lat="47.61977" lon="6.71767">
        <ele>379.8</ele>
        <time>2026-08-30T11:49:54.000Z</time>
      </trkpt>
      <trkpt lat="47.61992" lon="6.7176">
        <ele>379</ele>
        <time>2026-08-30T11:49:56.000Z</time>
      </trkpt>
      <trkpt lat="47.62007" lon="6.71756">
        <ele>378.8</ele>
        <time>2026-08-30T11:49:58.000Z</time>
      </trkpt>
      <trkpt lat="47.62018" lon="6.71759">
        <ele>379</ele>
        <time>2026-08-30T11:50:00.000Z</time>
      </trkpt>
      <trkpt lat="47.62025" lon="6.71763">
        <ele>379.4</ele>
        <time>2026-08-30T11:50:02.000Z</time>
      </trkpt>
      <trkpt lat="47.62029" lon="6.71767">
        <ele>379.8</ele>
        <time>2026-08-30T11:50:04.000Z</time>
      </trkpt>
      <trkpt lat="47.62034" lon="6.71773">
        <ele>380.2</ele>
        <time>2026-08-30T11:50:06.000Z</time>
      </trkpt>
      <trkpt lat="47.62039" lon="6.71778">
        <ele>380.4</ele>
        <time>2026-08-30T11:50:08.000Z</time>
      </trkpt>
      <trkpt lat="47.62046" lon="6.71784">
        <ele>380.2</ele>
        <time>2026-08-30T11:50:10.000Z</time>
      </trkpt>
      <trkpt lat="47.62053" lon="6.71792">
        <ele>380</ele>
        <time>2026-08-30T11:50:12.000Z</time>
      </trkpt>
      <trkpt lat="47.6206" lon="6.71799">
        <ele>379.6</ele>
        <time>2026-08-30T11:50:14.000Z</time>
      </trkpt>
      <trkpt lat="47.62069" lon="6.71805">
        <ele>379.2</ele>
        <time>2026-08-30T11:50:16.000Z</time>
      </trkpt>
      <trkpt lat="47.62082" lon="6.71808">
        <ele>378.4</ele>
        <time>2026-08-30T11:50:18.000Z</time>
      </trkpt>
      <trkpt lat="47.62093" lon="6.71806">
        <ele>377.8</ele>
        <time>2026-08-30T11:50:20.000Z</time>
      </trkpt>
      <trkpt lat="47.62104" lon="6.71796">
        <ele>377.2</ele>
        <time>2026-08-30T11:50:22.000Z</time>
      </trkpt>
      <trkpt lat="47.62115" lon="6.71782">
        <ele>376.8</ele>
        <time>2026-08-30T11:50:24.000Z</time>
      </trkpt>
      <trkpt lat="47.62127" lon="6.71772">
        <ele>376.4</ele>
        <time>2026-08-30T11:50:26.000Z</time>
      </trkpt>
      <trkpt lat="47.62137" lon="6.71765">
        <ele>376.6</ele>
        <time>2026-08-30T11:50:28.000Z</time>
      </trkpt>
      <trkpt lat="47.62147" lon="6.71762">
        <ele>376.8</ele>
        <time>2026-08-30T11:50:30.000Z</time>
      </trkpt>
      <trkpt lat="47.62156" lon="6.71761">
        <ele>377.4</ele>
        <time>2026-08-30T11:50:32.000Z</time>
      </trkpt>
      <trkpt lat="47.62164" lon="6.71764">
        <ele>377.6</ele>
        <time>2026-08-30T11:50:34.000Z</time>
      </trkpt>
      <trkpt lat="47.62172" lon="6.71772">
        <ele>377.8</ele>
        <time>2026-08-30T11:50:36.000Z</time>
      </trkpt>
      <trkpt lat="47.6218" lon="6.71783">
        <ele>378</ele>
        <time>2026-08-30T11:50:39.000Z</time>
      </trkpt>
      <trkpt lat="47.62188" lon="6.71794">
        <ele>378.2</ele>
        <time>2026-08-30T11:50:41.000Z</time>
      </trkpt>
      <trkpt lat="47.62194" lon="6.71804">
        <ele>378.4</ele>
        <time>2026-08-30T11:50:43.000Z</time>
      </trkpt>
      <trkpt lat="47.622" lon="6.71815">
        <ele>378.6</ele>
        <time>2026-08-30T11:50:45.000Z</time>
      </trkpt>
      <trkpt lat="47.62206" lon="6.71825">
        <ele>378.6</ele>
        <time>2026-08-30T11:50:47.000Z</time>
      </trkpt>
      <trkpt lat="47.62213" lon="6.71833">
        <ele>378.6</ele>
        <time>2026-08-30T11:50:49.000Z</time>
      </trkpt>
      <trkpt lat="47.62221" lon="6.71839">
        <ele>378.6</ele>
        <time>2026-08-30T11:50:51.000Z</time>
      </trkpt>
      <trkpt lat="47.6223" lon="6.71843">
        <ele>378.6</ele>
        <time>2026-08-30T11:50:53.000Z</time>
      </trkpt>
      <trkpt lat="47.6224" lon="6.71847">
        <ele>378.4</ele>
        <time>2026-08-30T11:50:55.000Z</time>
      </trkpt>
      <trkpt lat="47.6225" lon="6.7185">
        <ele>378</ele>
        <time>2026-08-30T11:50:57.000Z</time>
      </trkpt>
      <trkpt lat="47.6226" lon="6.71853">
        <ele>377.6</ele>
        <time>2026-08-30T11:50:59.000Z</time>
      </trkpt>
      <trkpt lat="47.6227" lon="6.71857">
        <ele>377</ele>
        <time>2026-08-30T11:51:01.000Z</time>
      </trkpt>
      <trkpt lat="47.62283" lon="6.71865">
        <ele>376</ele>
        <time>2026-08-30T11:51:03.000Z</time>
      </trkpt>
      <trkpt lat="47.62297" lon="6.71876">
        <ele>375</ele>
        <time>2026-08-30T11:51:05.000Z</time>
      </trkpt>
      <trkpt lat="47.62313" lon="6.7189">
        <ele>374</ele>
        <time>2026-08-30T11:51:07.000Z</time>
      </trkpt>
      <trkpt lat="47.62329" lon="6.71904">
        <ele>373</ele>
        <time>2026-08-30T11:51:09.000Z</time>
      </trkpt>
      <trkpt lat="47.62344" lon="6.71915">
        <ele>371.8</ele>
        <time>2026-08-30T11:51:11.000Z</time>
      </trkpt>
      <trkpt lat="47.62354" lon="6.71925">
        <ele>370.2</ele>
        <time>2026-08-30T11:51:13.000Z</time>
      </trkpt>
      <trkpt lat="47.62362" lon="6.71927">
        <ele>369.4</ele>
        <time>2026-08-30T11:51:15.000Z</time>
      </trkpt>
      <trkpt lat="47.62367" lon="6.71921">
        <ele>369</ele>
        <time>2026-08-30T11:51:17.000Z</time>
      </trkpt>
      <trkpt lat="47.62371" lon="6.71913">
        <ele>368.8</ele>
        <time>2026-08-30T11:51:19.000Z</time>
      </trkpt>
      <trkpt lat="47.62376" lon="6.71907">
        <ele>368.8</ele>
        <time>2026-08-30T11:51:21.000Z</time>
      </trkpt>
      <trkpt lat="47.6238" lon="6.71902">
        <ele>369</ele>
        <time>2026-08-30T11:51:23.000Z</time>
      </trkpt>
      <trkpt lat="47.62384" lon="6.71898">
        <ele>369.2</ele>
        <time>2026-08-30T11:51:25.000Z</time>
      </trkpt>
      <trkpt lat="47.62389" lon="6.71894">
        <ele>369.4</ele>
        <time>2026-08-30T11:51:27.000Z</time>
      </trkpt>
      <trkpt lat="47.62394" lon="6.7189">
        <ele>369.6</ele>
        <time>2026-08-30T11:51:29.000Z</time>
      </trkpt>
      <trkpt lat="47.62399" lon="6.71886">
        <ele>369.8</ele>
        <time>2026-08-30T11:51:31.000Z</time>
      </trkpt>
      <trkpt lat="47.62404" lon="6.71882">
        <ele>370</ele>
        <time>2026-08-30T11:51:33.000Z</time>
      </trkpt>
      <trkpt lat="47.6241" lon="6.71878">
        <ele>370.2</ele>
        <time>2026-08-30T11:51:35.000Z</time>
      </trkpt>
      <trkpt lat="47.62416" lon="6.71874">
        <ele>370.4</ele>
        <time>2026-08-30T11:51:37.000Z</time>
      </trkpt>
      <trkpt lat="47.62421" lon="6.71871">
        <ele>370.6</ele>
        <time>2026-08-30T11:51:39.000Z</time>
      </trkpt>
      <trkpt lat="47.62427" lon="6.71868">
        <ele>370.6</ele>
        <time>2026-08-30T11:51:41.000Z</time>
      </trkpt>
      <trkpt lat="47.62433" lon="6.71865">
        <ele>370.8</ele>
        <time>2026-08-30T11:51:43.000Z</time>
      </trkpt>
      <trkpt lat="47.62439" lon="6.71861">
        <ele>370.8</ele>
        <time>2026-08-30T11:51:45.000Z</time>
      </trkpt>
      <trkpt lat="47.62445" lon="6.71858">
        <ele>371</ele>
        <time>2026-08-30T11:51:47.000Z</time>
      </trkpt>
      <trkpt lat="47.62451" lon="6.71855">
        <ele>371.2</ele>
        <time>2026-08-30T11:51:49.000Z</time>
      </trkpt>
      <trkpt lat="47.62457" lon="6.71852">
        <ele>371.4</ele>
        <time>2026-08-30T11:51:51.000Z</time>
      </trkpt>
      <trkpt lat="47.62463" lon="6.7185">
        <ele>371.6</ele>
        <time>2026-08-30T11:51:53.000Z</time>
      </trkpt>
      <trkpt lat="47.62468" lon="6.71846">
        <ele>371.8</ele>
        <time>2026-08-30T11:51:55.000Z</time>
      </trkpt>
      <trkpt lat="47.62473" lon="6.71842">
        <ele>372.2</ele>
        <time>2026-08-30T11:51:57.000Z</time>
      </trkpt>
      <trkpt lat="47.6248" lon="6.7184">
        <ele>372.4</ele>
        <time>2026-08-30T11:51:59.000Z</time>
      </trkpt>
      <trkpt lat="47.62487" lon="6.7184">
        <ele>372.4</ele>
        <time>2026-08-30T11:52:01.000Z</time>
      </trkpt>
      <trkpt lat="47.62495" lon="6.7184">
        <ele>372.2</ele>
        <time>2026-08-30T11:52:03.000Z</time>
      </trkpt>
      <trkpt lat="47.62506" lon="6.7184">
        <ele>371.8</ele>
        <time>2026-08-30T11:52:05.000Z</time>
      </trkpt>
      <trkpt lat="47.62518" lon="6.71838">
        <ele>371.4</ele>
        <time>2026-08-30T11:52:07.000Z</time>
      </trkpt>
      <trkpt lat="47.62529" lon="6.71832">
        <ele>370.8</ele>
        <time>2026-08-30T11:52:10.000Z</time>
      </trkpt>
      <trkpt lat="47.6254" lon="6.71821">
        <ele>370.2</ele>
        <time>2026-08-30T11:52:12.000Z</time>
      </trkpt>
      <trkpt lat="47.62551" lon="6.71805">
        <ele>369.6</ele>
        <time>2026-08-30T11:52:14.000Z</time>
      </trkpt>
      <trkpt lat="47.6256" lon="6.71788">
        <ele>369.4</ele>
        <time>2026-08-30T11:52:16.000Z</time>
      </trkpt>
      <trkpt lat="47.62567" lon="6.71772">
        <ele>368.8</ele>
        <time>2026-08-30T11:52:18.000Z</time>
      </trkpt>
      <trkpt lat="47.62574" lon="6.71758">
        <ele>368.6</ele>
        <time>2026-08-30T11:52:20.000Z</time>
      </trkpt>
      <trkpt lat="47.62582" lon="6.71747">
        <ele>368.8</ele>
        <time>2026-08-30T11:52:22.000Z</time>
      </trkpt>
      <trkpt lat="47.6259" lon="6.71737">
        <ele>369</ele>
        <time>2026-08-30T11:52:24.000Z</time>
      </trkpt>
      <trkpt lat="47.62597" lon="6.71728">
        <ele>369.6</ele>
        <time>2026-08-30T11:52:26.000Z</time>
      </trkpt>
      <trkpt lat="47.62603" lon="6.71719">
        <ele>370</ele>
        <time>2026-08-30T11:52:28.000Z</time>
      </trkpt>
      <trkpt lat="47.62608" lon="6.71711">
        <ele>370.6</ele>
        <time>2026-08-30T11:52:30.000Z</time>
      </trkpt>
      <trkpt lat="47.62614" lon="6.71703">
        <ele>371</ele>
        <time>2026-08-30T11:52:32.000Z</time>
      </trkpt>
      <trkpt lat="47.6262" lon="6.71696">
        <ele>371.6</ele>
        <time>2026-08-30T11:52:34.000Z</time>
      </trkpt>
      <trkpt lat="47.62625" lon="6.71688">
        <ele>371.8</ele>
        <time>2026-08-30T11:52:36.000Z</time>
      </trkpt>
      <trkpt lat="47.6263" lon="6.71678">
        <ele>371.6</ele>
        <time>2026-08-30T11:52:38.000Z</time>
      </trkpt>
      <trkpt lat="47.62637" lon="6.71667">
        <ele>371.2</ele>
        <time>2026-08-30T11:52:40.000Z</time>
      </trkpt>
      <trkpt lat="47.62646" lon="6.71654">
        <ele>370.4</ele>
        <time>2026-08-30T11:52:42.000Z</time>
      </trkpt>
      <trkpt lat="47.62655" lon="6.71637">
        <ele>369.6</ele>
        <time>2026-08-30T11:52:44.000Z</time>
      </trkpt>
      <trkpt lat="47.62665" lon="6.71619">
        <ele>368.4</ele>
        <time>2026-08-30T11:52:46.000Z</time>
      </trkpt>
      <trkpt lat="47.62674" lon="6.71601">
        <ele>366.8</ele>
        <time>2026-08-30T11:52:48.000Z</time>
      </trkpt>
      <trkpt lat="47.62682" lon="6.7159">
        <ele>365.8</ele>
        <time>2026-08-30T11:52:50.000Z</time>
      </trkpt>
      <trkpt lat="47.62688" lon="6.71586">
        <ele>365</ele>
        <time>2026-08-30T11:52:52.000Z</time>
      </trkpt>
      <trkpt lat="47.62696" lon="6.71584">
        <ele>364.6</ele>
        <time>2026-08-30T11:52:54.000Z</time>
      </trkpt>
      <trkpt lat="47.62706" lon="6.7158">
        <ele>364.4</ele>
        <time>2026-08-30T11:52:56.000Z</time>
      </trkpt>
      <trkpt lat="47.62714" lon="6.71575">
        <ele>364.4</ele>
        <time>2026-08-30T11:52:58.000Z</time>
      </trkpt>
      <trkpt lat="47.62719" lon="6.71571">
        <ele>364.8</ele>
        <time>2026-08-30T11:53:00.000Z</time>
      </trkpt>
      <trkpt lat="47.62723" lon="6.71567">
        <ele>365.2</ele>
        <time>2026-08-30T11:53:02.000Z</time>
      </trkpt>
      <trkpt lat="47.62728" lon="6.71563">
        <ele>365.6</ele>
        <time>2026-08-30T11:53:04.000Z</time>
      </trkpt>
      <trkpt lat="47.62731" lon="6.7156">
        <ele>366.2</ele>
        <time>2026-08-30T11:53:06.000Z</time>
      </trkpt>
      <trkpt lat="47.62735" lon="6.71557">
        <ele>366.6</ele>
        <time>2026-08-30T11:53:08.000Z</time>
      </trkpt>
      <trkpt lat="47.62738" lon="6.71555">
        <ele>367</ele>
        <time>2026-08-30T11:53:10.000Z</time>
      </trkpt>
      <trkpt lat="47.6274" lon="6.71552">
        <ele>367.4</ele>
        <time>2026-08-30T11:53:12.000Z</time>
      </trkpt>
      <trkpt lat="47.62743" lon="6.71549">
        <ele>367.8</ele>
        <time>2026-08-30T11:53:14.000Z</time>
      </trkpt>
      <trkpt lat="47.62747" lon="6.71547">
        <ele>368.2</ele>
        <time>2026-08-30T11:53:16.000Z</time>
      </trkpt>
      <trkpt lat="47.62751" lon="6.71544">
        <ele>368.4</ele>
        <time>2026-08-30T11:53:18.000Z</time>
      </trkpt>
      <trkpt lat="47.62755" lon="6.71542">
        <ele>368.8</ele>
        <time>2026-08-30T11:53:20.000Z</time>
      </trkpt>
      <trkpt lat="47.62759" lon="6.7154">
        <ele>369.2</ele>
        <time>2026-08-30T11:53:22.000Z</time>
      </trkpt>
      <trkpt lat="47.62762" lon="6.71537">
        <ele>369.6</ele>
        <time>2026-08-30T11:53:24.000Z</time>
      </trkpt>
      <trkpt lat="47.62765" lon="6.71534">
        <ele>370</ele>
        <time>2026-08-30T11:53:26.000Z</time>
      </trkpt>
      <trkpt lat="47.62769" lon="6.71532">
        <ele>370.4</ele>
        <time>2026-08-30T11:53:28.000Z</time>
      </trkpt>
      <trkpt lat="47.62773" lon="6.7153">
        <ele>370.6</ele>
        <time>2026-08-30T11:53:30.000Z</time>
      </trkpt>
      <trkpt lat="47.62776" lon="6.71528">
        <ele>371</ele>
        <time>2026-08-30T11:53:32.000Z</time>
      </trkpt>
      <trkpt lat="47.6278" lon="6.71525">
        <ele>371.4</ele>
        <time>2026-08-30T11:53:34.000Z</time>
      </trkpt>
      <trkpt lat="47.62783" lon="6.71522">
        <ele>371.8</ele>
        <time>2026-08-30T11:53:36.000Z</time>
      </trkpt>
      <trkpt lat="47.62786" lon="6.71521">
        <ele>372</ele>
        <time>2026-08-30T11:53:38.000Z</time>
      </trkpt>
      <trkpt lat="47.6279" lon="6.71519">
        <ele>372.4</ele>
        <time>2026-08-30T11:53:40.000Z</time>
      </trkpt>
      <trkpt lat="47.62793" lon="6.71517">
        <ele>372.6</ele>
        <time>2026-08-30T11:53:42.000Z</time>
      </trkpt>
      <trkpt lat="47.62796" lon="6.71515">
        <ele>373</ele>
        <time>2026-08-30T11:53:44.000Z</time>
      </trkpt>
      <trkpt lat="47.62799" lon="6.71513">
        <ele>373.2</ele>
        <time>2026-08-30T11:53:46.000Z</time>
      </trkpt>
      <trkpt lat="47.62803" lon="6.71511">
        <ele>373.6</ele>
        <time>2026-08-30T11:53:48.000Z</time>
      </trkpt>
      <trkpt lat="47.62807" lon="6.71508">
        <ele>373.8</ele>
        <time>2026-08-30T11:53:50.000Z</time>
      </trkpt>
      <trkpt lat="47.6281" lon="6.71506">
        <ele>374.2</ele>
        <time>2026-08-30T11:53:52.000Z</time>
      </trkpt>
      <trkpt lat="47.62813" lon="6.71503">
        <ele>374.6</ele>
        <time>2026-08-30T11:53:54.000Z</time>
      </trkpt>
      <trkpt lat="47.62816" lon="6.71501">
        <ele>374.8</ele>
        <time>2026-08-30T11:53:56.000Z</time>
      </trkpt>
      <trkpt lat="47.62818" lon="6.71498">
        <ele>375.2</ele>
        <time>2026-08-30T11:53:58.000Z</time>
      </trkpt>
      <trkpt lat="47.62821" lon="6.71496">
        <ele>375.6</ele>
        <time>2026-08-30T11:54:00.000Z</time>
      </trkpt>
      <trkpt lat="47.62825" lon="6.71494">
        <ele>376</ele>
        <time>2026-08-30T11:54:02.000Z</time>
      </trkpt>
      <trkpt lat="47.62828" lon="6.71491">
        <ele>376.4</ele>
        <time>2026-08-30T11:54:05.000Z</time>
      </trkpt>
      <trkpt lat="47.62832" lon="6.71488">
        <ele>376.8</ele>
        <time>2026-08-30T11:54:07.000Z</time>
      </trkpt>
      <trkpt lat="47.62836" lon="6.71485">
        <ele>377</ele>
        <time>2026-08-30T11:54:09.000Z</time>
      </trkpt>
      <trkpt lat="47.6284" lon="6.71482">
        <ele>377.4</ele>
        <time>2026-08-30T11:54:11.000Z</time>
      </trkpt>
      <trkpt lat="47.62844" lon="6.71478">
        <ele>377.6</ele>
        <time>2026-08-30T11:54:13.000Z</time>
      </trkpt>
      <trkpt lat="47.62846" lon="6.71475">
        <ele>377.8</ele>
        <time>2026-08-30T11:54:15.000Z</time>
      </trkpt>
      <trkpt lat="47.62849" lon="6.71473">
        <ele>377.8</ele>
        <time>2026-08-30T11:54:17.000Z</time>
      </trkpt>
      <trkpt lat="47.62853" lon="6.7147">
        <ele>378</ele>
        <time>2026-08-30T11:54:19.000Z</time>
      </trkpt>
      <trkpt lat="47.62857" lon="6.71468">
        <ele>378.2</ele>
        <time>2026-08-30T11:54:21.000Z</time>
      </trkpt>
      <trkpt lat="47.6286" lon="6.71466">
        <ele>378.2</ele>
        <time>2026-08-30T11:54:23.000Z</time>
      </trkpt>
      <trkpt lat="47.62864" lon="6.71463">
        <ele>378.4</ele>
        <time>2026-08-30T11:54:25.000Z</time>
      </trkpt>
      <trkpt lat="47.62868" lon="6.71459">
        <ele>378.4</ele>
        <time>2026-08-30T11:54:27.000Z</time>
      </trkpt>
      <trkpt lat="47.62873" lon="6.71456">
        <ele>378.6</ele>
        <time>2026-08-30T11:54:29.000Z</time>
      </trkpt>
      <trkpt lat="47.62878" lon="6.71453">
        <ele>378.6</ele>
        <time>2026-08-30T11:54:31.000Z</time>
      </trkpt>
      <trkpt lat="47.62884" lon="6.7145">
        <ele>378.8</ele>
        <time>2026-08-30T11:54:33.000Z</time>
      </trkpt>
      <trkpt lat="47.62889" lon="6.71448">
        <ele>378.8</ele>
        <time>2026-08-30T11:54:35.000Z</time>
      </trkpt>
      <trkpt lat="47.62894" lon="6.71445">
        <ele>379</ele>
        <time>2026-08-30T11:54:37.000Z</time>
      </trkpt>
      <trkpt lat="47.629" lon="6.7144">
        <ele>379</ele>
        <time>2026-08-30T11:54:39.000Z</time>
      </trkpt>
      <trkpt lat="47.62907" lon="6.71435">
        <ele>379</ele>
        <time>2026-08-30T11:54:41.000Z</time>
      </trkpt>
      <trkpt lat="47.62913" lon="6.71431">
        <ele>379</ele>
        <time>2026-08-30T11:54:43.000Z</time>
      </trkpt>
      <trkpt lat="47.6292" lon="6.71426">
        <ele>378.8</ele>
        <time>2026-08-30T11:54:45.000Z</time>
      </trkpt>
      <trkpt lat="47.62929" lon="6.71421">
        <ele>378.6</ele>
        <time>2026-08-30T11:54:47.000Z</time>
      </trkpt>
      <trkpt lat="47.62942" lon="6.71414">
        <ele>378.4</ele>
        <time>2026-08-30T11:54:49.000Z</time>
      </trkpt>
      <trkpt lat="47.62954" lon="6.7141">
        <ele>378.2</ele>
        <time>2026-08-30T11:54:51.000Z</time>
      </trkpt>
      <trkpt lat="47.62964" lon="6.71409">
        <ele>378</ele>
        <time>2026-08-30T11:54:53.000Z</time>
      </trkpt>
      <trkpt lat="47.62974" lon="6.7141">
        <ele>377.8</ele>
        <time>2026-08-30T11:54:55.000Z</time>
      </trkpt>
      <trkpt lat="47.62983" lon="6.71413">
        <ele>377.8</ele>
        <time>2026-08-30T11:54:57.000Z</time>
      </trkpt>
      <trkpt lat="47.62992" lon="6.71415">
        <ele>377.6</ele>
        <time>2026-08-30T11:54:59.000Z</time>
      </trkpt>
      <trkpt lat="47.63003" lon="6.71418">
        <ele>377.6</ele>
        <time>2026-08-30T11:55:01.000Z</time>
      </trkpt>
      <trkpt lat="47.63014" lon="6.71421">
        <ele>377.6</ele>
        <time>2026-08-30T11:55:03.000Z</time>
      </trkpt>
      <trkpt lat="47.63025" lon="6.71423">
        <ele>377.6</ele>
        <time>2026-08-30T11:55:05.000Z</time>
      </trkpt>
      <trkpt lat="47.63035" lon="6.71426">
        <ele>377.6</ele>
        <time>2026-08-30T11:55:07.000Z</time>
      </trkpt>
      <trkpt lat="47.63044" lon="6.71431">
        <ele>377.6</ele>
        <time>2026-08-30T11:55:09.000Z</time>
      </trkpt>
      <trkpt lat="47.63051" lon="6.71438">
        <ele>378</ele>
        <time>2026-08-30T11:55:11.000Z</time>
      </trkpt>
      <trkpt lat="47.63057" lon="6.71447">
        <ele>378.2</ele>
        <time>2026-08-30T11:55:13.000Z</time>
      </trkpt>
      <trkpt lat="47.63062" lon="6.71457">
        <ele>378.4</ele>
        <time>2026-08-30T11:55:15.000Z</time>
      </trkpt>
      <trkpt lat="47.63065" lon="6.71465">
        <ele>378.6</ele>
        <time>2026-08-30T11:55:17.000Z</time>
      </trkpt>
      <trkpt lat="47.63067" lon="6.71472">
        <ele>379</ele>
        <time>2026-08-30T11:55:19.000Z</time>
      </trkpt>
      <trkpt lat="47.6307" lon="6.71479">
        <ele>379.4</ele>
        <time>2026-08-30T11:55:21.000Z</time>
      </trkpt>
      <trkpt lat="47.63072" lon="6.71486">
        <ele>379.8</ele>
        <time>2026-08-30T11:55:23.000Z</time>
      </trkpt>
      <trkpt lat="47.63074" lon="6.71493">
        <ele>380.2</ele>
        <time>2026-08-30T11:55:25.000Z</time>
      </trkpt>
      <trkpt lat="47.63076" lon="6.71498">
        <ele>380.4</ele>
        <time>2026-08-30T11:55:27.000Z</time>
      </trkpt>
      <trkpt lat="47.63077" lon="6.71504">
        <ele>380.8</ele>
        <time>2026-08-30T11:55:29.000Z</time>
      </trkpt>
      <trkpt lat="47.63079" lon="6.7151">
        <ele>381.2</ele>
        <time>2026-08-30T11:55:31.000Z</time>
      </trkpt>
      <trkpt lat="47.63081" lon="6.71516">
        <ele>381.4</ele>
        <time>2026-08-30T11:55:33.000Z</time>
      </trkpt>
      <trkpt lat="47.63083" lon="6.71522">
        <ele>381.6</ele>
        <time>2026-08-30T11:55:35.000Z</time>
      </trkpt>
      <trkpt lat="47.63086" lon="6.71528">
        <ele>381.8</ele>
        <time>2026-08-30T11:55:37.000Z</time>
      </trkpt>
      <trkpt lat="47.63088" lon="6.71534">
        <ele>382</ele>
        <time>2026-08-30T11:55:40.000Z</time>
      </trkpt>
      <trkpt lat="47.63091" lon="6.71539">
        <ele>382.2</ele>
        <time>2026-08-30T11:55:42.000Z</time>
      </trkpt>
      <trkpt lat="47.63094" lon="6.71544">
        <ele>382.6</ele>
        <time>2026-08-30T11:55:44.000Z</time>
      </trkpt>
      <trkpt lat="47.63097" lon="6.71549">
        <ele>382.8</ele>
        <time>2026-08-30T11:55:46.000Z</time>
      </trkpt>
      <trkpt lat="47.63101" lon="6.71554">
        <ele>383</ele>
        <time>2026-08-30T11:55:48.000Z</time>
      </trkpt>
      <trkpt lat="47.63104" lon="6.71558">
        <ele>383.4</ele>
        <time>2026-08-30T11:55:50.000Z</time>
      </trkpt>
      <trkpt lat="47.63108" lon="6.71561">
        <ele>383.8</ele>
        <time>2026-08-30T11:55:52.000Z</time>
      </trkpt>
      <trkpt lat="47.63112" lon="6.71563">
        <ele>384.2</ele>
        <time>2026-08-30T11:55:54.000Z</time>
      </trkpt>
      <trkpt lat="47.63117" lon="6.71563">
        <ele>384.6</ele>
        <time>2026-08-30T11:55:56.000Z</time>
      </trkpt>
      <trkpt lat="47.63121" lon="6.71563">
        <ele>384.8</ele>
        <time>2026-08-30T11:55:58.000Z</time>
      </trkpt>
      <trkpt lat="47.63125" lon="6.71562">
        <ele>385.2</ele>
        <time>2026-08-30T11:56:00.000Z</time>
      </trkpt>
      <trkpt lat="47.63129" lon="6.7156">
        <ele>385.6</ele>
        <time>2026-08-30T11:56:02.000Z</time>
      </trkpt>
      <trkpt lat="47.63133" lon="6.71559">
        <ele>386</ele>
        <time>2026-08-30T11:56:04.000Z</time>
      </trkpt>
      <trkpt lat="47.63137" lon="6.71557">
        <ele>386.4</ele>
        <time>2026-08-30T11:56:06.000Z</time>
      </trkpt>
      <trkpt lat="47.63141" lon="6.71555">
        <ele>386.8</ele>
        <time>2026-08-30T11:56:08.000Z</time>
      </trkpt>
      <trkpt lat="47.63146" lon="6.71552">
        <ele>387</ele>
        <time>2026-08-30T11:56:10.000Z</time>
      </trkpt>
      <trkpt lat="47.63151" lon="6.71549">
        <ele>387.4</ele>
        <time>2026-08-30T11:56:12.000Z</time>
      </trkpt>
      <trkpt lat="47.63155" lon="6.71546">
        <ele>387.6</ele>
        <time>2026-08-30T11:56:14.000Z</time>
      </trkpt>
      <trkpt lat="47.63159" lon="6.71543">
        <ele>387.8</ele>
        <time>2026-08-30T11:56:16.000Z</time>
      </trkpt>
      <trkpt lat="47.63162" lon="6.71541">
        <ele>388.2</ele>
        <time>2026-08-30T11:56:18.000Z</time>
      </trkpt>
      <trkpt lat="47.63165" lon="6.71539">
        <ele>388.6</ele>
        <time>2026-08-30T11:56:20.000Z</time>
      </trkpt>
      <trkpt lat="47.63169" lon="6.71538">
        <ele>388.8</ele>
        <time>2026-08-30T11:56:22.000Z</time>
      </trkpt>
      <trkpt lat="47.63172" lon="6.71538">
        <ele>389.2</ele>
        <time>2026-08-30T11:56:24.000Z</time>
      </trkpt>
      <trkpt lat="47.63176" lon="6.71538">
        <ele>389.6</ele>
        <time>2026-08-30T11:56:26.000Z</time>
      </trkpt>
      <trkpt lat="47.63179" lon="6.71537">
        <ele>390</ele>
        <time>2026-08-30T11:56:28.000Z</time>
      </trkpt>
      <trkpt lat="47.63182" lon="6.71538">
        <ele>390.4</ele>
        <time>2026-08-30T11:56:30.000Z</time>
      </trkpt>
      <trkpt lat="47.63184" lon="6.71538">
        <ele>390.8</ele>
        <time>2026-08-30T11:56:32.000Z</time>
      </trkpt>
      <trkpt lat="47.63187" lon="6.71537">
        <ele>391.2</ele>
        <time>2026-08-30T11:56:34.000Z</time>
      </trkpt>
      <trkpt lat="47.63191" lon="6.71537">
        <ele>391.4</ele>
        <time>2026-08-30T11:56:36.000Z</time>
      </trkpt>
      <trkpt lat="47.63194" lon="6.71538">
        <ele>391.8</ele>
        <time>2026-08-30T11:56:38.000Z</time>
      </trkpt>
      <trkpt lat="47.63198" lon="6.71539">
        <ele>392</ele>
        <time>2026-08-30T11:56:40.000Z</time>
      </trkpt>
      <trkpt lat="47.63202" lon="6.7154">
        <ele>392.4</ele>
        <time>2026-08-30T11:56:42.000Z</time>
      </trkpt>
      <trkpt lat="47.63205" lon="6.71541">
        <ele>392.6</ele>
        <time>2026-08-30T11:56:44.000Z</time>
      </trkpt>
      <trkpt lat="47.63209" lon="6.71542">
        <ele>393</ele>
        <time>2026-08-30T11:56:46.000Z</time>
      </trkpt>
      <trkpt lat="47.63213" lon="6.71543">
        <ele>393.2</ele>
        <time>2026-08-30T11:56:48.000Z</time>
      </trkpt>
      <trkpt lat="47.63217" lon="6.71543">
        <ele>393.6</ele>
        <time>2026-08-30T11:56:50.000Z</time>
      </trkpt>
      <trkpt lat="47.63221" lon="6.71543">
        <ele>393.8</ele>
        <time>2026-08-30T11:56:52.000Z</time>
      </trkpt>
      <trkpt lat="47.63225" lon="6.71544">
        <ele>394.2</ele>
        <time>2026-08-30T11:56:54.000Z</time>
      </trkpt>
      <trkpt lat="47.63229" lon="6.71544">
        <ele>394.4</ele>
        <time>2026-08-30T11:56:56.000Z</time>
      </trkpt>
      <trkpt lat="47.63234" lon="6.71544">
        <ele>394.8</ele>
        <time>2026-08-30T11:56:58.000Z</time>
      </trkpt>
      <trkpt lat="47.63238" lon="6.71545">
        <ele>395</ele>
        <time>2026-08-30T11:57:00.000Z</time>
      </trkpt>
      <trkpt lat="47.63243" lon="6.71546">
        <ele>395.2</ele>
        <time>2026-08-30T11:57:02.000Z</time>
      </trkpt>
      <trkpt lat="47.63248" lon="6.71547">
        <ele>395.4</ele>
        <time>2026-08-30T11:57:04.000Z</time>
      </trkpt>
      <trkpt lat="47.63253" lon="6.71548">
        <ele>395.4</ele>
        <time>2026-08-30T11:57:06.000Z</time>
      </trkpt>
      <trkpt lat="47.63259" lon="6.71548">
        <ele>395.6</ele>
        <time>2026-08-30T11:57:08.000Z</time>
      </trkpt>
      <trkpt lat="47.63265" lon="6.71549">
        <ele>395.8</ele>
        <time>2026-08-30T11:57:10.000Z</time>
      </trkpt>
      <trkpt lat="47.63271" lon="6.7155">
        <ele>395.8</ele>
        <time>2026-08-30T11:57:12.000Z</time>
      </trkpt>
      <trkpt lat="47.63278" lon="6.71549">
        <ele>396</ele>
        <time>2026-08-30T11:57:14.000Z</time>
      </trkpt>
      <trkpt lat="47.63286" lon="6.71548">
        <ele>396</ele>
        <time>2026-08-30T11:57:16.000Z</time>
      </trkpt>
      <trkpt lat="47.63293" lon="6.71548">
        <ele>396</ele>
        <time>2026-08-30T11:57:18.000Z</time>
      </trkpt>
      <trkpt lat="47.633" lon="6.71548">
        <ele>396.2</ele>
        <time>2026-08-30T11:57:20.000Z</time>
      </trkpt>
      <trkpt lat="47.63308" lon="6.7155">
        <ele>396</ele>
        <time>2026-08-30T11:57:22.000Z</time>
      </trkpt>
      <trkpt lat="47.63316" lon="6.71551">
        <ele>396</ele>
        <time>2026-08-30T11:57:24.000Z</time>
      </trkpt>
      <trkpt lat="47.63324" lon="6.71553">
        <ele>395.8</ele>
        <time>2026-08-30T11:57:26.000Z</time>
      </trkpt>
      <trkpt lat="47.63333" lon="6.71554">
        <ele>395.6</ele>
        <time>2026-08-30T11:57:28.000Z</time>
      </trkpt>
      <trkpt lat="47.63342" lon="6.71555">
        <ele>395.4</ele>
        <time>2026-08-30T11:57:30.000Z</time>
      </trkpt>
      <trkpt lat="47.63351" lon="6.71556">
        <ele>395</ele>
        <time>2026-08-30T11:57:32.000Z</time>
      </trkpt>
      <trkpt lat="47.63362" lon="6.71557">
        <ele>394.8</ele>
        <time>2026-08-30T11:57:34.000Z</time>
      </trkpt>
      <trkpt lat="47.63373" lon="6.71559">
        <ele>394.2</ele>
        <time>2026-08-30T11:57:36.000Z</time>
      </trkpt>
      <trkpt lat="47.63386" lon="6.71561">
        <ele>393.6</ele>
        <time>2026-08-30T11:57:38.000Z</time>
      </trkpt>
      <trkpt lat="47.634" lon="6.71562">
        <ele>392.8</ele>
        <time>2026-08-30T11:57:41.000Z</time>
      </trkpt>
      <trkpt lat="47.63414" lon="6.71558">
        <ele>391.6</ele>
        <time>2026-08-30T11:57:43.000Z</time>
      </trkpt>
      <trkpt lat="47.63427" lon="6.71546">
        <ele>390.8</ele>
        <time>2026-08-30T11:57:45.000Z</time>
      </trkpt>
      <trkpt lat="47.63439" lon="6.71528">
        <ele>389.6</ele>
        <time>2026-08-30T11:57:47.000Z</time>
      </trkpt>
      <trkpt lat="47.63446" lon="6.71503">
        <ele>388.2</ele>
        <time>2026-08-30T11:57:49.000Z</time>
      </trkpt>
      <trkpt lat="47.6345" lon="6.71474">
        <ele>386.6</ele>
        <time>2026-08-30T11:57:51.000Z</time>
      </trkpt>
      <trkpt lat="47.6345" lon="6.71444">
        <ele>385</ele>
        <time>2026-08-30T11:57:53.000Z</time>
      </trkpt>
      <trkpt lat="47.63449" lon="6.71416">
        <ele>383.4</ele>
        <time>2026-08-30T11:57:55.000Z</time>
      </trkpt>
      <trkpt lat="47.63448" lon="6.71393">
        <ele>382</ele>
        <time>2026-08-30T11:57:57.000Z</time>
      </trkpt>
      <trkpt lat="47.63449" lon="6.71375">
        <ele>380.4</ele>
        <time>2026-08-30T11:57:59.000Z</time>
      </trkpt>
      <trkpt lat="47.63449" lon="6.7136">
        <ele>379</ele>
        <time>2026-08-30T11:58:01.000Z</time>
      </trkpt>
      <trkpt lat="47.63446" lon="6.71347">
        <ele>378.2</ele>
        <time>2026-08-30T11:58:03.000Z</time>
      </trkpt>
      <trkpt lat="47.6344" lon="6.71338">
        <ele>377.8</ele>
        <time>2026-08-30T11:58:05.000Z</time>
      </trkpt>
      <trkpt lat="47.63433" lon="6.71332">
        <ele>377.6</ele>
        <time>2026-08-30T11:58:07.000Z</time>
      </trkpt>
      <trkpt lat="47.63427" lon="6.71326">
        <ele>377.6</ele>
        <time>2026-08-30T11:58:09.000Z</time>
      </trkpt>
      <trkpt lat="47.63423" lon="6.71322">
        <ele>378</ele>
        <time>2026-08-30T11:58:11.000Z</time>
      </trkpt>
      <trkpt lat="47.6342" lon="6.71318">
        <ele>378.2</ele>
        <time>2026-08-30T11:58:13.000Z</time>
      </trkpt>
      <trkpt lat="47.63417" lon="6.71314">
        <ele>378.6</ele>
        <time>2026-08-30T11:58:15.000Z</time>
      </trkpt>
      <trkpt lat="47.63414" lon="6.71311">
        <ele>379.2</ele>
        <time>2026-08-30T11:58:17.000Z</time>
      </trkpt>
      <trkpt lat="47.6341" lon="6.71307">
        <ele>379.6</ele>
        <time>2026-08-30T11:58:19.000Z</time>
      </trkpt>
      <trkpt lat="47.63407" lon="6.71303">
        <ele>380</ele>
        <time>2026-08-30T11:58:21.000Z</time>
      </trkpt>
      <trkpt lat="47.63404" lon="6.71299">
        <ele>380.4</ele>
        <time>2026-08-30T11:58:23.000Z</time>
      </trkpt>
      <trkpt lat="47.63401" lon="6.71296">
        <ele>380.8</ele>
        <time>2026-08-30T11:58:25.000Z</time>
      </trkpt>
      <trkpt lat="47.63397" lon="6.71292">
        <ele>381</ele>
        <time>2026-08-30T11:58:27.000Z</time>
      </trkpt>
      <trkpt lat="47.63394" lon="6.71289">
        <ele>381.4</ele>
        <time>2026-08-30T11:58:29.000Z</time>
      </trkpt>
      <trkpt lat="47.6339" lon="6.71285">
        <ele>381.6</ele>
        <time>2026-08-30T11:58:31.000Z</time>
      </trkpt>
      <trkpt lat="47.63387" lon="6.71281">
        <ele>381.8</ele>
        <time>2026-08-30T11:58:33.000Z</time>
      </trkpt>
      <trkpt lat="47.63383" lon="6.71277">
        <ele>382</ele>
        <time>2026-08-30T11:58:35.000Z</time>
      </trkpt>
      <trkpt lat="47.6338" lon="6.71273">
        <ele>382.2</ele>
        <time>2026-08-30T11:58:37.000Z</time>
      </trkpt>
      <trkpt lat="47.63376" lon="6.71269">
        <ele>382.6</ele>
        <time>2026-08-30T11:58:39.000Z</time>
      </trkpt>
      <trkpt lat="47.63373" lon="6.71266">
        <ele>382.8</ele>
        <time>2026-08-30T11:58:41.000Z</time>
      </trkpt>
      <trkpt lat="47.63369" lon="6.71262">
        <ele>383.2</ele>
        <time>2026-08-30T11:58:43.000Z</time>
      </trkpt>
      <trkpt lat="47.63366" lon="6.71257">
        <ele>383.4</ele>
        <time>2026-08-30T11:58:45.000Z</time>
      </trkpt>
      <trkpt lat="47.63362" lon="6.71254">
        <ele>383.6</ele>
        <time>2026-08-30T11:58:47.000Z</time>
      </trkpt>
      <trkpt lat="47.63358" lon="6.7125">
        <ele>383.8</ele>
        <time>2026-08-30T11:58:49.000Z</time>
      </trkpt>
      <trkpt lat="47.63355" lon="6.71245">
        <ele>384</ele>
        <time>2026-08-30T11:58:51.000Z</time>
      </trkpt>
      <trkpt lat="47.63351" lon="6.71241">
        <ele>384.2</ele>
        <time>2026-08-30T11:58:53.000Z</time>
      </trkpt>
      <trkpt lat="47.63348" lon="6.71237">
        <ele>384.4</ele>
        <time>2026-08-30T11:58:55.000Z</time>
      </trkpt>
      <trkpt lat="47.63344" lon="6.71234">
        <ele>384.6</ele>
        <time>2026-08-30T11:58:57.000Z</time>
      </trkpt>
      <trkpt lat="47.6334" lon="6.7123">
        <ele>384.8</ele>
        <time>2026-08-30T11:58:59.000Z</time>
      </trkpt>
      <trkpt lat="47.63336" lon="6.71227">
        <ele>385</ele>
        <time>2026-08-30T11:59:01.000Z</time>
      </trkpt>
      <trkpt lat="47.63332" lon="6.71224">
        <ele>385.2</ele>
        <time>2026-08-30T11:59:03.000Z</time>
      </trkpt>
      <trkpt lat="47.63329" lon="6.71221">
        <ele>385.2</ele>
        <time>2026-08-30T11:59:05.000Z</time>
      </trkpt>
      <trkpt lat="47.63325" lon="6.71218">
        <ele>385.4</ele>
        <time>2026-08-30T11:59:07.000Z</time>
      </trkpt>
      <trkpt lat="47.63322" lon="6.71215">
        <ele>385.6</ele>
        <time>2026-08-30T11:59:09.000Z</time>
      </trkpt>
      <trkpt lat="47.63318" lon="6.71212">
        <ele>385.8</ele>
        <time>2026-08-30T11:59:11.000Z</time>
      </trkpt>
      <trkpt lat="47.63315" lon="6.71208">
        <ele>386.2</ele>
        <time>2026-08-30T11:59:13.000Z</time>
      </trkpt>
      <trkpt lat="47.63311" lon="6.71203">
        <ele>386.6</ele>
        <time>2026-08-30T11:59:16.000Z</time>
      </trkpt>
      <trkpt lat="47.63308" lon="6.71199">
        <ele>387</ele>
        <time>2026-08-30T11:59:18.000Z</time>
      </trkpt>
      <trkpt lat="47.63305" lon="6.71195">
        <ele>387.4</ele>
        <time>2026-08-30T11:59:20.000Z</time>
      </trkpt>
      <trkpt lat="47.63303" lon="6.71192">
        <ele>387.8</ele>
        <time>2026-08-30T11:59:22.000Z</time>
      </trkpt>
      <trkpt lat="47.633" lon="6.71188">
        <ele>388.2</ele>
        <time>2026-08-30T11:59:24.000Z</time>
      </trkpt>
      <trkpt lat="47.63298" lon="6.71185">
        <ele>388.4</ele>
        <time>2026-08-30T11:59:26.000Z</time>
      </trkpt>
      <trkpt lat="47.63296" lon="6.71182">
        <ele>388.8</ele>
        <time>2026-08-30T11:59:28.000Z</time>
      </trkpt>
      <trkpt lat="47.63293" lon="6.71179">
        <ele>389.2</ele>
        <time>2026-08-30T11:59:30.000Z</time>
      </trkpt>
      <trkpt lat="47.63291" lon="6.71176">
        <ele>389.6</ele>
        <time>2026-08-30T11:59:32.000Z</time>
      </trkpt>
      <trkpt lat="47.63289" lon="6.71174">
        <ele>390</ele>
        <time>2026-08-30T11:59:34.000Z</time>
      </trkpt>
      <trkpt lat="47.63287" lon="6.71171">
        <ele>390.4</ele>
        <time>2026-08-30T11:59:36.000Z</time>
      </trkpt>
      <trkpt lat="47.63285" lon="6.71169">
        <ele>390.8</ele>
        <time>2026-08-30T11:59:38.000Z</time>
      </trkpt>
      <trkpt lat="47.63282" lon="6.71166">
        <ele>391.2</ele>
        <time>2026-08-30T11:59:40.000Z</time>
      </trkpt>
      <trkpt lat="47.63279" lon="6.71164">
        <ele>391.6</ele>
        <time>2026-08-30T11:59:42.000Z</time>
      </trkpt>
      <trkpt lat="47.63277" lon="6.71162">
        <ele>391.8</ele>
        <time>2026-08-30T11:59:44.000Z</time>
      </trkpt>
      <trkpt lat="47.63274" lon="6.71161">
        <ele>392.2</ele>
        <time>2026-08-30T11:59:46.000Z</time>
      </trkpt>
      <trkpt lat="47.63271" lon="6.71159">
        <ele>392.6</ele>
        <time>2026-08-30T11:59:48.000Z</time>
      </trkpt>
      <trkpt lat="47.63269" lon="6.71158">
        <ele>393</ele>
        <time>2026-08-30T11:59:50.000Z</time>
      </trkpt>
      <trkpt lat="47.63266" lon="6.71156">
        <ele>393.4</ele>
        <time>2026-08-30T11:59:52.000Z</time>
      </trkpt>
      <trkpt lat="47.63263" lon="6.71155">
        <ele>393.8</ele>
        <time>2026-08-30T11:59:54.000Z</time>
      </trkpt>
      <trkpt lat="47.63261" lon="6.71153">
        <ele>394</ele>
        <time>2026-08-30T11:59:56.000Z</time>
      </trkpt>
      <trkpt lat="47.63258" lon="6.71152">
        <ele>394.4</ele>
        <time>2026-08-30T11:59:58.000Z</time>
      </trkpt>
      <trkpt lat="47.63255" lon="6.71151">
        <ele>394.8</ele>
        <time>2026-08-30T12:00:00.000Z</time>
      </trkpt>
      <trkpt lat="47.63252" lon="6.7115">
        <ele>395.2</ele>
        <time>2026-08-30T12:00:02.000Z</time>
      </trkpt>
      <trkpt lat="47.63249" lon="6.71149">
        <ele>395.6</ele>
        <time>2026-08-30T12:00:04.000Z</time>
      </trkpt>
      <trkpt lat="47.63247" lon="6.71148">
        <ele>396</ele>
        <time>2026-08-30T12:00:06.000Z</time>
      </trkpt>
      <trkpt lat="47.63244" lon="6.71146">
        <ele>396.4</ele>
        <time>2026-08-30T12:00:08.000Z</time>
      </trkpt>
      <trkpt lat="47.63242" lon="6.71145">
        <ele>396.6</ele>
        <time>2026-08-30T12:00:10.000Z</time>
      </trkpt>
      <trkpt lat="47.63239" lon="6.71144">
        <ele>397</ele>
        <time>2026-08-30T12:00:12.000Z</time>
      </trkpt>
      <trkpt lat="47.63236" lon="6.71143">
        <ele>397.4</ele>
        <time>2026-08-30T12:00:14.000Z</time>
      </trkpt>
      <trkpt lat="47.63233" lon="6.71143">
        <ele>397.6</ele>
        <time>2026-08-30T12:00:16.000Z</time>
      </trkpt>
      <trkpt lat="47.6323" lon="6.71143">
        <ele>398</ele>
        <time>2026-08-30T12:00:18.000Z</time>
      </trkpt>
      <trkpt lat="47.63227" lon="6.71143">
        <ele>398.4</ele>
        <time>2026-08-30T12:00:20.000Z</time>
      </trkpt>
      <trkpt lat="47.63224" lon="6.71142">
        <ele>398.6</ele>
        <time>2026-08-30T12:00:22.000Z</time>
      </trkpt>
      <trkpt lat="47.63221" lon="6.71142">
        <ele>399</ele>
        <time>2026-08-30T12:00:24.000Z</time>
      </trkpt>
      <trkpt lat="47.63217" lon="6.71142">
        <ele>399.4</ele>
        <time>2026-08-30T12:00:26.000Z</time>
      </trkpt>
      <trkpt lat="47.63214" lon="6.71142">
        <ele>399.6</ele>
        <time>2026-08-30T12:00:28.000Z</time>
      </trkpt>
      <trkpt lat="47.63211" lon="6.71142">
        <ele>400</ele>
        <time>2026-08-30T12:00:30.000Z</time>
      </trkpt>
      <trkpt lat="47.63208" lon="6.71143">
        <ele>400.2</ele>
        <time>2026-08-30T12:00:32.000Z</time>
      </trkpt>
      <trkpt lat="47.63206" lon="6.71143">
        <ele>400.4</ele>
        <time>2026-08-30T12:00:34.000Z</time>
      </trkpt>
      <trkpt lat="47.63202" lon="6.71144">
        <ele>400.8</ele>
        <time>2026-08-30T12:00:36.000Z</time>
      </trkpt>
      <trkpt lat="47.63199" lon="6.71144">
        <ele>401</ele>
        <time>2026-08-30T12:00:38.000Z</time>
      </trkpt>
      <trkpt lat="47.63196" lon="6.71145">
        <ele>401.2</ele>
        <time>2026-08-30T12:00:40.000Z</time>
      </trkpt>
      <trkpt lat="47.63192" lon="6.71146">
        <ele>401.6</ele>
        <time>2026-08-30T12:00:42.000Z</time>
      </trkpt>
      <trkpt lat="47.63189" lon="6.71146">
        <ele>401.8</ele>
        <time>2026-08-30T12:00:44.000Z</time>
      </trkpt>
      <trkpt lat="47.63185" lon="6.71147">
        <ele>402</ele>
        <time>2026-08-30T12:00:46.000Z</time>
      </trkpt>
      <trkpt lat="47.63182" lon="6.71148">
        <ele>402.2</ele>
        <time>2026-08-30T12:00:48.000Z</time>
      </trkpt>
      <trkpt lat="47.63178" lon="6.71148">
        <ele>402.4</ele>
        <time>2026-08-30T12:00:50.000Z</time>
      </trkpt>
      <trkpt lat="47.63175" lon="6.71148">
        <ele>402.8</ele>
        <time>2026-08-30T12:00:52.000Z</time>
      </trkpt>
      <trkpt lat="47.63171" lon="6.71148">
        <ele>402.8</ele>
        <time>2026-08-30T12:00:54.000Z</time>
      </trkpt>
      <trkpt lat="47.63167" lon="6.71147">
        <ele>403</ele>
        <time>2026-08-30T12:00:56.000Z</time>
      </trkpt>
      <trkpt lat="47.63163" lon="6.71147">
        <ele>403.2</ele>
        <time>2026-08-30T12:00:58.000Z</time>
      </trkpt>
      <trkpt lat="47.63159" lon="6.71146">
        <ele>403.4</ele>
        <time>2026-08-30T12:01:00.000Z</time>
      </trkpt>
      <trkpt lat="47.63155" lon="6.71144">
        <ele>403.6</ele>
        <time>2026-08-30T12:01:02.000Z</time>
      </trkpt>
      <trkpt lat="47.63151" lon="6.71142">
        <ele>404</ele>
        <time>2026-08-30T12:01:04.000Z</time>
      </trkpt>
      <trkpt lat="47.63148" lon="6.71139">
        <ele>404.2</ele>
        <time>2026-08-30T12:01:06.000Z</time>
      </trkpt>
      <trkpt lat="47.63144" lon="6.71135">
        <ele>404.4</ele>
        <time>2026-08-30T12:01:09.000Z</time>
      </trkpt>
      <trkpt lat="47.63141" lon="6.71131">
        <ele>404.6</ele>
        <time>2026-08-30T12:01:11.000Z</time>
      </trkpt>
      <trkpt lat="47.63138" lon="6.71126">
        <ele>404.6</ele>
        <time>2026-08-30T12:01:13.000Z</time>
      </trkpt>
      <trkpt lat="47.63134" lon="6.71122">
        <ele>404.8</ele>
        <time>2026-08-30T12:01:15.000Z</time>
      </trkpt>
      <trkpt lat="47.63131" lon="6.71117">
        <ele>405</ele>
        <time>2026-08-30T12:01:17.000Z</time>
      </trkpt>
      <trkpt lat="47.63128" lon="6.71112">
        <ele>405</ele>
        <time>2026-08-30T12:01:19.000Z</time>
      </trkpt>
      <trkpt lat="47.63125" lon="6.71107">
        <ele>405</ele>
        <time>2026-08-30T12:01:21.000Z</time>
      </trkpt>
      <trkpt lat="47.63122" lon="6.71103">
        <ele>405.2</ele>
        <time>2026-08-30T12:01:23.000Z</time>
      </trkpt>
      <trkpt lat="47.63119" lon="6.71098">
        <ele>405.2</ele>
        <time>2026-08-30T12:01:25.000Z</time>
      </trkpt>
      <trkpt lat="47.63117" lon="6.71095">
        <ele>405.2</ele>
        <time>2026-08-30T12:01:27.000Z</time>
      </trkpt>
      <trkpt lat="47.63114" lon="6.71092">
        <ele>405.2</ele>
        <time>2026-08-30T12:01:29.000Z</time>
      </trkpt>
      <trkpt lat="47.63111" lon="6.71087">
        <ele>405.4</ele>
        <time>2026-08-30T12:01:31.000Z</time>
      </trkpt>
      <trkpt lat="47.63108" lon="6.71082">
        <ele>405.4</ele>
        <time>2026-08-30T12:01:33.000Z</time>
      </trkpt>
      <trkpt lat="47.63105" lon="6.71078">
        <ele>405.6</ele>
        <time>2026-08-30T12:01:35.000Z</time>
      </trkpt>
      <trkpt lat="47.63101" lon="6.71074">
        <ele>405.8</ele>
        <time>2026-08-30T12:01:37.000Z</time>
      </trkpt>
      <trkpt lat="47.63098" lon="6.71069">
        <ele>406</ele>
        <time>2026-08-30T12:01:39.000Z</time>
      </trkpt>
      <trkpt lat="47.63095" lon="6.71064">
        <ele>406.2</ele>
        <time>2026-08-30T12:01:41.000Z</time>
      </trkpt>
      <trkpt lat="47.6309" lon="6.71058">
        <ele>406.4</ele>
        <time>2026-08-30T12:01:43.000Z</time>
      </trkpt>
      <trkpt lat="47.63085" lon="6.71053">
        <ele>406.4</ele>
        <time>2026-08-30T12:01:45.000Z</time>
      </trkpt>
      <trkpt lat="47.63082" lon="6.71049">
        <ele>406.6</ele>
        <time>2026-08-30T12:01:47.000Z</time>
      </trkpt>
      <trkpt lat="47.63078" lon="6.71045">
        <ele>406.8</ele>
        <time>2026-08-30T12:01:49.000Z</time>
      </trkpt>
      <trkpt lat="47.63075" lon="6.71041">
        <ele>407</ele>
        <time>2026-08-30T12:01:51.000Z</time>
      </trkpt>
      <trkpt lat="47.63071" lon="6.71038">
        <ele>407.2</ele>
        <time>2026-08-30T12:01:53.000Z</time>
      </trkpt>
      <trkpt lat="47.63067" lon="6.71034">
        <ele>407.4</ele>
        <time>2026-08-30T12:01:55.000Z</time>
      </trkpt>
      <trkpt lat="47.63063" lon="6.71029">
        <ele>407.6</ele>
        <time>2026-08-30T12:01:57.000Z</time>
      </trkpt>
      <trkpt lat="47.63059" lon="6.71025">
        <ele>407.8</ele>
        <time>2026-08-30T12:01:59.000Z</time>
      </trkpt>
      <trkpt lat="47.63055" lon="6.71021">
        <ele>407.8</ele>
        <time>2026-08-30T12:02:01.000Z</time>
      </trkpt>
      <trkpt lat="47.63051" lon="6.71016">
        <ele>408</ele>
        <time>2026-08-30T12:02:03.000Z</time>
      </trkpt>
      <trkpt lat="47.63047" lon="6.71012">
        <ele>408</ele>
        <time>2026-08-30T12:02:05.000Z</time>
      </trkpt>
      <trkpt lat="47.63042" lon="6.71008">
        <ele>408.2</ele>
        <time>2026-08-30T12:02:07.000Z</time>
      </trkpt>
      <trkpt lat="47.63038" lon="6.71005">
        <ele>408.2</ele>
        <time>2026-08-30T12:02:09.000Z</time>
      </trkpt>
      <trkpt lat="47.63035" lon="6.71">
        <ele>408.4</ele>
        <time>2026-08-30T12:02:11.000Z</time>
      </trkpt>
      <trkpt lat="47.63031" lon="6.70996">
        <ele>408.6</ele>
        <time>2026-08-30T12:02:13.000Z</time>
      </trkpt>
      <trkpt lat="47.63027" lon="6.70991">
        <ele>408.8</ele>
        <time>2026-08-30T12:02:15.000Z</time>
      </trkpt>
      <trkpt lat="47.63023" lon="6.70987">
        <ele>409</ele>
        <time>2026-08-30T12:02:17.000Z</time>
      </trkpt>
      <trkpt lat="47.63019" lon="6.70983">
        <ele>409.2</ele>
        <time>2026-08-30T12:02:19.000Z</time>
      </trkpt>
      <trkpt lat="47.63015" lon="6.7098">
        <ele>409.6</ele>
        <time>2026-08-30T12:02:21.000Z</time>
      </trkpt>
      <trkpt lat="47.63012" lon="6.70976">
        <ele>409.8</ele>
        <time>2026-08-30T12:02:23.000Z</time>
      </trkpt>
      <trkpt lat="47.63009" lon="6.70973">
        <ele>410</ele>
        <time>2026-08-30T12:02:25.000Z</time>
      </trkpt>
      <trkpt lat="47.63006" lon="6.70969">
        <ele>410.4</ele>
        <time>2026-08-30T12:02:27.000Z</time>
      </trkpt>
      <trkpt lat="47.63002" lon="6.70966">
        <ele>410.6</ele>
        <time>2026-08-30T12:02:29.000Z</time>
      </trkpt>
      <trkpt lat="47.62999" lon="6.70963">
        <ele>410.8</ele>
        <time>2026-08-30T12:02:31.000Z</time>
      </trkpt>
      <trkpt lat="47.62995" lon="6.7096">
        <ele>411</ele>
        <time>2026-08-30T12:02:33.000Z</time>
      </trkpt>
      <trkpt lat="47.62992" lon="6.70957">
        <ele>411.4</ele>
        <time>2026-08-30T12:02:35.000Z</time>
      </trkpt>
      <trkpt lat="47.62989" lon="6.70953">
        <ele>411.6</ele>
        <time>2026-08-30T12:02:37.000Z</time>
      </trkpt>
      <trkpt lat="47.62986" lon="6.7095">
        <ele>412</ele>
        <time>2026-08-30T12:02:39.000Z</time>
      </trkpt>
      <trkpt lat="47.62982" lon="6.70946">
        <ele>412.2</ele>
        <time>2026-08-30T12:02:41.000Z</time>
      </trkpt>
      <trkpt lat="47.62979" lon="6.70943">
        <ele>412.6</ele>
        <time>2026-08-30T12:02:43.000Z</time>
      </trkpt>
      <trkpt lat="47.62975" lon="6.7094">
        <ele>412.8</ele>
        <time>2026-08-30T12:02:45.000Z</time>
      </trkpt>
      <trkpt lat="47.62972" lon="6.70937">
        <ele>413.2</ele>
        <time>2026-08-30T12:02:47.000Z</time>
      </trkpt>
      <trkpt lat="47.62969" lon="6.70934">
        <ele>413.6</ele>
        <time>2026-08-30T12:02:49.000Z</time>
      </trkpt>
      <trkpt lat="47.62966" lon="6.70931">
        <ele>414</ele>
        <time>2026-08-30T12:02:51.000Z</time>
      </trkpt>
      <trkpt lat="47.62963" lon="6.70927">
        <ele>414.2</ele>
        <time>2026-08-30T12:02:53.000Z</time>
      </trkpt>
      <trkpt lat="47.62961" lon="6.70923">
        <ele>414.6</ele>
        <time>2026-08-30T12:02:55.000Z</time>
      </trkpt>
      <trkpt lat="47.62959" lon="6.70919">
        <ele>415</ele>
        <time>2026-08-30T12:02:57.000Z</time>
      </trkpt>
      <trkpt lat="47.62957" lon="6.70915">
        <ele>415.4</ele>
        <time>2026-08-30T12:02:59.000Z</time>
      </trkpt>
      <trkpt lat="47.62955" lon="6.7091">
        <ele>415.8</ele>
        <time>2026-08-30T12:03:01.000Z</time>
      </trkpt>
      <trkpt lat="47.62954" lon="6.70905">
        <ele>416</ele>
        <time>2026-08-30T12:03:04.000Z</time>
      </trkpt>
      <trkpt lat="47.62952" lon="6.70901">
        <ele>416.4</ele>
        <time>2026-08-30T12:03:06.000Z</time>
      </trkpt>
      <trkpt lat="47.62951" lon="6.70896">
        <ele>416.6</ele>
        <time>2026-08-30T12:03:08.000Z</time>
      </trkpt>
      <trkpt lat="47.6295" lon="6.70891">
        <ele>417</ele>
        <time>2026-08-30T12:03:10.000Z</time>
      </trkpt>
      <trkpt lat="47.62948" lon="6.70885">
        <ele>417.4</ele>
        <time>2026-08-30T12:03:12.000Z</time>
      </trkpt>
      <trkpt lat="47.62947" lon="6.70881">
        <ele>417.8</ele>
        <time>2026-08-30T12:03:14.000Z</time>
      </trkpt>
      <trkpt lat="47.62946" lon="6.70876">
        <ele>418</ele>
        <time>2026-08-30T12:03:16.000Z</time>
      </trkpt>
      <trkpt lat="47.62944" lon="6.70871">
        <ele>418.4</ele>
        <time>2026-08-30T12:03:18.000Z</time>
      </trkpt>
      <trkpt lat="47.62943" lon="6.70866">
        <ele>418.6</ele>
        <time>2026-08-30T12:03:20.000Z</time>
      </trkpt>
      <trkpt lat="47.62942" lon="6.70861">
        <ele>418.8</ele>
        <time>2026-08-30T12:03:22.000Z</time>
      </trkpt>
      <trkpt lat="47.62941" lon="6.70856">
        <ele>419.2</ele>
        <time>2026-08-30T12:03:24.000Z</time>
      </trkpt>
      <trkpt lat="47.6294" lon="6.70851">
        <ele>419.4</ele>
        <time>2026-08-30T12:03:26.000Z</time>
      </trkpt>
      <trkpt lat="47.62938" lon="6.70845">
        <ele>419.8</ele>
        <time>2026-08-30T12:03:28.000Z</time>
      </trkpt>
      <trkpt lat="47.62937" lon="6.7084">
        <ele>420</ele>
        <time>2026-08-30T12:03:30.000Z</time>
      </trkpt>
      <trkpt lat="47.62936" lon="6.70835">
        <ele>420.2</ele>
        <time>2026-08-30T12:03:32.000Z</time>
      </trkpt>
      <trkpt lat="47.62934" lon="6.7083">
        <ele>420.6</ele>
        <time>2026-08-30T12:03:34.000Z</time>
      </trkpt>
      <trkpt lat="47.62932" lon="6.70823">
        <ele>420.8</ele>
        <time>2026-08-30T12:03:36.000Z</time>
      </trkpt>
      <trkpt lat="47.62931" lon="6.70817">
        <ele>421.2</ele>
        <time>2026-08-30T12:03:38.000Z</time>
      </trkpt>
      <trkpt lat="47.62929" lon="6.70812">
        <ele>421.4</ele>
        <time>2026-08-30T12:03:40.000Z</time>
      </trkpt>
      <trkpt lat="47.62928" lon="6.70807">
        <ele>421.6</ele>
        <time>2026-08-30T12:03:42.000Z</time>
      </trkpt>
      <trkpt lat="47.62927" lon="6.70802">
        <ele>421.8</ele>
        <time>2026-08-30T12:03:44.000Z</time>
      </trkpt>
      <trkpt lat="47.62926" lon="6.70798">
        <ele>422</ele>
        <time>2026-08-30T12:03:46.000Z</time>
      </trkpt>
      <trkpt lat="47.62925" lon="6.70793">
        <ele>422.2</ele>
        <time>2026-08-30T12:03:48.000Z</time>
      </trkpt>
      <trkpt lat="47.62924" lon="6.70788">
        <ele>422.4</ele>
        <time>2026-08-30T12:03:50.000Z</time>
      </trkpt>
      <trkpt lat="47.62923" lon="6.70783">
        <ele>422.6</ele>
        <time>2026-08-30T12:03:52.000Z</time>
      </trkpt>
      <trkpt lat="47.62922" lon="6.70778">
        <ele>422.8</ele>
        <time>2026-08-30T12:03:54.000Z</time>
      </trkpt>
      <trkpt lat="47.6292" lon="6.70772">
        <ele>423.2</ele>
        <time>2026-08-30T12:03:56.000Z</time>
      </trkpt>
      <trkpt lat="47.62919" lon="6.70767">
        <ele>423.4</ele>
        <time>2026-08-30T12:03:58.000Z</time>
      </trkpt>
      <trkpt lat="47.62918" lon="6.70761">
        <ele>423.6</ele>
        <time>2026-08-30T12:04:00.000Z</time>
      </trkpt>
      <trkpt lat="47.62917" lon="6.70755">
        <ele>423.8</ele>
        <time>2026-08-30T12:04:02.000Z</time>
      </trkpt>
      <trkpt lat="47.62916" lon="6.70749">
        <ele>424.2</ele>
        <time>2026-08-30T12:04:04.000Z</time>
      </trkpt>
      <trkpt lat="47.62914" lon="6.70743">
        <ele>424.4</ele>
        <time>2026-08-30T12:04:06.000Z</time>
      </trkpt>
      <trkpt lat="47.62913" lon="6.70737">
        <ele>424.6</ele>
        <time>2026-08-30T12:04:08.000Z</time>
      </trkpt>
      <trkpt lat="47.62911" lon="6.70731">
        <ele>424.8</ele>
        <time>2026-08-30T12:04:10.000Z</time>
      </trkpt>
      <trkpt lat="47.62911" lon="6.70725">
        <ele>425</ele>
        <time>2026-08-30T12:04:12.000Z</time>
      </trkpt>
      <trkpt lat="47.6291" lon="6.70718">
        <ele>425.2</ele>
        <time>2026-08-30T12:04:14.000Z</time>
      </trkpt>
      <trkpt lat="47.62909" lon="6.70711">
        <ele>425.4</ele>
        <time>2026-08-30T12:04:16.000Z</time>
      </trkpt>
      <trkpt lat="47.62908" lon="6.70706">
        <ele>425.6</ele>
        <time>2026-08-30T12:04:18.000Z</time>
      </trkpt>
      <trkpt lat="47.62906" lon="6.707">
        <ele>425.8</ele>
        <time>2026-08-30T12:04:20.000Z</time>
      </trkpt>
      <trkpt lat="47.62904" lon="6.70694">
        <ele>426</ele>
        <time>2026-08-30T12:04:22.000Z</time>
      </trkpt>
      <trkpt lat="47.62902" lon="6.70688">
        <ele>426.2</ele>
        <time>2026-08-30T12:04:24.000Z</time>
      </trkpt>
      <trkpt lat="47.629" lon="6.70682">
        <ele>426.4</ele>
        <time>2026-08-30T12:04:26.000Z</time>
      </trkpt>
      <trkpt lat="47.62898" lon="6.70677">
        <ele>426.6</ele>
        <time>2026-08-30T12:04:28.000Z</time>
      </trkpt>
      <trkpt lat="47.62896" lon="6.70671">
        <ele>426.8</ele>
        <time>2026-08-30T12:04:30.000Z</time>
      </trkpt>
      <trkpt lat="47.62894" lon="6.70665">
        <ele>426.8</ele>
        <time>2026-08-30T12:04:32.000Z</time>
      </trkpt>
      <trkpt lat="47.62892" lon="6.70658">
        <ele>427.2</ele>
        <time>2026-08-30T12:04:34.000Z</time>
      </trkpt>
      <trkpt lat="47.6289" lon="6.70652">
        <ele>427.2</ele>
        <time>2026-08-30T12:04:36.000Z</time>
      </trkpt>
      <trkpt lat="47.62889" lon="6.70645">
        <ele>427.4</ele>
        <time>2026-08-30T12:04:39.000Z</time>
      </trkpt>
      <trkpt lat="47.62888" lon="6.70638">
        <ele>427.8</ele>
        <time>2026-08-30T12:04:41.000Z</time>
      </trkpt>
      <trkpt lat="47.62888" lon="6.70631">
        <ele>427.8</ele>
        <time>2026-08-30T12:04:43.000Z</time>
      </trkpt>
      <trkpt lat="47.62889" lon="6.70625">
        <ele>427.8</ele>
        <time>2026-08-30T12:04:45.000Z</time>
      </trkpt>
      <trkpt lat="47.62892" lon="6.70619">
        <ele>428</ele>
        <time>2026-08-30T12:04:47.000Z</time>
      </trkpt>
      <trkpt lat="47.62897" lon="6.70614">
        <ele>428</ele>
        <time>2026-08-30T12:04:49.000Z</time>
      </trkpt>
      <trkpt lat="47.62902" lon="6.7061">
        <ele>428.2</ele>
        <time>2026-08-30T12:04:51.000Z</time>
      </trkpt>
      <trkpt lat="47.62907" lon="6.70609">
        <ele>428.4</ele>
        <time>2026-08-30T12:04:53.000Z</time>
      </trkpt>
      <trkpt lat="47.62912" lon="6.70609">
        <ele>428.6</ele>
        <time>2026-08-30T12:04:55.000Z</time>
      </trkpt>
      <trkpt lat="47.62917" lon="6.7061">
        <ele>428.8</ele>
        <time>2026-08-30T12:04:57.000Z</time>
      </trkpt>
      <trkpt lat="47.62921" lon="6.70611">
        <ele>429</ele>
        <time>2026-08-30T12:04:59.000Z</time>
      </trkpt>
      <trkpt lat="47.62925" lon="6.70613">
        <ele>429.4</ele>
        <time>2026-08-30T12:05:01.000Z</time>
      </trkpt>
      <trkpt lat="47.62929" lon="6.70616">
        <ele>429.6</ele>
        <time>2026-08-30T12:05:03.000Z</time>
      </trkpt>
      <trkpt lat="47.62933" lon="6.7062">
        <ele>430</ele>
        <time>2026-08-30T12:05:05.000Z</time>
      </trkpt>
      <trkpt lat="47.62937" lon="6.70622">
        <ele>430.2</ele>
        <time>2026-08-30T12:05:07.000Z</time>
      </trkpt>
      <trkpt lat="47.62941" lon="6.70624">
        <ele>430.6</ele>
        <time>2026-08-30T12:05:09.000Z</time>
      </trkpt>
      <trkpt lat="47.62945" lon="6.70623">
        <ele>431</ele>
        <time>2026-08-30T12:05:11.000Z</time>
      </trkpt>
      <trkpt lat="47.62949" lon="6.70621">
        <ele>431.2</ele>
        <time>2026-08-30T12:05:13.000Z</time>
      </trkpt>
      <trkpt lat="47.62953" lon="6.70618">
        <ele>431.6</ele>
        <time>2026-08-30T12:05:15.000Z</time>
      </trkpt>
      <trkpt lat="47.62958" lon="6.70613">
        <ele>432</ele>
        <time>2026-08-30T12:05:17.000Z</time>
      </trkpt>
      <trkpt lat="47.62961" lon="6.70607">
        <ele>432.2</ele>
        <time>2026-08-30T12:05:19.000Z</time>
      </trkpt>
      <trkpt lat="47.62963" lon="6.70601">
        <ele>432.4</ele>
        <time>2026-08-30T12:05:21.000Z</time>
      </trkpt>
      <trkpt lat="47.62964" lon="6.70595">
        <ele>432.8</ele>
        <time>2026-08-30T12:05:23.000Z</time>
      </trkpt>
      <trkpt lat="47.62964" lon="6.70589">
        <ele>433</ele>
        <time>2026-08-30T12:05:25.000Z</time>
      </trkpt>
      <trkpt lat="47.62964" lon="6.70582">
        <ele>433.2</ele>
        <time>2026-08-30T12:05:27.000Z</time>
      </trkpt>
      <trkpt lat="47.62963" lon="6.70576">
        <ele>433.6</ele>
        <time>2026-08-30T12:05:29.000Z</time>
      </trkpt>
      <trkpt lat="47.62963" lon="6.7057">
        <ele>433.8</ele>
        <time>2026-08-30T12:05:31.000Z</time>
      </trkpt>
      <trkpt lat="47.62965" lon="6.70564">
        <ele>434.2</ele>
        <time>2026-08-30T12:05:33.000Z</time>
      </trkpt>
      <trkpt lat="47.62968" lon="6.70557">
        <ele>434.2</ele>
        <time>2026-08-30T12:05:35.000Z</time>
      </trkpt>
      <trkpt lat="47.62971" lon="6.70549">
        <ele>434</ele>
        <time>2026-08-30T12:05:37.000Z</time>
      </trkpt>
      <trkpt lat="47.62974" lon="6.70539">
        <ele>433.8</ele>
        <time>2026-08-30T12:05:39.000Z</time>
      </trkpt>
      <trkpt lat="47.62978" lon="6.7053">
        <ele>433.4</ele>
        <time>2026-08-30T12:05:41.000Z</time>
      </trkpt>
      <trkpt lat="47.62983" lon="6.70518">
        <ele>433</ele>
        <time>2026-08-30T12:05:43.000Z</time>
      </trkpt>
      <trkpt lat="47.6299" lon="6.70506">
        <ele>432.4</ele>
        <time>2026-08-30T12:05:45.000Z</time>
      </trkpt>
      <trkpt lat="47.62997" lon="6.70492">
        <ele>431.6</ele>
        <time>2026-08-30T12:05:47.000Z</time>
      </trkpt>
      <trkpt lat="47.63006" lon="6.70479">
        <ele>430.6</ele>
        <time>2026-08-30T12:05:49.000Z</time>
      </trkpt>
      <trkpt lat="47.63014" lon="6.70471">
        <ele>429.4</ele>
        <time>2026-08-30T12:05:51.000Z</time>
      </trkpt>
      <trkpt lat="47.63021" lon="6.70471">
        <ele>428</ele>
        <time>2026-08-30T12:05:53.000Z</time>
      </trkpt>
      <trkpt lat="47.63028" lon="6.70475">
        <ele>426.2</ele>
        <time>2026-08-30T12:05:55.000Z</time>
      </trkpt>
      <trkpt lat="47.63039" lon="6.70481">
        <ele>424</ele>
        <time>2026-08-30T12:05:57.000Z</time>
      </trkpt>
      <trkpt lat="47.63048" lon="6.7048">
        <ele>422.6</ele>
        <time>2026-08-30T12:05:59.000Z</time>
      </trkpt>
      <trkpt lat="47.63053" lon="6.70469">
        <ele>421.6</ele>
        <time>2026-08-30T12:06:01.000Z</time>
      </trkpt>
      <trkpt lat="47.63057" lon="6.70457">
        <ele>420.6</ele>
        <time>2026-08-30T12:06:03.000Z</time>
      </trkpt>
      <trkpt lat="47.63064" lon="6.7045">
        <ele>420</ele>
        <time>2026-08-30T12:06:05.000Z</time>
      </trkpt>
      <trkpt lat="47.63074" lon="6.70449">
        <ele>419.2</ele>
        <time>2026-08-30T12:06:07.000Z</time>
      </trkpt>
      <trkpt lat="47.63088" lon="6.7045">
        <ele>417.6</ele>
        <time>2026-08-30T12:06:09.000Z</time>
      </trkpt>
      <trkpt lat="47.63105" lon="6.7045">
        <ele>415.6</ele>
        <time>2026-08-30T12:06:11.000Z</time>
      </trkpt>
      <trkpt lat="47.63122" lon="6.70451">
        <ele>413.2</ele>
        <time>2026-08-30T12:06:13.000Z</time>
      </trkpt>
      <trkpt lat="47.63137" lon="6.70452">
        <ele>410.6</ele>
        <time>2026-08-30T12:06:15.000Z</time>
      </trkpt>
      <trkpt lat="47.63149" lon="6.70454">
        <ele>408.2</ele>
        <time>2026-08-30T12:06:17.000Z</time>
      </trkpt>
      <trkpt lat="47.63157" lon="6.70457">
        <ele>406</ele>
        <time>2026-08-30T12:06:19.000Z</time>
      </trkpt>
      <trkpt lat="47.63161" lon="6.70455">
        <ele>404.4</ele>
        <time>2026-08-30T12:06:21.000Z</time>
      </trkpt>
      <trkpt lat="47.63161" lon="6.7045">
        <ele>403.6</ele>
        <time>2026-08-30T12:06:23.000Z</time>
      </trkpt>
      <trkpt lat="47.6316" lon="6.70443">
        <ele>403</ele>
        <time>2026-08-30T12:06:25.000Z</time>
      </trkpt>
      <trkpt lat="47.63159" lon="6.70436">
        <ele>402.8</ele>
        <time>2026-08-30T12:06:27.000Z</time>
      </trkpt>
      <trkpt lat="47.63159" lon="6.70427">
        <ele>402.8</ele>
        <time>2026-08-30T12:06:29.000Z</time>
      </trkpt>
      <trkpt lat="47.63158" lon="6.70419">
        <ele>402.8</ele>
        <time>2026-08-30T12:06:31.000Z</time>
      </trkpt>
      <trkpt lat="47.63157" lon="6.7041">
        <ele>403</ele>
        <time>2026-08-30T12:06:33.000Z</time>
      </trkpt>
      <trkpt lat="47.63156" lon="6.70401">
        <ele>403</ele>
        <time>2026-08-30T12:06:35.000Z</time>
      </trkpt>
      <trkpt lat="47.63156" lon="6.70392">
        <ele>403</ele>
        <time>2026-08-30T12:06:37.000Z</time>
      </trkpt>
      <trkpt lat="47.63156" lon="6.70382">
        <ele>402.8</ele>
        <time>2026-08-30T12:06:39.000Z</time>
      </trkpt>
      <trkpt lat="47.63158" lon="6.70369">
        <ele>402.4</ele>
        <time>2026-08-30T12:06:41.000Z</time>
      </trkpt>
      <trkpt lat="47.6316" lon="6.70354">
        <ele>401.8</ele>
        <time>2026-08-30T12:06:43.000Z</time>
      </trkpt>
      <trkpt lat="47.63166" lon="6.70338">
        <ele>400.8</ele>
        <time>2026-08-30T12:06:46.000Z</time>
      </trkpt>
      <trkpt lat="47.63175" lon="6.70324">
        <ele>399.2</ele>
        <time>2026-08-30T12:06:48.000Z</time>
      </trkpt>
      <trkpt lat="47.63188" lon="6.70312">
        <ele>397.6</ele>
        <time>2026-08-30T12:06:50.000Z</time>
      </trkpt>
      <trkpt lat="47.63202" lon="6.70298">
        <ele>395.6</ele>
        <time>2026-08-30T12:06:52.000Z</time>
      </trkpt>
      <trkpt lat="47.63217" lon="6.70284">
        <ele>393.8</ele>
        <time>2026-08-30T12:06:54.000Z</time>
      </trkpt>
      <trkpt lat="47.63231" lon="6.70274">
        <ele>391.8</ele>
        <time>2026-08-30T12:06:56.000Z</time>
      </trkpt>
      <trkpt lat="47.63239" lon="6.70269">
        <ele>390.2</ele>
        <time>2026-08-30T12:06:58.000Z</time>
      </trkpt>
      <trkpt lat="47.63238" lon="6.70265">
        <ele>389.4</ele>
        <time>2026-08-30T12:07:00.000Z</time>
      </trkpt>
      <trkpt lat="47.63233" lon="6.70262">
        <ele>389.2</ele>
        <time>2026-08-30T12:07:02.000Z</time>
      </trkpt>
      <trkpt lat="47.63227" lon="6.70259">
        <ele>389</ele>
        <time>2026-08-30T12:07:04.000Z</time>
      </trkpt>
      <trkpt lat="47.63222" lon="6.70254">
        <ele>389</ele>
        <time>2026-08-30T12:07:06.000Z</time>
      </trkpt>
      <trkpt lat="47.63216" lon="6.70249">
        <ele>389.2</ele>
        <time>2026-08-30T12:07:08.000Z</time>
      </trkpt>
      <trkpt lat="47.63212" lon="6.70244">
        <ele>389.2</ele>
        <time>2026-08-30T12:07:10.000Z</time>
      </trkpt>
      <trkpt lat="47.63205" lon="6.70238">
        <ele>389.4</ele>
        <time>2026-08-30T12:07:12.000Z</time>
      </trkpt>
      <trkpt lat="47.63199" lon="6.70232">
        <ele>389.6</ele>
        <time>2026-08-30T12:07:14.000Z</time>
      </trkpt>
      <trkpt lat="47.63194" lon="6.70226">
        <ele>389.8</ele>
        <time>2026-08-30T12:07:16.000Z</time>
      </trkpt>
      <trkpt lat="47.6319" lon="6.70222">
        <ele>390</ele>
        <time>2026-08-30T12:07:18.000Z</time>
      </trkpt>
      <trkpt lat="47.63185" lon="6.70217">
        <ele>390.2</ele>
        <time>2026-08-30T12:07:20.000Z</time>
      </trkpt>
      <trkpt lat="47.6318" lon="6.70213">
        <ele>390.6</ele>
        <time>2026-08-30T12:07:22.000Z</time>
      </trkpt>
      <trkpt lat="47.63175" lon="6.70209">
        <ele>390.8</ele>
        <time>2026-08-30T12:07:24.000Z</time>
      </trkpt>
      <trkpt lat="47.63171" lon="6.70205">
        <ele>391.2</ele>
        <time>2026-08-30T12:07:26.000Z</time>
      </trkpt>
      <trkpt lat="47.63166" lon="6.702">
        <ele>391.4</ele>
        <time>2026-08-30T12:07:28.000Z</time>
      </trkpt>
      <trkpt lat="47.63161" lon="6.70197">
        <ele>391.6</ele>
        <time>2026-08-30T12:07:30.000Z</time>
      </trkpt>
      <trkpt lat="47.63156" lon="6.70193">
        <ele>392</ele>
        <time>2026-08-30T12:07:32.000Z</time>
      </trkpt>
      <trkpt lat="47.63151" lon="6.70189">
        <ele>392.2</ele>
        <time>2026-08-30T12:07:34.000Z</time>
      </trkpt>
      <trkpt lat="47.63147" lon="6.70185">
        <ele>392.6</ele>
        <time>2026-08-30T12:07:36.000Z</time>
      </trkpt>
      <trkpt lat="47.63142" lon="6.70181">
        <ele>392.8</ele>
        <time>2026-08-30T12:07:38.000Z</time>
      </trkpt>
      <trkpt lat="47.63137" lon="6.70178">
        <ele>393</ele>
        <time>2026-08-30T12:07:40.000Z</time>
      </trkpt>
      <trkpt lat="47.63132" lon="6.70174">
        <ele>393.4</ele>
        <time>2026-08-30T12:07:42.000Z</time>
      </trkpt>
      <trkpt lat="47.63127" lon="6.7017">
        <ele>393.6</ele>
        <time>2026-08-30T12:07:44.000Z</time>
      </trkpt>
      <trkpt lat="47.63122" lon="6.70165">
        <ele>393.8</ele>
        <time>2026-08-30T12:07:46.000Z</time>
      </trkpt>
      <trkpt lat="47.63117" lon="6.70161">
        <ele>394.2</ele>
        <time>2026-08-30T12:07:48.000Z</time>
      </trkpt>
      <trkpt lat="47.63113" lon="6.70156">
        <ele>394.4</ele>
        <time>2026-08-30T12:07:50.000Z</time>
      </trkpt>
      <trkpt lat="47.63108" lon="6.70152">
        <ele>394.4</ele>
        <time>2026-08-30T12:07:52.000Z</time>
      </trkpt>
      <trkpt lat="47.63103" lon="6.70148">
        <ele>394.6</ele>
        <time>2026-08-30T12:07:54.000Z</time>
      </trkpt>
      <trkpt lat="47.63098" lon="6.70143">
        <ele>395</ele>
        <time>2026-08-30T12:07:56.000Z</time>
      </trkpt>
      <trkpt lat="47.63094" lon="6.7014">
        <ele>395.2</ele>
        <time>2026-08-30T12:07:58.000Z</time>
      </trkpt>
      <trkpt lat="47.63089" lon="6.70136">
        <ele>395.4</ele>
        <time>2026-08-30T12:08:00.000Z</time>
      </trkpt>
      <trkpt lat="47.63084" lon="6.70132">
        <ele>395.6</ele>
        <time>2026-08-30T12:08:02.000Z</time>
      </trkpt>
      <trkpt lat="47.63079" lon="6.70129">
        <ele>396</ele>
        <time>2026-08-30T12:08:04.000Z</time>
      </trkpt>
      <trkpt lat="47.63074" lon="6.70125">
        <ele>396.2</ele>
        <time>2026-08-30T12:08:06.000Z</time>
      </trkpt>
      <trkpt lat="47.63069" lon="6.70122">
        <ele>396.4</ele>
        <time>2026-08-30T12:08:08.000Z</time>
      </trkpt>
      <trkpt lat="47.63064" lon="6.70119">
        <ele>396.8</ele>
        <time>2026-08-30T12:08:10.000Z</time>
      </trkpt>
      <trkpt lat="47.63059" lon="6.70115">
        <ele>397</ele>
        <time>2026-08-30T12:08:12.000Z</time>
      </trkpt>
      <trkpt lat="47.63054" lon="6.70112">
        <ele>397.4</ele>
        <time>2026-08-30T12:08:14.000Z</time>
      </trkpt>
      <trkpt lat="47.63049" lon="6.70108">
        <ele>397.8</ele>
        <time>2026-08-30T12:08:17.000Z</time>
      </trkpt>
      <trkpt lat="47.63045" lon="6.70105">
        <ele>398.2</ele>
        <time>2026-08-30T12:08:19.000Z</time>
      </trkpt>
      <trkpt lat="47.6304" lon="6.70101">
        <ele>398.6</ele>
        <time>2026-08-30T12:08:21.000Z</time>
      </trkpt>
      <trkpt lat="47.63035" lon="6.70096">
        <ele>399</ele>
        <time>2026-08-30T12:08:23.000Z</time>
      </trkpt>
      <trkpt lat="47.63031" lon="6.70091">
        <ele>399.4</ele>
        <time>2026-08-30T12:08:25.000Z</time>
      </trkpt>
      <trkpt lat="47.63026" lon="6.70085">
        <ele>399.6</ele>
        <time>2026-08-30T12:08:27.000Z</time>
      </trkpt>
      <trkpt lat="47.6302" lon="6.7008">
        <ele>399.8</ele>
        <time>2026-08-30T12:08:29.000Z</time>
      </trkpt>
      <trkpt lat="47.63015" lon="6.70074">
        <ele>400</ele>
        <time>2026-08-30T12:08:31.000Z</time>
      </trkpt>
      <trkpt lat="47.6301" lon="6.70068">
        <ele>400.2</ele>
        <time>2026-08-30T12:08:33.000Z</time>
      </trkpt>
      <trkpt lat="47.63004" lon="6.70062">
        <ele>400.4</ele>
        <time>2026-08-30T12:08:35.000Z</time>
      </trkpt>
      <trkpt lat="47.62999" lon="6.70056">
        <ele>400.4</ele>
        <time>2026-08-30T12:08:37.000Z</time>
      </trkpt>
      <trkpt lat="47.62994" lon="6.7005">
        <ele>400.4</ele>
        <time>2026-08-30T12:08:39.000Z</time>
      </trkpt>
      <trkpt lat="47.62988" lon="6.70044">
        <ele>400.4</ele>
        <time>2026-08-30T12:08:41.000Z</time>
      </trkpt>
      <trkpt lat="47.62982" lon="6.70037">
        <ele>400.4</ele>
        <time>2026-08-30T12:08:43.000Z</time>
      </trkpt>
      <trkpt lat="47.62976" lon="6.70029">
        <ele>400.4</ele>
        <time>2026-08-30T12:08:45.000Z</time>
      </trkpt>
      <trkpt lat="47.62971" lon="6.70023">
        <ele>400.4</ele>
        <time>2026-08-30T12:08:47.000Z</time>
      </trkpt>
      <trkpt lat="47.62966" lon="6.70016">
        <ele>400.4</ele>
        <time>2026-08-30T12:08:49.000Z</time>
      </trkpt>
      <trkpt lat="47.6296" lon="6.70006">
        <ele>400</ele>
        <time>2026-08-30T12:08:51.000Z</time>
      </trkpt>
      <trkpt lat="47.62954" lon="6.69992">
        <ele>399.6</ele>
        <time>2026-08-30T12:08:53.000Z</time>
      </trkpt>
      <trkpt lat="47.62945" lon="6.69971">
        <ele>399</ele>
        <time>2026-08-30T12:08:55.000Z</time>
      </trkpt>
      <trkpt lat="47.62937" lon="6.69957">
        <ele>398.2</ele>
        <time>2026-08-30T12:08:57.000Z</time>
      </trkpt>
      <trkpt lat="47.62931" lon="6.69946">
        <ele>397.6</ele>
        <time>2026-08-30T12:08:59.000Z</time>
      </trkpt>
      <trkpt lat="47.62931" lon="6.69939">
        <ele>397.6</ele>
        <time>2026-08-30T12:09:01.000Z</time>
      </trkpt>
      <trkpt lat="47.62934" lon="6.69931">
        <ele>397.4</ele>
        <time>2026-08-30T12:09:03.000Z</time>
      </trkpt>
      <trkpt lat="47.6294" lon="6.69922">
        <ele>397.2</ele>
        <time>2026-08-30T12:09:05.000Z</time>
      </trkpt>
      <trkpt lat="47.62949" lon="6.69911">
        <ele>396.8</ele>
        <time>2026-08-30T12:09:07.000Z</time>
      </trkpt>
      <trkpt lat="47.62958" lon="6.69896">
        <ele>396</ele>
        <time>2026-08-30T12:09:09.000Z</time>
      </trkpt>
      <trkpt lat="47.62967" lon="6.69879">
        <ele>395.2</ele>
        <time>2026-08-30T12:09:11.000Z</time>
      </trkpt>
      <trkpt lat="47.62977" lon="6.69863">
        <ele>394.6</ele>
        <time>2026-08-30T12:09:13.000Z</time>
      </trkpt>
      <trkpt lat="47.62988" lon="6.69848">
        <ele>393.8</ele>
        <time>2026-08-30T12:09:15.000Z</time>
      </trkpt>
      <trkpt lat="47.63" lon="6.69836">
        <ele>393</ele>
        <time>2026-08-30T12:09:17.000Z</time>
      </trkpt>
      <trkpt lat="47.63007" lon="6.69826">
        <ele>392</ele>
        <time>2026-08-30T12:09:19.000Z</time>
      </trkpt>
      <trkpt lat="47.6301" lon="6.69816">
        <ele>391.2</ele>
        <time>2026-08-30T12:09:21.000Z</time>
      </trkpt>
      <trkpt lat="47.63015" lon="6.6981">
        <ele>390.8</ele>
        <time>2026-08-30T12:09:23.000Z</time>
      </trkpt>
      <trkpt lat="47.63023" lon="6.69808">
        <ele>390.2</ele>
        <time>2026-08-30T12:09:25.000Z</time>
      </trkpt>
      <trkpt lat="47.63032" lon="6.69806">
        <ele>389.6</ele>
        <time>2026-08-30T12:09:27.000Z</time>
      </trkpt>
      <trkpt lat="47.63041" lon="6.69802">
        <ele>389</ele>
        <time>2026-08-30T12:09:29.000Z</time>
      </trkpt>
      <trkpt lat="47.63051" lon="6.69798">
        <ele>388.4</ele>
        <time>2026-08-30T12:09:31.000Z</time>
      </trkpt>
      <trkpt lat="47.63062" lon="6.69794">
        <ele>387.6</ele>
        <time>2026-08-30T12:09:33.000Z</time>
      </trkpt>
      <trkpt lat="47.63074" lon="6.69789">
        <ele>386.8</ele>
        <time>2026-08-30T12:09:35.000Z</time>
      </trkpt>
      <trkpt lat="47.63086" lon="6.69783">
        <ele>386.2</ele>
        <time>2026-08-30T12:09:37.000Z</time>
      </trkpt>
      <trkpt lat="47.631" lon="6.69777">
        <ele>385.8</ele>
        <time>2026-08-30T12:09:39.000Z</time>
      </trkpt>
      <trkpt lat="47.63113" lon="6.69771">
        <ele>385.2</ele>
        <time>2026-08-30T12:09:41.000Z</time>
      </trkpt>
      <trkpt lat="47.63125" lon="6.69768">
        <ele>384.4</ele>
        <time>2026-08-30T12:09:43.000Z</time>
      </trkpt>
      <trkpt lat="47.63139" lon="6.69768">
        <ele>383.8</ele>
        <time>2026-08-30T12:09:45.000Z</time>
      </trkpt>
      <trkpt lat="47.63153" lon="6.69769">
        <ele>383.4</ele>
        <time>2026-08-30T12:09:47.000Z</time>
      </trkpt>
      <trkpt lat="47.63167" lon="6.69774">
        <ele>382.8</ele>
        <time>2026-08-30T12:09:49.000Z</time>
      </trkpt>
      <trkpt lat="47.63181" lon="6.6978">
        <ele>382.2</ele>
        <time>2026-08-30T12:09:51.000Z</time>
      </trkpt>
      <trkpt lat="47.63195" lon="6.69782">
        <ele>381.6</ele>
        <time>2026-08-30T12:09:53.000Z</time>
      </trkpt>
      <trkpt lat="47.63207" lon="6.69776">
        <ele>381.2</ele>
        <time>2026-08-30T12:09:55.000Z</time>
      </trkpt>
      <trkpt lat="47.63217" lon="6.69766">
        <ele>380.8</ele>
        <time>2026-08-30T12:09:57.000Z</time>
      </trkpt>
      <trkpt lat="47.63227" lon="6.69754">
        <ele>380.4</ele>
        <time>2026-08-30T12:09:59.000Z</time>
      </trkpt>
      <trkpt lat="47.63237" lon="6.69745">
        <ele>380.6</ele>
        <time>2026-08-30T12:10:01.000Z</time>
      </trkpt>
      <trkpt lat="47.63243" lon="6.6974">
        <ele>381.2</ele>
        <time>2026-08-30T12:10:03.000Z</time>
      </trkpt>
      <trkpt lat="47.63247" lon="6.69738">
        <ele>381.8</ele>
        <time>2026-08-30T12:10:05.000Z</time>
      </trkpt>
      <trkpt lat="47.63249" lon="6.69737">
        <ele>382.4</ele>
        <time>2026-08-30T12:10:07.000Z</time>
      </trkpt>
      <trkpt lat="47.63251" lon="6.69734">
        <ele>383.2</ele>
        <time>2026-08-30T12:10:09.000Z</time>
      </trkpt>
      <trkpt lat="47.63252" lon="6.6973">
        <ele>383.8</ele>
        <time>2026-08-30T12:10:12.000Z</time>
      </trkpt>
      <trkpt lat="47.63254" lon="6.69725">
        <ele>384.4</ele>
        <time>2026-08-30T12:10:14.000Z</time>
      </trkpt>
      <trkpt lat="47.63255" lon="6.69719">
        <ele>384.8</ele>
        <time>2026-08-30T12:10:16.000Z</time>
      </trkpt>
      <trkpt lat="47.63257" lon="6.69711">
        <ele>385</ele>
        <time>2026-08-30T12:10:18.000Z</time>
      </trkpt>
      <trkpt lat="47.63259" lon="6.69703">
        <ele>385</ele>
        <time>2026-08-30T12:10:20.000Z</time>
      </trkpt>
      <trkpt lat="47.63259" lon="6.69695">
        <ele>385</ele>
        <time>2026-08-30T12:10:22.000Z</time>
      </trkpt>
      <trkpt lat="47.63257" lon="6.69687">
        <ele>385</ele>
        <time>2026-08-30T12:10:24.000Z</time>
      </trkpt>
      <trkpt lat="47.63253" lon="6.69681">
        <ele>385</ele>
        <time>2026-08-30T12:10:26.000Z</time>
      </trkpt>
      <trkpt lat="47.63249" lon="6.69678">
        <ele>385.2</ele>
        <time>2026-08-30T12:10:28.000Z</time>
      </trkpt>
      <trkpt lat="47.63247" lon="6.69676">
        <ele>385.4</ele>
        <time>2026-08-30T12:10:30.000Z</time>
      </trkpt>
      <trkpt lat="47.63244" lon="6.69675">
        <ele>385.8</ele>
        <time>2026-08-30T12:10:32.000Z</time>
      </trkpt>
      <trkpt lat="47.63239" lon="6.69672">
        <ele>386</ele>
        <time>2026-08-30T12:10:34.000Z</time>
      </trkpt>
      <trkpt lat="47.63234" lon="6.6967">
        <ele>386.2</ele>
        <time>2026-08-30T12:10:36.000Z</time>
      </trkpt>
      <trkpt lat="47.6323" lon="6.69671">
        <ele>386.6</ele>
        <time>2026-08-30T12:10:38.000Z</time>
      </trkpt>
      <trkpt lat="47.63227" lon="6.69671">
        <ele>387</ele>
        <time>2026-08-30T12:10:40.000Z</time>
      </trkpt>
      <trkpt lat="47.63224" lon="6.69672">
        <ele>387.2</ele>
        <time>2026-08-30T12:10:42.000Z</time>
      </trkpt>
      <trkpt lat="47.63222" lon="6.69673">
        <ele>387.6</ele>
        <time>2026-08-30T12:10:44.000Z</time>
      </trkpt>
      <trkpt lat="47.63219" lon="6.69674">
        <ele>388</ele>
        <time>2026-08-30T12:10:46.000Z</time>
      </trkpt>
      <trkpt lat="47.63216" lon="6.69675">
        <ele>388.4</ele>
        <time>2026-08-30T12:10:48.000Z</time>
      </trkpt>
      <trkpt lat="47.63212" lon="6.69674">
        <ele>388.8</ele>
        <time>2026-08-30T12:10:50.000Z</time>
      </trkpt>
      <trkpt lat="47.63209" lon="6.69674">
        <ele>389.2</ele>
        <time>2026-08-30T12:10:52.000Z</time>
      </trkpt>
      <trkpt lat="47.63206" lon="6.69673">
        <ele>389.6</ele>
        <time>2026-08-30T12:10:54.000Z</time>
      </trkpt>
      <trkpt lat="47.63202" lon="6.69672">
        <ele>390</ele>
        <time>2026-08-30T12:10:56.000Z</time>
      </trkpt>
      <trkpt lat="47.63199" lon="6.69672">
        <ele>390.4</ele>
        <time>2026-08-30T12:10:58.000Z</time>
      </trkpt>
      <trkpt lat="47.63196" lon="6.69671">
        <ele>390.6</ele>
        <time>2026-08-30T12:11:00.000Z</time>
      </trkpt>
      <trkpt lat="47.63194" lon="6.6967">
        <ele>391</ele>
        <time>2026-08-30T12:11:02.000Z</time>
      </trkpt>
      <trkpt lat="47.63192" lon="6.69668">
        <ele>391.2</ele>
        <time>2026-08-30T12:11:04.000Z</time>
      </trkpt>
      <trkpt lat="47.63189" lon="6.69667">
        <ele>391.6</ele>
        <time>2026-08-30T12:11:06.000Z</time>
      </trkpt>
      <trkpt lat="47.63187" lon="6.69666">
        <ele>392</ele>
        <time>2026-08-30T12:11:08.000Z</time>
      </trkpt>
      <trkpt lat="47.63185" lon="6.69666">
        <ele>392.4</ele>
        <time>2026-08-30T12:11:10.000Z</time>
      </trkpt>
      <trkpt lat="47.63183" lon="6.69666">
        <ele>392.8</ele>
        <time>2026-08-30T12:11:12.000Z</time>
      </trkpt>
      <trkpt lat="47.6318" lon="6.69666">
        <ele>393.2</ele>
        <time>2026-08-30T12:11:14.000Z</time>
      </trkpt>
      <trkpt lat="47.63178" lon="6.69667">
        <ele>393.6</ele>
        <time>2026-08-30T12:11:16.000Z</time>
      </trkpt>
      <trkpt lat="47.63175" lon="6.69667">
        <ele>393.8</ele>
        <time>2026-08-30T12:11:18.000Z</time>
      </trkpt>
      <trkpt lat="47.63173" lon="6.69667">
        <ele>394.2</ele>
        <time>2026-08-30T12:11:20.000Z</time>
      </trkpt>
      <trkpt lat="47.63171" lon="6.69667">
        <ele>394.6</ele>
        <time>2026-08-30T12:11:22.000Z</time>
      </trkpt>
      <trkpt lat="47.63168" lon="6.69666">
        <ele>395</ele>
        <time>2026-08-30T12:11:24.000Z</time>
      </trkpt>
      <trkpt lat="47.63166" lon="6.69665">
        <ele>395.4</ele>
        <time>2026-08-30T12:11:26.000Z</time>
      </trkpt>
      <trkpt lat="47.63164" lon="6.69663">
        <ele>395.8</ele>
        <time>2026-08-30T12:11:28.000Z</time>
      </trkpt>
      <trkpt lat="47.63161" lon="6.69662">
        <ele>396</ele>
        <time>2026-08-30T12:11:30.000Z</time>
      </trkpt>
      <trkpt lat="47.63159" lon="6.69661">
        <ele>396.4</ele>
        <time>2026-08-30T12:11:32.000Z</time>
      </trkpt>
      <trkpt lat="47.63157" lon="6.69662">
        <ele>396.8</ele>
        <time>2026-08-30T12:11:34.000Z</time>
      </trkpt>
      <trkpt lat="47.63155" lon="6.69662">
        <ele>397.2</ele>
        <time>2026-08-30T12:11:36.000Z</time>
      </trkpt>
      <trkpt lat="47.63152" lon="6.69662">
        <ele>397.4</ele>
        <time>2026-08-30T12:11:38.000Z</time>
      </trkpt>
      <trkpt lat="47.6315" lon="6.69662">
        <ele>397.8</ele>
        <time>2026-08-30T12:11:40.000Z</time>
      </trkpt>
      <trkpt lat="47.63147" lon="6.69662">
        <ele>398.2</ele>
        <time>2026-08-30T12:11:42.000Z</time>
      </trkpt>
      <trkpt lat="47.63145" lon="6.69662">
        <ele>398.6</ele>
        <time>2026-08-30T12:11:44.000Z</time>
      </trkpt>
      <trkpt lat="47.63142" lon="6.69662">
        <ele>398.8</ele>
        <time>2026-08-30T12:11:46.000Z</time>
      </trkpt>
      <trkpt lat="47.6314" lon="6.69662">
        <ele>399.2</ele>
        <time>2026-08-30T12:11:48.000Z</time>
      </trkpt>
      <trkpt lat="47.63138" lon="6.69662">
        <ele>399.4</ele>
        <time>2026-08-30T12:11:50.000Z</time>
      </trkpt>
      <trkpt lat="47.63135" lon="6.69662">
        <ele>399.6</ele>
        <time>2026-08-30T12:11:52.000Z</time>
      </trkpt>
      <trkpt lat="47.63132" lon="6.69662">
        <ele>399.8</ele>
        <time>2026-08-30T12:11:55.000Z</time>
      </trkpt>
      <trkpt lat="47.63129" lon="6.69661">
        <ele>400</ele>
        <time>2026-08-30T12:11:57.000Z</time>
      </trkpt>
      <trkpt lat="47.63126" lon="6.69661">
        <ele>400.4</ele>
        <time>2026-08-30T12:11:59.000Z</time>
      </trkpt>
      <trkpt lat="47.63124" lon="6.69661">
        <ele>400.6</ele>
        <time>2026-08-30T12:12:01.000Z</time>
      </trkpt>
      <trkpt lat="47.63121" lon="6.69661">
        <ele>400.8</ele>
        <time>2026-08-30T12:12:03.000Z</time>
      </trkpt>
      <trkpt lat="47.63118" lon="6.69662">
        <ele>401.2</ele>
        <time>2026-08-30T12:12:05.000Z</time>
      </trkpt>
      <trkpt lat="47.63115" lon="6.69662">
        <ele>401.4</ele>
        <time>2026-08-30T12:12:07.000Z</time>
      </trkpt>
      <trkpt lat="47.63112" lon="6.69663">
        <ele>401.8</ele>
        <time>2026-08-30T12:12:09.000Z</time>
      </trkpt>
      <trkpt lat="47.6311" lon="6.69663">
        <ele>402.2</ele>
        <time>2026-08-30T12:12:11.000Z</time>
      </trkpt>
      <trkpt lat="47.63107" lon="6.69664">
        <ele>402.4</ele>
        <time>2026-08-30T12:12:13.000Z</time>
      </trkpt>
      <trkpt lat="47.63104" lon="6.69664">
        <ele>402.8</ele>
        <time>2026-08-30T12:12:15.000Z</time>
      </trkpt>
      <trkpt lat="47.63102" lon="6.69664">
        <ele>403.2</ele>
        <time>2026-08-30T12:12:17.000Z</time>
      </trkpt>
      <trkpt lat="47.63099" lon="6.69664">
        <ele>403.4</ele>
        <time>2026-08-30T12:12:19.000Z</time>
      </trkpt>
      <trkpt lat="47.63096" lon="6.69665">
        <ele>403.6</ele>
        <time>2026-08-30T12:12:21.000Z</time>
      </trkpt>
      <trkpt lat="47.63093" lon="6.69665">
        <ele>403.8</ele>
        <time>2026-08-30T12:12:23.000Z</time>
      </trkpt>
      <trkpt lat="47.6309" lon="6.69665">
        <ele>404</ele>
        <time>2026-08-30T12:12:25.000Z</time>
      </trkpt>
      <trkpt lat="47.63086" lon="6.69665">
        <ele>404</ele>
        <time>2026-08-30T12:12:27.000Z</time>
      </trkpt>
      <trkpt lat="47.63083" lon="6.69666">
        <ele>404.2</ele>
        <time>2026-08-30T12:12:29.000Z</time>
      </trkpt>
      <trkpt lat="47.6308" lon="6.69666">
        <ele>404.2</ele>
        <time>2026-08-30T12:12:31.000Z</time>
      </trkpt>
      <trkpt lat="47.63077" lon="6.69666">
        <ele>404.2</ele>
        <time>2026-08-30T12:12:33.000Z</time>
      </trkpt>
      <trkpt lat="47.63074" lon="6.69666">
        <ele>404.4</ele>
        <time>2026-08-30T12:12:35.000Z</time>
      </trkpt>
      <trkpt lat="47.63071" lon="6.69665">
        <ele>404.6</ele>
        <time>2026-08-30T12:12:37.000Z</time>
      </trkpt>
      <trkpt lat="47.63066" lon="6.69665">
        <ele>404.6</ele>
        <time>2026-08-30T12:12:39.000Z</time>
      </trkpt>
      <trkpt lat="47.63062" lon="6.69665">
        <ele>404.8</ele>
        <time>2026-08-30T12:12:41.000Z</time>
      </trkpt>
      <trkpt lat="47.63057" lon="6.69665">
        <ele>405.2</ele>
        <time>2026-08-30T12:12:43.000Z</time>
      </trkpt>
      <trkpt lat="47.63053" lon="6.69666">
        <ele>405.4</ele>
        <time>2026-08-30T12:12:45.000Z</time>
      </trkpt>
      <trkpt lat="47.63049" lon="6.69666">
        <ele>405.8</ele>
        <time>2026-08-30T12:12:47.000Z</time>
      </trkpt>
      <trkpt lat="47.63046" lon="6.69667">
        <ele>406.2</ele>
        <time>2026-08-30T12:12:49.000Z</time>
      </trkpt>
      <trkpt lat="47.63043" lon="6.69667">
        <ele>406.6</ele>
        <time>2026-08-30T12:12:51.000Z</time>
      </trkpt>
      <trkpt lat="47.6304" lon="6.69668">
        <ele>406.8</ele>
        <time>2026-08-30T12:12:53.000Z</time>
      </trkpt>
      <trkpt lat="47.63037" lon="6.69669">
        <ele>407.2</ele>
        <time>2026-08-30T12:12:55.000Z</time>
      </trkpt>
      <trkpt lat="47.63034" lon="6.69669">
        <ele>407.4</ele>
        <time>2026-08-30T12:12:57.000Z</time>
      </trkpt>
      <trkpt lat="47.63031" lon="6.69669">
        <ele>407.8</ele>
        <time>2026-08-30T12:12:59.000Z</time>
      </trkpt>
      <trkpt lat="47.63028" lon="6.6967">
        <ele>408.2</ele>
        <time>2026-08-30T12:13:01.000Z</time>
      </trkpt>
      <trkpt lat="47.63025" lon="6.69671">
        <ele>408.4</ele>
        <time>2026-08-30T12:13:03.000Z</time>
      </trkpt>
      <trkpt lat="47.63022" lon="6.69671">
        <ele>408.6</ele>
        <time>2026-08-30T12:13:05.000Z</time>
      </trkpt>
      <trkpt lat="47.63019" lon="6.69672">
        <ele>409</ele>
        <time>2026-08-30T12:13:07.000Z</time>
      </trkpt>
      <trkpt lat="47.63015" lon="6.69672">
        <ele>409.2</ele>
        <time>2026-08-30T12:13:09.000Z</time>
      </trkpt>
      <trkpt lat="47.63012" lon="6.69673">
        <ele>409.4</ele>
        <time>2026-08-30T12:13:11.000Z</time>
      </trkpt>
      <trkpt lat="47.63009" lon="6.69674">
        <ele>409.8</ele>
        <time>2026-08-30T12:13:13.000Z</time>
      </trkpt>
      <trkpt lat="47.63007" lon="6.69674">
        <ele>410</ele>
        <time>2026-08-30T12:13:15.000Z</time>
      </trkpt>
      <trkpt lat="47.63004" lon="6.69674">
        <ele>410.4</ele>
        <time>2026-08-30T12:13:17.000Z</time>
      </trkpt>
      <trkpt lat="47.63001" lon="6.69675">
        <ele>410.8</ele>
        <time>2026-08-30T12:13:19.000Z</time>
      </trkpt>
      <trkpt lat="47.62998" lon="6.69676">
        <ele>411</ele>
        <time>2026-08-30T12:13:21.000Z</time>
      </trkpt>
      <trkpt lat="47.62995" lon="6.69676">
        <ele>411.4</ele>
        <time>2026-08-30T12:13:23.000Z</time>
      </trkpt>
      <trkpt lat="47.62992" lon="6.69676">
        <ele>411.6</ele>
        <time>2026-08-30T12:13:25.000Z</time>
      </trkpt>
      <trkpt lat="47.62989" lon="6.69675">
        <ele>412</ele>
        <time>2026-08-30T12:13:27.000Z</time>
      </trkpt>
      <trkpt lat="47.62985" lon="6.69674">
        <ele>412.4</ele>
        <time>2026-08-30T12:13:29.000Z</time>
      </trkpt>
      <trkpt lat="47.62982" lon="6.69672">
        <ele>412.8</ele>
        <time>2026-08-30T12:13:31.000Z</time>
      </trkpt>
      <trkpt lat="47.62979" lon="6.6967">
        <ele>413.2</ele>
        <time>2026-08-30T12:13:33.000Z</time>
      </trkpt>
      <trkpt lat="47.62976" lon="6.69668">
        <ele>413.6</ele>
        <time>2026-08-30T12:13:35.000Z</time>
      </trkpt>
      <trkpt lat="47.62974" lon="6.69665">
        <ele>414</ele>
        <time>2026-08-30T12:13:38.000Z</time>
      </trkpt>
      <trkpt lat="47.62972" lon="6.69662">
        <ele>414.2</ele>
        <time>2026-08-30T12:13:40.000Z</time>
      </trkpt>
      <trkpt lat="47.62971" lon="6.69657">
        <ele>414.4</ele>
        <time>2026-08-30T12:13:42.000Z</time>
      </trkpt>
      <trkpt lat="47.62972" lon="6.69649">
        <ele>414.4</ele>
        <time>2026-08-30T12:13:44.000Z</time>
      </trkpt>
      <trkpt lat="47.62976" lon="6.69636">
        <ele>413.8</ele>
        <time>2026-08-30T12:13:46.000Z</time>
      </trkpt>
      <trkpt lat="47.62982" lon="6.69619">
        <ele>413</ele>
        <time>2026-08-30T12:13:48.000Z</time>
      </trkpt>
      <trkpt lat="47.62988" lon="6.69597">
        <ele>412</ele>
        <time>2026-08-30T12:13:50.000Z</time>
      </trkpt>
      <trkpt lat="47.62995" lon="6.69574">
        <ele>410.8</ele>
        <time>2026-08-30T12:13:52.000Z</time>
      </trkpt>
      <trkpt lat="47.63001" lon="6.69549">
        <ele>409.6</ele>
        <time>2026-08-30T12:13:54.000Z</time>
      </trkpt>
      <trkpt lat="47.63008" lon="6.69523">
        <ele>408.2</ele>
        <time>2026-08-30T12:13:56.000Z</time>
      </trkpt>
      <trkpt lat="47.63015" lon="6.69498">
        <ele>407.4</ele>
        <time>2026-08-30T12:13:58.000Z</time>
      </trkpt>
      <trkpt lat="47.63023" lon="6.69478">
        <ele>406.8</ele>
        <time>2026-08-30T12:14:00.000Z</time>
      </trkpt>
      <trkpt lat="47.63033" lon="6.69455">
        <ele>406.6</ele>
        <time>2026-08-30T12:14:02.000Z</time>
      </trkpt>
      <trkpt lat="47.6304" lon="6.69436">
        <ele>406.2</ele>
        <time>2026-08-30T12:14:04.000Z</time>
      </trkpt>
      <trkpt lat="47.63047" lon="6.69418">
        <ele>405.4</ele>
        <time>2026-08-30T12:14:06.000Z</time>
      </trkpt>
      <trkpt lat="47.63053" lon="6.69399">
        <ele>404.4</ele>
        <time>2026-08-30T12:14:08.000Z</time>
      </trkpt>
      <trkpt lat="47.63057" lon="6.6938">
        <ele>403.8</ele>
        <time>2026-08-30T12:14:10.000Z</time>
      </trkpt>
      <trkpt lat="47.63063" lon="6.6937">
        <ele>403.2</ele>
        <time>2026-08-30T12:14:12.000Z</time>
      </trkpt>
      <trkpt lat="47.63072" lon="6.69368">
        <ele>403</ele>
        <time>2026-08-30T12:14:14.000Z</time>
      </trkpt>
      <trkpt lat="47.63085" lon="6.69368">
        <ele>402.2</ele>
        <time>2026-08-30T12:14:16.000Z</time>
      </trkpt>
      <trkpt lat="47.631" lon="6.69364">
        <ele>401.2</ele>
        <time>2026-08-30T12:14:18.000Z</time>
      </trkpt>
      <trkpt lat="47.63113" lon="6.69359">
        <ele>400.2</ele>
        <time>2026-08-30T12:14:20.000Z</time>
      </trkpt>
      <trkpt lat="47.63127" lon="6.69357">
        <ele>399.2</ele>
        <time>2026-08-30T12:14:22.000Z</time>
      </trkpt>
      <trkpt lat="47.6314" lon="6.69357">
        <ele>398.2</ele>
        <time>2026-08-30T12:14:24.000Z</time>
      </trkpt>
      <trkpt lat="47.63153" lon="6.6936">
        <ele>396.8</ele>
        <time>2026-08-30T12:14:26.000Z</time>
      </trkpt>
      <trkpt lat="47.63165" lon="6.69368">
        <ele>395</ele>
        <time>2026-08-30T12:14:28.000Z</time>
      </trkpt>
      <trkpt lat="47.63175" lon="6.69377">
        <ele>393.2</ele>
        <time>2026-08-30T12:14:30.000Z</time>
      </trkpt>
      <trkpt lat="47.63181" lon="6.69391">
        <ele>392.2</ele>
        <time>2026-08-30T12:14:32.000Z</time>
      </trkpt>
      <trkpt lat="47.63186" lon="6.69403">
        <ele>391</ele>
        <time>2026-08-30T12:14:34.000Z</time>
      </trkpt>
      <trkpt lat="47.63192" lon="6.69409">
        <ele>390</ele>
        <time>2026-08-30T12:14:36.000Z</time>
      </trkpt>
      <trkpt lat="47.63197" lon="6.69408">
        <ele>389</ele>
        <time>2026-08-30T12:14:38.000Z</time>
      </trkpt>
      <trkpt lat="47.63201" lon="6.69404">
        <ele>388.4</ele>
        <time>2026-08-30T12:14:40.000Z</time>
      </trkpt>
      <trkpt lat="47.63206" lon="6.69403">
        <ele>388</ele>
        <time>2026-08-30T12:14:42.000Z</time>
      </trkpt>
      <trkpt lat="47.63212" lon="6.69403">
        <ele>387.4</ele>
        <time>2026-08-30T12:14:44.000Z</time>
      </trkpt>
      <trkpt lat="47.63216" lon="6.69406">
        <ele>386.8</ele>
        <time>2026-08-30T12:14:46.000Z</time>
      </trkpt>
      <trkpt lat="47.6322" lon="6.69411">
        <ele>386</ele>
        <time>2026-08-30T12:14:48.000Z</time>
      </trkpt>
      <trkpt lat="47.63226" lon="6.69414">
        <ele>385.2</ele>
        <time>2026-08-30T12:14:50.000Z</time>
      </trkpt>
      <trkpt lat="47.63232" lon="6.69413">
        <ele>384.6</ele>
        <time>2026-08-30T12:14:52.000Z</time>
      </trkpt>
      <trkpt lat="47.63237" lon="6.69412">
        <ele>384</ele>
        <time>2026-08-30T12:14:54.000Z</time>
      </trkpt>
      <trkpt lat="47.63243" lon="6.69409">
        <ele>383.4</ele>
        <time>2026-08-30T12:14:56.000Z</time>
      </trkpt>
      <trkpt lat="47.6325" lon="6.69405">
        <ele>383</ele>
        <time>2026-08-30T12:14:58.000Z</time>
      </trkpt>
      <trkpt lat="47.63257" lon="6.694">
        <ele>382.2</ele>
        <time>2026-08-30T12:15:00.000Z</time>
      </trkpt>
      <trkpt lat="47.63261" lon="6.69396">
        <ele>381.6</ele>
        <time>2026-08-30T12:15:02.000Z</time>
      </trkpt>
      <trkpt lat="47.63262" lon="6.6939">
        <ele>381.2</ele>
        <time>2026-08-30T12:15:04.000Z</time>
      </trkpt>
      <trkpt lat="47.63262" lon="6.69383">
        <ele>381.2</ele>
        <time>2026-08-30T12:15:06.000Z</time>
      </trkpt>
      <trkpt lat="47.63262" lon="6.69377">
        <ele>381.4</ele>
        <time>2026-08-30T12:15:08.000Z</time>
      </trkpt>
      <trkpt lat="47.63266" lon="6.69373">
        <ele>381.2</ele>
        <time>2026-08-30T12:15:10.000Z</time>
      </trkpt>
      <trkpt lat="47.63272" lon="6.6937">
        <ele>380.8</ele>
        <time>2026-08-30T12:15:13.000Z</time>
      </trkpt>
      <trkpt lat="47.63278" lon="6.69367">
        <ele>380.2</ele>
        <time>2026-08-30T12:15:15.000Z</time>
      </trkpt>
      <trkpt lat="47.63284" lon="6.69367">
        <ele>379.6</ele>
        <time>2026-08-30T12:15:17.000Z</time>
      </trkpt>
      <trkpt lat="47.63287" lon="6.69367">
        <ele>379</ele>
        <time>2026-08-30T12:15:19.000Z</time>
      </trkpt>
      <trkpt lat="47.63289" lon="6.69366">
        <ele>378.6</ele>
        <time>2026-08-30T12:15:21.000Z</time>
      </trkpt>
      <trkpt lat="47.63291" lon="6.69367">
        <ele>378.2</ele>
        <time>2026-08-30T12:15:23.000Z</time>
      </trkpt>
      <trkpt lat="47.63296" lon="6.69368">
        <ele>377.4</ele>
        <time>2026-08-30T12:15:25.000Z</time>
      </trkpt>
      <trkpt lat="47.63304" lon="6.69369">
        <ele>376.6</ele>
        <time>2026-08-30T12:15:27.000Z</time>
      </trkpt>
      <trkpt lat="47.63311" lon="6.6937">
        <ele>375.6</ele>
        <time>2026-08-30T12:15:29.000Z</time>
      </trkpt>
      <trkpt lat="47.63316" lon="6.69373">
        <ele>374.8</ele>
        <time>2026-08-30T12:15:31.000Z</time>
      </trkpt>
      <trkpt lat="47.6332" lon="6.69373">
        <ele>374.2</ele>
        <time>2026-08-30T12:15:33.000Z</time>
      </trkpt>
      <trkpt lat="47.63324" lon="6.69373">
        <ele>373.6</ele>
        <time>2026-08-30T12:15:35.000Z</time>
      </trkpt>
      <trkpt lat="47.6333" lon="6.69374">
        <ele>373.2</ele>
        <time>2026-08-30T12:15:37.000Z</time>
      </trkpt>
      <trkpt lat="47.63335" lon="6.69374">
        <ele>373</ele>
        <time>2026-08-30T12:15:39.000Z</time>
      </trkpt>
      <trkpt lat="47.63341" lon="6.69374">
        <ele>372.8</ele>
        <time>2026-08-30T12:15:41.000Z</time>
      </trkpt>
      <trkpt lat="47.63344" lon="6.69372">
        <ele>372.8</ele>
        <time>2026-08-30T12:15:43.000Z</time>
      </trkpt>
      <trkpt lat="47.63347" lon="6.69371">
        <ele>372.6</ele>
        <time>2026-08-30T12:15:45.000Z</time>
      </trkpt>
      <trkpt lat="47.63352" lon="6.69369">
        <ele>372.6</ele>
        <time>2026-08-30T12:15:47.000Z</time>
      </trkpt>
      <trkpt lat="47.63356" lon="6.69368">
        <ele>372.6</ele>
        <time>2026-08-30T12:15:49.000Z</time>
      </trkpt>
      <trkpt lat="47.6336" lon="6.69365">
        <ele>372.6</ele>
        <time>2026-08-30T12:15:51.000Z</time>
      </trkpt>
      <trkpt lat="47.63365" lon="6.69362">
        <ele>372.6</ele>
        <time>2026-08-30T12:15:53.000Z</time>
      </trkpt>
      <trkpt lat="47.63369" lon="6.6936">
        <ele>372.8</ele>
        <time>2026-08-30T12:15:55.000Z</time>
      </trkpt>
      <trkpt lat="47.63373" lon="6.69359">
        <ele>372.6</ele>
        <time>2026-08-30T12:15:57.000Z</time>
      </trkpt>
      <trkpt lat="47.63377" lon="6.6936">
        <ele>372.8</ele>
        <time>2026-08-30T12:15:59.000Z</time>
      </trkpt>
      <trkpt lat="47.63382" lon="6.69361">
        <ele>372.8</ele>
        <time>2026-08-30T12:16:01.000Z</time>
      </trkpt>
      <trkpt lat="47.63384" lon="6.69361">
        <ele>372.8</ele>
        <time>2026-08-30T12:16:03.000Z</time>
      </trkpt>
      <trkpt lat="47.63387" lon="6.6936">
        <ele>373</ele>
        <time>2026-08-30T12:16:05.000Z</time>
      </trkpt>
      <trkpt lat="47.63391" lon="6.6936">
        <ele>373</ele>
        <time>2026-08-30T12:16:07.000Z</time>
      </trkpt>
      <trkpt lat="47.63395" lon="6.69358">
        <ele>373.2</ele>
        <time>2026-08-30T12:16:09.000Z</time>
      </trkpt>
      <trkpt lat="47.63398" lon="6.69357">
        <ele>373.4</ele>
        <time>2026-08-30T12:16:11.000Z</time>
      </trkpt>
      <trkpt lat="47.63402" lon="6.69355">
        <ele>373.4</ele>
        <time>2026-08-30T12:16:13.000Z</time>
      </trkpt>
      <trkpt lat="47.63406" lon="6.69352">
        <ele>374</ele>
        <time>2026-08-30T12:16:15.000Z</time>
      </trkpt>
      <trkpt lat="47.63409" lon="6.69348">
        <ele>374.6</ele>
        <time>2026-08-30T12:16:17.000Z</time>
      </trkpt>
      <trkpt lat="47.63411" lon="6.69343">
        <ele>375</ele>
        <time>2026-08-30T12:16:19.000Z</time>
      </trkpt>
      <trkpt lat="47.63413" lon="6.69338">
        <ele>375.2</ele>
        <time>2026-08-30T12:16:21.000Z</time>
      </trkpt>
      <trkpt lat="47.63414" lon="6.69333">
        <ele>375.6</ele>
        <time>2026-08-30T12:16:23.000Z</time>
      </trkpt>
      <trkpt lat="47.63412" lon="6.69327">
        <ele>375.8</ele>
        <time>2026-08-30T12:16:25.000Z</time>
      </trkpt>
      <trkpt lat="47.63408" lon="6.69324">
        <ele>376.2</ele>
        <time>2026-08-30T12:16:27.000Z</time>
      </trkpt>
      <trkpt lat="47.63404" lon="6.69322">
        <ele>376.4</ele>
        <time>2026-08-30T12:16:29.000Z</time>
      </trkpt>
      <trkpt lat="47.63399" lon="6.6932">
        <ele>376.4</ele>
        <time>2026-08-30T12:16:31.000Z</time>
      </trkpt>
      <trkpt lat="47.63394" lon="6.69316">
        <ele>376.4</ele>
        <time>2026-08-30T12:16:33.000Z</time>
      </trkpt>
      <trkpt lat="47.63389" lon="6.69311">
        <ele>376</ele>
        <time>2026-08-30T12:16:35.000Z</time>
      </trkpt>
      <trkpt lat="47.63386" lon="6.69303">
        <ele>376</ele>
        <time>2026-08-30T12:16:37.000Z</time>
      </trkpt>
      <trkpt lat="47.63381" lon="6.69296">
        <ele>375.8</ele>
        <time>2026-08-30T12:16:39.000Z</time>
      </trkpt>
      <trkpt lat="47.63376" lon="6.69291">
        <ele>375.8</ele>
        <time>2026-08-30T12:16:41.000Z</time>
      </trkpt>
      <trkpt lat="47.63371" lon="6.69286">
        <ele>376</ele>
        <time>2026-08-30T12:16:43.000Z</time>
      </trkpt>
      <trkpt lat="47.63368" lon="6.69281">
        <ele>376.2</ele>
        <time>2026-08-30T12:16:45.000Z</time>
      </trkpt>
      <trkpt lat="47.63365" lon="6.69275">
        <ele>376.8</ele>
        <time>2026-08-30T12:16:47.000Z</time>
      </trkpt>
      <trkpt lat="47.63363" lon="6.69268">
        <ele>377.4</ele>
        <time>2026-08-30T12:16:49.000Z</time>
      </trkpt>
      <trkpt lat="47.63361" lon="6.69261">
        <ele>377.8</ele>
        <time>2026-08-30T12:16:51.000Z</time>
      </trkpt>
      <trkpt lat="47.6336" lon="6.69255">
        <ele>378.2</ele>
        <time>2026-08-30T12:16:53.000Z</time>
      </trkpt>
      <trkpt lat="47.63358" lon="6.69248">
        <ele>378.6</ele>
        <time>2026-08-30T12:16:55.000Z</time>
      </trkpt>
      <trkpt lat="47.63356" lon="6.69241">
        <ele>378.8</ele>
        <time>2026-08-30T12:16:57.000Z</time>
      </trkpt>
      <trkpt lat="47.63354" lon="6.69233">
        <ele>379</ele>
        <time>2026-08-30T12:16:59.000Z</time>
      </trkpt>
      <trkpt lat="47.63354" lon="6.69225">
        <ele>379</ele>
        <time>2026-08-30T12:17:02.000Z</time>
      </trkpt>
      <trkpt lat="47.63352" lon="6.69215">
        <ele>379.2</ele>
        <time>2026-08-30T12:17:04.000Z</time>
      </trkpt>
      <trkpt lat="47.63348" lon="6.69205">
        <ele>379.2</ele>
        <time>2026-08-30T12:17:06.000Z</time>
      </trkpt>
      <trkpt lat="47.63344" lon="6.69197">
        <ele>379.4</ele>
        <time>2026-08-30T12:17:08.000Z</time>
      </trkpt>
      <trkpt lat="47.63342" lon="6.6919">
        <ele>379.6</ele>
        <time>2026-08-30T12:17:10.000Z</time>
      </trkpt>
      <trkpt lat="47.63341" lon="6.69183">
        <ele>380</ele>
        <time>2026-08-30T12:17:12.000Z</time>
      </trkpt>
      <trkpt lat="47.6334" lon="6.69177">
        <ele>380.4</ele>
        <time>2026-08-30T12:17:14.000Z</time>
      </trkpt>
      <trkpt lat="47.63339" lon="6.69171">
        <ele>380.8</ele>
        <time>2026-08-30T12:17:16.000Z</time>
      </trkpt>
      <trkpt lat="47.63337" lon="6.69164">
        <ele>381</ele>
        <time>2026-08-30T12:17:18.000Z</time>
      </trkpt>
      <trkpt lat="47.63335" lon="6.69157">
        <ele>381</ele>
        <time>2026-08-30T12:17:20.000Z</time>
      </trkpt>
      <trkpt lat="47.63333" lon="6.69149">
        <ele>381.2</ele>
        <time>2026-08-30T12:17:22.000Z</time>
      </trkpt>
      <trkpt lat="47.63331" lon="6.69139">
        <ele>381.2</ele>
        <time>2026-08-30T12:17:24.000Z</time>
      </trkpt>
      <trkpt lat="47.6333" lon="6.6913">
        <ele>381.2</ele>
        <time>2026-08-30T12:17:26.000Z</time>
      </trkpt>
      <trkpt lat="47.63329" lon="6.69113">
        <ele>381.2</ele>
        <time>2026-08-30T12:17:28.000Z</time>
      </trkpt>
      <trkpt lat="47.63327" lon="6.69099">
        <ele>381.2</ele>
        <time>2026-08-30T12:17:30.000Z</time>
      </trkpt>
      <trkpt lat="47.63323" lon="6.69088">
        <ele>381</ele>
        <time>2026-08-30T12:17:32.000Z</time>
      </trkpt>
      <trkpt lat="47.63318" lon="6.69076">
        <ele>381</ele>
        <time>2026-08-30T12:17:34.000Z</time>
      </trkpt>
      <trkpt lat="47.63314" lon="6.69066">
        <ele>380.8</ele>
        <time>2026-08-30T12:17:36.000Z</time>
      </trkpt>
      <trkpt lat="47.63311" lon="6.69053">
        <ele>380.4</ele>
        <time>2026-08-30T12:17:38.000Z</time>
      </trkpt>
      <trkpt lat="47.63308" lon="6.6904">
        <ele>380.2</ele>
        <time>2026-08-30T12:17:40.000Z</time>
      </trkpt>
      <trkpt lat="47.63307" lon="6.69027">
        <ele>380.4</ele>
        <time>2026-08-30T12:17:42.000Z</time>
      </trkpt>
      <trkpt lat="47.63307" lon="6.69014">
        <ele>380.6</ele>
        <time>2026-08-30T12:17:44.000Z</time>
      </trkpt>
      <trkpt lat="47.63308" lon="6.69004">
        <ele>381</ele>
        <time>2026-08-30T12:17:46.000Z</time>
      </trkpt>
      <trkpt lat="47.63309" lon="6.68995">
        <ele>381.2</ele>
        <time>2026-08-30T12:17:48.000Z</time>
      </trkpt>
      <trkpt lat="47.63308" lon="6.68987">
        <ele>381.6</ele>
        <time>2026-08-30T12:17:50.000Z</time>
      </trkpt>
      <trkpt lat="47.63306" lon="6.68979">
        <ele>382</ele>
        <time>2026-08-30T12:17:52.000Z</time>
      </trkpt>
      <trkpt lat="47.63306" lon="6.68969">
        <ele>382.2</ele>
        <time>2026-08-30T12:17:54.000Z</time>
      </trkpt>
      <trkpt lat="47.63306" lon="6.68959">
        <ele>382.2</ele>
        <time>2026-08-30T12:17:56.000Z</time>
      </trkpt>
      <trkpt lat="47.63307" lon="6.68947">
        <ele>382.4</ele>
        <time>2026-08-30T12:17:58.000Z</time>
      </trkpt>
      <trkpt lat="47.63308" lon="6.68935">
        <ele>382.8</ele>
        <time>2026-08-30T12:18:00.000Z</time>
      </trkpt>
      <trkpt lat="47.63309" lon="6.68927">
        <ele>383.2</ele>
        <time>2026-08-30T12:18:02.000Z</time>
      </trkpt>
      <trkpt lat="47.63309" lon="6.6892">
        <ele>383.6</ele>
        <time>2026-08-30T12:18:04.000Z</time>
      </trkpt>
      <trkpt lat="47.63309" lon="6.68913">
        <ele>384</ele>
        <time>2026-08-30T12:18:06.000Z</time>
      </trkpt>
      <trkpt lat="47.6331" lon="6.68906">
        <ele>384.4</ele>
        <time>2026-08-30T12:18:08.000Z</time>
      </trkpt>
      <trkpt lat="47.63311" lon="6.68898">
        <ele>384.8</ele>
        <time>2026-08-30T12:18:10.000Z</time>
      </trkpt>
      <trkpt lat="47.63312" lon="6.6889">
        <ele>385</ele>
        <time>2026-08-30T12:18:12.000Z</time>
      </trkpt>
      <trkpt lat="47.63312" lon="6.68883">
        <ele>385</ele>
        <time>2026-08-30T12:18:14.000Z</time>
      </trkpt>
      <trkpt lat="47.63313" lon="6.68875">
        <ele>385.2</ele>
        <time>2026-08-30T12:18:16.000Z</time>
      </trkpt>
      <trkpt lat="47.63314" lon="6.68867">
        <ele>385.4</ele>
        <time>2026-08-30T12:18:18.000Z</time>
      </trkpt>
      <trkpt lat="47.63314" lon="6.68859">
        <ele>385.8</ele>
        <time>2026-08-30T12:18:20.000Z</time>
      </trkpt>
      <trkpt lat="47.63316" lon="6.68852">
        <ele>386</ele>
        <time>2026-08-30T12:18:22.000Z</time>
      </trkpt>
      <trkpt lat="47.63318" lon="6.68845">
        <ele>386.2</ele>
        <time>2026-08-30T12:18:24.000Z</time>
      </trkpt>
      <trkpt lat="47.63319" lon="6.68838">
        <ele>386.2</ele>
        <time>2026-08-30T12:18:26.000Z</time>
      </trkpt>
      <trkpt lat="47.63323" lon="6.68833">
        <ele>386.6</ele>
        <time>2026-08-30T12:18:28.000Z</time>
      </trkpt>
      <trkpt lat="47.63327" lon="6.68829">
        <ele>386.8</ele>
        <time>2026-08-30T12:18:30.000Z</time>
      </trkpt>
      <trkpt lat="47.63332" lon="6.68826">
        <ele>387.2</ele>
        <time>2026-08-30T12:18:32.000Z</time>
      </trkpt>
      <trkpt lat="47.63337" lon="6.68825">
        <ele>387.6</ele>
        <time>2026-08-30T12:18:34.000Z</time>
      </trkpt>
      <trkpt lat="47.63341" lon="6.68824">
        <ele>388</ele>
        <time>2026-08-30T12:18:36.000Z</time>
      </trkpt>
      <trkpt lat="47.63345" lon="6.68823">
        <ele>388.4</ele>
        <time>2026-08-30T12:18:38.000Z</time>
      </trkpt>
      <trkpt lat="47.63349" lon="6.68822">
        <ele>388.8</ele>
        <time>2026-08-30T12:18:40.000Z</time>
      </trkpt>
      <trkpt lat="47.63352" lon="6.68822">
        <ele>389.2</ele>
        <time>2026-08-30T12:18:42.000Z</time>
      </trkpt>
      <trkpt lat="47.63356" lon="6.68821">
        <ele>389.4</ele>
        <time>2026-08-30T12:18:44.000Z</time>
      </trkpt>
      <trkpt lat="47.63359" lon="6.6882">
        <ele>389.8</ele>
        <time>2026-08-30T12:18:46.000Z</time>
      </trkpt>
      <trkpt lat="47.63363" lon="6.68818">
        <ele>390.2</ele>
        <time>2026-08-30T12:18:48.000Z</time>
      </trkpt>
      <trkpt lat="47.63367" lon="6.68817">
        <ele>390.4</ele>
        <time>2026-08-30T12:18:50.000Z</time>
      </trkpt>
      <trkpt lat="47.6337" lon="6.68816">
        <ele>390.8</ele>
        <time>2026-08-30T12:18:52.000Z</time>
      </trkpt>
      <trkpt lat="47.63374" lon="6.68815">
        <ele>391.2</ele>
        <time>2026-08-30T12:18:55.000Z</time>
      </trkpt>
      <trkpt lat="47.63378" lon="6.68814">
        <ele>391.6</ele>
        <time>2026-08-30T12:18:57.000Z</time>
      </trkpt>
      <trkpt lat="47.63382" lon="6.68813">
        <ele>392</ele>
        <time>2026-08-30T12:18:59.000Z</time>
      </trkpt>
      <trkpt lat="47.63386" lon="6.68812">
        <ele>392.4</ele>
        <time>2026-08-30T12:19:01.000Z</time>
      </trkpt>
      <trkpt lat="47.63391" lon="6.68812">
        <ele>392.6</ele>
        <time>2026-08-30T12:19:03.000Z</time>
      </trkpt>
      <trkpt lat="47.63395" lon="6.68811">
        <ele>393</ele>
        <time>2026-08-30T12:19:05.000Z</time>
      </trkpt>
      <trkpt lat="47.63399" lon="6.68811">
        <ele>393.2</ele>
        <time>2026-08-30T12:19:07.000Z</time>
      </trkpt>
      <trkpt lat="47.63403" lon="6.68808">
        <ele>393.4</ele>
        <time>2026-08-30T12:19:09.000Z</time>
      </trkpt>
      <trkpt lat="47.63406" lon="6.68802">
        <ele>393.4</ele>
        <time>2026-08-30T12:19:11.000Z</time>
      </trkpt>
      <trkpt lat="47.63408" lon="6.68794">
        <ele>393.4</ele>
        <time>2026-08-30T12:19:13.000Z</time>
      </trkpt>
      <trkpt lat="47.63409" lon="6.68784">
        <ele>393.4</ele>
        <time>2026-08-30T12:19:15.000Z</time>
      </trkpt>
      <trkpt lat="47.6341" lon="6.68773">
        <ele>393.2</ele>
        <time>2026-08-30T12:19:17.000Z</time>
      </trkpt>
      <trkpt lat="47.63411" lon="6.68758">
        <ele>393</ele>
        <time>2026-08-30T12:19:19.000Z</time>
      </trkpt>
      <trkpt lat="47.63412" lon="6.68742">
        <ele>392.8</ele>
        <time>2026-08-30T12:19:21.000Z</time>
      </trkpt>
      <trkpt lat="47.63412" lon="6.68728">
        <ele>392.6</ele>
        <time>2026-08-30T12:19:23.000Z</time>
      </trkpt>
      <trkpt lat="47.63413" lon="6.68715">
        <ele>392.6</ele>
        <time>2026-08-30T12:19:25.000Z</time>
      </trkpt>
      <trkpt lat="47.63414" lon="6.68703">
        <ele>392.4</ele>
        <time>2026-08-30T12:19:27.000Z</time>
      </trkpt>
      <trkpt lat="47.63415" lon="6.68692">
        <ele>392.2</ele>
        <time>2026-08-30T12:19:29.000Z</time>
      </trkpt>
      <trkpt lat="47.63418" lon="6.68681">
        <ele>392.2</ele>
        <time>2026-08-30T12:19:31.000Z</time>
      </trkpt>
      <trkpt lat="47.63423" lon="6.68671">
        <ele>392</ele>
        <time>2026-08-30T12:19:33.000Z</time>
      </trkpt>
      <trkpt lat="47.6343" lon="6.68663">
        <ele>392</ele>
        <time>2026-08-30T12:19:35.000Z</time>
      </trkpt>
      <trkpt lat="47.63437" lon="6.68657">
        <ele>392</ele>
        <time>2026-08-30T12:19:37.000Z</time>
      </trkpt>
      <trkpt lat="47.63444" lon="6.68652">
        <ele>392</ele>
        <time>2026-08-30T12:19:39.000Z</time>
      </trkpt>
      <trkpt lat="47.6345" lon="6.68647">
        <ele>392.2</ele>
        <time>2026-08-30T12:19:41.000Z</time>
      </trkpt>
      <trkpt lat="47.63455" lon="6.6864">
        <ele>392.2</ele>
        <time>2026-08-30T12:19:43.000Z</time>
      </trkpt>
      <trkpt lat="47.63458" lon="6.68631">
        <ele>392.4</ele>
        <time>2026-08-30T12:19:45.000Z</time>
      </trkpt>
      <trkpt lat="47.63461" lon="6.68622">
        <ele>392.6</ele>
        <time>2026-08-30T12:19:47.000Z</time>
      </trkpt>
      <trkpt lat="47.63462" lon="6.68612">
        <ele>392.8</ele>
        <time>2026-08-30T12:19:49.000Z</time>
      </trkpt>
      <trkpt lat="47.63463" lon="6.68604">
        <ele>393.2</ele>
        <time>2026-08-30T12:19:51.000Z</time>
      </trkpt>
      <trkpt lat="47.63464" lon="6.68597">
        <ele>393.4</ele>
        <time>2026-08-30T12:19:53.000Z</time>
      </trkpt>
      <trkpt lat="47.63465" lon="6.68589">
        <ele>393.6</ele>
        <time>2026-08-30T12:19:55.000Z</time>
      </trkpt>
      <trkpt lat="47.63465" lon="6.68581">
        <ele>394</ele>
        <time>2026-08-30T12:19:57.000Z</time>
      </trkpt>
      <trkpt lat="47.63466" lon="6.68573">
        <ele>394.2</ele>
        <time>2026-08-30T12:19:59.000Z</time>
      </trkpt>
      <trkpt lat="47.63466" lon="6.68565">
        <ele>394.6</ele>
        <time>2026-08-30T12:20:01.000Z</time>
      </trkpt>
      <trkpt lat="47.63467" lon="6.68557">
        <ele>395.2</ele>
        <time>2026-08-30T12:20:03.000Z</time>
      </trkpt>
      <trkpt lat="47.63468" lon="6.68549">
        <ele>395.6</ele>
        <time>2026-08-30T12:20:05.000Z</time>
      </trkpt>
      <trkpt lat="47.63468" lon="6.68541">
        <ele>396</ele>
        <time>2026-08-30T12:20:07.000Z</time>
      </trkpt>
      <trkpt lat="47.63468" lon="6.68533">
        <ele>396.2</ele>
        <time>2026-08-30T12:20:09.000Z</time>
      </trkpt>
      <trkpt lat="47.63469" lon="6.68525">
        <ele>396.6</ele>
        <time>2026-08-30T12:20:11.000Z</time>
      </trkpt>
      <trkpt lat="47.63469" lon="6.68517">
        <ele>397</ele>
        <time>2026-08-30T12:20:13.000Z</time>
      </trkpt>
      <trkpt lat="47.63469" lon="6.68509">
        <ele>397.4</ele>
        <time>2026-08-30T12:20:15.000Z</time>
      </trkpt>
      <trkpt lat="47.63468" lon="6.685">
        <ele>397.6</ele>
        <time>2026-08-30T12:20:17.000Z</time>
      </trkpt>
      <trkpt lat="47.63467" lon="6.68491">
        <ele>397.6</ele>
        <time>2026-08-30T12:20:19.000Z</time>
      </trkpt>
      <trkpt lat="47.63467" lon="6.68482">
        <ele>397.6</ele>
        <time>2026-08-30T12:20:21.000Z</time>
      </trkpt>
      <trkpt lat="47.63466" lon="6.68472">
        <ele>397.8</ele>
        <time>2026-08-30T12:20:23.000Z</time>
      </trkpt>
      <trkpt lat="47.63466" lon="6.68463">
        <ele>397.8</ele>
        <time>2026-08-30T12:20:25.000Z</time>
      </trkpt>
      <trkpt lat="47.63465" lon="6.68454">
        <ele>397.8</ele>
        <time>2026-08-30T12:20:27.000Z</time>
      </trkpt>
      <trkpt lat="47.63465" lon="6.68445">
        <ele>397.8</ele>
        <time>2026-08-30T12:20:29.000Z</time>
      </trkpt>
      <trkpt lat="47.63465" lon="6.68436">
        <ele>397.8</ele>
        <time>2026-08-30T12:20:32.000Z</time>
      </trkpt>
      <trkpt lat="47.63465" lon="6.68427">
        <ele>397.8</ele>
        <time>2026-08-30T12:20:34.000Z</time>
      </trkpt>
      <trkpt lat="47.63465" lon="6.68417">
        <ele>397.8</ele>
        <time>2026-08-30T12:20:36.000Z</time>
      </trkpt>
      <trkpt lat="47.63464" lon="6.68408">
        <ele>397.8</ele>
        <time>2026-08-30T12:20:38.000Z</time>
      </trkpt>
      <trkpt lat="47.63464" lon="6.68398">
        <ele>397.8</ele>
        <time>2026-08-30T12:20:40.000Z</time>
      </trkpt>
      <trkpt lat="47.63463" lon="6.68388">
        <ele>398</ele>
        <time>2026-08-30T12:20:42.000Z</time>
      </trkpt>
      <trkpt lat="47.63462" lon="6.68378">
        <ele>398</ele>
        <time>2026-08-30T12:20:44.000Z</time>
      </trkpt>
      <trkpt lat="47.6346" lon="6.68369">
        <ele>398</ele>
        <time>2026-08-30T12:20:46.000Z</time>
      </trkpt>
      <trkpt lat="47.63459" lon="6.68359">
        <ele>398.2</ele>
        <time>2026-08-30T12:20:48.000Z</time>
      </trkpt>
      <trkpt lat="47.63458" lon="6.6835">
        <ele>398.4</ele>
        <time>2026-08-30T12:20:50.000Z</time>
      </trkpt>
      <trkpt lat="47.63457" lon="6.6834">
        <ele>398.6</ele>
        <time>2026-08-30T12:20:52.000Z</time>
      </trkpt>
      <trkpt lat="47.63456" lon="6.68331">
        <ele>398.8</ele>
        <time>2026-08-30T12:20:54.000Z</time>
      </trkpt>
      <trkpt lat="47.63455" lon="6.68321">
        <ele>399</ele>
        <time>2026-08-30T12:20:56.000Z</time>
      </trkpt>
      <trkpt lat="47.63455" lon="6.68312">
        <ele>399.2</ele>
        <time>2026-08-30T12:20:58.000Z</time>
      </trkpt>
      <trkpt lat="47.63454" lon="6.68303">
        <ele>399.4</ele>
        <time>2026-08-30T12:21:00.000Z</time>
      </trkpt>
      <trkpt lat="47.63454" lon="6.68294">
        <ele>399.6</ele>
        <time>2026-08-30T12:21:02.000Z</time>
      </trkpt>
      <trkpt lat="47.63453" lon="6.68285">
        <ele>399.8</ele>
        <time>2026-08-30T12:21:04.000Z</time>
      </trkpt>
      <trkpt lat="47.63452" lon="6.68277">
        <ele>400</ele>
        <time>2026-08-30T12:21:06.000Z</time>
      </trkpt>
      <trkpt lat="47.63451" lon="6.68269">
        <ele>400.4</ele>
        <time>2026-08-30T12:21:08.000Z</time>
      </trkpt>
      <trkpt lat="47.63449" lon="6.68262">
        <ele>400.6</ele>
        <time>2026-08-30T12:21:10.000Z</time>
      </trkpt>
      <trkpt lat="47.63448" lon="6.68251">
        <ele>401</ele>
        <time>2026-08-30T12:21:12.000Z</time>
      </trkpt>
      <trkpt lat="47.63446" lon="6.68242">
        <ele>401.6</ele>
        <time>2026-08-30T12:21:14.000Z</time>
      </trkpt>
      <trkpt lat="47.63444" lon="6.68235">
        <ele>402</ele>
        <time>2026-08-30T12:21:16.000Z</time>
      </trkpt>
      <trkpt lat="47.63443" lon="6.68227">
        <ele>402.4</ele>
        <time>2026-08-30T12:21:18.000Z</time>
      </trkpt>
      <trkpt lat="47.63442" lon="6.6822">
        <ele>402.8</ele>
        <time>2026-08-30T12:21:20.000Z</time>
      </trkpt>
      <trkpt lat="47.63441" lon="6.68213">
        <ele>403.2</ele>
        <time>2026-08-30T12:21:22.000Z</time>
      </trkpt>
      <trkpt lat="47.6344" lon="6.68206">
        <ele>403.6</ele>
        <time>2026-08-30T12:21:24.000Z</time>
      </trkpt>
      <trkpt lat="47.63439" lon="6.68199">
        <ele>404</ele>
        <time>2026-08-30T12:21:26.000Z</time>
      </trkpt>
      <trkpt lat="47.63438" lon="6.68192">
        <ele>404.2</ele>
        <time>2026-08-30T12:21:28.000Z</time>
      </trkpt>
      <trkpt lat="47.63436" lon="6.68185">
        <ele>404.6</ele>
        <time>2026-08-30T12:21:30.000Z</time>
      </trkpt>
      <trkpt lat="47.63435" lon="6.68177">
        <ele>405</ele>
        <time>2026-08-30T12:21:32.000Z</time>
      </trkpt>
      <trkpt lat="47.63434" lon="6.6817">
        <ele>405.4</ele>
        <time>2026-08-30T12:21:34.000Z</time>
      </trkpt>
      <trkpt lat="47.63433" lon="6.68162">
        <ele>405.6</ele>
        <time>2026-08-30T12:21:36.000Z</time>
      </trkpt>
      <trkpt lat="47.63432" lon="6.68154">
        <ele>406</ele>
        <time>2026-08-30T12:21:38.000Z</time>
      </trkpt>
      <trkpt lat="47.63431" lon="6.68147">
        <ele>406.2</ele>
        <time>2026-08-30T12:21:40.000Z</time>
      </trkpt>
      <trkpt lat="47.63431" lon="6.6814">
        <ele>406.6</ele>
        <time>2026-08-30T12:21:42.000Z</time>
      </trkpt>
      <trkpt lat="47.6343" lon="6.68132">
        <ele>406.8</ele>
        <time>2026-08-30T12:21:44.000Z</time>
      </trkpt>
      <trkpt lat="47.6343" lon="6.68124">
        <ele>407</ele>
        <time>2026-08-30T12:21:46.000Z</time>
      </trkpt>
      <trkpt lat="47.6343" lon="6.68116">
        <ele>407.2</ele>
        <time>2026-08-30T12:21:48.000Z</time>
      </trkpt>
      <trkpt lat="47.6343" lon="6.68109">
        <ele>407.6</ele>
        <time>2026-08-30T12:21:50.000Z</time>
      </trkpt>
      <trkpt lat="47.6343" lon="6.68101">
        <ele>408</ele>
        <time>2026-08-30T12:21:52.000Z</time>
      </trkpt>
      <trkpt lat="47.6343" lon="6.68094">
        <ele>408.4</ele>
        <time>2026-08-30T12:21:54.000Z</time>
      </trkpt>
      <trkpt lat="47.6343" lon="6.68086">
        <ele>408.6</ele>
        <time>2026-08-30T12:21:56.000Z</time>
      </trkpt>
      <trkpt lat="47.6343" lon="6.68079">
        <ele>408.8</ele>
        <time>2026-08-30T12:21:58.000Z</time>
      </trkpt>
      <trkpt lat="47.63432" lon="6.68072">
        <ele>408.8</ele>
        <time>2026-08-30T12:22:00.000Z</time>
      </trkpt>
      <trkpt lat="47.63435" lon="6.68066">
        <ele>408.8</ele>
        <time>2026-08-30T12:22:02.000Z</time>
      </trkpt>
      <trkpt lat="47.63441" lon="6.68062">
        <ele>408.8</ele>
        <time>2026-08-30T12:22:04.000Z</time>
      </trkpt>
      <trkpt lat="47.63446" lon="6.68057">
        <ele>408.6</ele>
        <time>2026-08-30T12:22:06.000Z</time>
      </trkpt>
      <trkpt lat="47.6345" lon="6.68051">
        <ele>408.6</ele>
        <time>2026-08-30T12:22:08.000Z</time>
      </trkpt>
      <trkpt lat="47.63449" lon="6.68044">
        <ele>408.6</ele>
        <time>2026-08-30T12:22:10.000Z</time>
      </trkpt>
      <trkpt lat="47.63444" lon="6.68037">
        <ele>409</ele>
        <time>2026-08-30T12:22:12.000Z</time>
      </trkpt>
      <trkpt lat="47.63439" lon="6.68033">
        <ele>409.2</ele>
        <time>2026-08-30T12:22:14.000Z</time>
      </trkpt>
      <trkpt lat="47.63434" lon="6.68029">
        <ele>409.4</ele>
        <time>2026-08-30T12:22:16.000Z</time>
      </trkpt>
      <trkpt lat="47.63429" lon="6.68026">
        <ele>409.6</ele>
        <time>2026-08-30T12:22:18.000Z</time>
      </trkpt>
      <trkpt lat="47.63424" lon="6.68024">
        <ele>409.4</ele>
        <time>2026-08-30T12:22:21.000Z</time>
      </trkpt>
      <trkpt lat="47.63419" lon="6.68022">
        <ele>409.4</ele>
        <time>2026-08-30T12:22:23.000Z</time>
      </trkpt>
      <trkpt lat="47.63414" lon="6.68019">
        <ele>409.6</ele>
        <time>2026-08-30T12:22:25.000Z</time>
      </trkpt>
      <trkpt lat="47.63409" lon="6.68016">
        <ele>410</ele>
        <time>2026-08-30T12:22:27.000Z</time>
      </trkpt>
      <trkpt lat="47.63404" lon="6.68011">
        <ele>410.4</ele>
        <time>2026-08-30T12:22:29.000Z</time>
      </trkpt>
      <trkpt lat="47.63401" lon="6.68003">
        <ele>410.8</ele>
        <time>2026-08-30T12:22:31.000Z</time>
      </trkpt>
      <trkpt lat="47.63399" lon="6.67995">
        <ele>411.2</ele>
        <time>2026-08-30T12:22:33.000Z</time>
      </trkpt>
      <trkpt lat="47.63398" lon="6.67986">
        <ele>411.4</ele>
        <time>2026-08-30T12:22:35.000Z</time>
      </trkpt>
      <trkpt lat="47.63396" lon="6.67977">
        <ele>411.4</ele>
        <time>2026-08-30T12:22:37.000Z</time>
      </trkpt>
      <trkpt lat="47.63395" lon="6.67967">
        <ele>411.4</ele>
        <time>2026-08-30T12:22:39.000Z</time>
      </trkpt>
      <trkpt lat="47.63393" lon="6.67957">
        <ele>411.2</ele>
        <time>2026-08-30T12:22:41.000Z</time>
      </trkpt>
      <trkpt lat="47.63392" lon="6.67946">
        <ele>411.2</ele>
        <time>2026-08-30T12:22:43.000Z</time>
      </trkpt>
      <trkpt lat="47.63389" lon="6.67936">
        <ele>411</ele>
        <time>2026-08-30T12:22:45.000Z</time>
      </trkpt>
      <trkpt lat="47.63387" lon="6.67926">
        <ele>410.6</ele>
        <time>2026-08-30T12:22:47.000Z</time>
      </trkpt>
      <trkpt lat="47.63384" lon="6.67915">
        <ele>410.2</ele>
        <time>2026-08-30T12:22:49.000Z</time>
      </trkpt>
      <trkpt lat="47.6338" lon="6.67903">
        <ele>410</ele>
        <time>2026-08-30T12:22:51.000Z</time>
      </trkpt>
      <trkpt lat="47.63376" lon="6.67891">
        <ele>409.6</ele>
        <time>2026-08-30T12:22:53.000Z</time>
      </trkpt>
      <trkpt lat="47.6337" lon="6.67874">
        <ele>409.2</ele>
        <time>2026-08-30T12:22:55.000Z</time>
      </trkpt>
      <trkpt lat="47.63362" lon="6.67853">
        <ele>408.2</ele>
        <time>2026-08-30T12:22:57.000Z</time>
      </trkpt>
      <trkpt lat="47.63354" lon="6.67835">
        <ele>407</ele>
        <time>2026-08-30T12:22:59.000Z</time>
      </trkpt>
      <trkpt lat="47.63348" lon="6.67816">
        <ele>405.6</ele>
        <time>2026-08-30T12:23:01.000Z</time>
      </trkpt>
      <trkpt lat="47.63342" lon="6.67799">
        <ele>404.4</ele>
        <time>2026-08-30T12:23:03.000Z</time>
      </trkpt>
      <trkpt lat="47.63337" lon="6.67778">
        <ele>403</ele>
        <time>2026-08-30T12:23:05.000Z</time>
      </trkpt>
      <trkpt lat="47.63332" lon="6.67755">
        <ele>401.4</ele>
        <time>2026-08-30T12:23:07.000Z</time>
      </trkpt>
      <trkpt lat="47.63325" lon="6.6773">
        <ele>399.6</ele>
        <time>2026-08-30T12:23:09.000Z</time>
      </trkpt>
      <trkpt lat="47.63317" lon="6.67704">
        <ele>397.6</ele>
        <time>2026-08-30T12:23:11.000Z</time>
      </trkpt>
      <trkpt lat="47.63309" lon="6.6768">
        <ele>395.4</ele>
        <time>2026-08-30T12:23:13.000Z</time>
      </trkpt>
      <trkpt lat="47.63301" lon="6.67657">
        <ele>393.2</ele>
        <time>2026-08-30T12:23:15.000Z</time>
      </trkpt>
      <trkpt lat="47.63291" lon="6.67635">
        <ele>391.4</ele>
        <time>2026-08-30T12:23:17.000Z</time>
      </trkpt>
      <trkpt lat="47.6328" lon="6.67614">
        <ele>389.6</ele>
        <time>2026-08-30T12:23:19.000Z</time>
      </trkpt>
      <trkpt lat="47.63268" lon="6.67593">
        <ele>387.6</ele>
        <time>2026-08-30T12:23:21.000Z</time>
      </trkpt>
      <trkpt lat="47.63257" lon="6.67571">
        <ele>385.8</ele>
        <time>2026-08-30T12:23:23.000Z</time>
      </trkpt>
      <trkpt lat="47.63247" lon="6.6755">
        <ele>384.2</ele>
        <time>2026-08-30T12:23:25.000Z</time>
      </trkpt>
      <trkpt lat="47.63238" lon="6.6753">
        <ele>382.4</ele>
        <time>2026-08-30T12:23:27.000Z</time>
      </trkpt>
      <trkpt lat="47.63229" lon="6.6751">
        <ele>380.6</ele>
        <time>2026-08-30T12:23:29.000Z</time>
      </trkpt>
      <trkpt lat="47.6322" lon="6.67487">
        <ele>378.8</ele>
        <time>2026-08-30T12:23:31.000Z</time>
      </trkpt>
      <trkpt lat="47.63212" lon="6.67464">
        <ele>376.8</ele>
        <time>2026-08-30T12:23:33.000Z</time>
      </trkpt>
      <trkpt lat="47.63203" lon="6.67444">
        <ele>375</ele>
        <time>2026-08-30T12:23:35.000Z</time>
      </trkpt>
      <trkpt lat="47.63196" lon="6.6743">
        <ele>373.2</ele>
        <time>2026-08-30T12:23:37.000Z</time>
      </trkpt>
      <trkpt lat="47.63193" lon="6.67419">
        <ele>371.6</ele>
        <time>2026-08-30T12:23:39.000Z</time>
      </trkpt>
      <trkpt lat="47.63196" lon="6.67407">
        <ele>370.2</ele>
        <time>2026-08-30T12:23:41.000Z</time>
      </trkpt>
      <trkpt lat="47.63204" lon="6.67393">
        <ele>369</ele>
        <time>2026-08-30T12:23:43.000Z</time>
      </trkpt>
      <trkpt lat="47.6321" lon="6.67379">
        <ele>368.2</ele>
        <time>2026-08-30T12:23:45.000Z</time>
      </trkpt>
      <trkpt lat="47.63213" lon="6.67366">
        <ele>368</ele>
        <time>2026-08-30T12:23:47.000Z</time>
      </trkpt>
      <trkpt lat="47.63214" lon="6.67358">
        <ele>368</ele>
        <time>2026-08-30T12:23:49.000Z</time>
      </trkpt>
      <trkpt lat="47.63214" lon="6.67353">
        <ele>368.4</ele>
        <time>2026-08-30T12:23:51.000Z</time>
      </trkpt>
      <trkpt lat="47.63215" lon="6.67352">
        <ele>368.8</ele>
        <time>2026-08-30T12:23:53.000Z</time>
      </trkpt>
      <trkpt lat="47.63215" lon="6.67351">
        <ele>369.2</ele>
        <time>2026-08-30T12:23:55.000Z</time>
      </trkpt>
      <trkpt lat="47.63217" lon="6.67349">
        <ele>369.8</ele>
        <time>2026-08-30T12:23:57.000Z</time>
      </trkpt>
      <trkpt lat="47.63218" lon="6.67347">
        <ele>370.2</ele>
        <time>2026-08-30T12:23:59.000Z</time>
      </trkpt>
      <trkpt lat="47.6322" lon="6.67346">
        <ele>370.6</ele>
        <time>2026-08-30T12:24:01.000Z</time>
      </trkpt>
      <trkpt lat="47.63221" lon="6.67344">
        <ele>371</ele>
        <time>2026-08-30T12:24:03.000Z</time>
      </trkpt>
      <trkpt lat="47.63223" lon="6.67341">
        <ele>371.4</ele>
        <time>2026-08-30T12:24:05.000Z</time>
      </trkpt>
      <trkpt lat="47.63225" lon="6.67339">
        <ele>371.8</ele>
        <time>2026-08-30T12:24:08.000Z</time>
      </trkpt>
      <trkpt lat="47.63227" lon="6.67338">
        <ele>372.4</ele>
        <time>2026-08-30T12:24:10.000Z</time>
      </trkpt>
      <trkpt lat="47.63228" lon="6.67335">
        <ele>372.8</ele>
        <time>2026-08-30T12:24:12.000Z</time>
      </trkpt>
      <trkpt lat="47.6323" lon="6.67334">
        <ele>373.2</ele>
        <time>2026-08-30T12:24:14.000Z</time>
      </trkpt>
      <trkpt lat="47.63232" lon="6.67332">
        <ele>373.4</ele>
        <time>2026-08-30T12:24:16.000Z</time>
      </trkpt>
      <trkpt lat="47.63234" lon="6.67332">
        <ele>373.8</ele>
        <time>2026-08-30T12:24:18.000Z</time>
      </trkpt>
      <trkpt lat="47.63236" lon="6.67331">
        <ele>374.4</ele>
        <time>2026-08-30T12:24:20.000Z</time>
      </trkpt>
      <trkpt lat="47.63237" lon="6.6733">
        <ele>374.8</ele>
        <time>2026-08-30T12:24:22.000Z</time>
      </trkpt>
      <trkpt lat="47.6324" lon="6.67329">
        <ele>375.4</ele>
        <time>2026-08-30T12:24:24.000Z</time>
      </trkpt>
      <trkpt lat="47.63243" lon="6.67328">
        <ele>376</ele>
        <time>2026-08-30T12:24:26.000Z</time>
      </trkpt>
      <trkpt lat="47.63246" lon="6.67327">
        <ele>376.4</ele>
        <time>2026-08-30T12:24:28.000Z</time>
      </trkpt>
      <trkpt lat="47.63249" lon="6.67326">
        <ele>376.8</ele>
        <time>2026-08-30T12:24:30.000Z</time>
      </trkpt>
      <trkpt lat="47.63251" lon="6.67325">
        <ele>377.4</ele>
        <time>2026-08-30T12:24:32.000Z</time>
      </trkpt>
      <trkpt lat="47.63254" lon="6.67324">
        <ele>377.8</ele>
        <time>2026-08-30T12:24:34.000Z</time>
      </trkpt>
      <trkpt lat="47.63256" lon="6.67324">
        <ele>378.2</ele>
        <time>2026-08-30T12:24:36.000Z</time>
      </trkpt>
      <trkpt lat="47.63259" lon="6.67324">
        <ele>378.6</ele>
        <time>2026-08-30T12:24:38.000Z</time>
      </trkpt>
      <trkpt lat="47.63261" lon="6.67325">
        <ele>378.8</ele>
        <time>2026-08-30T12:24:40.000Z</time>
      </trkpt>
      <trkpt lat="47.63263" lon="6.67325">
        <ele>379</ele>
        <time>2026-08-30T12:24:42.000Z</time>
      </trkpt>
      <trkpt lat="47.63265" lon="6.67325">
        <ele>379.4</ele>
        <time>2026-08-30T12:24:44.000Z</time>
      </trkpt>
      <trkpt lat="47.63267" lon="6.67326">
        <ele>379.6</ele>
        <time>2026-08-30T12:24:46.000Z</time>
      </trkpt>
      <trkpt lat="47.63269" lon="6.67326">
        <ele>379.8</ele>
        <time>2026-08-30T12:24:48.000Z</time>
      </trkpt>
      <trkpt lat="47.63271" lon="6.67327">
        <ele>380.2</ele>
        <time>2026-08-30T12:24:50.000Z</time>
      </trkpt>
      <trkpt lat="47.63274" lon="6.67329">
        <ele>380.4</ele>
        <time>2026-08-30T12:24:52.000Z</time>
      </trkpt>
      <trkpt lat="47.63276" lon="6.6733">
        <ele>380.8</ele>
        <time>2026-08-30T12:24:54.000Z</time>
      </trkpt>
      <trkpt lat="47.63278" lon="6.67331">
        <ele>381</ele>
        <time>2026-08-30T12:24:56.000Z</time>
      </trkpt>
      <trkpt lat="47.6328" lon="6.67331">
        <ele>381.2</ele>
        <time>2026-08-30T12:24:58.000Z</time>
      </trkpt>
      <trkpt lat="47.63282" lon="6.67332">
        <ele>381.6</ele>
        <time>2026-08-30T12:25:00.000Z</time>
      </trkpt>
      <trkpt lat="47.63284" lon="6.67333">
        <ele>381.8</ele>
        <time>2026-08-30T12:25:02.000Z</time>
      </trkpt>
      <trkpt lat="47.63286" lon="6.67334">
        <ele>382.2</ele>
        <time>2026-08-30T12:25:04.000Z</time>
      </trkpt>
      <trkpt lat="47.63288" lon="6.67335">
        <ele>382.4</ele>
        <time>2026-08-30T12:25:06.000Z</time>
      </trkpt>
      <trkpt lat="47.6329" lon="6.67336">
        <ele>382.8</ele>
        <time>2026-08-30T12:25:08.000Z</time>
      </trkpt>
      <trkpt lat="47.63292" lon="6.67337">
        <ele>383</ele>
        <time>2026-08-30T12:25:10.000Z</time>
      </trkpt>
      <trkpt lat="47.63294" lon="6.67337">
        <ele>383.4</ele>
        <time>2026-08-30T12:25:12.000Z</time>
      </trkpt>
      <trkpt lat="47.63296" lon="6.67338">
        <ele>383.8</ele>
        <time>2026-08-30T12:25:14.000Z</time>
      </trkpt>
      <trkpt lat="47.63298" lon="6.67337">
        <ele>384.2</ele>
        <time>2026-08-30T12:25:16.000Z</time>
      </trkpt>
      <trkpt lat="47.633" lon="6.67336">
        <ele>384.6</ele>
        <time>2026-08-30T12:25:18.000Z</time>
      </trkpt>
      <trkpt lat="47.63301" lon="6.67336">
        <ele>384.8</ele>
        <time>2026-08-30T12:25:20.000Z</time>
      </trkpt>
      <trkpt lat="47.63304" lon="6.67335">
        <ele>385</ele>
        <time>2026-08-30T12:25:22.000Z</time>
      </trkpt>
      <trkpt lat="47.63307" lon="6.67335">
        <ele>385.4</ele>
        <time>2026-08-30T12:25:24.000Z</time>
      </trkpt>
      <trkpt lat="47.63309" lon="6.67335">
        <ele>385.6</ele>
        <time>2026-08-30T12:25:26.000Z</time>
      </trkpt>
      <trkpt lat="47.63312" lon="6.67336">
        <ele>385.8</ele>
        <time>2026-08-30T12:25:28.000Z</time>
      </trkpt>
      <trkpt lat="47.63314" lon="6.67337">
        <ele>386</ele>
        <time>2026-08-30T12:25:30.000Z</time>
      </trkpt>
      <trkpt lat="47.63317" lon="6.67338">
        <ele>386.2</ele>
        <time>2026-08-30T12:25:32.000Z</time>
      </trkpt>
      <trkpt lat="47.6332" lon="6.67338">
        <ele>386.4</ele>
        <time>2026-08-30T12:25:34.000Z</time>
      </trkpt>
      <trkpt lat="47.63323" lon="6.67339">
        <ele>386.4</ele>
        <time>2026-08-30T12:25:36.000Z</time>
      </trkpt>
      <trkpt lat="47.63326" lon="6.6734">
        <ele>386.6</ele>
        <time>2026-08-30T12:25:38.000Z</time>
      </trkpt>
      <trkpt lat="47.63329" lon="6.67341">
        <ele>387</ele>
        <time>2026-08-30T12:25:40.000Z</time>
      </trkpt>
      <trkpt lat="47.63332" lon="6.6734">
        <ele>387.2</ele>
        <time>2026-08-30T12:25:42.000Z</time>
      </trkpt>
      <trkpt lat="47.63335" lon="6.6734">
        <ele>387.4</ele>
        <time>2026-08-30T12:25:44.000Z</time>
      </trkpt>
      <trkpt lat="47.63338" lon="6.67339">
        <ele>387.6</ele>
        <time>2026-08-30T12:25:46.000Z</time>
      </trkpt>
      <trkpt lat="47.63341" lon="6.67338">
        <ele>387.8</ele>
        <time>2026-08-30T12:25:48.000Z</time>
      </trkpt>
      <trkpt lat="47.63344" lon="6.67337">
        <ele>388.2</ele>
        <time>2026-08-30T12:25:50.000Z</time>
      </trkpt>
      <trkpt lat="47.63348" lon="6.67336">
        <ele>388.4</ele>
        <time>2026-08-30T12:25:52.000Z</time>
      </trkpt>
      <trkpt lat="47.63351" lon="6.67336">
        <ele>388.6</ele>
        <time>2026-08-30T12:25:54.000Z</time>
      </trkpt>
      <trkpt lat="47.63355" lon="6.67336">
        <ele>388.8</ele>
        <time>2026-08-30T12:25:56.000Z</time>
      </trkpt>
      <trkpt lat="47.63358" lon="6.67336">
        <ele>389</ele>
        <time>2026-08-30T12:25:59.000Z</time>
      </trkpt>
      <trkpt lat="47.63362" lon="6.67335">
        <ele>389.2</ele>
        <time>2026-08-30T12:26:01.000Z</time>
      </trkpt>
      <trkpt lat="47.63365" lon="6.67335">
        <ele>389.4</ele>
        <time>2026-08-30T12:26:03.000Z</time>
      </trkpt>
      <trkpt lat="47.63369" lon="6.67335">
        <ele>389.6</ele>
        <time>2026-08-30T12:26:05.000Z</time>
      </trkpt>
      <trkpt lat="47.63372" lon="6.67334">
        <ele>389.6</ele>
        <time>2026-08-30T12:26:07.000Z</time>
      </trkpt>
      <trkpt lat="47.63376" lon="6.67333">
        <ele>389.8</ele>
        <time>2026-08-30T12:26:09.000Z</time>
      </trkpt>
      <trkpt lat="47.6338" lon="6.67331">
        <ele>390</ele>
        <time>2026-08-30T12:26:11.000Z</time>
      </trkpt>
      <trkpt lat="47.63383" lon="6.67331">
        <ele>390.2</ele>
        <time>2026-08-30T12:26:13.000Z</time>
      </trkpt>
      <trkpt lat="47.63387" lon="6.67331">
        <ele>390.4</ele>
        <time>2026-08-30T12:26:15.000Z</time>
      </trkpt>
      <trkpt lat="47.6339" lon="6.6733">
        <ele>390.6</ele>
        <time>2026-08-30T12:26:17.000Z</time>
      </trkpt>
      <trkpt lat="47.63394" lon="6.6733">
        <ele>390.6</ele>
        <time>2026-08-30T12:26:19.000Z</time>
      </trkpt>
      <trkpt lat="47.63398" lon="6.67329">
        <ele>390.8</ele>
        <time>2026-08-30T12:26:21.000Z</time>
      </trkpt>
      <trkpt lat="47.63401" lon="6.67328">
        <ele>391</ele>
        <time>2026-08-30T12:26:23.000Z</time>
      </trkpt>
      <trkpt lat="47.63405" lon="6.67326">
        <ele>391.2</ele>
        <time>2026-08-30T12:26:25.000Z</time>
      </trkpt>
      <trkpt lat="47.63409" lon="6.67325">
        <ele>391.4</ele>
        <time>2026-08-30T12:26:27.000Z</time>
      </trkpt>
      <trkpt lat="47.63413" lon="6.67323">
        <ele>391.6</ele>
        <time>2026-08-30T12:26:29.000Z</time>
      </trkpt>
      <trkpt lat="47.63418" lon="6.67322">
        <ele>391.8</ele>
        <time>2026-08-30T12:26:31.000Z</time>
      </trkpt>
      <trkpt lat="47.63422" lon="6.67321">
        <ele>392.2</ele>
        <time>2026-08-30T12:26:33.000Z</time>
      </trkpt>
      <trkpt lat="47.63426" lon="6.6732">
        <ele>392.4</ele>
        <time>2026-08-30T12:26:35.000Z</time>
      </trkpt>
      <trkpt lat="47.63429" lon="6.67319">
        <ele>392.6</ele>
        <time>2026-08-30T12:26:37.000Z</time>
      </trkpt>
      <trkpt lat="47.63434" lon="6.67318">
        <ele>393</ele>
        <time>2026-08-30T12:26:39.000Z</time>
      </trkpt>
      <trkpt lat="47.63438" lon="6.67316">
        <ele>393.2</ele>
        <time>2026-08-30T12:26:41.000Z</time>
      </trkpt>
      <trkpt lat="47.63441" lon="6.67314">
        <ele>393.4</ele>
        <time>2026-08-30T12:26:43.000Z</time>
      </trkpt>
      <trkpt lat="47.63445" lon="6.67311">
        <ele>393.8</ele>
        <time>2026-08-30T12:26:45.000Z</time>
      </trkpt>
      <trkpt lat="47.63449" lon="6.67309">
        <ele>394</ele>
        <time>2026-08-30T12:26:47.000Z</time>
      </trkpt>
      <trkpt lat="47.63452" lon="6.67306">
        <ele>394.4</ele>
        <time>2026-08-30T12:26:49.000Z</time>
      </trkpt>
      <trkpt lat="47.63456" lon="6.67303">
        <ele>394.8</ele>
        <time>2026-08-30T12:26:51.000Z</time>
      </trkpt>
      <trkpt lat="47.63459" lon="6.673">
        <ele>395.2</ele>
        <time>2026-08-30T12:26:53.000Z</time>
      </trkpt>
      <trkpt lat="47.63463" lon="6.67296">
        <ele>395.4</ele>
        <time>2026-08-30T12:26:55.000Z</time>
      </trkpt>
      <trkpt lat="47.63466" lon="6.67293">
        <ele>395.8</ele>
        <time>2026-08-30T12:26:57.000Z</time>
      </trkpt>
      <trkpt lat="47.63469" lon="6.67289">
        <ele>396.4</ele>
        <time>2026-08-30T12:26:59.000Z</time>
      </trkpt>
      <trkpt lat="47.63471" lon="6.67285">
        <ele>396.8</ele>
        <time>2026-08-30T12:27:01.000Z</time>
      </trkpt>
      <trkpt lat="47.63474" lon="6.67281">
        <ele>397.2</ele>
        <time>2026-08-30T12:27:03.000Z</time>
      </trkpt>
      <trkpt lat="47.63477" lon="6.67277">
        <ele>397.4</ele>
        <time>2026-08-30T12:27:05.000Z</time>
      </trkpt>
      <trkpt lat="47.6348" lon="6.67274">
        <ele>397.8</ele>
        <time>2026-08-30T12:27:07.000Z</time>
      </trkpt>
      <trkpt lat="47.63483" lon="6.67271">
        <ele>398</ele>
        <time>2026-08-30T12:27:09.000Z</time>
      </trkpt>
      <trkpt lat="47.63485" lon="6.67268">
        <ele>398.4</ele>
        <time>2026-08-30T12:27:11.000Z</time>
      </trkpt>
      <trkpt lat="47.63488" lon="6.67265">
        <ele>398.6</ele>
        <time>2026-08-30T12:27:13.000Z</time>
      </trkpt>
      <trkpt lat="47.63491" lon="6.67264">
        <ele>399</ele>
        <time>2026-08-30T12:27:15.000Z</time>
      </trkpt>
      <trkpt lat="47.63494" lon="6.67262">
        <ele>399.4</ele>
        <time>2026-08-30T12:27:17.000Z</time>
      </trkpt>
      <trkpt lat="47.63497" lon="6.6726">
        <ele>399.8</ele>
        <time>2026-08-30T12:27:19.000Z</time>
      </trkpt>
      <trkpt lat="47.63499" lon="6.67259">
        <ele>400.2</ele>
        <time>2026-08-30T12:27:21.000Z</time>
      </trkpt>
      <trkpt lat="47.63502" lon="6.67257">
        <ele>400.6</ele>
        <time>2026-08-30T12:27:23.000Z</time>
      </trkpt>
      <trkpt lat="47.63505" lon="6.67255">
        <ele>400.8</ele>
        <time>2026-08-30T12:27:25.000Z</time>
      </trkpt>
      <trkpt lat="47.63507" lon="6.67253">
        <ele>401.2</ele>
        <time>2026-08-30T12:27:27.000Z</time>
      </trkpt>
      <trkpt lat="47.63509" lon="6.6725">
        <ele>401.6</ele>
        <time>2026-08-30T12:27:29.000Z</time>
      </trkpt>
      <trkpt lat="47.63512" lon="6.67247">
        <ele>402.2</ele>
        <time>2026-08-30T12:27:31.000Z</time>
      </trkpt>
      <trkpt lat="47.63514" lon="6.67243">
        <ele>402.6</ele>
        <time>2026-08-30T12:27:33.000Z</time>
      </trkpt>
      <trkpt lat="47.63516" lon="6.6724">
        <ele>403</ele>
        <time>2026-08-30T12:27:35.000Z</time>
      </trkpt>
      <trkpt lat="47.63518" lon="6.67237">
        <ele>403.4</ele>
        <time>2026-08-30T12:27:37.000Z</time>
      </trkpt>
      <trkpt lat="47.63521" lon="6.67234">
        <ele>403.6</ele>
        <time>2026-08-30T12:27:39.000Z</time>
      </trkpt>
      <trkpt lat="47.63524" lon="6.67232">
        <ele>403.8</ele>
        <time>2026-08-30T12:27:41.000Z</time>
      </trkpt>
      <trkpt lat="47.63527" lon="6.67229">
        <ele>404</ele>
        <time>2026-08-30T12:27:43.000Z</time>
      </trkpt>
      <trkpt lat="47.6353" lon="6.67228">
        <ele>404.2</ele>
        <time>2026-08-30T12:27:45.000Z</time>
      </trkpt>
      <trkpt lat="47.63533" lon="6.67227">
        <ele>404.4</ele>
        <time>2026-08-30T12:27:47.000Z</time>
      </trkpt>
      <trkpt lat="47.63536" lon="6.67226">
        <ele>404.6</ele>
        <time>2026-08-30T12:27:49.000Z</time>
      </trkpt>
      <trkpt lat="47.6354" lon="6.67224">
        <ele>404.8</ele>
        <time>2026-08-30T12:27:51.000Z</time>
      </trkpt>
      <trkpt lat="47.63543" lon="6.67223">
        <ele>404.8</ele>
        <time>2026-08-30T12:27:53.000Z</time>
      </trkpt>
      <trkpt lat="47.63547" lon="6.67222">
        <ele>405</ele>
        <time>2026-08-30T12:27:55.000Z</time>
      </trkpt>
      <trkpt lat="47.63552" lon="6.67222">
        <ele>405.2</ele>
        <time>2026-08-30T12:27:57.000Z</time>
      </trkpt>
      <trkpt lat="47.63556" lon="6.6722">
        <ele>405.4</ele>
        <time>2026-08-30T12:27:59.000Z</time>
      </trkpt>
      <trkpt lat="47.63561" lon="6.67219">
        <ele>405.6</ele>
        <time>2026-08-30T12:28:01.000Z</time>
      </trkpt>
      <trkpt lat="47.63566" lon="6.67218">
        <ele>405.6</ele>
        <time>2026-08-30T12:28:03.000Z</time>
      </trkpt>
      <trkpt lat="47.6357" lon="6.67218">
        <ele>405.8</ele>
        <time>2026-08-30T12:28:05.000Z</time>
      </trkpt>
      <trkpt lat="47.63574" lon="6.67219">
        <ele>406</ele>
        <time>2026-08-30T12:28:07.000Z</time>
      </trkpt>
      <trkpt lat="47.63578" lon="6.67221">
        <ele>406.2</ele>
        <time>2026-08-30T12:28:10.000Z</time>
      </trkpt>
      <trkpt lat="47.6358" lon="6.67218">
        <ele>406.6</ele>
        <time>2026-08-30T12:28:12.000Z</time>
      </trkpt>
      <trkpt lat="47.63579" lon="6.67212">
        <ele>406.8</ele>
        <time>2026-08-30T12:28:14.000Z</time>
      </trkpt>
      <trkpt lat="47.63578" lon="6.67205">
        <ele>406.8</ele>
        <time>2026-08-30T12:28:16.000Z</time>
      </trkpt>
      <trkpt lat="47.63577" lon="6.67197">
        <ele>407</ele>
        <time>2026-08-30T12:28:18.000Z</time>
      </trkpt>
      <trkpt lat="47.63577" lon="6.6719">
        <ele>407.2</ele>
        <time>2026-08-30T12:28:20.000Z</time>
      </trkpt>
      <trkpt lat="47.63577" lon="6.67183">
        <ele>407.2</ele>
        <time>2026-08-30T12:28:22.000Z</time>
      </trkpt>
      <trkpt lat="47.63579" lon="6.67173">
        <ele>407.4</ele>
        <time>2026-08-30T12:28:24.000Z</time>
      </trkpt>
      <trkpt lat="47.6358" lon="6.67163">
        <ele>407.6</ele>
        <time>2026-08-30T12:28:26.000Z</time>
      </trkpt>
      <trkpt lat="47.6358" lon="6.67153">
        <ele>407.8</ele>
        <time>2026-08-30T12:28:28.000Z</time>
      </trkpt>
      <trkpt lat="47.63581" lon="6.67144">
        <ele>408.2</ele>
        <time>2026-08-30T12:28:30.000Z</time>
      </trkpt>
      <trkpt lat="47.63582" lon="6.67136">
        <ele>408.4</ele>
        <time>2026-08-30T12:28:32.000Z</time>
      </trkpt>
      <trkpt lat="47.63583" lon="6.67127">
        <ele>408.6</ele>
        <time>2026-08-30T12:28:34.000Z</time>
      </trkpt>
      <trkpt lat="47.63584" lon="6.67118">
        <ele>408.6</ele>
        <time>2026-08-30T12:28:36.000Z</time>
      </trkpt>
      <trkpt lat="47.63585" lon="6.67108">
        <ele>408.8</ele>
        <time>2026-08-30T12:28:38.000Z</time>
      </trkpt>
      <trkpt lat="47.63588" lon="6.67099">
        <ele>409</ele>
        <time>2026-08-30T12:28:40.000Z</time>
      </trkpt>
      <trkpt lat="47.6359" lon="6.67091">
        <ele>409</ele>
        <time>2026-08-30T12:28:42.000Z</time>
      </trkpt>
      <trkpt lat="47.63593" lon="6.67082">
        <ele>409.2</ele>
        <time>2026-08-30T12:28:44.000Z</time>
      </trkpt>
      <trkpt lat="47.63596" lon="6.67074">
        <ele>409.4</ele>
        <time>2026-08-30T12:28:46.000Z</time>
      </trkpt>
      <trkpt lat="47.63599" lon="6.67066">
        <ele>409.8</ele>
        <time>2026-08-30T12:28:48.000Z</time>
      </trkpt>
      <trkpt lat="47.63602" lon="6.67058">
        <ele>410.2</ele>
        <time>2026-08-30T12:28:50.000Z</time>
      </trkpt>
      <trkpt lat="47.63605" lon="6.6705">
        <ele>410.4</ele>
        <time>2026-08-30T12:28:52.000Z</time>
      </trkpt>
      <trkpt lat="47.63608" lon="6.67042">
        <ele>410.6</ele>
        <time>2026-08-30T12:28:54.000Z</time>
      </trkpt>
      <trkpt lat="47.63611" lon="6.67034">
        <ele>411</ele>
        <time>2026-08-30T12:28:56.000Z</time>
      </trkpt>
      <trkpt lat="47.63614" lon="6.67026">
        <ele>411.2</ele>
        <time>2026-08-30T12:28:58.000Z</time>
      </trkpt>
      <trkpt lat="47.63618" lon="6.67017">
        <ele>411.4</ele>
        <time>2026-08-30T12:29:00.000Z</time>
      </trkpt>
      <trkpt lat="47.63622" lon="6.67009">
        <ele>411.4</ele>
        <time>2026-08-30T12:29:02.000Z</time>
      </trkpt>
      <trkpt lat="47.63626" lon="6.67">
        <ele>411.6</ele>
        <time>2026-08-30T12:29:04.000Z</time>
      </trkpt>
      <trkpt lat="47.6363" lon="6.66992">
        <ele>411.6</ele>
        <time>2026-08-30T12:29:06.000Z</time>
      </trkpt>
      <trkpt lat="47.63634" lon="6.66983">
        <ele>411.6</ele>
        <time>2026-08-30T12:29:08.000Z</time>
      </trkpt>
      <trkpt lat="47.63639" lon="6.66974">
        <ele>411.6</ele>
        <time>2026-08-30T12:29:10.000Z</time>
      </trkpt>
      <trkpt lat="47.63645" lon="6.66965">
        <ele>411.4</ele>
        <time>2026-08-30T12:29:12.000Z</time>
      </trkpt>
      <trkpt lat="47.63649" lon="6.66956">
        <ele>411.4</ele>
        <time>2026-08-30T12:29:14.000Z</time>
      </trkpt>
      <trkpt lat="47.63654" lon="6.66947">
        <ele>411.6</ele>
        <time>2026-08-30T12:29:16.000Z</time>
      </trkpt>
      <trkpt lat="47.63659" lon="6.66938">
        <ele>411.6</ele>
        <time>2026-08-30T12:29:18.000Z</time>
      </trkpt>
      <trkpt lat="47.63664" lon="6.66928">
        <ele>411.6</ele>
        <time>2026-08-30T12:29:20.000Z</time>
      </trkpt>
      <trkpt lat="47.63668" lon="6.66918">
        <ele>411.6</ele>
        <time>2026-08-30T12:29:22.000Z</time>
      </trkpt>
      <trkpt lat="47.63672" lon="6.66909">
        <ele>411.8</ele>
        <time>2026-08-30T12:29:24.000Z</time>
      </trkpt>
      <trkpt lat="47.63676" lon="6.669">
        <ele>411.8</ele>
        <time>2026-08-30T12:29:26.000Z</time>
      </trkpt>
      <trkpt lat="47.6368" lon="6.66892">
        <ele>412</ele>
        <time>2026-08-30T12:29:28.000Z</time>
      </trkpt>
      <trkpt lat="47.63685" lon="6.66883">
        <ele>412.2</ele>
        <time>2026-08-30T12:29:30.000Z</time>
      </trkpt>
      <trkpt lat="47.63689" lon="6.66875">
        <ele>412.6</ele>
        <time>2026-08-30T12:29:32.000Z</time>
      </trkpt>
      <trkpt lat="47.63694" lon="6.66867">
        <ele>412.8</ele>
        <time>2026-08-30T12:29:34.000Z</time>
      </trkpt>
      <trkpt lat="47.63699" lon="6.66859">
        <ele>413</ele>
        <time>2026-08-30T12:29:36.000Z</time>
      </trkpt>
      <trkpt lat="47.63705" lon="6.66853">
        <ele>413.2</ele>
        <time>2026-08-30T12:29:38.000Z</time>
      </trkpt>
      <trkpt lat="47.63711" lon="6.66846">
        <ele>413.2</ele>
        <time>2026-08-30T12:29:40.000Z</time>
      </trkpt>
      <trkpt lat="47.63717" lon="6.6684">
        <ele>413.2</ele>
        <time>2026-08-30T12:29:42.000Z</time>
      </trkpt>
      <trkpt lat="47.63724" lon="6.66833">
        <ele>413.2</ele>
        <time>2026-08-30T12:29:45.000Z</time>
      </trkpt>
      <trkpt lat="47.6373" lon="6.66827">
        <ele>413.2</ele>
        <time>2026-08-30T12:29:47.000Z</time>
      </trkpt>
      <trkpt lat="47.63737" lon="6.6682">
        <ele>413.2</ele>
        <time>2026-08-30T12:29:49.000Z</time>
      </trkpt>
      <trkpt lat="47.63743" lon="6.66815">
        <ele>413.2</ele>
        <time>2026-08-30T12:29:51.000Z</time>
      </trkpt>
      <trkpt lat="47.6375" lon="6.6681">
        <ele>413.4</ele>
        <time>2026-08-30T12:29:53.000Z</time>
      </trkpt>
      <trkpt lat="47.63756" lon="6.66805">
        <ele>413.4</ele>
        <time>2026-08-30T12:29:55.000Z</time>
      </trkpt>
      <trkpt lat="47.63762" lon="6.66801">
        <ele>413.6</ele>
        <time>2026-08-30T12:29:57.000Z</time>
      </trkpt>
      <trkpt lat="47.63768" lon="6.66796">
        <ele>414</ele>
        <time>2026-08-30T12:29:59.000Z</time>
      </trkpt>
      <trkpt lat="47.63774" lon="6.66791">
        <ele>414.2</ele>
        <time>2026-08-30T12:30:01.000Z</time>
      </trkpt>
      <trkpt lat="47.63778" lon="6.66787">
        <ele>414.6</ele>
        <time>2026-08-30T12:30:03.000Z</time>
      </trkpt>
      <trkpt lat="47.63782" lon="6.66784">
        <ele>414.8</ele>
        <time>2026-08-30T12:30:05.000Z</time>
      </trkpt>
      <trkpt lat="47.63786" lon="6.66782">
        <ele>415.2</ele>
        <time>2026-08-30T12:30:07.000Z</time>
      </trkpt>
      <trkpt lat="47.63791" lon="6.6678">
        <ele>415.4</ele>
        <time>2026-08-30T12:30:09.000Z</time>
      </trkpt>
      <trkpt lat="47.63795" lon="6.66779">
        <ele>415.6</ele>
        <time>2026-08-30T12:30:11.000Z</time>
      </trkpt>
      <trkpt lat="47.63799" lon="6.66778">
        <ele>416</ele>
        <time>2026-08-30T12:30:13.000Z</time>
      </trkpt>
      <trkpt lat="47.63803" lon="6.66778">
        <ele>416.4</ele>
        <time>2026-08-30T12:30:15.000Z</time>
      </trkpt>
      <trkpt lat="47.63807" lon="6.66778">
        <ele>416.8</ele>
        <time>2026-08-30T12:30:17.000Z</time>
      </trkpt>
      <trkpt lat="47.63811" lon="6.66779">
        <ele>417.2</ele>
        <time>2026-08-30T12:30:19.000Z</time>
      </trkpt>
      <trkpt lat="47.63815" lon="6.6678">
        <ele>417.6</ele>
        <time>2026-08-30T12:30:21.000Z</time>
      </trkpt>
      <trkpt lat="47.63818" lon="6.66781">
        <ele>418</ele>
        <time>2026-08-30T12:30:23.000Z</time>
      </trkpt>
      <trkpt lat="47.63822" lon="6.66782">
        <ele>418.4</ele>
        <time>2026-08-30T12:30:25.000Z</time>
      </trkpt>
      <trkpt lat="47.63827" lon="6.66784">
        <ele>418.8</ele>
        <time>2026-08-30T12:30:27.000Z</time>
      </trkpt>
      <trkpt lat="47.6383" lon="6.66786">
        <ele>419</ele>
        <time>2026-08-30T12:30:29.000Z</time>
      </trkpt>
      <trkpt lat="47.63835" lon="6.66787">
        <ele>419.4</ele>
        <time>2026-08-30T12:30:31.000Z</time>
      </trkpt>
      <trkpt lat="47.63839" lon="6.66789">
        <ele>419.8</ele>
        <time>2026-08-30T12:30:33.000Z</time>
      </trkpt>
      <trkpt lat="47.63843" lon="6.6679">
        <ele>420.2</ele>
        <time>2026-08-30T12:30:35.000Z</time>
      </trkpt>
      <trkpt lat="47.63847" lon="6.66792">
        <ele>420.4</ele>
        <time>2026-08-30T12:30:37.000Z</time>
      </trkpt>
      <trkpt lat="47.63851" lon="6.66793">
        <ele>420.8</ele>
        <time>2026-08-30T12:30:39.000Z</time>
      </trkpt>
      <trkpt lat="47.63855" lon="6.66794">
        <ele>421.2</ele>
        <time>2026-08-30T12:30:41.000Z</time>
      </trkpt>
      <trkpt lat="47.63859" lon="6.66794">
        <ele>421.6</ele>
        <time>2026-08-30T12:30:43.000Z</time>
      </trkpt>
      <trkpt lat="47.63863" lon="6.66793">
        <ele>421.8</ele>
        <time>2026-08-30T12:30:45.000Z</time>
      </trkpt>
      <trkpt lat="47.63867" lon="6.6679">
        <ele>422.2</ele>
        <time>2026-08-30T12:30:47.000Z</time>
      </trkpt>
      <trkpt lat="47.6387" lon="6.66786">
        <ele>422.6</ele>
        <time>2026-08-30T12:30:49.000Z</time>
      </trkpt>
      <trkpt lat="47.63873" lon="6.66782">
        <ele>422.8</ele>
        <time>2026-08-30T12:30:51.000Z</time>
      </trkpt>
      <trkpt lat="47.63875" lon="6.66776">
        <ele>423</ele>
        <time>2026-08-30T12:30:53.000Z</time>
      </trkpt>
      <trkpt lat="47.63875" lon="6.66768">
        <ele>423.2</ele>
        <time>2026-08-30T12:30:55.000Z</time>
      </trkpt>
      <trkpt lat="47.63874" lon="6.66759">
        <ele>423</ele>
        <time>2026-08-30T12:30:57.000Z</time>
      </trkpt>
      <trkpt lat="47.63872" lon="6.66748">
        <ele>423.2</ele>
        <time>2026-08-30T12:30:59.000Z</time>
      </trkpt>
      <trkpt lat="47.63869" lon="6.66737">
        <ele>422.8</ele>
        <time>2026-08-30T12:31:01.000Z</time>
      </trkpt>
      <trkpt lat="47.63866" lon="6.66725">
        <ele>422.8</ele>
        <time>2026-08-30T12:31:03.000Z</time>
      </trkpt>
      <trkpt lat="47.63861" lon="6.66714">
        <ele>422.6</ele>
        <time>2026-08-30T12:31:05.000Z</time>
      </trkpt>
      <trkpt lat="47.63856" lon="6.66703">
        <ele>422.4</ele>
        <time>2026-08-30T12:31:07.000Z</time>
      </trkpt>
      <trkpt lat="47.6385" lon="6.66694">
        <ele>422.4</ele>
        <time>2026-08-30T12:31:09.000Z</time>
      </trkpt>
      <trkpt lat="47.63845" lon="6.66687">
        <ele>422.4</ele>
        <time>2026-08-30T12:31:11.000Z</time>
      </trkpt>
      <trkpt lat="47.63838" lon="6.66682">
        <ele>422.2</ele>
        <time>2026-08-30T12:31:13.000Z</time>
      </trkpt>
      <trkpt lat="47.63831" lon="6.66677">
        <ele>422.2</ele>
        <time>2026-08-30T12:31:15.000Z</time>
      </trkpt>
      <trkpt lat="47.63824" lon="6.6667">
        <ele>422.2</ele>
        <time>2026-08-30T12:31:17.000Z</time>
      </trkpt>
      <trkpt lat="47.63817" lon="6.66663">
        <ele>422.2</ele>
        <time>2026-08-30T12:31:19.000Z</time>
      </trkpt>
      <trkpt lat="47.6381" lon="6.66657">
        <ele>422.2</ele>
        <time>2026-08-30T12:31:21.000Z</time>
      </trkpt>
      <trkpt lat="47.63804" lon="6.66651">
        <ele>422.6</ele>
        <time>2026-08-30T12:31:23.000Z</time>
      </trkpt>
      <trkpt lat="47.63799" lon="6.66646">
        <ele>423</ele>
        <time>2026-08-30T12:31:25.000Z</time>
      </trkpt>
      <trkpt lat="47.63794" lon="6.66641">
        <ele>423.6</ele>
        <time>2026-08-30T12:31:28.000Z</time>
      </trkpt>
      <trkpt lat="47.63789" lon="6.66635">
        <ele>424.2</ele>
        <time>2026-08-30T12:31:30.000Z</time>
      </trkpt>
      <trkpt lat="47.63784" lon="6.66623">
        <ele>424.4</ele>
        <time>2026-08-30T12:31:32.000Z</time>
      </trkpt>
      <trkpt lat="47.63782" lon="6.66608">
        <ele>424.2</ele>
        <time>2026-08-30T12:31:34.000Z</time>
      </trkpt>
      <trkpt lat="47.63783" lon="6.66591">
        <ele>424</ele>
        <time>2026-08-30T12:31:36.000Z</time>
      </trkpt>
      <trkpt lat="47.63787" lon="6.66577">
        <ele>423.8</ele>
        <time>2026-08-30T12:31:38.000Z</time>
      </trkpt>
      <trkpt lat="47.63793" lon="6.66566">
        <ele>423.6</ele>
        <time>2026-08-30T12:31:40.000Z</time>
      </trkpt>
      <trkpt lat="47.63798" lon="6.66557">
        <ele>423.6</ele>
        <time>2026-08-30T12:31:42.000Z</time>
      </trkpt>
      <trkpt lat="47.63804" lon="6.66548">
        <ele>423.4</ele>
        <time>2026-08-30T12:31:44.000Z</time>
      </trkpt>
      <trkpt lat="47.6381" lon="6.66538">
        <ele>423.2</ele>
        <time>2026-08-30T12:31:46.000Z</time>
      </trkpt>
      <trkpt lat="47.63816" lon="6.66528">
        <ele>422.8</ele>
        <time>2026-08-30T12:31:48.000Z</time>
      </trkpt>
      <trkpt lat="47.63822" lon="6.66518">
        <ele>422.6</ele>
        <time>2026-08-30T12:31:50.000Z</time>
      </trkpt>
      <trkpt lat="47.63827" lon="6.66509">
        <ele>422.6</ele>
        <time>2026-08-30T12:31:52.000Z</time>
      </trkpt>
      <trkpt lat="47.63832" lon="6.66502">
        <ele>422.8</ele>
        <time>2026-08-30T12:31:54.000Z</time>
      </trkpt>
      <trkpt lat="47.63837" lon="6.66495">
        <ele>423</ele>
        <time>2026-08-30T12:31:56.000Z</time>
      </trkpt>
      <trkpt lat="47.63842" lon="6.66489">
        <ele>423.4</ele>
        <time>2026-08-30T12:31:58.000Z</time>
      </trkpt>
      <trkpt lat="47.63847" lon="6.66483">
        <ele>423.6</ele>
        <time>2026-08-30T12:32:00.000Z</time>
      </trkpt>
      <trkpt lat="47.63854" lon="6.66476">
        <ele>424</ele>
        <time>2026-08-30T12:32:02.000Z</time>
      </trkpt>
      <trkpt lat="47.63861" lon="6.66471">
        <ele>424.4</ele>
        <time>2026-08-30T12:32:04.000Z</time>
      </trkpt>
      <trkpt lat="47.63869" lon="6.6647">
        <ele>425</ele>
        <time>2026-08-30T12:32:06.000Z</time>
      </trkpt>
      <trkpt lat="47.63877" lon="6.66474">
        <ele>425.6</ele>
        <time>2026-08-30T12:32:08.000Z</time>
      </trkpt>
      <trkpt lat="47.63883" lon="6.66479">
        <ele>426</ele>
        <time>2026-08-30T12:32:10.000Z</time>
      </trkpt>
      <trkpt lat="47.63888" lon="6.66484">
        <ele>426.2</ele>
        <time>2026-08-30T12:32:12.000Z</time>
      </trkpt>
      <trkpt lat="47.63893" lon="6.6649">
        <ele>426.6</ele>
        <time>2026-08-30T12:32:14.000Z</time>
      </trkpt>
      <trkpt lat="47.63897" lon="6.66496">
        <ele>427</ele>
        <time>2026-08-30T12:32:16.000Z</time>
      </trkpt>
      <trkpt lat="47.63901" lon="6.66503">
        <ele>427.6</ele>
        <time>2026-08-30T12:32:18.000Z</time>
      </trkpt>
      <trkpt lat="47.63905" lon="6.66509">
        <ele>428</ele>
        <time>2026-08-30T12:32:20.000Z</time>
      </trkpt>
      <trkpt lat="47.6391" lon="6.66515">
        <ele>428.4</ele>
        <time>2026-08-30T12:32:22.000Z</time>
      </trkpt>
      <trkpt lat="47.63915" lon="6.6652">
        <ele>428.8</ele>
        <time>2026-08-30T12:32:24.000Z</time>
      </trkpt>
      <trkpt lat="47.63919" lon="6.66525">
        <ele>429</ele>
        <time>2026-08-30T12:32:26.000Z</time>
      </trkpt>
      <trkpt lat="47.63923" lon="6.6653">
        <ele>429.2</ele>
        <time>2026-08-30T12:32:28.000Z</time>
      </trkpt>
      <trkpt lat="47.63928" lon="6.66534">
        <ele>429.2</ele>
        <time>2026-08-30T12:32:30.000Z</time>
      </trkpt>
      <trkpt lat="47.63933" lon="6.66537">
        <ele>429.2</ele>
        <time>2026-08-30T12:32:32.000Z</time>
      </trkpt>
      <trkpt lat="47.6394" lon="6.6654">
        <ele>429.2</ele>
        <time>2026-08-30T12:32:34.000Z</time>
      </trkpt>
      <trkpt lat="47.63949" lon="6.66542">
        <ele>429</ele>
        <time>2026-08-30T12:32:36.000Z</time>
      </trkpt>
      <trkpt lat="47.63957" lon="6.66542">
        <ele>428.8</ele>
        <time>2026-08-30T12:32:38.000Z</time>
      </trkpt>
      <trkpt lat="47.63967" lon="6.66541">
        <ele>428.8</ele>
        <time>2026-08-30T12:32:40.000Z</time>
      </trkpt>
      <trkpt lat="47.63976" lon="6.66538">
        <ele>428.6</ele>
        <time>2026-08-30T12:32:42.000Z</time>
      </trkpt>
      <trkpt lat="47.63985" lon="6.66534">
        <ele>428.2</ele>
        <time>2026-08-30T12:32:44.000Z</time>
      </trkpt>
      <trkpt lat="47.63995" lon="6.66528">
        <ele>428.2</ele>
        <time>2026-08-30T12:32:46.000Z</time>
      </trkpt>
      <trkpt lat="47.64003" lon="6.66522">
        <ele>428</ele>
        <time>2026-08-30T12:32:48.000Z</time>
      </trkpt>
      <trkpt lat="47.64011" lon="6.66515">
        <ele>428</ele>
        <time>2026-08-30T12:32:50.000Z</time>
      </trkpt>
      <trkpt lat="47.64017" lon="6.66509">
        <ele>428.2</ele>
        <time>2026-08-30T12:32:52.000Z</time>
      </trkpt>
      <trkpt lat="47.64023" lon="6.66503">
        <ele>428.2</ele>
        <time>2026-08-30T12:32:54.000Z</time>
      </trkpt>
      <trkpt lat="47.64029" lon="6.66496">
        <ele>428.6</ele>
        <time>2026-08-30T12:32:56.000Z</time>
      </trkpt>
      <trkpt lat="47.64034" lon="6.6649">
        <ele>428.8</ele>
        <time>2026-08-30T12:32:58.000Z</time>
      </trkpt>
      <trkpt lat="47.64038" lon="6.66484">
        <ele>429</ele>
        <time>2026-08-30T12:33:00.000Z</time>
      </trkpt>
      <trkpt lat="47.64042" lon="6.66479">
        <ele>429.4</ele>
        <time>2026-08-30T12:33:02.000Z</time>
      </trkpt>
      <trkpt lat="47.64047" lon="6.66474">
        <ele>429.6</ele>
        <time>2026-08-30T12:33:04.000Z</time>
      </trkpt>
      <trkpt lat="47.64052" lon="6.66469">
        <ele>430</ele>
        <time>2026-08-30T12:33:06.000Z</time>
      </trkpt>
      <trkpt lat="47.64058" lon="6.66465">
        <ele>430.4</ele>
        <time>2026-08-30T12:33:08.000Z</time>
      </trkpt>
      <trkpt lat="47.64062" lon="6.66461">
        <ele>430.8</ele>
        <time>2026-08-30T12:33:10.000Z</time>
      </trkpt>
      <trkpt lat="47.64065" lon="6.66458">
        <ele>431.2</ele>
        <time>2026-08-30T12:33:12.000Z</time>
      </trkpt>
      <trkpt lat="47.64066" lon="6.66455">
        <ele>431.4</ele>
        <time>2026-08-30T12:33:14.000Z</time>
      </trkpt>
      <trkpt lat="47.64068" lon="6.66453">
        <ele>431.6</ele>
        <time>2026-08-30T12:33:16.000Z</time>
      </trkpt>
      <trkpt lat="47.6407" lon="6.66451">
        <ele>432</ele>
        <time>2026-08-30T12:33:18.000Z</time>
      </trkpt>
      <trkpt lat="47.64072" lon="6.6645">
        <ele>432</ele>
        <time>2026-08-30T12:33:20.000Z</time>
      </trkpt>
      <trkpt lat="47.64075" lon="6.6645">
        <ele>432.4</ele>
        <time>2026-08-30T12:33:23.000Z</time>
      </trkpt>
      <trkpt lat="47.64078" lon="6.66451">
        <ele>432.8</ele>
        <time>2026-08-30T12:33:25.000Z</time>
      </trkpt>
      <trkpt lat="47.64081" lon="6.66451">
        <ele>433.4</ele>
        <time>2026-08-30T12:33:27.000Z</time>
      </trkpt>
      <trkpt lat="47.64083" lon="6.6645">
        <ele>434</ele>
        <time>2026-08-30T12:33:29.000Z</time>
      </trkpt>
      <trkpt lat="47.64084" lon="6.66449">
        <ele>434.4</ele>
        <time>2026-08-30T12:33:31.000Z</time>
      </trkpt>
      <trkpt lat="47.64086" lon="6.66448">
        <ele>435</ele>
        <time>2026-08-30T12:33:33.000Z</time>
      </trkpt>
      <trkpt lat="47.64088" lon="6.66448">
        <ele>435.4</ele>
        <time>2026-08-30T12:33:35.000Z</time>
      </trkpt>
      <trkpt lat="47.64091" lon="6.66448">
        <ele>436</ele>
        <time>2026-08-30T12:33:37.000Z</time>
      </trkpt>
      <trkpt lat="47.64093" lon="6.66447">
        <ele>436.4</ele>
        <time>2026-08-30T12:33:39.000Z</time>
      </trkpt>
      <trkpt lat="47.64095" lon="6.66447">
        <ele>437</ele>
        <time>2026-08-30T12:33:41.000Z</time>
      </trkpt>
      <trkpt lat="47.64098" lon="6.66447">
        <ele>437.4</ele>
        <time>2026-08-30T12:33:43.000Z</time>
      </trkpt>
      <trkpt lat="47.641" lon="6.66447">
        <ele>437.6</ele>
        <time>2026-08-30T12:33:45.000Z</time>
      </trkpt>
      <trkpt lat="47.64102" lon="6.66446">
        <ele>438</ele>
        <time>2026-08-30T12:33:47.000Z</time>
      </trkpt>
      <trkpt lat="47.64104" lon="6.66446">
        <ele>438.4</ele>
        <time>2026-08-30T12:33:49.000Z</time>
      </trkpt>
      <trkpt lat="47.64107" lon="6.66447">
        <ele>438.8</ele>
        <time>2026-08-30T12:33:51.000Z</time>
      </trkpt>
      <trkpt lat="47.64109" lon="6.66448">
        <ele>439.4</ele>
        <time>2026-08-30T12:33:53.000Z</time>
      </trkpt>
      <trkpt lat="47.64111" lon="6.66449">
        <ele>439.8</ele>
        <time>2026-08-30T12:33:55.000Z</time>
      </trkpt>
      <trkpt lat="47.64113" lon="6.6645">
        <ele>440.2</ele>
        <time>2026-08-30T12:33:57.000Z</time>
      </trkpt>
      <trkpt lat="47.64115" lon="6.6645">
        <ele>440.6</ele>
        <time>2026-08-30T12:33:59.000Z</time>
      </trkpt>
      <trkpt lat="47.64118" lon="6.6645">
        <ele>441</ele>
        <time>2026-08-30T12:34:01.000Z</time>
      </trkpt>
      <trkpt lat="47.6412" lon="6.66449">
        <ele>441.2</ele>
        <time>2026-08-30T12:34:03.000Z</time>
      </trkpt>
      <trkpt lat="47.64123" lon="6.66449">
        <ele>441.6</ele>
        <time>2026-08-30T12:34:05.000Z</time>
      </trkpt>
      <trkpt lat="47.64125" lon="6.66448">
        <ele>441.8</ele>
        <time>2026-08-30T12:34:07.000Z</time>
      </trkpt>
      <trkpt lat="47.64127" lon="6.66449">
        <ele>442.2</ele>
        <time>2026-08-30T12:34:09.000Z</time>
      </trkpt>
      <trkpt lat="47.64129" lon="6.66451">
        <ele>442.6</ele>
        <time>2026-08-30T12:34:11.000Z</time>
      </trkpt>
      <trkpt lat="47.6413" lon="6.66453">
        <ele>443</ele>
        <time>2026-08-30T12:34:13.000Z</time>
      </trkpt>
      <trkpt lat="47.64132" lon="6.66457">
        <ele>443.4</ele>
        <time>2026-08-30T12:34:15.000Z</time>
      </trkpt>
      <trkpt lat="47.64132" lon="6.6646">
        <ele>443.6</ele>
        <time>2026-08-30T12:34:17.000Z</time>
      </trkpt>
      <trkpt lat="47.64132" lon="6.66465">
        <ele>443.8</ele>
        <time>2026-08-30T12:34:19.000Z</time>
      </trkpt>
      <trkpt lat="47.64132" lon="6.66469">
        <ele>444</ele>
        <time>2026-08-30T12:34:21.000Z</time>
      </trkpt>
      <trkpt lat="47.64133" lon="6.66474">
        <ele>444.2</ele>
        <time>2026-08-30T12:34:23.000Z</time>
      </trkpt>
      <trkpt lat="47.64134" lon="6.66478">
        <ele>444.4</ele>
        <time>2026-08-30T12:34:25.000Z</time>
      </trkpt>
      <trkpt lat="47.64135" lon="6.66482">
        <ele>444.6</ele>
        <time>2026-08-30T12:34:27.000Z</time>
      </trkpt>
      <trkpt lat="47.64136" lon="6.66485">
        <ele>444.8</ele>
        <time>2026-08-30T12:34:29.000Z</time>
      </trkpt>
      <trkpt lat="47.64137" lon="6.66489">
        <ele>444.8</ele>
        <time>2026-08-30T12:34:31.000Z</time>
      </trkpt>
      <trkpt lat="47.64137" lon="6.66494">
        <ele>445</ele>
        <time>2026-08-30T12:34:33.000Z</time>
      </trkpt>
      <trkpt lat="47.64136" lon="6.66498">
        <ele>445</ele>
        <time>2026-08-30T12:34:35.000Z</time>
      </trkpt>
      <trkpt lat="47.64135" lon="6.66503">
        <ele>445.2</ele>
        <time>2026-08-30T12:34:37.000Z</time>
      </trkpt>
      <trkpt lat="47.64135" lon="6.66507">
        <ele>445.2</ele>
        <time>2026-08-30T12:34:39.000Z</time>
      </trkpt>
      <trkpt lat="47.64134" lon="6.6651">
        <ele>445.2</ele>
        <time>2026-08-30T12:34:41.000Z</time>
      </trkpt>
      <trkpt lat="47.64133" lon="6.66514">
        <ele>445.4</ele>
        <time>2026-08-30T12:34:43.000Z</time>
      </trkpt>
      <trkpt lat="47.64132" lon="6.66519">
        <ele>445.4</ele>
        <time>2026-08-30T12:34:45.000Z</time>
      </trkpt>
      <trkpt lat="47.64131" lon="6.66523">
        <ele>445.6</ele>
        <time>2026-08-30T12:34:47.000Z</time>
      </trkpt>
      <trkpt lat="47.64129" lon="6.66526">
        <ele>445.8</ele>
        <time>2026-08-30T12:34:49.000Z</time>
      </trkpt>
      <trkpt lat="47.64127" lon="6.66529">
        <ele>446</ele>
        <time>2026-08-30T12:34:51.000Z</time>
      </trkpt>
      <trkpt lat="47.64125" lon="6.66531">
        <ele>446.2</ele>
        <time>2026-08-30T12:34:53.000Z</time>
      </trkpt>
      <trkpt lat="47.64123" lon="6.66533">
        <ele>446.4</ele>
        <time>2026-08-30T12:34:55.000Z</time>
      </trkpt>
      <trkpt lat="47.64121" lon="6.66535">
        <ele>446.6</ele>
        <time>2026-08-30T12:34:57.000Z</time>
      </trkpt>
      <trkpt lat="47.64118" lon="6.66538">
        <ele>446.8</ele>
        <time>2026-08-30T12:34:59.000Z</time>
      </trkpt>
      <trkpt lat="47.64117" lon="6.6654">
        <ele>447.2</ele>
        <time>2026-08-30T12:35:01.000Z</time>
      </trkpt>
      <trkpt lat="47.64115" lon="6.66541">
        <ele>447.6</ele>
        <time>2026-08-30T12:35:03.000Z</time>
      </trkpt>
      <trkpt lat="47.64112" lon="6.66543">
        <ele>448</ele>
        <time>2026-08-30T12:35:05.000Z</time>
      </trkpt>
      <trkpt lat="47.6411" lon="6.66544">
        <ele>448.2</ele>
        <time>2026-08-30T12:35:08.000Z</time>
      </trkpt>
      <trkpt lat="47.64108" lon="6.66545">
        <ele>448.4</ele>
        <time>2026-08-30T12:35:10.000Z</time>
      </trkpt>
      <trkpt lat="47.64106" lon="6.66546">
        <ele>448.6</ele>
        <time>2026-08-30T12:35:12.000Z</time>
      </trkpt>
      <trkpt lat="47.64103" lon="6.66547">
        <ele>449</ele>
        <time>2026-08-30T12:35:14.000Z</time>
      </trkpt>
      <trkpt lat="47.64101" lon="6.66548">
        <ele>449.2</ele>
        <time>2026-08-30T12:35:16.000Z</time>
      </trkpt>
      <trkpt lat="47.64099" lon="6.66549">
        <ele>449.6</ele>
        <time>2026-08-30T12:35:18.000Z</time>
      </trkpt>
      <trkpt lat="47.64096" lon="6.6655">
        <ele>449.8</ele>
        <time>2026-08-30T12:35:20.000Z</time>
      </trkpt>
      <trkpt lat="47.64094" lon="6.66551">
        <ele>450.2</ele>
        <time>2026-08-30T12:35:22.000Z</time>
      </trkpt>
      <trkpt lat="47.64092" lon="6.66553">
        <ele>450.4</ele>
        <time>2026-08-30T12:35:24.000Z</time>
      </trkpt>
      <trkpt lat="47.64091" lon="6.66555">
        <ele>450.8</ele>
        <time>2026-08-30T12:35:26.000Z</time>
      </trkpt>
      <trkpt lat="47.6409" lon="6.66557">
        <ele>451</ele>
        <time>2026-08-30T12:35:28.000Z</time>
      </trkpt>
      <trkpt lat="47.6409" lon="6.6656">
        <ele>451.4</ele>
        <time>2026-08-30T12:35:30.000Z</time>
      </trkpt>
      <trkpt lat="47.6409" lon="6.66563">
        <ele>451.8</ele>
        <time>2026-08-30T12:35:32.000Z</time>
      </trkpt>
      <trkpt lat="47.6409" lon="6.66566">
        <ele>452.2</ele>
        <time>2026-08-30T12:35:34.000Z</time>
      </trkpt>
      <trkpt lat="47.64089" lon="6.66569">
        <ele>452.6</ele>
        <time>2026-08-30T12:35:36.000Z</time>
      </trkpt>
      <trkpt lat="47.64088" lon="6.66572">
        <ele>453</ele>
        <time>2026-08-30T12:35:38.000Z</time>
      </trkpt>
      <trkpt lat="47.64087" lon="6.66575">
        <ele>453.4</ele>
        <time>2026-08-30T12:35:40.000Z</time>
      </trkpt>
      <trkpt lat="47.64086" lon="6.66579">
        <ele>453.8</ele>
        <time>2026-08-30T12:35:42.000Z</time>
      </trkpt>
      <trkpt lat="47.64086" lon="6.66582">
        <ele>454.2</ele>
        <time>2026-08-30T12:35:44.000Z</time>
      </trkpt>
      <trkpt lat="47.64087" lon="6.66585">
        <ele>454.6</ele>
        <time>2026-08-30T12:35:46.000Z</time>
      </trkpt>
      <trkpt lat="47.64087" lon="6.66589">
        <ele>454.8</ele>
        <time>2026-08-30T12:35:48.000Z</time>
      </trkpt>
      <trkpt lat="47.64087" lon="6.66593">
        <ele>455.2</ele>
        <time>2026-08-30T12:35:50.000Z</time>
      </trkpt>
      <trkpt lat="47.64087" lon="6.66598">
        <ele>455.4</ele>
        <time>2026-08-30T12:35:52.000Z</time>
      </trkpt>
      <trkpt lat="47.64086" lon="6.66602">
        <ele>455.8</ele>
        <time>2026-08-30T12:35:54.000Z</time>
      </trkpt>
      <trkpt lat="47.64086" lon="6.66605">
        <ele>456</ele>
        <time>2026-08-30T12:35:56.000Z</time>
      </trkpt>
      <trkpt lat="47.64086" lon="6.66609">
        <ele>456.4</ele>
        <time>2026-08-30T12:35:58.000Z</time>
      </trkpt>
      <trkpt lat="47.64086" lon="6.66612">
        <ele>456.6</ele>
        <time>2026-08-30T12:36:00.000Z</time>
      </trkpt>
      <trkpt lat="47.64087" lon="6.66616">
        <ele>456.8</ele>
        <time>2026-08-30T12:36:02.000Z</time>
      </trkpt>
      <trkpt lat="47.64087" lon="6.6662">
        <ele>457.2</ele>
        <time>2026-08-30T12:36:04.000Z</time>
      </trkpt>
      <trkpt lat="47.64087" lon="6.66624">
        <ele>457.4</ele>
        <time>2026-08-30T12:36:06.000Z</time>
      </trkpt>
      <trkpt lat="47.64087" lon="6.66628">
        <ele>457.8</ele>
        <time>2026-08-30T12:36:08.000Z</time>
      </trkpt>
      <trkpt lat="47.64087" lon="6.66632">
        <ele>458</ele>
        <time>2026-08-30T12:36:10.000Z</time>
      </trkpt>
      <trkpt lat="47.64088" lon="6.66636">
        <ele>458.2</ele>
        <time>2026-08-30T12:36:12.000Z</time>
      </trkpt>
      <trkpt lat="47.64088" lon="6.6664">
        <ele>458.4</ele>
        <time>2026-08-30T12:36:14.000Z</time>
      </trkpt>
      <trkpt lat="47.64089" lon="6.66645">
        <ele>458.6</ele>
        <time>2026-08-30T12:36:16.000Z</time>
      </trkpt>
      <trkpt lat="47.64089" lon="6.66649">
        <ele>458.8</ele>
        <time>2026-08-30T12:36:18.000Z</time>
      </trkpt>
      <trkpt lat="47.64089" lon="6.66655">
        <ele>458.8</ele>
        <time>2026-08-30T12:36:20.000Z</time>
      </trkpt>
      <trkpt lat="47.64089" lon="6.6666">
        <ele>459</ele>
        <time>2026-08-30T12:36:22.000Z</time>
      </trkpt>
      <trkpt lat="47.6409" lon="6.66666">
        <ele>459.2</ele>
        <time>2026-08-30T12:36:24.000Z</time>
      </trkpt>
      <trkpt lat="47.6409" lon="6.66672">
        <ele>459.4</ele>
        <time>2026-08-30T12:36:26.000Z</time>
      </trkpt>
      <trkpt lat="47.6409" lon="6.66678">
        <ele>459.6</ele>
        <time>2026-08-30T12:36:28.000Z</time>
      </trkpt>
      <trkpt lat="47.6409" lon="6.66685">
        <ele>459.6</ele>
        <time>2026-08-30T12:36:30.000Z</time>
      </trkpt>
      <trkpt lat="47.64091" lon="6.66691">
        <ele>459.8</ele>
        <time>2026-08-30T12:36:32.000Z</time>
      </trkpt>
      <trkpt lat="47.64091" lon="6.66697">
        <ele>460</ele>
        <time>2026-08-30T12:36:34.000Z</time>
      </trkpt>
      <trkpt lat="47.64091" lon="6.66704">
        <ele>460.2</ele>
        <time>2026-08-30T12:36:36.000Z</time>
      </trkpt>
      <trkpt lat="47.64091" lon="6.6671">
        <ele>460.2</ele>
        <time>2026-08-30T12:36:38.000Z</time>
      </trkpt>
      <trkpt lat="47.64091" lon="6.66716">
        <ele>460.4</ele>
        <time>2026-08-30T12:36:40.000Z</time>
      </trkpt>
      <trkpt lat="47.6409" lon="6.66723">
        <ele>460.6</ele>
        <time>2026-08-30T12:36:42.000Z</time>
      </trkpt>
      <trkpt lat="47.6409" lon="6.66729">
        <ele>460.8</ele>
        <time>2026-08-30T12:36:44.000Z</time>
      </trkpt>
      <trkpt lat="47.6409" lon="6.66735">
        <ele>461.2</ele>
        <time>2026-08-30T12:36:46.000Z</time>
      </trkpt>
      <trkpt lat="47.6409" lon="6.66741">
        <ele>461.4</ele>
        <time>2026-08-30T12:36:48.000Z</time>
      </trkpt>
      <trkpt lat="47.6409" lon="6.66747">
        <ele>461.8</ele>
        <time>2026-08-30T12:36:51.000Z</time>
      </trkpt>
      <trkpt lat="47.6409" lon="6.66753">
        <ele>462</ele>
        <time>2026-08-30T12:36:53.000Z</time>
      </trkpt>
      <trkpt lat="47.6409" lon="6.66759">
        <ele>462.4</ele>
        <time>2026-08-30T12:36:55.000Z</time>
      </trkpt>
      <trkpt lat="47.64089" lon="6.66765">
        <ele>462.6</ele>
        <time>2026-08-30T12:36:57.000Z</time>
      </trkpt>
      <trkpt lat="47.64089" lon="6.66771">
        <ele>462.8</ele>
        <time>2026-08-30T12:36:59.000Z</time>
      </trkpt>
      <trkpt lat="47.64088" lon="6.66777">
        <ele>463</ele>
        <time>2026-08-30T12:37:01.000Z</time>
      </trkpt>
      <trkpt lat="47.64088" lon="6.66782">
        <ele>463.2</ele>
        <time>2026-08-30T12:37:03.000Z</time>
      </trkpt>
      <trkpt lat="47.64087" lon="6.66788">
        <ele>463</ele>
        <time>2026-08-30T12:37:05.000Z</time>
      </trkpt>
      <trkpt lat="47.64085" lon="6.66797">
        <ele>462.2</ele>
        <time>2026-08-30T12:37:07.000Z</time>
      </trkpt>
      <trkpt lat="47.64084" lon="6.66807">
        <ele>460.8</ele>
        <time>2026-08-30T12:37:09.000Z</time>
      </trkpt>
      <trkpt lat="47.64084" lon="6.66818">
        <ele>458.6</ele>
        <time>2026-08-30T12:37:11.000Z</time>
      </trkpt>
      <trkpt lat="47.64084" lon="6.66836">
        <ele>457.2</ele>
        <time>2026-08-30T12:37:13.000Z</time>
      </trkpt>
      <trkpt lat="47.64084" lon="6.66855">
        <ele>456.4</ele>
        <time>2026-08-30T12:37:15.000Z</time>
      </trkpt>
      <trkpt lat="47.64085" lon="6.6687">
        <ele>455.8</ele>
        <time>2026-08-30T12:37:17.000Z</time>
      </trkpt>
      <trkpt lat="47.64084" lon="6.66881">
        <ele>455.8</ele>
        <time>2026-08-30T12:37:19.000Z</time>
      </trkpt>
      <trkpt lat="47.64083" lon="6.66889">
        <ele>455.6</ele>
        <time>2026-08-30T12:37:21.000Z</time>
      </trkpt>
      <trkpt lat="47.64082" lon="6.66894">
        <ele>455.8</ele>
        <time>2026-08-30T12:37:23.000Z</time>
      </trkpt>
      <trkpt lat="47.64081" lon="6.66899">
        <ele>456</ele>
        <time>2026-08-30T12:37:25.000Z</time>
      </trkpt>
      <trkpt lat="47.64081" lon="6.66904">
        <ele>456.2</ele>
        <time>2026-08-30T12:37:27.000Z</time>
      </trkpt>
      <trkpt lat="47.64081" lon="6.66911">
        <ele>456.6</ele>
        <time>2026-08-30T12:37:29.000Z</time>
      </trkpt>
      <trkpt lat="47.64081" lon="6.66919">
        <ele>456.8</ele>
        <time>2026-08-30T12:37:31.000Z</time>
      </trkpt>
      <trkpt lat="47.64081" lon="6.66926">
        <ele>457</ele>
        <time>2026-08-30T12:37:33.000Z</time>
      </trkpt>
      <trkpt lat="47.6408" lon="6.66933">
        <ele>457.2</ele>
        <time>2026-08-30T12:37:35.000Z</time>
      </trkpt>
      <trkpt lat="47.64079" lon="6.66939">
        <ele>457.6</ele>
        <time>2026-08-30T12:37:37.000Z</time>
      </trkpt>
      <trkpt lat="47.64079" lon="6.66946">
        <ele>457.8</ele>
        <time>2026-08-30T12:37:39.000Z</time>
      </trkpt>
      <trkpt lat="47.64078" lon="6.66952">
        <ele>458</ele>
        <time>2026-08-30T12:37:41.000Z</time>
      </trkpt>
      <trkpt lat="47.64078" lon="6.66958">
        <ele>458.2</ele>
        <time>2026-08-30T12:37:43.000Z</time>
      </trkpt>
      <trkpt lat="47.64077" lon="6.66964">
        <ele>458.6</ele>
        <time>2026-08-30T12:37:45.000Z</time>
      </trkpt>
      <trkpt lat="47.64077" lon="6.6697">
        <ele>458.8</ele>
        <time>2026-08-30T12:37:47.000Z</time>
      </trkpt>
      <trkpt lat="47.64077" lon="6.66976">
        <ele>459</ele>
        <time>2026-08-30T12:37:49.000Z</time>
      </trkpt>
      <trkpt lat="47.64077" lon="6.66981">
        <ele>459.2</ele>
        <time>2026-08-30T12:37:51.000Z</time>
      </trkpt>
      <trkpt lat="47.64076" lon="6.66987">
        <ele>459.4</ele>
        <time>2026-08-30T12:37:53.000Z</time>
      </trkpt>
      <trkpt lat="47.64075" lon="6.66993">
        <ele>459.8</ele>
        <time>2026-08-30T12:37:55.000Z</time>
      </trkpt>
      <trkpt lat="47.64074" lon="6.67">
        <ele>460</ele>
        <time>2026-08-30T12:37:57.000Z</time>
      </trkpt>
      <trkpt lat="47.64074" lon="6.67007">
        <ele>460.2</ele>
        <time>2026-08-30T12:38:00.000Z</time>
      </trkpt>
      <trkpt lat="47.64074" lon="6.67015">
        <ele>460.2</ele>
        <time>2026-08-30T12:38:02.000Z</time>
      </trkpt>
      <trkpt lat="47.64073" lon="6.67022">
        <ele>460.4</ele>
        <time>2026-08-30T12:38:04.000Z</time>
      </trkpt>
      <trkpt lat="47.64074" lon="6.67028">
        <ele>460.6</ele>
        <time>2026-08-30T12:38:06.000Z</time>
      </trkpt>
      <trkpt lat="47.64074" lon="6.67033">
        <ele>460.8</ele>
        <time>2026-08-30T12:38:08.000Z</time>
      </trkpt>
      <trkpt lat="47.64074" lon="6.67039">
        <ele>461</ele>
        <time>2026-08-30T12:38:10.000Z</time>
      </trkpt>
      <trkpt lat="47.64074" lon="6.67045">
        <ele>461.2</ele>
        <time>2026-08-30T12:38:12.000Z</time>
      </trkpt>
      <trkpt lat="47.64074" lon="6.67052">
        <ele>461.2</ele>
        <time>2026-08-30T12:38:14.000Z</time>
      </trkpt>
      <trkpt lat="47.64074" lon="6.67058">
        <ele>461.4</ele>
        <time>2026-08-30T12:38:16.000Z</time>
      </trkpt>
      <trkpt lat="47.64074" lon="6.67065">
        <ele>461.4</ele>
        <time>2026-08-30T12:38:18.000Z</time>
      </trkpt>
      <trkpt lat="47.64074" lon="6.67073">
        <ele>461.6</ele>
        <time>2026-08-30T12:38:20.000Z</time>
      </trkpt>
      <trkpt lat="47.64074" lon="6.6708">
        <ele>461.6</ele>
        <time>2026-08-30T12:38:22.000Z</time>
      </trkpt>
      <trkpt lat="47.64074" lon="6.67088">
        <ele>461.8</ele>
        <time>2026-08-30T12:38:24.000Z</time>
      </trkpt>
      <trkpt lat="47.64074" lon="6.67096">
        <ele>462</ele>
        <time>2026-08-30T12:38:26.000Z</time>
      </trkpt>
      <trkpt lat="47.64074" lon="6.67104">
        <ele>462</ele>
        <time>2026-08-30T12:38:28.000Z</time>
      </trkpt>
      <trkpt lat="47.64074" lon="6.67111">
        <ele>462</ele>
        <time>2026-08-30T12:38:30.000Z</time>
      </trkpt>
      <trkpt lat="47.64075" lon="6.6712">
        <ele>461.6</ele>
        <time>2026-08-30T12:38:32.000Z</time>
      </trkpt>
      <trkpt lat="47.64076" lon="6.6713">
        <ele>461.4</ele>
        <time>2026-08-30T12:38:34.000Z</time>
      </trkpt>
      <trkpt lat="47.64077" lon="6.67143">
        <ele>460.8</ele>
        <time>2026-08-30T12:38:36.000Z</time>
      </trkpt>
      <trkpt lat="47.64081" lon="6.67156">
        <ele>460</ele>
        <time>2026-08-30T12:38:38.000Z</time>
      </trkpt>
      <trkpt lat="47.64086" lon="6.6717">
        <ele>458.4</ele>
        <time>2026-08-30T12:38:40.000Z</time>
      </trkpt>
      <trkpt lat="47.64095" lon="6.67188">
        <ele>456.8</ele>
        <time>2026-08-30T12:38:42.000Z</time>
      </trkpt>
      <trkpt lat="47.64104" lon="6.67207">
        <ele>455</ele>
        <time>2026-08-30T12:38:44.000Z</time>
      </trkpt>
      <trkpt lat="47.64109" lon="6.6722">
        <ele>453.2</ele>
        <time>2026-08-30T12:38:46.000Z</time>
      </trkpt>
      <trkpt lat="47.64109" lon="6.67232">
        <ele>451.8</ele>
        <time>2026-08-30T12:38:48.000Z</time>
      </trkpt>
      <trkpt lat="47.64111" lon="6.67248">
        <ele>450.8</ele>
        <time>2026-08-30T12:38:50.000Z</time>
      </trkpt>
      <trkpt lat="47.64117" lon="6.67265">
        <ele>450</ele>
        <time>2026-08-30T12:38:52.000Z</time>
      </trkpt>
      <trkpt lat="47.64125" lon="6.67281">
        <ele>449.4</ele>
        <time>2026-08-30T12:38:54.000Z</time>
      </trkpt>
      <trkpt lat="47.64136" lon="6.67297">
        <ele>448.8</ele>
        <time>2026-08-30T12:38:56.000Z</time>
      </trkpt>
      <trkpt lat="47.64146" lon="6.6731">
        <ele>448.2</ele>
        <time>2026-08-30T12:38:58.000Z</time>
      </trkpt>
      <trkpt lat="47.64155" lon="6.6732">
        <ele>447.2</ele>
        <time>2026-08-30T12:39:00.000Z</time>
      </trkpt>
      <trkpt lat="47.64164" lon="6.67326">
        <ele>446.6</ele>
        <time>2026-08-30T12:39:02.000Z</time>
      </trkpt>
      <trkpt lat="47.64175" lon="6.67328">
        <ele>445.8</ele>
        <time>2026-08-30T12:39:04.000Z</time>
      </trkpt>
      <trkpt lat="47.64187" lon="6.67332">
        <ele>444.8</ele>
        <time>2026-08-30T12:39:06.000Z</time>
      </trkpt>
      <trkpt lat="47.64198" lon="6.67343">
        <ele>443.6</ele>
        <time>2026-08-30T12:39:08.000Z</time>
      </trkpt>
      <trkpt lat="47.64205" lon="6.67358">
        <ele>442</ele>
        <time>2026-08-30T12:39:10.000Z</time>
      </trkpt>
      <trkpt lat="47.64208" lon="6.67375">
        <ele>440.8</ele>
        <time>2026-08-30T12:39:12.000Z</time>
      </trkpt>
      <trkpt lat="47.64206" lon="6.6739">
        <ele>439.8</ele>
        <time>2026-08-30T12:39:14.000Z</time>
      </trkpt>
      <trkpt lat="47.64202" lon="6.67402">
        <ele>439.2</ele>
        <time>2026-08-30T12:39:16.000Z</time>
      </trkpt>
      <trkpt lat="47.64201" lon="6.6741">
        <ele>438.8</ele>
        <time>2026-08-30T12:39:18.000Z</time>
      </trkpt>
      <trkpt lat="47.64203" lon="6.67417">
        <ele>438.4</ele>
        <time>2026-08-30T12:39:20.000Z</time>
      </trkpt>
      <trkpt lat="47.64207" lon="6.67424">
        <ele>438.2</ele>
        <time>2026-08-30T12:39:22.000Z</time>
      </trkpt>
      <trkpt lat="47.64212" lon="6.67431">
        <ele>438.2</ele>
        <time>2026-08-30T12:39:24.000Z</time>
      </trkpt>
      <trkpt lat="47.64217" lon="6.67439">
        <ele>438.2</ele>
        <time>2026-08-30T12:39:26.000Z</time>
      </trkpt>
      <trkpt lat="47.64222" lon="6.67449">
        <ele>437.8</ele>
        <time>2026-08-30T12:39:28.000Z</time>
      </trkpt>
      <trkpt lat="47.64227" lon="6.67458">
        <ele>437.6</ele>
        <time>2026-08-30T12:39:30.000Z</time>
      </trkpt>
      <trkpt lat="47.64232" lon="6.67467">
        <ele>437.2</ele>
        <time>2026-08-30T12:39:32.000Z</time>
      </trkpt>
      <trkpt lat="47.64238" lon="6.67476">
        <ele>437.2</ele>
        <time>2026-08-30T12:39:34.000Z</time>
      </trkpt>
      <trkpt lat="47.64244" lon="6.67485">
        <ele>437</ele>
        <time>2026-08-30T12:39:36.000Z</time>
      </trkpt>
      <trkpt lat="47.64249" lon="6.67494">
        <ele>437</ele>
        <time>2026-08-30T12:39:38.000Z</time>
      </trkpt>
      <trkpt lat="47.64255" lon="6.67503">
        <ele>437</ele>
        <time>2026-08-30T12:39:40.000Z</time>
      </trkpt>
      <trkpt lat="47.64261" lon="6.67511">
        <ele>437</ele>
        <time>2026-08-30T12:39:42.000Z</time>
      </trkpt>
      <trkpt lat="47.64267" lon="6.67519">
        <ele>437.2</ele>
        <time>2026-08-30T12:39:44.000Z</time>
      </trkpt>
      <trkpt lat="47.64273" lon="6.67528">
        <ele>437.4</ele>
        <time>2026-08-30T12:39:46.000Z</time>
      </trkpt>
      <trkpt lat="47.64278" lon="6.67535">
        <ele>437.4</ele>
        <time>2026-08-30T12:39:48.000Z</time>
      </trkpt>
      <trkpt lat="47.64284" lon="6.67543">
        <ele>437.6</ele>
        <time>2026-08-30T12:39:50.000Z</time>
      </trkpt>
      <trkpt lat="47.6429" lon="6.67551">
        <ele>437.6</ele>
        <time>2026-08-30T12:39:52.000Z</time>
      </trkpt>
      <trkpt lat="47.64295" lon="6.67558">
        <ele>437.8</ele>
        <time>2026-08-30T12:39:54.000Z</time>
      </trkpt>
      <trkpt lat="47.64301" lon="6.67565">
        <ele>438</ele>
        <time>2026-08-30T12:39:57.000Z</time>
      </trkpt>
      <trkpt lat="47.64306" lon="6.67571">
        <ele>438</ele>
        <time>2026-08-30T12:39:59.000Z</time>
      </trkpt>
      <trkpt lat="47.64312" lon="6.67576">
        <ele>438.2</ele>
        <time>2026-08-30T12:40:01.000Z</time>
      </trkpt>
      <trkpt lat="47.64317" lon="6.67577">
        <ele>438.2</ele>
        <time>2026-08-30T12:40:03.000Z</time>
      </trkpt>
      <trkpt lat="47.64321" lon="6.67573">
        <ele>438.2</ele>
        <time>2026-08-30T12:40:05.000Z</time>
      </trkpt>
      <trkpt lat="47.64323" lon="6.67568">
        <ele>438.2</ele>
        <time>2026-08-30T12:40:07.000Z</time>
      </trkpt>
      <trkpt lat="47.64324" lon="6.67564">
        <ele>438</ele>
        <time>2026-08-30T12:40:09.000Z</time>
      </trkpt>
      <trkpt lat="47.64325" lon="6.67561">
        <ele>437.8</ele>
        <time>2026-08-30T12:40:11.000Z</time>
      </trkpt>
      <trkpt lat="47.64325" lon="6.67558">
        <ele>437.6</ele>
        <time>2026-08-30T12:40:13.000Z</time>
      </trkpt>
      <trkpt lat="47.64325" lon="6.67556">
        <ele>437.2</ele>
        <time>2026-08-30T12:40:15.000Z</time>
      </trkpt>
      <trkpt lat="47.64324" lon="6.67556">
        <ele>437</ele>
        <time>2026-08-30T12:40:17.000Z</time>
      </trkpt>
      <trkpt lat="47.64324" lon="6.67556">
        <ele>436.8</ele>
        <time>2026-08-30T12:40:19.000Z</time>
      </trkpt>
      <trkpt lat="47.64324" lon="6.67556">
        <ele>436.8</ele>
        <time>2026-08-30T12:40:21.000Z</time>
      </trkpt>
      <trkpt lat="47.64325" lon="6.67555">
        <ele>436.6</ele>
        <time>2026-08-30T12:40:23.000Z</time>
      </trkpt>
      <trkpt lat="47.64325" lon="6.67555">
        <ele>436.6</ele>
        <time>2026-08-30T12:40:25.000Z</time>
      </trkpt>
      <trkpt lat="47.64325" lon="6.67555">
        <ele>436.4</ele>
        <time>2026-08-30T12:40:27.000Z</time>
      </trkpt>
      <trkpt lat="47.64325" lon="6.67555">
        <ele>436.4</ele>
        <time>2026-08-30T12:40:29.000Z</time>
      </trkpt>
      <trkpt lat="47.64325" lon="6.67555">
        <ele>436.4</ele>
        <time>2026-08-30T12:40:31.000Z</time>
      </trkpt>
      <trkpt lat="47.64325" lon="6.67555">
        <ele>436.6</ele>
        <time>2026-08-30T12:40:33.000Z</time>
      </trkpt>
      <trkpt lat="47.64325" lon="6.67555">
        <ele>436.6</ele>
        <time>2026-08-30T12:40:35.000Z</time>
      </trkpt>
      <trkpt lat="47.64325" lon="6.67555">
        <ele>436.6</ele>
        <time>2026-08-30T12:40:37.000Z</time>
      </trkpt>
      <trkpt lat="47.64325" lon="6.67555">
        <ele>436.8</ele>
        <time>2026-08-30T12:40:39.000Z</time>
      </trkpt>
      <trkpt lat="47.64325" lon="6.67555">
        <ele>436.8</ele>
        <time>2026-08-30T12:40:41.000Z</time>
      </trkpt>
      <trkpt lat="47.64325" lon="6.67555">
        <ele>436.8</ele>
        <time>2026-08-30T12:40:43.000Z</time>
      </trkpt>
      <trkpt lat="47.64324" lon="6.67555">
        <ele>436.6</ele>
        <time>2026-08-30T12:40:45.000Z</time>
      </trkpt>
      <trkpt lat="47.64325" lon="6.67556">
        <ele>436.6</ele>
        <time>2026-08-30T12:40:47.000Z</time>
      </trkpt>
      <trkpt lat="47.64325" lon="6.67556">
        <ele>436.6</ele>
        <time>2026-08-30T12:40:49.000Z</time>
      </trkpt>
      <trkpt lat="47.64324" lon="6.67555">
        <ele>436.6</ele>
        <time>2026-08-30T12:40:51.000Z</time>
      </trkpt>
      <trkpt lat="47.64324" lon="6.67555">
        <ele>436.6</ele>
        <time>2026-08-30T12:40:53.000Z</time>
      </trkpt>
      <trkpt lat="47.64324" lon="6.67554">
        <ele>436.4</ele>
        <time>2026-08-30T12:40:55.000Z</time>
      </trkpt>
      <trkpt lat="47.64324" lon="6.67555">
        <ele>436.4</ele>
        <time>2026-08-30T12:40:57.000Z</time>
      </trkpt>
      <trkpt lat="47.64324" lon="6.67556">
        <ele>436.4</ele>
        <time>2026-08-30T12:40:59.000Z</time>
      </trkpt>
      <trkpt lat="47.64324" lon="6.67558">
        <ele>436.6</ele>
        <time>2026-08-30T12:41:01.000Z</time>
      </trkpt>
      <trkpt lat="47.64324" lon="6.67561">
        <ele>436.8</ele>
        <time>2026-08-30T12:41:03.000Z</time>
      </trkpt>
      <trkpt lat="47.64324" lon="6.67564">
        <ele>437.2</ele>
        <time>2026-08-30T12:41:05.000Z</time>
      </trkpt>
      <trkpt lat="47.64323" lon="6.67566">
        <ele>437.4</ele>
        <time>2026-08-30T12:41:07.000Z</time>
      </trkpt>
      <trkpt lat="47.64321" lon="6.67568">
        <ele>437.6</ele>
        <time>2026-08-30T12:41:09.000Z</time>
      </trkpt>
      <trkpt lat="47.6432" lon="6.6757">
        <ele>437.6</ele>
        <time>2026-08-30T12:41:11.000Z</time>
      </trkpt>
      <trkpt lat="47.6432" lon="6.6757">
        <ele>437.8</ele>
        <time>2026-08-30T12:41:13.000Z</time>
      </trkpt>
      <trkpt lat="47.6432" lon="6.6757">
        <ele>437.8</ele>
        <time>2026-08-30T12:41:15.000Z</time>
      </trkpt>
      <trkpt lat="47.64319" lon="6.67571">
        <ele>438</ele>
        <time>2026-08-30T12:41:17.000Z</time>
      </trkpt>
      <trkpt lat="47.64318" lon="6.67573">
        <ele>438</ele>
        <time>2026-08-30T12:41:19.000Z</time>
      </trkpt>
      <trkpt lat="47.64316" lon="6.67573">
        <ele>438</ele>
        <time>2026-08-30T12:41:21.000Z</time>
      </trkpt>
      <trkpt lat="47.64316" lon="6.67573">
        <ele>438</ele>
        <time>2026-08-30T12:41:23.000Z</time>
      </trkpt>
      <trkpt lat="47.64316" lon="6.67573">
        <ele>438</ele>
        <time>2026-08-30T12:41:25.000Z</time>
      </trkpt>
      <trkpt lat="47.64315" lon="6.67573">
        <ele>438.2</ele>
        <time>2026-08-30T12:41:27.000Z</time>
      </trkpt>
      <trkpt lat="47.64314" lon="6.67573">
        <ele>438.2</ele>
        <time>2026-08-30T12:41:29.000Z</time>
      </trkpt>
      <trkpt lat="47.64312" lon="6.67572">
        <ele>438</ele>
        <time>2026-08-30T12:41:32.000Z</time>
      </trkpt>
      <trkpt lat="47.6431" lon="6.67571">
        <ele>438</ele>
        <time>2026-08-30T12:41:34.000Z</time>
      </trkpt>
      <trkpt lat="47.64307" lon="6.67569">
        <ele>438</ele>
        <time>2026-08-30T12:41:36.000Z</time>
      </trkpt>
      <trkpt lat="47.64303" lon="6.67564">
        <ele>438</ele>
        <time>2026-08-30T12:41:38.000Z</time>
      </trkpt>
      <trkpt lat="47.64299" lon="6.67559">
        <ele>438</ele>
        <time>2026-08-30T12:41:40.000Z</time>
      </trkpt>
      <trkpt lat="47.64294" lon="6.67553">
        <ele>438</ele>
        <time>2026-08-30T12:41:42.000Z</time>
      </trkpt>
      <trkpt lat="47.64289" lon="6.67546">
        <ele>438</ele>
        <time>2026-08-30T12:41:44.000Z</time>
      </trkpt>
      <trkpt lat="47.64285" lon="6.6754">
        <ele>438</ele>
        <time>2026-08-30T12:41:46.000Z</time>
      </trkpt>
      <trkpt lat="47.6428" lon="6.67533">
        <ele>438</ele>
        <time>2026-08-30T12:41:48.000Z</time>
      </trkpt>
      <trkpt lat="47.64276" lon="6.67526">
        <ele>437.8</ele>
        <time>2026-08-30T12:41:50.000Z</time>
      </trkpt>
      <trkpt lat="47.64271" lon="6.6752">
        <ele>437.8</ele>
        <time>2026-08-30T12:41:52.000Z</time>
      </trkpt>
      <trkpt lat="47.64266" lon="6.67513">
        <ele>437.6</ele>
        <time>2026-08-30T12:41:54.000Z</time>
      </trkpt>
      <trkpt lat="47.64261" lon="6.67506">
        <ele>437.6</ele>
        <time>2026-08-30T12:41:56.000Z</time>
      </trkpt>
      <trkpt lat="47.64255" lon="6.675">
        <ele>437.4</ele>
        <time>2026-08-30T12:41:58.000Z</time>
      </trkpt>
      <trkpt lat="47.6425" lon="6.67493">
        <ele>437.4</ele>
        <time>2026-08-30T12:42:00.000Z</time>
      </trkpt>
      <trkpt lat="47.64245" lon="6.67486">
        <ele>437.2</ele>
        <time>2026-08-30T12:42:02.000Z</time>
      </trkpt>
      <trkpt lat="47.64241" lon="6.67479">
        <ele>437.2</ele>
        <time>2026-08-30T12:42:04.000Z</time>
      </trkpt>
      <trkpt lat="47.64237" lon="6.6747">
        <ele>437</ele>
        <time>2026-08-30T12:42:06.000Z</time>
      </trkpt>
      <trkpt lat="47.64231" lon="6.6746">
        <ele>437.2</ele>
        <time>2026-08-30T12:42:08.000Z</time>
      </trkpt>
      <trkpt lat="47.64227" lon="6.67452">
        <ele>437</ele>
        <time>2026-08-30T12:42:10.000Z</time>
      </trkpt>
      <trkpt lat="47.64223" lon="6.67445">
        <ele>437.2</ele>
        <time>2026-08-30T12:42:12.000Z</time>
      </trkpt>
      <trkpt lat="47.64219" lon="6.67438">
        <ele>437.2</ele>
        <time>2026-08-30T12:42:14.000Z</time>
      </trkpt>
      <trkpt lat="47.64215" lon="6.67432">
        <ele>437.4</ele>
        <time>2026-08-30T12:42:16.000Z</time>
      </trkpt>
      <trkpt lat="47.64211" lon="6.67425">
        <ele>437.6</ele>
        <time>2026-08-30T12:42:18.000Z</time>
      </trkpt>
      <trkpt lat="47.64207" lon="6.67418">
        <ele>437.8</ele>
        <time>2026-08-30T12:42:20.000Z</time>
      </trkpt>
      <trkpt lat="47.64203" lon="6.67412">
        <ele>437.8</ele>
        <time>2026-08-30T12:42:22.000Z</time>
      </trkpt>
      <trkpt lat="47.64199" lon="6.67405">
        <ele>438</ele>
        <time>2026-08-30T12:42:24.000Z</time>
      </trkpt>
      <trkpt lat="47.64194" lon="6.67398">
        <ele>438.4</ele>
        <time>2026-08-30T12:42:26.000Z</time>
      </trkpt>
      <trkpt lat="47.64189" lon="6.67393">
        <ele>438.6</ele>
        <time>2026-08-30T12:42:28.000Z</time>
      </trkpt>
      <trkpt lat="47.64183" lon="6.67389">
        <ele>439</ele>
        <time>2026-08-30T12:42:30.000Z</time>
      </trkpt>
      <trkpt lat="47.64178" lon="6.67384">
        <ele>439.2</ele>
        <time>2026-08-30T12:42:32.000Z</time>
      </trkpt>
      <trkpt lat="47.64173" lon="6.67381">
        <ele>439.4</ele>
        <time>2026-08-30T12:42:34.000Z</time>
      </trkpt>
      <trkpt lat="47.64167" lon="6.67378">
        <ele>439.6</ele>
        <time>2026-08-30T12:42:36.000Z</time>
      </trkpt>
      <trkpt lat="47.64162" lon="6.67375">
        <ele>439.6</ele>
        <time>2026-08-30T12:42:38.000Z</time>
      </trkpt>
      <trkpt lat="47.64156" lon="6.67373">
        <ele>439.8</ele>
        <time>2026-08-30T12:42:40.000Z</time>
      </trkpt>
    </trkseg>
  </trk>
</gpx>